<?xml version="1.0" encoding="UTF-8"?>
<gpx xmlns="http://www.topografix.com/GPX/1/1"
     creator="GpsDumpMac 0.29"
     version="1.1"
     xmlns:xsi="http://www.w3.org/2001/XMLSchema-instance"
     xsi:schemaLocation="http://www.topografix.com/GPX/1/1 http://www.topografix.com/GPX/1/1/gpx.xsd">
  <metadata>
    <link href="http://www.gethome.no/stein.sorensen/">
      <text>GPS dump for www.flightlog.org</text>
    </link>
    <time>2018-09-19T12:26:06Z</time>
    <bounds minlat="40.224933" minlon="-4.920567" maxlat="40.302683" maxlon="-4.599617"/>
  </metadata>
  <trk>
    <name>Track 001</name>
    <trkseg>
      <trkpt lat="40.256267" lon="-4.905850">
        <ele>1247.0</ele>
        <time>2018-09-16T12:08:18Z</time>
      </trkpt>
      <trkpt lat="40.256200" lon="-4.905900">
        <ele>1247.0</ele>
        <time>2018-09-16T12:08:19Z</time>
      </trkpt>
      <trkpt lat="40.256150" lon="-4.905933">
        <ele>1248.0</ele>
        <time>2018-09-16T12:08:20Z</time>
      </trkpt>
      <trkpt lat="40.256100" lon="-4.905950">
        <ele>1249.0</ele>
        <time>2018-09-16T12:08:21Z</time>
      </trkpt>
      <trkpt lat="40.256050" lon="-4.905933">
        <ele>1249.0</ele>
        <time>2018-09-16T12:08:22Z</time>
      </trkpt>
      <trkpt lat="40.256000" lon="-4.905917">
        <ele>1249.0</ele>
        <time>2018-09-16T12:08:23Z</time>
      </trkpt>
      <trkpt lat="40.255967" lon="-4.905933">
        <ele>1250.0</ele>
        <time>2018-09-16T12:08:24Z</time>
      </trkpt>
      <trkpt lat="40.255917" lon="-4.905933">
        <ele>1250.0</ele>
        <time>2018-09-16T12:08:25Z</time>
      </trkpt>
      <trkpt lat="40.255867" lon="-4.905933">
        <ele>1250.0</ele>
        <time>2018-09-16T12:08:26Z</time>
      </trkpt>
      <trkpt lat="40.255800" lon="-4.905933">
        <ele>1251.0</ele>
        <time>2018-09-16T12:08:27Z</time>
      </trkpt>
      <trkpt lat="40.255767" lon="-4.905933">
        <ele>1251.0</ele>
        <time>2018-09-16T12:08:28Z</time>
      </trkpt>
      <trkpt lat="40.255717" lon="-4.905933">
        <ele>1250.0</ele>
        <time>2018-09-16T12:08:29Z</time>
      </trkpt>
      <trkpt lat="40.255667" lon="-4.905967">
        <ele>1248.0</ele>
        <time>2018-09-16T12:08:30Z</time>
      </trkpt>
      <trkpt lat="40.255617" lon="-4.905983">
        <ele>1247.0</ele>
        <time>2018-09-16T12:08:31Z</time>
      </trkpt>
      <trkpt lat="40.255567" lon="-4.906017">
        <ele>1244.0</ele>
        <time>2018-09-16T12:08:32Z</time>
      </trkpt>
      <trkpt lat="40.255500" lon="-4.906033">
        <ele>1243.0</ele>
        <time>2018-09-16T12:08:33Z</time>
      </trkpt>
      <trkpt lat="40.255433" lon="-4.906050">
        <ele>1242.0</ele>
        <time>2018-09-16T12:08:34Z</time>
      </trkpt>
      <trkpt lat="40.255383" lon="-4.906083">
        <ele>1241.0</ele>
        <time>2018-09-16T12:08:35Z</time>
      </trkpt>
      <trkpt lat="40.255333" lon="-4.906117">
        <ele>1240.0</ele>
        <time>2018-09-16T12:08:36Z</time>
      </trkpt>
      <trkpt lat="40.255283" lon="-4.906133">
        <ele>1238.0</ele>
        <time>2018-09-16T12:08:37Z</time>
      </trkpt>
      <trkpt lat="40.255217" lon="-4.906183">
        <ele>1236.0</ele>
        <time>2018-09-16T12:08:38Z</time>
      </trkpt>
      <trkpt lat="40.255167" lon="-4.906217">
        <ele>1235.0</ele>
        <time>2018-09-16T12:08:39Z</time>
      </trkpt>
      <trkpt lat="40.255083" lon="-4.906250">
        <ele>1234.0</ele>
        <time>2018-09-16T12:08:40Z</time>
      </trkpt>
      <trkpt lat="40.255017" lon="-4.906300">
        <ele>1233.0</ele>
        <time>2018-09-16T12:08:41Z</time>
      </trkpt>
      <trkpt lat="40.254950" lon="-4.906333">
        <ele>1232.0</ele>
        <time>2018-09-16T12:08:42Z</time>
      </trkpt>
      <trkpt lat="40.254867" lon="-4.906367">
        <ele>1230.0</ele>
        <time>2018-09-16T12:08:43Z</time>
      </trkpt>
      <trkpt lat="40.254783" lon="-4.906383">
        <ele>1229.0</ele>
        <time>2018-09-16T12:08:44Z</time>
      </trkpt>
      <trkpt lat="40.254700" lon="-4.906400">
        <ele>1228.0</ele>
        <time>2018-09-16T12:08:45Z</time>
      </trkpt>
      <trkpt lat="40.254633" lon="-4.906400">
        <ele>1228.0</ele>
        <time>2018-09-16T12:08:46Z</time>
      </trkpt>
      <trkpt lat="40.254567" lon="-4.906400">
        <ele>1227.0</ele>
        <time>2018-09-16T12:08:47Z</time>
      </trkpt>
      <trkpt lat="40.254500" lon="-4.906400">
        <ele>1224.0</ele>
        <time>2018-09-16T12:08:48Z</time>
      </trkpt>
      <trkpt lat="40.254433" lon="-4.906400">
        <ele>1222.0</ele>
        <time>2018-09-16T12:08:49Z</time>
      </trkpt>
      <trkpt lat="40.254350" lon="-4.906383">
        <ele>1218.0</ele>
        <time>2018-09-16T12:08:50Z</time>
      </trkpt>
      <trkpt lat="40.254267" lon="-4.906367">
        <ele>1215.0</ele>
        <time>2018-09-16T12:08:51Z</time>
      </trkpt>
      <trkpt lat="40.254183" lon="-4.906350">
        <ele>1214.0</ele>
        <time>2018-09-16T12:08:52Z</time>
      </trkpt>
      <trkpt lat="40.254100" lon="-4.906350">
        <ele>1212.0</ele>
        <time>2018-09-16T12:08:53Z</time>
      </trkpt>
      <trkpt lat="40.254033" lon="-4.906350">
        <ele>1210.0</ele>
        <time>2018-09-16T12:08:54Z</time>
      </trkpt>
      <trkpt lat="40.253950" lon="-4.906350">
        <ele>1208.0</ele>
        <time>2018-09-16T12:08:55Z</time>
      </trkpt>
      <trkpt lat="40.253883" lon="-4.906383">
        <ele>1206.0</ele>
        <time>2018-09-16T12:08:56Z</time>
      </trkpt>
      <trkpt lat="40.253800" lon="-4.906417">
        <ele>1204.0</ele>
        <time>2018-09-16T12:08:57Z</time>
      </trkpt>
      <trkpt lat="40.253750" lon="-4.906467">
        <ele>1204.0</ele>
        <time>2018-09-16T12:08:58Z</time>
      </trkpt>
      <trkpt lat="40.253700" lon="-4.906533">
        <ele>1205.0</ele>
        <time>2018-09-16T12:08:59Z</time>
      </trkpt>
      <trkpt lat="40.253650" lon="-4.906583">
        <ele>1205.0</ele>
        <time>2018-09-16T12:09:00Z</time>
      </trkpt>
      <trkpt lat="40.253600" lon="-4.906650">
        <ele>1205.0</ele>
        <time>2018-09-16T12:09:01Z</time>
      </trkpt>
      <trkpt lat="40.253550" lon="-4.906700">
        <ele>1205.0</ele>
        <time>2018-09-16T12:09:02Z</time>
      </trkpt>
      <trkpt lat="40.253500" lon="-4.906767">
        <ele>1204.0</ele>
        <time>2018-09-16T12:09:03Z</time>
      </trkpt>
      <trkpt lat="40.253433" lon="-4.906833">
        <ele>1204.0</ele>
        <time>2018-09-16T12:09:04Z</time>
      </trkpt>
      <trkpt lat="40.253383" lon="-4.906883">
        <ele>1204.0</ele>
        <time>2018-09-16T12:09:05Z</time>
      </trkpt>
      <trkpt lat="40.253317" lon="-4.906950">
        <ele>1204.0</ele>
        <time>2018-09-16T12:09:06Z</time>
      </trkpt>
      <trkpt lat="40.253267" lon="-4.907017">
        <ele>1203.0</ele>
        <time>2018-09-16T12:09:07Z</time>
      </trkpt>
      <trkpt lat="40.253233" lon="-4.907067">
        <ele>1202.0</ele>
        <time>2018-09-16T12:09:08Z</time>
      </trkpt>
      <trkpt lat="40.253183" lon="-4.907133">
        <ele>1201.0</ele>
        <time>2018-09-16T12:09:09Z</time>
      </trkpt>
      <trkpt lat="40.253117" lon="-4.907183">
        <ele>1199.0</ele>
        <time>2018-09-16T12:09:10Z</time>
      </trkpt>
      <trkpt lat="40.253067" lon="-4.907233">
        <ele>1198.0</ele>
        <time>2018-09-16T12:09:11Z</time>
      </trkpt>
      <trkpt lat="40.253000" lon="-4.907267">
        <ele>1197.0</ele>
        <time>2018-09-16T12:09:12Z</time>
      </trkpt>
      <trkpt lat="40.252933" lon="-4.907300">
        <ele>1196.0</ele>
        <time>2018-09-16T12:09:13Z</time>
      </trkpt>
      <trkpt lat="40.252883" lon="-4.907317">
        <ele>1196.0</ele>
        <time>2018-09-16T12:09:14Z</time>
      </trkpt>
      <trkpt lat="40.252817" lon="-4.907333">
        <ele>1195.0</ele>
        <time>2018-09-16T12:09:15Z</time>
      </trkpt>
      <trkpt lat="40.252750" lon="-4.907333">
        <ele>1194.0</ele>
        <time>2018-09-16T12:09:16Z</time>
      </trkpt>
      <trkpt lat="40.252667" lon="-4.907333">
        <ele>1192.0</ele>
        <time>2018-09-16T12:09:17Z</time>
      </trkpt>
      <trkpt lat="40.252600" lon="-4.907333">
        <ele>1190.0</ele>
        <time>2018-09-16T12:09:18Z</time>
      </trkpt>
      <trkpt lat="40.252500" lon="-4.907333">
        <ele>1189.0</ele>
        <time>2018-09-16T12:09:19Z</time>
      </trkpt>
      <trkpt lat="40.252417" lon="-4.907333">
        <ele>1189.0</ele>
        <time>2018-09-16T12:09:20Z</time>
      </trkpt>
      <trkpt lat="40.252350" lon="-4.907350">
        <ele>1189.0</ele>
        <time>2018-09-16T12:09:21Z</time>
      </trkpt>
      <trkpt lat="40.252267" lon="-4.907367">
        <ele>1188.0</ele>
        <time>2018-09-16T12:09:22Z</time>
      </trkpt>
      <trkpt lat="40.252200" lon="-4.907367">
        <ele>1187.0</ele>
        <time>2018-09-16T12:09:23Z</time>
      </trkpt>
      <trkpt lat="40.252133" lon="-4.907367">
        <ele>1185.0</ele>
        <time>2018-09-16T12:09:24Z</time>
      </trkpt>
      <trkpt lat="40.252050" lon="-4.907367">
        <ele>1183.0</ele>
        <time>2018-09-16T12:09:25Z</time>
      </trkpt>
      <trkpt lat="40.251967" lon="-4.907383">
        <ele>1182.0</ele>
        <time>2018-09-16T12:09:26Z</time>
      </trkpt>
      <trkpt lat="40.251883" lon="-4.907400">
        <ele>1181.0</ele>
        <time>2018-09-16T12:09:27Z</time>
      </trkpt>
      <trkpt lat="40.251817" lon="-4.907400">
        <ele>1180.0</ele>
        <time>2018-09-16T12:09:28Z</time>
      </trkpt>
      <trkpt lat="40.251750" lon="-4.907417">
        <ele>1179.0</ele>
        <time>2018-09-16T12:09:29Z</time>
      </trkpt>
      <trkpt lat="40.251667" lon="-4.907417">
        <ele>1177.0</ele>
        <time>2018-09-16T12:09:30Z</time>
      </trkpt>
      <trkpt lat="40.251600" lon="-4.907400">
        <ele>1175.0</ele>
        <time>2018-09-16T12:09:31Z</time>
      </trkpt>
      <trkpt lat="40.251533" lon="-4.907417">
        <ele>1174.0</ele>
        <time>2018-09-16T12:09:32Z</time>
      </trkpt>
      <trkpt lat="40.251450" lon="-4.907417">
        <ele>1172.0</ele>
        <time>2018-09-16T12:09:33Z</time>
      </trkpt>
      <trkpt lat="40.251383" lon="-4.907417">
        <ele>1169.0</ele>
        <time>2018-09-16T12:09:34Z</time>
      </trkpt>
      <trkpt lat="40.251317" lon="-4.907417">
        <ele>1166.0</ele>
        <time>2018-09-16T12:09:35Z</time>
      </trkpt>
      <trkpt lat="40.251233" lon="-4.907400">
        <ele>1163.0</ele>
        <time>2018-09-16T12:09:36Z</time>
      </trkpt>
      <trkpt lat="40.251150" lon="-4.907383">
        <ele>1160.0</ele>
        <time>2018-09-16T12:09:37Z</time>
      </trkpt>
      <trkpt lat="40.251067" lon="-4.907367">
        <ele>1157.0</ele>
        <time>2018-09-16T12:09:38Z</time>
      </trkpt>
      <trkpt lat="40.250983" lon="-4.907350">
        <ele>1156.0</ele>
        <time>2018-09-16T12:09:39Z</time>
      </trkpt>
      <trkpt lat="40.250917" lon="-4.907317">
        <ele>1155.0</ele>
        <time>2018-09-16T12:09:40Z</time>
      </trkpt>
      <trkpt lat="40.250850" lon="-4.907283">
        <ele>1153.0</ele>
        <time>2018-09-16T12:09:41Z</time>
      </trkpt>
      <trkpt lat="40.250783" lon="-4.907233">
        <ele>1151.0</ele>
        <time>2018-09-16T12:09:42Z</time>
      </trkpt>
      <trkpt lat="40.250700" lon="-4.907183">
        <ele>1149.0</ele>
        <time>2018-09-16T12:09:43Z</time>
      </trkpt>
      <trkpt lat="40.250617" lon="-4.907150">
        <ele>1147.0</ele>
        <time>2018-09-16T12:09:44Z</time>
      </trkpt>
      <trkpt lat="40.250517" lon="-4.907117">
        <ele>1146.0</ele>
        <time>2018-09-16T12:09:45Z</time>
      </trkpt>
      <trkpt lat="40.250450" lon="-4.907083">
        <ele>1145.0</ele>
        <time>2018-09-16T12:09:46Z</time>
      </trkpt>
      <trkpt lat="40.250367" lon="-4.907050">
        <ele>1144.0</ele>
        <time>2018-09-16T12:09:47Z</time>
      </trkpt>
      <trkpt lat="40.250283" lon="-4.907017">
        <ele>1143.0</ele>
        <time>2018-09-16T12:09:48Z</time>
      </trkpt>
      <trkpt lat="40.250217" lon="-4.906983">
        <ele>1142.0</ele>
        <time>2018-09-16T12:09:49Z</time>
      </trkpt>
      <trkpt lat="40.250133" lon="-4.906967">
        <ele>1141.0</ele>
        <time>2018-09-16T12:09:50Z</time>
      </trkpt>
      <trkpt lat="40.250050" lon="-4.906933">
        <ele>1141.0</ele>
        <time>2018-09-16T12:09:51Z</time>
      </trkpt>
      <trkpt lat="40.249967" lon="-4.906883">
        <ele>1141.0</ele>
        <time>2018-09-16T12:09:52Z</time>
      </trkpt>
      <trkpt lat="40.249900" lon="-4.906850">
        <ele>1142.0</ele>
        <time>2018-09-16T12:09:53Z</time>
      </trkpt>
      <trkpt lat="40.249817" lon="-4.906817">
        <ele>1143.0</ele>
        <time>2018-09-16T12:09:54Z</time>
      </trkpt>
      <trkpt lat="40.249733" lon="-4.906783">
        <ele>1145.0</ele>
        <time>2018-09-16T12:09:55Z</time>
      </trkpt>
      <trkpt lat="40.249667" lon="-4.906750">
        <ele>1147.0</ele>
        <time>2018-09-16T12:09:56Z</time>
      </trkpt>
      <trkpt lat="40.249617" lon="-4.906700">
        <ele>1148.0</ele>
        <time>2018-09-16T12:09:57Z</time>
      </trkpt>
      <trkpt lat="40.249567" lon="-4.906683">
        <ele>1149.0</ele>
        <time>2018-09-16T12:09:58Z</time>
      </trkpt>
      <trkpt lat="40.249500" lon="-4.906683">
        <ele>1148.0</ele>
        <time>2018-09-16T12:09:59Z</time>
      </trkpt>
      <trkpt lat="40.249433" lon="-4.906733">
        <ele>1148.0</ele>
        <time>2018-09-16T12:10:00Z</time>
      </trkpt>
      <trkpt lat="40.249383" lon="-4.906800">
        <ele>1148.0</ele>
        <time>2018-09-16T12:10:01Z</time>
      </trkpt>
      <trkpt lat="40.249367" lon="-4.906900">
        <ele>1149.0</ele>
        <time>2018-09-16T12:10:02Z</time>
      </trkpt>
      <trkpt lat="40.249383" lon="-4.907000">
        <ele>1149.0</ele>
        <time>2018-09-16T12:10:03Z</time>
      </trkpt>
      <trkpt lat="40.249417" lon="-4.907100">
        <ele>1149.0</ele>
        <time>2018-09-16T12:10:04Z</time>
      </trkpt>
      <trkpt lat="40.249500" lon="-4.907183">
        <ele>1150.0</ele>
        <time>2018-09-16T12:10:05Z</time>
      </trkpt>
      <trkpt lat="40.249567" lon="-4.907233">
        <ele>1151.0</ele>
        <time>2018-09-16T12:10:06Z</time>
      </trkpt>
      <trkpt lat="40.249667" lon="-4.907250">
        <ele>1152.0</ele>
        <time>2018-09-16T12:10:07Z</time>
      </trkpt>
      <trkpt lat="40.249767" lon="-4.907233">
        <ele>1152.0</ele>
        <time>2018-09-16T12:10:08Z</time>
      </trkpt>
      <trkpt lat="40.249867" lon="-4.907200">
        <ele>1153.0</ele>
        <time>2018-09-16T12:10:09Z</time>
      </trkpt>
      <trkpt lat="40.249967" lon="-4.907150">
        <ele>1154.0</ele>
        <time>2018-09-16T12:10:10Z</time>
      </trkpt>
      <trkpt lat="40.250050" lon="-4.907083">
        <ele>1155.0</ele>
        <time>2018-09-16T12:10:11Z</time>
      </trkpt>
      <trkpt lat="40.250133" lon="-4.906983">
        <ele>1156.0</ele>
        <time>2018-09-16T12:10:12Z</time>
      </trkpt>
      <trkpt lat="40.250200" lon="-4.906883">
        <ele>1156.0</ele>
        <time>2018-09-16T12:10:13Z</time>
      </trkpt>
      <trkpt lat="40.250250" lon="-4.906767">
        <ele>1158.0</ele>
        <time>2018-09-16T12:10:14Z</time>
      </trkpt>
      <trkpt lat="40.250300" lon="-4.906633">
        <ele>1158.0</ele>
        <time>2018-09-16T12:10:15Z</time>
      </trkpt>
      <trkpt lat="40.250317" lon="-4.906500">
        <ele>1158.0</ele>
        <time>2018-09-16T12:10:16Z</time>
      </trkpt>
      <trkpt lat="40.250317" lon="-4.906367">
        <ele>1159.0</ele>
        <time>2018-09-16T12:10:17Z</time>
      </trkpt>
      <trkpt lat="40.250300" lon="-4.906233">
        <ele>1159.0</ele>
        <time>2018-09-16T12:10:18Z</time>
      </trkpt>
      <trkpt lat="40.250250" lon="-4.906133">
        <ele>1160.0</ele>
        <time>2018-09-16T12:10:19Z</time>
      </trkpt>
      <trkpt lat="40.250200" lon="-4.906067">
        <ele>1162.0</ele>
        <time>2018-09-16T12:10:20Z</time>
      </trkpt>
      <trkpt lat="40.250150" lon="-4.906017">
        <ele>1163.0</ele>
        <time>2018-09-16T12:10:21Z</time>
      </trkpt>
      <trkpt lat="40.250083" lon="-4.905983">
        <ele>1163.0</ele>
        <time>2018-09-16T12:10:22Z</time>
      </trkpt>
      <trkpt lat="40.250033" lon="-4.906000">
        <ele>1164.0</ele>
        <time>2018-09-16T12:10:23Z</time>
      </trkpt>
      <trkpt lat="40.249967" lon="-4.906033">
        <ele>1164.0</ele>
        <time>2018-09-16T12:10:24Z</time>
      </trkpt>
      <trkpt lat="40.249933" lon="-4.906100">
        <ele>1164.0</ele>
        <time>2018-09-16T12:10:25Z</time>
      </trkpt>
      <trkpt lat="40.249917" lon="-4.906200">
        <ele>1164.0</ele>
        <time>2018-09-16T12:10:26Z</time>
      </trkpt>
      <trkpt lat="40.249917" lon="-4.906333">
        <ele>1165.0</ele>
        <time>2018-09-16T12:10:27Z</time>
      </trkpt>
      <trkpt lat="40.249967" lon="-4.906433">
        <ele>1166.0</ele>
        <time>2018-09-16T12:10:28Z</time>
      </trkpt>
      <trkpt lat="40.250050" lon="-4.906533">
        <ele>1167.0</ele>
        <time>2018-09-16T12:10:29Z</time>
      </trkpt>
      <trkpt lat="40.250133" lon="-4.906567">
        <ele>1168.0</ele>
        <time>2018-09-16T12:10:30Z</time>
      </trkpt>
      <trkpt lat="40.250233" lon="-4.906583">
        <ele>1170.0</ele>
        <time>2018-09-16T12:10:31Z</time>
      </trkpt>
      <trkpt lat="40.250333" lon="-4.906550">
        <ele>1171.0</ele>
        <time>2018-09-16T12:10:32Z</time>
      </trkpt>
      <trkpt lat="40.250433" lon="-4.906500">
        <ele>1172.0</ele>
        <time>2018-09-16T12:10:33Z</time>
      </trkpt>
      <trkpt lat="40.250533" lon="-4.906417">
        <ele>1173.0</ele>
        <time>2018-09-16T12:10:34Z</time>
      </trkpt>
      <trkpt lat="40.250617" lon="-4.906333">
        <ele>1174.0</ele>
        <time>2018-09-16T12:10:35Z</time>
      </trkpt>
      <trkpt lat="40.250700" lon="-4.906233">
        <ele>1176.0</ele>
        <time>2018-09-16T12:10:36Z</time>
      </trkpt>
      <trkpt lat="40.250767" lon="-4.906133">
        <ele>1177.0</ele>
        <time>2018-09-16T12:10:37Z</time>
      </trkpt>
      <trkpt lat="40.250800" lon="-4.906017">
        <ele>1177.0</ele>
        <time>2018-09-16T12:10:38Z</time>
      </trkpt>
      <trkpt lat="40.250817" lon="-4.905900">
        <ele>1177.0</ele>
        <time>2018-09-16T12:10:39Z</time>
      </trkpt>
      <trkpt lat="40.250817" lon="-4.905783">
        <ele>1177.0</ele>
        <time>2018-09-16T12:10:40Z</time>
      </trkpt>
      <trkpt lat="40.250783" lon="-4.905683">
        <ele>1177.0</ele>
        <time>2018-09-16T12:10:41Z</time>
      </trkpt>
      <trkpt lat="40.250733" lon="-4.905600">
        <ele>1176.0</ele>
        <time>2018-09-16T12:10:42Z</time>
      </trkpt>
      <trkpt lat="40.250683" lon="-4.905533">
        <ele>1176.0</ele>
        <time>2018-09-16T12:10:43Z</time>
      </trkpt>
      <trkpt lat="40.250617" lon="-4.905483">
        <ele>1177.0</ele>
        <time>2018-09-16T12:10:44Z</time>
      </trkpt>
      <trkpt lat="40.250550" lon="-4.905433">
        <ele>1178.0</ele>
        <time>2018-09-16T12:10:45Z</time>
      </trkpt>
      <trkpt lat="40.250467" lon="-4.905417">
        <ele>1180.0</ele>
        <time>2018-09-16T12:10:46Z</time>
      </trkpt>
      <trkpt lat="40.250400" lon="-4.905417">
        <ele>1180.0</ele>
        <time>2018-09-16T12:10:47Z</time>
      </trkpt>
      <trkpt lat="40.250350" lon="-4.905450">
        <ele>1180.0</ele>
        <time>2018-09-16T12:10:48Z</time>
      </trkpt>
      <trkpt lat="40.250300" lon="-4.905483">
        <ele>1179.0</ele>
        <time>2018-09-16T12:10:49Z</time>
      </trkpt>
      <trkpt lat="40.250267" lon="-4.905550">
        <ele>1178.0</ele>
        <time>2018-09-16T12:10:50Z</time>
      </trkpt>
      <trkpt lat="40.250233" lon="-4.905650">
        <ele>1177.0</ele>
        <time>2018-09-16T12:10:51Z</time>
      </trkpt>
      <trkpt lat="40.250217" lon="-4.905733">
        <ele>1177.0</ele>
        <time>2018-09-16T12:10:52Z</time>
      </trkpt>
      <trkpt lat="40.250167" lon="-4.905817">
        <ele>1178.0</ele>
        <time>2018-09-16T12:10:53Z</time>
      </trkpt>
      <trkpt lat="40.250117" lon="-4.905883">
        <ele>1179.0</ele>
        <time>2018-09-16T12:10:54Z</time>
      </trkpt>
      <trkpt lat="40.250067" lon="-4.905950">
        <ele>1180.0</ele>
        <time>2018-09-16T12:10:55Z</time>
      </trkpt>
      <trkpt lat="40.250017" lon="-4.906000">
        <ele>1181.0</ele>
        <time>2018-09-16T12:10:56Z</time>
      </trkpt>
      <trkpt lat="40.249950" lon="-4.906050">
        <ele>1181.0</ele>
        <time>2018-09-16T12:10:57Z</time>
      </trkpt>
      <trkpt lat="40.249883" lon="-4.906100">
        <ele>1181.0</ele>
        <time>2018-09-16T12:10:58Z</time>
      </trkpt>
      <trkpt lat="40.249833" lon="-4.906167">
        <ele>1181.0</ele>
        <time>2018-09-16T12:10:59Z</time>
      </trkpt>
      <trkpt lat="40.249800" lon="-4.906250">
        <ele>1180.0</ele>
        <time>2018-09-16T12:11:00Z</time>
      </trkpt>
      <trkpt lat="40.249783" lon="-4.906350">
        <ele>1179.0</ele>
        <time>2018-09-16T12:11:01Z</time>
      </trkpt>
      <trkpt lat="40.249767" lon="-4.906467">
        <ele>1179.0</ele>
        <time>2018-09-16T12:11:02Z</time>
      </trkpt>
      <trkpt lat="40.249750" lon="-4.906567">
        <ele>1179.0</ele>
        <time>2018-09-16T12:11:03Z</time>
      </trkpt>
      <trkpt lat="40.249700" lon="-4.906650">
        <ele>1178.0</ele>
        <time>2018-09-16T12:11:04Z</time>
      </trkpt>
      <trkpt lat="40.249650" lon="-4.906717">
        <ele>1178.0</ele>
        <time>2018-09-16T12:11:05Z</time>
      </trkpt>
      <trkpt lat="40.249583" lon="-4.906767">
        <ele>1178.0</ele>
        <time>2018-09-16T12:11:06Z</time>
      </trkpt>
      <trkpt lat="40.249517" lon="-4.906817">
        <ele>1178.0</ele>
        <time>2018-09-16T12:11:07Z</time>
      </trkpt>
      <trkpt lat="40.249450" lon="-4.906833">
        <ele>1178.0</ele>
        <time>2018-09-16T12:11:08Z</time>
      </trkpt>
      <trkpt lat="40.249383" lon="-4.906833">
        <ele>1179.0</ele>
        <time>2018-09-16T12:11:09Z</time>
      </trkpt>
      <trkpt lat="40.249317" lon="-4.906817">
        <ele>1179.0</ele>
        <time>2018-09-16T12:11:10Z</time>
      </trkpt>
      <trkpt lat="40.249250" lon="-4.906800">
        <ele>1178.0</ele>
        <time>2018-09-16T12:11:11Z</time>
      </trkpt>
      <trkpt lat="40.249183" lon="-4.906767">
        <ele>1177.0</ele>
        <time>2018-09-16T12:11:12Z</time>
      </trkpt>
      <trkpt lat="40.249117" lon="-4.906717">
        <ele>1176.0</ele>
        <time>2018-09-16T12:11:13Z</time>
      </trkpt>
      <trkpt lat="40.249050" lon="-4.906667">
        <ele>1175.0</ele>
        <time>2018-09-16T12:11:14Z</time>
      </trkpt>
      <trkpt lat="40.249000" lon="-4.906600">
        <ele>1175.0</ele>
        <time>2018-09-16T12:11:15Z</time>
      </trkpt>
      <trkpt lat="40.248933" lon="-4.906517">
        <ele>1175.0</ele>
        <time>2018-09-16T12:11:16Z</time>
      </trkpt>
      <trkpt lat="40.248850" lon="-4.906450">
        <ele>1176.0</ele>
        <time>2018-09-16T12:11:17Z</time>
      </trkpt>
      <trkpt lat="40.248783" lon="-4.906400">
        <ele>1177.0</ele>
        <time>2018-09-16T12:11:18Z</time>
      </trkpt>
      <trkpt lat="40.248717" lon="-4.906367">
        <ele>1178.0</ele>
        <time>2018-09-16T12:11:19Z</time>
      </trkpt>
      <trkpt lat="40.248633" lon="-4.906350">
        <ele>1179.0</ele>
        <time>2018-09-16T12:11:20Z</time>
      </trkpt>
      <trkpt lat="40.248567" lon="-4.906367">
        <ele>1179.0</ele>
        <time>2018-09-16T12:11:21Z</time>
      </trkpt>
      <trkpt lat="40.248500" lon="-4.906400">
        <ele>1179.0</ele>
        <time>2018-09-16T12:11:22Z</time>
      </trkpt>
      <trkpt lat="40.248467" lon="-4.906483">
        <ele>1178.0</ele>
        <time>2018-09-16T12:11:23Z</time>
      </trkpt>
      <trkpt lat="40.248433" lon="-4.906583">
        <ele>1179.0</ele>
        <time>2018-09-16T12:11:24Z</time>
      </trkpt>
      <trkpt lat="40.248450" lon="-4.906667">
        <ele>1181.0</ele>
        <time>2018-09-16T12:11:25Z</time>
      </trkpt>
      <trkpt lat="40.248467" lon="-4.906750">
        <ele>1182.0</ele>
        <time>2018-09-16T12:11:26Z</time>
      </trkpt>
      <trkpt lat="40.248517" lon="-4.906817">
        <ele>1182.0</ele>
        <time>2018-09-16T12:11:27Z</time>
      </trkpt>
      <trkpt lat="40.248583" lon="-4.906883">
        <ele>1181.0</ele>
        <time>2018-09-16T12:11:28Z</time>
      </trkpt>
      <trkpt lat="40.248683" lon="-4.906933">
        <ele>1180.0</ele>
        <time>2018-09-16T12:11:29Z</time>
      </trkpt>
      <trkpt lat="40.248783" lon="-4.906950">
        <ele>1179.0</ele>
        <time>2018-09-16T12:11:30Z</time>
      </trkpt>
      <trkpt lat="40.248883" lon="-4.906950">
        <ele>1180.0</ele>
        <time>2018-09-16T12:11:31Z</time>
      </trkpt>
      <trkpt lat="40.248967" lon="-4.906917">
        <ele>1181.0</ele>
        <time>2018-09-16T12:11:32Z</time>
      </trkpt>
      <trkpt lat="40.249050" lon="-4.906867">
        <ele>1181.0</ele>
        <time>2018-09-16T12:11:33Z</time>
      </trkpt>
      <trkpt lat="40.249133" lon="-4.906800">
        <ele>1180.0</ele>
        <time>2018-09-16T12:11:34Z</time>
      </trkpt>
      <trkpt lat="40.249183" lon="-4.906700">
        <ele>1178.0</ele>
        <time>2018-09-16T12:11:35Z</time>
      </trkpt>
      <trkpt lat="40.249233" lon="-4.906567">
        <ele>1176.0</ele>
        <time>2018-09-16T12:11:36Z</time>
      </trkpt>
      <trkpt lat="40.249233" lon="-4.906433">
        <ele>1175.0</ele>
        <time>2018-09-16T12:11:37Z</time>
      </trkpt>
      <trkpt lat="40.249217" lon="-4.906300">
        <ele>1175.0</ele>
        <time>2018-09-16T12:11:38Z</time>
      </trkpt>
      <trkpt lat="40.249183" lon="-4.906183">
        <ele>1177.0</ele>
        <time>2018-09-16T12:11:39Z</time>
      </trkpt>
      <trkpt lat="40.249133" lon="-4.906100">
        <ele>1178.0</ele>
        <time>2018-09-16T12:11:40Z</time>
      </trkpt>
      <trkpt lat="40.249083" lon="-4.906017">
        <ele>1179.0</ele>
        <time>2018-09-16T12:11:41Z</time>
      </trkpt>
      <trkpt lat="40.249033" lon="-4.905950">
        <ele>1180.0</ele>
        <time>2018-09-16T12:11:42Z</time>
      </trkpt>
      <trkpt lat="40.249000" lon="-4.905900">
        <ele>1180.0</ele>
        <time>2018-09-16T12:11:43Z</time>
      </trkpt>
      <trkpt lat="40.248950" lon="-4.905833">
        <ele>1179.0</ele>
        <time>2018-09-16T12:11:44Z</time>
      </trkpt>
      <trkpt lat="40.248883" lon="-4.905783">
        <ele>1178.0</ele>
        <time>2018-09-16T12:11:45Z</time>
      </trkpt>
      <trkpt lat="40.248817" lon="-4.905717">
        <ele>1176.0</ele>
        <time>2018-09-16T12:11:46Z</time>
      </trkpt>
      <trkpt lat="40.248750" lon="-4.905650">
        <ele>1175.0</ele>
        <time>2018-09-16T12:11:47Z</time>
      </trkpt>
      <trkpt lat="40.248683" lon="-4.905583">
        <ele>1176.0</ele>
        <time>2018-09-16T12:11:48Z</time>
      </trkpt>
      <trkpt lat="40.248617" lon="-4.905500">
        <ele>1176.0</ele>
        <time>2018-09-16T12:11:49Z</time>
      </trkpt>
      <trkpt lat="40.248550" lon="-4.905433">
        <ele>1176.0</ele>
        <time>2018-09-16T12:11:50Z</time>
      </trkpt>
      <trkpt lat="40.248467" lon="-4.905383">
        <ele>1176.0</ele>
        <time>2018-09-16T12:11:51Z</time>
      </trkpt>
      <trkpt lat="40.248400" lon="-4.905333">
        <ele>1176.0</ele>
        <time>2018-09-16T12:11:52Z</time>
      </trkpt>
      <trkpt lat="40.248300" lon="-4.905317">
        <ele>1176.0</ele>
        <time>2018-09-16T12:11:53Z</time>
      </trkpt>
      <trkpt lat="40.248217" lon="-4.905333">
        <ele>1177.0</ele>
        <time>2018-09-16T12:11:54Z</time>
      </trkpt>
      <trkpt lat="40.248133" lon="-4.905367">
        <ele>1178.0</ele>
        <time>2018-09-16T12:11:55Z</time>
      </trkpt>
      <trkpt lat="40.248067" lon="-4.905417">
        <ele>1180.0</ele>
        <time>2018-09-16T12:11:56Z</time>
      </trkpt>
      <trkpt lat="40.248033" lon="-4.905483">
        <ele>1180.0</ele>
        <time>2018-09-16T12:11:57Z</time>
      </trkpt>
      <trkpt lat="40.247983" lon="-4.905550">
        <ele>1182.0</ele>
        <time>2018-09-16T12:11:58Z</time>
      </trkpt>
      <trkpt lat="40.247967" lon="-4.905650">
        <ele>1184.0</ele>
        <time>2018-09-16T12:11:59Z</time>
      </trkpt>
      <trkpt lat="40.247967" lon="-4.905783">
        <ele>1186.0</ele>
        <time>2018-09-16T12:12:00Z</time>
      </trkpt>
      <trkpt lat="40.247983" lon="-4.905900">
        <ele>1187.0</ele>
        <time>2018-09-16T12:12:01Z</time>
      </trkpt>
      <trkpt lat="40.248033" lon="-4.906000">
        <ele>1188.0</ele>
        <time>2018-09-16T12:12:02Z</time>
      </trkpt>
      <trkpt lat="40.248100" lon="-4.906067">
        <ele>1188.0</ele>
        <time>2018-09-16T12:12:03Z</time>
      </trkpt>
      <trkpt lat="40.248200" lon="-4.906117">
        <ele>1187.0</ele>
        <time>2018-09-16T12:12:04Z</time>
      </trkpt>
      <trkpt lat="40.248317" lon="-4.906117">
        <ele>1186.0</ele>
        <time>2018-09-16T12:12:05Z</time>
      </trkpt>
      <trkpt lat="40.248433" lon="-4.906067">
        <ele>1186.0</ele>
        <time>2018-09-16T12:12:06Z</time>
      </trkpt>
      <trkpt lat="40.248550" lon="-4.905967">
        <ele>1187.0</ele>
        <time>2018-09-16T12:12:07Z</time>
      </trkpt>
      <trkpt lat="40.248617" lon="-4.905833">
        <ele>1190.0</ele>
        <time>2018-09-16T12:12:08Z</time>
      </trkpt>
      <trkpt lat="40.248667" lon="-4.905700">
        <ele>1192.0</ele>
        <time>2018-09-16T12:12:09Z</time>
      </trkpt>
      <trkpt lat="40.248667" lon="-4.905550">
        <ele>1194.0</ele>
        <time>2018-09-16T12:12:10Z</time>
      </trkpt>
      <trkpt lat="40.248667" lon="-4.905433">
        <ele>1196.0</ele>
        <time>2018-09-16T12:12:11Z</time>
      </trkpt>
      <trkpt lat="40.248650" lon="-4.905300">
        <ele>1198.0</ele>
        <time>2018-09-16T12:12:12Z</time>
      </trkpt>
      <trkpt lat="40.248650" lon="-4.905183">
        <ele>1200.0</ele>
        <time>2018-09-16T12:12:13Z</time>
      </trkpt>
      <trkpt lat="40.248650" lon="-4.905067">
        <ele>1201.0</ele>
        <time>2018-09-16T12:12:14Z</time>
      </trkpt>
      <trkpt lat="40.248633" lon="-4.904950">
        <ele>1201.0</ele>
        <time>2018-09-16T12:12:15Z</time>
      </trkpt>
      <trkpt lat="40.248583" lon="-4.904850">
        <ele>1200.0</ele>
        <time>2018-09-16T12:12:16Z</time>
      </trkpt>
      <trkpt lat="40.248500" lon="-4.904767">
        <ele>1199.0</ele>
        <time>2018-09-16T12:12:17Z</time>
      </trkpt>
      <trkpt lat="40.248400" lon="-4.904733">
        <ele>1199.0</ele>
        <time>2018-09-16T12:12:18Z</time>
      </trkpt>
      <trkpt lat="40.248300" lon="-4.904733">
        <ele>1199.0</ele>
        <time>2018-09-16T12:12:19Z</time>
      </trkpt>
      <trkpt lat="40.248217" lon="-4.904767">
        <ele>1200.0</ele>
        <time>2018-09-16T12:12:20Z</time>
      </trkpt>
      <trkpt lat="40.248133" lon="-4.904833">
        <ele>1201.0</ele>
        <time>2018-09-16T12:12:21Z</time>
      </trkpt>
      <trkpt lat="40.248083" lon="-4.904917">
        <ele>1202.0</ele>
        <time>2018-09-16T12:12:22Z</time>
      </trkpt>
      <trkpt lat="40.248067" lon="-4.905033">
        <ele>1203.0</ele>
        <time>2018-09-16T12:12:23Z</time>
      </trkpt>
      <trkpt lat="40.248033" lon="-4.905150">
        <ele>1205.0</ele>
        <time>2018-09-16T12:12:24Z</time>
      </trkpt>
      <trkpt lat="40.248033" lon="-4.905267">
        <ele>1207.0</ele>
        <time>2018-09-16T12:12:25Z</time>
      </trkpt>
      <trkpt lat="40.248067" lon="-4.905383">
        <ele>1210.0</ele>
        <time>2018-09-16T12:12:26Z</time>
      </trkpt>
      <trkpt lat="40.248133" lon="-4.905467">
        <ele>1211.0</ele>
        <time>2018-09-16T12:12:27Z</time>
      </trkpt>
      <trkpt lat="40.248217" lon="-4.905517">
        <ele>1211.0</ele>
        <time>2018-09-16T12:12:28Z</time>
      </trkpt>
      <trkpt lat="40.248317" lon="-4.905533">
        <ele>1211.0</ele>
        <time>2018-09-16T12:12:29Z</time>
      </trkpt>
      <trkpt lat="40.248433" lon="-4.905550">
        <ele>1210.0</ele>
        <time>2018-09-16T12:12:30Z</time>
      </trkpt>
      <trkpt lat="40.248533" lon="-4.905567">
        <ele>1210.0</ele>
        <time>2018-09-16T12:12:31Z</time>
      </trkpt>
      <trkpt lat="40.248633" lon="-4.905550">
        <ele>1210.0</ele>
        <time>2018-09-16T12:12:32Z</time>
      </trkpt>
      <trkpt lat="40.248733" lon="-4.905500">
        <ele>1211.0</ele>
        <time>2018-09-16T12:12:33Z</time>
      </trkpt>
      <trkpt lat="40.248833" lon="-4.905433">
        <ele>1211.0</ele>
        <time>2018-09-16T12:12:34Z</time>
      </trkpt>
      <trkpt lat="40.248917" lon="-4.905333">
        <ele>1213.0</ele>
        <time>2018-09-16T12:12:35Z</time>
      </trkpt>
      <trkpt lat="40.248983" lon="-4.905217">
        <ele>1216.0</ele>
        <time>2018-09-16T12:12:36Z</time>
      </trkpt>
      <trkpt lat="40.249000" lon="-4.905083">
        <ele>1218.0</ele>
        <time>2018-09-16T12:12:37Z</time>
      </trkpt>
      <trkpt lat="40.249017" lon="-4.904967">
        <ele>1219.0</ele>
        <time>2018-09-16T12:12:38Z</time>
      </trkpt>
      <trkpt lat="40.249017" lon="-4.904833">
        <ele>1220.0</ele>
        <time>2018-09-16T12:12:39Z</time>
      </trkpt>
      <trkpt lat="40.249017" lon="-4.904717">
        <ele>1221.0</ele>
        <time>2018-09-16T12:12:40Z</time>
      </trkpt>
      <trkpt lat="40.249017" lon="-4.904617">
        <ele>1223.0</ele>
        <time>2018-09-16T12:12:41Z</time>
      </trkpt>
      <trkpt lat="40.249000" lon="-4.904500">
        <ele>1223.0</ele>
        <time>2018-09-16T12:12:42Z</time>
      </trkpt>
      <trkpt lat="40.248983" lon="-4.904400">
        <ele>1224.0</ele>
        <time>2018-09-16T12:12:43Z</time>
      </trkpt>
      <trkpt lat="40.248950" lon="-4.904333">
        <ele>1224.0</ele>
        <time>2018-09-16T12:12:44Z</time>
      </trkpt>
      <trkpt lat="40.248883" lon="-4.904283">
        <ele>1223.0</ele>
        <time>2018-09-16T12:12:45Z</time>
      </trkpt>
      <trkpt lat="40.248800" lon="-4.904250">
        <ele>1222.0</ele>
        <time>2018-09-16T12:12:46Z</time>
      </trkpt>
      <trkpt lat="40.248717" lon="-4.904250">
        <ele>1222.0</ele>
        <time>2018-09-16T12:12:47Z</time>
      </trkpt>
      <trkpt lat="40.248633" lon="-4.904283">
        <ele>1223.0</ele>
        <time>2018-09-16T12:12:48Z</time>
      </trkpt>
      <trkpt lat="40.248550" lon="-4.904350">
        <ele>1225.0</ele>
        <time>2018-09-16T12:12:49Z</time>
      </trkpt>
      <trkpt lat="40.248500" lon="-4.904433">
        <ele>1226.0</ele>
        <time>2018-09-16T12:12:50Z</time>
      </trkpt>
      <trkpt lat="40.248450" lon="-4.904533">
        <ele>1227.0</ele>
        <time>2018-09-16T12:12:51Z</time>
      </trkpt>
      <trkpt lat="40.248433" lon="-4.904633">
        <ele>1228.0</ele>
        <time>2018-09-16T12:12:52Z</time>
      </trkpt>
      <trkpt lat="40.248450" lon="-4.904750">
        <ele>1228.0</ele>
        <time>2018-09-16T12:12:53Z</time>
      </trkpt>
      <trkpt lat="40.248500" lon="-4.904867">
        <ele>1229.0</ele>
        <time>2018-09-16T12:12:54Z</time>
      </trkpt>
      <trkpt lat="40.248550" lon="-4.904967">
        <ele>1231.0</ele>
        <time>2018-09-16T12:12:55Z</time>
      </trkpt>
      <trkpt lat="40.248617" lon="-4.905033">
        <ele>1234.0</ele>
        <time>2018-09-16T12:12:56Z</time>
      </trkpt>
      <trkpt lat="40.248700" lon="-4.905067">
        <ele>1236.0</ele>
        <time>2018-09-16T12:12:57Z</time>
      </trkpt>
      <trkpt lat="40.248783" lon="-4.905083">
        <ele>1235.0</ele>
        <time>2018-09-16T12:12:58Z</time>
      </trkpt>
      <trkpt lat="40.248883" lon="-4.905083">
        <ele>1234.0</ele>
        <time>2018-09-16T12:12:59Z</time>
      </trkpt>
      <trkpt lat="40.249000" lon="-4.905067">
        <ele>1235.0</ele>
        <time>2018-09-16T12:13:00Z</time>
      </trkpt>
      <trkpt lat="40.249083" lon="-4.905033">
        <ele>1238.0</ele>
        <time>2018-09-16T12:13:01Z</time>
      </trkpt>
      <trkpt lat="40.249167" lon="-4.904967">
        <ele>1241.0</ele>
        <time>2018-09-16T12:13:02Z</time>
      </trkpt>
      <trkpt lat="40.249217" lon="-4.904883">
        <ele>1243.0</ele>
        <time>2018-09-16T12:13:03Z</time>
      </trkpt>
      <trkpt lat="40.249267" lon="-4.904783">
        <ele>1244.0</ele>
        <time>2018-09-16T12:13:04Z</time>
      </trkpt>
      <trkpt lat="40.249317" lon="-4.904700">
        <ele>1245.0</ele>
        <time>2018-09-16T12:13:05Z</time>
      </trkpt>
      <trkpt lat="40.249383" lon="-4.904617">
        <ele>1245.0</ele>
        <time>2018-09-16T12:13:06Z</time>
      </trkpt>
      <trkpt lat="40.249433" lon="-4.904533">
        <ele>1245.0</ele>
        <time>2018-09-16T12:13:07Z</time>
      </trkpt>
      <trkpt lat="40.249467" lon="-4.904433">
        <ele>1245.0</ele>
        <time>2018-09-16T12:13:08Z</time>
      </trkpt>
      <trkpt lat="40.249467" lon="-4.904317">
        <ele>1244.0</ele>
        <time>2018-09-16T12:13:09Z</time>
      </trkpt>
      <trkpt lat="40.249433" lon="-4.904217">
        <ele>1243.0</ele>
        <time>2018-09-16T12:13:10Z</time>
      </trkpt>
      <trkpt lat="40.249383" lon="-4.904133">
        <ele>1242.0</ele>
        <time>2018-09-16T12:13:11Z</time>
      </trkpt>
      <trkpt lat="40.249333" lon="-4.904067">
        <ele>1242.0</ele>
        <time>2018-09-16T12:13:12Z</time>
      </trkpt>
      <trkpt lat="40.249250" lon="-4.904017">
        <ele>1241.0</ele>
        <time>2018-09-16T12:13:13Z</time>
      </trkpt>
      <trkpt lat="40.249183" lon="-4.903967">
        <ele>1240.0</ele>
        <time>2018-09-16T12:13:14Z</time>
      </trkpt>
      <trkpt lat="40.249100" lon="-4.903933">
        <ele>1239.0</ele>
        <time>2018-09-16T12:13:15Z</time>
      </trkpt>
      <trkpt lat="40.249000" lon="-4.903917">
        <ele>1239.0</ele>
        <time>2018-09-16T12:13:16Z</time>
      </trkpt>
      <trkpt lat="40.248917" lon="-4.903917">
        <ele>1241.0</ele>
        <time>2018-09-16T12:13:17Z</time>
      </trkpt>
      <trkpt lat="40.248833" lon="-4.903933">
        <ele>1243.0</ele>
        <time>2018-09-16T12:13:18Z</time>
      </trkpt>
      <trkpt lat="40.248750" lon="-4.903933">
        <ele>1245.0</ele>
        <time>2018-09-16T12:13:19Z</time>
      </trkpt>
      <trkpt lat="40.248683" lon="-4.903950">
        <ele>1247.0</ele>
        <time>2018-09-16T12:13:20Z</time>
      </trkpt>
      <trkpt lat="40.248600" lon="-4.903950">
        <ele>1247.0</ele>
        <time>2018-09-16T12:13:21Z</time>
      </trkpt>
      <trkpt lat="40.248533" lon="-4.903933">
        <ele>1248.0</ele>
        <time>2018-09-16T12:13:22Z</time>
      </trkpt>
      <trkpt lat="40.248467" lon="-4.903950">
        <ele>1248.0</ele>
        <time>2018-09-16T12:13:23Z</time>
      </trkpt>
      <trkpt lat="40.248383" lon="-4.904000">
        <ele>1248.0</ele>
        <time>2018-09-16T12:13:24Z</time>
      </trkpt>
      <trkpt lat="40.248317" lon="-4.904100">
        <ele>1249.0</ele>
        <time>2018-09-16T12:13:25Z</time>
      </trkpt>
      <trkpt lat="40.248267" lon="-4.904217">
        <ele>1250.0</ele>
        <time>2018-09-16T12:13:26Z</time>
      </trkpt>
      <trkpt lat="40.248250" lon="-4.904333">
        <ele>1252.0</ele>
        <time>2018-09-16T12:13:27Z</time>
      </trkpt>
      <trkpt lat="40.248267" lon="-4.904450">
        <ele>1253.0</ele>
        <time>2018-09-16T12:13:28Z</time>
      </trkpt>
      <trkpt lat="40.248300" lon="-4.904550">
        <ele>1253.0</ele>
        <time>2018-09-16T12:13:29Z</time>
      </trkpt>
      <trkpt lat="40.248367" lon="-4.904650">
        <ele>1252.0</ele>
        <time>2018-09-16T12:13:30Z</time>
      </trkpt>
      <trkpt lat="40.248467" lon="-4.904733">
        <ele>1253.0</ele>
        <time>2018-09-16T12:13:31Z</time>
      </trkpt>
      <trkpt lat="40.248550" lon="-4.904800">
        <ele>1254.0</ele>
        <time>2018-09-16T12:13:32Z</time>
      </trkpt>
      <trkpt lat="40.248650" lon="-4.904833">
        <ele>1255.0</ele>
        <time>2018-09-16T12:13:33Z</time>
      </trkpt>
      <trkpt lat="40.248733" lon="-4.904833">
        <ele>1256.0</ele>
        <time>2018-09-16T12:13:34Z</time>
      </trkpt>
      <trkpt lat="40.248833" lon="-4.904817">
        <ele>1256.0</ele>
        <time>2018-09-16T12:13:35Z</time>
      </trkpt>
      <trkpt lat="40.248917" lon="-4.904767">
        <ele>1256.0</ele>
        <time>2018-09-16T12:13:36Z</time>
      </trkpt>
      <trkpt lat="40.248983" lon="-4.904700">
        <ele>1254.0</ele>
        <time>2018-09-16T12:13:37Z</time>
      </trkpt>
      <trkpt lat="40.249050" lon="-4.904617">
        <ele>1252.0</ele>
        <time>2018-09-16T12:13:38Z</time>
      </trkpt>
      <trkpt lat="40.249083" lon="-4.904500">
        <ele>1249.0</ele>
        <time>2018-09-16T12:13:39Z</time>
      </trkpt>
      <trkpt lat="40.249100" lon="-4.904367">
        <ele>1247.0</ele>
        <time>2018-09-16T12:13:40Z</time>
      </trkpt>
      <trkpt lat="40.249117" lon="-4.904217">
        <ele>1248.0</ele>
        <time>2018-09-16T12:13:41Z</time>
      </trkpt>
      <trkpt lat="40.249117" lon="-4.904083">
        <ele>1249.0</ele>
        <time>2018-09-16T12:13:42Z</time>
      </trkpt>
      <trkpt lat="40.249100" lon="-4.903967">
        <ele>1251.0</ele>
        <time>2018-09-16T12:13:43Z</time>
      </trkpt>
      <trkpt lat="40.249100" lon="-4.903867">
        <ele>1253.0</ele>
        <time>2018-09-16T12:13:44Z</time>
      </trkpt>
      <trkpt lat="40.249100" lon="-4.903767">
        <ele>1254.0</ele>
        <time>2018-09-16T12:13:45Z</time>
      </trkpt>
      <trkpt lat="40.249100" lon="-4.903667">
        <ele>1254.0</ele>
        <time>2018-09-16T12:13:46Z</time>
      </trkpt>
      <trkpt lat="40.249083" lon="-4.903550">
        <ele>1253.0</ele>
        <time>2018-09-16T12:13:47Z</time>
      </trkpt>
      <trkpt lat="40.249050" lon="-4.903433">
        <ele>1252.0</ele>
        <time>2018-09-16T12:13:48Z</time>
      </trkpt>
      <trkpt lat="40.249017" lon="-4.903317">
        <ele>1252.0</ele>
        <time>2018-09-16T12:13:49Z</time>
      </trkpt>
      <trkpt lat="40.248967" lon="-4.903200">
        <ele>1254.0</ele>
        <time>2018-09-16T12:13:50Z</time>
      </trkpt>
      <trkpt lat="40.248917" lon="-4.903100">
        <ele>1258.0</ele>
        <time>2018-09-16T12:13:51Z</time>
      </trkpt>
      <trkpt lat="40.248867" lon="-4.903017">
        <ele>1263.0</ele>
        <time>2018-09-16T12:13:52Z</time>
      </trkpt>
      <trkpt lat="40.248833" lon="-4.902950">
        <ele>1267.0</ele>
        <time>2018-09-16T12:13:53Z</time>
      </trkpt>
      <trkpt lat="40.248783" lon="-4.902900">
        <ele>1268.0</ele>
        <time>2018-09-16T12:13:54Z</time>
      </trkpt>
      <trkpt lat="40.248733" lon="-4.902850">
        <ele>1268.0</ele>
        <time>2018-09-16T12:13:55Z</time>
      </trkpt>
      <trkpt lat="40.248683" lon="-4.902783">
        <ele>1267.0</ele>
        <time>2018-09-16T12:13:56Z</time>
      </trkpt>
      <trkpt lat="40.248617" lon="-4.902717">
        <ele>1265.0</ele>
        <time>2018-09-16T12:13:57Z</time>
      </trkpt>
      <trkpt lat="40.248500" lon="-4.902650">
        <ele>1264.0</ele>
        <time>2018-09-16T12:13:58Z</time>
      </trkpt>
      <trkpt lat="40.248383" lon="-4.902617">
        <ele>1265.0</ele>
        <time>2018-09-16T12:13:59Z</time>
      </trkpt>
      <trkpt lat="40.248267" lon="-4.902633">
        <ele>1267.0</ele>
        <time>2018-09-16T12:14:00Z</time>
      </trkpt>
      <trkpt lat="40.248183" lon="-4.902700">
        <ele>1270.0</ele>
        <time>2018-09-16T12:14:01Z</time>
      </trkpt>
      <trkpt lat="40.248133" lon="-4.902800">
        <ele>1271.0</ele>
        <time>2018-09-16T12:14:02Z</time>
      </trkpt>
      <trkpt lat="40.248100" lon="-4.902917">
        <ele>1272.0</ele>
        <time>2018-09-16T12:14:03Z</time>
      </trkpt>
      <trkpt lat="40.248083" lon="-4.903050">
        <ele>1272.0</ele>
        <time>2018-09-16T12:14:04Z</time>
      </trkpt>
      <trkpt lat="40.248083" lon="-4.903183">
        <ele>1271.0</ele>
        <time>2018-09-16T12:14:05Z</time>
      </trkpt>
      <trkpt lat="40.248100" lon="-4.903300">
        <ele>1270.0</ele>
        <time>2018-09-16T12:14:06Z</time>
      </trkpt>
      <trkpt lat="40.248150" lon="-4.903400">
        <ele>1269.0</ele>
        <time>2018-09-16T12:14:07Z</time>
      </trkpt>
      <trkpt lat="40.248217" lon="-4.903483">
        <ele>1266.0</ele>
        <time>2018-09-16T12:14:08Z</time>
      </trkpt>
      <trkpt lat="40.248333" lon="-4.903550">
        <ele>1263.0</ele>
        <time>2018-09-16T12:14:09Z</time>
      </trkpt>
      <trkpt lat="40.248450" lon="-4.903550">
        <ele>1260.0</ele>
        <time>2018-09-16T12:14:10Z</time>
      </trkpt>
      <trkpt lat="40.248567" lon="-4.903533">
        <ele>1259.0</ele>
        <time>2018-09-16T12:14:11Z</time>
      </trkpt>
      <trkpt lat="40.248667" lon="-4.903467">
        <ele>1257.0</ele>
        <time>2018-09-16T12:14:12Z</time>
      </trkpt>
      <trkpt lat="40.248750" lon="-4.903383">
        <ele>1256.0</ele>
        <time>2018-09-16T12:14:13Z</time>
      </trkpt>
      <trkpt lat="40.248817" lon="-4.903267">
        <ele>1255.0</ele>
        <time>2018-09-16T12:14:14Z</time>
      </trkpt>
      <trkpt lat="40.248850" lon="-4.903133">
        <ele>1253.0</ele>
        <time>2018-09-16T12:14:15Z</time>
      </trkpt>
      <trkpt lat="40.248850" lon="-4.903000">
        <ele>1254.0</ele>
        <time>2018-09-16T12:14:16Z</time>
      </trkpt>
      <trkpt lat="40.248833" lon="-4.902883">
        <ele>1257.0</ele>
        <time>2018-09-16T12:14:17Z</time>
      </trkpt>
      <trkpt lat="40.248800" lon="-4.902800">
        <ele>1260.0</ele>
        <time>2018-09-16T12:14:18Z</time>
      </trkpt>
      <trkpt lat="40.248767" lon="-4.902717">
        <ele>1263.0</ele>
        <time>2018-09-16T12:14:19Z</time>
      </trkpt>
      <trkpt lat="40.248750" lon="-4.902633">
        <ele>1265.0</ele>
        <time>2018-09-16T12:14:20Z</time>
      </trkpt>
      <trkpt lat="40.248733" lon="-4.902550">
        <ele>1267.0</ele>
        <time>2018-09-16T12:14:21Z</time>
      </trkpt>
      <trkpt lat="40.248733" lon="-4.902467">
        <ele>1267.0</ele>
        <time>2018-09-16T12:14:22Z</time>
      </trkpt>
      <trkpt lat="40.248750" lon="-4.902367">
        <ele>1269.0</ele>
        <time>2018-09-16T12:14:23Z</time>
      </trkpt>
      <trkpt lat="40.248767" lon="-4.902250">
        <ele>1270.0</ele>
        <time>2018-09-16T12:14:24Z</time>
      </trkpt>
      <trkpt lat="40.248800" lon="-4.902150">
        <ele>1272.0</ele>
        <time>2018-09-16T12:14:25Z</time>
      </trkpt>
      <trkpt lat="40.248800" lon="-4.902050">
        <ele>1274.0</ele>
        <time>2018-09-16T12:14:26Z</time>
      </trkpt>
      <trkpt lat="40.248800" lon="-4.901933">
        <ele>1275.0</ele>
        <time>2018-09-16T12:14:27Z</time>
      </trkpt>
      <trkpt lat="40.248783" lon="-4.901833">
        <ele>1276.0</ele>
        <time>2018-09-16T12:14:28Z</time>
      </trkpt>
      <trkpt lat="40.248750" lon="-4.901733">
        <ele>1277.0</ele>
        <time>2018-09-16T12:14:29Z</time>
      </trkpt>
      <trkpt lat="40.248700" lon="-4.901633">
        <ele>1279.0</ele>
        <time>2018-09-16T12:14:30Z</time>
      </trkpt>
      <trkpt lat="40.248633" lon="-4.901567">
        <ele>1281.0</ele>
        <time>2018-09-16T12:14:31Z</time>
      </trkpt>
      <trkpt lat="40.248567" lon="-4.901533">
        <ele>1281.0</ele>
        <time>2018-09-16T12:14:32Z</time>
      </trkpt>
      <trkpt lat="40.248500" lon="-4.901517">
        <ele>1281.0</ele>
        <time>2018-09-16T12:14:33Z</time>
      </trkpt>
      <trkpt lat="40.248433" lon="-4.901517">
        <ele>1280.0</ele>
        <time>2018-09-16T12:14:34Z</time>
      </trkpt>
      <trkpt lat="40.248350" lon="-4.901533">
        <ele>1279.0</ele>
        <time>2018-09-16T12:14:35Z</time>
      </trkpt>
      <trkpt lat="40.248300" lon="-4.901550">
        <ele>1278.0</ele>
        <time>2018-09-16T12:14:36Z</time>
      </trkpt>
      <trkpt lat="40.248233" lon="-4.901600">
        <ele>1276.0</ele>
        <time>2018-09-16T12:14:37Z</time>
      </trkpt>
      <trkpt lat="40.248183" lon="-4.901667">
        <ele>1274.0</ele>
        <time>2018-09-16T12:14:38Z</time>
      </trkpt>
      <trkpt lat="40.248150" lon="-4.901750">
        <ele>1272.0</ele>
        <time>2018-09-16T12:14:39Z</time>
      </trkpt>
      <trkpt lat="40.248133" lon="-4.901850">
        <ele>1271.0</ele>
        <time>2018-09-16T12:14:40Z</time>
      </trkpt>
      <trkpt lat="40.248133" lon="-4.901983">
        <ele>1270.0</ele>
        <time>2018-09-16T12:14:41Z</time>
      </trkpt>
      <trkpt lat="40.248183" lon="-4.902100">
        <ele>1268.0</ele>
        <time>2018-09-16T12:14:42Z</time>
      </trkpt>
      <trkpt lat="40.248250" lon="-4.902200">
        <ele>1267.0</ele>
        <time>2018-09-16T12:14:43Z</time>
      </trkpt>
      <trkpt lat="40.248333" lon="-4.902267">
        <ele>1266.0</ele>
        <time>2018-09-16T12:14:44Z</time>
      </trkpt>
      <trkpt lat="40.248450" lon="-4.902300">
        <ele>1264.0</ele>
        <time>2018-09-16T12:14:45Z</time>
      </trkpt>
      <trkpt lat="40.248567" lon="-4.902300">
        <ele>1262.0</ele>
        <time>2018-09-16T12:14:46Z</time>
      </trkpt>
      <trkpt lat="40.248683" lon="-4.902250">
        <ele>1260.0</ele>
        <time>2018-09-16T12:14:47Z</time>
      </trkpt>
      <trkpt lat="40.248750" lon="-4.902167">
        <ele>1258.0</ele>
        <time>2018-09-16T12:14:48Z</time>
      </trkpt>
      <trkpt lat="40.248817" lon="-4.902050">
        <ele>1258.0</ele>
        <time>2018-09-16T12:14:49Z</time>
      </trkpt>
      <trkpt lat="40.248850" lon="-4.901933">
        <ele>1259.0</ele>
        <time>2018-09-16T12:14:50Z</time>
      </trkpt>
      <trkpt lat="40.248883" lon="-4.901800">
        <ele>1261.0</ele>
        <time>2018-09-16T12:14:51Z</time>
      </trkpt>
      <trkpt lat="40.248883" lon="-4.901683">
        <ele>1263.0</ele>
        <time>2018-09-16T12:14:52Z</time>
      </trkpt>
      <trkpt lat="40.248883" lon="-4.901567">
        <ele>1266.0</ele>
        <time>2018-09-16T12:14:53Z</time>
      </trkpt>
      <trkpt lat="40.248850" lon="-4.901467">
        <ele>1267.0</ele>
        <time>2018-09-16T12:14:54Z</time>
      </trkpt>
      <trkpt lat="40.248817" lon="-4.901367">
        <ele>1268.0</ele>
        <time>2018-09-16T12:14:55Z</time>
      </trkpt>
      <trkpt lat="40.248800" lon="-4.901267">
        <ele>1269.0</ele>
        <time>2018-09-16T12:14:56Z</time>
      </trkpt>
      <trkpt lat="40.248767" lon="-4.901167">
        <ele>1270.0</ele>
        <time>2018-09-16T12:14:57Z</time>
      </trkpt>
      <trkpt lat="40.248750" lon="-4.901067">
        <ele>1271.0</ele>
        <time>2018-09-16T12:14:58Z</time>
      </trkpt>
      <trkpt lat="40.248717" lon="-4.900967">
        <ele>1271.0</ele>
        <time>2018-09-16T12:14:59Z</time>
      </trkpt>
      <trkpt lat="40.248700" lon="-4.900867">
        <ele>1271.0</ele>
        <time>2018-09-16T12:15:00Z</time>
      </trkpt>
      <trkpt lat="40.248667" lon="-4.900750">
        <ele>1271.0</ele>
        <time>2018-09-16T12:15:01Z</time>
      </trkpt>
      <trkpt lat="40.248633" lon="-4.900650">
        <ele>1271.0</ele>
        <time>2018-09-16T12:15:02Z</time>
      </trkpt>
      <trkpt lat="40.248600" lon="-4.900550">
        <ele>1270.0</ele>
        <time>2018-09-16T12:15:03Z</time>
      </trkpt>
      <trkpt lat="40.248550" lon="-4.900450">
        <ele>1268.0</ele>
        <time>2018-09-16T12:15:04Z</time>
      </trkpt>
      <trkpt lat="40.248500" lon="-4.900350">
        <ele>1267.0</ele>
        <time>2018-09-16T12:15:05Z</time>
      </trkpt>
      <trkpt lat="40.248450" lon="-4.900250">
        <ele>1265.0</ele>
        <time>2018-09-16T12:15:06Z</time>
      </trkpt>
      <trkpt lat="40.248417" lon="-4.900150">
        <ele>1265.0</ele>
        <time>2018-09-16T12:15:07Z</time>
      </trkpt>
      <trkpt lat="40.248367" lon="-4.900067">
        <ele>1265.0</ele>
        <time>2018-09-16T12:15:08Z</time>
      </trkpt>
      <trkpt lat="40.248317" lon="-4.899983">
        <ele>1264.0</ele>
        <time>2018-09-16T12:15:09Z</time>
      </trkpt>
      <trkpt lat="40.248267" lon="-4.899917">
        <ele>1264.0</ele>
        <time>2018-09-16T12:15:10Z</time>
      </trkpt>
      <trkpt lat="40.248200" lon="-4.899867">
        <ele>1264.0</ele>
        <time>2018-09-16T12:15:11Z</time>
      </trkpt>
      <trkpt lat="40.248133" lon="-4.899817">
        <ele>1264.0</ele>
        <time>2018-09-16T12:15:12Z</time>
      </trkpt>
      <trkpt lat="40.248067" lon="-4.899800">
        <ele>1265.0</ele>
        <time>2018-09-16T12:15:13Z</time>
      </trkpt>
      <trkpt lat="40.248000" lon="-4.899767">
        <ele>1265.0</ele>
        <time>2018-09-16T12:15:14Z</time>
      </trkpt>
      <trkpt lat="40.247950" lon="-4.899717">
        <ele>1265.0</ele>
        <time>2018-09-16T12:15:15Z</time>
      </trkpt>
      <trkpt lat="40.247900" lon="-4.899667">
        <ele>1264.0</ele>
        <time>2018-09-16T12:15:16Z</time>
      </trkpt>
      <trkpt lat="40.247833" lon="-4.899583">
        <ele>1264.0</ele>
        <time>2018-09-16T12:15:17Z</time>
      </trkpt>
      <trkpt lat="40.247767" lon="-4.899517">
        <ele>1266.0</ele>
        <time>2018-09-16T12:15:18Z</time>
      </trkpt>
      <trkpt lat="40.247717" lon="-4.899433">
        <ele>1268.0</ele>
        <time>2018-09-16T12:15:19Z</time>
      </trkpt>
      <trkpt lat="40.247683" lon="-4.899350">
        <ele>1268.0</ele>
        <time>2018-09-16T12:15:20Z</time>
      </trkpt>
      <trkpt lat="40.247667" lon="-4.899267">
        <ele>1267.0</ele>
        <time>2018-09-16T12:15:21Z</time>
      </trkpt>
      <trkpt lat="40.247667" lon="-4.899167">
        <ele>1265.0</ele>
        <time>2018-09-16T12:15:22Z</time>
      </trkpt>
      <trkpt lat="40.247683" lon="-4.899050">
        <ele>1263.0</ele>
        <time>2018-09-16T12:15:23Z</time>
      </trkpt>
      <trkpt lat="40.247700" lon="-4.898917">
        <ele>1260.0</ele>
        <time>2018-09-16T12:15:24Z</time>
      </trkpt>
      <trkpt lat="40.247767" lon="-4.898800">
        <ele>1258.0</ele>
        <time>2018-09-16T12:15:25Z</time>
      </trkpt>
      <trkpt lat="40.247867" lon="-4.898717">
        <ele>1257.0</ele>
        <time>2018-09-16T12:15:26Z</time>
      </trkpt>
      <trkpt lat="40.247967" lon="-4.898650">
        <ele>1255.0</ele>
        <time>2018-09-16T12:15:27Z</time>
      </trkpt>
      <trkpt lat="40.248083" lon="-4.898650">
        <ele>1255.0</ele>
        <time>2018-09-16T12:15:28Z</time>
      </trkpt>
      <trkpt lat="40.248183" lon="-4.898683">
        <ele>1254.0</ele>
        <time>2018-09-16T12:15:29Z</time>
      </trkpt>
      <trkpt lat="40.248267" lon="-4.898733">
        <ele>1254.0</ele>
        <time>2018-09-16T12:15:30Z</time>
      </trkpt>
      <trkpt lat="40.248317" lon="-4.898800">
        <ele>1253.0</ele>
        <time>2018-09-16T12:15:31Z</time>
      </trkpt>
      <trkpt lat="40.248367" lon="-4.898883">
        <ele>1253.0</ele>
        <time>2018-09-16T12:15:32Z</time>
      </trkpt>
      <trkpt lat="40.248400" lon="-4.898967">
        <ele>1253.0</ele>
        <time>2018-09-16T12:15:33Z</time>
      </trkpt>
      <trkpt lat="40.248400" lon="-4.899050">
        <ele>1254.0</ele>
        <time>2018-09-16T12:15:34Z</time>
      </trkpt>
      <trkpt lat="40.248400" lon="-4.899133">
        <ele>1256.0</ele>
        <time>2018-09-16T12:15:35Z</time>
      </trkpt>
      <trkpt lat="40.248400" lon="-4.899200">
        <ele>1257.0</ele>
        <time>2018-09-16T12:15:36Z</time>
      </trkpt>
      <trkpt lat="40.248383" lon="-4.899283">
        <ele>1258.0</ele>
        <time>2018-09-16T12:15:37Z</time>
      </trkpt>
      <trkpt lat="40.248383" lon="-4.899367">
        <ele>1259.0</ele>
        <time>2018-09-16T12:15:38Z</time>
      </trkpt>
      <trkpt lat="40.248383" lon="-4.899450">
        <ele>1260.0</ele>
        <time>2018-09-16T12:15:39Z</time>
      </trkpt>
      <trkpt lat="40.248383" lon="-4.899533">
        <ele>1261.0</ele>
        <time>2018-09-16T12:15:40Z</time>
      </trkpt>
      <trkpt lat="40.248367" lon="-4.899617">
        <ele>1262.0</ele>
        <time>2018-09-16T12:15:41Z</time>
      </trkpt>
      <trkpt lat="40.248350" lon="-4.899683">
        <ele>1263.0</ele>
        <time>2018-09-16T12:15:42Z</time>
      </trkpt>
      <trkpt lat="40.248350" lon="-4.899767">
        <ele>1263.0</ele>
        <time>2018-09-16T12:15:43Z</time>
      </trkpt>
      <trkpt lat="40.248333" lon="-4.899850">
        <ele>1263.0</ele>
        <time>2018-09-16T12:15:44Z</time>
      </trkpt>
      <trkpt lat="40.248333" lon="-4.899933">
        <ele>1262.0</ele>
        <time>2018-09-16T12:15:45Z</time>
      </trkpt>
      <trkpt lat="40.248333" lon="-4.900033">
        <ele>1260.0</ele>
        <time>2018-09-16T12:15:46Z</time>
      </trkpt>
      <trkpt lat="40.248333" lon="-4.900133">
        <ele>1259.0</ele>
        <time>2018-09-16T12:15:47Z</time>
      </trkpt>
      <trkpt lat="40.248300" lon="-4.900217">
        <ele>1259.0</ele>
        <time>2018-09-16T12:15:48Z</time>
      </trkpt>
      <trkpt lat="40.248267" lon="-4.900267">
        <ele>1258.0</ele>
        <time>2018-09-16T12:15:49Z</time>
      </trkpt>
      <trkpt lat="40.248217" lon="-4.900317">
        <ele>1257.0</ele>
        <time>2018-09-16T12:15:50Z</time>
      </trkpt>
      <trkpt lat="40.248167" lon="-4.900383">
        <ele>1256.0</ele>
        <time>2018-09-16T12:15:51Z</time>
      </trkpt>
      <trkpt lat="40.248133" lon="-4.900433">
        <ele>1254.0</ele>
        <time>2018-09-16T12:15:52Z</time>
      </trkpt>
      <trkpt lat="40.248100" lon="-4.900500">
        <ele>1253.0</ele>
        <time>2018-09-16T12:15:53Z</time>
      </trkpt>
      <trkpt lat="40.248067" lon="-4.900583">
        <ele>1251.0</ele>
        <time>2018-09-16T12:15:54Z</time>
      </trkpt>
      <trkpt lat="40.248033" lon="-4.900650">
        <ele>1251.0</ele>
        <time>2018-09-16T12:15:55Z</time>
      </trkpt>
      <trkpt lat="40.248000" lon="-4.900733">
        <ele>1251.0</ele>
        <time>2018-09-16T12:15:56Z</time>
      </trkpt>
      <trkpt lat="40.247983" lon="-4.900817">
        <ele>1251.0</ele>
        <time>2018-09-16T12:15:57Z</time>
      </trkpt>
      <trkpt lat="40.247967" lon="-4.900883">
        <ele>1250.0</ele>
        <time>2018-09-16T12:15:58Z</time>
      </trkpt>
      <trkpt lat="40.247950" lon="-4.900967">
        <ele>1248.0</ele>
        <time>2018-09-16T12:15:59Z</time>
      </trkpt>
      <trkpt lat="40.247917" lon="-4.901033">
        <ele>1245.0</ele>
        <time>2018-09-16T12:16:00Z</time>
      </trkpt>
      <trkpt lat="40.247867" lon="-4.901100">
        <ele>1243.0</ele>
        <time>2018-09-16T12:16:01Z</time>
      </trkpt>
      <trkpt lat="40.247833" lon="-4.901183">
        <ele>1240.0</ele>
        <time>2018-09-16T12:16:02Z</time>
      </trkpt>
      <trkpt lat="40.247800" lon="-4.901267">
        <ele>1239.0</ele>
        <time>2018-09-16T12:16:03Z</time>
      </trkpt>
      <trkpt lat="40.247767" lon="-4.901350">
        <ele>1238.0</ele>
        <time>2018-09-16T12:16:04Z</time>
      </trkpt>
      <trkpt lat="40.247733" lon="-4.901417">
        <ele>1237.0</ele>
        <time>2018-09-16T12:16:05Z</time>
      </trkpt>
      <trkpt lat="40.247717" lon="-4.901483">
        <ele>1236.0</ele>
        <time>2018-09-16T12:16:06Z</time>
      </trkpt>
      <trkpt lat="40.247667" lon="-4.901533">
        <ele>1235.0</ele>
        <time>2018-09-16T12:16:07Z</time>
      </trkpt>
      <trkpt lat="40.247617" lon="-4.901583">
        <ele>1233.0</ele>
        <time>2018-09-16T12:16:08Z</time>
      </trkpt>
      <trkpt lat="40.247550" lon="-4.901600">
        <ele>1233.0</ele>
        <time>2018-09-16T12:16:09Z</time>
      </trkpt>
      <trkpt lat="40.247483" lon="-4.901650">
        <ele>1233.0</ele>
        <time>2018-09-16T12:16:10Z</time>
      </trkpt>
      <trkpt lat="40.247433" lon="-4.901683">
        <ele>1233.0</ele>
        <time>2018-09-16T12:16:11Z</time>
      </trkpt>
      <trkpt lat="40.247383" lon="-4.901733">
        <ele>1234.0</ele>
        <time>2018-09-16T12:16:12Z</time>
      </trkpt>
      <trkpt lat="40.247350" lon="-4.901817">
        <ele>1235.0</ele>
        <time>2018-09-16T12:16:13Z</time>
      </trkpt>
      <trkpt lat="40.247350" lon="-4.901917">
        <ele>1234.0</ele>
        <time>2018-09-16T12:16:14Z</time>
      </trkpt>
      <trkpt lat="40.247367" lon="-4.902017">
        <ele>1233.0</ele>
        <time>2018-09-16T12:16:15Z</time>
      </trkpt>
      <trkpt lat="40.247433" lon="-4.902133">
        <ele>1233.0</ele>
        <time>2018-09-16T12:16:16Z</time>
      </trkpt>
      <trkpt lat="40.247500" lon="-4.902233">
        <ele>1233.0</ele>
        <time>2018-09-16T12:16:17Z</time>
      </trkpt>
      <trkpt lat="40.247600" lon="-4.902300">
        <ele>1234.0</ele>
        <time>2018-09-16T12:16:18Z</time>
      </trkpt>
      <trkpt lat="40.247717" lon="-4.902317">
        <ele>1235.0</ele>
        <time>2018-09-16T12:16:19Z</time>
      </trkpt>
      <trkpt lat="40.247817" lon="-4.902283">
        <ele>1236.0</ele>
        <time>2018-09-16T12:16:20Z</time>
      </trkpt>
      <trkpt lat="40.247917" lon="-4.902217">
        <ele>1237.0</ele>
        <time>2018-09-16T12:16:21Z</time>
      </trkpt>
      <trkpt lat="40.247983" lon="-4.902117">
        <ele>1237.0</ele>
        <time>2018-09-16T12:16:22Z</time>
      </trkpt>
      <trkpt lat="40.248033" lon="-4.902017">
        <ele>1237.0</ele>
        <time>2018-09-16T12:16:23Z</time>
      </trkpt>
      <trkpt lat="40.248067" lon="-4.901917">
        <ele>1238.0</ele>
        <time>2018-09-16T12:16:24Z</time>
      </trkpt>
      <trkpt lat="40.248067" lon="-4.901817">
        <ele>1238.0</ele>
        <time>2018-09-16T12:16:25Z</time>
      </trkpt>
      <trkpt lat="40.248033" lon="-4.901733">
        <ele>1237.0</ele>
        <time>2018-09-16T12:16:26Z</time>
      </trkpt>
      <trkpt lat="40.247983" lon="-4.901633">
        <ele>1235.0</ele>
        <time>2018-09-16T12:16:27Z</time>
      </trkpt>
      <trkpt lat="40.247900" lon="-4.901550">
        <ele>1233.0</ele>
        <time>2018-09-16T12:16:28Z</time>
      </trkpt>
      <trkpt lat="40.247833" lon="-4.901483">
        <ele>1234.0</ele>
        <time>2018-09-16T12:16:29Z</time>
      </trkpt>
      <trkpt lat="40.247750" lon="-4.901433">
        <ele>1236.0</ele>
        <time>2018-09-16T12:16:30Z</time>
      </trkpt>
      <trkpt lat="40.247683" lon="-4.901383">
        <ele>1238.0</ele>
        <time>2018-09-16T12:16:31Z</time>
      </trkpt>
      <trkpt lat="40.247617" lon="-4.901350">
        <ele>1239.0</ele>
        <time>2018-09-16T12:16:32Z</time>
      </trkpt>
      <trkpt lat="40.247550" lon="-4.901333">
        <ele>1241.0</ele>
        <time>2018-09-16T12:16:33Z</time>
      </trkpt>
      <trkpt lat="40.247467" lon="-4.901317">
        <ele>1243.0</ele>
        <time>2018-09-16T12:16:34Z</time>
      </trkpt>
      <trkpt lat="40.247400" lon="-4.901317">
        <ele>1245.0</ele>
        <time>2018-09-16T12:16:35Z</time>
      </trkpt>
      <trkpt lat="40.247350" lon="-4.901333">
        <ele>1245.0</ele>
        <time>2018-09-16T12:16:36Z</time>
      </trkpt>
      <trkpt lat="40.247283" lon="-4.901383">
        <ele>1245.0</ele>
        <time>2018-09-16T12:16:37Z</time>
      </trkpt>
      <trkpt lat="40.247233" lon="-4.901450">
        <ele>1245.0</ele>
        <time>2018-09-16T12:16:38Z</time>
      </trkpt>
      <trkpt lat="40.247183" lon="-4.901567">
        <ele>1245.0</ele>
        <time>2018-09-16T12:16:39Z</time>
      </trkpt>
      <trkpt lat="40.247167" lon="-4.901667">
        <ele>1246.0</ele>
        <time>2018-09-16T12:16:40Z</time>
      </trkpt>
      <trkpt lat="40.247183" lon="-4.901767">
        <ele>1246.0</ele>
        <time>2018-09-16T12:16:41Z</time>
      </trkpt>
      <trkpt lat="40.247233" lon="-4.901850">
        <ele>1247.0</ele>
        <time>2018-09-16T12:16:42Z</time>
      </trkpt>
      <trkpt lat="40.247300" lon="-4.901933">
        <ele>1246.0</ele>
        <time>2018-09-16T12:16:43Z</time>
      </trkpt>
      <trkpt lat="40.247383" lon="-4.901983">
        <ele>1247.0</ele>
        <time>2018-09-16T12:16:44Z</time>
      </trkpt>
      <trkpt lat="40.247483" lon="-4.902017">
        <ele>1248.0</ele>
        <time>2018-09-16T12:16:45Z</time>
      </trkpt>
      <trkpt lat="40.247583" lon="-4.902017">
        <ele>1250.0</ele>
        <time>2018-09-16T12:16:46Z</time>
      </trkpt>
      <trkpt lat="40.247667" lon="-4.901967">
        <ele>1251.0</ele>
        <time>2018-09-16T12:16:47Z</time>
      </trkpt>
      <trkpt lat="40.247750" lon="-4.901900">
        <ele>1250.0</ele>
        <time>2018-09-16T12:16:48Z</time>
      </trkpt>
      <trkpt lat="40.247833" lon="-4.901817">
        <ele>1249.0</ele>
        <time>2018-09-16T12:16:49Z</time>
      </trkpt>
      <trkpt lat="40.247917" lon="-4.901700">
        <ele>1249.0</ele>
        <time>2018-09-16T12:16:50Z</time>
      </trkpt>
      <trkpt lat="40.247967" lon="-4.901583">
        <ele>1249.0</ele>
        <time>2018-09-16T12:16:51Z</time>
      </trkpt>
      <trkpt lat="40.248000" lon="-4.901450">
        <ele>1249.0</ele>
        <time>2018-09-16T12:16:52Z</time>
      </trkpt>
      <trkpt lat="40.248000" lon="-4.901333">
        <ele>1249.0</ele>
        <time>2018-09-16T12:16:53Z</time>
      </trkpt>
      <trkpt lat="40.247950" lon="-4.901217">
        <ele>1247.0</ele>
        <time>2018-09-16T12:16:54Z</time>
      </trkpt>
      <trkpt lat="40.247883" lon="-4.901133">
        <ele>1246.0</ele>
        <time>2018-09-16T12:16:55Z</time>
      </trkpt>
      <trkpt lat="40.247800" lon="-4.901067">
        <ele>1246.0</ele>
        <time>2018-09-16T12:16:56Z</time>
      </trkpt>
      <trkpt lat="40.247700" lon="-4.901033">
        <ele>1247.0</ele>
        <time>2018-09-16T12:16:57Z</time>
      </trkpt>
      <trkpt lat="40.247633" lon="-4.901033">
        <ele>1248.0</ele>
        <time>2018-09-16T12:16:58Z</time>
      </trkpt>
      <trkpt lat="40.247550" lon="-4.901050">
        <ele>1249.0</ele>
        <time>2018-09-16T12:16:59Z</time>
      </trkpt>
      <trkpt lat="40.247483" lon="-4.901100">
        <ele>1250.0</ele>
        <time>2018-09-16T12:17:00Z</time>
      </trkpt>
      <trkpt lat="40.247417" lon="-4.901150">
        <ele>1252.0</ele>
        <time>2018-09-16T12:17:01Z</time>
      </trkpt>
      <trkpt lat="40.247367" lon="-4.901200">
        <ele>1254.0</ele>
        <time>2018-09-16T12:17:02Z</time>
      </trkpt>
      <trkpt lat="40.247317" lon="-4.901250">
        <ele>1255.0</ele>
        <time>2018-09-16T12:17:03Z</time>
      </trkpt>
      <trkpt lat="40.247267" lon="-4.901317">
        <ele>1256.0</ele>
        <time>2018-09-16T12:17:04Z</time>
      </trkpt>
      <trkpt lat="40.247200" lon="-4.901367">
        <ele>1256.0</ele>
        <time>2018-09-16T12:17:05Z</time>
      </trkpt>
      <trkpt lat="40.247133" lon="-4.901417">
        <ele>1257.0</ele>
        <time>2018-09-16T12:17:06Z</time>
      </trkpt>
      <trkpt lat="40.247083" lon="-4.901500">
        <ele>1257.0</ele>
        <time>2018-09-16T12:17:07Z</time>
      </trkpt>
      <trkpt lat="40.247033" lon="-4.901583">
        <ele>1258.0</ele>
        <time>2018-09-16T12:17:08Z</time>
      </trkpt>
      <trkpt lat="40.247033" lon="-4.901683">
        <ele>1257.0</ele>
        <time>2018-09-16T12:17:09Z</time>
      </trkpt>
      <trkpt lat="40.247050" lon="-4.901800">
        <ele>1256.0</ele>
        <time>2018-09-16T12:17:10Z</time>
      </trkpt>
      <trkpt lat="40.247083" lon="-4.901900">
        <ele>1256.0</ele>
        <time>2018-09-16T12:17:11Z</time>
      </trkpt>
      <trkpt lat="40.247167" lon="-4.901983">
        <ele>1256.0</ele>
        <time>2018-09-16T12:17:12Z</time>
      </trkpt>
      <trkpt lat="40.247250" lon="-4.902033">
        <ele>1256.0</ele>
        <time>2018-09-16T12:17:13Z</time>
      </trkpt>
      <trkpt lat="40.247350" lon="-4.902050">
        <ele>1256.0</ele>
        <time>2018-09-16T12:17:14Z</time>
      </trkpt>
      <trkpt lat="40.247450" lon="-4.902017">
        <ele>1255.0</ele>
        <time>2018-09-16T12:17:15Z</time>
      </trkpt>
      <trkpt lat="40.247567" lon="-4.901967">
        <ele>1254.0</ele>
        <time>2018-09-16T12:17:16Z</time>
      </trkpt>
      <trkpt lat="40.247683" lon="-4.901883">
        <ele>1253.0</ele>
        <time>2018-09-16T12:17:17Z</time>
      </trkpt>
      <trkpt lat="40.247767" lon="-4.901783">
        <ele>1253.0</ele>
        <time>2018-09-16T12:17:18Z</time>
      </trkpt>
      <trkpt lat="40.247833" lon="-4.901683">
        <ele>1255.0</ele>
        <time>2018-09-16T12:17:19Z</time>
      </trkpt>
      <trkpt lat="40.247900" lon="-4.901567">
        <ele>1255.0</ele>
        <time>2018-09-16T12:17:20Z</time>
      </trkpt>
      <trkpt lat="40.247950" lon="-4.901450">
        <ele>1255.0</ele>
        <time>2018-09-16T12:17:21Z</time>
      </trkpt>
      <trkpt lat="40.247967" lon="-4.901317">
        <ele>1255.0</ele>
        <time>2018-09-16T12:17:22Z</time>
      </trkpt>
      <trkpt lat="40.247967" lon="-4.901167">
        <ele>1255.0</ele>
        <time>2018-09-16T12:17:23Z</time>
      </trkpt>
      <trkpt lat="40.247950" lon="-4.901033">
        <ele>1255.0</ele>
        <time>2018-09-16T12:17:24Z</time>
      </trkpt>
      <trkpt lat="40.247900" lon="-4.900900">
        <ele>1254.0</ele>
        <time>2018-09-16T12:17:25Z</time>
      </trkpt>
      <trkpt lat="40.247850" lon="-4.900783">
        <ele>1254.0</ele>
        <time>2018-09-16T12:17:26Z</time>
      </trkpt>
      <trkpt lat="40.247767" lon="-4.900717">
        <ele>1255.0</ele>
        <time>2018-09-16T12:17:27Z</time>
      </trkpt>
      <trkpt lat="40.247700" lon="-4.900650">
        <ele>1254.0</ele>
        <time>2018-09-16T12:17:28Z</time>
      </trkpt>
      <trkpt lat="40.247617" lon="-4.900617">
        <ele>1255.0</ele>
        <time>2018-09-16T12:17:29Z</time>
      </trkpt>
      <trkpt lat="40.247517" lon="-4.900600">
        <ele>1256.0</ele>
        <time>2018-09-16T12:17:30Z</time>
      </trkpt>
      <trkpt lat="40.247417" lon="-4.900600">
        <ele>1259.0</ele>
        <time>2018-09-16T12:17:31Z</time>
      </trkpt>
      <trkpt lat="40.247317" lon="-4.900600">
        <ele>1263.0</ele>
        <time>2018-09-16T12:17:32Z</time>
      </trkpt>
      <trkpt lat="40.247267" lon="-4.900617">
        <ele>1268.0</ele>
        <time>2018-09-16T12:17:33Z</time>
      </trkpt>
      <trkpt lat="40.247217" lon="-4.900650">
        <ele>1272.0</ele>
        <time>2018-09-16T12:17:34Z</time>
      </trkpt>
      <trkpt lat="40.247183" lon="-4.900650">
        <ele>1273.0</ele>
        <time>2018-09-16T12:17:35Z</time>
      </trkpt>
      <trkpt lat="40.247133" lon="-4.900667">
        <ele>1273.0</ele>
        <time>2018-09-16T12:17:36Z</time>
      </trkpt>
      <trkpt lat="40.247083" lon="-4.900683">
        <ele>1271.0</ele>
        <time>2018-09-16T12:17:37Z</time>
      </trkpt>
      <trkpt lat="40.247033" lon="-4.900733">
        <ele>1271.0</ele>
        <time>2018-09-16T12:17:38Z</time>
      </trkpt>
      <trkpt lat="40.246983" lon="-4.900817">
        <ele>1271.0</ele>
        <time>2018-09-16T12:17:39Z</time>
      </trkpt>
      <trkpt lat="40.246967" lon="-4.900917">
        <ele>1270.0</ele>
        <time>2018-09-16T12:17:40Z</time>
      </trkpt>
      <trkpt lat="40.247000" lon="-4.901033">
        <ele>1271.0</ele>
        <time>2018-09-16T12:17:41Z</time>
      </trkpt>
      <trkpt lat="40.247050" lon="-4.901133">
        <ele>1271.0</ele>
        <time>2018-09-16T12:17:42Z</time>
      </trkpt>
      <trkpt lat="40.247117" lon="-4.901200">
        <ele>1273.0</ele>
        <time>2018-09-16T12:17:43Z</time>
      </trkpt>
      <trkpt lat="40.247217" lon="-4.901267">
        <ele>1274.0</ele>
        <time>2018-09-16T12:17:44Z</time>
      </trkpt>
      <trkpt lat="40.247317" lon="-4.901283">
        <ele>1275.0</ele>
        <time>2018-09-16T12:17:45Z</time>
      </trkpt>
      <trkpt lat="40.247417" lon="-4.901283">
        <ele>1276.0</ele>
        <time>2018-09-16T12:17:46Z</time>
      </trkpt>
      <trkpt lat="40.247533" lon="-4.901267">
        <ele>1276.0</ele>
        <time>2018-09-16T12:17:47Z</time>
      </trkpt>
      <trkpt lat="40.247650" lon="-4.901233">
        <ele>1278.0</ele>
        <time>2018-09-16T12:17:48Z</time>
      </trkpt>
      <trkpt lat="40.247750" lon="-4.901200">
        <ele>1279.0</ele>
        <time>2018-09-16T12:17:49Z</time>
      </trkpt>
      <trkpt lat="40.247850" lon="-4.901150">
        <ele>1280.0</ele>
        <time>2018-09-16T12:17:50Z</time>
      </trkpt>
      <trkpt lat="40.247950" lon="-4.901083">
        <ele>1279.0</ele>
        <time>2018-09-16T12:17:51Z</time>
      </trkpt>
      <trkpt lat="40.248033" lon="-4.900983">
        <ele>1279.0</ele>
        <time>2018-09-16T12:17:52Z</time>
      </trkpt>
      <trkpt lat="40.248100" lon="-4.900883">
        <ele>1279.0</ele>
        <time>2018-09-16T12:17:53Z</time>
      </trkpt>
      <trkpt lat="40.248167" lon="-4.900783">
        <ele>1279.0</ele>
        <time>2018-09-16T12:17:54Z</time>
      </trkpt>
      <trkpt lat="40.248233" lon="-4.900683">
        <ele>1280.0</ele>
        <time>2018-09-16T12:17:55Z</time>
      </trkpt>
      <trkpt lat="40.248283" lon="-4.900567">
        <ele>1279.0</ele>
        <time>2018-09-16T12:17:56Z</time>
      </trkpt>
      <trkpt lat="40.248333" lon="-4.900433">
        <ele>1279.0</ele>
        <time>2018-09-16T12:17:57Z</time>
      </trkpt>
      <trkpt lat="40.248367" lon="-4.900300">
        <ele>1279.0</ele>
        <time>2018-09-16T12:17:58Z</time>
      </trkpt>
      <trkpt lat="40.248417" lon="-4.900167">
        <ele>1280.0</ele>
        <time>2018-09-16T12:17:59Z</time>
      </trkpt>
      <trkpt lat="40.248467" lon="-4.900050">
        <ele>1280.0</ele>
        <time>2018-09-16T12:18:00Z</time>
      </trkpt>
      <trkpt lat="40.248500" lon="-4.899917">
        <ele>1281.0</ele>
        <time>2018-09-16T12:18:01Z</time>
      </trkpt>
      <trkpt lat="40.248517" lon="-4.899783">
        <ele>1281.0</ele>
        <time>2018-09-16T12:18:02Z</time>
      </trkpt>
      <trkpt lat="40.248500" lon="-4.899650">
        <ele>1281.0</ele>
        <time>2018-09-16T12:18:03Z</time>
      </trkpt>
      <trkpt lat="40.248483" lon="-4.899517">
        <ele>1281.0</ele>
        <time>2018-09-16T12:18:04Z</time>
      </trkpt>
      <trkpt lat="40.248467" lon="-4.899383">
        <ele>1282.0</ele>
        <time>2018-09-16T12:18:05Z</time>
      </trkpt>
      <trkpt lat="40.248450" lon="-4.899250">
        <ele>1285.0</ele>
        <time>2018-09-16T12:18:06Z</time>
      </trkpt>
      <trkpt lat="40.248433" lon="-4.899150">
        <ele>1287.0</ele>
        <time>2018-09-16T12:18:07Z</time>
      </trkpt>
      <trkpt lat="40.248383" lon="-4.899067">
        <ele>1287.0</ele>
        <time>2018-09-16T12:18:08Z</time>
      </trkpt>
      <trkpt lat="40.248333" lon="-4.899017">
        <ele>1286.0</ele>
        <time>2018-09-16T12:18:09Z</time>
      </trkpt>
      <trkpt lat="40.248250" lon="-4.899000">
        <ele>1287.0</ele>
        <time>2018-09-16T12:18:10Z</time>
      </trkpt>
      <trkpt lat="40.248183" lon="-4.899017">
        <ele>1289.0</ele>
        <time>2018-09-16T12:18:11Z</time>
      </trkpt>
      <trkpt lat="40.248133" lon="-4.899050">
        <ele>1292.0</ele>
        <time>2018-09-16T12:18:12Z</time>
      </trkpt>
      <trkpt lat="40.248083" lon="-4.899100">
        <ele>1295.0</ele>
        <time>2018-09-16T12:18:13Z</time>
      </trkpt>
      <trkpt lat="40.248067" lon="-4.899133">
        <ele>1299.0</ele>
        <time>2018-09-16T12:18:14Z</time>
      </trkpt>
      <trkpt lat="40.248033" lon="-4.899167">
        <ele>1301.0</ele>
        <time>2018-09-16T12:18:15Z</time>
      </trkpt>
      <trkpt lat="40.248017" lon="-4.899217">
        <ele>1302.0</ele>
        <time>2018-09-16T12:18:16Z</time>
      </trkpt>
      <trkpt lat="40.248000" lon="-4.899283">
        <ele>1302.0</ele>
        <time>2018-09-16T12:18:17Z</time>
      </trkpt>
      <trkpt lat="40.248000" lon="-4.899350">
        <ele>1303.0</ele>
        <time>2018-09-16T12:18:18Z</time>
      </trkpt>
      <trkpt lat="40.248017" lon="-4.899433">
        <ele>1303.0</ele>
        <time>2018-09-16T12:18:19Z</time>
      </trkpt>
      <trkpt lat="40.248050" lon="-4.899533">
        <ele>1304.0</ele>
        <time>2018-09-16T12:18:20Z</time>
      </trkpt>
      <trkpt lat="40.248117" lon="-4.899617">
        <ele>1306.0</ele>
        <time>2018-09-16T12:18:21Z</time>
      </trkpt>
      <trkpt lat="40.248183" lon="-4.899683">
        <ele>1308.0</ele>
        <time>2018-09-16T12:18:22Z</time>
      </trkpt>
      <trkpt lat="40.248267" lon="-4.899733">
        <ele>1311.0</ele>
        <time>2018-09-16T12:18:23Z</time>
      </trkpt>
      <trkpt lat="40.248350" lon="-4.899750">
        <ele>1313.0</ele>
        <time>2018-09-16T12:18:24Z</time>
      </trkpt>
      <trkpt lat="40.248417" lon="-4.899733">
        <ele>1314.0</ele>
        <time>2018-09-16T12:18:25Z</time>
      </trkpt>
      <trkpt lat="40.248500" lon="-4.899700">
        <ele>1314.0</ele>
        <time>2018-09-16T12:18:26Z</time>
      </trkpt>
      <trkpt lat="40.248583" lon="-4.899633">
        <ele>1314.0</ele>
        <time>2018-09-16T12:18:27Z</time>
      </trkpt>
      <trkpt lat="40.248667" lon="-4.899550">
        <ele>1313.0</ele>
        <time>2018-09-16T12:18:28Z</time>
      </trkpt>
      <trkpt lat="40.248750" lon="-4.899433">
        <ele>1313.0</ele>
        <time>2018-09-16T12:18:29Z</time>
      </trkpt>
      <trkpt lat="40.248800" lon="-4.899283">
        <ele>1314.0</ele>
        <time>2018-09-16T12:18:30Z</time>
      </trkpt>
      <trkpt lat="40.248817" lon="-4.899133">
        <ele>1314.0</ele>
        <time>2018-09-16T12:18:31Z</time>
      </trkpt>
      <trkpt lat="40.248817" lon="-4.899000">
        <ele>1315.0</ele>
        <time>2018-09-16T12:18:32Z</time>
      </trkpt>
      <trkpt lat="40.248783" lon="-4.898867">
        <ele>1316.0</ele>
        <time>2018-09-16T12:18:33Z</time>
      </trkpt>
      <trkpt lat="40.248750" lon="-4.898750">
        <ele>1317.0</ele>
        <time>2018-09-16T12:18:34Z</time>
      </trkpt>
      <trkpt lat="40.248700" lon="-4.898667">
        <ele>1318.0</ele>
        <time>2018-09-16T12:18:35Z</time>
      </trkpt>
      <trkpt lat="40.248650" lon="-4.898600">
        <ele>1319.0</ele>
        <time>2018-09-16T12:18:36Z</time>
      </trkpt>
      <trkpt lat="40.248583" lon="-4.898550">
        <ele>1320.0</ele>
        <time>2018-09-16T12:18:37Z</time>
      </trkpt>
      <trkpt lat="40.248517" lon="-4.898517">
        <ele>1320.0</ele>
        <time>2018-09-16T12:18:38Z</time>
      </trkpt>
      <trkpt lat="40.248450" lon="-4.898483">
        <ele>1321.0</ele>
        <time>2018-09-16T12:18:39Z</time>
      </trkpt>
      <trkpt lat="40.248400" lon="-4.898500">
        <ele>1321.0</ele>
        <time>2018-09-16T12:18:40Z</time>
      </trkpt>
      <trkpt lat="40.248367" lon="-4.898533">
        <ele>1320.0</ele>
        <time>2018-09-16T12:18:41Z</time>
      </trkpt>
      <trkpt lat="40.248333" lon="-4.898617">
        <ele>1319.0</ele>
        <time>2018-09-16T12:18:42Z</time>
      </trkpt>
      <trkpt lat="40.248317" lon="-4.898700">
        <ele>1319.0</ele>
        <time>2018-09-16T12:18:43Z</time>
      </trkpt>
      <trkpt lat="40.248317" lon="-4.898783">
        <ele>1320.0</ele>
        <time>2018-09-16T12:18:44Z</time>
      </trkpt>
      <trkpt lat="40.248317" lon="-4.898867">
        <ele>1321.0</ele>
        <time>2018-09-16T12:18:45Z</time>
      </trkpt>
      <trkpt lat="40.248333" lon="-4.898950">
        <ele>1323.0</ele>
        <time>2018-09-16T12:18:46Z</time>
      </trkpt>
      <trkpt lat="40.248350" lon="-4.899033">
        <ele>1325.0</ele>
        <time>2018-09-16T12:18:47Z</time>
      </trkpt>
      <trkpt lat="40.248383" lon="-4.899133">
        <ele>1326.0</ele>
        <time>2018-09-16T12:18:48Z</time>
      </trkpt>
      <trkpt lat="40.248383" lon="-4.899217">
        <ele>1327.0</ele>
        <time>2018-09-16T12:18:49Z</time>
      </trkpt>
      <trkpt lat="40.248383" lon="-4.899283">
        <ele>1328.0</ele>
        <time>2018-09-16T12:18:50Z</time>
      </trkpt>
      <trkpt lat="40.248383" lon="-4.899350">
        <ele>1328.0</ele>
        <time>2018-09-16T12:18:51Z</time>
      </trkpt>
      <trkpt lat="40.248417" lon="-4.899433">
        <ele>1329.0</ele>
        <time>2018-09-16T12:18:52Z</time>
      </trkpt>
      <trkpt lat="40.248467" lon="-4.899500">
        <ele>1328.0</ele>
        <time>2018-09-16T12:18:53Z</time>
      </trkpt>
      <trkpt lat="40.248550" lon="-4.899550">
        <ele>1328.0</ele>
        <time>2018-09-16T12:18:54Z</time>
      </trkpt>
      <trkpt lat="40.248650" lon="-4.899600">
        <ele>1329.0</ele>
        <time>2018-09-16T12:18:55Z</time>
      </trkpt>
      <trkpt lat="40.248733" lon="-4.899600">
        <ele>1332.0</ele>
        <time>2018-09-16T12:18:56Z</time>
      </trkpt>
      <trkpt lat="40.248817" lon="-4.899567">
        <ele>1335.0</ele>
        <time>2018-09-16T12:18:57Z</time>
      </trkpt>
      <trkpt lat="40.248900" lon="-4.899517">
        <ele>1337.0</ele>
        <time>2018-09-16T12:18:58Z</time>
      </trkpt>
      <trkpt lat="40.248967" lon="-4.899433">
        <ele>1339.0</ele>
        <time>2018-09-16T12:18:59Z</time>
      </trkpt>
      <trkpt lat="40.249033" lon="-4.899333">
        <ele>1340.0</ele>
        <time>2018-09-16T12:19:00Z</time>
      </trkpt>
      <trkpt lat="40.249083" lon="-4.899217">
        <ele>1339.0</ele>
        <time>2018-09-16T12:19:01Z</time>
      </trkpt>
      <trkpt lat="40.249133" lon="-4.899083">
        <ele>1340.0</ele>
        <time>2018-09-16T12:19:02Z</time>
      </trkpt>
      <trkpt lat="40.249183" lon="-4.898933">
        <ele>1341.0</ele>
        <time>2018-09-16T12:19:03Z</time>
      </trkpt>
      <trkpt lat="40.249217" lon="-4.898800">
        <ele>1343.0</ele>
        <time>2018-09-16T12:19:04Z</time>
      </trkpt>
      <trkpt lat="40.249250" lon="-4.898667">
        <ele>1344.0</ele>
        <time>2018-09-16T12:19:05Z</time>
      </trkpt>
      <trkpt lat="40.249267" lon="-4.898550">
        <ele>1344.0</ele>
        <time>2018-09-16T12:19:06Z</time>
      </trkpt>
      <trkpt lat="40.249267" lon="-4.898417">
        <ele>1343.0</ele>
        <time>2018-09-16T12:19:07Z</time>
      </trkpt>
      <trkpt lat="40.249233" lon="-4.898283">
        <ele>1342.0</ele>
        <time>2018-09-16T12:19:08Z</time>
      </trkpt>
      <trkpt lat="40.249200" lon="-4.898150">
        <ele>1342.0</ele>
        <time>2018-09-16T12:19:09Z</time>
      </trkpt>
      <trkpt lat="40.249150" lon="-4.898050">
        <ele>1343.0</ele>
        <time>2018-09-16T12:19:10Z</time>
      </trkpt>
      <trkpt lat="40.249083" lon="-4.898000">
        <ele>1343.0</ele>
        <time>2018-09-16T12:19:11Z</time>
      </trkpt>
      <trkpt lat="40.249000" lon="-4.897983">
        <ele>1342.0</ele>
        <time>2018-09-16T12:19:12Z</time>
      </trkpt>
      <trkpt lat="40.248950" lon="-4.898033">
        <ele>1342.0</ele>
        <time>2018-09-16T12:19:13Z</time>
      </trkpt>
      <trkpt lat="40.248933" lon="-4.898100">
        <ele>1343.0</ele>
        <time>2018-09-16T12:19:14Z</time>
      </trkpt>
      <trkpt lat="40.248917" lon="-4.898167">
        <ele>1344.0</ele>
        <time>2018-09-16T12:19:15Z</time>
      </trkpt>
      <trkpt lat="40.248917" lon="-4.898233">
        <ele>1346.0</ele>
        <time>2018-09-16T12:19:16Z</time>
      </trkpt>
      <trkpt lat="40.248917" lon="-4.898283">
        <ele>1347.0</ele>
        <time>2018-09-16T12:19:17Z</time>
      </trkpt>
      <trkpt lat="40.248917" lon="-4.898333">
        <ele>1348.0</ele>
        <time>2018-09-16T12:19:18Z</time>
      </trkpt>
      <trkpt lat="40.248883" lon="-4.898400">
        <ele>1347.0</ele>
        <time>2018-09-16T12:19:19Z</time>
      </trkpt>
      <trkpt lat="40.248833" lon="-4.898450">
        <ele>1346.0</ele>
        <time>2018-09-16T12:19:20Z</time>
      </trkpt>
      <trkpt lat="40.248767" lon="-4.898517">
        <ele>1347.0</ele>
        <time>2018-09-16T12:19:21Z</time>
      </trkpt>
      <trkpt lat="40.248717" lon="-4.898600">
        <ele>1349.0</ele>
        <time>2018-09-16T12:19:22Z</time>
      </trkpt>
      <trkpt lat="40.248717" lon="-4.898683">
        <ele>1351.0</ele>
        <time>2018-09-16T12:19:23Z</time>
      </trkpt>
      <trkpt lat="40.248767" lon="-4.898783">
        <ele>1352.0</ele>
        <time>2018-09-16T12:19:24Z</time>
      </trkpt>
      <trkpt lat="40.248850" lon="-4.898867">
        <ele>1353.0</ele>
        <time>2018-09-16T12:19:25Z</time>
      </trkpt>
      <trkpt lat="40.248950" lon="-4.898900">
        <ele>1357.0</ele>
        <time>2018-09-16T12:19:26Z</time>
      </trkpt>
      <trkpt lat="40.249033" lon="-4.898883">
        <ele>1360.0</ele>
        <time>2018-09-16T12:19:27Z</time>
      </trkpt>
      <trkpt lat="40.249117" lon="-4.898800">
        <ele>1362.0</ele>
        <time>2018-09-16T12:19:28Z</time>
      </trkpt>
      <trkpt lat="40.249167" lon="-4.898683">
        <ele>1361.0</ele>
        <time>2018-09-16T12:19:29Z</time>
      </trkpt>
      <trkpt lat="40.249200" lon="-4.898533">
        <ele>1361.0</ele>
        <time>2018-09-16T12:19:30Z</time>
      </trkpt>
      <trkpt lat="40.249217" lon="-4.898367">
        <ele>1362.0</ele>
        <time>2018-09-16T12:19:31Z</time>
      </trkpt>
      <trkpt lat="40.249217" lon="-4.898217">
        <ele>1363.0</ele>
        <time>2018-09-16T12:19:32Z</time>
      </trkpt>
      <trkpt lat="40.249183" lon="-4.898083">
        <ele>1364.0</ele>
        <time>2018-09-16T12:19:33Z</time>
      </trkpt>
      <trkpt lat="40.249133" lon="-4.897983">
        <ele>1364.0</ele>
        <time>2018-09-16T12:19:34Z</time>
      </trkpt>
      <trkpt lat="40.249050" lon="-4.897917">
        <ele>1363.0</ele>
        <time>2018-09-16T12:19:35Z</time>
      </trkpt>
      <trkpt lat="40.248950" lon="-4.897883">
        <ele>1364.0</ele>
        <time>2018-09-16T12:19:36Z</time>
      </trkpt>
      <trkpt lat="40.248867" lon="-4.897900">
        <ele>1366.0</ele>
        <time>2018-09-16T12:19:37Z</time>
      </trkpt>
      <trkpt lat="40.248817" lon="-4.897950">
        <ele>1370.0</ele>
        <time>2018-09-16T12:19:38Z</time>
      </trkpt>
      <trkpt lat="40.248767" lon="-4.897983">
        <ele>1372.0</ele>
        <time>2018-09-16T12:19:39Z</time>
      </trkpt>
      <trkpt lat="40.248733" lon="-4.898017">
        <ele>1373.0</ele>
        <time>2018-09-16T12:19:40Z</time>
      </trkpt>
      <trkpt lat="40.248683" lon="-4.898050">
        <ele>1372.0</ele>
        <time>2018-09-16T12:19:41Z</time>
      </trkpt>
      <trkpt lat="40.248650" lon="-4.898133">
        <ele>1370.0</ele>
        <time>2018-09-16T12:19:42Z</time>
      </trkpt>
      <trkpt lat="40.248633" lon="-4.898233">
        <ele>1369.0</ele>
        <time>2018-09-16T12:19:43Z</time>
      </trkpt>
      <trkpt lat="40.248633" lon="-4.898333">
        <ele>1370.0</ele>
        <time>2018-09-16T12:19:44Z</time>
      </trkpt>
      <trkpt lat="40.248667" lon="-4.898417">
        <ele>1371.0</ele>
        <time>2018-09-16T12:19:45Z</time>
      </trkpt>
      <trkpt lat="40.248700" lon="-4.898500">
        <ele>1372.0</ele>
        <time>2018-09-16T12:19:46Z</time>
      </trkpt>
      <trkpt lat="40.248767" lon="-4.898550">
        <ele>1373.0</ele>
        <time>2018-09-16T12:19:47Z</time>
      </trkpt>
      <trkpt lat="40.248850" lon="-4.898583">
        <ele>1373.0</ele>
        <time>2018-09-16T12:19:48Z</time>
      </trkpt>
      <trkpt lat="40.248950" lon="-4.898600">
        <ele>1374.0</ele>
        <time>2018-09-16T12:19:49Z</time>
      </trkpt>
      <trkpt lat="40.249067" lon="-4.898567">
        <ele>1376.0</ele>
        <time>2018-09-16T12:19:50Z</time>
      </trkpt>
      <trkpt lat="40.249150" lon="-4.898483">
        <ele>1379.0</ele>
        <time>2018-09-16T12:19:51Z</time>
      </trkpt>
      <trkpt lat="40.249200" lon="-4.898367">
        <ele>1379.0</ele>
        <time>2018-09-16T12:19:52Z</time>
      </trkpt>
      <trkpt lat="40.249233" lon="-4.898233">
        <ele>1379.0</ele>
        <time>2018-09-16T12:19:53Z</time>
      </trkpt>
      <trkpt lat="40.249233" lon="-4.898083">
        <ele>1379.0</ele>
        <time>2018-09-16T12:19:54Z</time>
      </trkpt>
      <trkpt lat="40.249233" lon="-4.897917">
        <ele>1378.0</ele>
        <time>2018-09-16T12:19:55Z</time>
      </trkpt>
      <trkpt lat="40.249217" lon="-4.897767">
        <ele>1379.0</ele>
        <time>2018-09-16T12:19:56Z</time>
      </trkpt>
      <trkpt lat="40.249167" lon="-4.897633">
        <ele>1378.0</ele>
        <time>2018-09-16T12:19:57Z</time>
      </trkpt>
      <trkpt lat="40.249117" lon="-4.897500">
        <ele>1378.0</ele>
        <time>2018-09-16T12:19:58Z</time>
      </trkpt>
      <trkpt lat="40.249050" lon="-4.897400">
        <ele>1380.0</ele>
        <time>2018-09-16T12:19:59Z</time>
      </trkpt>
      <trkpt lat="40.248967" lon="-4.897333">
        <ele>1380.0</ele>
        <time>2018-09-16T12:20:00Z</time>
      </trkpt>
      <trkpt lat="40.248917" lon="-4.897333">
        <ele>1380.0</ele>
        <time>2018-09-16T12:20:01Z</time>
      </trkpt>
      <trkpt lat="40.248850" lon="-4.897383">
        <ele>1378.0</ele>
        <time>2018-09-16T12:20:02Z</time>
      </trkpt>
      <trkpt lat="40.248783" lon="-4.897433">
        <ele>1376.0</ele>
        <time>2018-09-16T12:20:03Z</time>
      </trkpt>
      <trkpt lat="40.248700" lon="-4.897500">
        <ele>1374.0</ele>
        <time>2018-09-16T12:20:04Z</time>
      </trkpt>
      <trkpt lat="40.248650" lon="-4.897583">
        <ele>1374.0</ele>
        <time>2018-09-16T12:20:05Z</time>
      </trkpt>
      <trkpt lat="40.248633" lon="-4.897667">
        <ele>1375.0</ele>
        <time>2018-09-16T12:20:06Z</time>
      </trkpt>
      <trkpt lat="40.248650" lon="-4.897750">
        <ele>1375.0</ele>
        <time>2018-09-16T12:20:07Z</time>
      </trkpt>
      <trkpt lat="40.248667" lon="-4.897817">
        <ele>1375.0</ele>
        <time>2018-09-16T12:20:08Z</time>
      </trkpt>
      <trkpt lat="40.248683" lon="-4.897850">
        <ele>1373.0</ele>
        <time>2018-09-16T12:20:09Z</time>
      </trkpt>
      <trkpt lat="40.248700" lon="-4.897917">
        <ele>1369.0</ele>
        <time>2018-09-16T12:20:10Z</time>
      </trkpt>
      <trkpt lat="40.248700" lon="-4.897983">
        <ele>1364.0</ele>
        <time>2018-09-16T12:20:11Z</time>
      </trkpt>
      <trkpt lat="40.248700" lon="-4.898067">
        <ele>1360.0</ele>
        <time>2018-09-16T12:20:12Z</time>
      </trkpt>
      <trkpt lat="40.248700" lon="-4.898167">
        <ele>1357.0</ele>
        <time>2018-09-16T12:20:13Z</time>
      </trkpt>
      <trkpt lat="40.248700" lon="-4.898250">
        <ele>1357.0</ele>
        <time>2018-09-16T12:20:14Z</time>
      </trkpt>
      <trkpt lat="40.248683" lon="-4.898333">
        <ele>1357.0</ele>
        <time>2018-09-16T12:20:15Z</time>
      </trkpt>
      <trkpt lat="40.248683" lon="-4.898383">
        <ele>1356.0</ele>
        <time>2018-09-16T12:20:16Z</time>
      </trkpt>
      <trkpt lat="40.248683" lon="-4.898450">
        <ele>1354.0</ele>
        <time>2018-09-16T12:20:17Z</time>
      </trkpt>
      <trkpt lat="40.248683" lon="-4.898533">
        <ele>1352.0</ele>
        <time>2018-09-16T12:20:18Z</time>
      </trkpt>
      <trkpt lat="40.248683" lon="-4.898633">
        <ele>1351.0</ele>
        <time>2018-09-16T12:20:19Z</time>
      </trkpt>
      <trkpt lat="40.248667" lon="-4.898750">
        <ele>1353.0</ele>
        <time>2018-09-16T12:20:20Z</time>
      </trkpt>
      <trkpt lat="40.248667" lon="-4.898833">
        <ele>1357.0</ele>
        <time>2018-09-16T12:20:21Z</time>
      </trkpt>
      <trkpt lat="40.248667" lon="-4.898900">
        <ele>1360.0</ele>
        <time>2018-09-16T12:20:22Z</time>
      </trkpt>
      <trkpt lat="40.248683" lon="-4.898967">
        <ele>1363.0</ele>
        <time>2018-09-16T12:20:23Z</time>
      </trkpt>
      <trkpt lat="40.248683" lon="-4.899017">
        <ele>1366.0</ele>
        <time>2018-09-16T12:20:24Z</time>
      </trkpt>
      <trkpt lat="40.248683" lon="-4.899100">
        <ele>1367.0</ele>
        <time>2018-09-16T12:20:25Z</time>
      </trkpt>
      <trkpt lat="40.248683" lon="-4.899183">
        <ele>1368.0</ele>
        <time>2018-09-16T12:20:26Z</time>
      </trkpt>
      <trkpt lat="40.248700" lon="-4.899267">
        <ele>1369.0</ele>
        <time>2018-09-16T12:20:27Z</time>
      </trkpt>
      <trkpt lat="40.248750" lon="-4.899350">
        <ele>1371.0</ele>
        <time>2018-09-16T12:20:28Z</time>
      </trkpt>
      <trkpt lat="40.248817" lon="-4.899417">
        <ele>1373.0</ele>
        <time>2018-09-16T12:20:29Z</time>
      </trkpt>
      <trkpt lat="40.248900" lon="-4.899450">
        <ele>1375.0</ele>
        <time>2018-09-16T12:20:30Z</time>
      </trkpt>
      <trkpt lat="40.248983" lon="-4.899467">
        <ele>1378.0</ele>
        <time>2018-09-16T12:20:31Z</time>
      </trkpt>
      <trkpt lat="40.249067" lon="-4.899467">
        <ele>1379.0</ele>
        <time>2018-09-16T12:20:32Z</time>
      </trkpt>
      <trkpt lat="40.249167" lon="-4.899450">
        <ele>1379.0</ele>
        <time>2018-09-16T12:20:33Z</time>
      </trkpt>
      <trkpt lat="40.249250" lon="-4.899417">
        <ele>1380.0</ele>
        <time>2018-09-16T12:20:34Z</time>
      </trkpt>
      <trkpt lat="40.249350" lon="-4.899350">
        <ele>1380.0</ele>
        <time>2018-09-16T12:20:35Z</time>
      </trkpt>
      <trkpt lat="40.249433" lon="-4.899283">
        <ele>1381.0</ele>
        <time>2018-09-16T12:20:36Z</time>
      </trkpt>
      <trkpt lat="40.249517" lon="-4.899217">
        <ele>1382.0</ele>
        <time>2018-09-16T12:20:37Z</time>
      </trkpt>
      <trkpt lat="40.249583" lon="-4.899150">
        <ele>1384.0</ele>
        <time>2018-09-16T12:20:38Z</time>
      </trkpt>
      <trkpt lat="40.249650" lon="-4.899067">
        <ele>1384.0</ele>
        <time>2018-09-16T12:20:39Z</time>
      </trkpt>
      <trkpt lat="40.249700" lon="-4.898950">
        <ele>1383.0</ele>
        <time>2018-09-16T12:20:40Z</time>
      </trkpt>
      <trkpt lat="40.249750" lon="-4.898833">
        <ele>1382.0</ele>
        <time>2018-09-16T12:20:41Z</time>
      </trkpt>
      <trkpt lat="40.249767" lon="-4.898683">
        <ele>1381.0</ele>
        <time>2018-09-16T12:20:42Z</time>
      </trkpt>
      <trkpt lat="40.249783" lon="-4.898533">
        <ele>1382.0</ele>
        <time>2018-09-16T12:20:43Z</time>
      </trkpt>
      <trkpt lat="40.249783" lon="-4.898383">
        <ele>1383.0</ele>
        <time>2018-09-16T12:20:44Z</time>
      </trkpt>
      <trkpt lat="40.249783" lon="-4.898233">
        <ele>1384.0</ele>
        <time>2018-09-16T12:20:45Z</time>
      </trkpt>
      <trkpt lat="40.249783" lon="-4.898083">
        <ele>1386.0</ele>
        <time>2018-09-16T12:20:46Z</time>
      </trkpt>
      <trkpt lat="40.249783" lon="-4.897950">
        <ele>1387.0</ele>
        <time>2018-09-16T12:20:47Z</time>
      </trkpt>
      <trkpt lat="40.249767" lon="-4.897800">
        <ele>1388.0</ele>
        <time>2018-09-16T12:20:48Z</time>
      </trkpt>
      <trkpt lat="40.249750" lon="-4.897667">
        <ele>1389.0</ele>
        <time>2018-09-16T12:20:49Z</time>
      </trkpt>
      <trkpt lat="40.249733" lon="-4.897517">
        <ele>1389.0</ele>
        <time>2018-09-16T12:20:50Z</time>
      </trkpt>
      <trkpt lat="40.249717" lon="-4.897383">
        <ele>1388.0</ele>
        <time>2018-09-16T12:20:51Z</time>
      </trkpt>
      <trkpt lat="40.249667" lon="-4.897267">
        <ele>1388.0</ele>
        <time>2018-09-16T12:20:52Z</time>
      </trkpt>
      <trkpt lat="40.249600" lon="-4.897150">
        <ele>1387.0</ele>
        <time>2018-09-16T12:20:53Z</time>
      </trkpt>
      <trkpt lat="40.249533" lon="-4.897067">
        <ele>1386.0</ele>
        <time>2018-09-16T12:20:54Z</time>
      </trkpt>
      <trkpt lat="40.249450" lon="-4.897017">
        <ele>1385.0</ele>
        <time>2018-09-16T12:20:55Z</time>
      </trkpt>
      <trkpt lat="40.249367" lon="-4.897000">
        <ele>1383.0</ele>
        <time>2018-09-16T12:20:56Z</time>
      </trkpt>
      <trkpt lat="40.249283" lon="-4.897017">
        <ele>1382.0</ele>
        <time>2018-09-16T12:20:57Z</time>
      </trkpt>
      <trkpt lat="40.249233" lon="-4.897033">
        <ele>1381.0</ele>
        <time>2018-09-16T12:20:58Z</time>
      </trkpt>
      <trkpt lat="40.249200" lon="-4.897067">
        <ele>1380.0</ele>
        <time>2018-09-16T12:20:59Z</time>
      </trkpt>
      <trkpt lat="40.249167" lon="-4.897100">
        <ele>1377.0</ele>
        <time>2018-09-16T12:21:00Z</time>
      </trkpt>
      <trkpt lat="40.249150" lon="-4.897133">
        <ele>1373.0</ele>
        <time>2018-09-16T12:21:01Z</time>
      </trkpt>
      <trkpt lat="40.249117" lon="-4.897217">
        <ele>1369.0</ele>
        <time>2018-09-16T12:21:02Z</time>
      </trkpt>
      <trkpt lat="40.249117" lon="-4.897317">
        <ele>1364.0</ele>
        <time>2018-09-16T12:21:03Z</time>
      </trkpt>
      <trkpt lat="40.249117" lon="-4.897433">
        <ele>1361.0</ele>
        <time>2018-09-16T12:21:04Z</time>
      </trkpt>
      <trkpt lat="40.249117" lon="-4.897550">
        <ele>1359.0</ele>
        <time>2018-09-16T12:21:05Z</time>
      </trkpt>
      <trkpt lat="40.249133" lon="-4.897667">
        <ele>1360.0</ele>
        <time>2018-09-16T12:21:06Z</time>
      </trkpt>
      <trkpt lat="40.249133" lon="-4.897767">
        <ele>1361.0</ele>
        <time>2018-09-16T12:21:07Z</time>
      </trkpt>
      <trkpt lat="40.249133" lon="-4.897850">
        <ele>1362.0</ele>
        <time>2018-09-16T12:21:08Z</time>
      </trkpt>
      <trkpt lat="40.249117" lon="-4.897917">
        <ele>1363.0</ele>
        <time>2018-09-16T12:21:09Z</time>
      </trkpt>
      <trkpt lat="40.249100" lon="-4.897967">
        <ele>1363.0</ele>
        <time>2018-09-16T12:21:10Z</time>
      </trkpt>
      <trkpt lat="40.249067" lon="-4.898033">
        <ele>1362.0</ele>
        <time>2018-09-16T12:21:11Z</time>
      </trkpt>
      <trkpt lat="40.249017" lon="-4.898100">
        <ele>1361.0</ele>
        <time>2018-09-16T12:21:12Z</time>
      </trkpt>
      <trkpt lat="40.248967" lon="-4.898150">
        <ele>1360.0</ele>
        <time>2018-09-16T12:21:13Z</time>
      </trkpt>
      <trkpt lat="40.248933" lon="-4.898217">
        <ele>1360.0</ele>
        <time>2018-09-16T12:21:14Z</time>
      </trkpt>
      <trkpt lat="40.248917" lon="-4.898300">
        <ele>1359.0</ele>
        <time>2018-09-16T12:21:15Z</time>
      </trkpt>
      <trkpt lat="40.248917" lon="-4.898383">
        <ele>1359.0</ele>
        <time>2018-09-16T12:21:16Z</time>
      </trkpt>
      <trkpt lat="40.248917" lon="-4.898483">
        <ele>1358.0</ele>
        <time>2018-09-16T12:21:17Z</time>
      </trkpt>
      <trkpt lat="40.248917" lon="-4.898600">
        <ele>1359.0</ele>
        <time>2018-09-16T12:21:18Z</time>
      </trkpt>
      <trkpt lat="40.248933" lon="-4.898717">
        <ele>1360.0</ele>
        <time>2018-09-16T12:21:19Z</time>
      </trkpt>
      <trkpt lat="40.248933" lon="-4.898817">
        <ele>1361.0</ele>
        <time>2018-09-16T12:21:20Z</time>
      </trkpt>
      <trkpt lat="40.248933" lon="-4.898900">
        <ele>1362.0</ele>
        <time>2018-09-16T12:21:21Z</time>
      </trkpt>
      <trkpt lat="40.248967" lon="-4.899000">
        <ele>1363.0</ele>
        <time>2018-09-16T12:21:22Z</time>
      </trkpt>
      <trkpt lat="40.249000" lon="-4.899100">
        <ele>1362.0</ele>
        <time>2018-09-16T12:21:23Z</time>
      </trkpt>
      <trkpt lat="40.249067" lon="-4.899200">
        <ele>1361.0</ele>
        <time>2018-09-16T12:21:24Z</time>
      </trkpt>
      <trkpt lat="40.249150" lon="-4.899300">
        <ele>1361.0</ele>
        <time>2018-09-16T12:21:25Z</time>
      </trkpt>
      <trkpt lat="40.249233" lon="-4.899367">
        <ele>1362.0</ele>
        <time>2018-09-16T12:21:26Z</time>
      </trkpt>
      <trkpt lat="40.249333" lon="-4.899417">
        <ele>1365.0</ele>
        <time>2018-09-16T12:21:27Z</time>
      </trkpt>
      <trkpt lat="40.249433" lon="-4.899450">
        <ele>1367.0</ele>
        <time>2018-09-16T12:21:28Z</time>
      </trkpt>
      <trkpt lat="40.249533" lon="-4.899467">
        <ele>1367.0</ele>
        <time>2018-09-16T12:21:29Z</time>
      </trkpt>
      <trkpt lat="40.249633" lon="-4.899467">
        <ele>1369.0</ele>
        <time>2018-09-16T12:21:30Z</time>
      </trkpt>
      <trkpt lat="40.249717" lon="-4.899433">
        <ele>1370.0</ele>
        <time>2018-09-16T12:21:31Z</time>
      </trkpt>
      <trkpt lat="40.249800" lon="-4.899367">
        <ele>1370.0</ele>
        <time>2018-09-16T12:21:32Z</time>
      </trkpt>
      <trkpt lat="40.249867" lon="-4.899283">
        <ele>1369.0</ele>
        <time>2018-09-16T12:21:33Z</time>
      </trkpt>
      <trkpt lat="40.249933" lon="-4.899183">
        <ele>1367.0</ele>
        <time>2018-09-16T12:21:34Z</time>
      </trkpt>
      <trkpt lat="40.249983" lon="-4.899033">
        <ele>1366.0</ele>
        <time>2018-09-16T12:21:35Z</time>
      </trkpt>
      <trkpt lat="40.250017" lon="-4.898883">
        <ele>1364.0</ele>
        <time>2018-09-16T12:21:36Z</time>
      </trkpt>
      <trkpt lat="40.250000" lon="-4.898717">
        <ele>1363.0</ele>
        <time>2018-09-16T12:21:37Z</time>
      </trkpt>
      <trkpt lat="40.249983" lon="-4.898567">
        <ele>1364.0</ele>
        <time>2018-09-16T12:21:38Z</time>
      </trkpt>
      <trkpt lat="40.249950" lon="-4.898433">
        <ele>1365.0</ele>
        <time>2018-09-16T12:21:39Z</time>
      </trkpt>
      <trkpt lat="40.249917" lon="-4.898300">
        <ele>1365.0</ele>
        <time>2018-09-16T12:21:40Z</time>
      </trkpt>
      <trkpt lat="40.249867" lon="-4.898167">
        <ele>1366.0</ele>
        <time>2018-09-16T12:21:41Z</time>
      </trkpt>
      <trkpt lat="40.249833" lon="-4.898033">
        <ele>1366.0</ele>
        <time>2018-09-16T12:21:42Z</time>
      </trkpt>
      <trkpt lat="40.249800" lon="-4.897917">
        <ele>1367.0</ele>
        <time>2018-09-16T12:21:43Z</time>
      </trkpt>
      <trkpt lat="40.249750" lon="-4.897800">
        <ele>1367.0</ele>
        <time>2018-09-16T12:21:44Z</time>
      </trkpt>
      <trkpt lat="40.249700" lon="-4.897717">
        <ele>1367.0</ele>
        <time>2018-09-16T12:21:45Z</time>
      </trkpt>
      <trkpt lat="40.249633" lon="-4.897667">
        <ele>1366.0</ele>
        <time>2018-09-16T12:21:46Z</time>
      </trkpt>
      <trkpt lat="40.249550" lon="-4.897650">
        <ele>1364.0</ele>
        <time>2018-09-16T12:21:47Z</time>
      </trkpt>
      <trkpt lat="40.249483" lon="-4.897667">
        <ele>1363.0</ele>
        <time>2018-09-16T12:21:48Z</time>
      </trkpt>
      <trkpt lat="40.249433" lon="-4.897700">
        <ele>1361.0</ele>
        <time>2018-09-16T12:21:49Z</time>
      </trkpt>
      <trkpt lat="40.249383" lon="-4.897767">
        <ele>1360.0</ele>
        <time>2018-09-16T12:21:50Z</time>
      </trkpt>
      <trkpt lat="40.249333" lon="-4.897850">
        <ele>1358.0</ele>
        <time>2018-09-16T12:21:51Z</time>
      </trkpt>
      <trkpt lat="40.249300" lon="-4.897933">
        <ele>1357.0</ele>
        <time>2018-09-16T12:21:52Z</time>
      </trkpt>
      <trkpt lat="40.249283" lon="-4.898033">
        <ele>1355.0</ele>
        <time>2018-09-16T12:21:53Z</time>
      </trkpt>
      <trkpt lat="40.249267" lon="-4.898133">
        <ele>1355.0</ele>
        <time>2018-09-16T12:21:54Z</time>
      </trkpt>
      <trkpt lat="40.249233" lon="-4.898217">
        <ele>1354.0</ele>
        <time>2018-09-16T12:21:55Z</time>
      </trkpt>
      <trkpt lat="40.249183" lon="-4.898300">
        <ele>1353.0</ele>
        <time>2018-09-16T12:21:56Z</time>
      </trkpt>
      <trkpt lat="40.249133" lon="-4.898383">
        <ele>1354.0</ele>
        <time>2018-09-16T12:21:57Z</time>
      </trkpt>
      <trkpt lat="40.249083" lon="-4.898467">
        <ele>1356.0</ele>
        <time>2018-09-16T12:21:58Z</time>
      </trkpt>
      <trkpt lat="40.249050" lon="-4.898550">
        <ele>1357.0</ele>
        <time>2018-09-16T12:21:59Z</time>
      </trkpt>
      <trkpt lat="40.249033" lon="-4.898633">
        <ele>1357.0</ele>
        <time>2018-09-16T12:22:00Z</time>
      </trkpt>
      <trkpt lat="40.249000" lon="-4.898733">
        <ele>1358.0</ele>
        <time>2018-09-16T12:22:01Z</time>
      </trkpt>
      <trkpt lat="40.248967" lon="-4.898817">
        <ele>1357.0</ele>
        <time>2018-09-16T12:22:02Z</time>
      </trkpt>
      <trkpt lat="40.248933" lon="-4.898900">
        <ele>1357.0</ele>
        <time>2018-09-16T12:22:03Z</time>
      </trkpt>
      <trkpt lat="40.248900" lon="-4.898983">
        <ele>1357.0</ele>
        <time>2018-09-16T12:22:04Z</time>
      </trkpt>
      <trkpt lat="40.248883" lon="-4.899067">
        <ele>1357.0</ele>
        <time>2018-09-16T12:22:05Z</time>
      </trkpt>
      <trkpt lat="40.248850" lon="-4.899133">
        <ele>1356.0</ele>
        <time>2018-09-16T12:22:06Z</time>
      </trkpt>
      <trkpt lat="40.248817" lon="-4.899217">
        <ele>1354.0</ele>
        <time>2018-09-16T12:22:07Z</time>
      </trkpt>
      <trkpt lat="40.248783" lon="-4.899317">
        <ele>1352.0</ele>
        <time>2018-09-16T12:22:08Z</time>
      </trkpt>
      <trkpt lat="40.248750" lon="-4.899433">
        <ele>1352.0</ele>
        <time>2018-09-16T12:22:09Z</time>
      </trkpt>
      <trkpt lat="40.248733" lon="-4.899533">
        <ele>1352.0</ele>
        <time>2018-09-16T12:22:10Z</time>
      </trkpt>
      <trkpt lat="40.248733" lon="-4.899617">
        <ele>1354.0</ele>
        <time>2018-09-16T12:22:11Z</time>
      </trkpt>
      <trkpt lat="40.248733" lon="-4.899700">
        <ele>1354.0</ele>
        <time>2018-09-16T12:22:12Z</time>
      </trkpt>
      <trkpt lat="40.248717" lon="-4.899750">
        <ele>1353.0</ele>
        <time>2018-09-16T12:22:13Z</time>
      </trkpt>
      <trkpt lat="40.248717" lon="-4.899817">
        <ele>1352.0</ele>
        <time>2018-09-16T12:22:14Z</time>
      </trkpt>
      <trkpt lat="40.248700" lon="-4.899900">
        <ele>1351.0</ele>
        <time>2018-09-16T12:22:15Z</time>
      </trkpt>
      <trkpt lat="40.248683" lon="-4.899983">
        <ele>1349.0</ele>
        <time>2018-09-16T12:22:16Z</time>
      </trkpt>
      <trkpt lat="40.248667" lon="-4.900067">
        <ele>1348.0</ele>
        <time>2018-09-16T12:22:17Z</time>
      </trkpt>
      <trkpt lat="40.248650" lon="-4.900133">
        <ele>1346.0</ele>
        <time>2018-09-16T12:22:18Z</time>
      </trkpt>
      <trkpt lat="40.248617" lon="-4.900200">
        <ele>1345.0</ele>
        <time>2018-09-16T12:22:19Z</time>
      </trkpt>
      <trkpt lat="40.248600" lon="-4.900283">
        <ele>1342.0</ele>
        <time>2018-09-16T12:22:20Z</time>
      </trkpt>
      <trkpt lat="40.248583" lon="-4.900383">
        <ele>1340.0</ele>
        <time>2018-09-16T12:22:21Z</time>
      </trkpt>
      <trkpt lat="40.248567" lon="-4.900483">
        <ele>1339.0</ele>
        <time>2018-09-16T12:22:22Z</time>
      </trkpt>
      <trkpt lat="40.248550" lon="-4.900567">
        <ele>1337.0</ele>
        <time>2018-09-16T12:22:23Z</time>
      </trkpt>
      <trkpt lat="40.248533" lon="-4.900650">
        <ele>1335.0</ele>
        <time>2018-09-16T12:22:24Z</time>
      </trkpt>
      <trkpt lat="40.248533" lon="-4.900750">
        <ele>1333.0</ele>
        <time>2018-09-16T12:22:25Z</time>
      </trkpt>
      <trkpt lat="40.248517" lon="-4.900850">
        <ele>1330.0</ele>
        <time>2018-09-16T12:22:26Z</time>
      </trkpt>
      <trkpt lat="40.248500" lon="-4.900967">
        <ele>1329.0</ele>
        <time>2018-09-16T12:22:27Z</time>
      </trkpt>
      <trkpt lat="40.248483" lon="-4.901067">
        <ele>1329.0</ele>
        <time>2018-09-16T12:22:28Z</time>
      </trkpt>
      <trkpt lat="40.248467" lon="-4.901167">
        <ele>1328.0</ele>
        <time>2018-09-16T12:22:29Z</time>
      </trkpt>
      <trkpt lat="40.248467" lon="-4.901250">
        <ele>1327.0</ele>
        <time>2018-09-16T12:22:30Z</time>
      </trkpt>
      <trkpt lat="40.248467" lon="-4.901350">
        <ele>1325.0</ele>
        <time>2018-09-16T12:22:31Z</time>
      </trkpt>
      <trkpt lat="40.248467" lon="-4.901433">
        <ele>1322.0</ele>
        <time>2018-09-16T12:22:32Z</time>
      </trkpt>
      <trkpt lat="40.248450" lon="-4.901533">
        <ele>1320.0</ele>
        <time>2018-09-16T12:22:33Z</time>
      </trkpt>
      <trkpt lat="40.248433" lon="-4.901617">
        <ele>1317.0</ele>
        <time>2018-09-16T12:22:34Z</time>
      </trkpt>
      <trkpt lat="40.248417" lon="-4.901700">
        <ele>1315.0</ele>
        <time>2018-09-16T12:22:35Z</time>
      </trkpt>
      <trkpt lat="40.248400" lon="-4.901800">
        <ele>1314.0</ele>
        <time>2018-09-16T12:22:36Z</time>
      </trkpt>
      <trkpt lat="40.248367" lon="-4.901883">
        <ele>1311.0</ele>
        <time>2018-09-16T12:22:37Z</time>
      </trkpt>
      <trkpt lat="40.248350" lon="-4.901967">
        <ele>1309.0</ele>
        <time>2018-09-16T12:22:38Z</time>
      </trkpt>
      <trkpt lat="40.248300" lon="-4.902050">
        <ele>1307.0</ele>
        <time>2018-09-16T12:22:39Z</time>
      </trkpt>
      <trkpt lat="40.248267" lon="-4.902133">
        <ele>1306.0</ele>
        <time>2018-09-16T12:22:40Z</time>
      </trkpt>
      <trkpt lat="40.248233" lon="-4.902217">
        <ele>1305.0</ele>
        <time>2018-09-16T12:22:41Z</time>
      </trkpt>
      <trkpt lat="40.248200" lon="-4.902300">
        <ele>1304.0</ele>
        <time>2018-09-16T12:22:42Z</time>
      </trkpt>
      <trkpt lat="40.248183" lon="-4.902367">
        <ele>1303.0</ele>
        <time>2018-09-16T12:22:43Z</time>
      </trkpt>
      <trkpt lat="40.248150" lon="-4.902433">
        <ele>1301.0</ele>
        <time>2018-09-16T12:22:44Z</time>
      </trkpt>
      <trkpt lat="40.248117" lon="-4.902500">
        <ele>1299.0</ele>
        <time>2018-09-16T12:22:45Z</time>
      </trkpt>
      <trkpt lat="40.248067" lon="-4.902583">
        <ele>1296.0</ele>
        <time>2018-09-16T12:22:46Z</time>
      </trkpt>
      <trkpt lat="40.248017" lon="-4.902650">
        <ele>1295.0</ele>
        <time>2018-09-16T12:22:47Z</time>
      </trkpt>
      <trkpt lat="40.247967" lon="-4.902717">
        <ele>1294.0</ele>
        <time>2018-09-16T12:22:48Z</time>
      </trkpt>
      <trkpt lat="40.247933" lon="-4.902783">
        <ele>1293.0</ele>
        <time>2018-09-16T12:22:49Z</time>
      </trkpt>
      <trkpt lat="40.247900" lon="-4.902833">
        <ele>1291.0</ele>
        <time>2018-09-16T12:22:50Z</time>
      </trkpt>
      <trkpt lat="40.247850" lon="-4.902917">
        <ele>1289.0</ele>
        <time>2018-09-16T12:22:51Z</time>
      </trkpt>
      <trkpt lat="40.247817" lon="-4.902983">
        <ele>1287.0</ele>
        <time>2018-09-16T12:22:52Z</time>
      </trkpt>
      <trkpt lat="40.247783" lon="-4.903067">
        <ele>1284.0</ele>
        <time>2018-09-16T12:22:53Z</time>
      </trkpt>
      <trkpt lat="40.247750" lon="-4.903150">
        <ele>1282.0</ele>
        <time>2018-09-16T12:22:54Z</time>
      </trkpt>
      <trkpt lat="40.247700" lon="-4.903250">
        <ele>1280.0</ele>
        <time>2018-09-16T12:22:55Z</time>
      </trkpt>
      <trkpt lat="40.247667" lon="-4.903317">
        <ele>1278.0</ele>
        <time>2018-09-16T12:22:56Z</time>
      </trkpt>
      <trkpt lat="40.247633" lon="-4.903417">
        <ele>1275.0</ele>
        <time>2018-09-16T12:22:57Z</time>
      </trkpt>
      <trkpt lat="40.247583" lon="-4.903500">
        <ele>1273.0</ele>
        <time>2018-09-16T12:22:58Z</time>
      </trkpt>
      <trkpt lat="40.247550" lon="-4.903600">
        <ele>1271.0</ele>
        <time>2018-09-16T12:22:59Z</time>
      </trkpt>
      <trkpt lat="40.247500" lon="-4.903700">
        <ele>1269.0</ele>
        <time>2018-09-16T12:23:00Z</time>
      </trkpt>
      <trkpt lat="40.247450" lon="-4.903783">
        <ele>1267.0</ele>
        <time>2018-09-16T12:23:01Z</time>
      </trkpt>
      <trkpt lat="40.247383" lon="-4.903867">
        <ele>1266.0</ele>
        <time>2018-09-16T12:23:02Z</time>
      </trkpt>
      <trkpt lat="40.247317" lon="-4.903917">
        <ele>1265.0</ele>
        <time>2018-09-16T12:23:03Z</time>
      </trkpt>
      <trkpt lat="40.247250" lon="-4.903967">
        <ele>1263.0</ele>
        <time>2018-09-16T12:23:04Z</time>
      </trkpt>
      <trkpt lat="40.247183" lon="-4.904033">
        <ele>1260.0</ele>
        <time>2018-09-16T12:23:05Z</time>
      </trkpt>
      <trkpt lat="40.247133" lon="-4.904100">
        <ele>1257.0</ele>
        <time>2018-09-16T12:23:06Z</time>
      </trkpt>
      <trkpt lat="40.247067" lon="-4.904183">
        <ele>1254.0</ele>
        <time>2018-09-16T12:23:07Z</time>
      </trkpt>
      <trkpt lat="40.246983" lon="-4.904267">
        <ele>1252.0</ele>
        <time>2018-09-16T12:23:08Z</time>
      </trkpt>
      <trkpt lat="40.246917" lon="-4.904333">
        <ele>1251.0</ele>
        <time>2018-09-16T12:23:09Z</time>
      </trkpt>
      <trkpt lat="40.246850" lon="-4.904400">
        <ele>1251.0</ele>
        <time>2018-09-16T12:23:10Z</time>
      </trkpt>
      <trkpt lat="40.246800" lon="-4.904467">
        <ele>1250.0</ele>
        <time>2018-09-16T12:23:11Z</time>
      </trkpt>
      <trkpt lat="40.246767" lon="-4.904550">
        <ele>1249.0</ele>
        <time>2018-09-16T12:23:12Z</time>
      </trkpt>
      <trkpt lat="40.246717" lon="-4.904617">
        <ele>1246.0</ele>
        <time>2018-09-16T12:23:13Z</time>
      </trkpt>
      <trkpt lat="40.246667" lon="-4.904700">
        <ele>1243.0</ele>
        <time>2018-09-16T12:23:14Z</time>
      </trkpt>
      <trkpt lat="40.246617" lon="-4.904800">
        <ele>1239.0</ele>
        <time>2018-09-16T12:23:15Z</time>
      </trkpt>
      <trkpt lat="40.246550" lon="-4.904900">
        <ele>1237.0</ele>
        <time>2018-09-16T12:23:16Z</time>
      </trkpt>
      <trkpt lat="40.246483" lon="-4.905000">
        <ele>1236.0</ele>
        <time>2018-09-16T12:23:17Z</time>
      </trkpt>
      <trkpt lat="40.246417" lon="-4.905100">
        <ele>1236.0</ele>
        <time>2018-09-16T12:23:18Z</time>
      </trkpt>
      <trkpt lat="40.246367" lon="-4.905200">
        <ele>1236.0</ele>
        <time>2018-09-16T12:23:19Z</time>
      </trkpt>
      <trkpt lat="40.246300" lon="-4.905300">
        <ele>1236.0</ele>
        <time>2018-09-16T12:23:20Z</time>
      </trkpt>
      <trkpt lat="40.246233" lon="-4.905400">
        <ele>1236.0</ele>
        <time>2018-09-16T12:23:21Z</time>
      </trkpt>
      <trkpt lat="40.246167" lon="-4.905483">
        <ele>1237.0</ele>
        <time>2018-09-16T12:23:22Z</time>
      </trkpt>
      <trkpt lat="40.246100" lon="-4.905583">
        <ele>1238.0</ele>
        <time>2018-09-16T12:23:23Z</time>
      </trkpt>
      <trkpt lat="40.246050" lon="-4.905683">
        <ele>1239.0</ele>
        <time>2018-09-16T12:23:24Z</time>
      </trkpt>
      <trkpt lat="40.245983" lon="-4.905750">
        <ele>1241.0</ele>
        <time>2018-09-16T12:23:25Z</time>
      </trkpt>
      <trkpt lat="40.245933" lon="-4.905850">
        <ele>1241.0</ele>
        <time>2018-09-16T12:23:26Z</time>
      </trkpt>
      <trkpt lat="40.245867" lon="-4.905933">
        <ele>1243.0</ele>
        <time>2018-09-16T12:23:27Z</time>
      </trkpt>
      <trkpt lat="40.245833" lon="-4.906050">
        <ele>1244.0</ele>
        <time>2018-09-16T12:23:28Z</time>
      </trkpt>
      <trkpt lat="40.245800" lon="-4.906167">
        <ele>1245.0</ele>
        <time>2018-09-16T12:23:29Z</time>
      </trkpt>
      <trkpt lat="40.245800" lon="-4.906300">
        <ele>1245.0</ele>
        <time>2018-09-16T12:23:30Z</time>
      </trkpt>
      <trkpt lat="40.245817" lon="-4.906433">
        <ele>1245.0</ele>
        <time>2018-09-16T12:23:31Z</time>
      </trkpt>
      <trkpt lat="40.245867" lon="-4.906567">
        <ele>1245.0</ele>
        <time>2018-09-16T12:23:32Z</time>
      </trkpt>
      <trkpt lat="40.245933" lon="-4.906683">
        <ele>1246.0</ele>
        <time>2018-09-16T12:23:33Z</time>
      </trkpt>
      <trkpt lat="40.246033" lon="-4.906767">
        <ele>1245.0</ele>
        <time>2018-09-16T12:23:34Z</time>
      </trkpt>
      <trkpt lat="40.246133" lon="-4.906817">
        <ele>1245.0</ele>
        <time>2018-09-16T12:23:35Z</time>
      </trkpt>
      <trkpt lat="40.246233" lon="-4.906800">
        <ele>1245.0</ele>
        <time>2018-09-16T12:23:36Z</time>
      </trkpt>
      <trkpt lat="40.246333" lon="-4.906750">
        <ele>1244.0</ele>
        <time>2018-09-16T12:23:37Z</time>
      </trkpt>
      <trkpt lat="40.246400" lon="-4.906667">
        <ele>1244.0</ele>
        <time>2018-09-16T12:23:38Z</time>
      </trkpt>
      <trkpt lat="40.246450" lon="-4.906550">
        <ele>1245.0</ele>
        <time>2018-09-16T12:23:39Z</time>
      </trkpt>
      <trkpt lat="40.246450" lon="-4.906433">
        <ele>1245.0</ele>
        <time>2018-09-16T12:23:40Z</time>
      </trkpt>
      <trkpt lat="40.246417" lon="-4.906333">
        <ele>1248.0</ele>
        <time>2018-09-16T12:23:41Z</time>
      </trkpt>
      <trkpt lat="40.246367" lon="-4.906267">
        <ele>1250.0</ele>
        <time>2018-09-16T12:23:42Z</time>
      </trkpt>
      <trkpt lat="40.246317" lon="-4.906217">
        <ele>1251.0</ele>
        <time>2018-09-16T12:23:43Z</time>
      </trkpt>
      <trkpt lat="40.246250" lon="-4.906200">
        <ele>1251.0</ele>
        <time>2018-09-16T12:23:44Z</time>
      </trkpt>
      <trkpt lat="40.246183" lon="-4.906183">
        <ele>1251.0</ele>
        <time>2018-09-16T12:23:45Z</time>
      </trkpt>
      <trkpt lat="40.246117" lon="-4.906183">
        <ele>1251.0</ele>
        <time>2018-09-16T12:23:46Z</time>
      </trkpt>
      <trkpt lat="40.246017" lon="-4.906183">
        <ele>1251.0</ele>
        <time>2018-09-16T12:23:47Z</time>
      </trkpt>
      <trkpt lat="40.245933" lon="-4.906217">
        <ele>1253.0</ele>
        <time>2018-09-16T12:23:48Z</time>
      </trkpt>
      <trkpt lat="40.245867" lon="-4.906267">
        <ele>1254.0</ele>
        <time>2018-09-16T12:23:49Z</time>
      </trkpt>
      <trkpt lat="40.245800" lon="-4.906317">
        <ele>1255.0</ele>
        <time>2018-09-16T12:23:50Z</time>
      </trkpt>
      <trkpt lat="40.245733" lon="-4.906367">
        <ele>1256.0</ele>
        <time>2018-09-16T12:23:51Z</time>
      </trkpt>
      <trkpt lat="40.245667" lon="-4.906417">
        <ele>1256.0</ele>
        <time>2018-09-16T12:23:52Z</time>
      </trkpt>
      <trkpt lat="40.245583" lon="-4.906483">
        <ele>1256.0</ele>
        <time>2018-09-16T12:23:53Z</time>
      </trkpt>
      <trkpt lat="40.245500" lon="-4.906533">
        <ele>1256.0</ele>
        <time>2018-09-16T12:23:54Z</time>
      </trkpt>
      <trkpt lat="40.245433" lon="-4.906600">
        <ele>1257.0</ele>
        <time>2018-09-16T12:23:55Z</time>
      </trkpt>
      <trkpt lat="40.245367" lon="-4.906667">
        <ele>1258.0</ele>
        <time>2018-09-16T12:23:56Z</time>
      </trkpt>
      <trkpt lat="40.245317" lon="-4.906733">
        <ele>1258.0</ele>
        <time>2018-09-16T12:23:57Z</time>
      </trkpt>
      <trkpt lat="40.245267" lon="-4.906817">
        <ele>1258.0</ele>
        <time>2018-09-16T12:23:58Z</time>
      </trkpt>
      <trkpt lat="40.245217" lon="-4.906900">
        <ele>1257.0</ele>
        <time>2018-09-16T12:23:59Z</time>
      </trkpt>
      <trkpt lat="40.245150" lon="-4.906983">
        <ele>1257.0</ele>
        <time>2018-09-16T12:24:00Z</time>
      </trkpt>
      <trkpt lat="40.245100" lon="-4.907083">
        <ele>1256.0</ele>
        <time>2018-09-16T12:24:01Z</time>
      </trkpt>
      <trkpt lat="40.245050" lon="-4.907167">
        <ele>1256.0</ele>
        <time>2018-09-16T12:24:02Z</time>
      </trkpt>
      <trkpt lat="40.245000" lon="-4.907267">
        <ele>1255.0</ele>
        <time>2018-09-16T12:24:03Z</time>
      </trkpt>
      <trkpt lat="40.244967" lon="-4.907383">
        <ele>1255.0</ele>
        <time>2018-09-16T12:24:04Z</time>
      </trkpt>
      <trkpt lat="40.244917" lon="-4.907500">
        <ele>1254.0</ele>
        <time>2018-09-16T12:24:05Z</time>
      </trkpt>
      <trkpt lat="40.244883" lon="-4.907617">
        <ele>1254.0</ele>
        <time>2018-09-16T12:24:06Z</time>
      </trkpt>
      <trkpt lat="40.244833" lon="-4.907717">
        <ele>1254.0</ele>
        <time>2018-09-16T12:24:07Z</time>
      </trkpt>
      <trkpt lat="40.244783" lon="-4.907817">
        <ele>1254.0</ele>
        <time>2018-09-16T12:24:08Z</time>
      </trkpt>
      <trkpt lat="40.244733" lon="-4.907933">
        <ele>1253.0</ele>
        <time>2018-09-16T12:24:09Z</time>
      </trkpt>
      <trkpt lat="40.244683" lon="-4.908067">
        <ele>1253.0</ele>
        <time>2018-09-16T12:24:10Z</time>
      </trkpt>
      <trkpt lat="40.244633" lon="-4.908183">
        <ele>1252.0</ele>
        <time>2018-09-16T12:24:11Z</time>
      </trkpt>
      <trkpt lat="40.244583" lon="-4.908283">
        <ele>1250.0</ele>
        <time>2018-09-16T12:24:12Z</time>
      </trkpt>
      <trkpt lat="40.244533" lon="-4.908400">
        <ele>1247.0</ele>
        <time>2018-09-16T12:24:13Z</time>
      </trkpt>
      <trkpt lat="40.244467" lon="-4.908500">
        <ele>1244.0</ele>
        <time>2018-09-16T12:24:14Z</time>
      </trkpt>
      <trkpt lat="40.244400" lon="-4.908600">
        <ele>1241.0</ele>
        <time>2018-09-16T12:24:15Z</time>
      </trkpt>
      <trkpt lat="40.244350" lon="-4.908717">
        <ele>1239.0</ele>
        <time>2018-09-16T12:24:16Z</time>
      </trkpt>
      <trkpt lat="40.244300" lon="-4.908817">
        <ele>1237.0</ele>
        <time>2018-09-16T12:24:17Z</time>
      </trkpt>
      <trkpt lat="40.244250" lon="-4.908917">
        <ele>1235.0</ele>
        <time>2018-09-16T12:24:18Z</time>
      </trkpt>
      <trkpt lat="40.244200" lon="-4.909017">
        <ele>1233.0</ele>
        <time>2018-09-16T12:24:19Z</time>
      </trkpt>
      <trkpt lat="40.244150" lon="-4.909117">
        <ele>1231.0</ele>
        <time>2018-09-16T12:24:20Z</time>
      </trkpt>
      <trkpt lat="40.244100" lon="-4.909233">
        <ele>1229.0</ele>
        <time>2018-09-16T12:24:21Z</time>
      </trkpt>
      <trkpt lat="40.244050" lon="-4.909333">
        <ele>1227.0</ele>
        <time>2018-09-16T12:24:22Z</time>
      </trkpt>
      <trkpt lat="40.244017" lon="-4.909433">
        <ele>1225.0</ele>
        <time>2018-09-16T12:24:23Z</time>
      </trkpt>
      <trkpt lat="40.243983" lon="-4.909517">
        <ele>1223.0</ele>
        <time>2018-09-16T12:24:24Z</time>
      </trkpt>
      <trkpt lat="40.243933" lon="-4.909617">
        <ele>1220.0</ele>
        <time>2018-09-16T12:24:25Z</time>
      </trkpt>
      <trkpt lat="40.243883" lon="-4.909733">
        <ele>1217.0</ele>
        <time>2018-09-16T12:24:26Z</time>
      </trkpt>
      <trkpt lat="40.243833" lon="-4.909850">
        <ele>1215.0</ele>
        <time>2018-09-16T12:24:27Z</time>
      </trkpt>
      <trkpt lat="40.243800" lon="-4.909950">
        <ele>1213.0</ele>
        <time>2018-09-16T12:24:28Z</time>
      </trkpt>
      <trkpt lat="40.243750" lon="-4.910033">
        <ele>1212.0</ele>
        <time>2018-09-16T12:24:29Z</time>
      </trkpt>
      <trkpt lat="40.243700" lon="-4.910133">
        <ele>1210.0</ele>
        <time>2018-09-16T12:24:30Z</time>
      </trkpt>
      <trkpt lat="40.243650" lon="-4.910217">
        <ele>1208.0</ele>
        <time>2018-09-16T12:24:31Z</time>
      </trkpt>
      <trkpt lat="40.243600" lon="-4.910300">
        <ele>1205.0</ele>
        <time>2018-09-16T12:24:32Z</time>
      </trkpt>
      <trkpt lat="40.243567" lon="-4.910383">
        <ele>1202.0</ele>
        <time>2018-09-16T12:24:33Z</time>
      </trkpt>
      <trkpt lat="40.243517" lon="-4.910483">
        <ele>1199.0</ele>
        <time>2018-09-16T12:24:34Z</time>
      </trkpt>
      <trkpt lat="40.243467" lon="-4.910583">
        <ele>1195.0</ele>
        <time>2018-09-16T12:24:35Z</time>
      </trkpt>
      <trkpt lat="40.243417" lon="-4.910683">
        <ele>1192.0</ele>
        <time>2018-09-16T12:24:36Z</time>
      </trkpt>
      <trkpt lat="40.243383" lon="-4.910783">
        <ele>1190.0</ele>
        <time>2018-09-16T12:24:37Z</time>
      </trkpt>
      <trkpt lat="40.243333" lon="-4.910883">
        <ele>1190.0</ele>
        <time>2018-09-16T12:24:38Z</time>
      </trkpt>
      <trkpt lat="40.243300" lon="-4.910967">
        <ele>1191.0</ele>
        <time>2018-09-16T12:24:39Z</time>
      </trkpt>
      <trkpt lat="40.243267" lon="-4.911033">
        <ele>1191.0</ele>
        <time>2018-09-16T12:24:40Z</time>
      </trkpt>
      <trkpt lat="40.243217" lon="-4.911083">
        <ele>1190.0</ele>
        <time>2018-09-16T12:24:41Z</time>
      </trkpt>
      <trkpt lat="40.243183" lon="-4.911167">
        <ele>1188.0</ele>
        <time>2018-09-16T12:24:42Z</time>
      </trkpt>
      <trkpt lat="40.243133" lon="-4.911250">
        <ele>1187.0</ele>
        <time>2018-09-16T12:24:43Z</time>
      </trkpt>
      <trkpt lat="40.243100" lon="-4.911350">
        <ele>1186.0</ele>
        <time>2018-09-16T12:24:44Z</time>
      </trkpt>
      <trkpt lat="40.243050" lon="-4.911450">
        <ele>1185.0</ele>
        <time>2018-09-16T12:24:45Z</time>
      </trkpt>
      <trkpt lat="40.243017" lon="-4.911533">
        <ele>1186.0</ele>
        <time>2018-09-16T12:24:46Z</time>
      </trkpt>
      <trkpt lat="40.242967" lon="-4.911600">
        <ele>1186.0</ele>
        <time>2018-09-16T12:24:47Z</time>
      </trkpt>
      <trkpt lat="40.242933" lon="-4.911683">
        <ele>1186.0</ele>
        <time>2018-09-16T12:24:48Z</time>
      </trkpt>
      <trkpt lat="40.242883" lon="-4.911750">
        <ele>1185.0</ele>
        <time>2018-09-16T12:24:49Z</time>
      </trkpt>
      <trkpt lat="40.242833" lon="-4.911833">
        <ele>1184.0</ele>
        <time>2018-09-16T12:24:50Z</time>
      </trkpt>
      <trkpt lat="40.242783" lon="-4.911883">
        <ele>1183.0</ele>
        <time>2018-09-16T12:24:51Z</time>
      </trkpt>
      <trkpt lat="40.242733" lon="-4.911950">
        <ele>1182.0</ele>
        <time>2018-09-16T12:24:52Z</time>
      </trkpt>
      <trkpt lat="40.242683" lon="-4.912033">
        <ele>1181.0</ele>
        <time>2018-09-16T12:24:53Z</time>
      </trkpt>
      <trkpt lat="40.242633" lon="-4.912100">
        <ele>1181.0</ele>
        <time>2018-09-16T12:24:54Z</time>
      </trkpt>
      <trkpt lat="40.242583" lon="-4.912150">
        <ele>1180.0</ele>
        <time>2018-09-16T12:24:55Z</time>
      </trkpt>
      <trkpt lat="40.242533" lon="-4.912217">
        <ele>1180.0</ele>
        <time>2018-09-16T12:24:56Z</time>
      </trkpt>
      <trkpt lat="40.242500" lon="-4.912283">
        <ele>1178.0</ele>
        <time>2018-09-16T12:24:57Z</time>
      </trkpt>
      <trkpt lat="40.242467" lon="-4.912367">
        <ele>1176.0</ele>
        <time>2018-09-16T12:24:58Z</time>
      </trkpt>
      <trkpt lat="40.242433" lon="-4.912467">
        <ele>1174.0</ele>
        <time>2018-09-16T12:24:59Z</time>
      </trkpt>
      <trkpt lat="40.242417" lon="-4.912583">
        <ele>1172.0</ele>
        <time>2018-09-16T12:25:00Z</time>
      </trkpt>
      <trkpt lat="40.242383" lon="-4.912700">
        <ele>1171.0</ele>
        <time>2018-09-16T12:25:01Z</time>
      </trkpt>
      <trkpt lat="40.242367" lon="-4.912817">
        <ele>1171.0</ele>
        <time>2018-09-16T12:25:02Z</time>
      </trkpt>
      <trkpt lat="40.242367" lon="-4.912933">
        <ele>1171.0</ele>
        <time>2018-09-16T12:25:03Z</time>
      </trkpt>
      <trkpt lat="40.242350" lon="-4.913033">
        <ele>1170.0</ele>
        <time>2018-09-16T12:25:04Z</time>
      </trkpt>
      <trkpt lat="40.242317" lon="-4.913150">
        <ele>1170.0</ele>
        <time>2018-09-16T12:25:05Z</time>
      </trkpt>
      <trkpt lat="40.242283" lon="-4.913250">
        <ele>1169.0</ele>
        <time>2018-09-16T12:25:06Z</time>
      </trkpt>
      <trkpt lat="40.242233" lon="-4.913350">
        <ele>1168.0</ele>
        <time>2018-09-16T12:25:07Z</time>
      </trkpt>
      <trkpt lat="40.242183" lon="-4.913433">
        <ele>1168.0</ele>
        <time>2018-09-16T12:25:08Z</time>
      </trkpt>
      <trkpt lat="40.242133" lon="-4.913517">
        <ele>1168.0</ele>
        <time>2018-09-16T12:25:09Z</time>
      </trkpt>
      <trkpt lat="40.242083" lon="-4.913600">
        <ele>1167.0</ele>
        <time>2018-09-16T12:25:10Z</time>
      </trkpt>
      <trkpt lat="40.242033" lon="-4.913683">
        <ele>1166.0</ele>
        <time>2018-09-16T12:25:11Z</time>
      </trkpt>
      <trkpt lat="40.241967" lon="-4.913767">
        <ele>1164.0</ele>
        <time>2018-09-16T12:25:12Z</time>
      </trkpt>
      <trkpt lat="40.241917" lon="-4.913850">
        <ele>1163.0</ele>
        <time>2018-09-16T12:25:13Z</time>
      </trkpt>
      <trkpt lat="40.241850" lon="-4.913950">
        <ele>1162.0</ele>
        <time>2018-09-16T12:25:14Z</time>
      </trkpt>
      <trkpt lat="40.241800" lon="-4.914033">
        <ele>1161.0</ele>
        <time>2018-09-16T12:25:15Z</time>
      </trkpt>
      <trkpt lat="40.241733" lon="-4.914133">
        <ele>1160.0</ele>
        <time>2018-09-16T12:25:16Z</time>
      </trkpt>
      <trkpt lat="40.241683" lon="-4.914217">
        <ele>1158.0</ele>
        <time>2018-09-16T12:25:17Z</time>
      </trkpt>
      <trkpt lat="40.241617" lon="-4.914300">
        <ele>1158.0</ele>
        <time>2018-09-16T12:25:18Z</time>
      </trkpt>
      <trkpt lat="40.241550" lon="-4.914383">
        <ele>1157.0</ele>
        <time>2018-09-16T12:25:19Z</time>
      </trkpt>
      <trkpt lat="40.241500" lon="-4.914483">
        <ele>1156.0</ele>
        <time>2018-09-16T12:25:20Z</time>
      </trkpt>
      <trkpt lat="40.241450" lon="-4.914583">
        <ele>1155.0</ele>
        <time>2018-09-16T12:25:21Z</time>
      </trkpt>
      <trkpt lat="40.241417" lon="-4.914700">
        <ele>1154.0</ele>
        <time>2018-09-16T12:25:22Z</time>
      </trkpt>
      <trkpt lat="40.241367" lon="-4.914800">
        <ele>1154.0</ele>
        <time>2018-09-16T12:25:23Z</time>
      </trkpt>
      <trkpt lat="40.241300" lon="-4.914883">
        <ele>1153.0</ele>
        <time>2018-09-16T12:25:24Z</time>
      </trkpt>
      <trkpt lat="40.241250" lon="-4.914967">
        <ele>1152.0</ele>
        <time>2018-09-16T12:25:25Z</time>
      </trkpt>
      <trkpt lat="40.241183" lon="-4.915050">
        <ele>1152.0</ele>
        <time>2018-09-16T12:25:26Z</time>
      </trkpt>
      <trkpt lat="40.241117" lon="-4.915150">
        <ele>1153.0</ele>
        <time>2018-09-16T12:25:27Z</time>
      </trkpt>
      <trkpt lat="40.241083" lon="-4.915250">
        <ele>1153.0</ele>
        <time>2018-09-16T12:25:28Z</time>
      </trkpt>
      <trkpt lat="40.241033" lon="-4.915333">
        <ele>1152.0</ele>
        <time>2018-09-16T12:25:29Z</time>
      </trkpt>
      <trkpt lat="40.241000" lon="-4.915417">
        <ele>1150.0</ele>
        <time>2018-09-16T12:25:30Z</time>
      </trkpt>
      <trkpt lat="40.240950" lon="-4.915517">
        <ele>1148.0</ele>
        <time>2018-09-16T12:25:31Z</time>
      </trkpt>
      <trkpt lat="40.240883" lon="-4.915600">
        <ele>1147.0</ele>
        <time>2018-09-16T12:25:32Z</time>
      </trkpt>
      <trkpt lat="40.240833" lon="-4.915700">
        <ele>1148.0</ele>
        <time>2018-09-16T12:25:33Z</time>
      </trkpt>
      <trkpt lat="40.240800" lon="-4.915783">
        <ele>1149.0</ele>
        <time>2018-09-16T12:25:34Z</time>
      </trkpt>
      <trkpt lat="40.240750" lon="-4.915867">
        <ele>1149.0</ele>
        <time>2018-09-16T12:25:35Z</time>
      </trkpt>
      <trkpt lat="40.240717" lon="-4.915950">
        <ele>1148.0</ele>
        <time>2018-09-16T12:25:36Z</time>
      </trkpt>
      <trkpt lat="40.240667" lon="-4.916017">
        <ele>1146.0</ele>
        <time>2018-09-16T12:25:37Z</time>
      </trkpt>
      <trkpt lat="40.240600" lon="-4.916100">
        <ele>1143.0</ele>
        <time>2018-09-16T12:25:38Z</time>
      </trkpt>
      <trkpt lat="40.240517" lon="-4.916167">
        <ele>1141.0</ele>
        <time>2018-09-16T12:25:39Z</time>
      </trkpt>
      <trkpt lat="40.240467" lon="-4.916250">
        <ele>1140.0</ele>
        <time>2018-09-16T12:25:40Z</time>
      </trkpt>
      <trkpt lat="40.240400" lon="-4.916333">
        <ele>1138.0</ele>
        <time>2018-09-16T12:25:41Z</time>
      </trkpt>
      <trkpt lat="40.240350" lon="-4.916417">
        <ele>1135.0</ele>
        <time>2018-09-16T12:25:42Z</time>
      </trkpt>
      <trkpt lat="40.240300" lon="-4.916483">
        <ele>1133.0</ele>
        <time>2018-09-16T12:25:43Z</time>
      </trkpt>
      <trkpt lat="40.240233" lon="-4.916567">
        <ele>1130.0</ele>
        <time>2018-09-16T12:25:44Z</time>
      </trkpt>
      <trkpt lat="40.240183" lon="-4.916667">
        <ele>1128.0</ele>
        <time>2018-09-16T12:25:45Z</time>
      </trkpt>
      <trkpt lat="40.240150" lon="-4.916750">
        <ele>1125.0</ele>
        <time>2018-09-16T12:25:46Z</time>
      </trkpt>
      <trkpt lat="40.240117" lon="-4.916833">
        <ele>1123.0</ele>
        <time>2018-09-16T12:25:47Z</time>
      </trkpt>
      <trkpt lat="40.240083" lon="-4.916917">
        <ele>1120.0</ele>
        <time>2018-09-16T12:25:48Z</time>
      </trkpt>
      <trkpt lat="40.240067" lon="-4.917000">
        <ele>1117.0</ele>
        <time>2018-09-16T12:25:49Z</time>
      </trkpt>
      <trkpt lat="40.240033" lon="-4.917100">
        <ele>1114.0</ele>
        <time>2018-09-16T12:25:50Z</time>
      </trkpt>
      <trkpt lat="40.240000" lon="-4.917200">
        <ele>1111.0</ele>
        <time>2018-09-16T12:25:51Z</time>
      </trkpt>
      <trkpt lat="40.239983" lon="-4.917317">
        <ele>1109.0</ele>
        <time>2018-09-16T12:25:52Z</time>
      </trkpt>
      <trkpt lat="40.239950" lon="-4.917417">
        <ele>1107.0</ele>
        <time>2018-09-16T12:25:53Z</time>
      </trkpt>
      <trkpt lat="40.239933" lon="-4.917533">
        <ele>1106.0</ele>
        <time>2018-09-16T12:25:54Z</time>
      </trkpt>
      <trkpt lat="40.239933" lon="-4.917633">
        <ele>1104.0</ele>
        <time>2018-09-16T12:25:55Z</time>
      </trkpt>
      <trkpt lat="40.239917" lon="-4.917733">
        <ele>1103.0</ele>
        <time>2018-09-16T12:25:56Z</time>
      </trkpt>
      <trkpt lat="40.239900" lon="-4.917833">
        <ele>1101.0</ele>
        <time>2018-09-16T12:25:57Z</time>
      </trkpt>
      <trkpt lat="40.239883" lon="-4.917950">
        <ele>1100.0</ele>
        <time>2018-09-16T12:25:58Z</time>
      </trkpt>
      <trkpt lat="40.239900" lon="-4.918050">
        <ele>1098.0</ele>
        <time>2018-09-16T12:25:59Z</time>
      </trkpt>
      <trkpt lat="40.239933" lon="-4.918167">
        <ele>1096.0</ele>
        <time>2018-09-16T12:26:00Z</time>
      </trkpt>
      <trkpt lat="40.240017" lon="-4.918250">
        <ele>1095.0</ele>
        <time>2018-09-16T12:26:01Z</time>
      </trkpt>
      <trkpt lat="40.240083" lon="-4.918300">
        <ele>1094.0</ele>
        <time>2018-09-16T12:26:02Z</time>
      </trkpt>
      <trkpt lat="40.240150" lon="-4.918350">
        <ele>1094.0</ele>
        <time>2018-09-16T12:26:03Z</time>
      </trkpt>
      <trkpt lat="40.240217" lon="-4.918383">
        <ele>1094.0</ele>
        <time>2018-09-16T12:26:04Z</time>
      </trkpt>
      <trkpt lat="40.240283" lon="-4.918400">
        <ele>1093.0</ele>
        <time>2018-09-16T12:26:05Z</time>
      </trkpt>
      <trkpt lat="40.240367" lon="-4.918433">
        <ele>1091.0</ele>
        <time>2018-09-16T12:26:06Z</time>
      </trkpt>
      <trkpt lat="40.240450" lon="-4.918450">
        <ele>1088.0</ele>
        <time>2018-09-16T12:26:07Z</time>
      </trkpt>
      <trkpt lat="40.240533" lon="-4.918467">
        <ele>1086.0</ele>
        <time>2018-09-16T12:26:08Z</time>
      </trkpt>
      <trkpt lat="40.240633" lon="-4.918467">
        <ele>1085.0</ele>
        <time>2018-09-16T12:26:09Z</time>
      </trkpt>
      <trkpt lat="40.240717" lon="-4.918467">
        <ele>1084.0</ele>
        <time>2018-09-16T12:26:10Z</time>
      </trkpt>
      <trkpt lat="40.240800" lon="-4.918467">
        <ele>1083.0</ele>
        <time>2018-09-16T12:26:11Z</time>
      </trkpt>
      <trkpt lat="40.240883" lon="-4.918467">
        <ele>1081.0</ele>
        <time>2018-09-16T12:26:12Z</time>
      </trkpt>
      <trkpt lat="40.240983" lon="-4.918450">
        <ele>1077.0</ele>
        <time>2018-09-16T12:26:13Z</time>
      </trkpt>
      <trkpt lat="40.241100" lon="-4.918433">
        <ele>1075.0</ele>
        <time>2018-09-16T12:26:14Z</time>
      </trkpt>
      <trkpt lat="40.241233" lon="-4.918433">
        <ele>1074.0</ele>
        <time>2018-09-16T12:26:15Z</time>
      </trkpt>
      <trkpt lat="40.241333" lon="-4.918417">
        <ele>1075.0</ele>
        <time>2018-09-16T12:26:16Z</time>
      </trkpt>
      <trkpt lat="40.241450" lon="-4.918400">
        <ele>1077.0</ele>
        <time>2018-09-16T12:26:17Z</time>
      </trkpt>
      <trkpt lat="40.241533" lon="-4.918383">
        <ele>1078.0</ele>
        <time>2018-09-16T12:26:18Z</time>
      </trkpt>
      <trkpt lat="40.241617" lon="-4.918383">
        <ele>1076.0</ele>
        <time>2018-09-16T12:26:19Z</time>
      </trkpt>
      <trkpt lat="40.241683" lon="-4.918383">
        <ele>1074.0</ele>
        <time>2018-09-16T12:26:20Z</time>
      </trkpt>
      <trkpt lat="40.241767" lon="-4.918400">
        <ele>1070.0</ele>
        <time>2018-09-16T12:26:21Z</time>
      </trkpt>
      <trkpt lat="40.241867" lon="-4.918417">
        <ele>1066.0</ele>
        <time>2018-09-16T12:26:22Z</time>
      </trkpt>
      <trkpt lat="40.241967" lon="-4.918450">
        <ele>1063.0</ele>
        <time>2018-09-16T12:26:23Z</time>
      </trkpt>
      <trkpt lat="40.242083" lon="-4.918483">
        <ele>1061.0</ele>
        <time>2018-09-16T12:26:24Z</time>
      </trkpt>
      <trkpt lat="40.242200" lon="-4.918500">
        <ele>1059.0</ele>
        <time>2018-09-16T12:26:25Z</time>
      </trkpt>
      <trkpt lat="40.242317" lon="-4.918533">
        <ele>1059.0</ele>
        <time>2018-09-16T12:26:26Z</time>
      </trkpt>
      <trkpt lat="40.242400" lon="-4.918567">
        <ele>1059.0</ele>
        <time>2018-09-16T12:26:27Z</time>
      </trkpt>
      <trkpt lat="40.242483" lon="-4.918617">
        <ele>1058.0</ele>
        <time>2018-09-16T12:26:28Z</time>
      </trkpt>
      <trkpt lat="40.242567" lon="-4.918650">
        <ele>1057.0</ele>
        <time>2018-09-16T12:26:29Z</time>
      </trkpt>
      <trkpt lat="40.242667" lon="-4.918717">
        <ele>1054.0</ele>
        <time>2018-09-16T12:26:30Z</time>
      </trkpt>
      <trkpt lat="40.242767" lon="-4.918767">
        <ele>1051.0</ele>
        <time>2018-09-16T12:26:31Z</time>
      </trkpt>
      <trkpt lat="40.242900" lon="-4.918850">
        <ele>1048.0</ele>
        <time>2018-09-16T12:26:32Z</time>
      </trkpt>
      <trkpt lat="40.243033" lon="-4.918917">
        <ele>1048.0</ele>
        <time>2018-09-16T12:26:33Z</time>
      </trkpt>
      <trkpt lat="40.243150" lon="-4.918967">
        <ele>1049.0</ele>
        <time>2018-09-16T12:26:34Z</time>
      </trkpt>
      <trkpt lat="40.243267" lon="-4.919033">
        <ele>1052.0</ele>
        <time>2018-09-16T12:26:35Z</time>
      </trkpt>
      <trkpt lat="40.243367" lon="-4.919083">
        <ele>1054.0</ele>
        <time>2018-09-16T12:26:36Z</time>
      </trkpt>
      <trkpt lat="40.243450" lon="-4.919133">
        <ele>1056.0</ele>
        <time>2018-09-16T12:26:37Z</time>
      </trkpt>
      <trkpt lat="40.243533" lon="-4.919183">
        <ele>1057.0</ele>
        <time>2018-09-16T12:26:38Z</time>
      </trkpt>
      <trkpt lat="40.243633" lon="-4.919233">
        <ele>1057.0</ele>
        <time>2018-09-16T12:26:39Z</time>
      </trkpt>
      <trkpt lat="40.243733" lon="-4.919267">
        <ele>1058.0</ele>
        <time>2018-09-16T12:26:40Z</time>
      </trkpt>
      <trkpt lat="40.243833" lon="-4.919317">
        <ele>1059.0</ele>
        <time>2018-09-16T12:26:41Z</time>
      </trkpt>
      <trkpt lat="40.243933" lon="-4.919367">
        <ele>1060.0</ele>
        <time>2018-09-16T12:26:42Z</time>
      </trkpt>
      <trkpt lat="40.244033" lon="-4.919417">
        <ele>1061.0</ele>
        <time>2018-09-16T12:26:43Z</time>
      </trkpt>
      <trkpt lat="40.244117" lon="-4.919450">
        <ele>1061.0</ele>
        <time>2018-09-16T12:26:44Z</time>
      </trkpt>
      <trkpt lat="40.244233" lon="-4.919500">
        <ele>1061.0</ele>
        <time>2018-09-16T12:26:45Z</time>
      </trkpt>
      <trkpt lat="40.244333" lon="-4.919583">
        <ele>1061.0</ele>
        <time>2018-09-16T12:26:46Z</time>
      </trkpt>
      <trkpt lat="40.244417" lon="-4.919650">
        <ele>1061.0</ele>
        <time>2018-09-16T12:26:47Z</time>
      </trkpt>
      <trkpt lat="40.244500" lon="-4.919717">
        <ele>1062.0</ele>
        <time>2018-09-16T12:26:48Z</time>
      </trkpt>
      <trkpt lat="40.244583" lon="-4.919800">
        <ele>1063.0</ele>
        <time>2018-09-16T12:26:49Z</time>
      </trkpt>
      <trkpt lat="40.244667" lon="-4.919867">
        <ele>1063.0</ele>
        <time>2018-09-16T12:26:50Z</time>
      </trkpt>
      <trkpt lat="40.244767" lon="-4.919950">
        <ele>1064.0</ele>
        <time>2018-09-16T12:26:51Z</time>
      </trkpt>
      <trkpt lat="40.244867" lon="-4.920033">
        <ele>1064.0</ele>
        <time>2018-09-16T12:26:52Z</time>
      </trkpt>
      <trkpt lat="40.244967" lon="-4.920117">
        <ele>1065.0</ele>
        <time>2018-09-16T12:26:53Z</time>
      </trkpt>
      <trkpt lat="40.245067" lon="-4.920167">
        <ele>1066.0</ele>
        <time>2018-09-16T12:26:54Z</time>
      </trkpt>
      <trkpt lat="40.245167" lon="-4.920200">
        <ele>1067.0</ele>
        <time>2018-09-16T12:26:55Z</time>
      </trkpt>
      <trkpt lat="40.245250" lon="-4.920217">
        <ele>1068.0</ele>
        <time>2018-09-16T12:26:56Z</time>
      </trkpt>
      <trkpt lat="40.245333" lon="-4.920200">
        <ele>1068.0</ele>
        <time>2018-09-16T12:26:57Z</time>
      </trkpt>
      <trkpt lat="40.245433" lon="-4.920183">
        <ele>1067.0</ele>
        <time>2018-09-16T12:26:58Z</time>
      </trkpt>
      <trkpt lat="40.245517" lon="-4.920133">
        <ele>1068.0</ele>
        <time>2018-09-16T12:26:59Z</time>
      </trkpt>
      <trkpt lat="40.245600" lon="-4.920050">
        <ele>1070.0</ele>
        <time>2018-09-16T12:27:00Z</time>
      </trkpt>
      <trkpt lat="40.245667" lon="-4.919950">
        <ele>1072.0</ele>
        <time>2018-09-16T12:27:01Z</time>
      </trkpt>
      <trkpt lat="40.245717" lon="-4.919850">
        <ele>1074.0</ele>
        <time>2018-09-16T12:27:02Z</time>
      </trkpt>
      <trkpt lat="40.245767" lon="-4.919733">
        <ele>1075.0</ele>
        <time>2018-09-16T12:27:03Z</time>
      </trkpt>
      <trkpt lat="40.245800" lon="-4.919633">
        <ele>1076.0</ele>
        <time>2018-09-16T12:27:04Z</time>
      </trkpt>
      <trkpt lat="40.245850" lon="-4.919533">
        <ele>1077.0</ele>
        <time>2018-09-16T12:27:05Z</time>
      </trkpt>
      <trkpt lat="40.245867" lon="-4.919417">
        <ele>1076.0</ele>
        <time>2018-09-16T12:27:06Z</time>
      </trkpt>
      <trkpt lat="40.245850" lon="-4.919300">
        <ele>1075.0</ele>
        <time>2018-09-16T12:27:07Z</time>
      </trkpt>
      <trkpt lat="40.245800" lon="-4.919217">
        <ele>1074.0</ele>
        <time>2018-09-16T12:27:08Z</time>
      </trkpt>
      <trkpt lat="40.245750" lon="-4.919167">
        <ele>1073.0</ele>
        <time>2018-09-16T12:27:09Z</time>
      </trkpt>
      <trkpt lat="40.245683" lon="-4.919150">
        <ele>1072.0</ele>
        <time>2018-09-16T12:27:10Z</time>
      </trkpt>
      <trkpt lat="40.245617" lon="-4.919167">
        <ele>1072.0</ele>
        <time>2018-09-16T12:27:11Z</time>
      </trkpt>
      <trkpt lat="40.245550" lon="-4.919217">
        <ele>1073.0</ele>
        <time>2018-09-16T12:27:12Z</time>
      </trkpt>
      <trkpt lat="40.245483" lon="-4.919300">
        <ele>1073.0</ele>
        <time>2018-09-16T12:27:13Z</time>
      </trkpt>
      <trkpt lat="40.245450" lon="-4.919400">
        <ele>1073.0</ele>
        <time>2018-09-16T12:27:14Z</time>
      </trkpt>
      <trkpt lat="40.245433" lon="-4.919533">
        <ele>1074.0</ele>
        <time>2018-09-16T12:27:15Z</time>
      </trkpt>
      <trkpt lat="40.245433" lon="-4.919667">
        <ele>1073.0</ele>
        <time>2018-09-16T12:27:16Z</time>
      </trkpt>
      <trkpt lat="40.245467" lon="-4.919783">
        <ele>1073.0</ele>
        <time>2018-09-16T12:27:17Z</time>
      </trkpt>
      <trkpt lat="40.245517" lon="-4.919900">
        <ele>1073.0</ele>
        <time>2018-09-16T12:27:18Z</time>
      </trkpt>
      <trkpt lat="40.245600" lon="-4.919983">
        <ele>1072.0</ele>
        <time>2018-09-16T12:27:19Z</time>
      </trkpt>
      <trkpt lat="40.245683" lon="-4.920050">
        <ele>1071.0</ele>
        <time>2018-09-16T12:27:20Z</time>
      </trkpt>
      <trkpt lat="40.245783" lon="-4.920117">
        <ele>1070.0</ele>
        <time>2018-09-16T12:27:21Z</time>
      </trkpt>
      <trkpt lat="40.245883" lon="-4.920133">
        <ele>1069.0</ele>
        <time>2018-09-16T12:27:22Z</time>
      </trkpt>
      <trkpt lat="40.245983" lon="-4.920150">
        <ele>1068.0</ele>
        <time>2018-09-16T12:27:23Z</time>
      </trkpt>
      <trkpt lat="40.246083" lon="-4.920117">
        <ele>1068.0</ele>
        <time>2018-09-16T12:27:24Z</time>
      </trkpt>
      <trkpt lat="40.246183" lon="-4.920067">
        <ele>1069.0</ele>
        <time>2018-09-16T12:27:25Z</time>
      </trkpt>
      <trkpt lat="40.246267" lon="-4.920000">
        <ele>1070.0</ele>
        <time>2018-09-16T12:27:26Z</time>
      </trkpt>
      <trkpt lat="40.246317" lon="-4.919900">
        <ele>1071.0</ele>
        <time>2018-09-16T12:27:27Z</time>
      </trkpt>
      <trkpt lat="40.246367" lon="-4.919800">
        <ele>1072.0</ele>
        <time>2018-09-16T12:27:28Z</time>
      </trkpt>
      <trkpt lat="40.246417" lon="-4.919733">
        <ele>1073.0</ele>
        <time>2018-09-16T12:27:29Z</time>
      </trkpt>
      <trkpt lat="40.246467" lon="-4.919667">
        <ele>1073.0</ele>
        <time>2018-09-16T12:27:30Z</time>
      </trkpt>
      <trkpt lat="40.246533" lon="-4.919600">
        <ele>1072.0</ele>
        <time>2018-09-16T12:27:31Z</time>
      </trkpt>
      <trkpt lat="40.246600" lon="-4.919533">
        <ele>1071.0</ele>
        <time>2018-09-16T12:27:32Z</time>
      </trkpt>
      <trkpt lat="40.246683" lon="-4.919450">
        <ele>1070.0</ele>
        <time>2018-09-16T12:27:33Z</time>
      </trkpt>
      <trkpt lat="40.246767" lon="-4.919383">
        <ele>1069.0</ele>
        <time>2018-09-16T12:27:34Z</time>
      </trkpt>
      <trkpt lat="40.246833" lon="-4.919317">
        <ele>1069.0</ele>
        <time>2018-09-16T12:27:35Z</time>
      </trkpt>
      <trkpt lat="40.246900" lon="-4.919267">
        <ele>1069.0</ele>
        <time>2018-09-16T12:27:36Z</time>
      </trkpt>
      <trkpt lat="40.246950" lon="-4.919200">
        <ele>1068.0</ele>
        <time>2018-09-16T12:27:37Z</time>
      </trkpt>
      <trkpt lat="40.246983" lon="-4.919117">
        <ele>1065.0</ele>
        <time>2018-09-16T12:27:38Z</time>
      </trkpt>
      <trkpt lat="40.247000" lon="-4.919017">
        <ele>1062.0</ele>
        <time>2018-09-16T12:27:39Z</time>
      </trkpt>
      <trkpt lat="40.246983" lon="-4.918900">
        <ele>1059.0</ele>
        <time>2018-09-16T12:27:40Z</time>
      </trkpt>
      <trkpt lat="40.246950" lon="-4.918800">
        <ele>1057.0</ele>
        <time>2018-09-16T12:27:41Z</time>
      </trkpt>
      <trkpt lat="40.246900" lon="-4.918700">
        <ele>1055.0</ele>
        <time>2018-09-16T12:27:42Z</time>
      </trkpt>
      <trkpt lat="40.246850" lon="-4.918617">
        <ele>1054.0</ele>
        <time>2018-09-16T12:27:43Z</time>
      </trkpt>
      <trkpt lat="40.246800" lon="-4.918550">
        <ele>1053.0</ele>
        <time>2018-09-16T12:27:44Z</time>
      </trkpt>
      <trkpt lat="40.246750" lon="-4.918467">
        <ele>1053.0</ele>
        <time>2018-09-16T12:27:45Z</time>
      </trkpt>
      <trkpt lat="40.246717" lon="-4.918383">
        <ele>1054.0</ele>
        <time>2018-09-16T12:27:46Z</time>
      </trkpt>
      <trkpt lat="40.246700" lon="-4.918300">
        <ele>1056.0</ele>
        <time>2018-09-16T12:27:47Z</time>
      </trkpt>
      <trkpt lat="40.246667" lon="-4.918217">
        <ele>1057.0</ele>
        <time>2018-09-16T12:27:48Z</time>
      </trkpt>
      <trkpt lat="40.246650" lon="-4.918133">
        <ele>1059.0</ele>
        <time>2018-09-16T12:27:49Z</time>
      </trkpt>
      <trkpt lat="40.246650" lon="-4.918050">
        <ele>1060.0</ele>
        <time>2018-09-16T12:27:50Z</time>
      </trkpt>
      <trkpt lat="40.246650" lon="-4.917950">
        <ele>1061.0</ele>
        <time>2018-09-16T12:27:51Z</time>
      </trkpt>
      <trkpt lat="40.246667" lon="-4.917850">
        <ele>1062.0</ele>
        <time>2018-09-16T12:27:52Z</time>
      </trkpt>
      <trkpt lat="40.246733" lon="-4.917750">
        <ele>1062.0</ele>
        <time>2018-09-16T12:27:53Z</time>
      </trkpt>
      <trkpt lat="40.246800" lon="-4.917667">
        <ele>1062.0</ele>
        <time>2018-09-16T12:27:54Z</time>
      </trkpt>
      <trkpt lat="40.246900" lon="-4.917617">
        <ele>1063.0</ele>
        <time>2018-09-16T12:27:55Z</time>
      </trkpt>
      <trkpt lat="40.246983" lon="-4.917617">
        <ele>1063.0</ele>
        <time>2018-09-16T12:27:56Z</time>
      </trkpt>
      <trkpt lat="40.247083" lon="-4.917617">
        <ele>1063.0</ele>
        <time>2018-09-16T12:27:57Z</time>
      </trkpt>
      <trkpt lat="40.247167" lon="-4.917600">
        <ele>1062.0</ele>
        <time>2018-09-16T12:27:58Z</time>
      </trkpt>
      <trkpt lat="40.247250" lon="-4.917567">
        <ele>1061.0</ele>
        <time>2018-09-16T12:27:59Z</time>
      </trkpt>
      <trkpt lat="40.247333" lon="-4.917500">
        <ele>1060.0</ele>
        <time>2018-09-16T12:28:00Z</time>
      </trkpt>
      <trkpt lat="40.247383" lon="-4.917400">
        <ele>1058.0</ele>
        <time>2018-09-16T12:28:01Z</time>
      </trkpt>
      <trkpt lat="40.247417" lon="-4.917283">
        <ele>1058.0</ele>
        <time>2018-09-16T12:28:02Z</time>
      </trkpt>
      <trkpt lat="40.247400" lon="-4.917150">
        <ele>1057.0</ele>
        <time>2018-09-16T12:28:03Z</time>
      </trkpt>
      <trkpt lat="40.247350" lon="-4.917050">
        <ele>1056.0</ele>
        <time>2018-09-16T12:28:04Z</time>
      </trkpt>
      <trkpt lat="40.247283" lon="-4.917000">
        <ele>1056.0</ele>
        <time>2018-09-16T12:28:05Z</time>
      </trkpt>
      <trkpt lat="40.247217" lon="-4.916983">
        <ele>1056.0</ele>
        <time>2018-09-16T12:28:06Z</time>
      </trkpt>
      <trkpt lat="40.247117" lon="-4.916967">
        <ele>1057.0</ele>
        <time>2018-09-16T12:28:07Z</time>
      </trkpt>
      <trkpt lat="40.247050" lon="-4.916967">
        <ele>1058.0</ele>
        <time>2018-09-16T12:28:08Z</time>
      </trkpt>
      <trkpt lat="40.246983" lon="-4.916950">
        <ele>1060.0</ele>
        <time>2018-09-16T12:28:09Z</time>
      </trkpt>
      <trkpt lat="40.246917" lon="-4.916917">
        <ele>1062.0</ele>
        <time>2018-09-16T12:28:10Z</time>
      </trkpt>
      <trkpt lat="40.246867" lon="-4.916883">
        <ele>1063.0</ele>
        <time>2018-09-16T12:28:11Z</time>
      </trkpt>
      <trkpt lat="40.246817" lon="-4.916867">
        <ele>1064.0</ele>
        <time>2018-09-16T12:28:12Z</time>
      </trkpt>
      <trkpt lat="40.246733" lon="-4.916900">
        <ele>1065.0</ele>
        <time>2018-09-16T12:28:13Z</time>
      </trkpt>
      <trkpt lat="40.246667" lon="-4.916967">
        <ele>1066.0</ele>
        <time>2018-09-16T12:28:14Z</time>
      </trkpt>
      <trkpt lat="40.246617" lon="-4.917067">
        <ele>1068.0</ele>
        <time>2018-09-16T12:28:15Z</time>
      </trkpt>
      <trkpt lat="40.246600" lon="-4.917167">
        <ele>1071.0</ele>
        <time>2018-09-16T12:28:16Z</time>
      </trkpt>
      <trkpt lat="40.246600" lon="-4.917267">
        <ele>1072.0</ele>
        <time>2018-09-16T12:28:17Z</time>
      </trkpt>
      <trkpt lat="40.246617" lon="-4.917350">
        <ele>1074.0</ele>
        <time>2018-09-16T12:28:18Z</time>
      </trkpt>
      <trkpt lat="40.246667" lon="-4.917450">
        <ele>1074.0</ele>
        <time>2018-09-16T12:28:19Z</time>
      </trkpt>
      <trkpt lat="40.246733" lon="-4.917550">
        <ele>1073.0</ele>
        <time>2018-09-16T12:28:20Z</time>
      </trkpt>
      <trkpt lat="40.246817" lon="-4.917633">
        <ele>1073.0</ele>
        <time>2018-09-16T12:28:21Z</time>
      </trkpt>
      <trkpt lat="40.246917" lon="-4.917700">
        <ele>1074.0</ele>
        <time>2018-09-16T12:28:22Z</time>
      </trkpt>
      <trkpt lat="40.247017" lon="-4.917750">
        <ele>1075.0</ele>
        <time>2018-09-16T12:28:23Z</time>
      </trkpt>
      <trkpt lat="40.247100" lon="-4.917750">
        <ele>1074.0</ele>
        <time>2018-09-16T12:28:24Z</time>
      </trkpt>
      <trkpt lat="40.247183" lon="-4.917700">
        <ele>1073.0</ele>
        <time>2018-09-16T12:28:25Z</time>
      </trkpt>
      <trkpt lat="40.247250" lon="-4.917633">
        <ele>1072.0</ele>
        <time>2018-09-16T12:28:26Z</time>
      </trkpt>
      <trkpt lat="40.247300" lon="-4.917550">
        <ele>1071.0</ele>
        <time>2018-09-16T12:28:27Z</time>
      </trkpt>
      <trkpt lat="40.247317" lon="-4.917450">
        <ele>1071.0</ele>
        <time>2018-09-16T12:28:28Z</time>
      </trkpt>
      <trkpt lat="40.247300" lon="-4.917350">
        <ele>1072.0</ele>
        <time>2018-09-16T12:28:29Z</time>
      </trkpt>
      <trkpt lat="40.247267" lon="-4.917283">
        <ele>1073.0</ele>
        <time>2018-09-16T12:28:30Z</time>
      </trkpt>
      <trkpt lat="40.247217" lon="-4.917217">
        <ele>1075.0</ele>
        <time>2018-09-16T12:28:31Z</time>
      </trkpt>
      <trkpt lat="40.247183" lon="-4.917167">
        <ele>1078.0</ele>
        <time>2018-09-16T12:28:32Z</time>
      </trkpt>
      <trkpt lat="40.247150" lon="-4.917117">
        <ele>1080.0</ele>
        <time>2018-09-16T12:28:33Z</time>
      </trkpt>
      <trkpt lat="40.247150" lon="-4.917050">
        <ele>1081.0</ele>
        <time>2018-09-16T12:28:34Z</time>
      </trkpt>
      <trkpt lat="40.247133" lon="-4.916983">
        <ele>1082.0</ele>
        <time>2018-09-16T12:28:35Z</time>
      </trkpt>
      <trkpt lat="40.247100" lon="-4.916917">
        <ele>1083.0</ele>
        <time>2018-09-16T12:28:36Z</time>
      </trkpt>
      <trkpt lat="40.247067" lon="-4.916867">
        <ele>1084.0</ele>
        <time>2018-09-16T12:28:37Z</time>
      </trkpt>
      <trkpt lat="40.247017" lon="-4.916817">
        <ele>1084.0</ele>
        <time>2018-09-16T12:28:38Z</time>
      </trkpt>
      <trkpt lat="40.246967" lon="-4.916800">
        <ele>1085.0</ele>
        <time>2018-09-16T12:28:39Z</time>
      </trkpt>
      <trkpt lat="40.246917" lon="-4.916817">
        <ele>1085.0</ele>
        <time>2018-09-16T12:28:40Z</time>
      </trkpt>
      <trkpt lat="40.246850" lon="-4.916833">
        <ele>1086.0</ele>
        <time>2018-09-16T12:28:41Z</time>
      </trkpt>
      <trkpt lat="40.246783" lon="-4.916867">
        <ele>1088.0</ele>
        <time>2018-09-16T12:28:42Z</time>
      </trkpt>
      <trkpt lat="40.246733" lon="-4.916917">
        <ele>1090.0</ele>
        <time>2018-09-16T12:28:43Z</time>
      </trkpt>
      <trkpt lat="40.246700" lon="-4.916967">
        <ele>1092.0</ele>
        <time>2018-09-16T12:28:44Z</time>
      </trkpt>
      <trkpt lat="40.246683" lon="-4.917067">
        <ele>1093.0</ele>
        <time>2018-09-16T12:28:45Z</time>
      </trkpt>
      <trkpt lat="40.246683" lon="-4.917167">
        <ele>1092.0</ele>
        <time>2018-09-16T12:28:46Z</time>
      </trkpt>
      <trkpt lat="40.246683" lon="-4.917300">
        <ele>1092.0</ele>
        <time>2018-09-16T12:28:47Z</time>
      </trkpt>
      <trkpt lat="40.246733" lon="-4.917433">
        <ele>1094.0</ele>
        <time>2018-09-16T12:28:48Z</time>
      </trkpt>
      <trkpt lat="40.246800" lon="-4.917533">
        <ele>1096.0</ele>
        <time>2018-09-16T12:28:49Z</time>
      </trkpt>
      <trkpt lat="40.246867" lon="-4.917617">
        <ele>1099.0</ele>
        <time>2018-09-16T12:28:50Z</time>
      </trkpt>
      <trkpt lat="40.246967" lon="-4.917667">
        <ele>1100.0</ele>
        <time>2018-09-16T12:28:51Z</time>
      </trkpt>
      <trkpt lat="40.247067" lon="-4.917683">
        <ele>1101.0</ele>
        <time>2018-09-16T12:28:52Z</time>
      </trkpt>
      <trkpt lat="40.247183" lon="-4.917667">
        <ele>1102.0</ele>
        <time>2018-09-16T12:28:53Z</time>
      </trkpt>
      <trkpt lat="40.247283" lon="-4.917617">
        <ele>1103.0</ele>
        <time>2018-09-16T12:28:54Z</time>
      </trkpt>
      <trkpt lat="40.247383" lon="-4.917533">
        <ele>1105.0</ele>
        <time>2018-09-16T12:28:55Z</time>
      </trkpt>
      <trkpt lat="40.247450" lon="-4.917433">
        <ele>1107.0</ele>
        <time>2018-09-16T12:28:56Z</time>
      </trkpt>
      <trkpt lat="40.247500" lon="-4.917333">
        <ele>1109.0</ele>
        <time>2018-09-16T12:28:57Z</time>
      </trkpt>
      <trkpt lat="40.247533" lon="-4.917217">
        <ele>1111.0</ele>
        <time>2018-09-16T12:28:58Z</time>
      </trkpt>
      <trkpt lat="40.247533" lon="-4.917117">
        <ele>1113.0</ele>
        <time>2018-09-16T12:28:59Z</time>
      </trkpt>
      <trkpt lat="40.247517" lon="-4.917033">
        <ele>1114.0</ele>
        <time>2018-09-16T12:29:00Z</time>
      </trkpt>
      <trkpt lat="40.247483" lon="-4.916983">
        <ele>1115.0</ele>
        <time>2018-09-16T12:29:01Z</time>
      </trkpt>
      <trkpt lat="40.247450" lon="-4.916933">
        <ele>1116.0</ele>
        <time>2018-09-16T12:29:02Z</time>
      </trkpt>
      <trkpt lat="40.247417" lon="-4.916900">
        <ele>1116.0</ele>
        <time>2018-09-16T12:29:03Z</time>
      </trkpt>
      <trkpt lat="40.247367" lon="-4.916900">
        <ele>1116.0</ele>
        <time>2018-09-16T12:29:04Z</time>
      </trkpt>
      <trkpt lat="40.247317" lon="-4.916933">
        <ele>1115.0</ele>
        <time>2018-09-16T12:29:05Z</time>
      </trkpt>
      <trkpt lat="40.247267" lon="-4.917000">
        <ele>1113.0</ele>
        <time>2018-09-16T12:29:06Z</time>
      </trkpt>
      <trkpt lat="40.247217" lon="-4.917100">
        <ele>1113.0</ele>
        <time>2018-09-16T12:29:07Z</time>
      </trkpt>
      <trkpt lat="40.247183" lon="-4.917217">
        <ele>1114.0</ele>
        <time>2018-09-16T12:29:08Z</time>
      </trkpt>
      <trkpt lat="40.247183" lon="-4.917333">
        <ele>1115.0</ele>
        <time>2018-09-16T12:29:09Z</time>
      </trkpt>
      <trkpt lat="40.247183" lon="-4.917467">
        <ele>1116.0</ele>
        <time>2018-09-16T12:29:10Z</time>
      </trkpt>
      <trkpt lat="40.247217" lon="-4.917583">
        <ele>1117.0</ele>
        <time>2018-09-16T12:29:11Z</time>
      </trkpt>
      <trkpt lat="40.247267" lon="-4.917700">
        <ele>1119.0</ele>
        <time>2018-09-16T12:29:12Z</time>
      </trkpt>
      <trkpt lat="40.247333" lon="-4.917817">
        <ele>1121.0</ele>
        <time>2018-09-16T12:29:13Z</time>
      </trkpt>
      <trkpt lat="40.247400" lon="-4.917900">
        <ele>1123.0</ele>
        <time>2018-09-16T12:29:14Z</time>
      </trkpt>
      <trkpt lat="40.247483" lon="-4.917950">
        <ele>1125.0</ele>
        <time>2018-09-16T12:29:15Z</time>
      </trkpt>
      <trkpt lat="40.247583" lon="-4.918000">
        <ele>1127.0</ele>
        <time>2018-09-16T12:29:16Z</time>
      </trkpt>
      <trkpt lat="40.247667" lon="-4.918033">
        <ele>1127.0</ele>
        <time>2018-09-16T12:29:17Z</time>
      </trkpt>
      <trkpt lat="40.247783" lon="-4.918050">
        <ele>1128.0</ele>
        <time>2018-09-16T12:29:18Z</time>
      </trkpt>
      <trkpt lat="40.247900" lon="-4.918050">
        <ele>1129.0</ele>
        <time>2018-09-16T12:29:19Z</time>
      </trkpt>
      <trkpt lat="40.248000" lon="-4.918017">
        <ele>1130.0</ele>
        <time>2018-09-16T12:29:20Z</time>
      </trkpt>
      <trkpt lat="40.248100" lon="-4.917950">
        <ele>1132.0</ele>
        <time>2018-09-16T12:29:21Z</time>
      </trkpt>
      <trkpt lat="40.248200" lon="-4.917883">
        <ele>1134.0</ele>
        <time>2018-09-16T12:29:22Z</time>
      </trkpt>
      <trkpt lat="40.248317" lon="-4.917833">
        <ele>1136.0</ele>
        <time>2018-09-16T12:29:23Z</time>
      </trkpt>
      <trkpt lat="40.248417" lon="-4.917767">
        <ele>1138.0</ele>
        <time>2018-09-16T12:29:24Z</time>
      </trkpt>
      <trkpt lat="40.248517" lon="-4.917700">
        <ele>1142.0</ele>
        <time>2018-09-16T12:29:25Z</time>
      </trkpt>
      <trkpt lat="40.248583" lon="-4.917633">
        <ele>1145.0</ele>
        <time>2018-09-16T12:29:26Z</time>
      </trkpt>
      <trkpt lat="40.248650" lon="-4.917583">
        <ele>1146.0</ele>
        <time>2018-09-16T12:29:27Z</time>
      </trkpt>
      <trkpt lat="40.248683" lon="-4.917517">
        <ele>1146.0</ele>
        <time>2018-09-16T12:29:28Z</time>
      </trkpt>
      <trkpt lat="40.248700" lon="-4.917433">
        <ele>1145.0</ele>
        <time>2018-09-16T12:29:29Z</time>
      </trkpt>
      <trkpt lat="40.248717" lon="-4.917317">
        <ele>1144.0</ele>
        <time>2018-09-16T12:29:30Z</time>
      </trkpt>
      <trkpt lat="40.248700" lon="-4.917200">
        <ele>1144.0</ele>
        <time>2018-09-16T12:29:31Z</time>
      </trkpt>
      <trkpt lat="40.248650" lon="-4.917117">
        <ele>1144.0</ele>
        <time>2018-09-16T12:29:32Z</time>
      </trkpt>
      <trkpt lat="40.248567" lon="-4.917067">
        <ele>1144.0</ele>
        <time>2018-09-16T12:29:33Z</time>
      </trkpt>
      <trkpt lat="40.248483" lon="-4.917083">
        <ele>1144.0</ele>
        <time>2018-09-16T12:29:34Z</time>
      </trkpt>
      <trkpt lat="40.248417" lon="-4.917150">
        <ele>1144.0</ele>
        <time>2018-09-16T12:29:35Z</time>
      </trkpt>
      <trkpt lat="40.248367" lon="-4.917233">
        <ele>1145.0</ele>
        <time>2018-09-16T12:29:36Z</time>
      </trkpt>
      <trkpt lat="40.248350" lon="-4.917333">
        <ele>1145.0</ele>
        <time>2018-09-16T12:29:37Z</time>
      </trkpt>
      <trkpt lat="40.248333" lon="-4.917450">
        <ele>1145.0</ele>
        <time>2018-09-16T12:29:38Z</time>
      </trkpt>
      <trkpt lat="40.248333" lon="-4.917583">
        <ele>1144.0</ele>
        <time>2018-09-16T12:29:39Z</time>
      </trkpt>
      <trkpt lat="40.248367" lon="-4.917717">
        <ele>1144.0</ele>
        <time>2018-09-16T12:29:40Z</time>
      </trkpt>
      <trkpt lat="40.248417" lon="-4.917850">
        <ele>1144.0</ele>
        <time>2018-09-16T12:29:41Z</time>
      </trkpt>
      <trkpt lat="40.248500" lon="-4.917967">
        <ele>1146.0</ele>
        <time>2018-09-16T12:29:42Z</time>
      </trkpt>
      <trkpt lat="40.248600" lon="-4.918067">
        <ele>1149.0</ele>
        <time>2018-09-16T12:29:43Z</time>
      </trkpt>
      <trkpt lat="40.248700" lon="-4.918133">
        <ele>1152.0</ele>
        <time>2018-09-16T12:29:44Z</time>
      </trkpt>
      <trkpt lat="40.248800" lon="-4.918183">
        <ele>1156.0</ele>
        <time>2018-09-16T12:29:45Z</time>
      </trkpt>
      <trkpt lat="40.248900" lon="-4.918233">
        <ele>1160.0</ele>
        <time>2018-09-16T12:29:46Z</time>
      </trkpt>
      <trkpt lat="40.248983" lon="-4.918283">
        <ele>1162.0</ele>
        <time>2018-09-16T12:29:47Z</time>
      </trkpt>
      <trkpt lat="40.249067" lon="-4.918333">
        <ele>1163.0</ele>
        <time>2018-09-16T12:29:48Z</time>
      </trkpt>
      <trkpt lat="40.249150" lon="-4.918400">
        <ele>1163.0</ele>
        <time>2018-09-16T12:29:49Z</time>
      </trkpt>
      <trkpt lat="40.249250" lon="-4.918467">
        <ele>1162.0</ele>
        <time>2018-09-16T12:29:50Z</time>
      </trkpt>
      <trkpt lat="40.249350" lon="-4.918483">
        <ele>1161.0</ele>
        <time>2018-09-16T12:29:51Z</time>
      </trkpt>
      <trkpt lat="40.249467" lon="-4.918450">
        <ele>1159.0</ele>
        <time>2018-09-16T12:29:52Z</time>
      </trkpt>
      <trkpt lat="40.249567" lon="-4.918367">
        <ele>1157.0</ele>
        <time>2018-09-16T12:29:53Z</time>
      </trkpt>
      <trkpt lat="40.249617" lon="-4.918267">
        <ele>1155.0</ele>
        <time>2018-09-16T12:29:54Z</time>
      </trkpt>
      <trkpt lat="40.249633" lon="-4.918167">
        <ele>1154.0</ele>
        <time>2018-09-16T12:29:55Z</time>
      </trkpt>
      <trkpt lat="40.249617" lon="-4.918083">
        <ele>1152.0</ele>
        <time>2018-09-16T12:29:56Z</time>
      </trkpt>
      <trkpt lat="40.249583" lon="-4.918017">
        <ele>1149.0</ele>
        <time>2018-09-16T12:29:57Z</time>
      </trkpt>
      <trkpt lat="40.249517" lon="-4.917950">
        <ele>1147.0</ele>
        <time>2018-09-16T12:29:58Z</time>
      </trkpt>
      <trkpt lat="40.249450" lon="-4.917917">
        <ele>1147.0</ele>
        <time>2018-09-16T12:29:59Z</time>
      </trkpt>
      <trkpt lat="40.249383" lon="-4.917900">
        <ele>1148.0</ele>
        <time>2018-09-16T12:30:00Z</time>
      </trkpt>
      <trkpt lat="40.249317" lon="-4.917900">
        <ele>1150.0</ele>
        <time>2018-09-16T12:30:01Z</time>
      </trkpt>
      <trkpt lat="40.249267" lon="-4.917883">
        <ele>1152.0</ele>
        <time>2018-09-16T12:30:02Z</time>
      </trkpt>
      <trkpt lat="40.249217" lon="-4.917850">
        <ele>1154.0</ele>
        <time>2018-09-16T12:30:03Z</time>
      </trkpt>
      <trkpt lat="40.249183" lon="-4.917800">
        <ele>1155.0</ele>
        <time>2018-09-16T12:30:04Z</time>
      </trkpt>
      <trkpt lat="40.249150" lon="-4.917750">
        <ele>1156.0</ele>
        <time>2018-09-16T12:30:05Z</time>
      </trkpt>
      <trkpt lat="40.249117" lon="-4.917733">
        <ele>1155.0</ele>
        <time>2018-09-16T12:30:06Z</time>
      </trkpt>
      <trkpt lat="40.249067" lon="-4.917733">
        <ele>1154.0</ele>
        <time>2018-09-16T12:30:07Z</time>
      </trkpt>
      <trkpt lat="40.249017" lon="-4.917783">
        <ele>1152.0</ele>
        <time>2018-09-16T12:30:08Z</time>
      </trkpt>
      <trkpt lat="40.248950" lon="-4.917850">
        <ele>1151.0</ele>
        <time>2018-09-16T12:30:09Z</time>
      </trkpt>
      <trkpt lat="40.248900" lon="-4.917933">
        <ele>1150.0</ele>
        <time>2018-09-16T12:30:10Z</time>
      </trkpt>
      <trkpt lat="40.248867" lon="-4.918017">
        <ele>1151.0</ele>
        <time>2018-09-16T12:30:11Z</time>
      </trkpt>
      <trkpt lat="40.248850" lon="-4.918133">
        <ele>1150.0</ele>
        <time>2018-09-16T12:30:12Z</time>
      </trkpt>
      <trkpt lat="40.248867" lon="-4.918250">
        <ele>1149.0</ele>
        <time>2018-09-16T12:30:13Z</time>
      </trkpt>
      <trkpt lat="40.248900" lon="-4.918400">
        <ele>1149.0</ele>
        <time>2018-09-16T12:30:14Z</time>
      </trkpt>
      <trkpt lat="40.248967" lon="-4.918550">
        <ele>1149.0</ele>
        <time>2018-09-16T12:30:15Z</time>
      </trkpt>
      <trkpt lat="40.249050" lon="-4.918683">
        <ele>1152.0</ele>
        <time>2018-09-16T12:30:16Z</time>
      </trkpt>
      <trkpt lat="40.249150" lon="-4.918767">
        <ele>1156.0</ele>
        <time>2018-09-16T12:30:17Z</time>
      </trkpt>
      <trkpt lat="40.249250" lon="-4.918817">
        <ele>1160.0</ele>
        <time>2018-09-16T12:30:18Z</time>
      </trkpt>
      <trkpt lat="40.249333" lon="-4.918833">
        <ele>1162.0</ele>
        <time>2018-09-16T12:30:19Z</time>
      </trkpt>
      <trkpt lat="40.249433" lon="-4.918850">
        <ele>1164.0</ele>
        <time>2018-09-16T12:30:20Z</time>
      </trkpt>
      <trkpt lat="40.249533" lon="-4.918850">
        <ele>1165.0</ele>
        <time>2018-09-16T12:30:21Z</time>
      </trkpt>
      <trkpt lat="40.249633" lon="-4.918850">
        <ele>1166.0</ele>
        <time>2018-09-16T12:30:22Z</time>
      </trkpt>
      <trkpt lat="40.249733" lon="-4.918850">
        <ele>1167.0</ele>
        <time>2018-09-16T12:30:23Z</time>
      </trkpt>
      <trkpt lat="40.249817" lon="-4.918817">
        <ele>1167.0</ele>
        <time>2018-09-16T12:30:24Z</time>
      </trkpt>
      <trkpt lat="40.249900" lon="-4.918767">
        <ele>1168.0</ele>
        <time>2018-09-16T12:30:25Z</time>
      </trkpt>
      <trkpt lat="40.249933" lon="-4.918683">
        <ele>1167.0</ele>
        <time>2018-09-16T12:30:26Z</time>
      </trkpt>
      <trkpt lat="40.249950" lon="-4.918583">
        <ele>1166.0</ele>
        <time>2018-09-16T12:30:27Z</time>
      </trkpt>
      <trkpt lat="40.249950" lon="-4.918500">
        <ele>1166.0</ele>
        <time>2018-09-16T12:30:28Z</time>
      </trkpt>
      <trkpt lat="40.249917" lon="-4.918400">
        <ele>1167.0</ele>
        <time>2018-09-16T12:30:29Z</time>
      </trkpt>
      <trkpt lat="40.249900" lon="-4.918350">
        <ele>1169.0</ele>
        <time>2018-09-16T12:30:30Z</time>
      </trkpt>
      <trkpt lat="40.249867" lon="-4.918300">
        <ele>1169.0</ele>
        <time>2018-09-16T12:30:31Z</time>
      </trkpt>
      <trkpt lat="40.249817" lon="-4.918267">
        <ele>1168.0</ele>
        <time>2018-09-16T12:30:32Z</time>
      </trkpt>
      <trkpt lat="40.249767" lon="-4.918250">
        <ele>1168.0</ele>
        <time>2018-09-16T12:30:33Z</time>
      </trkpt>
      <trkpt lat="40.249700" lon="-4.918250">
        <ele>1167.0</ele>
        <time>2018-09-16T12:30:34Z</time>
      </trkpt>
      <trkpt lat="40.249633" lon="-4.918300">
        <ele>1167.0</ele>
        <time>2018-09-16T12:30:35Z</time>
      </trkpt>
      <trkpt lat="40.249600" lon="-4.918367">
        <ele>1167.0</ele>
        <time>2018-09-16T12:30:36Z</time>
      </trkpt>
      <trkpt lat="40.249567" lon="-4.918467">
        <ele>1167.0</ele>
        <time>2018-09-16T12:30:37Z</time>
      </trkpt>
      <trkpt lat="40.249550" lon="-4.918583">
        <ele>1168.0</ele>
        <time>2018-09-16T12:30:38Z</time>
      </trkpt>
      <trkpt lat="40.249550" lon="-4.918683">
        <ele>1169.0</ele>
        <time>2018-09-16T12:30:39Z</time>
      </trkpt>
      <trkpt lat="40.249550" lon="-4.918800">
        <ele>1170.0</ele>
        <time>2018-09-16T12:30:40Z</time>
      </trkpt>
      <trkpt lat="40.249567" lon="-4.918917">
        <ele>1172.0</ele>
        <time>2018-09-16T12:30:41Z</time>
      </trkpt>
      <trkpt lat="40.249600" lon="-4.919033">
        <ele>1174.0</ele>
        <time>2018-09-16T12:30:42Z</time>
      </trkpt>
      <trkpt lat="40.249650" lon="-4.919133">
        <ele>1175.0</ele>
        <time>2018-09-16T12:30:43Z</time>
      </trkpt>
      <trkpt lat="40.249733" lon="-4.919217">
        <ele>1176.0</ele>
        <time>2018-09-16T12:30:44Z</time>
      </trkpt>
      <trkpt lat="40.249833" lon="-4.919283">
        <ele>1177.0</ele>
        <time>2018-09-16T12:30:45Z</time>
      </trkpt>
      <trkpt lat="40.249933" lon="-4.919300">
        <ele>1178.0</ele>
        <time>2018-09-16T12:30:46Z</time>
      </trkpt>
      <trkpt lat="40.250033" lon="-4.919283">
        <ele>1180.0</ele>
        <time>2018-09-16T12:30:47Z</time>
      </trkpt>
      <trkpt lat="40.250117" lon="-4.919267">
        <ele>1182.0</ele>
        <time>2018-09-16T12:30:48Z</time>
      </trkpt>
      <trkpt lat="40.250200" lon="-4.919233">
        <ele>1183.0</ele>
        <time>2018-09-16T12:30:49Z</time>
      </trkpt>
      <trkpt lat="40.250283" lon="-4.919183">
        <ele>1185.0</ele>
        <time>2018-09-16T12:30:50Z</time>
      </trkpt>
      <trkpt lat="40.250350" lon="-4.919133">
        <ele>1186.0</ele>
        <time>2018-09-16T12:30:51Z</time>
      </trkpt>
      <trkpt lat="40.250400" lon="-4.919050">
        <ele>1186.0</ele>
        <time>2018-09-16T12:30:52Z</time>
      </trkpt>
      <trkpt lat="40.250417" lon="-4.918967">
        <ele>1186.0</ele>
        <time>2018-09-16T12:30:53Z</time>
      </trkpt>
      <trkpt lat="40.250417" lon="-4.918883">
        <ele>1184.0</ele>
        <time>2018-09-16T12:30:54Z</time>
      </trkpt>
      <trkpt lat="40.250367" lon="-4.918817">
        <ele>1184.0</ele>
        <time>2018-09-16T12:30:55Z</time>
      </trkpt>
      <trkpt lat="40.250317" lon="-4.918783">
        <ele>1184.0</ele>
        <time>2018-09-16T12:30:56Z</time>
      </trkpt>
      <trkpt lat="40.250267" lon="-4.918783">
        <ele>1185.0</ele>
        <time>2018-09-16T12:30:57Z</time>
      </trkpt>
      <trkpt lat="40.250200" lon="-4.918800">
        <ele>1185.0</ele>
        <time>2018-09-16T12:30:58Z</time>
      </trkpt>
      <trkpt lat="40.250150" lon="-4.918833">
        <ele>1186.0</ele>
        <time>2018-09-16T12:30:59Z</time>
      </trkpt>
      <trkpt lat="40.250100" lon="-4.918883">
        <ele>1187.0</ele>
        <time>2018-09-16T12:31:00Z</time>
      </trkpt>
      <trkpt lat="40.250050" lon="-4.918933">
        <ele>1187.0</ele>
        <time>2018-09-16T12:31:01Z</time>
      </trkpt>
      <trkpt lat="40.250017" lon="-4.919017">
        <ele>1189.0</ele>
        <time>2018-09-16T12:31:02Z</time>
      </trkpt>
      <trkpt lat="40.249983" lon="-4.919100">
        <ele>1190.0</ele>
        <time>2018-09-16T12:31:03Z</time>
      </trkpt>
      <trkpt lat="40.249967" lon="-4.919200">
        <ele>1192.0</ele>
        <time>2018-09-16T12:31:04Z</time>
      </trkpt>
      <trkpt lat="40.249967" lon="-4.919300">
        <ele>1194.0</ele>
        <time>2018-09-16T12:31:05Z</time>
      </trkpt>
      <trkpt lat="40.250000" lon="-4.919400">
        <ele>1194.0</ele>
        <time>2018-09-16T12:31:06Z</time>
      </trkpt>
      <trkpt lat="40.250050" lon="-4.919483">
        <ele>1194.0</ele>
        <time>2018-09-16T12:31:07Z</time>
      </trkpt>
      <trkpt lat="40.250117" lon="-4.919550">
        <ele>1193.0</ele>
        <time>2018-09-16T12:31:08Z</time>
      </trkpt>
      <trkpt lat="40.250217" lon="-4.919600">
        <ele>1193.0</ele>
        <time>2018-09-16T12:31:09Z</time>
      </trkpt>
      <trkpt lat="40.250333" lon="-4.919600">
        <ele>1194.0</ele>
        <time>2018-09-16T12:31:10Z</time>
      </trkpt>
      <trkpt lat="40.250433" lon="-4.919583">
        <ele>1196.0</ele>
        <time>2018-09-16T12:31:11Z</time>
      </trkpt>
      <trkpt lat="40.250533" lon="-4.919533">
        <ele>1199.0</ele>
        <time>2018-09-16T12:31:12Z</time>
      </trkpt>
      <trkpt lat="40.250617" lon="-4.919517">
        <ele>1203.0</ele>
        <time>2018-09-16T12:31:13Z</time>
      </trkpt>
      <trkpt lat="40.250683" lon="-4.919483">
        <ele>1205.0</ele>
        <time>2018-09-16T12:31:14Z</time>
      </trkpt>
      <trkpt lat="40.250750" lon="-4.919433">
        <ele>1205.0</ele>
        <time>2018-09-16T12:31:15Z</time>
      </trkpt>
      <trkpt lat="40.250817" lon="-4.919367">
        <ele>1204.0</ele>
        <time>2018-09-16T12:31:16Z</time>
      </trkpt>
      <trkpt lat="40.250900" lon="-4.919300">
        <ele>1203.0</ele>
        <time>2018-09-16T12:31:17Z</time>
      </trkpt>
      <trkpt lat="40.250967" lon="-4.919200">
        <ele>1203.0</ele>
        <time>2018-09-16T12:31:18Z</time>
      </trkpt>
      <trkpt lat="40.251017" lon="-4.919117">
        <ele>1203.0</ele>
        <time>2018-09-16T12:31:19Z</time>
      </trkpt>
      <trkpt lat="40.251050" lon="-4.919033">
        <ele>1204.0</ele>
        <time>2018-09-16T12:31:20Z</time>
      </trkpt>
      <trkpt lat="40.251050" lon="-4.918950">
        <ele>1203.0</ele>
        <time>2018-09-16T12:31:21Z</time>
      </trkpt>
      <trkpt lat="40.251033" lon="-4.918883">
        <ele>1201.0</ele>
        <time>2018-09-16T12:31:22Z</time>
      </trkpt>
      <trkpt lat="40.250983" lon="-4.918800">
        <ele>1199.0</ele>
        <time>2018-09-16T12:31:23Z</time>
      </trkpt>
      <trkpt lat="40.250933" lon="-4.918750">
        <ele>1198.0</ele>
        <time>2018-09-16T12:31:24Z</time>
      </trkpt>
      <trkpt lat="40.250883" lon="-4.918700">
        <ele>1198.0</ele>
        <time>2018-09-16T12:31:25Z</time>
      </trkpt>
      <trkpt lat="40.250817" lon="-4.918683">
        <ele>1198.0</ele>
        <time>2018-09-16T12:31:26Z</time>
      </trkpt>
      <trkpt lat="40.250767" lon="-4.918683">
        <ele>1198.0</ele>
        <time>2018-09-16T12:31:27Z</time>
      </trkpt>
      <trkpt lat="40.250700" lon="-4.918700">
        <ele>1197.0</ele>
        <time>2018-09-16T12:31:28Z</time>
      </trkpt>
      <trkpt lat="40.250650" lon="-4.918717">
        <ele>1196.0</ele>
        <time>2018-09-16T12:31:29Z</time>
      </trkpt>
      <trkpt lat="40.250600" lon="-4.918750">
        <ele>1194.0</ele>
        <time>2018-09-16T12:31:30Z</time>
      </trkpt>
      <trkpt lat="40.250533" lon="-4.918800">
        <ele>1192.0</ele>
        <time>2018-09-16T12:31:31Z</time>
      </trkpt>
      <trkpt lat="40.250467" lon="-4.918867">
        <ele>1191.0</ele>
        <time>2018-09-16T12:31:32Z</time>
      </trkpt>
      <trkpt lat="40.250417" lon="-4.918950">
        <ele>1190.0</ele>
        <time>2018-09-16T12:31:33Z</time>
      </trkpt>
      <trkpt lat="40.250367" lon="-4.919050">
        <ele>1190.0</ele>
        <time>2018-09-16T12:31:34Z</time>
      </trkpt>
      <trkpt lat="40.250333" lon="-4.919167">
        <ele>1191.0</ele>
        <time>2018-09-16T12:31:35Z</time>
      </trkpt>
      <trkpt lat="40.250317" lon="-4.919283">
        <ele>1192.0</ele>
        <time>2018-09-16T12:31:36Z</time>
      </trkpt>
      <trkpt lat="40.250317" lon="-4.919417">
        <ele>1193.0</ele>
        <time>2018-09-16T12:31:37Z</time>
      </trkpt>
      <trkpt lat="40.250333" lon="-4.919550">
        <ele>1194.0</ele>
        <time>2018-09-16T12:31:38Z</time>
      </trkpt>
      <trkpt lat="40.250367" lon="-4.919700">
        <ele>1194.0</ele>
        <time>2018-09-16T12:31:39Z</time>
      </trkpt>
      <trkpt lat="40.250433" lon="-4.919817">
        <ele>1196.0</ele>
        <time>2018-09-16T12:31:40Z</time>
      </trkpt>
      <trkpt lat="40.250517" lon="-4.919883">
        <ele>1197.0</ele>
        <time>2018-09-16T12:31:41Z</time>
      </trkpt>
      <trkpt lat="40.250617" lon="-4.919917">
        <ele>1197.0</ele>
        <time>2018-09-16T12:31:42Z</time>
      </trkpt>
      <trkpt lat="40.250733" lon="-4.919933">
        <ele>1197.0</ele>
        <time>2018-09-16T12:31:43Z</time>
      </trkpt>
      <trkpt lat="40.250833" lon="-4.919933">
        <ele>1196.0</ele>
        <time>2018-09-16T12:31:44Z</time>
      </trkpt>
      <trkpt lat="40.250933" lon="-4.919917">
        <ele>1197.0</ele>
        <time>2018-09-16T12:31:45Z</time>
      </trkpt>
      <trkpt lat="40.251033" lon="-4.919867">
        <ele>1197.0</ele>
        <time>2018-09-16T12:31:46Z</time>
      </trkpt>
      <trkpt lat="40.251100" lon="-4.919783">
        <ele>1197.0</ele>
        <time>2018-09-16T12:31:47Z</time>
      </trkpt>
      <trkpt lat="40.251167" lon="-4.919683">
        <ele>1196.0</ele>
        <time>2018-09-16T12:31:48Z</time>
      </trkpt>
      <trkpt lat="40.251200" lon="-4.919567">
        <ele>1197.0</ele>
        <time>2018-09-16T12:31:49Z</time>
      </trkpt>
      <trkpt lat="40.251217" lon="-4.919483">
        <ele>1198.0</ele>
        <time>2018-09-16T12:31:50Z</time>
      </trkpt>
      <trkpt lat="40.251217" lon="-4.919400">
        <ele>1199.0</ele>
        <time>2018-09-16T12:31:51Z</time>
      </trkpt>
      <trkpt lat="40.251217" lon="-4.919333">
        <ele>1199.0</ele>
        <time>2018-09-16T12:31:52Z</time>
      </trkpt>
      <trkpt lat="40.251217" lon="-4.919250">
        <ele>1198.0</ele>
        <time>2018-09-16T12:31:53Z</time>
      </trkpt>
      <trkpt lat="40.251217" lon="-4.919167">
        <ele>1196.0</ele>
        <time>2018-09-16T12:31:54Z</time>
      </trkpt>
      <trkpt lat="40.251200" lon="-4.919083">
        <ele>1195.0</ele>
        <time>2018-09-16T12:31:55Z</time>
      </trkpt>
      <trkpt lat="40.251167" lon="-4.919000">
        <ele>1194.0</ele>
        <time>2018-09-16T12:31:56Z</time>
      </trkpt>
      <trkpt lat="40.251133" lon="-4.918933">
        <ele>1192.0</ele>
        <time>2018-09-16T12:31:57Z</time>
      </trkpt>
      <trkpt lat="40.251083" lon="-4.918900">
        <ele>1191.0</ele>
        <time>2018-09-16T12:31:58Z</time>
      </trkpt>
      <trkpt lat="40.251017" lon="-4.918867">
        <ele>1189.0</ele>
        <time>2018-09-16T12:31:59Z</time>
      </trkpt>
      <trkpt lat="40.250933" lon="-4.918883">
        <ele>1187.0</ele>
        <time>2018-09-16T12:32:00Z</time>
      </trkpt>
      <trkpt lat="40.250850" lon="-4.918917">
        <ele>1186.0</ele>
        <time>2018-09-16T12:32:01Z</time>
      </trkpt>
      <trkpt lat="40.250767" lon="-4.918950">
        <ele>1186.0</ele>
        <time>2018-09-16T12:32:02Z</time>
      </trkpt>
      <trkpt lat="40.250700" lon="-4.918983">
        <ele>1187.0</ele>
        <time>2018-09-16T12:32:03Z</time>
      </trkpt>
      <trkpt lat="40.250617" lon="-4.919000">
        <ele>1188.0</ele>
        <time>2018-09-16T12:32:04Z</time>
      </trkpt>
      <trkpt lat="40.250567" lon="-4.919033">
        <ele>1189.0</ele>
        <time>2018-09-16T12:32:05Z</time>
      </trkpt>
      <trkpt lat="40.250500" lon="-4.919100">
        <ele>1188.0</ele>
        <time>2018-09-16T12:32:06Z</time>
      </trkpt>
      <trkpt lat="40.250450" lon="-4.919183">
        <ele>1188.0</ele>
        <time>2018-09-16T12:32:07Z</time>
      </trkpt>
      <trkpt lat="40.250433" lon="-4.919300">
        <ele>1187.0</ele>
        <time>2018-09-16T12:32:08Z</time>
      </trkpt>
      <trkpt lat="40.250433" lon="-4.919450">
        <ele>1187.0</ele>
        <time>2018-09-16T12:32:09Z</time>
      </trkpt>
      <trkpt lat="40.250467" lon="-4.919583">
        <ele>1187.0</ele>
        <time>2018-09-16T12:32:10Z</time>
      </trkpt>
      <trkpt lat="40.250533" lon="-4.919717">
        <ele>1188.0</ele>
        <time>2018-09-16T12:32:11Z</time>
      </trkpt>
      <trkpt lat="40.250617" lon="-4.919817">
        <ele>1191.0</ele>
        <time>2018-09-16T12:32:12Z</time>
      </trkpt>
      <trkpt lat="40.250700" lon="-4.919900">
        <ele>1194.0</ele>
        <time>2018-09-16T12:32:13Z</time>
      </trkpt>
      <trkpt lat="40.250800" lon="-4.919967">
        <ele>1196.0</ele>
        <time>2018-09-16T12:32:14Z</time>
      </trkpt>
      <trkpt lat="40.250883" lon="-4.920017">
        <ele>1198.0</ele>
        <time>2018-09-16T12:32:15Z</time>
      </trkpt>
      <trkpt lat="40.250967" lon="-4.920067">
        <ele>1199.0</ele>
        <time>2018-09-16T12:32:16Z</time>
      </trkpt>
      <trkpt lat="40.251067" lon="-4.920100">
        <ele>1200.0</ele>
        <time>2018-09-16T12:32:17Z</time>
      </trkpt>
      <trkpt lat="40.251167" lon="-4.920117">
        <ele>1200.0</ele>
        <time>2018-09-16T12:32:18Z</time>
      </trkpt>
      <trkpt lat="40.251283" lon="-4.920100">
        <ele>1200.0</ele>
        <time>2018-09-16T12:32:19Z</time>
      </trkpt>
      <trkpt lat="40.251383" lon="-4.920050">
        <ele>1201.0</ele>
        <time>2018-09-16T12:32:20Z</time>
      </trkpt>
      <trkpt lat="40.251450" lon="-4.919983">
        <ele>1203.0</ele>
        <time>2018-09-16T12:32:21Z</time>
      </trkpt>
      <trkpt lat="40.251500" lon="-4.919883">
        <ele>1204.0</ele>
        <time>2018-09-16T12:32:22Z</time>
      </trkpt>
      <trkpt lat="40.251550" lon="-4.919767">
        <ele>1205.0</ele>
        <time>2018-09-16T12:32:23Z</time>
      </trkpt>
      <trkpt lat="40.251583" lon="-4.919650">
        <ele>1206.0</ele>
        <time>2018-09-16T12:32:24Z</time>
      </trkpt>
      <trkpt lat="40.251617" lon="-4.919533">
        <ele>1207.0</ele>
        <time>2018-09-16T12:32:25Z</time>
      </trkpt>
      <trkpt lat="40.251650" lon="-4.919417">
        <ele>1209.0</ele>
        <time>2018-09-16T12:32:26Z</time>
      </trkpt>
      <trkpt lat="40.251667" lon="-4.919317">
        <ele>1211.0</ele>
        <time>2018-09-16T12:32:27Z</time>
      </trkpt>
      <trkpt lat="40.251667" lon="-4.919250">
        <ele>1211.0</ele>
        <time>2018-09-16T12:32:28Z</time>
      </trkpt>
      <trkpt lat="40.251633" lon="-4.919183">
        <ele>1208.0</ele>
        <time>2018-09-16T12:32:29Z</time>
      </trkpt>
      <trkpt lat="40.251583" lon="-4.919117">
        <ele>1205.0</ele>
        <time>2018-09-16T12:32:30Z</time>
      </trkpt>
      <trkpt lat="40.251517" lon="-4.919067">
        <ele>1204.0</ele>
        <time>2018-09-16T12:32:31Z</time>
      </trkpt>
      <trkpt lat="40.251450" lon="-4.919067">
        <ele>1203.0</ele>
        <time>2018-09-16T12:32:32Z</time>
      </trkpt>
      <trkpt lat="40.251383" lon="-4.919083">
        <ele>1202.0</ele>
        <time>2018-09-16T12:32:33Z</time>
      </trkpt>
      <trkpt lat="40.251317" lon="-4.919150">
        <ele>1201.0</ele>
        <time>2018-09-16T12:32:34Z</time>
      </trkpt>
      <trkpt lat="40.251283" lon="-4.919233">
        <ele>1200.0</ele>
        <time>2018-09-16T12:32:35Z</time>
      </trkpt>
      <trkpt lat="40.251233" lon="-4.919333">
        <ele>1200.0</ele>
        <time>2018-09-16T12:32:36Z</time>
      </trkpt>
      <trkpt lat="40.251200" lon="-4.919450">
        <ele>1200.0</ele>
        <time>2018-09-16T12:32:37Z</time>
      </trkpt>
      <trkpt lat="40.251183" lon="-4.919550">
        <ele>1202.0</ele>
        <time>2018-09-16T12:32:38Z</time>
      </trkpt>
      <trkpt lat="40.251200" lon="-4.919667">
        <ele>1204.0</ele>
        <time>2018-09-16T12:32:39Z</time>
      </trkpt>
      <trkpt lat="40.251233" lon="-4.919783">
        <ele>1205.0</ele>
        <time>2018-09-16T12:32:40Z</time>
      </trkpt>
      <trkpt lat="40.251283" lon="-4.919883">
        <ele>1206.0</ele>
        <time>2018-09-16T12:32:41Z</time>
      </trkpt>
      <trkpt lat="40.251367" lon="-4.919983">
        <ele>1208.0</ele>
        <time>2018-09-16T12:32:42Z</time>
      </trkpt>
      <trkpt lat="40.251450" lon="-4.920067">
        <ele>1210.0</ele>
        <time>2018-09-16T12:32:43Z</time>
      </trkpt>
      <trkpt lat="40.251533" lon="-4.920133">
        <ele>1213.0</ele>
        <time>2018-09-16T12:32:44Z</time>
      </trkpt>
      <trkpt lat="40.251617" lon="-4.920183">
        <ele>1215.0</ele>
        <time>2018-09-16T12:32:45Z</time>
      </trkpt>
      <trkpt lat="40.251700" lon="-4.920233">
        <ele>1218.0</ele>
        <time>2018-09-16T12:32:46Z</time>
      </trkpt>
      <trkpt lat="40.251783" lon="-4.920283">
        <ele>1220.0</ele>
        <time>2018-09-16T12:32:47Z</time>
      </trkpt>
      <trkpt lat="40.251883" lon="-4.920317">
        <ele>1221.0</ele>
        <time>2018-09-16T12:32:48Z</time>
      </trkpt>
      <trkpt lat="40.251983" lon="-4.920333">
        <ele>1223.0</ele>
        <time>2018-09-16T12:32:49Z</time>
      </trkpt>
      <trkpt lat="40.252083" lon="-4.920333">
        <ele>1224.0</ele>
        <time>2018-09-16T12:32:50Z</time>
      </trkpt>
      <trkpt lat="40.252183" lon="-4.920300">
        <ele>1227.0</ele>
        <time>2018-09-16T12:32:51Z</time>
      </trkpt>
      <trkpt lat="40.252267" lon="-4.920217">
        <ele>1228.0</ele>
        <time>2018-09-16T12:32:52Z</time>
      </trkpt>
      <trkpt lat="40.252333" lon="-4.920100">
        <ele>1230.0</ele>
        <time>2018-09-16T12:32:53Z</time>
      </trkpt>
      <trkpt lat="40.252367" lon="-4.919967">
        <ele>1233.0</ele>
        <time>2018-09-16T12:32:54Z</time>
      </trkpt>
      <trkpt lat="40.252400" lon="-4.919867">
        <ele>1236.0</ele>
        <time>2018-09-16T12:32:55Z</time>
      </trkpt>
      <trkpt lat="40.252400" lon="-4.919783">
        <ele>1239.0</ele>
        <time>2018-09-16T12:32:56Z</time>
      </trkpt>
      <trkpt lat="40.252400" lon="-4.919717">
        <ele>1240.0</ele>
        <time>2018-09-16T12:32:57Z</time>
      </trkpt>
      <trkpt lat="40.252400" lon="-4.919650">
        <ele>1239.0</ele>
        <time>2018-09-16T12:32:58Z</time>
      </trkpt>
      <trkpt lat="40.252383" lon="-4.919567">
        <ele>1238.0</ele>
        <time>2018-09-16T12:32:59Z</time>
      </trkpt>
      <trkpt lat="40.252333" lon="-4.919500">
        <ele>1236.0</ele>
        <time>2018-09-16T12:33:00Z</time>
      </trkpt>
      <trkpt lat="40.252267" lon="-4.919450">
        <ele>1236.0</ele>
        <time>2018-09-16T12:33:01Z</time>
      </trkpt>
      <trkpt lat="40.252200" lon="-4.919433">
        <ele>1236.0</ele>
        <time>2018-09-16T12:33:02Z</time>
      </trkpt>
      <trkpt lat="40.252133" lon="-4.919450">
        <ele>1236.0</ele>
        <time>2018-09-16T12:33:03Z</time>
      </trkpt>
      <trkpt lat="40.252083" lon="-4.919500">
        <ele>1236.0</ele>
        <time>2018-09-16T12:33:04Z</time>
      </trkpt>
      <trkpt lat="40.252050" lon="-4.919550">
        <ele>1235.0</ele>
        <time>2018-09-16T12:33:05Z</time>
      </trkpt>
      <trkpt lat="40.251983" lon="-4.919600">
        <ele>1233.0</ele>
        <time>2018-09-16T12:33:06Z</time>
      </trkpt>
      <trkpt lat="40.251917" lon="-4.919667">
        <ele>1232.0</ele>
        <time>2018-09-16T12:33:07Z</time>
      </trkpt>
      <trkpt lat="40.251867" lon="-4.919767">
        <ele>1232.0</ele>
        <time>2018-09-16T12:33:08Z</time>
      </trkpt>
      <trkpt lat="40.251817" lon="-4.919900">
        <ele>1232.0</ele>
        <time>2018-09-16T12:33:09Z</time>
      </trkpt>
      <trkpt lat="40.251817" lon="-4.920050">
        <ele>1233.0</ele>
        <time>2018-09-16T12:33:10Z</time>
      </trkpt>
      <trkpt lat="40.251867" lon="-4.920200">
        <ele>1234.0</ele>
        <time>2018-09-16T12:33:11Z</time>
      </trkpt>
      <trkpt lat="40.251967" lon="-4.920333">
        <ele>1234.0</ele>
        <time>2018-09-16T12:33:12Z</time>
      </trkpt>
      <trkpt lat="40.252083" lon="-4.920433">
        <ele>1234.0</ele>
        <time>2018-09-16T12:33:13Z</time>
      </trkpt>
      <trkpt lat="40.252233" lon="-4.920517">
        <ele>1236.0</ele>
        <time>2018-09-16T12:33:14Z</time>
      </trkpt>
      <trkpt lat="40.252367" lon="-4.920567">
        <ele>1239.0</ele>
        <time>2018-09-16T12:33:15Z</time>
      </trkpt>
      <trkpt lat="40.252500" lon="-4.920550">
        <ele>1243.0</ele>
        <time>2018-09-16T12:33:16Z</time>
      </trkpt>
      <trkpt lat="40.252600" lon="-4.920517">
        <ele>1245.0</ele>
        <time>2018-09-16T12:33:17Z</time>
      </trkpt>
      <trkpt lat="40.252700" lon="-4.920467">
        <ele>1247.0</ele>
        <time>2018-09-16T12:33:18Z</time>
      </trkpt>
      <trkpt lat="40.252783" lon="-4.920400">
        <ele>1250.0</ele>
        <time>2018-09-16T12:33:19Z</time>
      </trkpt>
      <trkpt lat="40.252850" lon="-4.920333">
        <ele>1252.0</ele>
        <time>2018-09-16T12:33:20Z</time>
      </trkpt>
      <trkpt lat="40.252917" lon="-4.920250">
        <ele>1254.0</ele>
        <time>2018-09-16T12:33:21Z</time>
      </trkpt>
      <trkpt lat="40.252967" lon="-4.920150">
        <ele>1256.0</ele>
        <time>2018-09-16T12:33:22Z</time>
      </trkpt>
      <trkpt lat="40.253033" lon="-4.920050">
        <ele>1258.0</ele>
        <time>2018-09-16T12:33:23Z</time>
      </trkpt>
      <trkpt lat="40.253067" lon="-4.919950">
        <ele>1259.0</ele>
        <time>2018-09-16T12:33:24Z</time>
      </trkpt>
      <trkpt lat="40.253100" lon="-4.919833">
        <ele>1261.0</ele>
        <time>2018-09-16T12:33:25Z</time>
      </trkpt>
      <trkpt lat="40.253117" lon="-4.919733">
        <ele>1262.0</ele>
        <time>2018-09-16T12:33:26Z</time>
      </trkpt>
      <trkpt lat="40.253117" lon="-4.919633">
        <ele>1263.0</ele>
        <time>2018-09-16T12:33:27Z</time>
      </trkpt>
      <trkpt lat="40.253083" lon="-4.919550">
        <ele>1263.0</ele>
        <time>2018-09-16T12:33:28Z</time>
      </trkpt>
      <trkpt lat="40.253050" lon="-4.919467">
        <ele>1263.0</ele>
        <time>2018-09-16T12:33:29Z</time>
      </trkpt>
      <trkpt lat="40.253000" lon="-4.919400">
        <ele>1262.0</ele>
        <time>2018-09-16T12:33:30Z</time>
      </trkpt>
      <trkpt lat="40.252950" lon="-4.919333">
        <ele>1260.0</ele>
        <time>2018-09-16T12:33:31Z</time>
      </trkpt>
      <trkpt lat="40.252883" lon="-4.919300">
        <ele>1259.0</ele>
        <time>2018-09-16T12:33:32Z</time>
      </trkpt>
      <trkpt lat="40.252833" lon="-4.919300">
        <ele>1257.0</ele>
        <time>2018-09-16T12:33:33Z</time>
      </trkpt>
      <trkpt lat="40.252783" lon="-4.919317">
        <ele>1255.0</ele>
        <time>2018-09-16T12:33:34Z</time>
      </trkpt>
      <trkpt lat="40.252733" lon="-4.919383">
        <ele>1252.0</ele>
        <time>2018-09-16T12:33:35Z</time>
      </trkpt>
      <trkpt lat="40.252667" lon="-4.919467">
        <ele>1249.0</ele>
        <time>2018-09-16T12:33:36Z</time>
      </trkpt>
      <trkpt lat="40.252633" lon="-4.919583">
        <ele>1247.0</ele>
        <time>2018-09-16T12:33:37Z</time>
      </trkpt>
      <trkpt lat="40.252617" lon="-4.919733">
        <ele>1246.0</ele>
        <time>2018-09-16T12:33:38Z</time>
      </trkpt>
      <trkpt lat="40.252633" lon="-4.919883">
        <ele>1248.0</ele>
        <time>2018-09-16T12:33:39Z</time>
      </trkpt>
      <trkpt lat="40.252700" lon="-4.920017">
        <ele>1251.0</ele>
        <time>2018-09-16T12:33:40Z</time>
      </trkpt>
      <trkpt lat="40.252767" lon="-4.920117">
        <ele>1254.0</ele>
        <time>2018-09-16T12:33:41Z</time>
      </trkpt>
      <trkpt lat="40.252850" lon="-4.920217">
        <ele>1256.0</ele>
        <time>2018-09-16T12:33:42Z</time>
      </trkpt>
      <trkpt lat="40.252967" lon="-4.920283">
        <ele>1256.0</ele>
        <time>2018-09-16T12:33:43Z</time>
      </trkpt>
      <trkpt lat="40.253100" lon="-4.920317">
        <ele>1256.0</ele>
        <time>2018-09-16T12:33:44Z</time>
      </trkpt>
      <trkpt lat="40.253233" lon="-4.920333">
        <ele>1257.0</ele>
        <time>2018-09-16T12:33:45Z</time>
      </trkpt>
      <trkpt lat="40.253383" lon="-4.920300">
        <ele>1260.0</ele>
        <time>2018-09-16T12:33:46Z</time>
      </trkpt>
      <trkpt lat="40.253500" lon="-4.920267">
        <ele>1265.0</ele>
        <time>2018-09-16T12:33:47Z</time>
      </trkpt>
      <trkpt lat="40.253617" lon="-4.920200">
        <ele>1269.0</ele>
        <time>2018-09-16T12:33:48Z</time>
      </trkpt>
      <trkpt lat="40.253700" lon="-4.920133">
        <ele>1272.0</ele>
        <time>2018-09-16T12:33:49Z</time>
      </trkpt>
      <trkpt lat="40.253783" lon="-4.920050">
        <ele>1273.0</ele>
        <time>2018-09-16T12:33:50Z</time>
      </trkpt>
      <trkpt lat="40.253867" lon="-4.919950">
        <ele>1274.0</ele>
        <time>2018-09-16T12:33:51Z</time>
      </trkpt>
      <trkpt lat="40.253933" lon="-4.919833">
        <ele>1274.0</ele>
        <time>2018-09-16T12:33:52Z</time>
      </trkpt>
      <trkpt lat="40.254000" lon="-4.919700">
        <ele>1276.0</ele>
        <time>2018-09-16T12:33:53Z</time>
      </trkpt>
      <trkpt lat="40.254067" lon="-4.919567">
        <ele>1278.0</ele>
        <time>2018-09-16T12:33:54Z</time>
      </trkpt>
      <trkpt lat="40.254133" lon="-4.919467">
        <ele>1282.0</ele>
        <time>2018-09-16T12:33:55Z</time>
      </trkpt>
      <trkpt lat="40.254183" lon="-4.919350">
        <ele>1285.0</ele>
        <time>2018-09-16T12:33:56Z</time>
      </trkpt>
      <trkpt lat="40.254233" lon="-4.919250">
        <ele>1286.0</ele>
        <time>2018-09-16T12:33:57Z</time>
      </trkpt>
      <trkpt lat="40.254283" lon="-4.919133">
        <ele>1286.0</ele>
        <time>2018-09-16T12:33:58Z</time>
      </trkpt>
      <trkpt lat="40.254333" lon="-4.919033">
        <ele>1285.0</ele>
        <time>2018-09-16T12:33:59Z</time>
      </trkpt>
      <trkpt lat="40.254383" lon="-4.918933">
        <ele>1285.0</ele>
        <time>2018-09-16T12:34:00Z</time>
      </trkpt>
      <trkpt lat="40.254417" lon="-4.918833">
        <ele>1286.0</ele>
        <time>2018-09-16T12:34:01Z</time>
      </trkpt>
      <trkpt lat="40.254417" lon="-4.918750">
        <ele>1287.0</ele>
        <time>2018-09-16T12:34:02Z</time>
      </trkpt>
      <trkpt lat="40.254383" lon="-4.918667">
        <ele>1287.0</ele>
        <time>2018-09-16T12:34:03Z</time>
      </trkpt>
      <trkpt lat="40.254350" lon="-4.918600">
        <ele>1287.0</ele>
        <time>2018-09-16T12:34:04Z</time>
      </trkpt>
      <trkpt lat="40.254300" lon="-4.918567">
        <ele>1288.0</ele>
        <time>2018-09-16T12:34:05Z</time>
      </trkpt>
      <trkpt lat="40.254233" lon="-4.918550">
        <ele>1288.0</ele>
        <time>2018-09-16T12:34:06Z</time>
      </trkpt>
      <trkpt lat="40.254167" lon="-4.918550">
        <ele>1287.0</ele>
        <time>2018-09-16T12:34:07Z</time>
      </trkpt>
      <trkpt lat="40.254117" lon="-4.918583">
        <ele>1287.0</ele>
        <time>2018-09-16T12:34:08Z</time>
      </trkpt>
      <trkpt lat="40.254050" lon="-4.918633">
        <ele>1287.0</ele>
        <time>2018-09-16T12:34:09Z</time>
      </trkpt>
      <trkpt lat="40.254000" lon="-4.918733">
        <ele>1286.0</ele>
        <time>2018-09-16T12:34:10Z</time>
      </trkpt>
      <trkpt lat="40.253967" lon="-4.918833">
        <ele>1287.0</ele>
        <time>2018-09-16T12:34:11Z</time>
      </trkpt>
      <trkpt lat="40.253950" lon="-4.918967">
        <ele>1288.0</ele>
        <time>2018-09-16T12:34:12Z</time>
      </trkpt>
      <trkpt lat="40.253967" lon="-4.919100">
        <ele>1288.0</ele>
        <time>2018-09-16T12:34:13Z</time>
      </trkpt>
      <trkpt lat="40.254017" lon="-4.919233">
        <ele>1288.0</ele>
        <time>2018-09-16T12:34:14Z</time>
      </trkpt>
      <trkpt lat="40.254083" lon="-4.919333">
        <ele>1289.0</ele>
        <time>2018-09-16T12:34:15Z</time>
      </trkpt>
      <trkpt lat="40.254167" lon="-4.919417">
        <ele>1289.0</ele>
        <time>2018-09-16T12:34:16Z</time>
      </trkpt>
      <trkpt lat="40.254250" lon="-4.919467">
        <ele>1289.0</ele>
        <time>2018-09-16T12:34:17Z</time>
      </trkpt>
      <trkpt lat="40.254350" lon="-4.919483">
        <ele>1289.0</ele>
        <time>2018-09-16T12:34:18Z</time>
      </trkpt>
      <trkpt lat="40.254467" lon="-4.919483">
        <ele>1289.0</ele>
        <time>2018-09-16T12:34:19Z</time>
      </trkpt>
      <trkpt lat="40.254567" lon="-4.919450">
        <ele>1291.0</ele>
        <time>2018-09-16T12:34:20Z</time>
      </trkpt>
      <trkpt lat="40.254667" lon="-4.919400">
        <ele>1293.0</ele>
        <time>2018-09-16T12:34:21Z</time>
      </trkpt>
      <trkpt lat="40.254750" lon="-4.919333">
        <ele>1293.0</ele>
        <time>2018-09-16T12:34:22Z</time>
      </trkpt>
      <trkpt lat="40.254817" lon="-4.919250">
        <ele>1293.0</ele>
        <time>2018-09-16T12:34:23Z</time>
      </trkpt>
      <trkpt lat="40.254883" lon="-4.919150">
        <ele>1293.0</ele>
        <time>2018-09-16T12:34:24Z</time>
      </trkpt>
      <trkpt lat="40.254933" lon="-4.919033">
        <ele>1294.0</ele>
        <time>2018-09-16T12:34:25Z</time>
      </trkpt>
      <trkpt lat="40.254983" lon="-4.918917">
        <ele>1296.0</ele>
        <time>2018-09-16T12:34:26Z</time>
      </trkpt>
      <trkpt lat="40.255017" lon="-4.918817">
        <ele>1299.0</ele>
        <time>2018-09-16T12:34:27Z</time>
      </trkpt>
      <trkpt lat="40.255050" lon="-4.918733">
        <ele>1303.0</ele>
        <time>2018-09-16T12:34:28Z</time>
      </trkpt>
      <trkpt lat="40.255067" lon="-4.918667">
        <ele>1304.0</ele>
        <time>2018-09-16T12:34:29Z</time>
      </trkpt>
      <trkpt lat="40.255100" lon="-4.918633">
        <ele>1305.0</ele>
        <time>2018-09-16T12:34:30Z</time>
      </trkpt>
      <trkpt lat="40.255133" lon="-4.918567">
        <ele>1304.0</ele>
        <time>2018-09-16T12:34:31Z</time>
      </trkpt>
      <trkpt lat="40.255167" lon="-4.918483">
        <ele>1302.0</ele>
        <time>2018-09-16T12:34:32Z</time>
      </trkpt>
      <trkpt lat="40.255183" lon="-4.918383">
        <ele>1300.0</ele>
        <time>2018-09-16T12:34:33Z</time>
      </trkpt>
      <trkpt lat="40.255200" lon="-4.918267">
        <ele>1301.0</ele>
        <time>2018-09-16T12:34:34Z</time>
      </trkpt>
      <trkpt lat="40.255183" lon="-4.918167">
        <ele>1303.0</ele>
        <time>2018-09-16T12:34:35Z</time>
      </trkpt>
      <trkpt lat="40.255183" lon="-4.918083">
        <ele>1305.0</ele>
        <time>2018-09-16T12:34:36Z</time>
      </trkpt>
      <trkpt lat="40.255167" lon="-4.918000">
        <ele>1307.0</ele>
        <time>2018-09-16T12:34:37Z</time>
      </trkpt>
      <trkpt lat="40.255183" lon="-4.917900">
        <ele>1309.0</ele>
        <time>2018-09-16T12:34:38Z</time>
      </trkpt>
      <trkpt lat="40.255200" lon="-4.917817">
        <ele>1310.0</ele>
        <time>2018-09-16T12:34:39Z</time>
      </trkpt>
      <trkpt lat="40.255200" lon="-4.917750">
        <ele>1311.0</ele>
        <time>2018-09-16T12:34:40Z</time>
      </trkpt>
      <trkpt lat="40.255183" lon="-4.917683">
        <ele>1311.0</ele>
        <time>2018-09-16T12:34:41Z</time>
      </trkpt>
      <trkpt lat="40.255167" lon="-4.917650">
        <ele>1310.0</ele>
        <time>2018-09-16T12:34:42Z</time>
      </trkpt>
      <trkpt lat="40.255133" lon="-4.917600">
        <ele>1308.0</ele>
        <time>2018-09-16T12:34:43Z</time>
      </trkpt>
      <trkpt lat="40.255083" lon="-4.917567">
        <ele>1307.0</ele>
        <time>2018-09-16T12:34:44Z</time>
      </trkpt>
      <trkpt lat="40.255033" lon="-4.917533">
        <ele>1306.0</ele>
        <time>2018-09-16T12:34:45Z</time>
      </trkpt>
      <trkpt lat="40.254983" lon="-4.917517">
        <ele>1304.0</ele>
        <time>2018-09-16T12:34:46Z</time>
      </trkpt>
      <trkpt lat="40.254917" lon="-4.917517">
        <ele>1303.0</ele>
        <time>2018-09-16T12:34:47Z</time>
      </trkpt>
      <trkpt lat="40.254850" lon="-4.917567">
        <ele>1302.0</ele>
        <time>2018-09-16T12:34:48Z</time>
      </trkpt>
      <trkpt lat="40.254800" lon="-4.917633">
        <ele>1301.0</ele>
        <time>2018-09-16T12:34:49Z</time>
      </trkpt>
      <trkpt lat="40.254750" lon="-4.917733">
        <ele>1300.0</ele>
        <time>2018-09-16T12:34:50Z</time>
      </trkpt>
      <trkpt lat="40.254733" lon="-4.917850">
        <ele>1300.0</ele>
        <time>2018-09-16T12:34:51Z</time>
      </trkpt>
      <trkpt lat="40.254750" lon="-4.917967">
        <ele>1300.0</ele>
        <time>2018-09-16T12:34:52Z</time>
      </trkpt>
      <trkpt lat="40.254767" lon="-4.918100">
        <ele>1299.0</ele>
        <time>2018-09-16T12:34:53Z</time>
      </trkpt>
      <trkpt lat="40.254817" lon="-4.918217">
        <ele>1299.0</ele>
        <time>2018-09-16T12:34:54Z</time>
      </trkpt>
      <trkpt lat="40.254867" lon="-4.918333">
        <ele>1298.0</ele>
        <time>2018-09-16T12:34:55Z</time>
      </trkpt>
      <trkpt lat="40.254950" lon="-4.918433">
        <ele>1297.0</ele>
        <time>2018-09-16T12:34:56Z</time>
      </trkpt>
      <trkpt lat="40.255050" lon="-4.918517">
        <ele>1296.0</ele>
        <time>2018-09-16T12:34:57Z</time>
      </trkpt>
      <trkpt lat="40.255167" lon="-4.918550">
        <ele>1294.0</ele>
        <time>2018-09-16T12:34:58Z</time>
      </trkpt>
      <trkpt lat="40.255300" lon="-4.918533">
        <ele>1294.0</ele>
        <time>2018-09-16T12:34:59Z</time>
      </trkpt>
      <trkpt lat="40.255400" lon="-4.918483">
        <ele>1296.0</ele>
        <time>2018-09-16T12:35:00Z</time>
      </trkpt>
      <trkpt lat="40.255467" lon="-4.918400">
        <ele>1298.0</ele>
        <time>2018-09-16T12:35:01Z</time>
      </trkpt>
      <trkpt lat="40.255517" lon="-4.918317">
        <ele>1299.0</ele>
        <time>2018-09-16T12:35:02Z</time>
      </trkpt>
      <trkpt lat="40.255550" lon="-4.918233">
        <ele>1299.0</ele>
        <time>2018-09-16T12:35:03Z</time>
      </trkpt>
      <trkpt lat="40.255567" lon="-4.918167">
        <ele>1299.0</ele>
        <time>2018-09-16T12:35:04Z</time>
      </trkpt>
      <trkpt lat="40.255583" lon="-4.918083">
        <ele>1297.0</ele>
        <time>2018-09-16T12:35:05Z</time>
      </trkpt>
      <trkpt lat="40.255583" lon="-4.918000">
        <ele>1296.0</ele>
        <time>2018-09-16T12:35:06Z</time>
      </trkpt>
      <trkpt lat="40.255550" lon="-4.917900">
        <ele>1293.0</ele>
        <time>2018-09-16T12:35:07Z</time>
      </trkpt>
      <trkpt lat="40.255517" lon="-4.917817">
        <ele>1292.0</ele>
        <time>2018-09-16T12:35:08Z</time>
      </trkpt>
      <trkpt lat="40.255467" lon="-4.917733">
        <ele>1291.0</ele>
        <time>2018-09-16T12:35:09Z</time>
      </trkpt>
      <trkpt lat="40.255417" lon="-4.917650">
        <ele>1292.0</ele>
        <time>2018-09-16T12:35:10Z</time>
      </trkpt>
      <trkpt lat="40.255400" lon="-4.917567">
        <ele>1293.0</ele>
        <time>2018-09-16T12:35:11Z</time>
      </trkpt>
      <trkpt lat="40.255367" lon="-4.917483">
        <ele>1293.0</ele>
        <time>2018-09-16T12:35:12Z</time>
      </trkpt>
      <trkpt lat="40.255367" lon="-4.917400">
        <ele>1292.0</ele>
        <time>2018-09-16T12:35:13Z</time>
      </trkpt>
      <trkpt lat="40.255350" lon="-4.917317">
        <ele>1290.0</ele>
        <time>2018-09-16T12:35:14Z</time>
      </trkpt>
      <trkpt lat="40.255333" lon="-4.917200">
        <ele>1289.0</ele>
        <time>2018-09-16T12:35:15Z</time>
      </trkpt>
      <trkpt lat="40.255317" lon="-4.917083">
        <ele>1288.0</ele>
        <time>2018-09-16T12:35:16Z</time>
      </trkpt>
      <trkpt lat="40.255300" lon="-4.916950">
        <ele>1289.0</ele>
        <time>2018-09-16T12:35:17Z</time>
      </trkpt>
      <trkpt lat="40.255300" lon="-4.916833">
        <ele>1291.0</ele>
        <time>2018-09-16T12:35:18Z</time>
      </trkpt>
      <trkpt lat="40.255333" lon="-4.916750">
        <ele>1293.0</ele>
        <time>2018-09-16T12:35:19Z</time>
      </trkpt>
      <trkpt lat="40.255367" lon="-4.916667">
        <ele>1294.0</ele>
        <time>2018-09-16T12:35:20Z</time>
      </trkpt>
      <trkpt lat="40.255400" lon="-4.916600">
        <ele>1293.0</ele>
        <time>2018-09-16T12:35:21Z</time>
      </trkpt>
      <trkpt lat="40.255450" lon="-4.916517">
        <ele>1292.0</ele>
        <time>2018-09-16T12:35:22Z</time>
      </trkpt>
      <trkpt lat="40.255517" lon="-4.916417">
        <ele>1290.0</ele>
        <time>2018-09-16T12:35:23Z</time>
      </trkpt>
      <trkpt lat="40.255567" lon="-4.916317">
        <ele>1289.0</ele>
        <time>2018-09-16T12:35:24Z</time>
      </trkpt>
      <trkpt lat="40.255633" lon="-4.916200">
        <ele>1288.0</ele>
        <time>2018-09-16T12:35:25Z</time>
      </trkpt>
      <trkpt lat="40.255700" lon="-4.916117">
        <ele>1287.0</ele>
        <time>2018-09-16T12:35:26Z</time>
      </trkpt>
      <trkpt lat="40.255750" lon="-4.916017">
        <ele>1285.0</ele>
        <time>2018-09-16T12:35:27Z</time>
      </trkpt>
      <trkpt lat="40.255817" lon="-4.915917">
        <ele>1283.0</ele>
        <time>2018-09-16T12:35:28Z</time>
      </trkpt>
      <trkpt lat="40.255867" lon="-4.915817">
        <ele>1281.0</ele>
        <time>2018-09-16T12:35:29Z</time>
      </trkpt>
      <trkpt lat="40.255883" lon="-4.915700">
        <ele>1281.0</ele>
        <time>2018-09-16T12:35:30Z</time>
      </trkpt>
      <trkpt lat="40.255867" lon="-4.915600">
        <ele>1280.0</ele>
        <time>2018-09-16T12:35:31Z</time>
      </trkpt>
      <trkpt lat="40.255833" lon="-4.915533">
        <ele>1280.0</ele>
        <time>2018-09-16T12:35:32Z</time>
      </trkpt>
      <trkpt lat="40.255800" lon="-4.915467">
        <ele>1280.0</ele>
        <time>2018-09-16T12:35:33Z</time>
      </trkpt>
      <trkpt lat="40.255767" lon="-4.915400">
        <ele>1280.0</ele>
        <time>2018-09-16T12:35:34Z</time>
      </trkpt>
      <trkpt lat="40.255750" lon="-4.915333">
        <ele>1279.0</ele>
        <time>2018-09-16T12:35:35Z</time>
      </trkpt>
      <trkpt lat="40.255717" lon="-4.915267">
        <ele>1278.0</ele>
        <time>2018-09-16T12:35:36Z</time>
      </trkpt>
      <trkpt lat="40.255667" lon="-4.915200">
        <ele>1277.0</ele>
        <time>2018-09-16T12:35:37Z</time>
      </trkpt>
      <trkpt lat="40.255633" lon="-4.915167">
        <ele>1275.0</ele>
        <time>2018-09-16T12:35:38Z</time>
      </trkpt>
      <trkpt lat="40.255583" lon="-4.915100">
        <ele>1275.0</ele>
        <time>2018-09-16T12:35:39Z</time>
      </trkpt>
      <trkpt lat="40.255533" lon="-4.915033">
        <ele>1274.0</ele>
        <time>2018-09-16T12:35:40Z</time>
      </trkpt>
      <trkpt lat="40.255500" lon="-4.914950">
        <ele>1273.0</ele>
        <time>2018-09-16T12:35:41Z</time>
      </trkpt>
      <trkpt lat="40.255450" lon="-4.914900">
        <ele>1273.0</ele>
        <time>2018-09-16T12:35:42Z</time>
      </trkpt>
      <trkpt lat="40.255400" lon="-4.914833">
        <ele>1273.0</ele>
        <time>2018-09-16T12:35:43Z</time>
      </trkpt>
      <trkpt lat="40.255367" lon="-4.914767">
        <ele>1273.0</ele>
        <time>2018-09-16T12:35:44Z</time>
      </trkpt>
      <trkpt lat="40.255333" lon="-4.914700">
        <ele>1273.0</ele>
        <time>2018-09-16T12:35:45Z</time>
      </trkpt>
      <trkpt lat="40.255300" lon="-4.914650">
        <ele>1273.0</ele>
        <time>2018-09-16T12:35:46Z</time>
      </trkpt>
      <trkpt lat="40.255283" lon="-4.914600">
        <ele>1273.0</ele>
        <time>2018-09-16T12:35:47Z</time>
      </trkpt>
      <trkpt lat="40.255250" lon="-4.914550">
        <ele>1272.0</ele>
        <time>2018-09-16T12:35:48Z</time>
      </trkpt>
      <trkpt lat="40.255217" lon="-4.914483">
        <ele>1270.0</ele>
        <time>2018-09-16T12:35:49Z</time>
      </trkpt>
      <trkpt lat="40.255183" lon="-4.914417">
        <ele>1268.0</ele>
        <time>2018-09-16T12:35:50Z</time>
      </trkpt>
      <trkpt lat="40.255133" lon="-4.914350">
        <ele>1266.0</ele>
        <time>2018-09-16T12:35:51Z</time>
      </trkpt>
      <trkpt lat="40.255100" lon="-4.914267">
        <ele>1265.0</ele>
        <time>2018-09-16T12:35:52Z</time>
      </trkpt>
      <trkpt lat="40.255067" lon="-4.914200">
        <ele>1263.0</ele>
        <time>2018-09-16T12:35:53Z</time>
      </trkpt>
      <trkpt lat="40.255050" lon="-4.914133">
        <ele>1261.0</ele>
        <time>2018-09-16T12:35:54Z</time>
      </trkpt>
      <trkpt lat="40.255033" lon="-4.914050">
        <ele>1258.0</ele>
        <time>2018-09-16T12:35:55Z</time>
      </trkpt>
      <trkpt lat="40.255033" lon="-4.913967">
        <ele>1256.0</ele>
        <time>2018-09-16T12:35:56Z</time>
      </trkpt>
      <trkpt lat="40.255050" lon="-4.913850">
        <ele>1253.0</ele>
        <time>2018-09-16T12:35:57Z</time>
      </trkpt>
      <trkpt lat="40.255100" lon="-4.913733">
        <ele>1252.0</ele>
        <time>2018-09-16T12:35:58Z</time>
      </trkpt>
      <trkpt lat="40.255133" lon="-4.913617">
        <ele>1251.0</ele>
        <time>2018-09-16T12:35:59Z</time>
      </trkpt>
      <trkpt lat="40.255167" lon="-4.913517">
        <ele>1252.0</ele>
        <time>2018-09-16T12:36:00Z</time>
      </trkpt>
      <trkpt lat="40.255167" lon="-4.913417">
        <ele>1252.0</ele>
        <time>2018-09-16T12:36:01Z</time>
      </trkpt>
      <trkpt lat="40.255133" lon="-4.913333">
        <ele>1251.0</ele>
        <time>2018-09-16T12:36:02Z</time>
      </trkpt>
      <trkpt lat="40.255117" lon="-4.913250">
        <ele>1250.0</ele>
        <time>2018-09-16T12:36:03Z</time>
      </trkpt>
      <trkpt lat="40.255083" lon="-4.913150">
        <ele>1249.0</ele>
        <time>2018-09-16T12:36:04Z</time>
      </trkpt>
      <trkpt lat="40.255083" lon="-4.913050">
        <ele>1248.0</ele>
        <time>2018-09-16T12:36:05Z</time>
      </trkpt>
      <trkpt lat="40.255050" lon="-4.912950">
        <ele>1248.0</ele>
        <time>2018-09-16T12:36:06Z</time>
      </trkpt>
      <trkpt lat="40.255017" lon="-4.912867">
        <ele>1247.0</ele>
        <time>2018-09-16T12:36:07Z</time>
      </trkpt>
      <trkpt lat="40.254967" lon="-4.912800">
        <ele>1246.0</ele>
        <time>2018-09-16T12:36:08Z</time>
      </trkpt>
      <trkpt lat="40.254917" lon="-4.912750">
        <ele>1244.0</ele>
        <time>2018-09-16T12:36:09Z</time>
      </trkpt>
      <trkpt lat="40.254850" lon="-4.912717">
        <ele>1241.0</ele>
        <time>2018-09-16T12:36:10Z</time>
      </trkpt>
      <trkpt lat="40.254783" lon="-4.912683">
        <ele>1239.0</ele>
        <time>2018-09-16T12:36:11Z</time>
      </trkpt>
      <trkpt lat="40.254700" lon="-4.912650">
        <ele>1237.0</ele>
        <time>2018-09-16T12:36:12Z</time>
      </trkpt>
      <trkpt lat="40.254617" lon="-4.912633">
        <ele>1237.0</ele>
        <time>2018-09-16T12:36:13Z</time>
      </trkpt>
      <trkpt lat="40.254533" lon="-4.912617">
        <ele>1238.0</ele>
        <time>2018-09-16T12:36:14Z</time>
      </trkpt>
      <trkpt lat="40.254450" lon="-4.912617">
        <ele>1239.0</ele>
        <time>2018-09-16T12:36:15Z</time>
      </trkpt>
      <trkpt lat="40.254383" lon="-4.912633">
        <ele>1241.0</ele>
        <time>2018-09-16T12:36:16Z</time>
      </trkpt>
      <trkpt lat="40.254300" lon="-4.912650">
        <ele>1243.0</ele>
        <time>2018-09-16T12:36:17Z</time>
      </trkpt>
      <trkpt lat="40.254217" lon="-4.912683">
        <ele>1245.0</ele>
        <time>2018-09-16T12:36:18Z</time>
      </trkpt>
      <trkpt lat="40.254150" lon="-4.912700">
        <ele>1248.0</ele>
        <time>2018-09-16T12:36:19Z</time>
      </trkpt>
      <trkpt lat="40.254083" lon="-4.912767">
        <ele>1252.0</ele>
        <time>2018-09-16T12:36:20Z</time>
      </trkpt>
      <trkpt lat="40.254017" lon="-4.912833">
        <ele>1255.0</ele>
        <time>2018-09-16T12:36:21Z</time>
      </trkpt>
      <trkpt lat="40.254000" lon="-4.912933">
        <ele>1257.0</ele>
        <time>2018-09-16T12:36:22Z</time>
      </trkpt>
      <trkpt lat="40.253967" lon="-4.913017">
        <ele>1259.0</ele>
        <time>2018-09-16T12:36:23Z</time>
      </trkpt>
      <trkpt lat="40.253967" lon="-4.913100">
        <ele>1260.0</ele>
        <time>2018-09-16T12:36:24Z</time>
      </trkpt>
      <trkpt lat="40.253967" lon="-4.913200">
        <ele>1260.0</ele>
        <time>2018-09-16T12:36:25Z</time>
      </trkpt>
      <trkpt lat="40.254000" lon="-4.913300">
        <ele>1258.0</ele>
        <time>2018-09-16T12:36:26Z</time>
      </trkpt>
      <trkpt lat="40.254067" lon="-4.913400">
        <ele>1256.0</ele>
        <time>2018-09-16T12:36:27Z</time>
      </trkpt>
      <trkpt lat="40.254167" lon="-4.913483">
        <ele>1255.0</ele>
        <time>2018-09-16T12:36:28Z</time>
      </trkpt>
      <trkpt lat="40.254283" lon="-4.913550">
        <ele>1255.0</ele>
        <time>2018-09-16T12:36:29Z</time>
      </trkpt>
      <trkpt lat="40.254417" lon="-4.913583">
        <ele>1256.0</ele>
        <time>2018-09-16T12:36:30Z</time>
      </trkpt>
      <trkpt lat="40.254533" lon="-4.913567">
        <ele>1256.0</ele>
        <time>2018-09-16T12:36:31Z</time>
      </trkpt>
      <trkpt lat="40.254633" lon="-4.913500">
        <ele>1256.0</ele>
        <time>2018-09-16T12:36:32Z</time>
      </trkpt>
      <trkpt lat="40.254733" lon="-4.913400">
        <ele>1257.0</ele>
        <time>2018-09-16T12:36:33Z</time>
      </trkpt>
      <trkpt lat="40.254817" lon="-4.913283">
        <ele>1260.0</ele>
        <time>2018-09-16T12:36:34Z</time>
      </trkpt>
      <trkpt lat="40.254883" lon="-4.913183">
        <ele>1264.0</ele>
        <time>2018-09-16T12:36:35Z</time>
      </trkpt>
      <trkpt lat="40.254950" lon="-4.913100">
        <ele>1268.0</ele>
        <time>2018-09-16T12:36:36Z</time>
      </trkpt>
      <trkpt lat="40.255017" lon="-4.913017">
        <ele>1271.0</ele>
        <time>2018-09-16T12:36:37Z</time>
      </trkpt>
      <trkpt lat="40.255050" lon="-4.912933">
        <ele>1273.0</ele>
        <time>2018-09-16T12:36:38Z</time>
      </trkpt>
      <trkpt lat="40.255100" lon="-4.912833">
        <ele>1273.0</ele>
        <time>2018-09-16T12:36:39Z</time>
      </trkpt>
      <trkpt lat="40.255117" lon="-4.912733">
        <ele>1273.0</ele>
        <time>2018-09-16T12:36:40Z</time>
      </trkpt>
      <trkpt lat="40.255133" lon="-4.912617">
        <ele>1273.0</ele>
        <time>2018-09-16T12:36:41Z</time>
      </trkpt>
      <trkpt lat="40.255117" lon="-4.912500">
        <ele>1272.0</ele>
        <time>2018-09-16T12:36:42Z</time>
      </trkpt>
      <trkpt lat="40.255100" lon="-4.912400">
        <ele>1273.0</ele>
        <time>2018-09-16T12:36:43Z</time>
      </trkpt>
      <trkpt lat="40.255067" lon="-4.912300">
        <ele>1274.0</ele>
        <time>2018-09-16T12:36:44Z</time>
      </trkpt>
      <trkpt lat="40.255050" lon="-4.912200">
        <ele>1275.0</ele>
        <time>2018-09-16T12:36:45Z</time>
      </trkpt>
      <trkpt lat="40.255017" lon="-4.912100">
        <ele>1277.0</ele>
        <time>2018-09-16T12:36:46Z</time>
      </trkpt>
      <trkpt lat="40.254983" lon="-4.912033">
        <ele>1279.0</ele>
        <time>2018-09-16T12:36:47Z</time>
      </trkpt>
      <trkpt lat="40.254950" lon="-4.911950">
        <ele>1281.0</ele>
        <time>2018-09-16T12:36:48Z</time>
      </trkpt>
      <trkpt lat="40.254900" lon="-4.911900">
        <ele>1283.0</ele>
        <time>2018-09-16T12:36:49Z</time>
      </trkpt>
      <trkpt lat="40.254833" lon="-4.911833">
        <ele>1284.0</ele>
        <time>2018-09-16T12:36:50Z</time>
      </trkpt>
      <trkpt lat="40.254767" lon="-4.911800">
        <ele>1286.0</ele>
        <time>2018-09-16T12:36:51Z</time>
      </trkpt>
      <trkpt lat="40.254700" lon="-4.911750">
        <ele>1289.0</ele>
        <time>2018-09-16T12:36:52Z</time>
      </trkpt>
      <trkpt lat="40.254650" lon="-4.911700">
        <ele>1292.0</ele>
        <time>2018-09-16T12:36:53Z</time>
      </trkpt>
      <trkpt lat="40.254600" lon="-4.911633">
        <ele>1296.0</ele>
        <time>2018-09-16T12:36:54Z</time>
      </trkpt>
      <trkpt lat="40.254533" lon="-4.911583">
        <ele>1299.0</ele>
        <time>2018-09-16T12:36:55Z</time>
      </trkpt>
      <trkpt lat="40.254483" lon="-4.911550">
        <ele>1301.0</ele>
        <time>2018-09-16T12:36:56Z</time>
      </trkpt>
      <trkpt lat="40.254433" lon="-4.911517">
        <ele>1303.0</ele>
        <time>2018-09-16T12:36:57Z</time>
      </trkpt>
      <trkpt lat="40.254367" lon="-4.911533">
        <ele>1304.0</ele>
        <time>2018-09-16T12:36:58Z</time>
      </trkpt>
      <trkpt lat="40.254317" lon="-4.911583">
        <ele>1304.0</ele>
        <time>2018-09-16T12:36:59Z</time>
      </trkpt>
      <trkpt lat="40.254267" lon="-4.911650">
        <ele>1305.0</ele>
        <time>2018-09-16T12:37:00Z</time>
      </trkpt>
      <trkpt lat="40.254250" lon="-4.911767">
        <ele>1306.0</ele>
        <time>2018-09-16T12:37:01Z</time>
      </trkpt>
      <trkpt lat="40.254267" lon="-4.911867">
        <ele>1307.0</ele>
        <time>2018-09-16T12:37:02Z</time>
      </trkpt>
      <trkpt lat="40.254300" lon="-4.911967">
        <ele>1309.0</ele>
        <time>2018-09-16T12:37:03Z</time>
      </trkpt>
      <trkpt lat="40.254350" lon="-4.912067">
        <ele>1310.0</ele>
        <time>2018-09-16T12:37:04Z</time>
      </trkpt>
      <trkpt lat="40.254400" lon="-4.912117">
        <ele>1312.0</ele>
        <time>2018-09-16T12:37:05Z</time>
      </trkpt>
      <trkpt lat="40.254483" lon="-4.912150">
        <ele>1313.0</ele>
        <time>2018-09-16T12:37:06Z</time>
      </trkpt>
      <trkpt lat="40.254567" lon="-4.912183">
        <ele>1312.0</ele>
        <time>2018-09-16T12:37:07Z</time>
      </trkpt>
      <trkpt lat="40.254683" lon="-4.912200">
        <ele>1313.0</ele>
        <time>2018-09-16T12:37:08Z</time>
      </trkpt>
      <trkpt lat="40.254800" lon="-4.912200">
        <ele>1315.0</ele>
        <time>2018-09-16T12:37:09Z</time>
      </trkpt>
      <trkpt lat="40.254900" lon="-4.912183">
        <ele>1319.0</ele>
        <time>2018-09-16T12:37:10Z</time>
      </trkpt>
      <trkpt lat="40.255000" lon="-4.912133">
        <ele>1322.0</ele>
        <time>2018-09-16T12:37:11Z</time>
      </trkpt>
      <trkpt lat="40.255083" lon="-4.912067">
        <ele>1325.0</ele>
        <time>2018-09-16T12:37:12Z</time>
      </trkpt>
      <trkpt lat="40.255150" lon="-4.911967">
        <ele>1328.0</ele>
        <time>2018-09-16T12:37:13Z</time>
      </trkpt>
      <trkpt lat="40.255200" lon="-4.911850">
        <ele>1330.0</ele>
        <time>2018-09-16T12:37:14Z</time>
      </trkpt>
      <trkpt lat="40.255200" lon="-4.911733">
        <ele>1333.0</ele>
        <time>2018-09-16T12:37:15Z</time>
      </trkpt>
      <trkpt lat="40.255200" lon="-4.911633">
        <ele>1336.0</ele>
        <time>2018-09-16T12:37:16Z</time>
      </trkpt>
      <trkpt lat="40.255150" lon="-4.911550">
        <ele>1339.0</ele>
        <time>2018-09-16T12:37:17Z</time>
      </trkpt>
      <trkpt lat="40.255117" lon="-4.911500">
        <ele>1340.0</ele>
        <time>2018-09-16T12:37:18Z</time>
      </trkpt>
      <trkpt lat="40.255067" lon="-4.911450">
        <ele>1341.0</ele>
        <time>2018-09-16T12:37:19Z</time>
      </trkpt>
      <trkpt lat="40.255017" lon="-4.911417">
        <ele>1343.0</ele>
        <time>2018-09-16T12:37:20Z</time>
      </trkpt>
      <trkpt lat="40.254950" lon="-4.911400">
        <ele>1344.0</ele>
        <time>2018-09-16T12:37:21Z</time>
      </trkpt>
      <trkpt lat="40.254867" lon="-4.911417">
        <ele>1346.0</ele>
        <time>2018-09-16T12:37:22Z</time>
      </trkpt>
      <trkpt lat="40.254800" lon="-4.911450">
        <ele>1348.0</ele>
        <time>2018-09-16T12:37:23Z</time>
      </trkpt>
      <trkpt lat="40.254733" lon="-4.911500">
        <ele>1350.0</ele>
        <time>2018-09-16T12:37:24Z</time>
      </trkpt>
      <trkpt lat="40.254683" lon="-4.911583">
        <ele>1353.0</ele>
        <time>2018-09-16T12:37:25Z</time>
      </trkpt>
      <trkpt lat="40.254650" lon="-4.911683">
        <ele>1355.0</ele>
        <time>2018-09-16T12:37:26Z</time>
      </trkpt>
      <trkpt lat="40.254633" lon="-4.911783">
        <ele>1357.0</ele>
        <time>2018-09-16T12:37:27Z</time>
      </trkpt>
      <trkpt lat="40.254633" lon="-4.911883">
        <ele>1358.0</ele>
        <time>2018-09-16T12:37:28Z</time>
      </trkpt>
      <trkpt lat="40.254633" lon="-4.911983">
        <ele>1360.0</ele>
        <time>2018-09-16T12:37:29Z</time>
      </trkpt>
      <trkpt lat="40.254650" lon="-4.912067">
        <ele>1362.0</ele>
        <time>2018-09-16T12:37:30Z</time>
      </trkpt>
      <trkpt lat="40.254700" lon="-4.912150">
        <ele>1363.0</ele>
        <time>2018-09-16T12:37:31Z</time>
      </trkpt>
      <trkpt lat="40.254767" lon="-4.912233">
        <ele>1365.0</ele>
        <time>2018-09-16T12:37:32Z</time>
      </trkpt>
      <trkpt lat="40.254833" lon="-4.912317">
        <ele>1367.0</ele>
        <time>2018-09-16T12:37:33Z</time>
      </trkpt>
      <trkpt lat="40.254933" lon="-4.912367">
        <ele>1369.0</ele>
        <time>2018-09-16T12:37:34Z</time>
      </trkpt>
      <trkpt lat="40.255033" lon="-4.912400">
        <ele>1371.0</ele>
        <time>2018-09-16T12:37:35Z</time>
      </trkpt>
      <trkpt lat="40.255150" lon="-4.912367">
        <ele>1373.0</ele>
        <time>2018-09-16T12:37:36Z</time>
      </trkpt>
      <trkpt lat="40.255250" lon="-4.912300">
        <ele>1375.0</ele>
        <time>2018-09-16T12:37:37Z</time>
      </trkpt>
      <trkpt lat="40.255333" lon="-4.912217">
        <ele>1377.0</ele>
        <time>2018-09-16T12:37:38Z</time>
      </trkpt>
      <trkpt lat="40.255417" lon="-4.912133">
        <ele>1381.0</ele>
        <time>2018-09-16T12:37:39Z</time>
      </trkpt>
      <trkpt lat="40.255500" lon="-4.912050">
        <ele>1384.0</ele>
        <time>2018-09-16T12:37:40Z</time>
      </trkpt>
      <trkpt lat="40.255550" lon="-4.911967">
        <ele>1386.0</ele>
        <time>2018-09-16T12:37:41Z</time>
      </trkpt>
      <trkpt lat="40.255600" lon="-4.911850">
        <ele>1388.0</ele>
        <time>2018-09-16T12:37:42Z</time>
      </trkpt>
      <trkpt lat="40.255600" lon="-4.911750">
        <ele>1390.0</ele>
        <time>2018-09-16T12:37:43Z</time>
      </trkpt>
      <trkpt lat="40.255600" lon="-4.911650">
        <ele>1392.0</ele>
        <time>2018-09-16T12:37:44Z</time>
      </trkpt>
      <trkpt lat="40.255567" lon="-4.911583">
        <ele>1395.0</ele>
        <time>2018-09-16T12:37:45Z</time>
      </trkpt>
      <trkpt lat="40.255533" lon="-4.911533">
        <ele>1397.0</ele>
        <time>2018-09-16T12:37:46Z</time>
      </trkpt>
      <trkpt lat="40.255483" lon="-4.911500">
        <ele>1398.0</ele>
        <time>2018-09-16T12:37:47Z</time>
      </trkpt>
      <trkpt lat="40.255433" lon="-4.911500">
        <ele>1398.0</ele>
        <time>2018-09-16T12:37:48Z</time>
      </trkpt>
      <trkpt lat="40.255350" lon="-4.911517">
        <ele>1399.0</ele>
        <time>2018-09-16T12:37:49Z</time>
      </trkpt>
      <trkpt lat="40.255267" lon="-4.911550">
        <ele>1400.0</ele>
        <time>2018-09-16T12:37:50Z</time>
      </trkpt>
      <trkpt lat="40.255200" lon="-4.911600">
        <ele>1403.0</ele>
        <time>2018-09-16T12:37:51Z</time>
      </trkpt>
      <trkpt lat="40.255117" lon="-4.911683">
        <ele>1406.0</ele>
        <time>2018-09-16T12:37:52Z</time>
      </trkpt>
      <trkpt lat="40.255067" lon="-4.911783">
        <ele>1409.0</ele>
        <time>2018-09-16T12:37:53Z</time>
      </trkpt>
      <trkpt lat="40.255033" lon="-4.911900">
        <ele>1412.0</ele>
        <time>2018-09-16T12:37:54Z</time>
      </trkpt>
      <trkpt lat="40.255017" lon="-4.912033">
        <ele>1415.0</ele>
        <time>2018-09-16T12:37:55Z</time>
      </trkpt>
      <trkpt lat="40.255033" lon="-4.912167">
        <ele>1418.0</ele>
        <time>2018-09-16T12:37:56Z</time>
      </trkpt>
      <trkpt lat="40.255083" lon="-4.912267">
        <ele>1420.0</ele>
        <time>2018-09-16T12:37:57Z</time>
      </trkpt>
      <trkpt lat="40.255150" lon="-4.912350">
        <ele>1423.0</ele>
        <time>2018-09-16T12:37:58Z</time>
      </trkpt>
      <trkpt lat="40.255250" lon="-4.912417">
        <ele>1424.0</ele>
        <time>2018-09-16T12:37:59Z</time>
      </trkpt>
      <trkpt lat="40.255350" lon="-4.912433">
        <ele>1426.0</ele>
        <time>2018-09-16T12:38:00Z</time>
      </trkpt>
      <trkpt lat="40.255450" lon="-4.912433">
        <ele>1427.0</ele>
        <time>2018-09-16T12:38:01Z</time>
      </trkpt>
      <trkpt lat="40.255550" lon="-4.912400">
        <ele>1429.0</ele>
        <time>2018-09-16T12:38:02Z</time>
      </trkpt>
      <trkpt lat="40.255633" lon="-4.912367">
        <ele>1430.0</ele>
        <time>2018-09-16T12:38:03Z</time>
      </trkpt>
      <trkpt lat="40.255717" lon="-4.912283">
        <ele>1432.0</ele>
        <time>2018-09-16T12:38:04Z</time>
      </trkpt>
      <trkpt lat="40.255767" lon="-4.912183">
        <ele>1433.0</ele>
        <time>2018-09-16T12:38:05Z</time>
      </trkpt>
      <trkpt lat="40.255817" lon="-4.912050">
        <ele>1434.0</ele>
        <time>2018-09-16T12:38:06Z</time>
      </trkpt>
      <trkpt lat="40.255833" lon="-4.911900">
        <ele>1436.0</ele>
        <time>2018-09-16T12:38:07Z</time>
      </trkpt>
      <trkpt lat="40.255833" lon="-4.911783">
        <ele>1440.0</ele>
        <time>2018-09-16T12:38:08Z</time>
      </trkpt>
      <trkpt lat="40.255817" lon="-4.911683">
        <ele>1445.0</ele>
        <time>2018-09-16T12:38:09Z</time>
      </trkpt>
      <trkpt lat="40.255783" lon="-4.911633">
        <ele>1447.0</ele>
        <time>2018-09-16T12:38:10Z</time>
      </trkpt>
      <trkpt lat="40.255750" lon="-4.911600">
        <ele>1448.0</ele>
        <time>2018-09-16T12:38:11Z</time>
      </trkpt>
      <trkpt lat="40.255717" lon="-4.911567">
        <ele>1448.0</ele>
        <time>2018-09-16T12:38:12Z</time>
      </trkpt>
      <trkpt lat="40.255683" lon="-4.911533">
        <ele>1448.0</ele>
        <time>2018-09-16T12:38:13Z</time>
      </trkpt>
      <trkpt lat="40.255633" lon="-4.911500">
        <ele>1447.0</ele>
        <time>2018-09-16T12:38:14Z</time>
      </trkpt>
      <trkpt lat="40.255583" lon="-4.911467">
        <ele>1445.0</ele>
        <time>2018-09-16T12:38:15Z</time>
      </trkpt>
      <trkpt lat="40.255500" lon="-4.911467">
        <ele>1444.0</ele>
        <time>2018-09-16T12:38:16Z</time>
      </trkpt>
      <trkpt lat="40.255417" lon="-4.911467">
        <ele>1444.0</ele>
        <time>2018-09-16T12:38:17Z</time>
      </trkpt>
      <trkpt lat="40.255317" lon="-4.911500">
        <ele>1445.0</ele>
        <time>2018-09-16T12:38:18Z</time>
      </trkpt>
      <trkpt lat="40.255233" lon="-4.911567">
        <ele>1447.0</ele>
        <time>2018-09-16T12:38:19Z</time>
      </trkpt>
      <trkpt lat="40.255150" lon="-4.911633">
        <ele>1450.0</ele>
        <time>2018-09-16T12:38:20Z</time>
      </trkpt>
      <trkpt lat="40.255100" lon="-4.911733">
        <ele>1451.0</ele>
        <time>2018-09-16T12:38:21Z</time>
      </trkpt>
      <trkpt lat="40.255083" lon="-4.911850">
        <ele>1452.0</ele>
        <time>2018-09-16T12:38:22Z</time>
      </trkpt>
      <trkpt lat="40.255083" lon="-4.911983">
        <ele>1453.0</ele>
        <time>2018-09-16T12:38:23Z</time>
      </trkpt>
      <trkpt lat="40.255117" lon="-4.912083">
        <ele>1454.0</ele>
        <time>2018-09-16T12:38:24Z</time>
      </trkpt>
      <trkpt lat="40.255183" lon="-4.912167">
        <ele>1455.0</ele>
        <time>2018-09-16T12:38:25Z</time>
      </trkpt>
      <trkpt lat="40.255250" lon="-4.912233">
        <ele>1455.0</ele>
        <time>2018-09-16T12:38:26Z</time>
      </trkpt>
      <trkpt lat="40.255317" lon="-4.912267">
        <ele>1455.0</ele>
        <time>2018-09-16T12:38:27Z</time>
      </trkpt>
      <trkpt lat="40.255400" lon="-4.912300">
        <ele>1456.0</ele>
        <time>2018-09-16T12:38:28Z</time>
      </trkpt>
      <trkpt lat="40.255467" lon="-4.912317">
        <ele>1457.0</ele>
        <time>2018-09-16T12:38:29Z</time>
      </trkpt>
      <trkpt lat="40.255550" lon="-4.912350">
        <ele>1458.0</ele>
        <time>2018-09-16T12:38:30Z</time>
      </trkpt>
      <trkpt lat="40.255633" lon="-4.912367">
        <ele>1459.0</ele>
        <time>2018-09-16T12:38:31Z</time>
      </trkpt>
      <trkpt lat="40.255717" lon="-4.912350">
        <ele>1459.0</ele>
        <time>2018-09-16T12:38:32Z</time>
      </trkpt>
      <trkpt lat="40.255817" lon="-4.912317">
        <ele>1460.0</ele>
        <time>2018-09-16T12:38:33Z</time>
      </trkpt>
      <trkpt lat="40.255900" lon="-4.912250">
        <ele>1461.0</ele>
        <time>2018-09-16T12:38:34Z</time>
      </trkpt>
      <trkpt lat="40.255983" lon="-4.912183">
        <ele>1465.0</ele>
        <time>2018-09-16T12:38:35Z</time>
      </trkpt>
      <trkpt lat="40.256083" lon="-4.912150">
        <ele>1468.0</ele>
        <time>2018-09-16T12:38:36Z</time>
      </trkpt>
      <trkpt lat="40.256183" lon="-4.912150">
        <ele>1469.0</ele>
        <time>2018-09-16T12:38:37Z</time>
      </trkpt>
      <trkpt lat="40.256267" lon="-4.912150">
        <ele>1469.0</ele>
        <time>2018-09-16T12:38:38Z</time>
      </trkpt>
      <trkpt lat="40.256350" lon="-4.912150">
        <ele>1470.0</ele>
        <time>2018-09-16T12:38:39Z</time>
      </trkpt>
      <trkpt lat="40.256417" lon="-4.912100">
        <ele>1469.0</ele>
        <time>2018-09-16T12:38:40Z</time>
      </trkpt>
      <trkpt lat="40.256483" lon="-4.912033">
        <ele>1468.0</ele>
        <time>2018-09-16T12:38:41Z</time>
      </trkpt>
      <trkpt lat="40.256500" lon="-4.911950">
        <ele>1467.0</ele>
        <time>2018-09-16T12:38:42Z</time>
      </trkpt>
      <trkpt lat="40.256517" lon="-4.911850">
        <ele>1467.0</ele>
        <time>2018-09-16T12:38:43Z</time>
      </trkpt>
      <trkpt lat="40.256483" lon="-4.911767">
        <ele>1466.0</ele>
        <time>2018-09-16T12:38:44Z</time>
      </trkpt>
      <trkpt lat="40.256433" lon="-4.911700">
        <ele>1465.0</ele>
        <time>2018-09-16T12:38:45Z</time>
      </trkpt>
      <trkpt lat="40.256367" lon="-4.911650">
        <ele>1465.0</ele>
        <time>2018-09-16T12:38:46Z</time>
      </trkpt>
      <trkpt lat="40.256317" lon="-4.911617">
        <ele>1466.0</ele>
        <time>2018-09-16T12:38:47Z</time>
      </trkpt>
      <trkpt lat="40.256250" lon="-4.911567">
        <ele>1468.0</ele>
        <time>2018-09-16T12:38:48Z</time>
      </trkpt>
      <trkpt lat="40.256200" lon="-4.911500">
        <ele>1469.0</ele>
        <time>2018-09-16T12:38:49Z</time>
      </trkpt>
      <trkpt lat="40.256150" lon="-4.911417">
        <ele>1470.0</ele>
        <time>2018-09-16T12:38:50Z</time>
      </trkpt>
      <trkpt lat="40.256100" lon="-4.911317">
        <ele>1472.0</ele>
        <time>2018-09-16T12:38:51Z</time>
      </trkpt>
      <trkpt lat="40.256067" lon="-4.911200">
        <ele>1474.0</ele>
        <time>2018-09-16T12:38:52Z</time>
      </trkpt>
      <trkpt lat="40.256033" lon="-4.911083">
        <ele>1477.0</ele>
        <time>2018-09-16T12:38:53Z</time>
      </trkpt>
      <trkpt lat="40.255983" lon="-4.911000">
        <ele>1480.0</ele>
        <time>2018-09-16T12:38:54Z</time>
      </trkpt>
      <trkpt lat="40.255917" lon="-4.910933">
        <ele>1481.0</ele>
        <time>2018-09-16T12:38:55Z</time>
      </trkpt>
      <trkpt lat="40.255817" lon="-4.910883">
        <ele>1482.0</ele>
        <time>2018-09-16T12:38:56Z</time>
      </trkpt>
      <trkpt lat="40.255717" lon="-4.910867">
        <ele>1482.0</ele>
        <time>2018-09-16T12:38:57Z</time>
      </trkpt>
      <trkpt lat="40.255617" lon="-4.910883">
        <ele>1484.0</ele>
        <time>2018-09-16T12:38:58Z</time>
      </trkpt>
      <trkpt lat="40.255533" lon="-4.910933">
        <ele>1486.0</ele>
        <time>2018-09-16T12:38:59Z</time>
      </trkpt>
      <trkpt lat="40.255450" lon="-4.911017">
        <ele>1487.0</ele>
        <time>2018-09-16T12:39:00Z</time>
      </trkpt>
      <trkpt lat="40.255417" lon="-4.911133">
        <ele>1488.0</ele>
        <time>2018-09-16T12:39:01Z</time>
      </trkpt>
      <trkpt lat="40.255400" lon="-4.911267">
        <ele>1490.0</ele>
        <time>2018-09-16T12:39:02Z</time>
      </trkpt>
      <trkpt lat="40.255433" lon="-4.911383">
        <ele>1494.0</ele>
        <time>2018-09-16T12:39:03Z</time>
      </trkpt>
      <trkpt lat="40.255467" lon="-4.911500">
        <ele>1498.0</ele>
        <time>2018-09-16T12:39:04Z</time>
      </trkpt>
      <trkpt lat="40.255517" lon="-4.911583">
        <ele>1499.0</ele>
        <time>2018-09-16T12:39:05Z</time>
      </trkpt>
      <trkpt lat="40.255583" lon="-4.911633">
        <ele>1499.0</ele>
        <time>2018-09-16T12:39:06Z</time>
      </trkpt>
      <trkpt lat="40.255667" lon="-4.911700">
        <ele>1498.0</ele>
        <time>2018-09-16T12:39:07Z</time>
      </trkpt>
      <trkpt lat="40.255767" lon="-4.911733">
        <ele>1498.0</ele>
        <time>2018-09-16T12:39:08Z</time>
      </trkpt>
      <trkpt lat="40.255867" lon="-4.911750">
        <ele>1499.0</ele>
        <time>2018-09-16T12:39:09Z</time>
      </trkpt>
      <trkpt lat="40.255967" lon="-4.911733">
        <ele>1501.0</ele>
        <time>2018-09-16T12:39:10Z</time>
      </trkpt>
      <trkpt lat="40.256050" lon="-4.911683">
        <ele>1502.0</ele>
        <time>2018-09-16T12:39:11Z</time>
      </trkpt>
      <trkpt lat="40.256117" lon="-4.911617">
        <ele>1503.0</ele>
        <time>2018-09-16T12:39:12Z</time>
      </trkpt>
      <trkpt lat="40.256167" lon="-4.911517">
        <ele>1504.0</ele>
        <time>2018-09-16T12:39:13Z</time>
      </trkpt>
      <trkpt lat="40.256200" lon="-4.911400">
        <ele>1503.0</ele>
        <time>2018-09-16T12:39:14Z</time>
      </trkpt>
      <trkpt lat="40.256233" lon="-4.911267">
        <ele>1503.0</ele>
        <time>2018-09-16T12:39:15Z</time>
      </trkpt>
      <trkpt lat="40.256233" lon="-4.911133">
        <ele>1504.0</ele>
        <time>2018-09-16T12:39:16Z</time>
      </trkpt>
      <trkpt lat="40.256233" lon="-4.911000">
        <ele>1506.0</ele>
        <time>2018-09-16T12:39:17Z</time>
      </trkpt>
      <trkpt lat="40.256200" lon="-4.910883">
        <ele>1509.0</ele>
        <time>2018-09-16T12:39:18Z</time>
      </trkpt>
      <trkpt lat="40.256167" lon="-4.910783">
        <ele>1511.0</ele>
        <time>2018-09-16T12:39:19Z</time>
      </trkpt>
      <trkpt lat="40.256117" lon="-4.910700">
        <ele>1513.0</ele>
        <time>2018-09-16T12:39:20Z</time>
      </trkpt>
      <trkpt lat="40.256083" lon="-4.910600">
        <ele>1514.0</ele>
        <time>2018-09-16T12:39:21Z</time>
      </trkpt>
      <trkpt lat="40.256050" lon="-4.910483">
        <ele>1515.0</ele>
        <time>2018-09-16T12:39:22Z</time>
      </trkpt>
      <trkpt lat="40.256017" lon="-4.910400">
        <ele>1516.0</ele>
        <time>2018-09-16T12:39:23Z</time>
      </trkpt>
      <trkpt lat="40.255967" lon="-4.910300">
        <ele>1517.0</ele>
        <time>2018-09-16T12:39:24Z</time>
      </trkpt>
      <trkpt lat="40.255883" lon="-4.910233">
        <ele>1517.0</ele>
        <time>2018-09-16T12:39:25Z</time>
      </trkpt>
      <trkpt lat="40.255800" lon="-4.910200">
        <ele>1517.0</ele>
        <time>2018-09-16T12:39:26Z</time>
      </trkpt>
      <trkpt lat="40.255717" lon="-4.910200">
        <ele>1518.0</ele>
        <time>2018-09-16T12:39:27Z</time>
      </trkpt>
      <trkpt lat="40.255633" lon="-4.910200">
        <ele>1518.0</ele>
        <time>2018-09-16T12:39:28Z</time>
      </trkpt>
      <trkpt lat="40.255550" lon="-4.910217">
        <ele>1518.0</ele>
        <time>2018-09-16T12:39:29Z</time>
      </trkpt>
      <trkpt lat="40.255483" lon="-4.910250">
        <ele>1515.0</ele>
        <time>2018-09-16T12:39:30Z</time>
      </trkpt>
      <trkpt lat="40.255383" lon="-4.910317">
        <ele>1512.0</ele>
        <time>2018-09-16T12:39:31Z</time>
      </trkpt>
      <trkpt lat="40.255317" lon="-4.910400">
        <ele>1510.0</ele>
        <time>2018-09-16T12:39:32Z</time>
      </trkpt>
      <trkpt lat="40.255233" lon="-4.910533">
        <ele>1509.0</ele>
        <time>2018-09-16T12:39:33Z</time>
      </trkpt>
      <trkpt lat="40.255183" lon="-4.910650">
        <ele>1510.0</ele>
        <time>2018-09-16T12:39:34Z</time>
      </trkpt>
      <trkpt lat="40.255133" lon="-4.910783">
        <ele>1511.0</ele>
        <time>2018-09-16T12:39:35Z</time>
      </trkpt>
      <trkpt lat="40.255117" lon="-4.910917">
        <ele>1512.0</ele>
        <time>2018-09-16T12:39:36Z</time>
      </trkpt>
      <trkpt lat="40.255117" lon="-4.911067">
        <ele>1512.0</ele>
        <time>2018-09-16T12:39:37Z</time>
      </trkpt>
      <trkpt lat="40.255133" lon="-4.911200">
        <ele>1512.0</ele>
        <time>2018-09-16T12:39:38Z</time>
      </trkpt>
      <trkpt lat="40.255183" lon="-4.911317">
        <ele>1512.0</ele>
        <time>2018-09-16T12:39:39Z</time>
      </trkpt>
      <trkpt lat="40.255233" lon="-4.911400">
        <ele>1513.0</ele>
        <time>2018-09-16T12:39:40Z</time>
      </trkpt>
      <trkpt lat="40.255317" lon="-4.911483">
        <ele>1513.0</ele>
        <time>2018-09-16T12:39:41Z</time>
      </trkpt>
      <trkpt lat="40.255417" lon="-4.911567">
        <ele>1512.0</ele>
        <time>2018-09-16T12:39:42Z</time>
      </trkpt>
      <trkpt lat="40.255500" lon="-4.911617">
        <ele>1513.0</ele>
        <time>2018-09-16T12:39:43Z</time>
      </trkpt>
      <trkpt lat="40.255583" lon="-4.911650">
        <ele>1514.0</ele>
        <time>2018-09-16T12:39:44Z</time>
      </trkpt>
      <trkpt lat="40.255650" lon="-4.911667">
        <ele>1514.0</ele>
        <time>2018-09-16T12:39:45Z</time>
      </trkpt>
      <trkpt lat="40.255733" lon="-4.911683">
        <ele>1512.0</ele>
        <time>2018-09-16T12:39:46Z</time>
      </trkpt>
      <trkpt lat="40.255833" lon="-4.911667">
        <ele>1509.0</ele>
        <time>2018-09-16T12:39:47Z</time>
      </trkpt>
      <trkpt lat="40.255933" lon="-4.911633">
        <ele>1509.0</ele>
        <time>2018-09-16T12:39:48Z</time>
      </trkpt>
      <trkpt lat="40.256050" lon="-4.911583">
        <ele>1510.0</ele>
        <time>2018-09-16T12:39:49Z</time>
      </trkpt>
      <trkpt lat="40.256150" lon="-4.911517">
        <ele>1512.0</ele>
        <time>2018-09-16T12:39:50Z</time>
      </trkpt>
      <trkpt lat="40.256250" lon="-4.911433">
        <ele>1515.0</ele>
        <time>2018-09-16T12:39:51Z</time>
      </trkpt>
      <trkpt lat="40.256350" lon="-4.911367">
        <ele>1518.0</ele>
        <time>2018-09-16T12:39:52Z</time>
      </trkpt>
      <trkpt lat="40.256450" lon="-4.911283">
        <ele>1521.0</ele>
        <time>2018-09-16T12:39:53Z</time>
      </trkpt>
      <trkpt lat="40.256550" lon="-4.911217">
        <ele>1524.0</ele>
        <time>2018-09-16T12:39:54Z</time>
      </trkpt>
      <trkpt lat="40.256633" lon="-4.911117">
        <ele>1526.0</ele>
        <time>2018-09-16T12:39:55Z</time>
      </trkpt>
      <trkpt lat="40.256717" lon="-4.911000">
        <ele>1528.0</ele>
        <time>2018-09-16T12:39:56Z</time>
      </trkpt>
      <trkpt lat="40.256767" lon="-4.910883">
        <ele>1530.0</ele>
        <time>2018-09-16T12:39:57Z</time>
      </trkpt>
      <trkpt lat="40.256783" lon="-4.910767">
        <ele>1531.0</ele>
        <time>2018-09-16T12:39:58Z</time>
      </trkpt>
      <trkpt lat="40.256783" lon="-4.910667">
        <ele>1530.0</ele>
        <time>2018-09-16T12:39:59Z</time>
      </trkpt>
      <trkpt lat="40.256750" lon="-4.910550">
        <ele>1529.0</ele>
        <time>2018-09-16T12:40:00Z</time>
      </trkpt>
      <trkpt lat="40.256700" lon="-4.910433">
        <ele>1529.0</ele>
        <time>2018-09-16T12:40:01Z</time>
      </trkpt>
      <trkpt lat="40.256650" lon="-4.910333">
        <ele>1530.0</ele>
        <time>2018-09-16T12:40:02Z</time>
      </trkpt>
      <trkpt lat="40.256600" lon="-4.910283">
        <ele>1531.0</ele>
        <time>2018-09-16T12:40:03Z</time>
      </trkpt>
      <trkpt lat="40.256550" lon="-4.910250">
        <ele>1531.0</ele>
        <time>2018-09-16T12:40:04Z</time>
      </trkpt>
      <trkpt lat="40.256467" lon="-4.910250">
        <ele>1529.0</ele>
        <time>2018-09-16T12:40:05Z</time>
      </trkpt>
      <trkpt lat="40.256383" lon="-4.910267">
        <ele>1525.0</ele>
        <time>2018-09-16T12:40:06Z</time>
      </trkpt>
      <trkpt lat="40.256300" lon="-4.910333">
        <ele>1522.0</ele>
        <time>2018-09-16T12:40:07Z</time>
      </trkpt>
      <trkpt lat="40.256217" lon="-4.910433">
        <ele>1521.0</ele>
        <time>2018-09-16T12:40:08Z</time>
      </trkpt>
      <trkpt lat="40.256167" lon="-4.910550">
        <ele>1521.0</ele>
        <time>2018-09-16T12:40:09Z</time>
      </trkpt>
      <trkpt lat="40.256133" lon="-4.910700">
        <ele>1522.0</ele>
        <time>2018-09-16T12:40:10Z</time>
      </trkpt>
      <trkpt lat="40.256133" lon="-4.910833">
        <ele>1523.0</ele>
        <time>2018-09-16T12:40:11Z</time>
      </trkpt>
      <trkpt lat="40.256133" lon="-4.910967">
        <ele>1524.0</ele>
        <time>2018-09-16T12:40:12Z</time>
      </trkpt>
      <trkpt lat="40.256167" lon="-4.911100">
        <ele>1524.0</ele>
        <time>2018-09-16T12:40:13Z</time>
      </trkpt>
      <trkpt lat="40.256217" lon="-4.911200">
        <ele>1524.0</ele>
        <time>2018-09-16T12:40:14Z</time>
      </trkpt>
      <trkpt lat="40.256283" lon="-4.911300">
        <ele>1525.0</ele>
        <time>2018-09-16T12:40:15Z</time>
      </trkpt>
      <trkpt lat="40.256367" lon="-4.911383">
        <ele>1527.0</ele>
        <time>2018-09-16T12:40:16Z</time>
      </trkpt>
      <trkpt lat="40.256450" lon="-4.911450">
        <ele>1530.0</ele>
        <time>2018-09-16T12:40:17Z</time>
      </trkpt>
      <trkpt lat="40.256550" lon="-4.911500">
        <ele>1532.0</ele>
        <time>2018-09-16T12:40:18Z</time>
      </trkpt>
      <trkpt lat="40.256650" lon="-4.911533">
        <ele>1535.0</ele>
        <time>2018-09-16T12:40:19Z</time>
      </trkpt>
      <trkpt lat="40.256750" lon="-4.911517">
        <ele>1537.0</ele>
        <time>2018-09-16T12:40:20Z</time>
      </trkpt>
      <trkpt lat="40.256867" lon="-4.911467">
        <ele>1538.0</ele>
        <time>2018-09-16T12:40:21Z</time>
      </trkpt>
      <trkpt lat="40.256950" lon="-4.911367">
        <ele>1539.0</ele>
        <time>2018-09-16T12:40:22Z</time>
      </trkpt>
      <trkpt lat="40.257000" lon="-4.911233">
        <ele>1540.0</ele>
        <time>2018-09-16T12:40:23Z</time>
      </trkpt>
      <trkpt lat="40.257017" lon="-4.911117">
        <ele>1541.0</ele>
        <time>2018-09-16T12:40:24Z</time>
      </trkpt>
      <trkpt lat="40.257017" lon="-4.911000">
        <ele>1543.0</ele>
        <time>2018-09-16T12:40:25Z</time>
      </trkpt>
      <trkpt lat="40.256983" lon="-4.910917">
        <ele>1545.0</ele>
        <time>2018-09-16T12:40:26Z</time>
      </trkpt>
      <trkpt lat="40.256950" lon="-4.910850">
        <ele>1546.0</ele>
        <time>2018-09-16T12:40:27Z</time>
      </trkpt>
      <trkpt lat="40.256900" lon="-4.910800">
        <ele>1545.0</ele>
        <time>2018-09-16T12:40:28Z</time>
      </trkpt>
      <trkpt lat="40.256817" lon="-4.910783">
        <ele>1545.0</ele>
        <time>2018-09-16T12:40:29Z</time>
      </trkpt>
      <trkpt lat="40.256733" lon="-4.910800">
        <ele>1546.0</ele>
        <time>2018-09-16T12:40:30Z</time>
      </trkpt>
      <trkpt lat="40.256650" lon="-4.910867">
        <ele>1546.0</ele>
        <time>2018-09-16T12:40:31Z</time>
      </trkpt>
      <trkpt lat="40.256600" lon="-4.910983">
        <ele>1547.0</ele>
        <time>2018-09-16T12:40:32Z</time>
      </trkpt>
      <trkpt lat="40.256600" lon="-4.911133">
        <ele>1549.0</ele>
        <time>2018-09-16T12:40:33Z</time>
      </trkpt>
      <trkpt lat="40.256617" lon="-4.911267">
        <ele>1552.0</ele>
        <time>2018-09-16T12:40:34Z</time>
      </trkpt>
      <trkpt lat="40.256667" lon="-4.911367">
        <ele>1557.0</ele>
        <time>2018-09-16T12:40:35Z</time>
      </trkpt>
      <trkpt lat="40.256750" lon="-4.911433">
        <ele>1560.0</ele>
        <time>2018-09-16T12:40:36Z</time>
      </trkpt>
      <trkpt lat="40.256833" lon="-4.911467">
        <ele>1564.0</ele>
        <time>2018-09-16T12:40:37Z</time>
      </trkpt>
      <trkpt lat="40.256917" lon="-4.911500">
        <ele>1565.0</ele>
        <time>2018-09-16T12:40:38Z</time>
      </trkpt>
      <trkpt lat="40.257033" lon="-4.911500">
        <ele>1566.0</ele>
        <time>2018-09-16T12:40:39Z</time>
      </trkpt>
      <trkpt lat="40.257133" lon="-4.911467">
        <ele>1567.0</ele>
        <time>2018-09-16T12:40:40Z</time>
      </trkpt>
      <trkpt lat="40.257250" lon="-4.911400">
        <ele>1568.0</ele>
        <time>2018-09-16T12:40:41Z</time>
      </trkpt>
      <trkpt lat="40.257333" lon="-4.911300">
        <ele>1569.0</ele>
        <time>2018-09-16T12:40:42Z</time>
      </trkpt>
      <trkpt lat="40.257400" lon="-4.911167">
        <ele>1571.0</ele>
        <time>2018-09-16T12:40:43Z</time>
      </trkpt>
      <trkpt lat="40.257400" lon="-4.911050">
        <ele>1573.0</ele>
        <time>2018-09-16T12:40:44Z</time>
      </trkpt>
      <trkpt lat="40.257383" lon="-4.910933">
        <ele>1574.0</ele>
        <time>2018-09-16T12:40:45Z</time>
      </trkpt>
      <trkpt lat="40.257350" lon="-4.910850">
        <ele>1575.0</ele>
        <time>2018-09-16T12:40:46Z</time>
      </trkpt>
      <trkpt lat="40.257283" lon="-4.910783">
        <ele>1575.0</ele>
        <time>2018-09-16T12:40:47Z</time>
      </trkpt>
      <trkpt lat="40.257217" lon="-4.910733">
        <ele>1575.0</ele>
        <time>2018-09-16T12:40:48Z</time>
      </trkpt>
      <trkpt lat="40.257150" lon="-4.910733">
        <ele>1575.0</ele>
        <time>2018-09-16T12:40:49Z</time>
      </trkpt>
      <trkpt lat="40.257050" lon="-4.910767">
        <ele>1574.0</ele>
        <time>2018-09-16T12:40:50Z</time>
      </trkpt>
      <trkpt lat="40.256967" lon="-4.910850">
        <ele>1574.0</ele>
        <time>2018-09-16T12:40:51Z</time>
      </trkpt>
      <trkpt lat="40.256900" lon="-4.910967">
        <ele>1575.0</ele>
        <time>2018-09-16T12:40:52Z</time>
      </trkpt>
      <trkpt lat="40.256867" lon="-4.911083">
        <ele>1577.0</ele>
        <time>2018-09-16T12:40:53Z</time>
      </trkpt>
      <trkpt lat="40.256867" lon="-4.911217">
        <ele>1578.0</ele>
        <time>2018-09-16T12:40:54Z</time>
      </trkpt>
      <trkpt lat="40.256867" lon="-4.911350">
        <ele>1580.0</ele>
        <time>2018-09-16T12:40:55Z</time>
      </trkpt>
      <trkpt lat="40.256883" lon="-4.911483">
        <ele>1583.0</ele>
        <time>2018-09-16T12:40:56Z</time>
      </trkpt>
      <trkpt lat="40.256917" lon="-4.911600">
        <ele>1586.0</ele>
        <time>2018-09-16T12:40:57Z</time>
      </trkpt>
      <trkpt lat="40.256950" lon="-4.911733">
        <ele>1589.0</ele>
        <time>2018-09-16T12:40:58Z</time>
      </trkpt>
      <trkpt lat="40.257000" lon="-4.911833">
        <ele>1592.0</ele>
        <time>2018-09-16T12:40:59Z</time>
      </trkpt>
      <trkpt lat="40.257067" lon="-4.911900">
        <ele>1594.0</ele>
        <time>2018-09-16T12:41:00Z</time>
      </trkpt>
      <trkpt lat="40.257167" lon="-4.911950">
        <ele>1595.0</ele>
        <time>2018-09-16T12:41:01Z</time>
      </trkpt>
      <trkpt lat="40.257300" lon="-4.911967">
        <ele>1596.0</ele>
        <time>2018-09-16T12:41:02Z</time>
      </trkpt>
      <trkpt lat="40.257417" lon="-4.911950">
        <ele>1599.0</ele>
        <time>2018-09-16T12:41:03Z</time>
      </trkpt>
      <trkpt lat="40.257517" lon="-4.911883">
        <ele>1603.0</ele>
        <time>2018-09-16T12:41:04Z</time>
      </trkpt>
      <trkpt lat="40.257583" lon="-4.911817">
        <ele>1606.0</ele>
        <time>2018-09-16T12:41:05Z</time>
      </trkpt>
      <trkpt lat="40.257633" lon="-4.911717">
        <ele>1608.0</ele>
        <time>2018-09-16T12:41:06Z</time>
      </trkpt>
      <trkpt lat="40.257667" lon="-4.911600">
        <ele>1610.0</ele>
        <time>2018-09-16T12:41:07Z</time>
      </trkpt>
      <trkpt lat="40.257667" lon="-4.911483">
        <ele>1611.0</ele>
        <time>2018-09-16T12:41:08Z</time>
      </trkpt>
      <trkpt lat="40.257633" lon="-4.911367">
        <ele>1612.0</ele>
        <time>2018-09-16T12:41:09Z</time>
      </trkpt>
      <trkpt lat="40.257583" lon="-4.911283">
        <ele>1612.0</ele>
        <time>2018-09-16T12:41:10Z</time>
      </trkpt>
      <trkpt lat="40.257500" lon="-4.911217">
        <ele>1613.0</ele>
        <time>2018-09-16T12:41:11Z</time>
      </trkpt>
      <trkpt lat="40.257400" lon="-4.911200">
        <ele>1615.0</ele>
        <time>2018-09-16T12:41:12Z</time>
      </trkpt>
      <trkpt lat="40.257317" lon="-4.911217">
        <ele>1617.0</ele>
        <time>2018-09-16T12:41:13Z</time>
      </trkpt>
      <trkpt lat="40.257250" lon="-4.911250">
        <ele>1620.0</ele>
        <time>2018-09-16T12:41:14Z</time>
      </trkpt>
      <trkpt lat="40.257200" lon="-4.911317">
        <ele>1622.0</ele>
        <time>2018-09-16T12:41:15Z</time>
      </trkpt>
      <trkpt lat="40.257150" lon="-4.911400">
        <ele>1622.0</ele>
        <time>2018-09-16T12:41:16Z</time>
      </trkpt>
      <trkpt lat="40.257117" lon="-4.911517">
        <ele>1621.0</ele>
        <time>2018-09-16T12:41:17Z</time>
      </trkpt>
      <trkpt lat="40.257100" lon="-4.911667">
        <ele>1622.0</ele>
        <time>2018-09-16T12:41:18Z</time>
      </trkpt>
      <trkpt lat="40.257100" lon="-4.911800">
        <ele>1624.0</ele>
        <time>2018-09-16T12:41:19Z</time>
      </trkpt>
      <trkpt lat="40.257117" lon="-4.911933">
        <ele>1628.0</ele>
        <time>2018-09-16T12:41:20Z</time>
      </trkpt>
      <trkpt lat="40.257183" lon="-4.912033">
        <ele>1630.0</ele>
        <time>2018-09-16T12:41:21Z</time>
      </trkpt>
      <trkpt lat="40.257250" lon="-4.912117">
        <ele>1632.0</ele>
        <time>2018-09-16T12:41:22Z</time>
      </trkpt>
      <trkpt lat="40.257350" lon="-4.912183">
        <ele>1633.0</ele>
        <time>2018-09-16T12:41:23Z</time>
      </trkpt>
      <trkpt lat="40.257450" lon="-4.912233">
        <ele>1636.0</ele>
        <time>2018-09-16T12:41:24Z</time>
      </trkpt>
      <trkpt lat="40.257567" lon="-4.912233">
        <ele>1638.0</ele>
        <time>2018-09-16T12:41:25Z</time>
      </trkpt>
      <trkpt lat="40.257667" lon="-4.912200">
        <ele>1642.0</ele>
        <time>2018-09-16T12:41:26Z</time>
      </trkpt>
      <trkpt lat="40.257750" lon="-4.912133">
        <ele>1644.0</ele>
        <time>2018-09-16T12:41:27Z</time>
      </trkpt>
      <trkpt lat="40.257817" lon="-4.912067">
        <ele>1647.0</ele>
        <time>2018-09-16T12:41:28Z</time>
      </trkpt>
      <trkpt lat="40.257883" lon="-4.911967">
        <ele>1649.0</ele>
        <time>2018-09-16T12:41:29Z</time>
      </trkpt>
      <trkpt lat="40.257917" lon="-4.911867">
        <ele>1650.0</ele>
        <time>2018-09-16T12:41:30Z</time>
      </trkpt>
      <trkpt lat="40.257933" lon="-4.911767">
        <ele>1652.0</ele>
        <time>2018-09-16T12:41:31Z</time>
      </trkpt>
      <trkpt lat="40.257917" lon="-4.911650">
        <ele>1654.0</ele>
        <time>2018-09-16T12:41:32Z</time>
      </trkpt>
      <trkpt lat="40.257883" lon="-4.911567">
        <ele>1655.0</ele>
        <time>2018-09-16T12:41:33Z</time>
      </trkpt>
      <trkpt lat="40.257833" lon="-4.911500">
        <ele>1656.0</ele>
        <time>2018-09-16T12:41:34Z</time>
      </trkpt>
      <trkpt lat="40.257750" lon="-4.911467">
        <ele>1656.0</ele>
        <time>2018-09-16T12:41:35Z</time>
      </trkpt>
      <trkpt lat="40.257650" lon="-4.911467">
        <ele>1656.0</ele>
        <time>2018-09-16T12:41:36Z</time>
      </trkpt>
      <trkpt lat="40.257550" lon="-4.911500">
        <ele>1658.0</ele>
        <time>2018-09-16T12:41:37Z</time>
      </trkpt>
      <trkpt lat="40.257467" lon="-4.911567">
        <ele>1660.0</ele>
        <time>2018-09-16T12:41:38Z</time>
      </trkpt>
      <trkpt lat="40.257400" lon="-4.911650">
        <ele>1661.0</ele>
        <time>2018-09-16T12:41:39Z</time>
      </trkpt>
      <trkpt lat="40.257350" lon="-4.911767">
        <ele>1662.0</ele>
        <time>2018-09-16T12:41:40Z</time>
      </trkpt>
      <trkpt lat="40.257317" lon="-4.911900">
        <ele>1663.0</ele>
        <time>2018-09-16T12:41:41Z</time>
      </trkpt>
      <trkpt lat="40.257283" lon="-4.912033">
        <ele>1664.0</ele>
        <time>2018-09-16T12:41:42Z</time>
      </trkpt>
      <trkpt lat="40.257300" lon="-4.912150">
        <ele>1665.0</ele>
        <time>2018-09-16T12:41:43Z</time>
      </trkpt>
      <trkpt lat="40.257350" lon="-4.912283">
        <ele>1665.0</ele>
        <time>2018-09-16T12:41:44Z</time>
      </trkpt>
      <trkpt lat="40.257417" lon="-4.912400">
        <ele>1665.0</ele>
        <time>2018-09-16T12:41:45Z</time>
      </trkpt>
      <trkpt lat="40.257517" lon="-4.912517">
        <ele>1666.0</ele>
        <time>2018-09-16T12:41:46Z</time>
      </trkpt>
      <trkpt lat="40.257617" lon="-4.912600">
        <ele>1668.0</ele>
        <time>2018-09-16T12:41:47Z</time>
      </trkpt>
      <trkpt lat="40.257700" lon="-4.912650">
        <ele>1670.0</ele>
        <time>2018-09-16T12:41:48Z</time>
      </trkpt>
      <trkpt lat="40.257800" lon="-4.912650">
        <ele>1672.0</ele>
        <time>2018-09-16T12:41:49Z</time>
      </trkpt>
      <trkpt lat="40.257883" lon="-4.912633">
        <ele>1673.0</ele>
        <time>2018-09-16T12:41:50Z</time>
      </trkpt>
      <trkpt lat="40.257967" lon="-4.912583">
        <ele>1674.0</ele>
        <time>2018-09-16T12:41:51Z</time>
      </trkpt>
      <trkpt lat="40.258050" lon="-4.912500">
        <ele>1675.0</ele>
        <time>2018-09-16T12:41:52Z</time>
      </trkpt>
      <trkpt lat="40.258100" lon="-4.912400">
        <ele>1676.0</ele>
        <time>2018-09-16T12:41:53Z</time>
      </trkpt>
      <trkpt lat="40.258117" lon="-4.912267">
        <ele>1678.0</ele>
        <time>2018-09-16T12:41:54Z</time>
      </trkpt>
      <trkpt lat="40.258117" lon="-4.912150">
        <ele>1680.0</ele>
        <time>2018-09-16T12:41:55Z</time>
      </trkpt>
      <trkpt lat="40.258083" lon="-4.912033">
        <ele>1681.0</ele>
        <time>2018-09-16T12:41:56Z</time>
      </trkpt>
      <trkpt lat="40.258017" lon="-4.911950">
        <ele>1683.0</ele>
        <time>2018-09-16T12:41:57Z</time>
      </trkpt>
      <trkpt lat="40.257950" lon="-4.911867">
        <ele>1683.0</ele>
        <time>2018-09-16T12:41:58Z</time>
      </trkpt>
      <trkpt lat="40.257867" lon="-4.911817">
        <ele>1684.0</ele>
        <time>2018-09-16T12:41:59Z</time>
      </trkpt>
      <trkpt lat="40.257767" lon="-4.911817">
        <ele>1684.0</ele>
        <time>2018-09-16T12:42:00Z</time>
      </trkpt>
      <trkpt lat="40.257667" lon="-4.911850">
        <ele>1683.0</ele>
        <time>2018-09-16T12:42:01Z</time>
      </trkpt>
      <trkpt lat="40.257567" lon="-4.911900">
        <ele>1684.0</ele>
        <time>2018-09-16T12:42:02Z</time>
      </trkpt>
      <trkpt lat="40.257483" lon="-4.911983">
        <ele>1684.0</ele>
        <time>2018-09-16T12:42:03Z</time>
      </trkpt>
      <trkpt lat="40.257417" lon="-4.912083">
        <ele>1686.0</ele>
        <time>2018-09-16T12:42:04Z</time>
      </trkpt>
      <trkpt lat="40.257367" lon="-4.912217">
        <ele>1686.0</ele>
        <time>2018-09-16T12:42:05Z</time>
      </trkpt>
      <trkpt lat="40.257350" lon="-4.912350">
        <ele>1685.0</ele>
        <time>2018-09-16T12:42:06Z</time>
      </trkpt>
      <trkpt lat="40.257333" lon="-4.912500">
        <ele>1684.0</ele>
        <time>2018-09-16T12:42:07Z</time>
      </trkpt>
      <trkpt lat="40.257367" lon="-4.912650">
        <ele>1683.0</ele>
        <time>2018-09-16T12:42:08Z</time>
      </trkpt>
      <trkpt lat="40.257417" lon="-4.912800">
        <ele>1683.0</ele>
        <time>2018-09-16T12:42:09Z</time>
      </trkpt>
      <trkpt lat="40.257483" lon="-4.912917">
        <ele>1683.0</ele>
        <time>2018-09-16T12:42:10Z</time>
      </trkpt>
      <trkpt lat="40.257583" lon="-4.913017">
        <ele>1684.0</ele>
        <time>2018-09-16T12:42:11Z</time>
      </trkpt>
      <trkpt lat="40.257700" lon="-4.913067">
        <ele>1685.0</ele>
        <time>2018-09-16T12:42:12Z</time>
      </trkpt>
      <trkpt lat="40.257800" lon="-4.913050">
        <ele>1686.0</ele>
        <time>2018-09-16T12:42:13Z</time>
      </trkpt>
      <trkpt lat="40.257900" lon="-4.913017">
        <ele>1688.0</ele>
        <time>2018-09-16T12:42:14Z</time>
      </trkpt>
      <trkpt lat="40.257983" lon="-4.912967">
        <ele>1689.0</ele>
        <time>2018-09-16T12:42:15Z</time>
      </trkpt>
      <trkpt lat="40.258067" lon="-4.912917">
        <ele>1691.0</ele>
        <time>2018-09-16T12:42:16Z</time>
      </trkpt>
      <trkpt lat="40.258150" lon="-4.912850">
        <ele>1693.0</ele>
        <time>2018-09-16T12:42:17Z</time>
      </trkpt>
      <trkpt lat="40.258217" lon="-4.912800">
        <ele>1694.0</ele>
        <time>2018-09-16T12:42:18Z</time>
      </trkpt>
      <trkpt lat="40.258267" lon="-4.912717">
        <ele>1695.0</ele>
        <time>2018-09-16T12:42:19Z</time>
      </trkpt>
      <trkpt lat="40.258333" lon="-4.912633">
        <ele>1696.0</ele>
        <time>2018-09-16T12:42:20Z</time>
      </trkpt>
      <trkpt lat="40.258383" lon="-4.912533">
        <ele>1697.0</ele>
        <time>2018-09-16T12:42:21Z</time>
      </trkpt>
      <trkpt lat="40.258433" lon="-4.912450">
        <ele>1698.0</ele>
        <time>2018-09-16T12:42:22Z</time>
      </trkpt>
      <trkpt lat="40.258483" lon="-4.912350">
        <ele>1700.0</ele>
        <time>2018-09-16T12:42:23Z</time>
      </trkpt>
      <trkpt lat="40.258517" lon="-4.912250">
        <ele>1701.0</ele>
        <time>2018-09-16T12:42:24Z</time>
      </trkpt>
      <trkpt lat="40.258533" lon="-4.912167">
        <ele>1702.0</ele>
        <time>2018-09-16T12:42:25Z</time>
      </trkpt>
      <trkpt lat="40.258533" lon="-4.912050">
        <ele>1702.0</ele>
        <time>2018-09-16T12:42:26Z</time>
      </trkpt>
      <trkpt lat="40.258500" lon="-4.911933">
        <ele>1701.0</ele>
        <time>2018-09-16T12:42:27Z</time>
      </trkpt>
      <trkpt lat="40.258450" lon="-4.911833">
        <ele>1702.0</ele>
        <time>2018-09-16T12:42:28Z</time>
      </trkpt>
      <trkpt lat="40.258383" lon="-4.911750">
        <ele>1702.0</ele>
        <time>2018-09-16T12:42:29Z</time>
      </trkpt>
      <trkpt lat="40.258283" lon="-4.911717">
        <ele>1701.0</ele>
        <time>2018-09-16T12:42:30Z</time>
      </trkpt>
      <trkpt lat="40.258183" lon="-4.911733">
        <ele>1701.0</ele>
        <time>2018-09-16T12:42:31Z</time>
      </trkpt>
      <trkpt lat="40.258100" lon="-4.911817">
        <ele>1702.0</ele>
        <time>2018-09-16T12:42:32Z</time>
      </trkpt>
      <trkpt lat="40.258017" lon="-4.911917">
        <ele>1703.0</ele>
        <time>2018-09-16T12:42:33Z</time>
      </trkpt>
      <trkpt lat="40.257967" lon="-4.912033">
        <ele>1704.0</ele>
        <time>2018-09-16T12:42:34Z</time>
      </trkpt>
      <trkpt lat="40.257933" lon="-4.912150">
        <ele>1704.0</ele>
        <time>2018-09-16T12:42:35Z</time>
      </trkpt>
      <trkpt lat="40.257917" lon="-4.912300">
        <ele>1704.0</ele>
        <time>2018-09-16T12:42:36Z</time>
      </trkpt>
      <trkpt lat="40.257900" lon="-4.912450">
        <ele>1705.0</ele>
        <time>2018-09-16T12:42:37Z</time>
      </trkpt>
      <trkpt lat="40.257917" lon="-4.912600">
        <ele>1705.0</ele>
        <time>2018-09-16T12:42:38Z</time>
      </trkpt>
      <trkpt lat="40.257950" lon="-4.912767">
        <ele>1705.0</ele>
        <time>2018-09-16T12:42:39Z</time>
      </trkpt>
      <trkpt lat="40.258017" lon="-4.912917">
        <ele>1705.0</ele>
        <time>2018-09-16T12:42:40Z</time>
      </trkpt>
      <trkpt lat="40.258117" lon="-4.913033">
        <ele>1707.0</ele>
        <time>2018-09-16T12:42:41Z</time>
      </trkpt>
      <trkpt lat="40.258217" lon="-4.913117">
        <ele>1709.0</ele>
        <time>2018-09-16T12:42:42Z</time>
      </trkpt>
      <trkpt lat="40.258300" lon="-4.913200">
        <ele>1712.0</ele>
        <time>2018-09-16T12:42:43Z</time>
      </trkpt>
      <trkpt lat="40.258400" lon="-4.913267">
        <ele>1713.0</ele>
        <time>2018-09-16T12:42:44Z</time>
      </trkpt>
      <trkpt lat="40.258483" lon="-4.913317">
        <ele>1714.0</ele>
        <time>2018-09-16T12:42:45Z</time>
      </trkpt>
      <trkpt lat="40.258583" lon="-4.913367">
        <ele>1715.0</ele>
        <time>2018-09-16T12:42:46Z</time>
      </trkpt>
      <trkpt lat="40.258683" lon="-4.913383">
        <ele>1716.0</ele>
        <time>2018-09-16T12:42:47Z</time>
      </trkpt>
      <trkpt lat="40.258783" lon="-4.913383">
        <ele>1717.0</ele>
        <time>2018-09-16T12:42:48Z</time>
      </trkpt>
      <trkpt lat="40.258883" lon="-4.913350">
        <ele>1718.0</ele>
        <time>2018-09-16T12:42:49Z</time>
      </trkpt>
      <trkpt lat="40.258967" lon="-4.913317">
        <ele>1718.0</ele>
        <time>2018-09-16T12:42:50Z</time>
      </trkpt>
      <trkpt lat="40.259050" lon="-4.913283">
        <ele>1719.0</ele>
        <time>2018-09-16T12:42:51Z</time>
      </trkpt>
      <trkpt lat="40.259150" lon="-4.913250">
        <ele>1719.0</ele>
        <time>2018-09-16T12:42:52Z</time>
      </trkpt>
      <trkpt lat="40.259267" lon="-4.913217">
        <ele>1720.0</ele>
        <time>2018-09-16T12:42:53Z</time>
      </trkpt>
      <trkpt lat="40.259367" lon="-4.913183">
        <ele>1721.0</ele>
        <time>2018-09-16T12:42:54Z</time>
      </trkpt>
      <trkpt lat="40.259467" lon="-4.913133">
        <ele>1723.0</ele>
        <time>2018-09-16T12:42:55Z</time>
      </trkpt>
      <trkpt lat="40.259533" lon="-4.913050">
        <ele>1726.0</ele>
        <time>2018-09-16T12:42:56Z</time>
      </trkpt>
      <trkpt lat="40.259583" lon="-4.912933">
        <ele>1727.0</ele>
        <time>2018-09-16T12:42:57Z</time>
      </trkpt>
      <trkpt lat="40.259617" lon="-4.912833">
        <ele>1729.0</ele>
        <time>2018-09-16T12:42:58Z</time>
      </trkpt>
      <trkpt lat="40.259617" lon="-4.912750">
        <ele>1731.0</ele>
        <time>2018-09-16T12:42:59Z</time>
      </trkpt>
      <trkpt lat="40.259583" lon="-4.912667">
        <ele>1730.0</ele>
        <time>2018-09-16T12:43:00Z</time>
      </trkpt>
      <trkpt lat="40.259533" lon="-4.912600">
        <ele>1729.0</ele>
        <time>2018-09-16T12:43:01Z</time>
      </trkpt>
      <trkpt lat="40.259450" lon="-4.912567">
        <ele>1728.0</ele>
        <time>2018-09-16T12:43:02Z</time>
      </trkpt>
      <trkpt lat="40.259350" lon="-4.912550">
        <ele>1728.0</ele>
        <time>2018-09-16T12:43:03Z</time>
      </trkpt>
      <trkpt lat="40.259267" lon="-4.912583">
        <ele>1729.0</ele>
        <time>2018-09-16T12:43:04Z</time>
      </trkpt>
      <trkpt lat="40.259183" lon="-4.912650">
        <ele>1731.0</ele>
        <time>2018-09-16T12:43:05Z</time>
      </trkpt>
      <trkpt lat="40.259133" lon="-4.912750">
        <ele>1733.0</ele>
        <time>2018-09-16T12:43:06Z</time>
      </trkpt>
      <trkpt lat="40.259100" lon="-4.912867">
        <ele>1735.0</ele>
        <time>2018-09-16T12:43:07Z</time>
      </trkpt>
      <trkpt lat="40.259083" lon="-4.912983">
        <ele>1736.0</ele>
        <time>2018-09-16T12:43:08Z</time>
      </trkpt>
      <trkpt lat="40.259083" lon="-4.913117">
        <ele>1736.0</ele>
        <time>2018-09-16T12:43:09Z</time>
      </trkpt>
      <trkpt lat="40.259117" lon="-4.913267">
        <ele>1736.0</ele>
        <time>2018-09-16T12:43:10Z</time>
      </trkpt>
      <trkpt lat="40.259167" lon="-4.913400">
        <ele>1736.0</ele>
        <time>2018-09-16T12:43:11Z</time>
      </trkpt>
      <trkpt lat="40.259233" lon="-4.913517">
        <ele>1737.0</ele>
        <time>2018-09-16T12:43:12Z</time>
      </trkpt>
      <trkpt lat="40.259317" lon="-4.913617">
        <ele>1737.0</ele>
        <time>2018-09-16T12:43:13Z</time>
      </trkpt>
      <trkpt lat="40.259417" lon="-4.913667">
        <ele>1738.0</ele>
        <time>2018-09-16T12:43:14Z</time>
      </trkpt>
      <trkpt lat="40.259517" lon="-4.913700">
        <ele>1739.0</ele>
        <time>2018-09-16T12:43:15Z</time>
      </trkpt>
      <trkpt lat="40.259633" lon="-4.913717">
        <ele>1740.0</ele>
        <time>2018-09-16T12:43:16Z</time>
      </trkpt>
      <trkpt lat="40.259750" lon="-4.913700">
        <ele>1741.0</ele>
        <time>2018-09-16T12:43:17Z</time>
      </trkpt>
      <trkpt lat="40.259850" lon="-4.913683">
        <ele>1743.0</ele>
        <time>2018-09-16T12:43:18Z</time>
      </trkpt>
      <trkpt lat="40.259950" lon="-4.913667">
        <ele>1744.0</ele>
        <time>2018-09-16T12:43:19Z</time>
      </trkpt>
      <trkpt lat="40.260033" lon="-4.913617">
        <ele>1745.0</ele>
        <time>2018-09-16T12:43:20Z</time>
      </trkpt>
      <trkpt lat="40.260133" lon="-4.913567">
        <ele>1746.0</ele>
        <time>2018-09-16T12:43:21Z</time>
      </trkpt>
      <trkpt lat="40.260200" lon="-4.913500">
        <ele>1746.0</ele>
        <time>2018-09-16T12:43:22Z</time>
      </trkpt>
      <trkpt lat="40.260250" lon="-4.913417">
        <ele>1747.0</ele>
        <time>2018-09-16T12:43:23Z</time>
      </trkpt>
      <trkpt lat="40.260283" lon="-4.913317">
        <ele>1748.0</ele>
        <time>2018-09-16T12:43:24Z</time>
      </trkpt>
      <trkpt lat="40.260300" lon="-4.913217">
        <ele>1748.0</ele>
        <time>2018-09-16T12:43:25Z</time>
      </trkpt>
      <trkpt lat="40.260283" lon="-4.913117">
        <ele>1748.0</ele>
        <time>2018-09-16T12:43:26Z</time>
      </trkpt>
      <trkpt lat="40.260250" lon="-4.913017">
        <ele>1749.0</ele>
        <time>2018-09-16T12:43:27Z</time>
      </trkpt>
      <trkpt lat="40.260200" lon="-4.912933">
        <ele>1749.0</ele>
        <time>2018-09-16T12:43:28Z</time>
      </trkpt>
      <trkpt lat="40.260133" lon="-4.912867">
        <ele>1749.0</ele>
        <time>2018-09-16T12:43:29Z</time>
      </trkpt>
      <trkpt lat="40.260067" lon="-4.912817">
        <ele>1750.0</ele>
        <time>2018-09-16T12:43:30Z</time>
      </trkpt>
      <trkpt lat="40.260000" lon="-4.912783">
        <ele>1749.0</ele>
        <time>2018-09-16T12:43:31Z</time>
      </trkpt>
      <trkpt lat="40.259917" lon="-4.912783">
        <ele>1749.0</ele>
        <time>2018-09-16T12:43:32Z</time>
      </trkpt>
      <trkpt lat="40.259833" lon="-4.912817">
        <ele>1749.0</ele>
        <time>2018-09-16T12:43:33Z</time>
      </trkpt>
      <trkpt lat="40.259750" lon="-4.912867">
        <ele>1749.0</ele>
        <time>2018-09-16T12:43:34Z</time>
      </trkpt>
      <trkpt lat="40.259683" lon="-4.912950">
        <ele>1751.0</ele>
        <time>2018-09-16T12:43:35Z</time>
      </trkpt>
      <trkpt lat="40.259633" lon="-4.913033">
        <ele>1753.0</ele>
        <time>2018-09-16T12:43:36Z</time>
      </trkpt>
      <trkpt lat="40.259600" lon="-4.913117">
        <ele>1754.0</ele>
        <time>2018-09-16T12:43:37Z</time>
      </trkpt>
      <trkpt lat="40.259583" lon="-4.913233">
        <ele>1755.0</ele>
        <time>2018-09-16T12:43:38Z</time>
      </trkpt>
      <trkpt lat="40.259567" lon="-4.913367">
        <ele>1754.0</ele>
        <time>2018-09-16T12:43:39Z</time>
      </trkpt>
      <trkpt lat="40.259600" lon="-4.913483">
        <ele>1754.0</ele>
        <time>2018-09-16T12:43:40Z</time>
      </trkpt>
      <trkpt lat="40.259650" lon="-4.913617">
        <ele>1754.0</ele>
        <time>2018-09-16T12:43:41Z</time>
      </trkpt>
      <trkpt lat="40.259750" lon="-4.913733">
        <ele>1754.0</ele>
        <time>2018-09-16T12:43:42Z</time>
      </trkpt>
      <trkpt lat="40.259850" lon="-4.913783">
        <ele>1756.0</ele>
        <time>2018-09-16T12:43:43Z</time>
      </trkpt>
      <trkpt lat="40.259950" lon="-4.913800">
        <ele>1759.0</ele>
        <time>2018-09-16T12:43:44Z</time>
      </trkpt>
      <trkpt lat="40.260050" lon="-4.913800">
        <ele>1760.0</ele>
        <time>2018-09-16T12:43:45Z</time>
      </trkpt>
      <trkpt lat="40.260133" lon="-4.913767">
        <ele>1760.0</ele>
        <time>2018-09-16T12:43:46Z</time>
      </trkpt>
      <trkpt lat="40.260217" lon="-4.913717">
        <ele>1760.0</ele>
        <time>2018-09-16T12:43:47Z</time>
      </trkpt>
      <trkpt lat="40.260317" lon="-4.913650">
        <ele>1759.0</ele>
        <time>2018-09-16T12:43:48Z</time>
      </trkpt>
      <trkpt lat="40.260417" lon="-4.913583">
        <ele>1758.0</ele>
        <time>2018-09-16T12:43:49Z</time>
      </trkpt>
      <trkpt lat="40.260517" lon="-4.913500">
        <ele>1758.0</ele>
        <time>2018-09-16T12:43:50Z</time>
      </trkpt>
      <trkpt lat="40.260617" lon="-4.913417">
        <ele>1758.0</ele>
        <time>2018-09-16T12:43:51Z</time>
      </trkpt>
      <trkpt lat="40.260700" lon="-4.913333">
        <ele>1759.0</ele>
        <time>2018-09-16T12:43:52Z</time>
      </trkpt>
      <trkpt lat="40.260783" lon="-4.913267">
        <ele>1759.0</ele>
        <time>2018-09-16T12:43:53Z</time>
      </trkpt>
      <trkpt lat="40.260850" lon="-4.913200">
        <ele>1760.0</ele>
        <time>2018-09-16T12:43:54Z</time>
      </trkpt>
      <trkpt lat="40.260933" lon="-4.913150">
        <ele>1760.0</ele>
        <time>2018-09-16T12:43:55Z</time>
      </trkpt>
      <trkpt lat="40.261017" lon="-4.913100">
        <ele>1759.0</ele>
        <time>2018-09-16T12:43:56Z</time>
      </trkpt>
      <trkpt lat="40.261083" lon="-4.913033">
        <ele>1758.0</ele>
        <time>2018-09-16T12:43:57Z</time>
      </trkpt>
      <trkpt lat="40.261150" lon="-4.912983">
        <ele>1758.0</ele>
        <time>2018-09-16T12:43:58Z</time>
      </trkpt>
      <trkpt lat="40.261233" lon="-4.912917">
        <ele>1757.0</ele>
        <time>2018-09-16T12:43:59Z</time>
      </trkpt>
      <trkpt lat="40.261317" lon="-4.912833">
        <ele>1756.0</ele>
        <time>2018-09-16T12:44:00Z</time>
      </trkpt>
      <trkpt lat="40.261400" lon="-4.912767">
        <ele>1755.0</ele>
        <time>2018-09-16T12:44:01Z</time>
      </trkpt>
      <trkpt lat="40.261483" lon="-4.912683">
        <ele>1755.0</ele>
        <time>2018-09-16T12:44:02Z</time>
      </trkpt>
      <trkpt lat="40.261550" lon="-4.912600">
        <ele>1755.0</ele>
        <time>2018-09-16T12:44:03Z</time>
      </trkpt>
      <trkpt lat="40.261617" lon="-4.912517">
        <ele>1755.0</ele>
        <time>2018-09-16T12:44:04Z</time>
      </trkpt>
      <trkpt lat="40.261700" lon="-4.912433">
        <ele>1753.0</ele>
        <time>2018-09-16T12:44:05Z</time>
      </trkpt>
      <trkpt lat="40.261767" lon="-4.912350">
        <ele>1752.0</ele>
        <time>2018-09-16T12:44:06Z</time>
      </trkpt>
      <trkpt lat="40.261850" lon="-4.912250">
        <ele>1751.0</ele>
        <time>2018-09-16T12:44:07Z</time>
      </trkpt>
      <trkpt lat="40.261917" lon="-4.912167">
        <ele>1750.0</ele>
        <time>2018-09-16T12:44:08Z</time>
      </trkpt>
      <trkpt lat="40.262000" lon="-4.912083">
        <ele>1750.0</ele>
        <time>2018-09-16T12:44:09Z</time>
      </trkpt>
      <trkpt lat="40.262083" lon="-4.912017">
        <ele>1749.0</ele>
        <time>2018-09-16T12:44:10Z</time>
      </trkpt>
      <trkpt lat="40.262167" lon="-4.911950">
        <ele>1748.0</ele>
        <time>2018-09-16T12:44:11Z</time>
      </trkpt>
      <trkpt lat="40.262250" lon="-4.911900">
        <ele>1746.0</ele>
        <time>2018-09-16T12:44:12Z</time>
      </trkpt>
      <trkpt lat="40.262333" lon="-4.911833">
        <ele>1744.0</ele>
        <time>2018-09-16T12:44:13Z</time>
      </trkpt>
      <trkpt lat="40.262433" lon="-4.911767">
        <ele>1741.0</ele>
        <time>2018-09-16T12:44:14Z</time>
      </trkpt>
      <trkpt lat="40.262550" lon="-4.911700">
        <ele>1739.0</ele>
        <time>2018-09-16T12:44:15Z</time>
      </trkpt>
      <trkpt lat="40.262667" lon="-4.911633">
        <ele>1737.0</ele>
        <time>2018-09-16T12:44:16Z</time>
      </trkpt>
      <trkpt lat="40.262767" lon="-4.911583">
        <ele>1736.0</ele>
        <time>2018-09-16T12:44:17Z</time>
      </trkpt>
      <trkpt lat="40.262883" lon="-4.911533">
        <ele>1735.0</ele>
        <time>2018-09-16T12:44:18Z</time>
      </trkpt>
      <trkpt lat="40.263000" lon="-4.911483">
        <ele>1735.0</ele>
        <time>2018-09-16T12:44:19Z</time>
      </trkpt>
      <trkpt lat="40.263117" lon="-4.911450">
        <ele>1734.0</ele>
        <time>2018-09-16T12:44:20Z</time>
      </trkpt>
      <trkpt lat="40.263233" lon="-4.911400">
        <ele>1733.0</ele>
        <time>2018-09-16T12:44:21Z</time>
      </trkpt>
      <trkpt lat="40.263350" lon="-4.911350">
        <ele>1733.0</ele>
        <time>2018-09-16T12:44:22Z</time>
      </trkpt>
      <trkpt lat="40.263467" lon="-4.911283">
        <ele>1733.0</ele>
        <time>2018-09-16T12:44:23Z</time>
      </trkpt>
      <trkpt lat="40.263600" lon="-4.911233">
        <ele>1734.0</ele>
        <time>2018-09-16T12:44:24Z</time>
      </trkpt>
      <trkpt lat="40.263700" lon="-4.911183">
        <ele>1736.0</ele>
        <time>2018-09-16T12:44:25Z</time>
      </trkpt>
      <trkpt lat="40.263817" lon="-4.911133">
        <ele>1737.0</ele>
        <time>2018-09-16T12:44:26Z</time>
      </trkpt>
      <trkpt lat="40.263917" lon="-4.911083">
        <ele>1737.0</ele>
        <time>2018-09-16T12:44:27Z</time>
      </trkpt>
      <trkpt lat="40.264017" lon="-4.911033">
        <ele>1737.0</ele>
        <time>2018-09-16T12:44:28Z</time>
      </trkpt>
      <trkpt lat="40.264133" lon="-4.910967">
        <ele>1738.0</ele>
        <time>2018-09-16T12:44:29Z</time>
      </trkpt>
      <trkpt lat="40.264267" lon="-4.910917">
        <ele>1739.0</ele>
        <time>2018-09-16T12:44:30Z</time>
      </trkpt>
      <trkpt lat="40.264367" lon="-4.910883">
        <ele>1743.0</ele>
        <time>2018-09-16T12:44:31Z</time>
      </trkpt>
      <trkpt lat="40.264483" lon="-4.910850">
        <ele>1746.0</ele>
        <time>2018-09-16T12:44:32Z</time>
      </trkpt>
      <trkpt lat="40.264583" lon="-4.910833">
        <ele>1750.0</ele>
        <time>2018-09-16T12:44:33Z</time>
      </trkpt>
      <trkpt lat="40.264683" lon="-4.910817">
        <ele>1754.0</ele>
        <time>2018-09-16T12:44:34Z</time>
      </trkpt>
      <trkpt lat="40.264767" lon="-4.910800">
        <ele>1757.0</ele>
        <time>2018-09-16T12:44:35Z</time>
      </trkpt>
      <trkpt lat="40.264867" lon="-4.910767">
        <ele>1759.0</ele>
        <time>2018-09-16T12:44:36Z</time>
      </trkpt>
      <trkpt lat="40.264967" lon="-4.910733">
        <ele>1763.0</ele>
        <time>2018-09-16T12:44:37Z</time>
      </trkpt>
      <trkpt lat="40.265067" lon="-4.910700">
        <ele>1767.0</ele>
        <time>2018-09-16T12:44:38Z</time>
      </trkpt>
      <trkpt lat="40.265167" lon="-4.910667">
        <ele>1772.0</ele>
        <time>2018-09-16T12:44:39Z</time>
      </trkpt>
      <trkpt lat="40.265250" lon="-4.910650">
        <ele>1776.0</ele>
        <time>2018-09-16T12:44:40Z</time>
      </trkpt>
      <trkpt lat="40.265317" lon="-4.910633">
        <ele>1781.0</ele>
        <time>2018-09-16T12:44:41Z</time>
      </trkpt>
      <trkpt lat="40.265400" lon="-4.910633">
        <ele>1785.0</ele>
        <time>2018-09-16T12:44:42Z</time>
      </trkpt>
      <trkpt lat="40.265467" lon="-4.910633">
        <ele>1788.0</ele>
        <time>2018-09-16T12:44:43Z</time>
      </trkpt>
      <trkpt lat="40.265550" lon="-4.910617">
        <ele>1791.0</ele>
        <time>2018-09-16T12:44:44Z</time>
      </trkpt>
      <trkpt lat="40.265617" lon="-4.910583">
        <ele>1794.0</ele>
        <time>2018-09-16T12:44:45Z</time>
      </trkpt>
      <trkpt lat="40.265667" lon="-4.910500">
        <ele>1798.0</ele>
        <time>2018-09-16T12:44:46Z</time>
      </trkpt>
      <trkpt lat="40.265667" lon="-4.910400">
        <ele>1800.0</ele>
        <time>2018-09-16T12:44:47Z</time>
      </trkpt>
      <trkpt lat="40.265650" lon="-4.910283">
        <ele>1803.0</ele>
        <time>2018-09-16T12:44:48Z</time>
      </trkpt>
      <trkpt lat="40.265583" lon="-4.910200">
        <ele>1805.0</ele>
        <time>2018-09-16T12:44:49Z</time>
      </trkpt>
      <trkpt lat="40.265500" lon="-4.910133">
        <ele>1808.0</ele>
        <time>2018-09-16T12:44:50Z</time>
      </trkpt>
      <trkpt lat="40.265400" lon="-4.910117">
        <ele>1810.0</ele>
        <time>2018-09-16T12:44:51Z</time>
      </trkpt>
      <trkpt lat="40.265300" lon="-4.910150">
        <ele>1812.0</ele>
        <time>2018-09-16T12:44:52Z</time>
      </trkpt>
      <trkpt lat="40.265200" lon="-4.910217">
        <ele>1816.0</ele>
        <time>2018-09-16T12:44:53Z</time>
      </trkpt>
      <trkpt lat="40.265117" lon="-4.910317">
        <ele>1821.0</ele>
        <time>2018-09-16T12:44:54Z</time>
      </trkpt>
      <trkpt lat="40.265033" lon="-4.910417">
        <ele>1827.0</ele>
        <time>2018-09-16T12:44:55Z</time>
      </trkpt>
      <trkpt lat="40.265000" lon="-4.910517">
        <ele>1833.0</ele>
        <time>2018-09-16T12:44:56Z</time>
      </trkpt>
      <trkpt lat="40.264983" lon="-4.910617">
        <ele>1839.0</ele>
        <time>2018-09-16T12:44:57Z</time>
      </trkpt>
      <trkpt lat="40.264983" lon="-4.910717">
        <ele>1842.0</ele>
        <time>2018-09-16T12:44:58Z</time>
      </trkpt>
      <trkpt lat="40.265033" lon="-4.910800">
        <ele>1844.0</ele>
        <time>2018-09-16T12:44:59Z</time>
      </trkpt>
      <trkpt lat="40.265083" lon="-4.910883">
        <ele>1846.0</ele>
        <time>2018-09-16T12:45:00Z</time>
      </trkpt>
      <trkpt lat="40.265167" lon="-4.910933">
        <ele>1850.0</ele>
        <time>2018-09-16T12:45:01Z</time>
      </trkpt>
      <trkpt lat="40.265250" lon="-4.910967">
        <ele>1854.0</ele>
        <time>2018-09-16T12:45:02Z</time>
      </trkpt>
      <trkpt lat="40.265333" lon="-4.910950">
        <ele>1858.0</ele>
        <time>2018-09-16T12:45:03Z</time>
      </trkpt>
      <trkpt lat="40.265417" lon="-4.910917">
        <ele>1861.0</ele>
        <time>2018-09-16T12:45:04Z</time>
      </trkpt>
      <trkpt lat="40.265467" lon="-4.910850">
        <ele>1865.0</ele>
        <time>2018-09-16T12:45:05Z</time>
      </trkpt>
      <trkpt lat="40.265517" lon="-4.910750">
        <ele>1868.0</ele>
        <time>2018-09-16T12:45:06Z</time>
      </trkpt>
      <trkpt lat="40.265517" lon="-4.910633">
        <ele>1871.0</ele>
        <time>2018-09-16T12:45:07Z</time>
      </trkpt>
      <trkpt lat="40.265500" lon="-4.910517">
        <ele>1875.0</ele>
        <time>2018-09-16T12:45:08Z</time>
      </trkpt>
      <trkpt lat="40.265433" lon="-4.910433">
        <ele>1877.0</ele>
        <time>2018-09-16T12:45:09Z</time>
      </trkpt>
      <trkpt lat="40.265350" lon="-4.910367">
        <ele>1880.0</ele>
        <time>2018-09-16T12:45:10Z</time>
      </trkpt>
      <trkpt lat="40.265250" lon="-4.910350">
        <ele>1883.0</ele>
        <time>2018-09-16T12:45:11Z</time>
      </trkpt>
      <trkpt lat="40.265150" lon="-4.910367">
        <ele>1886.0</ele>
        <time>2018-09-16T12:45:12Z</time>
      </trkpt>
      <trkpt lat="40.265050" lon="-4.910417">
        <ele>1889.0</ele>
        <time>2018-09-16T12:45:13Z</time>
      </trkpt>
      <trkpt lat="40.264950" lon="-4.910483">
        <ele>1893.0</ele>
        <time>2018-09-16T12:45:14Z</time>
      </trkpt>
      <trkpt lat="40.264883" lon="-4.910600">
        <ele>1896.0</ele>
        <time>2018-09-16T12:45:15Z</time>
      </trkpt>
      <trkpt lat="40.264833" lon="-4.910717">
        <ele>1901.0</ele>
        <time>2018-09-16T12:45:16Z</time>
      </trkpt>
      <trkpt lat="40.264817" lon="-4.910850">
        <ele>1904.0</ele>
        <time>2018-09-16T12:45:17Z</time>
      </trkpt>
      <trkpt lat="40.264833" lon="-4.910983">
        <ele>1907.0</ele>
        <time>2018-09-16T12:45:18Z</time>
      </trkpt>
      <trkpt lat="40.264867" lon="-4.911100">
        <ele>1910.0</ele>
        <time>2018-09-16T12:45:19Z</time>
      </trkpt>
      <trkpt lat="40.264933" lon="-4.911200">
        <ele>1913.0</ele>
        <time>2018-09-16T12:45:20Z</time>
      </trkpt>
      <trkpt lat="40.265033" lon="-4.911267">
        <ele>1915.0</ele>
        <time>2018-09-16T12:45:21Z</time>
      </trkpt>
      <trkpt lat="40.265150" lon="-4.911283">
        <ele>1918.0</ele>
        <time>2018-09-16T12:45:22Z</time>
      </trkpt>
      <trkpt lat="40.265233" lon="-4.911267">
        <ele>1921.0</ele>
        <time>2018-09-16T12:45:23Z</time>
      </trkpt>
      <trkpt lat="40.265317" lon="-4.911217">
        <ele>1924.0</ele>
        <time>2018-09-16T12:45:24Z</time>
      </trkpt>
      <trkpt lat="40.265383" lon="-4.911150">
        <ele>1926.0</ele>
        <time>2018-09-16T12:45:25Z</time>
      </trkpt>
      <trkpt lat="40.265433" lon="-4.911033">
        <ele>1930.0</ele>
        <time>2018-09-16T12:45:26Z</time>
      </trkpt>
      <trkpt lat="40.265450" lon="-4.910917">
        <ele>1934.0</ele>
        <time>2018-09-16T12:45:27Z</time>
      </trkpt>
      <trkpt lat="40.265433" lon="-4.910817">
        <ele>1940.0</ele>
        <time>2018-09-16T12:45:28Z</time>
      </trkpt>
      <trkpt lat="40.265400" lon="-4.910733">
        <ele>1945.0</ele>
        <time>2018-09-16T12:45:29Z</time>
      </trkpt>
      <trkpt lat="40.265350" lon="-4.910650">
        <ele>1948.0</ele>
        <time>2018-09-16T12:45:30Z</time>
      </trkpt>
      <trkpt lat="40.265300" lon="-4.910583">
        <ele>1951.0</ele>
        <time>2018-09-16T12:45:31Z</time>
      </trkpt>
      <trkpt lat="40.265233" lon="-4.910517">
        <ele>1953.0</ele>
        <time>2018-09-16T12:45:32Z</time>
      </trkpt>
      <trkpt lat="40.265150" lon="-4.910450">
        <ele>1956.0</ele>
        <time>2018-09-16T12:45:33Z</time>
      </trkpt>
      <trkpt lat="40.265067" lon="-4.910400">
        <ele>1959.0</ele>
        <time>2018-09-16T12:45:34Z</time>
      </trkpt>
      <trkpt lat="40.264950" lon="-4.910400">
        <ele>1960.0</ele>
        <time>2018-09-16T12:45:35Z</time>
      </trkpt>
      <trkpt lat="40.264817" lon="-4.910433">
        <ele>1963.0</ele>
        <time>2018-09-16T12:45:36Z</time>
      </trkpt>
      <trkpt lat="40.264700" lon="-4.910517">
        <ele>1967.0</ele>
        <time>2018-09-16T12:45:37Z</time>
      </trkpt>
      <trkpt lat="40.264617" lon="-4.910617">
        <ele>1972.0</ele>
        <time>2018-09-16T12:45:38Z</time>
      </trkpt>
      <trkpt lat="40.264567" lon="-4.910733">
        <ele>1977.0</ele>
        <time>2018-09-16T12:45:39Z</time>
      </trkpt>
      <trkpt lat="40.264550" lon="-4.910850">
        <ele>1982.0</ele>
        <time>2018-09-16T12:45:40Z</time>
      </trkpt>
      <trkpt lat="40.264567" lon="-4.910983">
        <ele>1985.0</ele>
        <time>2018-09-16T12:45:41Z</time>
      </trkpt>
      <trkpt lat="40.264600" lon="-4.911083">
        <ele>1989.0</ele>
        <time>2018-09-16T12:45:42Z</time>
      </trkpt>
      <trkpt lat="40.264650" lon="-4.911167">
        <ele>1993.0</ele>
        <time>2018-09-16T12:45:43Z</time>
      </trkpt>
      <trkpt lat="40.264717" lon="-4.911233">
        <ele>1997.0</ele>
        <time>2018-09-16T12:45:44Z</time>
      </trkpt>
      <trkpt lat="40.264783" lon="-4.911283">
        <ele>2001.0</ele>
        <time>2018-09-16T12:45:45Z</time>
      </trkpt>
      <trkpt lat="40.264850" lon="-4.911300">
        <ele>2004.0</ele>
        <time>2018-09-16T12:45:46Z</time>
      </trkpt>
      <trkpt lat="40.264933" lon="-4.911300">
        <ele>2006.0</ele>
        <time>2018-09-16T12:45:47Z</time>
      </trkpt>
      <trkpt lat="40.265000" lon="-4.911250">
        <ele>2008.0</ele>
        <time>2018-09-16T12:45:48Z</time>
      </trkpt>
      <trkpt lat="40.265067" lon="-4.911167">
        <ele>2012.0</ele>
        <time>2018-09-16T12:45:49Z</time>
      </trkpt>
      <trkpt lat="40.265083" lon="-4.911083">
        <ele>2016.0</ele>
        <time>2018-09-16T12:45:50Z</time>
      </trkpt>
      <trkpt lat="40.265100" lon="-4.911000">
        <ele>2021.0</ele>
        <time>2018-09-16T12:45:51Z</time>
      </trkpt>
      <trkpt lat="40.265083" lon="-4.910900">
        <ele>2024.0</ele>
        <time>2018-09-16T12:45:52Z</time>
      </trkpt>
      <trkpt lat="40.265033" lon="-4.910817">
        <ele>2026.0</ele>
        <time>2018-09-16T12:45:53Z</time>
      </trkpt>
      <trkpt lat="40.264967" lon="-4.910733">
        <ele>2027.0</ele>
        <time>2018-09-16T12:45:54Z</time>
      </trkpt>
      <trkpt lat="40.264867" lon="-4.910667">
        <ele>2029.0</ele>
        <time>2018-09-16T12:45:55Z</time>
      </trkpt>
      <trkpt lat="40.264767" lon="-4.910633">
        <ele>2030.0</ele>
        <time>2018-09-16T12:45:56Z</time>
      </trkpt>
      <trkpt lat="40.264633" lon="-4.910617">
        <ele>2033.0</ele>
        <time>2018-09-16T12:45:57Z</time>
      </trkpt>
      <trkpt lat="40.264500" lon="-4.910617">
        <ele>2036.0</ele>
        <time>2018-09-16T12:45:58Z</time>
      </trkpt>
      <trkpt lat="40.264383" lon="-4.910650">
        <ele>2040.0</ele>
        <time>2018-09-16T12:45:59Z</time>
      </trkpt>
      <trkpt lat="40.264267" lon="-4.910733">
        <ele>2044.0</ele>
        <time>2018-09-16T12:46:00Z</time>
      </trkpt>
      <trkpt lat="40.264200" lon="-4.910833">
        <ele>2047.0</ele>
        <time>2018-09-16T12:46:01Z</time>
      </trkpt>
      <trkpt lat="40.264150" lon="-4.910967">
        <ele>2049.0</ele>
        <time>2018-09-16T12:46:02Z</time>
      </trkpt>
      <trkpt lat="40.264117" lon="-4.911100">
        <ele>2052.0</ele>
        <time>2018-09-16T12:46:03Z</time>
      </trkpt>
      <trkpt lat="40.264117" lon="-4.911233">
        <ele>2055.0</ele>
        <time>2018-09-16T12:46:04Z</time>
      </trkpt>
      <trkpt lat="40.264117" lon="-4.911350">
        <ele>2058.0</ele>
        <time>2018-09-16T12:46:05Z</time>
      </trkpt>
      <trkpt lat="40.264117" lon="-4.911467">
        <ele>2062.0</ele>
        <time>2018-09-16T12:46:06Z</time>
      </trkpt>
      <trkpt lat="40.264167" lon="-4.911550">
        <ele>2064.0</ele>
        <time>2018-09-16T12:46:07Z</time>
      </trkpt>
      <trkpt lat="40.264233" lon="-4.911633">
        <ele>2065.0</ele>
        <time>2018-09-16T12:46:08Z</time>
      </trkpt>
      <trkpt lat="40.264317" lon="-4.911667">
        <ele>2065.0</ele>
        <time>2018-09-16T12:46:09Z</time>
      </trkpt>
      <trkpt lat="40.264400" lon="-4.911650">
        <ele>2067.0</ele>
        <time>2018-09-16T12:46:10Z</time>
      </trkpt>
      <trkpt lat="40.264483" lon="-4.911617">
        <ele>2071.0</ele>
        <time>2018-09-16T12:46:11Z</time>
      </trkpt>
      <trkpt lat="40.264517" lon="-4.911550">
        <ele>2076.0</ele>
        <time>2018-09-16T12:46:12Z</time>
      </trkpt>
      <trkpt lat="40.264533" lon="-4.911500">
        <ele>2079.0</ele>
        <time>2018-09-16T12:46:13Z</time>
      </trkpt>
      <trkpt lat="40.264550" lon="-4.911467">
        <ele>2082.0</ele>
        <time>2018-09-16T12:46:14Z</time>
      </trkpt>
      <trkpt lat="40.264583" lon="-4.911417">
        <ele>2085.0</ele>
        <time>2018-09-16T12:46:15Z</time>
      </trkpt>
      <trkpt lat="40.264600" lon="-4.911350">
        <ele>2087.0</ele>
        <time>2018-09-16T12:46:16Z</time>
      </trkpt>
      <trkpt lat="40.264600" lon="-4.911250">
        <ele>2089.0</ele>
        <time>2018-09-16T12:46:17Z</time>
      </trkpt>
      <trkpt lat="40.264583" lon="-4.911117">
        <ele>2092.0</ele>
        <time>2018-09-16T12:46:18Z</time>
      </trkpt>
      <trkpt lat="40.264517" lon="-4.911000">
        <ele>2095.0</ele>
        <time>2018-09-16T12:46:19Z</time>
      </trkpt>
      <trkpt lat="40.264433" lon="-4.910883">
        <ele>2099.0</ele>
        <time>2018-09-16T12:46:20Z</time>
      </trkpt>
      <trkpt lat="40.264317" lon="-4.910817">
        <ele>2103.0</ele>
        <time>2018-09-16T12:46:21Z</time>
      </trkpt>
      <trkpt lat="40.264183" lon="-4.910817">
        <ele>2107.0</ele>
        <time>2018-09-16T12:46:22Z</time>
      </trkpt>
      <trkpt lat="40.264050" lon="-4.910867">
        <ele>2110.0</ele>
        <time>2018-09-16T12:46:23Z</time>
      </trkpt>
      <trkpt lat="40.263950" lon="-4.910950">
        <ele>2114.0</ele>
        <time>2018-09-16T12:46:24Z</time>
      </trkpt>
      <trkpt lat="40.263867" lon="-4.911050">
        <ele>2119.0</ele>
        <time>2018-09-16T12:46:25Z</time>
      </trkpt>
      <trkpt lat="40.263817" lon="-4.911150">
        <ele>2122.0</ele>
        <time>2018-09-16T12:46:26Z</time>
      </trkpt>
      <trkpt lat="40.263800" lon="-4.911250">
        <ele>2123.0</ele>
        <time>2018-09-16T12:46:27Z</time>
      </trkpt>
      <trkpt lat="40.263783" lon="-4.911367">
        <ele>2122.0</ele>
        <time>2018-09-16T12:46:28Z</time>
      </trkpt>
      <trkpt lat="40.263783" lon="-4.911483">
        <ele>2122.0</ele>
        <time>2018-09-16T12:46:29Z</time>
      </trkpt>
      <trkpt lat="40.263783" lon="-4.911617">
        <ele>2123.0</ele>
        <time>2018-09-16T12:46:30Z</time>
      </trkpt>
      <trkpt lat="40.263817" lon="-4.911733">
        <ele>2124.0</ele>
        <time>2018-09-16T12:46:31Z</time>
      </trkpt>
      <trkpt lat="40.263867" lon="-4.911800">
        <ele>2125.0</ele>
        <time>2018-09-16T12:46:32Z</time>
      </trkpt>
      <trkpt lat="40.263933" lon="-4.911867">
        <ele>2125.0</ele>
        <time>2018-09-16T12:46:33Z</time>
      </trkpt>
      <trkpt lat="40.263983" lon="-4.911900">
        <ele>2124.0</ele>
        <time>2018-09-16T12:46:34Z</time>
      </trkpt>
      <trkpt lat="40.264050" lon="-4.911900">
        <ele>2124.0</ele>
        <time>2018-09-16T12:46:35Z</time>
      </trkpt>
      <trkpt lat="40.264117" lon="-4.911900">
        <ele>2124.0</ele>
        <time>2018-09-16T12:46:36Z</time>
      </trkpt>
      <trkpt lat="40.264200" lon="-4.911850">
        <ele>2124.0</ele>
        <time>2018-09-16T12:46:37Z</time>
      </trkpt>
      <trkpt lat="40.264283" lon="-4.911767">
        <ele>2126.0</ele>
        <time>2018-09-16T12:46:38Z</time>
      </trkpt>
      <trkpt lat="40.264350" lon="-4.911700">
        <ele>2132.0</ele>
        <time>2018-09-16T12:46:39Z</time>
      </trkpt>
      <trkpt lat="40.264383" lon="-4.911633">
        <ele>2139.0</ele>
        <time>2018-09-16T12:46:40Z</time>
      </trkpt>
      <trkpt lat="40.264417" lon="-4.911567">
        <ele>2146.0</ele>
        <time>2018-09-16T12:46:41Z</time>
      </trkpt>
      <trkpt lat="40.264450" lon="-4.911533">
        <ele>2151.0</ele>
        <time>2018-09-16T12:46:42Z</time>
      </trkpt>
      <trkpt lat="40.264467" lon="-4.911500">
        <ele>2154.0</ele>
        <time>2018-09-16T12:46:43Z</time>
      </trkpt>
      <trkpt lat="40.264517" lon="-4.911450">
        <ele>2157.0</ele>
        <time>2018-09-16T12:46:44Z</time>
      </trkpt>
      <trkpt lat="40.264567" lon="-4.911400">
        <ele>2158.0</ele>
        <time>2018-09-16T12:46:45Z</time>
      </trkpt>
      <trkpt lat="40.264633" lon="-4.911350">
        <ele>2161.0</ele>
        <time>2018-09-16T12:46:46Z</time>
      </trkpt>
      <trkpt lat="40.264667" lon="-4.911283">
        <ele>2163.0</ele>
        <time>2018-09-16T12:46:47Z</time>
      </trkpt>
      <trkpt lat="40.264700" lon="-4.911233">
        <ele>2165.0</ele>
        <time>2018-09-16T12:46:48Z</time>
      </trkpt>
      <trkpt lat="40.264733" lon="-4.911167">
        <ele>2166.0</ele>
        <time>2018-09-16T12:46:49Z</time>
      </trkpt>
      <trkpt lat="40.264733" lon="-4.911100">
        <ele>2165.0</ele>
        <time>2018-09-16T12:46:50Z</time>
      </trkpt>
      <trkpt lat="40.264733" lon="-4.910983">
        <ele>2166.0</ele>
        <time>2018-09-16T12:46:51Z</time>
      </trkpt>
      <trkpt lat="40.264717" lon="-4.910850">
        <ele>2166.0</ele>
        <time>2018-09-16T12:46:52Z</time>
      </trkpt>
      <trkpt lat="40.264683" lon="-4.910717">
        <ele>2169.0</ele>
        <time>2018-09-16T12:46:53Z</time>
      </trkpt>
      <trkpt lat="40.264633" lon="-4.910617">
        <ele>2173.0</ele>
        <time>2018-09-16T12:46:54Z</time>
      </trkpt>
      <trkpt lat="40.264583" lon="-4.910550">
        <ele>2177.0</ele>
        <time>2018-09-16T12:46:55Z</time>
      </trkpt>
      <trkpt lat="40.264500" lon="-4.910500">
        <ele>2181.0</ele>
        <time>2018-09-16T12:46:56Z</time>
      </trkpt>
      <trkpt lat="40.264417" lon="-4.910467">
        <ele>2184.0</ele>
        <time>2018-09-16T12:46:57Z</time>
      </trkpt>
      <trkpt lat="40.264317" lon="-4.910450">
        <ele>2187.0</ele>
        <time>2018-09-16T12:46:58Z</time>
      </trkpt>
      <trkpt lat="40.264217" lon="-4.910467">
        <ele>2189.0</ele>
        <time>2018-09-16T12:46:59Z</time>
      </trkpt>
      <trkpt lat="40.264117" lon="-4.910517">
        <ele>2192.0</ele>
        <time>2018-09-16T12:47:00Z</time>
      </trkpt>
      <trkpt lat="40.264017" lon="-4.910617">
        <ele>2194.0</ele>
        <time>2018-09-16T12:47:01Z</time>
      </trkpt>
      <trkpt lat="40.263950" lon="-4.910733">
        <ele>2196.0</ele>
        <time>2018-09-16T12:47:02Z</time>
      </trkpt>
      <trkpt lat="40.263883" lon="-4.910867">
        <ele>2199.0</ele>
        <time>2018-09-16T12:47:03Z</time>
      </trkpt>
      <trkpt lat="40.263833" lon="-4.911000">
        <ele>2203.0</ele>
        <time>2018-09-16T12:47:04Z</time>
      </trkpt>
      <trkpt lat="40.263800" lon="-4.911133">
        <ele>2207.0</ele>
        <time>2018-09-16T12:47:05Z</time>
      </trkpt>
      <trkpt lat="40.263783" lon="-4.911250">
        <ele>2210.0</ele>
        <time>2018-09-16T12:47:06Z</time>
      </trkpt>
      <trkpt lat="40.263800" lon="-4.911383">
        <ele>2212.0</ele>
        <time>2018-09-16T12:47:07Z</time>
      </trkpt>
      <trkpt lat="40.263817" lon="-4.911500">
        <ele>2214.0</ele>
        <time>2018-09-16T12:47:08Z</time>
      </trkpt>
      <trkpt lat="40.263867" lon="-4.911600">
        <ele>2217.0</ele>
        <time>2018-09-16T12:47:09Z</time>
      </trkpt>
      <trkpt lat="40.263917" lon="-4.911683">
        <ele>2219.0</ele>
        <time>2018-09-16T12:47:10Z</time>
      </trkpt>
      <trkpt lat="40.263983" lon="-4.911717">
        <ele>2222.0</ele>
        <time>2018-09-16T12:47:11Z</time>
      </trkpt>
      <trkpt lat="40.264050" lon="-4.911700">
        <ele>2224.0</ele>
        <time>2018-09-16T12:47:12Z</time>
      </trkpt>
      <trkpt lat="40.264117" lon="-4.911667">
        <ele>2226.0</ele>
        <time>2018-09-16T12:47:13Z</time>
      </trkpt>
      <trkpt lat="40.264167" lon="-4.911583">
        <ele>2227.0</ele>
        <time>2018-09-16T12:47:14Z</time>
      </trkpt>
      <trkpt lat="40.264217" lon="-4.911517">
        <ele>2228.0</ele>
        <time>2018-09-16T12:47:15Z</time>
      </trkpt>
      <trkpt lat="40.264233" lon="-4.911417">
        <ele>2229.0</ele>
        <time>2018-09-16T12:47:16Z</time>
      </trkpt>
      <trkpt lat="40.264217" lon="-4.911317">
        <ele>2230.0</ele>
        <time>2018-09-16T12:47:17Z</time>
      </trkpt>
      <trkpt lat="40.264167" lon="-4.911233">
        <ele>2230.0</ele>
        <time>2018-09-16T12:47:18Z</time>
      </trkpt>
      <trkpt lat="40.264100" lon="-4.911150">
        <ele>2231.0</ele>
        <time>2018-09-16T12:47:19Z</time>
      </trkpt>
      <trkpt lat="40.264017" lon="-4.911067">
        <ele>2234.0</ele>
        <time>2018-09-16T12:47:20Z</time>
      </trkpt>
      <trkpt lat="40.263917" lon="-4.910983">
        <ele>2237.0</ele>
        <time>2018-09-16T12:47:21Z</time>
      </trkpt>
      <trkpt lat="40.263833" lon="-4.910950">
        <ele>2241.0</ele>
        <time>2018-09-16T12:47:22Z</time>
      </trkpt>
      <trkpt lat="40.263750" lon="-4.910933">
        <ele>2244.0</ele>
        <time>2018-09-16T12:47:23Z</time>
      </trkpt>
      <trkpt lat="40.263650" lon="-4.910933">
        <ele>2245.0</ele>
        <time>2018-09-16T12:47:24Z</time>
      </trkpt>
      <trkpt lat="40.263533" lon="-4.910967">
        <ele>2245.0</ele>
        <time>2018-09-16T12:47:25Z</time>
      </trkpt>
      <trkpt lat="40.263417" lon="-4.911000">
        <ele>2246.0</ele>
        <time>2018-09-16T12:47:26Z</time>
      </trkpt>
      <trkpt lat="40.263300" lon="-4.911067">
        <ele>2245.0</ele>
        <time>2018-09-16T12:47:27Z</time>
      </trkpt>
      <trkpt lat="40.263183" lon="-4.911167">
        <ele>2245.0</ele>
        <time>2018-09-16T12:47:28Z</time>
      </trkpt>
      <trkpt lat="40.263083" lon="-4.911300">
        <ele>2244.0</ele>
        <time>2018-09-16T12:47:29Z</time>
      </trkpt>
      <trkpt lat="40.263000" lon="-4.911450">
        <ele>2243.0</ele>
        <time>2018-09-16T12:47:30Z</time>
      </trkpt>
      <trkpt lat="40.262933" lon="-4.911633">
        <ele>2242.0</ele>
        <time>2018-09-16T12:47:31Z</time>
      </trkpt>
      <trkpt lat="40.262900" lon="-4.911800">
        <ele>2242.0</ele>
        <time>2018-09-16T12:47:32Z</time>
      </trkpt>
      <trkpt lat="40.262917" lon="-4.911967">
        <ele>2243.0</ele>
        <time>2018-09-16T12:47:33Z</time>
      </trkpt>
      <trkpt lat="40.262950" lon="-4.912100">
        <ele>2243.0</ele>
        <time>2018-09-16T12:47:34Z</time>
      </trkpt>
      <trkpt lat="40.263017" lon="-4.912217">
        <ele>2244.0</ele>
        <time>2018-09-16T12:47:35Z</time>
      </trkpt>
      <trkpt lat="40.263083" lon="-4.912317">
        <ele>2245.0</ele>
        <time>2018-09-16T12:47:36Z</time>
      </trkpt>
      <trkpt lat="40.263167" lon="-4.912400">
        <ele>2247.0</ele>
        <time>2018-09-16T12:47:37Z</time>
      </trkpt>
      <trkpt lat="40.263233" lon="-4.912467">
        <ele>2249.0</ele>
        <time>2018-09-16T12:47:38Z</time>
      </trkpt>
      <trkpt lat="40.263317" lon="-4.912517">
        <ele>2251.0</ele>
        <time>2018-09-16T12:47:39Z</time>
      </trkpt>
      <trkpt lat="40.263400" lon="-4.912533">
        <ele>2254.0</ele>
        <time>2018-09-16T12:47:40Z</time>
      </trkpt>
      <trkpt lat="40.263467" lon="-4.912550">
        <ele>2258.0</ele>
        <time>2018-09-16T12:47:41Z</time>
      </trkpt>
      <trkpt lat="40.263533" lon="-4.912567">
        <ele>2262.0</ele>
        <time>2018-09-16T12:47:42Z</time>
      </trkpt>
      <trkpt lat="40.263583" lon="-4.912583">
        <ele>2264.0</ele>
        <time>2018-09-16T12:47:43Z</time>
      </trkpt>
      <trkpt lat="40.263633" lon="-4.912600">
        <ele>2265.0</ele>
        <time>2018-09-16T12:47:44Z</time>
      </trkpt>
      <trkpt lat="40.263700" lon="-4.912600">
        <ele>2263.0</ele>
        <time>2018-09-16T12:47:45Z</time>
      </trkpt>
      <trkpt lat="40.263750" lon="-4.912600">
        <ele>2261.0</ele>
        <time>2018-09-16T12:47:46Z</time>
      </trkpt>
      <trkpt lat="40.263800" lon="-4.912550">
        <ele>2258.0</ele>
        <time>2018-09-16T12:47:47Z</time>
      </trkpt>
      <trkpt lat="40.263850" lon="-4.912483">
        <ele>2256.0</ele>
        <time>2018-09-16T12:47:48Z</time>
      </trkpt>
      <trkpt lat="40.263883" lon="-4.912417">
        <ele>2256.0</ele>
        <time>2018-09-16T12:47:49Z</time>
      </trkpt>
      <trkpt lat="40.263900" lon="-4.912367">
        <ele>2255.0</ele>
        <time>2018-09-16T12:47:50Z</time>
      </trkpt>
      <trkpt lat="40.263933" lon="-4.912350">
        <ele>2254.0</ele>
        <time>2018-09-16T12:47:51Z</time>
      </trkpt>
      <trkpt lat="40.263933" lon="-4.912317">
        <ele>2251.0</ele>
        <time>2018-09-16T12:47:52Z</time>
      </trkpt>
      <trkpt lat="40.263950" lon="-4.912267">
        <ele>2247.0</ele>
        <time>2018-09-16T12:47:53Z</time>
      </trkpt>
      <trkpt lat="40.263967" lon="-4.912217">
        <ele>2243.0</ele>
        <time>2018-09-16T12:47:54Z</time>
      </trkpt>
      <trkpt lat="40.263983" lon="-4.912150">
        <ele>2239.0</ele>
        <time>2018-09-16T12:47:55Z</time>
      </trkpt>
      <trkpt lat="40.264000" lon="-4.912083">
        <ele>2236.0</ele>
        <time>2018-09-16T12:47:56Z</time>
      </trkpt>
      <trkpt lat="40.264017" lon="-4.912000">
        <ele>2232.0</ele>
        <time>2018-09-16T12:47:57Z</time>
      </trkpt>
      <trkpt lat="40.264017" lon="-4.911933">
        <ele>2228.0</ele>
        <time>2018-09-16T12:47:58Z</time>
      </trkpt>
      <trkpt lat="40.264033" lon="-4.911867">
        <ele>2224.0</ele>
        <time>2018-09-16T12:47:59Z</time>
      </trkpt>
      <trkpt lat="40.264033" lon="-4.911800">
        <ele>2220.0</ele>
        <time>2018-09-16T12:48:00Z</time>
      </trkpt>
      <trkpt lat="40.264067" lon="-4.911733">
        <ele>2215.0</ele>
        <time>2018-09-16T12:48:01Z</time>
      </trkpt>
      <trkpt lat="40.264117" lon="-4.911683">
        <ele>2209.0</ele>
        <time>2018-09-16T12:48:02Z</time>
      </trkpt>
      <trkpt lat="40.264167" lon="-4.911633">
        <ele>2205.0</ele>
        <time>2018-09-16T12:48:03Z</time>
      </trkpt>
      <trkpt lat="40.264233" lon="-4.911583">
        <ele>2201.0</ele>
        <time>2018-09-16T12:48:04Z</time>
      </trkpt>
      <trkpt lat="40.264300" lon="-4.911550">
        <ele>2199.0</ele>
        <time>2018-09-16T12:48:05Z</time>
      </trkpt>
      <trkpt lat="40.264367" lon="-4.911500">
        <ele>2200.0</ele>
        <time>2018-09-16T12:48:06Z</time>
      </trkpt>
      <trkpt lat="40.264417" lon="-4.911450">
        <ele>2202.0</ele>
        <time>2018-09-16T12:48:07Z</time>
      </trkpt>
      <trkpt lat="40.264450" lon="-4.911400">
        <ele>2204.0</ele>
        <time>2018-09-16T12:48:08Z</time>
      </trkpt>
      <trkpt lat="40.264483" lon="-4.911367">
        <ele>2206.0</ele>
        <time>2018-09-16T12:48:09Z</time>
      </trkpt>
      <trkpt lat="40.264517" lon="-4.911317">
        <ele>2206.0</ele>
        <time>2018-09-16T12:48:10Z</time>
      </trkpt>
      <trkpt lat="40.264567" lon="-4.911283">
        <ele>2205.0</ele>
        <time>2018-09-16T12:48:11Z</time>
      </trkpt>
      <trkpt lat="40.264633" lon="-4.911233">
        <ele>2205.0</ele>
        <time>2018-09-16T12:48:12Z</time>
      </trkpt>
      <trkpt lat="40.264717" lon="-4.911200">
        <ele>2205.0</ele>
        <time>2018-09-16T12:48:13Z</time>
      </trkpt>
      <trkpt lat="40.264783" lon="-4.911167">
        <ele>2207.0</ele>
        <time>2018-09-16T12:48:14Z</time>
      </trkpt>
      <trkpt lat="40.264850" lon="-4.911150">
        <ele>2209.0</ele>
        <time>2018-09-16T12:48:15Z</time>
      </trkpt>
      <trkpt lat="40.264900" lon="-4.911133">
        <ele>2212.0</ele>
        <time>2018-09-16T12:48:16Z</time>
      </trkpt>
      <trkpt lat="40.264950" lon="-4.911117">
        <ele>2214.0</ele>
        <time>2018-09-16T12:48:17Z</time>
      </trkpt>
      <trkpt lat="40.265017" lon="-4.911100">
        <ele>2215.0</ele>
        <time>2018-09-16T12:48:18Z</time>
      </trkpt>
      <trkpt lat="40.265067" lon="-4.911067">
        <ele>2217.0</ele>
        <time>2018-09-16T12:48:19Z</time>
      </trkpt>
      <trkpt lat="40.265133" lon="-4.911050">
        <ele>2219.0</ele>
        <time>2018-09-16T12:48:20Z</time>
      </trkpt>
      <trkpt lat="40.265183" lon="-4.911050">
        <ele>2221.0</ele>
        <time>2018-09-16T12:48:21Z</time>
      </trkpt>
      <trkpt lat="40.265250" lon="-4.911050">
        <ele>2223.0</ele>
        <time>2018-09-16T12:48:22Z</time>
      </trkpt>
      <trkpt lat="40.265300" lon="-4.911050">
        <ele>2224.0</ele>
        <time>2018-09-16T12:48:23Z</time>
      </trkpt>
      <trkpt lat="40.265350" lon="-4.911033">
        <ele>2226.0</ele>
        <time>2018-09-16T12:48:24Z</time>
      </trkpt>
      <trkpt lat="40.265400" lon="-4.911033">
        <ele>2229.0</ele>
        <time>2018-09-16T12:48:25Z</time>
      </trkpt>
      <trkpt lat="40.265450" lon="-4.911017">
        <ele>2230.0</ele>
        <time>2018-09-16T12:48:26Z</time>
      </trkpt>
      <trkpt lat="40.265483" lon="-4.911000">
        <ele>2231.0</ele>
        <time>2018-09-16T12:48:27Z</time>
      </trkpt>
      <trkpt lat="40.265533" lon="-4.910983">
        <ele>2231.0</ele>
        <time>2018-09-16T12:48:28Z</time>
      </trkpt>
      <trkpt lat="40.265583" lon="-4.910950">
        <ele>2231.0</ele>
        <time>2018-09-16T12:48:29Z</time>
      </trkpt>
      <trkpt lat="40.265617" lon="-4.910917">
        <ele>2230.0</ele>
        <time>2018-09-16T12:48:30Z</time>
      </trkpt>
      <trkpt lat="40.265650" lon="-4.910850">
        <ele>2229.0</ele>
        <time>2018-09-16T12:48:31Z</time>
      </trkpt>
      <trkpt lat="40.265683" lon="-4.910800">
        <ele>2227.0</ele>
        <time>2018-09-16T12:48:32Z</time>
      </trkpt>
      <trkpt lat="40.265717" lon="-4.910717">
        <ele>2224.0</ele>
        <time>2018-09-16T12:48:33Z</time>
      </trkpt>
      <trkpt lat="40.265733" lon="-4.910633">
        <ele>2222.0</ele>
        <time>2018-09-16T12:48:34Z</time>
      </trkpt>
      <trkpt lat="40.265767" lon="-4.910533">
        <ele>2221.0</ele>
        <time>2018-09-16T12:48:35Z</time>
      </trkpt>
      <trkpt lat="40.265783" lon="-4.910450">
        <ele>2220.0</ele>
        <time>2018-09-16T12:48:36Z</time>
      </trkpt>
      <trkpt lat="40.265800" lon="-4.910367">
        <ele>2219.0</ele>
        <time>2018-09-16T12:48:37Z</time>
      </trkpt>
      <trkpt lat="40.265817" lon="-4.910267">
        <ele>2218.0</ele>
        <time>2018-09-16T12:48:38Z</time>
      </trkpt>
      <trkpt lat="40.265833" lon="-4.910167">
        <ele>2216.0</ele>
        <time>2018-09-16T12:48:39Z</time>
      </trkpt>
      <trkpt lat="40.265833" lon="-4.910050">
        <ele>2215.0</ele>
        <time>2018-09-16T12:48:40Z</time>
      </trkpt>
      <trkpt lat="40.265850" lon="-4.909933">
        <ele>2214.0</ele>
        <time>2018-09-16T12:48:41Z</time>
      </trkpt>
      <trkpt lat="40.265850" lon="-4.909817">
        <ele>2214.0</ele>
        <time>2018-09-16T12:48:42Z</time>
      </trkpt>
      <trkpt lat="40.265867" lon="-4.909700">
        <ele>2214.0</ele>
        <time>2018-09-16T12:48:43Z</time>
      </trkpt>
      <trkpt lat="40.265883" lon="-4.909583">
        <ele>2213.0</ele>
        <time>2018-09-16T12:48:44Z</time>
      </trkpt>
      <trkpt lat="40.265900" lon="-4.909450">
        <ele>2212.0</ele>
        <time>2018-09-16T12:48:45Z</time>
      </trkpt>
      <trkpt lat="40.265917" lon="-4.909317">
        <ele>2212.0</ele>
        <time>2018-09-16T12:48:46Z</time>
      </trkpt>
      <trkpt lat="40.265933" lon="-4.909167">
        <ele>2211.0</ele>
        <time>2018-09-16T12:48:47Z</time>
      </trkpt>
      <trkpt lat="40.265933" lon="-4.909033">
        <ele>2211.0</ele>
        <time>2018-09-16T12:48:48Z</time>
      </trkpt>
      <trkpt lat="40.265950" lon="-4.908900">
        <ele>2211.0</ele>
        <time>2018-09-16T12:48:49Z</time>
      </trkpt>
      <trkpt lat="40.265967" lon="-4.908767">
        <ele>2211.0</ele>
        <time>2018-09-16T12:48:50Z</time>
      </trkpt>
      <trkpt lat="40.265983" lon="-4.908617">
        <ele>2210.0</ele>
        <time>2018-09-16T12:48:51Z</time>
      </trkpt>
      <trkpt lat="40.265983" lon="-4.908483">
        <ele>2209.0</ele>
        <time>2018-09-16T12:48:52Z</time>
      </trkpt>
      <trkpt lat="40.266000" lon="-4.908333">
        <ele>2208.0</ele>
        <time>2018-09-16T12:48:53Z</time>
      </trkpt>
      <trkpt lat="40.266033" lon="-4.908167">
        <ele>2207.0</ele>
        <time>2018-09-16T12:48:54Z</time>
      </trkpt>
      <trkpt lat="40.266067" lon="-4.907983">
        <ele>2208.0</ele>
        <time>2018-09-16T12:48:55Z</time>
      </trkpt>
      <trkpt lat="40.266100" lon="-4.907833">
        <ele>2211.0</ele>
        <time>2018-09-16T12:48:56Z</time>
      </trkpt>
      <trkpt lat="40.266167" lon="-4.907700">
        <ele>2215.0</ele>
        <time>2018-09-16T12:48:57Z</time>
      </trkpt>
      <trkpt lat="40.266217" lon="-4.907583">
        <ele>2219.0</ele>
        <time>2018-09-16T12:48:58Z</time>
      </trkpt>
      <trkpt lat="40.266267" lon="-4.907517">
        <ele>2221.0</ele>
        <time>2018-09-16T12:48:59Z</time>
      </trkpt>
      <trkpt lat="40.266317" lon="-4.907433">
        <ele>2223.0</ele>
        <time>2018-09-16T12:49:00Z</time>
      </trkpt>
      <trkpt lat="40.266350" lon="-4.907333">
        <ele>2224.0</ele>
        <time>2018-09-16T12:49:01Z</time>
      </trkpt>
      <trkpt lat="40.266367" lon="-4.907217">
        <ele>2223.0</ele>
        <time>2018-09-16T12:49:02Z</time>
      </trkpt>
      <trkpt lat="40.266400" lon="-4.907117">
        <ele>2223.0</ele>
        <time>2018-09-16T12:49:03Z</time>
      </trkpt>
      <trkpt lat="40.266450" lon="-4.906983">
        <ele>2223.0</ele>
        <time>2018-09-16T12:49:04Z</time>
      </trkpt>
      <trkpt lat="40.266483" lon="-4.906850">
        <ele>2224.0</ele>
        <time>2018-09-16T12:49:05Z</time>
      </trkpt>
      <trkpt lat="40.266517" lon="-4.906717">
        <ele>2225.0</ele>
        <time>2018-09-16T12:49:06Z</time>
      </trkpt>
      <trkpt lat="40.266567" lon="-4.906600">
        <ele>2227.0</ele>
        <time>2018-09-16T12:49:07Z</time>
      </trkpt>
      <trkpt lat="40.266583" lon="-4.906483">
        <ele>2229.0</ele>
        <time>2018-09-16T12:49:08Z</time>
      </trkpt>
      <trkpt lat="40.266600" lon="-4.906383">
        <ele>2230.0</ele>
        <time>2018-09-16T12:49:09Z</time>
      </trkpt>
      <trkpt lat="40.266600" lon="-4.906267">
        <ele>2231.0</ele>
        <time>2018-09-16T12:49:10Z</time>
      </trkpt>
      <trkpt lat="40.266567" lon="-4.906183">
        <ele>2231.0</ele>
        <time>2018-09-16T12:49:11Z</time>
      </trkpt>
      <trkpt lat="40.266517" lon="-4.906100">
        <ele>2228.0</ele>
        <time>2018-09-16T12:49:12Z</time>
      </trkpt>
      <trkpt lat="40.266433" lon="-4.906017">
        <ele>2225.0</ele>
        <time>2018-09-16T12:49:13Z</time>
      </trkpt>
      <trkpt lat="40.266333" lon="-4.905967">
        <ele>2223.0</ele>
        <time>2018-09-16T12:49:14Z</time>
      </trkpt>
      <trkpt lat="40.266233" lon="-4.905933">
        <ele>2220.0</ele>
        <time>2018-09-16T12:49:15Z</time>
      </trkpt>
      <trkpt lat="40.266117" lon="-4.905950">
        <ele>2218.0</ele>
        <time>2018-09-16T12:49:16Z</time>
      </trkpt>
      <trkpt lat="40.266017" lon="-4.905983">
        <ele>2215.0</ele>
        <time>2018-09-16T12:49:17Z</time>
      </trkpt>
      <trkpt lat="40.265933" lon="-4.906067">
        <ele>2213.0</ele>
        <time>2018-09-16T12:49:18Z</time>
      </trkpt>
      <trkpt lat="40.265883" lon="-4.906167">
        <ele>2212.0</ele>
        <time>2018-09-16T12:49:19Z</time>
      </trkpt>
      <trkpt lat="40.265850" lon="-4.906283">
        <ele>2211.0</ele>
        <time>2018-09-16T12:49:20Z</time>
      </trkpt>
      <trkpt lat="40.265850" lon="-4.906383">
        <ele>2210.0</ele>
        <time>2018-09-16T12:49:21Z</time>
      </trkpt>
      <trkpt lat="40.265883" lon="-4.906483">
        <ele>2210.0</ele>
        <time>2018-09-16T12:49:22Z</time>
      </trkpt>
      <trkpt lat="40.265933" lon="-4.906567">
        <ele>2210.0</ele>
        <time>2018-09-16T12:49:23Z</time>
      </trkpt>
      <trkpt lat="40.265983" lon="-4.906617">
        <ele>2209.0</ele>
        <time>2018-09-16T12:49:24Z</time>
      </trkpt>
      <trkpt lat="40.266050" lon="-4.906667">
        <ele>2208.0</ele>
        <time>2018-09-16T12:49:25Z</time>
      </trkpt>
      <trkpt lat="40.266133" lon="-4.906683">
        <ele>2207.0</ele>
        <time>2018-09-16T12:49:26Z</time>
      </trkpt>
      <trkpt lat="40.266217" lon="-4.906683">
        <ele>2207.0</ele>
        <time>2018-09-16T12:49:27Z</time>
      </trkpt>
      <trkpt lat="40.266317" lon="-4.906683">
        <ele>2207.0</ele>
        <time>2018-09-16T12:49:28Z</time>
      </trkpt>
      <trkpt lat="40.266400" lon="-4.906667">
        <ele>2208.0</ele>
        <time>2018-09-16T12:49:29Z</time>
      </trkpt>
      <trkpt lat="40.266467" lon="-4.906633">
        <ele>2208.0</ele>
        <time>2018-09-16T12:49:30Z</time>
      </trkpt>
      <trkpt lat="40.266550" lon="-4.906600">
        <ele>2208.0</ele>
        <time>2018-09-16T12:49:31Z</time>
      </trkpt>
      <trkpt lat="40.266617" lon="-4.906533">
        <ele>2207.0</ele>
        <time>2018-09-16T12:49:32Z</time>
      </trkpt>
      <trkpt lat="40.266683" lon="-4.906450">
        <ele>2205.0</ele>
        <time>2018-09-16T12:49:33Z</time>
      </trkpt>
      <trkpt lat="40.266750" lon="-4.906350">
        <ele>2203.0</ele>
        <time>2018-09-16T12:49:34Z</time>
      </trkpt>
      <trkpt lat="40.266800" lon="-4.906267">
        <ele>2202.0</ele>
        <time>2018-09-16T12:49:35Z</time>
      </trkpt>
      <trkpt lat="40.266867" lon="-4.906167">
        <ele>2200.0</ele>
        <time>2018-09-16T12:49:36Z</time>
      </trkpt>
      <trkpt lat="40.266917" lon="-4.906067">
        <ele>2198.0</ele>
        <time>2018-09-16T12:49:37Z</time>
      </trkpt>
      <trkpt lat="40.266950" lon="-4.905967">
        <ele>2197.0</ele>
        <time>2018-09-16T12:49:38Z</time>
      </trkpt>
      <trkpt lat="40.266983" lon="-4.905867">
        <ele>2195.0</ele>
        <time>2018-09-16T12:49:39Z</time>
      </trkpt>
      <trkpt lat="40.267017" lon="-4.905767">
        <ele>2193.0</ele>
        <time>2018-09-16T12:49:40Z</time>
      </trkpt>
      <trkpt lat="40.267050" lon="-4.905667">
        <ele>2191.0</ele>
        <time>2018-09-16T12:49:41Z</time>
      </trkpt>
      <trkpt lat="40.267100" lon="-4.905567">
        <ele>2190.0</ele>
        <time>2018-09-16T12:49:42Z</time>
      </trkpt>
      <trkpt lat="40.267150" lon="-4.905467">
        <ele>2189.0</ele>
        <time>2018-09-16T12:49:43Z</time>
      </trkpt>
      <trkpt lat="40.267183" lon="-4.905383">
        <ele>2189.0</ele>
        <time>2018-09-16T12:49:44Z</time>
      </trkpt>
      <trkpt lat="40.267217" lon="-4.905317">
        <ele>2188.0</ele>
        <time>2018-09-16T12:49:45Z</time>
      </trkpt>
      <trkpt lat="40.267267" lon="-4.905233">
        <ele>2185.0</ele>
        <time>2018-09-16T12:49:46Z</time>
      </trkpt>
      <trkpt lat="40.267300" lon="-4.905133">
        <ele>2182.0</ele>
        <time>2018-09-16T12:49:47Z</time>
      </trkpt>
      <trkpt lat="40.267350" lon="-4.905033">
        <ele>2180.0</ele>
        <time>2018-09-16T12:49:48Z</time>
      </trkpt>
      <trkpt lat="40.267383" lon="-4.904917">
        <ele>2179.0</ele>
        <time>2018-09-16T12:49:49Z</time>
      </trkpt>
      <trkpt lat="40.267400" lon="-4.904800">
        <ele>2179.0</ele>
        <time>2018-09-16T12:49:50Z</time>
      </trkpt>
      <trkpt lat="40.267417" lon="-4.904700">
        <ele>2180.0</ele>
        <time>2018-09-16T12:49:51Z</time>
      </trkpt>
      <trkpt lat="40.267417" lon="-4.904617">
        <ele>2180.0</ele>
        <time>2018-09-16T12:49:52Z</time>
      </trkpt>
      <trkpt lat="40.267433" lon="-4.904533">
        <ele>2179.0</ele>
        <time>2018-09-16T12:49:53Z</time>
      </trkpt>
      <trkpt lat="40.267467" lon="-4.904433">
        <ele>2177.0</ele>
        <time>2018-09-16T12:49:54Z</time>
      </trkpt>
      <trkpt lat="40.267483" lon="-4.904333">
        <ele>2174.0</ele>
        <time>2018-09-16T12:49:55Z</time>
      </trkpt>
      <trkpt lat="40.267517" lon="-4.904217">
        <ele>2172.0</ele>
        <time>2018-09-16T12:49:56Z</time>
      </trkpt>
      <trkpt lat="40.267533" lon="-4.904117">
        <ele>2170.0</ele>
        <time>2018-09-16T12:49:57Z</time>
      </trkpt>
      <trkpt lat="40.267567" lon="-4.904000">
        <ele>2169.0</ele>
        <time>2018-09-16T12:49:58Z</time>
      </trkpt>
      <trkpt lat="40.267600" lon="-4.903917">
        <ele>2167.0</ele>
        <time>2018-09-16T12:49:59Z</time>
      </trkpt>
      <trkpt lat="40.267633" lon="-4.903817">
        <ele>2166.0</ele>
        <time>2018-09-16T12:50:00Z</time>
      </trkpt>
      <trkpt lat="40.267667" lon="-4.903733">
        <ele>2164.0</ele>
        <time>2018-09-16T12:50:01Z</time>
      </trkpt>
      <trkpt lat="40.267700" lon="-4.903633">
        <ele>2163.0</ele>
        <time>2018-09-16T12:50:02Z</time>
      </trkpt>
      <trkpt lat="40.267733" lon="-4.903533">
        <ele>2161.0</ele>
        <time>2018-09-16T12:50:03Z</time>
      </trkpt>
      <trkpt lat="40.267767" lon="-4.903450">
        <ele>2159.0</ele>
        <time>2018-09-16T12:50:04Z</time>
      </trkpt>
      <trkpt lat="40.267817" lon="-4.903350">
        <ele>2158.0</ele>
        <time>2018-09-16T12:50:05Z</time>
      </trkpt>
      <trkpt lat="40.267850" lon="-4.903267">
        <ele>2156.0</ele>
        <time>2018-09-16T12:50:06Z</time>
      </trkpt>
      <trkpt lat="40.267883" lon="-4.903167">
        <ele>2155.0</ele>
        <time>2018-09-16T12:50:07Z</time>
      </trkpt>
      <trkpt lat="40.267917" lon="-4.903083">
        <ele>2154.0</ele>
        <time>2018-09-16T12:50:08Z</time>
      </trkpt>
      <trkpt lat="40.267967" lon="-4.902983">
        <ele>2153.0</ele>
        <time>2018-09-16T12:50:09Z</time>
      </trkpt>
      <trkpt lat="40.268000" lon="-4.902900">
        <ele>2152.0</ele>
        <time>2018-09-16T12:50:10Z</time>
      </trkpt>
      <trkpt lat="40.268033" lon="-4.902800">
        <ele>2150.0</ele>
        <time>2018-09-16T12:50:11Z</time>
      </trkpt>
      <trkpt lat="40.268067" lon="-4.902700">
        <ele>2148.0</ele>
        <time>2018-09-16T12:50:12Z</time>
      </trkpt>
      <trkpt lat="40.268100" lon="-4.902583">
        <ele>2147.0</ele>
        <time>2018-09-16T12:50:13Z</time>
      </trkpt>
      <trkpt lat="40.268133" lon="-4.902483">
        <ele>2146.0</ele>
        <time>2018-09-16T12:50:14Z</time>
      </trkpt>
      <trkpt lat="40.268150" lon="-4.902383">
        <ele>2145.0</ele>
        <time>2018-09-16T12:50:15Z</time>
      </trkpt>
      <trkpt lat="40.268183" lon="-4.902283">
        <ele>2144.0</ele>
        <time>2018-09-16T12:50:16Z</time>
      </trkpt>
      <trkpt lat="40.268217" lon="-4.902200">
        <ele>2143.0</ele>
        <time>2018-09-16T12:50:17Z</time>
      </trkpt>
      <trkpt lat="40.268250" lon="-4.902100">
        <ele>2143.0</ele>
        <time>2018-09-16T12:50:18Z</time>
      </trkpt>
      <trkpt lat="40.268300" lon="-4.901983">
        <ele>2142.0</ele>
        <time>2018-09-16T12:50:19Z</time>
      </trkpt>
      <trkpt lat="40.268333" lon="-4.901883">
        <ele>2142.0</ele>
        <time>2018-09-16T12:50:20Z</time>
      </trkpt>
      <trkpt lat="40.268383" lon="-4.901783">
        <ele>2142.0</ele>
        <time>2018-09-16T12:50:21Z</time>
      </trkpt>
      <trkpt lat="40.268450" lon="-4.901683">
        <ele>2143.0</ele>
        <time>2018-09-16T12:50:22Z</time>
      </trkpt>
      <trkpt lat="40.268483" lon="-4.901600">
        <ele>2143.0</ele>
        <time>2018-09-16T12:50:23Z</time>
      </trkpt>
      <trkpt lat="40.268533" lon="-4.901517">
        <ele>2143.0</ele>
        <time>2018-09-16T12:50:24Z</time>
      </trkpt>
      <trkpt lat="40.268567" lon="-4.901433">
        <ele>2142.0</ele>
        <time>2018-09-16T12:50:25Z</time>
      </trkpt>
      <trkpt lat="40.268617" lon="-4.901350">
        <ele>2141.0</ele>
        <time>2018-09-16T12:50:26Z</time>
      </trkpt>
      <trkpt lat="40.268650" lon="-4.901250">
        <ele>2139.0</ele>
        <time>2018-09-16T12:50:27Z</time>
      </trkpt>
      <trkpt lat="40.268700" lon="-4.901150">
        <ele>2137.0</ele>
        <time>2018-09-16T12:50:28Z</time>
      </trkpt>
      <trkpt lat="40.268733" lon="-4.901050">
        <ele>2137.0</ele>
        <time>2018-09-16T12:50:29Z</time>
      </trkpt>
      <trkpt lat="40.268750" lon="-4.900950">
        <ele>2137.0</ele>
        <time>2018-09-16T12:50:30Z</time>
      </trkpt>
      <trkpt lat="40.268767" lon="-4.900850">
        <ele>2137.0</ele>
        <time>2018-09-16T12:50:31Z</time>
      </trkpt>
      <trkpt lat="40.268783" lon="-4.900767">
        <ele>2136.0</ele>
        <time>2018-09-16T12:50:32Z</time>
      </trkpt>
      <trkpt lat="40.268817" lon="-4.900683">
        <ele>2136.0</ele>
        <time>2018-09-16T12:50:33Z</time>
      </trkpt>
      <trkpt lat="40.268850" lon="-4.900583">
        <ele>2135.0</ele>
        <time>2018-09-16T12:50:34Z</time>
      </trkpt>
      <trkpt lat="40.268883" lon="-4.900483">
        <ele>2134.0</ele>
        <time>2018-09-16T12:50:35Z</time>
      </trkpt>
      <trkpt lat="40.268917" lon="-4.900383">
        <ele>2133.0</ele>
        <time>2018-09-16T12:50:36Z</time>
      </trkpt>
      <trkpt lat="40.268967" lon="-4.900283">
        <ele>2133.0</ele>
        <time>2018-09-16T12:50:37Z</time>
      </trkpt>
      <trkpt lat="40.268983" lon="-4.900200">
        <ele>2134.0</ele>
        <time>2018-09-16T12:50:38Z</time>
      </trkpt>
      <trkpt lat="40.269017" lon="-4.900117">
        <ele>2133.0</ele>
        <time>2018-09-16T12:50:39Z</time>
      </trkpt>
      <trkpt lat="40.269067" lon="-4.900033">
        <ele>2132.0</ele>
        <time>2018-09-16T12:50:40Z</time>
      </trkpt>
      <trkpt lat="40.269117" lon="-4.899950">
        <ele>2130.0</ele>
        <time>2018-09-16T12:50:41Z</time>
      </trkpt>
      <trkpt lat="40.269167" lon="-4.899867">
        <ele>2129.0</ele>
        <time>2018-09-16T12:50:42Z</time>
      </trkpt>
      <trkpt lat="40.269217" lon="-4.899767">
        <ele>2128.0</ele>
        <time>2018-09-16T12:50:43Z</time>
      </trkpt>
      <trkpt lat="40.269250" lon="-4.899683">
        <ele>2128.0</ele>
        <time>2018-09-16T12:50:44Z</time>
      </trkpt>
      <trkpt lat="40.269300" lon="-4.899583">
        <ele>2127.0</ele>
        <time>2018-09-16T12:50:45Z</time>
      </trkpt>
      <trkpt lat="40.269350" lon="-4.899500">
        <ele>2125.0</ele>
        <time>2018-09-16T12:50:46Z</time>
      </trkpt>
      <trkpt lat="40.269400" lon="-4.899400">
        <ele>2123.0</ele>
        <time>2018-09-16T12:50:47Z</time>
      </trkpt>
      <trkpt lat="40.269450" lon="-4.899300">
        <ele>2122.0</ele>
        <time>2018-09-16T12:50:48Z</time>
      </trkpt>
      <trkpt lat="40.269517" lon="-4.899183">
        <ele>2120.0</ele>
        <time>2018-09-16T12:50:49Z</time>
      </trkpt>
      <trkpt lat="40.269567" lon="-4.899083">
        <ele>2119.0</ele>
        <time>2018-09-16T12:50:50Z</time>
      </trkpt>
      <trkpt lat="40.269633" lon="-4.898983">
        <ele>2119.0</ele>
        <time>2018-09-16T12:50:51Z</time>
      </trkpt>
      <trkpt lat="40.269700" lon="-4.898883">
        <ele>2118.0</ele>
        <time>2018-09-16T12:50:52Z</time>
      </trkpt>
      <trkpt lat="40.269767" lon="-4.898800">
        <ele>2117.0</ele>
        <time>2018-09-16T12:50:53Z</time>
      </trkpt>
      <trkpt lat="40.269817" lon="-4.898700">
        <ele>2115.0</ele>
        <time>2018-09-16T12:50:54Z</time>
      </trkpt>
      <trkpt lat="40.269883" lon="-4.898583">
        <ele>2113.0</ele>
        <time>2018-09-16T12:50:55Z</time>
      </trkpt>
      <trkpt lat="40.269950" lon="-4.898483">
        <ele>2112.0</ele>
        <time>2018-09-16T12:50:56Z</time>
      </trkpt>
      <trkpt lat="40.270000" lon="-4.898383">
        <ele>2111.0</ele>
        <time>2018-09-16T12:50:57Z</time>
      </trkpt>
      <trkpt lat="40.270067" lon="-4.898283">
        <ele>2110.0</ele>
        <time>2018-09-16T12:50:58Z</time>
      </trkpt>
      <trkpt lat="40.270117" lon="-4.898167">
        <ele>2109.0</ele>
        <time>2018-09-16T12:50:59Z</time>
      </trkpt>
      <trkpt lat="40.270150" lon="-4.898067">
        <ele>2108.0</ele>
        <time>2018-09-16T12:51:00Z</time>
      </trkpt>
      <trkpt lat="40.270200" lon="-4.897950">
        <ele>2106.0</ele>
        <time>2018-09-16T12:51:01Z</time>
      </trkpt>
      <trkpt lat="40.270250" lon="-4.897833">
        <ele>2105.0</ele>
        <time>2018-09-16T12:51:02Z</time>
      </trkpt>
      <trkpt lat="40.270300" lon="-4.897717">
        <ele>2104.0</ele>
        <time>2018-09-16T12:51:03Z</time>
      </trkpt>
      <trkpt lat="40.270350" lon="-4.897600">
        <ele>2104.0</ele>
        <time>2018-09-16T12:51:04Z</time>
      </trkpt>
      <trkpt lat="40.270383" lon="-4.897500">
        <ele>2103.0</ele>
        <time>2018-09-16T12:51:05Z</time>
      </trkpt>
      <trkpt lat="40.270417" lon="-4.897383">
        <ele>2102.0</ele>
        <time>2018-09-16T12:51:06Z</time>
      </trkpt>
      <trkpt lat="40.270450" lon="-4.897267">
        <ele>2101.0</ele>
        <time>2018-09-16T12:51:07Z</time>
      </trkpt>
      <trkpt lat="40.270483" lon="-4.897150">
        <ele>2100.0</ele>
        <time>2018-09-16T12:51:08Z</time>
      </trkpt>
      <trkpt lat="40.270517" lon="-4.897017">
        <ele>2099.0</ele>
        <time>2018-09-16T12:51:09Z</time>
      </trkpt>
      <trkpt lat="40.270550" lon="-4.896900">
        <ele>2098.0</ele>
        <time>2018-09-16T12:51:10Z</time>
      </trkpt>
      <trkpt lat="40.270583" lon="-4.896783">
        <ele>2097.0</ele>
        <time>2018-09-16T12:51:11Z</time>
      </trkpt>
      <trkpt lat="40.270600" lon="-4.896667">
        <ele>2097.0</ele>
        <time>2018-09-16T12:51:12Z</time>
      </trkpt>
      <trkpt lat="40.270633" lon="-4.896550">
        <ele>2096.0</ele>
        <time>2018-09-16T12:51:13Z</time>
      </trkpt>
      <trkpt lat="40.270667" lon="-4.896433">
        <ele>2095.0</ele>
        <time>2018-09-16T12:51:14Z</time>
      </trkpt>
      <trkpt lat="40.270700" lon="-4.896317">
        <ele>2094.0</ele>
        <time>2018-09-16T12:51:15Z</time>
      </trkpt>
      <trkpt lat="40.270750" lon="-4.896200">
        <ele>2092.0</ele>
        <time>2018-09-16T12:51:16Z</time>
      </trkpt>
      <trkpt lat="40.270783" lon="-4.896083">
        <ele>2091.0</ele>
        <time>2018-09-16T12:51:17Z</time>
      </trkpt>
      <trkpt lat="40.270833" lon="-4.895967">
        <ele>2090.0</ele>
        <time>2018-09-16T12:51:18Z</time>
      </trkpt>
      <trkpt lat="40.270867" lon="-4.895850">
        <ele>2089.0</ele>
        <time>2018-09-16T12:51:19Z</time>
      </trkpt>
      <trkpt lat="40.270917" lon="-4.895750">
        <ele>2088.0</ele>
        <time>2018-09-16T12:51:20Z</time>
      </trkpt>
      <trkpt lat="40.270967" lon="-4.895633">
        <ele>2087.0</ele>
        <time>2018-09-16T12:51:21Z</time>
      </trkpt>
      <trkpt lat="40.271000" lon="-4.895533">
        <ele>2086.0</ele>
        <time>2018-09-16T12:51:22Z</time>
      </trkpt>
      <trkpt lat="40.271050" lon="-4.895417">
        <ele>2085.0</ele>
        <time>2018-09-16T12:51:23Z</time>
      </trkpt>
      <trkpt lat="40.271100" lon="-4.895300">
        <ele>2084.0</ele>
        <time>2018-09-16T12:51:24Z</time>
      </trkpt>
      <trkpt lat="40.271133" lon="-4.895200">
        <ele>2083.0</ele>
        <time>2018-09-16T12:51:25Z</time>
      </trkpt>
      <trkpt lat="40.271183" lon="-4.895083">
        <ele>2081.0</ele>
        <time>2018-09-16T12:51:26Z</time>
      </trkpt>
      <trkpt lat="40.271233" lon="-4.894983">
        <ele>2080.0</ele>
        <time>2018-09-16T12:51:27Z</time>
      </trkpt>
      <trkpt lat="40.271283" lon="-4.894867">
        <ele>2079.0</ele>
        <time>2018-09-16T12:51:28Z</time>
      </trkpt>
      <trkpt lat="40.271333" lon="-4.894767">
        <ele>2077.0</ele>
        <time>2018-09-16T12:51:29Z</time>
      </trkpt>
      <trkpt lat="40.271383" lon="-4.894650">
        <ele>2076.0</ele>
        <time>2018-09-16T12:51:30Z</time>
      </trkpt>
      <trkpt lat="40.271433" lon="-4.894550">
        <ele>2075.0</ele>
        <time>2018-09-16T12:51:31Z</time>
      </trkpt>
      <trkpt lat="40.271500" lon="-4.894433">
        <ele>2074.0</ele>
        <time>2018-09-16T12:51:32Z</time>
      </trkpt>
      <trkpt lat="40.271550" lon="-4.894333">
        <ele>2073.0</ele>
        <time>2018-09-16T12:51:33Z</time>
      </trkpt>
      <trkpt lat="40.271600" lon="-4.894233">
        <ele>2072.0</ele>
        <time>2018-09-16T12:51:34Z</time>
      </trkpt>
      <trkpt lat="40.271650" lon="-4.894133">
        <ele>2071.0</ele>
        <time>2018-09-16T12:51:35Z</time>
      </trkpt>
      <trkpt lat="40.271700" lon="-4.894033">
        <ele>2070.0</ele>
        <time>2018-09-16T12:51:36Z</time>
      </trkpt>
      <trkpt lat="40.271750" lon="-4.893933">
        <ele>2068.0</ele>
        <time>2018-09-16T12:51:37Z</time>
      </trkpt>
      <trkpt lat="40.271800" lon="-4.893833">
        <ele>2066.0</ele>
        <time>2018-09-16T12:51:38Z</time>
      </trkpt>
      <trkpt lat="40.271850" lon="-4.893717">
        <ele>2064.0</ele>
        <time>2018-09-16T12:51:39Z</time>
      </trkpt>
      <trkpt lat="40.271900" lon="-4.893617">
        <ele>2062.0</ele>
        <time>2018-09-16T12:51:40Z</time>
      </trkpt>
      <trkpt lat="40.271967" lon="-4.893500">
        <ele>2061.0</ele>
        <time>2018-09-16T12:51:41Z</time>
      </trkpt>
      <trkpt lat="40.272017" lon="-4.893400">
        <ele>2059.0</ele>
        <time>2018-09-16T12:51:42Z</time>
      </trkpt>
      <trkpt lat="40.272083" lon="-4.893300">
        <ele>2059.0</ele>
        <time>2018-09-16T12:51:43Z</time>
      </trkpt>
      <trkpt lat="40.272133" lon="-4.893200">
        <ele>2058.0</ele>
        <time>2018-09-16T12:51:44Z</time>
      </trkpt>
      <trkpt lat="40.272183" lon="-4.893100">
        <ele>2057.0</ele>
        <time>2018-09-16T12:51:45Z</time>
      </trkpt>
      <trkpt lat="40.272233" lon="-4.893000">
        <ele>2055.0</ele>
        <time>2018-09-16T12:51:46Z</time>
      </trkpt>
      <trkpt lat="40.272283" lon="-4.892883">
        <ele>2054.0</ele>
        <time>2018-09-16T12:51:47Z</time>
      </trkpt>
      <trkpt lat="40.272333" lon="-4.892783">
        <ele>2052.0</ele>
        <time>2018-09-16T12:51:48Z</time>
      </trkpt>
      <trkpt lat="40.272383" lon="-4.892683">
        <ele>2051.0</ele>
        <time>2018-09-16T12:51:49Z</time>
      </trkpt>
      <trkpt lat="40.272433" lon="-4.892583">
        <ele>2050.0</ele>
        <time>2018-09-16T12:51:50Z</time>
      </trkpt>
      <trkpt lat="40.272483" lon="-4.892467">
        <ele>2049.0</ele>
        <time>2018-09-16T12:51:51Z</time>
      </trkpt>
      <trkpt lat="40.272533" lon="-4.892367">
        <ele>2048.0</ele>
        <time>2018-09-16T12:51:52Z</time>
      </trkpt>
      <trkpt lat="40.272583" lon="-4.892267">
        <ele>2046.0</ele>
        <time>2018-09-16T12:51:53Z</time>
      </trkpt>
      <trkpt lat="40.272633" lon="-4.892167">
        <ele>2044.0</ele>
        <time>2018-09-16T12:51:54Z</time>
      </trkpt>
      <trkpt lat="40.272683" lon="-4.892050">
        <ele>2043.0</ele>
        <time>2018-09-16T12:51:55Z</time>
      </trkpt>
      <trkpt lat="40.272733" lon="-4.891950">
        <ele>2042.0</ele>
        <time>2018-09-16T12:51:56Z</time>
      </trkpt>
      <trkpt lat="40.272783" lon="-4.891850">
        <ele>2041.0</ele>
        <time>2018-09-16T12:51:57Z</time>
      </trkpt>
      <trkpt lat="40.272833" lon="-4.891750">
        <ele>2040.0</ele>
        <time>2018-09-16T12:51:58Z</time>
      </trkpt>
      <trkpt lat="40.272883" lon="-4.891650">
        <ele>2039.0</ele>
        <time>2018-09-16T12:51:59Z</time>
      </trkpt>
      <trkpt lat="40.272933" lon="-4.891550">
        <ele>2038.0</ele>
        <time>2018-09-16T12:52:00Z</time>
      </trkpt>
      <trkpt lat="40.272967" lon="-4.891433">
        <ele>2037.0</ele>
        <time>2018-09-16T12:52:01Z</time>
      </trkpt>
      <trkpt lat="40.273017" lon="-4.891333">
        <ele>2036.0</ele>
        <time>2018-09-16T12:52:02Z</time>
      </trkpt>
      <trkpt lat="40.273050" lon="-4.891233">
        <ele>2035.0</ele>
        <time>2018-09-16T12:52:03Z</time>
      </trkpt>
      <trkpt lat="40.273100" lon="-4.891117">
        <ele>2034.0</ele>
        <time>2018-09-16T12:52:04Z</time>
      </trkpt>
      <trkpt lat="40.273133" lon="-4.891000">
        <ele>2032.0</ele>
        <time>2018-09-16T12:52:05Z</time>
      </trkpt>
      <trkpt lat="40.273183" lon="-4.890883">
        <ele>2031.0</ele>
        <time>2018-09-16T12:52:06Z</time>
      </trkpt>
      <trkpt lat="40.273217" lon="-4.890767">
        <ele>2029.0</ele>
        <time>2018-09-16T12:52:07Z</time>
      </trkpt>
      <trkpt lat="40.273267" lon="-4.890650">
        <ele>2028.0</ele>
        <time>2018-09-16T12:52:08Z</time>
      </trkpt>
      <trkpt lat="40.273300" lon="-4.890533">
        <ele>2027.0</ele>
        <time>2018-09-16T12:52:09Z</time>
      </trkpt>
      <trkpt lat="40.273350" lon="-4.890433">
        <ele>2026.0</ele>
        <time>2018-09-16T12:52:10Z</time>
      </trkpt>
      <trkpt lat="40.273400" lon="-4.890317">
        <ele>2025.0</ele>
        <time>2018-09-16T12:52:11Z</time>
      </trkpt>
      <trkpt lat="40.273433" lon="-4.890200">
        <ele>2024.0</ele>
        <time>2018-09-16T12:52:12Z</time>
      </trkpt>
      <trkpt lat="40.273483" lon="-4.890100">
        <ele>2022.0</ele>
        <time>2018-09-16T12:52:13Z</time>
      </trkpt>
      <trkpt lat="40.273533" lon="-4.889983">
        <ele>2021.0</ele>
        <time>2018-09-16T12:52:14Z</time>
      </trkpt>
      <trkpt lat="40.273567" lon="-4.889850">
        <ele>2020.0</ele>
        <time>2018-09-16T12:52:15Z</time>
      </trkpt>
      <trkpt lat="40.273600" lon="-4.889733">
        <ele>2018.0</ele>
        <time>2018-09-16T12:52:16Z</time>
      </trkpt>
      <trkpt lat="40.273633" lon="-4.889617">
        <ele>2017.0</ele>
        <time>2018-09-16T12:52:17Z</time>
      </trkpt>
      <trkpt lat="40.273650" lon="-4.889483">
        <ele>2016.0</ele>
        <time>2018-09-16T12:52:18Z</time>
      </trkpt>
      <trkpt lat="40.273683" lon="-4.889367">
        <ele>2015.0</ele>
        <time>2018-09-16T12:52:19Z</time>
      </trkpt>
      <trkpt lat="40.273733" lon="-4.889250">
        <ele>2014.0</ele>
        <time>2018-09-16T12:52:20Z</time>
      </trkpt>
      <trkpt lat="40.273767" lon="-4.889133">
        <ele>2013.0</ele>
        <time>2018-09-16T12:52:21Z</time>
      </trkpt>
      <trkpt lat="40.273817" lon="-4.889017">
        <ele>2011.0</ele>
        <time>2018-09-16T12:52:22Z</time>
      </trkpt>
      <trkpt lat="40.273867" lon="-4.888900">
        <ele>2010.0</ele>
        <time>2018-09-16T12:52:23Z</time>
      </trkpt>
      <trkpt lat="40.273917" lon="-4.888783">
        <ele>2008.0</ele>
        <time>2018-09-16T12:52:24Z</time>
      </trkpt>
      <trkpt lat="40.273967" lon="-4.888667">
        <ele>2007.0</ele>
        <time>2018-09-16T12:52:25Z</time>
      </trkpt>
      <trkpt lat="40.274017" lon="-4.888550">
        <ele>2006.0</ele>
        <time>2018-09-16T12:52:26Z</time>
      </trkpt>
      <trkpt lat="40.274083" lon="-4.888433">
        <ele>2005.0</ele>
        <time>2018-09-16T12:52:27Z</time>
      </trkpt>
      <trkpt lat="40.274133" lon="-4.888317">
        <ele>2004.0</ele>
        <time>2018-09-16T12:52:28Z</time>
      </trkpt>
      <trkpt lat="40.274200" lon="-4.888217">
        <ele>2003.0</ele>
        <time>2018-09-16T12:52:29Z</time>
      </trkpt>
      <trkpt lat="40.274267" lon="-4.888100">
        <ele>2001.0</ele>
        <time>2018-09-16T12:52:30Z</time>
      </trkpt>
      <trkpt lat="40.274333" lon="-4.888000">
        <ele>2000.0</ele>
        <time>2018-09-16T12:52:31Z</time>
      </trkpt>
      <trkpt lat="40.274400" lon="-4.887883">
        <ele>1998.0</ele>
        <time>2018-09-16T12:52:32Z</time>
      </trkpt>
      <trkpt lat="40.274467" lon="-4.887767">
        <ele>1997.0</ele>
        <time>2018-09-16T12:52:33Z</time>
      </trkpt>
      <trkpt lat="40.274517" lon="-4.887650">
        <ele>1996.0</ele>
        <time>2018-09-16T12:52:34Z</time>
      </trkpt>
      <trkpt lat="40.274583" lon="-4.887533">
        <ele>1995.0</ele>
        <time>2018-09-16T12:52:35Z</time>
      </trkpt>
      <trkpt lat="40.274650" lon="-4.887417">
        <ele>1994.0</ele>
        <time>2018-09-16T12:52:36Z</time>
      </trkpt>
      <trkpt lat="40.274700" lon="-4.887300">
        <ele>1993.0</ele>
        <time>2018-09-16T12:52:37Z</time>
      </trkpt>
      <trkpt lat="40.274767" lon="-4.887200">
        <ele>1992.0</ele>
        <time>2018-09-16T12:52:38Z</time>
      </trkpt>
      <trkpt lat="40.274817" lon="-4.887083">
        <ele>1991.0</ele>
        <time>2018-09-16T12:52:39Z</time>
      </trkpt>
      <trkpt lat="40.274883" lon="-4.886967">
        <ele>1989.0</ele>
        <time>2018-09-16T12:52:40Z</time>
      </trkpt>
      <trkpt lat="40.274933" lon="-4.886850">
        <ele>1987.0</ele>
        <time>2018-09-16T12:52:41Z</time>
      </trkpt>
      <trkpt lat="40.275000" lon="-4.886733">
        <ele>1986.0</ele>
        <time>2018-09-16T12:52:42Z</time>
      </trkpt>
      <trkpt lat="40.275050" lon="-4.886617">
        <ele>1985.0</ele>
        <time>2018-09-16T12:52:43Z</time>
      </trkpt>
      <trkpt lat="40.275100" lon="-4.886500">
        <ele>1984.0</ele>
        <time>2018-09-16T12:52:44Z</time>
      </trkpt>
      <trkpt lat="40.275150" lon="-4.886383">
        <ele>1983.0</ele>
        <time>2018-09-16T12:52:45Z</time>
      </trkpt>
      <trkpt lat="40.275217" lon="-4.886267">
        <ele>1982.0</ele>
        <time>2018-09-16T12:52:46Z</time>
      </trkpt>
      <trkpt lat="40.275267" lon="-4.886150">
        <ele>1981.0</ele>
        <time>2018-09-16T12:52:47Z</time>
      </trkpt>
      <trkpt lat="40.275317" lon="-4.886033">
        <ele>1979.0</ele>
        <time>2018-09-16T12:52:48Z</time>
      </trkpt>
      <trkpt lat="40.275367" lon="-4.885917">
        <ele>1978.0</ele>
        <time>2018-09-16T12:52:49Z</time>
      </trkpt>
      <trkpt lat="40.275400" lon="-4.885800">
        <ele>1976.0</ele>
        <time>2018-09-16T12:52:50Z</time>
      </trkpt>
      <trkpt lat="40.275450" lon="-4.885667">
        <ele>1975.0</ele>
        <time>2018-09-16T12:52:51Z</time>
      </trkpt>
      <trkpt lat="40.275500" lon="-4.885550">
        <ele>1973.0</ele>
        <time>2018-09-16T12:52:52Z</time>
      </trkpt>
      <trkpt lat="40.275550" lon="-4.885433">
        <ele>1972.0</ele>
        <time>2018-09-16T12:52:53Z</time>
      </trkpt>
      <trkpt lat="40.275600" lon="-4.885317">
        <ele>1971.0</ele>
        <time>2018-09-16T12:52:54Z</time>
      </trkpt>
      <trkpt lat="40.275667" lon="-4.885200">
        <ele>1970.0</ele>
        <time>2018-09-16T12:52:55Z</time>
      </trkpt>
      <trkpt lat="40.275717" lon="-4.885083">
        <ele>1968.0</ele>
        <time>2018-09-16T12:52:56Z</time>
      </trkpt>
      <trkpt lat="40.275767" lon="-4.884967">
        <ele>1966.0</ele>
        <time>2018-09-16T12:52:57Z</time>
      </trkpt>
      <trkpt lat="40.275817" lon="-4.884850">
        <ele>1965.0</ele>
        <time>2018-09-16T12:52:58Z</time>
      </trkpt>
      <trkpt lat="40.275883" lon="-4.884750">
        <ele>1963.0</ele>
        <time>2018-09-16T12:52:59Z</time>
      </trkpt>
      <trkpt lat="40.275950" lon="-4.884633">
        <ele>1962.0</ele>
        <time>2018-09-16T12:53:00Z</time>
      </trkpt>
      <trkpt lat="40.276017" lon="-4.884533">
        <ele>1960.0</ele>
        <time>2018-09-16T12:53:01Z</time>
      </trkpt>
      <trkpt lat="40.276067" lon="-4.884417">
        <ele>1959.0</ele>
        <time>2018-09-16T12:53:02Z</time>
      </trkpt>
      <trkpt lat="40.276117" lon="-4.884300">
        <ele>1957.0</ele>
        <time>2018-09-16T12:53:03Z</time>
      </trkpt>
      <trkpt lat="40.276167" lon="-4.884183">
        <ele>1956.0</ele>
        <time>2018-09-16T12:53:04Z</time>
      </trkpt>
      <trkpt lat="40.276217" lon="-4.884067">
        <ele>1955.0</ele>
        <time>2018-09-16T12:53:05Z</time>
      </trkpt>
      <trkpt lat="40.276267" lon="-4.883967">
        <ele>1953.0</ele>
        <time>2018-09-16T12:53:06Z</time>
      </trkpt>
      <trkpt lat="40.276333" lon="-4.883850">
        <ele>1952.0</ele>
        <time>2018-09-16T12:53:07Z</time>
      </trkpt>
      <trkpt lat="40.276383" lon="-4.883733">
        <ele>1950.0</ele>
        <time>2018-09-16T12:53:08Z</time>
      </trkpt>
      <trkpt lat="40.276433" lon="-4.883617">
        <ele>1948.0</ele>
        <time>2018-09-16T12:53:09Z</time>
      </trkpt>
      <trkpt lat="40.276483" lon="-4.883483">
        <ele>1947.0</ele>
        <time>2018-09-16T12:53:10Z</time>
      </trkpt>
      <trkpt lat="40.276533" lon="-4.883367">
        <ele>1945.0</ele>
        <time>2018-09-16T12:53:11Z</time>
      </trkpt>
      <trkpt lat="40.276583" lon="-4.883250">
        <ele>1943.0</ele>
        <time>2018-09-16T12:53:12Z</time>
      </trkpt>
      <trkpt lat="40.276633" lon="-4.883133">
        <ele>1942.0</ele>
        <time>2018-09-16T12:53:13Z</time>
      </trkpt>
      <trkpt lat="40.276683" lon="-4.883017">
        <ele>1940.0</ele>
        <time>2018-09-16T12:53:14Z</time>
      </trkpt>
      <trkpt lat="40.276733" lon="-4.882900">
        <ele>1937.0</ele>
        <time>2018-09-16T12:53:15Z</time>
      </trkpt>
      <trkpt lat="40.276783" lon="-4.882783">
        <ele>1935.0</ele>
        <time>2018-09-16T12:53:16Z</time>
      </trkpt>
      <trkpt lat="40.276817" lon="-4.882667">
        <ele>1932.0</ele>
        <time>2018-09-16T12:53:17Z</time>
      </trkpt>
      <trkpt lat="40.276867" lon="-4.882550">
        <ele>1929.0</ele>
        <time>2018-09-16T12:53:18Z</time>
      </trkpt>
      <trkpt lat="40.276900" lon="-4.882417">
        <ele>1927.0</ele>
        <time>2018-09-16T12:53:19Z</time>
      </trkpt>
      <trkpt lat="40.276950" lon="-4.882300">
        <ele>1925.0</ele>
        <time>2018-09-16T12:53:20Z</time>
      </trkpt>
      <trkpt lat="40.277000" lon="-4.882200">
        <ele>1923.0</ele>
        <time>2018-09-16T12:53:21Z</time>
      </trkpt>
      <trkpt lat="40.277050" lon="-4.882100">
        <ele>1922.0</ele>
        <time>2018-09-16T12:53:22Z</time>
      </trkpt>
      <trkpt lat="40.277117" lon="-4.882017">
        <ele>1920.0</ele>
        <time>2018-09-16T12:53:23Z</time>
      </trkpt>
      <trkpt lat="40.277167" lon="-4.881933">
        <ele>1918.0</ele>
        <time>2018-09-16T12:53:24Z</time>
      </trkpt>
      <trkpt lat="40.277233" lon="-4.881850">
        <ele>1915.0</ele>
        <time>2018-09-16T12:53:25Z</time>
      </trkpt>
      <trkpt lat="40.277300" lon="-4.881750">
        <ele>1911.0</ele>
        <time>2018-09-16T12:53:26Z</time>
      </trkpt>
      <trkpt lat="40.277383" lon="-4.881667">
        <ele>1909.0</ele>
        <time>2018-09-16T12:53:27Z</time>
      </trkpt>
      <trkpt lat="40.277450" lon="-4.881583">
        <ele>1907.0</ele>
        <time>2018-09-16T12:53:28Z</time>
      </trkpt>
      <trkpt lat="40.277517" lon="-4.881500">
        <ele>1907.0</ele>
        <time>2018-09-16T12:53:29Z</time>
      </trkpt>
      <trkpt lat="40.277567" lon="-4.881400">
        <ele>1906.0</ele>
        <time>2018-09-16T12:53:30Z</time>
      </trkpt>
      <trkpt lat="40.277600" lon="-4.881300">
        <ele>1903.0</ele>
        <time>2018-09-16T12:53:31Z</time>
      </trkpt>
      <trkpt lat="40.277617" lon="-4.881183">
        <ele>1901.0</ele>
        <time>2018-09-16T12:53:32Z</time>
      </trkpt>
      <trkpt lat="40.277650" lon="-4.881067">
        <ele>1899.0</ele>
        <time>2018-09-16T12:53:33Z</time>
      </trkpt>
      <trkpt lat="40.277683" lon="-4.880950">
        <ele>1897.0</ele>
        <time>2018-09-16T12:53:34Z</time>
      </trkpt>
      <trkpt lat="40.277700" lon="-4.880817">
        <ele>1896.0</ele>
        <time>2018-09-16T12:53:35Z</time>
      </trkpt>
      <trkpt lat="40.277717" lon="-4.880700">
        <ele>1895.0</ele>
        <time>2018-09-16T12:53:36Z</time>
      </trkpt>
      <trkpt lat="40.277733" lon="-4.880567">
        <ele>1893.0</ele>
        <time>2018-09-16T12:53:37Z</time>
      </trkpt>
      <trkpt lat="40.277767" lon="-4.880450">
        <ele>1892.0</ele>
        <time>2018-09-16T12:53:38Z</time>
      </trkpt>
      <trkpt lat="40.277800" lon="-4.880317">
        <ele>1892.0</ele>
        <time>2018-09-16T12:53:39Z</time>
      </trkpt>
      <trkpt lat="40.277833" lon="-4.880200">
        <ele>1891.0</ele>
        <time>2018-09-16T12:53:40Z</time>
      </trkpt>
      <trkpt lat="40.277883" lon="-4.880100">
        <ele>1890.0</ele>
        <time>2018-09-16T12:53:41Z</time>
      </trkpt>
      <trkpt lat="40.277917" lon="-4.880000">
        <ele>1888.0</ele>
        <time>2018-09-16T12:53:42Z</time>
      </trkpt>
      <trkpt lat="40.277967" lon="-4.879883">
        <ele>1887.0</ele>
        <time>2018-09-16T12:53:43Z</time>
      </trkpt>
      <trkpt lat="40.278000" lon="-4.879783">
        <ele>1885.0</ele>
        <time>2018-09-16T12:53:44Z</time>
      </trkpt>
      <trkpt lat="40.278050" lon="-4.879683">
        <ele>1883.0</ele>
        <time>2018-09-16T12:53:45Z</time>
      </trkpt>
      <trkpt lat="40.278100" lon="-4.879567">
        <ele>1880.0</ele>
        <time>2018-09-16T12:53:46Z</time>
      </trkpt>
      <trkpt lat="40.278133" lon="-4.879433">
        <ele>1879.0</ele>
        <time>2018-09-16T12:53:47Z</time>
      </trkpt>
      <trkpt lat="40.278183" lon="-4.879317">
        <ele>1879.0</ele>
        <time>2018-09-16T12:53:48Z</time>
      </trkpt>
      <trkpt lat="40.278217" lon="-4.879217">
        <ele>1880.0</ele>
        <time>2018-09-16T12:53:49Z</time>
      </trkpt>
      <trkpt lat="40.278250" lon="-4.879117">
        <ele>1880.0</ele>
        <time>2018-09-16T12:53:50Z</time>
      </trkpt>
      <trkpt lat="40.278267" lon="-4.879017">
        <ele>1880.0</ele>
        <time>2018-09-16T12:53:51Z</time>
      </trkpt>
      <trkpt lat="40.278300" lon="-4.878933">
        <ele>1878.0</ele>
        <time>2018-09-16T12:53:52Z</time>
      </trkpt>
      <trkpt lat="40.278317" lon="-4.878817">
        <ele>1877.0</ele>
        <time>2018-09-16T12:53:53Z</time>
      </trkpt>
      <trkpt lat="40.278350" lon="-4.878700">
        <ele>1876.0</ele>
        <time>2018-09-16T12:53:54Z</time>
      </trkpt>
      <trkpt lat="40.278367" lon="-4.878600">
        <ele>1875.0</ele>
        <time>2018-09-16T12:53:55Z</time>
      </trkpt>
      <trkpt lat="40.278383" lon="-4.878483">
        <ele>1875.0</ele>
        <time>2018-09-16T12:53:56Z</time>
      </trkpt>
      <trkpt lat="40.278417" lon="-4.878383">
        <ele>1875.0</ele>
        <time>2018-09-16T12:53:57Z</time>
      </trkpt>
      <trkpt lat="40.278433" lon="-4.878300">
        <ele>1874.0</ele>
        <time>2018-09-16T12:53:58Z</time>
      </trkpt>
      <trkpt lat="40.278450" lon="-4.878200">
        <ele>1873.0</ele>
        <time>2018-09-16T12:53:59Z</time>
      </trkpt>
      <trkpt lat="40.278483" lon="-4.878083">
        <ele>1871.0</ele>
        <time>2018-09-16T12:54:00Z</time>
      </trkpt>
      <trkpt lat="40.278517" lon="-4.877967">
        <ele>1870.0</ele>
        <time>2018-09-16T12:54:01Z</time>
      </trkpt>
      <trkpt lat="40.278533" lon="-4.877850">
        <ele>1868.0</ele>
        <time>2018-09-16T12:54:02Z</time>
      </trkpt>
      <trkpt lat="40.278567" lon="-4.877733">
        <ele>1867.0</ele>
        <time>2018-09-16T12:54:03Z</time>
      </trkpt>
      <trkpt lat="40.278600" lon="-4.877617">
        <ele>1866.0</ele>
        <time>2018-09-16T12:54:04Z</time>
      </trkpt>
      <trkpt lat="40.278633" lon="-4.877500">
        <ele>1866.0</ele>
        <time>2018-09-16T12:54:05Z</time>
      </trkpt>
      <trkpt lat="40.278667" lon="-4.877383">
        <ele>1865.0</ele>
        <time>2018-09-16T12:54:06Z</time>
      </trkpt>
      <trkpt lat="40.278700" lon="-4.877283">
        <ele>1864.0</ele>
        <time>2018-09-16T12:54:07Z</time>
      </trkpt>
      <trkpt lat="40.278733" lon="-4.877167">
        <ele>1863.0</ele>
        <time>2018-09-16T12:54:08Z</time>
      </trkpt>
      <trkpt lat="40.278783" lon="-4.877050">
        <ele>1861.0</ele>
        <time>2018-09-16T12:54:09Z</time>
      </trkpt>
      <trkpt lat="40.278817" lon="-4.876933">
        <ele>1860.0</ele>
        <time>2018-09-16T12:54:10Z</time>
      </trkpt>
      <trkpt lat="40.278850" lon="-4.876817">
        <ele>1859.0</ele>
        <time>2018-09-16T12:54:11Z</time>
      </trkpt>
      <trkpt lat="40.278883" lon="-4.876700">
        <ele>1858.0</ele>
        <time>2018-09-16T12:54:12Z</time>
      </trkpt>
      <trkpt lat="40.278917" lon="-4.876583">
        <ele>1857.0</ele>
        <time>2018-09-16T12:54:13Z</time>
      </trkpt>
      <trkpt lat="40.278950" lon="-4.876483">
        <ele>1856.0</ele>
        <time>2018-09-16T12:54:14Z</time>
      </trkpt>
      <trkpt lat="40.278983" lon="-4.876367">
        <ele>1854.0</ele>
        <time>2018-09-16T12:54:15Z</time>
      </trkpt>
      <trkpt lat="40.279017" lon="-4.876250">
        <ele>1853.0</ele>
        <time>2018-09-16T12:54:16Z</time>
      </trkpt>
      <trkpt lat="40.279050" lon="-4.876150">
        <ele>1851.0</ele>
        <time>2018-09-16T12:54:17Z</time>
      </trkpt>
      <trkpt lat="40.279100" lon="-4.876033">
        <ele>1850.0</ele>
        <time>2018-09-16T12:54:18Z</time>
      </trkpt>
      <trkpt lat="40.279133" lon="-4.875933">
        <ele>1849.0</ele>
        <time>2018-09-16T12:54:19Z</time>
      </trkpt>
      <trkpt lat="40.279167" lon="-4.875817">
        <ele>1848.0</ele>
        <time>2018-09-16T12:54:20Z</time>
      </trkpt>
      <trkpt lat="40.279200" lon="-4.875717">
        <ele>1846.0</ele>
        <time>2018-09-16T12:54:21Z</time>
      </trkpt>
      <trkpt lat="40.279250" lon="-4.875600">
        <ele>1844.0</ele>
        <time>2018-09-16T12:54:22Z</time>
      </trkpt>
      <trkpt lat="40.279283" lon="-4.875500">
        <ele>1843.0</ele>
        <time>2018-09-16T12:54:23Z</time>
      </trkpt>
      <trkpt lat="40.279317" lon="-4.875383">
        <ele>1841.0</ele>
        <time>2018-09-16T12:54:24Z</time>
      </trkpt>
      <trkpt lat="40.279350" lon="-4.875267">
        <ele>1840.0</ele>
        <time>2018-09-16T12:54:25Z</time>
      </trkpt>
      <trkpt lat="40.279367" lon="-4.875150">
        <ele>1838.0</ele>
        <time>2018-09-16T12:54:26Z</time>
      </trkpt>
      <trkpt lat="40.279400" lon="-4.875033">
        <ele>1837.0</ele>
        <time>2018-09-16T12:54:27Z</time>
      </trkpt>
      <trkpt lat="40.279433" lon="-4.874917">
        <ele>1836.0</ele>
        <time>2018-09-16T12:54:28Z</time>
      </trkpt>
      <trkpt lat="40.279450" lon="-4.874800">
        <ele>1835.0</ele>
        <time>2018-09-16T12:54:29Z</time>
      </trkpt>
      <trkpt lat="40.279483" lon="-4.874683">
        <ele>1835.0</ele>
        <time>2018-09-16T12:54:30Z</time>
      </trkpt>
      <trkpt lat="40.279500" lon="-4.874567">
        <ele>1834.0</ele>
        <time>2018-09-16T12:54:31Z</time>
      </trkpt>
      <trkpt lat="40.279533" lon="-4.874467">
        <ele>1832.0</ele>
        <time>2018-09-16T12:54:32Z</time>
      </trkpt>
      <trkpt lat="40.279550" lon="-4.874350">
        <ele>1831.0</ele>
        <time>2018-09-16T12:54:33Z</time>
      </trkpt>
      <trkpt lat="40.279583" lon="-4.874233">
        <ele>1830.0</ele>
        <time>2018-09-16T12:54:34Z</time>
      </trkpt>
      <trkpt lat="40.279617" lon="-4.874117">
        <ele>1828.0</ele>
        <time>2018-09-16T12:54:35Z</time>
      </trkpt>
      <trkpt lat="40.279650" lon="-4.874000">
        <ele>1827.0</ele>
        <time>2018-09-16T12:54:36Z</time>
      </trkpt>
      <trkpt lat="40.279683" lon="-4.873900">
        <ele>1826.0</ele>
        <time>2018-09-16T12:54:37Z</time>
      </trkpt>
      <trkpt lat="40.279717" lon="-4.873783">
        <ele>1825.0</ele>
        <time>2018-09-16T12:54:38Z</time>
      </trkpt>
      <trkpt lat="40.279750" lon="-4.873667">
        <ele>1823.0</ele>
        <time>2018-09-16T12:54:39Z</time>
      </trkpt>
      <trkpt lat="40.279783" lon="-4.873567">
        <ele>1822.0</ele>
        <time>2018-09-16T12:54:40Z</time>
      </trkpt>
      <trkpt lat="40.279817" lon="-4.873450">
        <ele>1820.0</ele>
        <time>2018-09-16T12:54:41Z</time>
      </trkpt>
      <trkpt lat="40.279850" lon="-4.873333">
        <ele>1818.0</ele>
        <time>2018-09-16T12:54:42Z</time>
      </trkpt>
      <trkpt lat="40.279883" lon="-4.873217">
        <ele>1817.0</ele>
        <time>2018-09-16T12:54:43Z</time>
      </trkpt>
      <trkpt lat="40.279900" lon="-4.873100">
        <ele>1816.0</ele>
        <time>2018-09-16T12:54:44Z</time>
      </trkpt>
      <trkpt lat="40.279933" lon="-4.872983">
        <ele>1814.0</ele>
        <time>2018-09-16T12:54:45Z</time>
      </trkpt>
      <trkpt lat="40.279950" lon="-4.872867">
        <ele>1813.0</ele>
        <time>2018-09-16T12:54:46Z</time>
      </trkpt>
      <trkpt lat="40.279967" lon="-4.872750">
        <ele>1811.0</ele>
        <time>2018-09-16T12:54:47Z</time>
      </trkpt>
      <trkpt lat="40.280000" lon="-4.872633">
        <ele>1810.0</ele>
        <time>2018-09-16T12:54:48Z</time>
      </trkpt>
      <trkpt lat="40.280017" lon="-4.872517">
        <ele>1808.0</ele>
        <time>2018-09-16T12:54:49Z</time>
      </trkpt>
      <trkpt lat="40.280050" lon="-4.872400">
        <ele>1807.0</ele>
        <time>2018-09-16T12:54:50Z</time>
      </trkpt>
      <trkpt lat="40.280067" lon="-4.872283">
        <ele>1805.0</ele>
        <time>2018-09-16T12:54:51Z</time>
      </trkpt>
      <trkpt lat="40.280100" lon="-4.872167">
        <ele>1804.0</ele>
        <time>2018-09-16T12:54:52Z</time>
      </trkpt>
      <trkpt lat="40.280133" lon="-4.872067">
        <ele>1803.0</ele>
        <time>2018-09-16T12:54:53Z</time>
      </trkpt>
      <trkpt lat="40.280167" lon="-4.871950">
        <ele>1802.0</ele>
        <time>2018-09-16T12:54:54Z</time>
      </trkpt>
      <trkpt lat="40.280200" lon="-4.871833">
        <ele>1800.0</ele>
        <time>2018-09-16T12:54:55Z</time>
      </trkpt>
      <trkpt lat="40.280233" lon="-4.871733">
        <ele>1799.0</ele>
        <time>2018-09-16T12:54:56Z</time>
      </trkpt>
      <trkpt lat="40.280267" lon="-4.871617">
        <ele>1797.0</ele>
        <time>2018-09-16T12:54:57Z</time>
      </trkpt>
      <trkpt lat="40.280300" lon="-4.871500">
        <ele>1796.0</ele>
        <time>2018-09-16T12:54:58Z</time>
      </trkpt>
      <trkpt lat="40.280333" lon="-4.871383">
        <ele>1794.0</ele>
        <time>2018-09-16T12:54:59Z</time>
      </trkpt>
      <trkpt lat="40.280350" lon="-4.871267">
        <ele>1793.0</ele>
        <time>2018-09-16T12:55:00Z</time>
      </trkpt>
      <trkpt lat="40.280383" lon="-4.871150">
        <ele>1791.0</ele>
        <time>2018-09-16T12:55:01Z</time>
      </trkpt>
      <trkpt lat="40.280417" lon="-4.871050">
        <ele>1789.0</ele>
        <time>2018-09-16T12:55:02Z</time>
      </trkpt>
      <trkpt lat="40.280433" lon="-4.870917">
        <ele>1788.0</ele>
        <time>2018-09-16T12:55:03Z</time>
      </trkpt>
      <trkpt lat="40.280450" lon="-4.870800">
        <ele>1786.0</ele>
        <time>2018-09-16T12:55:04Z</time>
      </trkpt>
      <trkpt lat="40.280483" lon="-4.870683">
        <ele>1785.0</ele>
        <time>2018-09-16T12:55:05Z</time>
      </trkpt>
      <trkpt lat="40.280500" lon="-4.870567">
        <ele>1783.0</ele>
        <time>2018-09-16T12:55:06Z</time>
      </trkpt>
      <trkpt lat="40.280517" lon="-4.870450">
        <ele>1782.0</ele>
        <time>2018-09-16T12:55:07Z</time>
      </trkpt>
      <trkpt lat="40.280533" lon="-4.870333">
        <ele>1780.0</ele>
        <time>2018-09-16T12:55:08Z</time>
      </trkpt>
      <trkpt lat="40.280567" lon="-4.870217">
        <ele>1779.0</ele>
        <time>2018-09-16T12:55:09Z</time>
      </trkpt>
      <trkpt lat="40.280583" lon="-4.870100">
        <ele>1777.0</ele>
        <time>2018-09-16T12:55:10Z</time>
      </trkpt>
      <trkpt lat="40.280617" lon="-4.869967">
        <ele>1775.0</ele>
        <time>2018-09-16T12:55:11Z</time>
      </trkpt>
      <trkpt lat="40.280633" lon="-4.869850">
        <ele>1774.0</ele>
        <time>2018-09-16T12:55:12Z</time>
      </trkpt>
      <trkpt lat="40.280650" lon="-4.869733">
        <ele>1772.0</ele>
        <time>2018-09-16T12:55:13Z</time>
      </trkpt>
      <trkpt lat="40.280683" lon="-4.869617">
        <ele>1771.0</ele>
        <time>2018-09-16T12:55:14Z</time>
      </trkpt>
      <trkpt lat="40.280700" lon="-4.869500">
        <ele>1769.0</ele>
        <time>2018-09-16T12:55:15Z</time>
      </trkpt>
      <trkpt lat="40.280717" lon="-4.869383">
        <ele>1767.0</ele>
        <time>2018-09-16T12:55:16Z</time>
      </trkpt>
      <trkpt lat="40.280750" lon="-4.869267">
        <ele>1765.0</ele>
        <time>2018-09-16T12:55:17Z</time>
      </trkpt>
      <trkpt lat="40.280767" lon="-4.869150">
        <ele>1764.0</ele>
        <time>2018-09-16T12:55:18Z</time>
      </trkpt>
      <trkpt lat="40.280783" lon="-4.869033">
        <ele>1762.0</ele>
        <time>2018-09-16T12:55:19Z</time>
      </trkpt>
      <trkpt lat="40.280800" lon="-4.868917">
        <ele>1760.0</ele>
        <time>2018-09-16T12:55:20Z</time>
      </trkpt>
      <trkpt lat="40.280817" lon="-4.868783">
        <ele>1758.0</ele>
        <time>2018-09-16T12:55:21Z</time>
      </trkpt>
      <trkpt lat="40.280817" lon="-4.868667">
        <ele>1757.0</ele>
        <time>2018-09-16T12:55:22Z</time>
      </trkpt>
      <trkpt lat="40.280850" lon="-4.868550">
        <ele>1755.0</ele>
        <time>2018-09-16T12:55:23Z</time>
      </trkpt>
      <trkpt lat="40.280867" lon="-4.868433">
        <ele>1753.0</ele>
        <time>2018-09-16T12:55:24Z</time>
      </trkpt>
      <trkpt lat="40.280883" lon="-4.868300">
        <ele>1751.0</ele>
        <time>2018-09-16T12:55:25Z</time>
      </trkpt>
      <trkpt lat="40.280900" lon="-4.868183">
        <ele>1750.0</ele>
        <time>2018-09-16T12:55:26Z</time>
      </trkpt>
      <trkpt lat="40.280917" lon="-4.868067">
        <ele>1748.0</ele>
        <time>2018-09-16T12:55:27Z</time>
      </trkpt>
      <trkpt lat="40.280933" lon="-4.867950">
        <ele>1746.0</ele>
        <time>2018-09-16T12:55:28Z</time>
      </trkpt>
      <trkpt lat="40.280950" lon="-4.867817">
        <ele>1745.0</ele>
        <time>2018-09-16T12:55:29Z</time>
      </trkpt>
      <trkpt lat="40.280967" lon="-4.867700">
        <ele>1744.0</ele>
        <time>2018-09-16T12:55:30Z</time>
      </trkpt>
      <trkpt lat="40.280983" lon="-4.867600">
        <ele>1742.0</ele>
        <time>2018-09-16T12:55:31Z</time>
      </trkpt>
      <trkpt lat="40.281017" lon="-4.867483">
        <ele>1741.0</ele>
        <time>2018-09-16T12:55:32Z</time>
      </trkpt>
      <trkpt lat="40.281033" lon="-4.867367">
        <ele>1739.0</ele>
        <time>2018-09-16T12:55:33Z</time>
      </trkpt>
      <trkpt lat="40.281033" lon="-4.867250">
        <ele>1737.0</ele>
        <time>2018-09-16T12:55:34Z</time>
      </trkpt>
      <trkpt lat="40.281050" lon="-4.867117">
        <ele>1735.0</ele>
        <time>2018-09-16T12:55:35Z</time>
      </trkpt>
      <trkpt lat="40.281067" lon="-4.867000">
        <ele>1734.0</ele>
        <time>2018-09-16T12:55:36Z</time>
      </trkpt>
      <trkpt lat="40.281083" lon="-4.866883">
        <ele>1733.0</ele>
        <time>2018-09-16T12:55:37Z</time>
      </trkpt>
      <trkpt lat="40.281100" lon="-4.866767">
        <ele>1731.0</ele>
        <time>2018-09-16T12:55:38Z</time>
      </trkpt>
      <trkpt lat="40.281100" lon="-4.866650">
        <ele>1730.0</ele>
        <time>2018-09-16T12:55:39Z</time>
      </trkpt>
      <trkpt lat="40.281117" lon="-4.866533">
        <ele>1728.0</ele>
        <time>2018-09-16T12:55:40Z</time>
      </trkpt>
      <trkpt lat="40.281117" lon="-4.866417">
        <ele>1727.0</ele>
        <time>2018-09-16T12:55:41Z</time>
      </trkpt>
      <trkpt lat="40.281133" lon="-4.866300">
        <ele>1726.0</ele>
        <time>2018-09-16T12:55:42Z</time>
      </trkpt>
      <trkpt lat="40.281150" lon="-4.866183">
        <ele>1725.0</ele>
        <time>2018-09-16T12:55:43Z</time>
      </trkpt>
      <trkpt lat="40.281167" lon="-4.866067">
        <ele>1724.0</ele>
        <time>2018-09-16T12:55:44Z</time>
      </trkpt>
      <trkpt lat="40.281200" lon="-4.865950">
        <ele>1722.0</ele>
        <time>2018-09-16T12:55:45Z</time>
      </trkpt>
      <trkpt lat="40.281217" lon="-4.865833">
        <ele>1721.0</ele>
        <time>2018-09-16T12:55:46Z</time>
      </trkpt>
      <trkpt lat="40.281250" lon="-4.865717">
        <ele>1719.0</ele>
        <time>2018-09-16T12:55:47Z</time>
      </trkpt>
      <trkpt lat="40.281300" lon="-4.865600">
        <ele>1718.0</ele>
        <time>2018-09-16T12:55:48Z</time>
      </trkpt>
      <trkpt lat="40.281333" lon="-4.865483">
        <ele>1717.0</ele>
        <time>2018-09-16T12:55:49Z</time>
      </trkpt>
      <trkpt lat="40.281350" lon="-4.865367">
        <ele>1716.0</ele>
        <time>2018-09-16T12:55:50Z</time>
      </trkpt>
      <trkpt lat="40.281383" lon="-4.865250">
        <ele>1715.0</ele>
        <time>2018-09-16T12:55:51Z</time>
      </trkpt>
      <trkpt lat="40.281400" lon="-4.865133">
        <ele>1714.0</ele>
        <time>2018-09-16T12:55:52Z</time>
      </trkpt>
      <trkpt lat="40.281433" lon="-4.865017">
        <ele>1712.0</ele>
        <time>2018-09-16T12:55:53Z</time>
      </trkpt>
      <trkpt lat="40.281450" lon="-4.864900">
        <ele>1711.0</ele>
        <time>2018-09-16T12:55:54Z</time>
      </trkpt>
      <trkpt lat="40.281467" lon="-4.864783">
        <ele>1709.0</ele>
        <time>2018-09-16T12:55:55Z</time>
      </trkpt>
      <trkpt lat="40.281483" lon="-4.864667">
        <ele>1708.0</ele>
        <time>2018-09-16T12:55:56Z</time>
      </trkpt>
      <trkpt lat="40.281500" lon="-4.864550">
        <ele>1706.0</ele>
        <time>2018-09-16T12:55:57Z</time>
      </trkpt>
      <trkpt lat="40.281517" lon="-4.864417">
        <ele>1705.0</ele>
        <time>2018-09-16T12:55:58Z</time>
      </trkpt>
      <trkpt lat="40.281533" lon="-4.864300">
        <ele>1704.0</ele>
        <time>2018-09-16T12:55:59Z</time>
      </trkpt>
      <trkpt lat="40.281550" lon="-4.864183">
        <ele>1703.0</ele>
        <time>2018-09-16T12:56:00Z</time>
      </trkpt>
      <trkpt lat="40.281550" lon="-4.864067">
        <ele>1701.0</ele>
        <time>2018-09-16T12:56:01Z</time>
      </trkpt>
      <trkpt lat="40.281567" lon="-4.863950">
        <ele>1700.0</ele>
        <time>2018-09-16T12:56:02Z</time>
      </trkpt>
      <trkpt lat="40.281583" lon="-4.863817">
        <ele>1699.0</ele>
        <time>2018-09-16T12:56:03Z</time>
      </trkpt>
      <trkpt lat="40.281600" lon="-4.863700">
        <ele>1698.0</ele>
        <time>2018-09-16T12:56:04Z</time>
      </trkpt>
      <trkpt lat="40.281617" lon="-4.863583">
        <ele>1697.0</ele>
        <time>2018-09-16T12:56:05Z</time>
      </trkpt>
      <trkpt lat="40.281633" lon="-4.863467">
        <ele>1697.0</ele>
        <time>2018-09-16T12:56:06Z</time>
      </trkpt>
      <trkpt lat="40.281650" lon="-4.863350">
        <ele>1695.0</ele>
        <time>2018-09-16T12:56:07Z</time>
      </trkpt>
      <trkpt lat="40.281667" lon="-4.863233">
        <ele>1694.0</ele>
        <time>2018-09-16T12:56:08Z</time>
      </trkpt>
      <trkpt lat="40.281683" lon="-4.863100">
        <ele>1692.0</ele>
        <time>2018-09-16T12:56:09Z</time>
      </trkpt>
      <trkpt lat="40.281700" lon="-4.862967">
        <ele>1691.0</ele>
        <time>2018-09-16T12:56:10Z</time>
      </trkpt>
      <trkpt lat="40.281717" lon="-4.862850">
        <ele>1690.0</ele>
        <time>2018-09-16T12:56:11Z</time>
      </trkpt>
      <trkpt lat="40.281733" lon="-4.862717">
        <ele>1690.0</ele>
        <time>2018-09-16T12:56:12Z</time>
      </trkpt>
      <trkpt lat="40.281750" lon="-4.862600">
        <ele>1689.0</ele>
        <time>2018-09-16T12:56:13Z</time>
      </trkpt>
      <trkpt lat="40.281767" lon="-4.862483">
        <ele>1688.0</ele>
        <time>2018-09-16T12:56:14Z</time>
      </trkpt>
      <trkpt lat="40.281783" lon="-4.862367">
        <ele>1687.0</ele>
        <time>2018-09-16T12:56:15Z</time>
      </trkpt>
      <trkpt lat="40.281800" lon="-4.862233">
        <ele>1686.0</ele>
        <time>2018-09-16T12:56:16Z</time>
      </trkpt>
      <trkpt lat="40.281817" lon="-4.862117">
        <ele>1685.0</ele>
        <time>2018-09-16T12:56:17Z</time>
      </trkpt>
      <trkpt lat="40.281817" lon="-4.861983">
        <ele>1684.0</ele>
        <time>2018-09-16T12:56:18Z</time>
      </trkpt>
      <trkpt lat="40.281833" lon="-4.861867">
        <ele>1683.0</ele>
        <time>2018-09-16T12:56:19Z</time>
      </trkpt>
      <trkpt lat="40.281867" lon="-4.861750">
        <ele>1682.0</ele>
        <time>2018-09-16T12:56:20Z</time>
      </trkpt>
      <trkpt lat="40.281883" lon="-4.861617">
        <ele>1681.0</ele>
        <time>2018-09-16T12:56:21Z</time>
      </trkpt>
      <trkpt lat="40.281900" lon="-4.861500">
        <ele>1680.0</ele>
        <time>2018-09-16T12:56:22Z</time>
      </trkpt>
      <trkpt lat="40.281917" lon="-4.861383">
        <ele>1680.0</ele>
        <time>2018-09-16T12:56:23Z</time>
      </trkpt>
      <trkpt lat="40.281950" lon="-4.861250">
        <ele>1679.0</ele>
        <time>2018-09-16T12:56:24Z</time>
      </trkpt>
      <trkpt lat="40.281950" lon="-4.861133">
        <ele>1678.0</ele>
        <time>2018-09-16T12:56:25Z</time>
      </trkpt>
      <trkpt lat="40.281967" lon="-4.861017">
        <ele>1677.0</ele>
        <time>2018-09-16T12:56:26Z</time>
      </trkpt>
      <trkpt lat="40.281983" lon="-4.860883">
        <ele>1676.0</ele>
        <time>2018-09-16T12:56:27Z</time>
      </trkpt>
      <trkpt lat="40.282000" lon="-4.860750">
        <ele>1675.0</ele>
        <time>2018-09-16T12:56:28Z</time>
      </trkpt>
      <trkpt lat="40.282017" lon="-4.860633">
        <ele>1674.0</ele>
        <time>2018-09-16T12:56:29Z</time>
      </trkpt>
      <trkpt lat="40.282033" lon="-4.860500">
        <ele>1674.0</ele>
        <time>2018-09-16T12:56:30Z</time>
      </trkpt>
      <trkpt lat="40.282050" lon="-4.860383">
        <ele>1673.0</ele>
        <time>2018-09-16T12:56:31Z</time>
      </trkpt>
      <trkpt lat="40.282083" lon="-4.860267">
        <ele>1672.0</ele>
        <time>2018-09-16T12:56:32Z</time>
      </trkpt>
      <trkpt lat="40.282100" lon="-4.860133">
        <ele>1671.0</ele>
        <time>2018-09-16T12:56:33Z</time>
      </trkpt>
      <trkpt lat="40.282117" lon="-4.860017">
        <ele>1669.0</ele>
        <time>2018-09-16T12:56:34Z</time>
      </trkpt>
      <trkpt lat="40.282133" lon="-4.859883">
        <ele>1668.0</ele>
        <time>2018-09-16T12:56:35Z</time>
      </trkpt>
      <trkpt lat="40.282150" lon="-4.859750">
        <ele>1667.0</ele>
        <time>2018-09-16T12:56:36Z</time>
      </trkpt>
      <trkpt lat="40.282167" lon="-4.859633">
        <ele>1665.0</ele>
        <time>2018-09-16T12:56:37Z</time>
      </trkpt>
      <trkpt lat="40.282183" lon="-4.859500">
        <ele>1663.0</ele>
        <time>2018-09-16T12:56:38Z</time>
      </trkpt>
      <trkpt lat="40.282200" lon="-4.859367">
        <ele>1662.0</ele>
        <time>2018-09-16T12:56:39Z</time>
      </trkpt>
      <trkpt lat="40.282217" lon="-4.859233">
        <ele>1660.0</ele>
        <time>2018-09-16T12:56:40Z</time>
      </trkpt>
      <trkpt lat="40.282233" lon="-4.859117">
        <ele>1658.0</ele>
        <time>2018-09-16T12:56:41Z</time>
      </trkpt>
      <trkpt lat="40.282233" lon="-4.858983">
        <ele>1657.0</ele>
        <time>2018-09-16T12:56:42Z</time>
      </trkpt>
      <trkpt lat="40.282250" lon="-4.858850">
        <ele>1655.0</ele>
        <time>2018-09-16T12:56:43Z</time>
      </trkpt>
      <trkpt lat="40.282267" lon="-4.858733">
        <ele>1653.0</ele>
        <time>2018-09-16T12:56:44Z</time>
      </trkpt>
      <trkpt lat="40.282267" lon="-4.858600">
        <ele>1651.0</ele>
        <time>2018-09-16T12:56:45Z</time>
      </trkpt>
      <trkpt lat="40.282300" lon="-4.858483">
        <ele>1650.0</ele>
        <time>2018-09-16T12:56:46Z</time>
      </trkpt>
      <trkpt lat="40.282317" lon="-4.858350">
        <ele>1648.0</ele>
        <time>2018-09-16T12:56:47Z</time>
      </trkpt>
      <trkpt lat="40.282333" lon="-4.858233">
        <ele>1647.0</ele>
        <time>2018-09-16T12:56:48Z</time>
      </trkpt>
      <trkpt lat="40.282367" lon="-4.858117">
        <ele>1646.0</ele>
        <time>2018-09-16T12:56:49Z</time>
      </trkpt>
      <trkpt lat="40.282383" lon="-4.858000">
        <ele>1645.0</ele>
        <time>2018-09-16T12:56:50Z</time>
      </trkpt>
      <trkpt lat="40.282417" lon="-4.857883">
        <ele>1643.0</ele>
        <time>2018-09-16T12:56:51Z</time>
      </trkpt>
      <trkpt lat="40.282450" lon="-4.857767">
        <ele>1642.0</ele>
        <time>2018-09-16T12:56:52Z</time>
      </trkpt>
      <trkpt lat="40.282483" lon="-4.857667">
        <ele>1641.0</ele>
        <time>2018-09-16T12:56:53Z</time>
      </trkpt>
      <trkpt lat="40.282517" lon="-4.857550">
        <ele>1639.0</ele>
        <time>2018-09-16T12:56:54Z</time>
      </trkpt>
      <trkpt lat="40.282567" lon="-4.857433">
        <ele>1638.0</ele>
        <time>2018-09-16T12:56:55Z</time>
      </trkpt>
      <trkpt lat="40.282600" lon="-4.857333">
        <ele>1636.0</ele>
        <time>2018-09-16T12:56:56Z</time>
      </trkpt>
      <trkpt lat="40.282633" lon="-4.857217">
        <ele>1635.0</ele>
        <time>2018-09-16T12:56:57Z</time>
      </trkpt>
      <trkpt lat="40.282667" lon="-4.857117">
        <ele>1633.0</ele>
        <time>2018-09-16T12:56:58Z</time>
      </trkpt>
      <trkpt lat="40.282683" lon="-4.857000">
        <ele>1632.0</ele>
        <time>2018-09-16T12:56:59Z</time>
      </trkpt>
      <trkpt lat="40.282717" lon="-4.856883">
        <ele>1631.0</ele>
        <time>2018-09-16T12:57:00Z</time>
      </trkpt>
      <trkpt lat="40.282733" lon="-4.856767">
        <ele>1630.0</ele>
        <time>2018-09-16T12:57:01Z</time>
      </trkpt>
      <trkpt lat="40.282767" lon="-4.856667">
        <ele>1629.0</ele>
        <time>2018-09-16T12:57:02Z</time>
      </trkpt>
      <trkpt lat="40.282783" lon="-4.856550">
        <ele>1628.0</ele>
        <time>2018-09-16T12:57:03Z</time>
      </trkpt>
      <trkpt lat="40.282800" lon="-4.856450">
        <ele>1627.0</ele>
        <time>2018-09-16T12:57:04Z</time>
      </trkpt>
      <trkpt lat="40.282817" lon="-4.856333">
        <ele>1625.0</ele>
        <time>2018-09-16T12:57:05Z</time>
      </trkpt>
      <trkpt lat="40.282833" lon="-4.856217">
        <ele>1624.0</ele>
        <time>2018-09-16T12:57:06Z</time>
      </trkpt>
      <trkpt lat="40.282867" lon="-4.856100">
        <ele>1623.0</ele>
        <time>2018-09-16T12:57:07Z</time>
      </trkpt>
      <trkpt lat="40.282883" lon="-4.855983">
        <ele>1622.0</ele>
        <time>2018-09-16T12:57:08Z</time>
      </trkpt>
      <trkpt lat="40.282900" lon="-4.855867">
        <ele>1622.0</ele>
        <time>2018-09-16T12:57:09Z</time>
      </trkpt>
      <trkpt lat="40.282933" lon="-4.855767">
        <ele>1621.0</ele>
        <time>2018-09-16T12:57:10Z</time>
      </trkpt>
      <trkpt lat="40.282950" lon="-4.855650">
        <ele>1620.0</ele>
        <time>2018-09-16T12:57:11Z</time>
      </trkpt>
      <trkpt lat="40.282967" lon="-4.855533">
        <ele>1619.0</ele>
        <time>2018-09-16T12:57:12Z</time>
      </trkpt>
      <trkpt lat="40.282983" lon="-4.855417">
        <ele>1618.0</ele>
        <time>2018-09-16T12:57:13Z</time>
      </trkpt>
      <trkpt lat="40.283000" lon="-4.855317">
        <ele>1616.0</ele>
        <time>2018-09-16T12:57:14Z</time>
      </trkpt>
      <trkpt lat="40.283017" lon="-4.855183">
        <ele>1615.0</ele>
        <time>2018-09-16T12:57:15Z</time>
      </trkpt>
      <trkpt lat="40.283033" lon="-4.855067">
        <ele>1614.0</ele>
        <time>2018-09-16T12:57:16Z</time>
      </trkpt>
      <trkpt lat="40.283050" lon="-4.854950">
        <ele>1614.0</ele>
        <time>2018-09-16T12:57:17Z</time>
      </trkpt>
      <trkpt lat="40.283050" lon="-4.854850">
        <ele>1613.0</ele>
        <time>2018-09-16T12:57:18Z</time>
      </trkpt>
      <trkpt lat="40.283067" lon="-4.854733">
        <ele>1612.0</ele>
        <time>2018-09-16T12:57:19Z</time>
      </trkpt>
      <trkpt lat="40.283067" lon="-4.854617">
        <ele>1610.0</ele>
        <time>2018-09-16T12:57:20Z</time>
      </trkpt>
      <trkpt lat="40.283067" lon="-4.854483">
        <ele>1609.0</ele>
        <time>2018-09-16T12:57:21Z</time>
      </trkpt>
      <trkpt lat="40.283083" lon="-4.854367">
        <ele>1608.0</ele>
        <time>2018-09-16T12:57:22Z</time>
      </trkpt>
      <trkpt lat="40.283083" lon="-4.854233">
        <ele>1606.0</ele>
        <time>2018-09-16T12:57:23Z</time>
      </trkpt>
      <trkpt lat="40.283083" lon="-4.854117">
        <ele>1605.0</ele>
        <time>2018-09-16T12:57:24Z</time>
      </trkpt>
      <trkpt lat="40.283100" lon="-4.854000">
        <ele>1604.0</ele>
        <time>2018-09-16T12:57:25Z</time>
      </trkpt>
      <trkpt lat="40.283117" lon="-4.853883">
        <ele>1602.0</ele>
        <time>2018-09-16T12:57:26Z</time>
      </trkpt>
      <trkpt lat="40.283133" lon="-4.853750">
        <ele>1601.0</ele>
        <time>2018-09-16T12:57:27Z</time>
      </trkpt>
      <trkpt lat="40.283150" lon="-4.853633">
        <ele>1599.0</ele>
        <time>2018-09-16T12:57:28Z</time>
      </trkpt>
      <trkpt lat="40.283150" lon="-4.853500">
        <ele>1597.0</ele>
        <time>2018-09-16T12:57:29Z</time>
      </trkpt>
      <trkpt lat="40.283167" lon="-4.853367">
        <ele>1596.0</ele>
        <time>2018-09-16T12:57:30Z</time>
      </trkpt>
      <trkpt lat="40.283167" lon="-4.853250">
        <ele>1595.0</ele>
        <time>2018-09-16T12:57:31Z</time>
      </trkpt>
      <trkpt lat="40.283167" lon="-4.853133">
        <ele>1594.0</ele>
        <time>2018-09-16T12:57:32Z</time>
      </trkpt>
      <trkpt lat="40.283167" lon="-4.853000">
        <ele>1593.0</ele>
        <time>2018-09-16T12:57:33Z</time>
      </trkpt>
      <trkpt lat="40.283167" lon="-4.852883">
        <ele>1591.0</ele>
        <time>2018-09-16T12:57:34Z</time>
      </trkpt>
      <trkpt lat="40.283183" lon="-4.852750">
        <ele>1589.0</ele>
        <time>2018-09-16T12:57:35Z</time>
      </trkpt>
      <trkpt lat="40.283183" lon="-4.852617">
        <ele>1587.0</ele>
        <time>2018-09-16T12:57:36Z</time>
      </trkpt>
      <trkpt lat="40.283183" lon="-4.852500">
        <ele>1586.0</ele>
        <time>2018-09-16T12:57:37Z</time>
      </trkpt>
      <trkpt lat="40.283183" lon="-4.852367">
        <ele>1585.0</ele>
        <time>2018-09-16T12:57:38Z</time>
      </trkpt>
      <trkpt lat="40.283183" lon="-4.852250">
        <ele>1583.0</ele>
        <time>2018-09-16T12:57:39Z</time>
      </trkpt>
      <trkpt lat="40.283167" lon="-4.852133">
        <ele>1582.0</ele>
        <time>2018-09-16T12:57:40Z</time>
      </trkpt>
      <trkpt lat="40.283150" lon="-4.852000">
        <ele>1579.0</ele>
        <time>2018-09-16T12:57:41Z</time>
      </trkpt>
      <trkpt lat="40.283150" lon="-4.851883">
        <ele>1577.0</ele>
        <time>2018-09-16T12:57:42Z</time>
      </trkpt>
      <trkpt lat="40.283150" lon="-4.851750">
        <ele>1574.0</ele>
        <time>2018-09-16T12:57:43Z</time>
      </trkpt>
      <trkpt lat="40.283150" lon="-4.851617">
        <ele>1572.0</ele>
        <time>2018-09-16T12:57:44Z</time>
      </trkpt>
      <trkpt lat="40.283167" lon="-4.851500">
        <ele>1570.0</ele>
        <time>2018-09-16T12:57:45Z</time>
      </trkpt>
      <trkpt lat="40.283167" lon="-4.851367">
        <ele>1567.0</ele>
        <time>2018-09-16T12:57:46Z</time>
      </trkpt>
      <trkpt lat="40.283167" lon="-4.851250">
        <ele>1565.0</ele>
        <time>2018-09-16T12:57:47Z</time>
      </trkpt>
      <trkpt lat="40.283167" lon="-4.851117">
        <ele>1562.0</ele>
        <time>2018-09-16T12:57:48Z</time>
      </trkpt>
      <trkpt lat="40.283183" lon="-4.850983">
        <ele>1559.0</ele>
        <time>2018-09-16T12:57:49Z</time>
      </trkpt>
      <trkpt lat="40.283183" lon="-4.850850">
        <ele>1557.0</ele>
        <time>2018-09-16T12:57:50Z</time>
      </trkpt>
      <trkpt lat="40.283200" lon="-4.850717">
        <ele>1555.0</ele>
        <time>2018-09-16T12:57:51Z</time>
      </trkpt>
      <trkpt lat="40.283217" lon="-4.850600">
        <ele>1553.0</ele>
        <time>2018-09-16T12:57:52Z</time>
      </trkpt>
      <trkpt lat="40.283217" lon="-4.850483">
        <ele>1552.0</ele>
        <time>2018-09-16T12:57:53Z</time>
      </trkpt>
      <trkpt lat="40.283233" lon="-4.850367">
        <ele>1550.0</ele>
        <time>2018-09-16T12:57:54Z</time>
      </trkpt>
      <trkpt lat="40.283233" lon="-4.850233">
        <ele>1548.0</ele>
        <time>2018-09-16T12:57:55Z</time>
      </trkpt>
      <trkpt lat="40.283250" lon="-4.850117">
        <ele>1546.0</ele>
        <time>2018-09-16T12:57:56Z</time>
      </trkpt>
      <trkpt lat="40.283250" lon="-4.849983">
        <ele>1543.0</ele>
        <time>2018-09-16T12:57:57Z</time>
      </trkpt>
      <trkpt lat="40.283250" lon="-4.849867">
        <ele>1540.0</ele>
        <time>2018-09-16T12:57:58Z</time>
      </trkpt>
      <trkpt lat="40.283267" lon="-4.849733">
        <ele>1537.0</ele>
        <time>2018-09-16T12:57:59Z</time>
      </trkpt>
      <trkpt lat="40.283267" lon="-4.849600">
        <ele>1534.0</ele>
        <time>2018-09-16T12:58:00Z</time>
      </trkpt>
      <trkpt lat="40.283267" lon="-4.849450">
        <ele>1530.0</ele>
        <time>2018-09-16T12:58:01Z</time>
      </trkpt>
      <trkpt lat="40.283283" lon="-4.849317">
        <ele>1528.0</ele>
        <time>2018-09-16T12:58:02Z</time>
      </trkpt>
      <trkpt lat="40.283267" lon="-4.849183">
        <ele>1527.0</ele>
        <time>2018-09-16T12:58:03Z</time>
      </trkpt>
      <trkpt lat="40.283267" lon="-4.849067">
        <ele>1525.0</ele>
        <time>2018-09-16T12:58:04Z</time>
      </trkpt>
      <trkpt lat="40.283250" lon="-4.848950">
        <ele>1523.0</ele>
        <time>2018-09-16T12:58:05Z</time>
      </trkpt>
      <trkpt lat="40.283233" lon="-4.848833">
        <ele>1520.0</ele>
        <time>2018-09-16T12:58:06Z</time>
      </trkpt>
      <trkpt lat="40.283217" lon="-4.848700">
        <ele>1518.0</ele>
        <time>2018-09-16T12:58:07Z</time>
      </trkpt>
      <trkpt lat="40.283200" lon="-4.848583">
        <ele>1515.0</ele>
        <time>2018-09-16T12:58:08Z</time>
      </trkpt>
      <trkpt lat="40.283167" lon="-4.848450">
        <ele>1513.0</ele>
        <time>2018-09-16T12:58:09Z</time>
      </trkpt>
      <trkpt lat="40.283167" lon="-4.848317">
        <ele>1511.0</ele>
        <time>2018-09-16T12:58:10Z</time>
      </trkpt>
      <trkpt lat="40.283150" lon="-4.848183">
        <ele>1509.0</ele>
        <time>2018-09-16T12:58:11Z</time>
      </trkpt>
      <trkpt lat="40.283150" lon="-4.848050">
        <ele>1508.0</ele>
        <time>2018-09-16T12:58:12Z</time>
      </trkpt>
      <trkpt lat="40.283150" lon="-4.847917">
        <ele>1507.0</ele>
        <time>2018-09-16T12:58:13Z</time>
      </trkpt>
      <trkpt lat="40.283150" lon="-4.847800">
        <ele>1505.0</ele>
        <time>2018-09-16T12:58:14Z</time>
      </trkpt>
      <trkpt lat="40.283133" lon="-4.847667">
        <ele>1503.0</ele>
        <time>2018-09-16T12:58:15Z</time>
      </trkpt>
      <trkpt lat="40.283150" lon="-4.847533">
        <ele>1501.0</ele>
        <time>2018-09-16T12:58:16Z</time>
      </trkpt>
      <trkpt lat="40.283150" lon="-4.847400">
        <ele>1499.0</ele>
        <time>2018-09-16T12:58:17Z</time>
      </trkpt>
      <trkpt lat="40.283150" lon="-4.847267">
        <ele>1496.0</ele>
        <time>2018-09-16T12:58:18Z</time>
      </trkpt>
      <trkpt lat="40.283150" lon="-4.847117">
        <ele>1494.0</ele>
        <time>2018-09-16T12:58:19Z</time>
      </trkpt>
      <trkpt lat="40.283150" lon="-4.846983">
        <ele>1493.0</ele>
        <time>2018-09-16T12:58:20Z</time>
      </trkpt>
      <trkpt lat="40.283150" lon="-4.846867">
        <ele>1491.0</ele>
        <time>2018-09-16T12:58:21Z</time>
      </trkpt>
      <trkpt lat="40.283150" lon="-4.846733">
        <ele>1489.0</ele>
        <time>2018-09-16T12:58:22Z</time>
      </trkpt>
      <trkpt lat="40.283167" lon="-4.846600">
        <ele>1486.0</ele>
        <time>2018-09-16T12:58:23Z</time>
      </trkpt>
      <trkpt lat="40.283167" lon="-4.846467">
        <ele>1483.0</ele>
        <time>2018-09-16T12:58:24Z</time>
      </trkpt>
      <trkpt lat="40.283183" lon="-4.846333">
        <ele>1480.0</ele>
        <time>2018-09-16T12:58:25Z</time>
      </trkpt>
      <trkpt lat="40.283183" lon="-4.846200">
        <ele>1477.0</ele>
        <time>2018-09-16T12:58:26Z</time>
      </trkpt>
      <trkpt lat="40.283183" lon="-4.846067">
        <ele>1474.0</ele>
        <time>2018-09-16T12:58:27Z</time>
      </trkpt>
      <trkpt lat="40.283183" lon="-4.845933">
        <ele>1473.0</ele>
        <time>2018-09-16T12:58:28Z</time>
      </trkpt>
      <trkpt lat="40.283200" lon="-4.845800">
        <ele>1472.0</ele>
        <time>2018-09-16T12:58:29Z</time>
      </trkpt>
      <trkpt lat="40.283233" lon="-4.845683">
        <ele>1470.0</ele>
        <time>2018-09-16T12:58:30Z</time>
      </trkpt>
      <trkpt lat="40.283233" lon="-4.845550">
        <ele>1468.0</ele>
        <time>2018-09-16T12:58:31Z</time>
      </trkpt>
      <trkpt lat="40.283233" lon="-4.845417">
        <ele>1465.0</ele>
        <time>2018-09-16T12:58:32Z</time>
      </trkpt>
      <trkpt lat="40.283233" lon="-4.845283">
        <ele>1462.0</ele>
        <time>2018-09-16T12:58:33Z</time>
      </trkpt>
      <trkpt lat="40.283233" lon="-4.845150">
        <ele>1460.0</ele>
        <time>2018-09-16T12:58:34Z</time>
      </trkpt>
      <trkpt lat="40.283250" lon="-4.845017">
        <ele>1458.0</ele>
        <time>2018-09-16T12:58:35Z</time>
      </trkpt>
      <trkpt lat="40.283283" lon="-4.844883">
        <ele>1456.0</ele>
        <time>2018-09-16T12:58:36Z</time>
      </trkpt>
      <trkpt lat="40.283317" lon="-4.844750">
        <ele>1454.0</ele>
        <time>2018-09-16T12:58:37Z</time>
      </trkpt>
      <trkpt lat="40.283333" lon="-4.844633">
        <ele>1452.0</ele>
        <time>2018-09-16T12:58:38Z</time>
      </trkpt>
      <trkpt lat="40.283333" lon="-4.844500">
        <ele>1451.0</ele>
        <time>2018-09-16T12:58:39Z</time>
      </trkpt>
      <trkpt lat="40.283350" lon="-4.844400">
        <ele>1450.0</ele>
        <time>2018-09-16T12:58:40Z</time>
      </trkpt>
      <trkpt lat="40.283350" lon="-4.844283">
        <ele>1449.0</ele>
        <time>2018-09-16T12:58:41Z</time>
      </trkpt>
      <trkpt lat="40.283367" lon="-4.844167">
        <ele>1447.0</ele>
        <time>2018-09-16T12:58:42Z</time>
      </trkpt>
      <trkpt lat="40.283367" lon="-4.844067">
        <ele>1446.0</ele>
        <time>2018-09-16T12:58:43Z</time>
      </trkpt>
      <trkpt lat="40.283383" lon="-4.843950">
        <ele>1444.0</ele>
        <time>2018-09-16T12:58:44Z</time>
      </trkpt>
      <trkpt lat="40.283383" lon="-4.843833">
        <ele>1442.0</ele>
        <time>2018-09-16T12:58:45Z</time>
      </trkpt>
      <trkpt lat="40.283400" lon="-4.843700">
        <ele>1441.0</ele>
        <time>2018-09-16T12:58:46Z</time>
      </trkpt>
      <trkpt lat="40.283417" lon="-4.843583">
        <ele>1440.0</ele>
        <time>2018-09-16T12:58:47Z</time>
      </trkpt>
      <trkpt lat="40.283450" lon="-4.843483">
        <ele>1438.0</ele>
        <time>2018-09-16T12:58:48Z</time>
      </trkpt>
      <trkpt lat="40.283467" lon="-4.843367">
        <ele>1437.0</ele>
        <time>2018-09-16T12:58:49Z</time>
      </trkpt>
      <trkpt lat="40.283483" lon="-4.843250">
        <ele>1436.0</ele>
        <time>2018-09-16T12:58:50Z</time>
      </trkpt>
      <trkpt lat="40.283500" lon="-4.843133">
        <ele>1434.0</ele>
        <time>2018-09-16T12:58:51Z</time>
      </trkpt>
      <trkpt lat="40.283517" lon="-4.843017">
        <ele>1433.0</ele>
        <time>2018-09-16T12:58:52Z</time>
      </trkpt>
      <trkpt lat="40.283550" lon="-4.842900">
        <ele>1431.0</ele>
        <time>2018-09-16T12:58:53Z</time>
      </trkpt>
      <trkpt lat="40.283567" lon="-4.842783">
        <ele>1429.0</ele>
        <time>2018-09-16T12:58:54Z</time>
      </trkpt>
      <trkpt lat="40.283583" lon="-4.842667">
        <ele>1427.0</ele>
        <time>2018-09-16T12:58:55Z</time>
      </trkpt>
      <trkpt lat="40.283600" lon="-4.842550">
        <ele>1426.0</ele>
        <time>2018-09-16T12:58:56Z</time>
      </trkpt>
      <trkpt lat="40.283600" lon="-4.842433">
        <ele>1424.0</ele>
        <time>2018-09-16T12:58:57Z</time>
      </trkpt>
      <trkpt lat="40.283617" lon="-4.842317">
        <ele>1422.0</ele>
        <time>2018-09-16T12:58:58Z</time>
      </trkpt>
      <trkpt lat="40.283633" lon="-4.842200">
        <ele>1419.0</ele>
        <time>2018-09-16T12:58:59Z</time>
      </trkpt>
      <trkpt lat="40.283650" lon="-4.842083">
        <ele>1416.0</ele>
        <time>2018-09-16T12:59:00Z</time>
      </trkpt>
      <trkpt lat="40.283683" lon="-4.841967">
        <ele>1414.0</ele>
        <time>2018-09-16T12:59:01Z</time>
      </trkpt>
      <trkpt lat="40.283717" lon="-4.841833">
        <ele>1412.0</ele>
        <time>2018-09-16T12:59:02Z</time>
      </trkpt>
      <trkpt lat="40.283750" lon="-4.841717">
        <ele>1411.0</ele>
        <time>2018-09-16T12:59:03Z</time>
      </trkpt>
      <trkpt lat="40.283767" lon="-4.841600">
        <ele>1409.0</ele>
        <time>2018-09-16T12:59:04Z</time>
      </trkpt>
      <trkpt lat="40.283783" lon="-4.841500">
        <ele>1407.0</ele>
        <time>2018-09-16T12:59:05Z</time>
      </trkpt>
      <trkpt lat="40.283817" lon="-4.841383">
        <ele>1405.0</ele>
        <time>2018-09-16T12:59:06Z</time>
      </trkpt>
      <trkpt lat="40.283833" lon="-4.841267">
        <ele>1402.0</ele>
        <time>2018-09-16T12:59:07Z</time>
      </trkpt>
      <trkpt lat="40.283867" lon="-4.841133">
        <ele>1400.0</ele>
        <time>2018-09-16T12:59:08Z</time>
      </trkpt>
      <trkpt lat="40.283883" lon="-4.841017">
        <ele>1399.0</ele>
        <time>2018-09-16T12:59:09Z</time>
      </trkpt>
      <trkpt lat="40.283933" lon="-4.840883">
        <ele>1399.0</ele>
        <time>2018-09-16T12:59:10Z</time>
      </trkpt>
      <trkpt lat="40.283983" lon="-4.840767">
        <ele>1399.0</ele>
        <time>2018-09-16T12:59:11Z</time>
      </trkpt>
      <trkpt lat="40.284017" lon="-4.840667">
        <ele>1398.0</ele>
        <time>2018-09-16T12:59:12Z</time>
      </trkpt>
      <trkpt lat="40.284050" lon="-4.840567">
        <ele>1397.0</ele>
        <time>2018-09-16T12:59:13Z</time>
      </trkpt>
      <trkpt lat="40.284083" lon="-4.840467">
        <ele>1395.0</ele>
        <time>2018-09-16T12:59:14Z</time>
      </trkpt>
      <trkpt lat="40.284100" lon="-4.840350">
        <ele>1392.0</ele>
        <time>2018-09-16T12:59:15Z</time>
      </trkpt>
      <trkpt lat="40.284133" lon="-4.840250">
        <ele>1390.0</ele>
        <time>2018-09-16T12:59:16Z</time>
      </trkpt>
      <trkpt lat="40.284167" lon="-4.840133">
        <ele>1387.0</ele>
        <time>2018-09-16T12:59:17Z</time>
      </trkpt>
      <trkpt lat="40.284217" lon="-4.840000">
        <ele>1385.0</ele>
        <time>2018-09-16T12:59:18Z</time>
      </trkpt>
      <trkpt lat="40.284267" lon="-4.839883">
        <ele>1383.0</ele>
        <time>2018-09-16T12:59:19Z</time>
      </trkpt>
      <trkpt lat="40.284300" lon="-4.839767">
        <ele>1382.0</ele>
        <time>2018-09-16T12:59:20Z</time>
      </trkpt>
      <trkpt lat="40.284333" lon="-4.839650">
        <ele>1380.0</ele>
        <time>2018-09-16T12:59:21Z</time>
      </trkpt>
      <trkpt lat="40.284350" lon="-4.839517">
        <ele>1378.0</ele>
        <time>2018-09-16T12:59:22Z</time>
      </trkpt>
      <trkpt lat="40.284383" lon="-4.839400">
        <ele>1376.0</ele>
        <time>2018-09-16T12:59:23Z</time>
      </trkpt>
      <trkpt lat="40.284433" lon="-4.839267">
        <ele>1374.0</ele>
        <time>2018-09-16T12:59:24Z</time>
      </trkpt>
      <trkpt lat="40.284467" lon="-4.839150">
        <ele>1372.0</ele>
        <time>2018-09-16T12:59:25Z</time>
      </trkpt>
      <trkpt lat="40.284500" lon="-4.839017">
        <ele>1369.0</ele>
        <time>2018-09-16T12:59:26Z</time>
      </trkpt>
      <trkpt lat="40.284533" lon="-4.838883">
        <ele>1367.0</ele>
        <time>2018-09-16T12:59:27Z</time>
      </trkpt>
      <trkpt lat="40.284550" lon="-4.838750">
        <ele>1365.0</ele>
        <time>2018-09-16T12:59:28Z</time>
      </trkpt>
      <trkpt lat="40.284567" lon="-4.838617">
        <ele>1362.0</ele>
        <time>2018-09-16T12:59:29Z</time>
      </trkpt>
      <trkpt lat="40.284583" lon="-4.838483">
        <ele>1359.0</ele>
        <time>2018-09-16T12:59:30Z</time>
      </trkpt>
      <trkpt lat="40.284600" lon="-4.838333">
        <ele>1356.0</ele>
        <time>2018-09-16T12:59:31Z</time>
      </trkpt>
      <trkpt lat="40.284617" lon="-4.838183">
        <ele>1353.0</ele>
        <time>2018-09-16T12:59:32Z</time>
      </trkpt>
      <trkpt lat="40.284633" lon="-4.838033">
        <ele>1351.0</ele>
        <time>2018-09-16T12:59:33Z</time>
      </trkpt>
      <trkpt lat="40.284650" lon="-4.837883">
        <ele>1349.0</ele>
        <time>2018-09-16T12:59:34Z</time>
      </trkpt>
      <trkpt lat="40.284667" lon="-4.837750">
        <ele>1347.0</ele>
        <time>2018-09-16T12:59:35Z</time>
      </trkpt>
      <trkpt lat="40.284683" lon="-4.837633">
        <ele>1345.0</ele>
        <time>2018-09-16T12:59:36Z</time>
      </trkpt>
      <trkpt lat="40.284700" lon="-4.837483">
        <ele>1341.0</ele>
        <time>2018-09-16T12:59:37Z</time>
      </trkpt>
      <trkpt lat="40.284700" lon="-4.837350">
        <ele>1337.0</ele>
        <time>2018-09-16T12:59:38Z</time>
      </trkpt>
      <trkpt lat="40.284717" lon="-4.837183">
        <ele>1334.0</ele>
        <time>2018-09-16T12:59:39Z</time>
      </trkpt>
      <trkpt lat="40.284733" lon="-4.837017">
        <ele>1332.0</ele>
        <time>2018-09-16T12:59:40Z</time>
      </trkpt>
      <trkpt lat="40.284733" lon="-4.836867">
        <ele>1331.0</ele>
        <time>2018-09-16T12:59:41Z</time>
      </trkpt>
      <trkpt lat="40.284733" lon="-4.836750">
        <ele>1331.0</ele>
        <time>2018-09-16T12:59:42Z</time>
      </trkpt>
      <trkpt lat="40.284733" lon="-4.836617">
        <ele>1330.0</ele>
        <time>2018-09-16T12:59:43Z</time>
      </trkpt>
      <trkpt lat="40.284733" lon="-4.836500">
        <ele>1329.0</ele>
        <time>2018-09-16T12:59:44Z</time>
      </trkpt>
      <trkpt lat="40.284767" lon="-4.836367">
        <ele>1327.0</ele>
        <time>2018-09-16T12:59:45Z</time>
      </trkpt>
      <trkpt lat="40.284783" lon="-4.836217">
        <ele>1325.0</ele>
        <time>2018-09-16T12:59:46Z</time>
      </trkpt>
      <trkpt lat="40.284800" lon="-4.836050">
        <ele>1324.0</ele>
        <time>2018-09-16T12:59:47Z</time>
      </trkpt>
      <trkpt lat="40.284817" lon="-4.835917">
        <ele>1323.0</ele>
        <time>2018-09-16T12:59:48Z</time>
      </trkpt>
      <trkpt lat="40.284833" lon="-4.835783">
        <ele>1322.0</ele>
        <time>2018-09-16T12:59:49Z</time>
      </trkpt>
      <trkpt lat="40.284850" lon="-4.835650">
        <ele>1320.0</ele>
        <time>2018-09-16T12:59:50Z</time>
      </trkpt>
      <trkpt lat="40.284867" lon="-4.835533">
        <ele>1317.0</ele>
        <time>2018-09-16T12:59:51Z</time>
      </trkpt>
      <trkpt lat="40.284900" lon="-4.835383">
        <ele>1315.0</ele>
        <time>2018-09-16T12:59:52Z</time>
      </trkpt>
      <trkpt lat="40.284917" lon="-4.835250">
        <ele>1312.0</ele>
        <time>2018-09-16T12:59:53Z</time>
      </trkpt>
      <trkpt lat="40.284933" lon="-4.835100">
        <ele>1310.0</ele>
        <time>2018-09-16T12:59:54Z</time>
      </trkpt>
      <trkpt lat="40.284967" lon="-4.834967">
        <ele>1309.0</ele>
        <time>2018-09-16T12:59:55Z</time>
      </trkpt>
      <trkpt lat="40.285000" lon="-4.834833">
        <ele>1308.0</ele>
        <time>2018-09-16T12:59:56Z</time>
      </trkpt>
      <trkpt lat="40.285033" lon="-4.834700">
        <ele>1308.0</ele>
        <time>2018-09-16T12:59:57Z</time>
      </trkpt>
      <trkpt lat="40.285083" lon="-4.834600">
        <ele>1307.0</ele>
        <time>2018-09-16T12:59:58Z</time>
      </trkpt>
      <trkpt lat="40.285117" lon="-4.834483">
        <ele>1305.0</ele>
        <time>2018-09-16T12:59:59Z</time>
      </trkpt>
      <trkpt lat="40.285150" lon="-4.834367">
        <ele>1303.0</ele>
        <time>2018-09-16T13:00:00Z</time>
      </trkpt>
      <trkpt lat="40.285200" lon="-4.834250">
        <ele>1301.0</ele>
        <time>2018-09-16T13:00:01Z</time>
      </trkpt>
      <trkpt lat="40.285250" lon="-4.834133">
        <ele>1299.0</ele>
        <time>2018-09-16T13:00:02Z</time>
      </trkpt>
      <trkpt lat="40.285283" lon="-4.834017">
        <ele>1298.0</ele>
        <time>2018-09-16T13:00:03Z</time>
      </trkpt>
      <trkpt lat="40.285317" lon="-4.833917">
        <ele>1297.0</ele>
        <time>2018-09-16T13:00:04Z</time>
      </trkpt>
      <trkpt lat="40.285333" lon="-4.833800">
        <ele>1296.0</ele>
        <time>2018-09-16T13:00:05Z</time>
      </trkpt>
      <trkpt lat="40.285333" lon="-4.833683">
        <ele>1294.0</ele>
        <time>2018-09-16T13:00:06Z</time>
      </trkpt>
      <trkpt lat="40.285350" lon="-4.833567">
        <ele>1293.0</ele>
        <time>2018-09-16T13:00:07Z</time>
      </trkpt>
      <trkpt lat="40.285367" lon="-4.833467">
        <ele>1291.0</ele>
        <time>2018-09-16T13:00:08Z</time>
      </trkpt>
      <trkpt lat="40.285383" lon="-4.833350">
        <ele>1289.0</ele>
        <time>2018-09-16T13:00:09Z</time>
      </trkpt>
      <trkpt lat="40.285400" lon="-4.833233">
        <ele>1287.0</ele>
        <time>2018-09-16T13:00:10Z</time>
      </trkpt>
      <trkpt lat="40.285417" lon="-4.833117">
        <ele>1285.0</ele>
        <time>2018-09-16T13:00:11Z</time>
      </trkpt>
      <trkpt lat="40.285433" lon="-4.833000">
        <ele>1283.0</ele>
        <time>2018-09-16T13:00:12Z</time>
      </trkpt>
      <trkpt lat="40.285467" lon="-4.832867">
        <ele>1282.0</ele>
        <time>2018-09-16T13:00:13Z</time>
      </trkpt>
      <trkpt lat="40.285500" lon="-4.832750">
        <ele>1280.0</ele>
        <time>2018-09-16T13:00:14Z</time>
      </trkpt>
      <trkpt lat="40.285567" lon="-4.832650">
        <ele>1278.0</ele>
        <time>2018-09-16T13:00:15Z</time>
      </trkpt>
      <trkpt lat="40.285600" lon="-4.832533">
        <ele>1276.0</ele>
        <time>2018-09-16T13:00:16Z</time>
      </trkpt>
      <trkpt lat="40.285650" lon="-4.832417">
        <ele>1275.0</ele>
        <time>2018-09-16T13:00:17Z</time>
      </trkpt>
      <trkpt lat="40.285683" lon="-4.832300">
        <ele>1272.0</ele>
        <time>2018-09-16T13:00:18Z</time>
      </trkpt>
      <trkpt lat="40.285717" lon="-4.832167">
        <ele>1270.0</ele>
        <time>2018-09-16T13:00:19Z</time>
      </trkpt>
      <trkpt lat="40.285733" lon="-4.832033">
        <ele>1268.0</ele>
        <time>2018-09-16T13:00:20Z</time>
      </trkpt>
      <trkpt lat="40.285767" lon="-4.831900">
        <ele>1266.0</ele>
        <time>2018-09-16T13:00:21Z</time>
      </trkpt>
      <trkpt lat="40.285817" lon="-4.831783">
        <ele>1265.0</ele>
        <time>2018-09-16T13:00:22Z</time>
      </trkpt>
      <trkpt lat="40.285850" lon="-4.831650">
        <ele>1263.0</ele>
        <time>2018-09-16T13:00:23Z</time>
      </trkpt>
      <trkpt lat="40.285900" lon="-4.831517">
        <ele>1262.0</ele>
        <time>2018-09-16T13:00:24Z</time>
      </trkpt>
      <trkpt lat="40.285933" lon="-4.831367">
        <ele>1262.0</ele>
        <time>2018-09-16T13:00:25Z</time>
      </trkpt>
      <trkpt lat="40.285967" lon="-4.831233">
        <ele>1261.0</ele>
        <time>2018-09-16T13:00:26Z</time>
      </trkpt>
      <trkpt lat="40.286017" lon="-4.831100">
        <ele>1261.0</ele>
        <time>2018-09-16T13:00:27Z</time>
      </trkpt>
      <trkpt lat="40.286050" lon="-4.830967">
        <ele>1260.0</ele>
        <time>2018-09-16T13:00:28Z</time>
      </trkpt>
      <trkpt lat="40.286083" lon="-4.830833">
        <ele>1258.0</ele>
        <time>2018-09-16T13:00:29Z</time>
      </trkpt>
      <trkpt lat="40.286133" lon="-4.830700">
        <ele>1257.0</ele>
        <time>2018-09-16T13:00:30Z</time>
      </trkpt>
      <trkpt lat="40.286183" lon="-4.830550">
        <ele>1257.0</ele>
        <time>2018-09-16T13:00:31Z</time>
      </trkpt>
      <trkpt lat="40.286233" lon="-4.830400">
        <ele>1258.0</ele>
        <time>2018-09-16T13:00:32Z</time>
      </trkpt>
      <trkpt lat="40.286283" lon="-4.830283">
        <ele>1259.0</ele>
        <time>2018-09-16T13:00:33Z</time>
      </trkpt>
      <trkpt lat="40.286333" lon="-4.830150">
        <ele>1260.0</ele>
        <time>2018-09-16T13:00:34Z</time>
      </trkpt>
      <trkpt lat="40.286383" lon="-4.830033">
        <ele>1261.0</ele>
        <time>2018-09-16T13:00:35Z</time>
      </trkpt>
      <trkpt lat="40.286450" lon="-4.829917">
        <ele>1262.0</ele>
        <time>2018-09-16T13:00:36Z</time>
      </trkpt>
      <trkpt lat="40.286517" lon="-4.829783">
        <ele>1264.0</ele>
        <time>2018-09-16T13:00:37Z</time>
      </trkpt>
      <trkpt lat="40.286600" lon="-4.829667">
        <ele>1266.0</ele>
        <time>2018-09-16T13:00:38Z</time>
      </trkpt>
      <trkpt lat="40.286683" lon="-4.829567">
        <ele>1268.0</ele>
        <time>2018-09-16T13:00:39Z</time>
      </trkpt>
      <trkpt lat="40.286783" lon="-4.829483">
        <ele>1271.0</ele>
        <time>2018-09-16T13:00:40Z</time>
      </trkpt>
      <trkpt lat="40.286867" lon="-4.829433">
        <ele>1272.0</ele>
        <time>2018-09-16T13:00:41Z</time>
      </trkpt>
      <trkpt lat="40.286950" lon="-4.829383">
        <ele>1272.0</ele>
        <time>2018-09-16T13:00:42Z</time>
      </trkpt>
      <trkpt lat="40.287017" lon="-4.829317">
        <ele>1271.0</ele>
        <time>2018-09-16T13:00:43Z</time>
      </trkpt>
      <trkpt lat="40.287100" lon="-4.829217">
        <ele>1268.0</ele>
        <time>2018-09-16T13:00:44Z</time>
      </trkpt>
      <trkpt lat="40.287200" lon="-4.829083">
        <ele>1266.0</ele>
        <time>2018-09-16T13:00:45Z</time>
      </trkpt>
      <trkpt lat="40.287283" lon="-4.828950">
        <ele>1266.0</ele>
        <time>2018-09-16T13:00:46Z</time>
      </trkpt>
      <trkpt lat="40.287350" lon="-4.828817">
        <ele>1268.0</ele>
        <time>2018-09-16T13:00:47Z</time>
      </trkpt>
      <trkpt lat="40.287417" lon="-4.828700">
        <ele>1270.0</ele>
        <time>2018-09-16T13:00:48Z</time>
      </trkpt>
      <trkpt lat="40.287467" lon="-4.828583">
        <ele>1272.0</ele>
        <time>2018-09-16T13:00:49Z</time>
      </trkpt>
      <trkpt lat="40.287500" lon="-4.828483">
        <ele>1272.0</ele>
        <time>2018-09-16T13:00:50Z</time>
      </trkpt>
      <trkpt lat="40.287533" lon="-4.828367">
        <ele>1273.0</ele>
        <time>2018-09-16T13:00:51Z</time>
      </trkpt>
      <trkpt lat="40.287550" lon="-4.828250">
        <ele>1273.0</ele>
        <time>2018-09-16T13:00:52Z</time>
      </trkpt>
      <trkpt lat="40.287533" lon="-4.828133">
        <ele>1273.0</ele>
        <time>2018-09-16T13:00:53Z</time>
      </trkpt>
      <trkpt lat="40.287500" lon="-4.828017">
        <ele>1273.0</ele>
        <time>2018-09-16T13:00:54Z</time>
      </trkpt>
      <trkpt lat="40.287450" lon="-4.827950">
        <ele>1273.0</ele>
        <time>2018-09-16T13:00:55Z</time>
      </trkpt>
      <trkpt lat="40.287400" lon="-4.827900">
        <ele>1272.0</ele>
        <time>2018-09-16T13:00:56Z</time>
      </trkpt>
      <trkpt lat="40.287350" lon="-4.827883">
        <ele>1272.0</ele>
        <time>2018-09-16T13:00:57Z</time>
      </trkpt>
      <trkpt lat="40.287283" lon="-4.827900">
        <ele>1272.0</ele>
        <time>2018-09-16T13:00:58Z</time>
      </trkpt>
      <trkpt lat="40.287250" lon="-4.827933">
        <ele>1272.0</ele>
        <time>2018-09-16T13:00:59Z</time>
      </trkpt>
      <trkpt lat="40.287217" lon="-4.828017">
        <ele>1272.0</ele>
        <time>2018-09-16T13:01:00Z</time>
      </trkpt>
      <trkpt lat="40.287200" lon="-4.828100">
        <ele>1273.0</ele>
        <time>2018-09-16T13:01:01Z</time>
      </trkpt>
      <trkpt lat="40.287183" lon="-4.828217">
        <ele>1274.0</ele>
        <time>2018-09-16T13:01:02Z</time>
      </trkpt>
      <trkpt lat="40.287200" lon="-4.828317">
        <ele>1275.0</ele>
        <time>2018-09-16T13:01:03Z</time>
      </trkpt>
      <trkpt lat="40.287200" lon="-4.828433">
        <ele>1276.0</ele>
        <time>2018-09-16T13:01:04Z</time>
      </trkpt>
      <trkpt lat="40.287233" lon="-4.828533">
        <ele>1276.0</ele>
        <time>2018-09-16T13:01:05Z</time>
      </trkpt>
      <trkpt lat="40.287283" lon="-4.828633">
        <ele>1276.0</ele>
        <time>2018-09-16T13:01:06Z</time>
      </trkpt>
      <trkpt lat="40.287350" lon="-4.828733">
        <ele>1276.0</ele>
        <time>2018-09-16T13:01:07Z</time>
      </trkpt>
      <trkpt lat="40.287450" lon="-4.828833">
        <ele>1277.0</ele>
        <time>2018-09-16T13:01:08Z</time>
      </trkpt>
      <trkpt lat="40.287550" lon="-4.828933">
        <ele>1278.0</ele>
        <time>2018-09-16T13:01:09Z</time>
      </trkpt>
      <trkpt lat="40.287650" lon="-4.829000">
        <ele>1280.0</ele>
        <time>2018-09-16T13:01:10Z</time>
      </trkpt>
      <trkpt lat="40.287750" lon="-4.829033">
        <ele>1282.0</ele>
        <time>2018-09-16T13:01:11Z</time>
      </trkpt>
      <trkpt lat="40.287867" lon="-4.829067">
        <ele>1282.0</ele>
        <time>2018-09-16T13:01:12Z</time>
      </trkpt>
      <trkpt lat="40.287983" lon="-4.829083">
        <ele>1282.0</ele>
        <time>2018-09-16T13:01:13Z</time>
      </trkpt>
      <trkpt lat="40.288100" lon="-4.829067">
        <ele>1280.0</ele>
        <time>2018-09-16T13:01:14Z</time>
      </trkpt>
      <trkpt lat="40.288217" lon="-4.829017">
        <ele>1279.0</ele>
        <time>2018-09-16T13:01:15Z</time>
      </trkpt>
      <trkpt lat="40.288317" lon="-4.828917">
        <ele>1276.0</ele>
        <time>2018-09-16T13:01:16Z</time>
      </trkpt>
      <trkpt lat="40.288400" lon="-4.828800">
        <ele>1276.0</ele>
        <time>2018-09-16T13:01:17Z</time>
      </trkpt>
      <trkpt lat="40.288467" lon="-4.828683">
        <ele>1276.0</ele>
        <time>2018-09-16T13:01:18Z</time>
      </trkpt>
      <trkpt lat="40.288517" lon="-4.828567">
        <ele>1278.0</ele>
        <time>2018-09-16T13:01:19Z</time>
      </trkpt>
      <trkpt lat="40.288567" lon="-4.828467">
        <ele>1280.0</ele>
        <time>2018-09-16T13:01:20Z</time>
      </trkpt>
      <trkpt lat="40.288633" lon="-4.828367">
        <ele>1282.0</ele>
        <time>2018-09-16T13:01:21Z</time>
      </trkpt>
      <trkpt lat="40.288683" lon="-4.828267">
        <ele>1284.0</ele>
        <time>2018-09-16T13:01:22Z</time>
      </trkpt>
      <trkpt lat="40.288750" lon="-4.828200">
        <ele>1285.0</ele>
        <time>2018-09-16T13:01:23Z</time>
      </trkpt>
      <trkpt lat="40.288800" lon="-4.828117">
        <ele>1285.0</ele>
        <time>2018-09-16T13:01:24Z</time>
      </trkpt>
      <trkpt lat="40.288850" lon="-4.828017">
        <ele>1284.0</ele>
        <time>2018-09-16T13:01:25Z</time>
      </trkpt>
      <trkpt lat="40.288900" lon="-4.827917">
        <ele>1284.0</ele>
        <time>2018-09-16T13:01:26Z</time>
      </trkpt>
      <trkpt lat="40.288933" lon="-4.827833">
        <ele>1283.0</ele>
        <time>2018-09-16T13:01:27Z</time>
      </trkpt>
      <trkpt lat="40.288967" lon="-4.827733">
        <ele>1283.0</ele>
        <time>2018-09-16T13:01:28Z</time>
      </trkpt>
      <trkpt lat="40.289000" lon="-4.827633">
        <ele>1283.0</ele>
        <time>2018-09-16T13:01:29Z</time>
      </trkpt>
      <trkpt lat="40.289033" lon="-4.827533">
        <ele>1283.0</ele>
        <time>2018-09-16T13:01:30Z</time>
      </trkpt>
      <trkpt lat="40.289050" lon="-4.827417">
        <ele>1282.0</ele>
        <time>2018-09-16T13:01:31Z</time>
      </trkpt>
      <trkpt lat="40.289083" lon="-4.827300">
        <ele>1282.0</ele>
        <time>2018-09-16T13:01:32Z</time>
      </trkpt>
      <trkpt lat="40.289100" lon="-4.827183">
        <ele>1282.0</ele>
        <time>2018-09-16T13:01:33Z</time>
      </trkpt>
      <trkpt lat="40.289133" lon="-4.827067">
        <ele>1282.0</ele>
        <time>2018-09-16T13:01:34Z</time>
      </trkpt>
      <trkpt lat="40.289183" lon="-4.826967">
        <ele>1283.0</ele>
        <time>2018-09-16T13:01:35Z</time>
      </trkpt>
      <trkpt lat="40.289233" lon="-4.826867">
        <ele>1283.0</ele>
        <time>2018-09-16T13:01:36Z</time>
      </trkpt>
      <trkpt lat="40.289283" lon="-4.826767">
        <ele>1282.0</ele>
        <time>2018-09-16T13:01:37Z</time>
      </trkpt>
      <trkpt lat="40.289333" lon="-4.826667">
        <ele>1281.0</ele>
        <time>2018-09-16T13:01:38Z</time>
      </trkpt>
      <trkpt lat="40.289367" lon="-4.826550">
        <ele>1280.0</ele>
        <time>2018-09-16T13:01:39Z</time>
      </trkpt>
      <trkpt lat="40.289417" lon="-4.826433">
        <ele>1281.0</ele>
        <time>2018-09-16T13:01:40Z</time>
      </trkpt>
      <trkpt lat="40.289467" lon="-4.826333">
        <ele>1283.0</ele>
        <time>2018-09-16T13:01:41Z</time>
      </trkpt>
      <trkpt lat="40.289533" lon="-4.826250">
        <ele>1284.0</ele>
        <time>2018-09-16T13:01:42Z</time>
      </trkpt>
      <trkpt lat="40.289600" lon="-4.826183">
        <ele>1284.0</ele>
        <time>2018-09-16T13:01:43Z</time>
      </trkpt>
      <trkpt lat="40.289683" lon="-4.826100">
        <ele>1283.0</ele>
        <time>2018-09-16T13:01:44Z</time>
      </trkpt>
      <trkpt lat="40.289750" lon="-4.826000">
        <ele>1282.0</ele>
        <time>2018-09-16T13:01:45Z</time>
      </trkpt>
      <trkpt lat="40.289817" lon="-4.825900">
        <ele>1281.0</ele>
        <time>2018-09-16T13:01:46Z</time>
      </trkpt>
      <trkpt lat="40.289867" lon="-4.825783">
        <ele>1281.0</ele>
        <time>2018-09-16T13:01:47Z</time>
      </trkpt>
      <trkpt lat="40.289933" lon="-4.825667">
        <ele>1283.0</ele>
        <time>2018-09-16T13:01:48Z</time>
      </trkpt>
      <trkpt lat="40.289983" lon="-4.825567">
        <ele>1285.0</ele>
        <time>2018-09-16T13:01:49Z</time>
      </trkpt>
      <trkpt lat="40.290050" lon="-4.825467">
        <ele>1286.0</ele>
        <time>2018-09-16T13:01:50Z</time>
      </trkpt>
      <trkpt lat="40.290100" lon="-4.825367">
        <ele>1287.0</ele>
        <time>2018-09-16T13:01:51Z</time>
      </trkpt>
      <trkpt lat="40.290150" lon="-4.825233">
        <ele>1286.0</ele>
        <time>2018-09-16T13:01:52Z</time>
      </trkpt>
      <trkpt lat="40.290167" lon="-4.825100">
        <ele>1286.0</ele>
        <time>2018-09-16T13:01:53Z</time>
      </trkpt>
      <trkpt lat="40.290200" lon="-4.824950">
        <ele>1288.0</ele>
        <time>2018-09-16T13:01:54Z</time>
      </trkpt>
      <trkpt lat="40.290233" lon="-4.824800">
        <ele>1291.0</ele>
        <time>2018-09-16T13:01:55Z</time>
      </trkpt>
      <trkpt lat="40.290317" lon="-4.824667">
        <ele>1294.0</ele>
        <time>2018-09-16T13:01:56Z</time>
      </trkpt>
      <trkpt lat="40.290367" lon="-4.824550">
        <ele>1296.0</ele>
        <time>2018-09-16T13:01:57Z</time>
      </trkpt>
      <trkpt lat="40.290400" lon="-4.824433">
        <ele>1298.0</ele>
        <time>2018-09-16T13:01:58Z</time>
      </trkpt>
      <trkpt lat="40.290383" lon="-4.824317">
        <ele>1297.0</ele>
        <time>2018-09-16T13:01:59Z</time>
      </trkpt>
      <trkpt lat="40.290333" lon="-4.824233">
        <ele>1297.0</ele>
        <time>2018-09-16T13:02:00Z</time>
      </trkpt>
      <trkpt lat="40.290267" lon="-4.824150">
        <ele>1299.0</ele>
        <time>2018-09-16T13:02:01Z</time>
      </trkpt>
      <trkpt lat="40.290217" lon="-4.824083">
        <ele>1303.0</ele>
        <time>2018-09-16T13:02:02Z</time>
      </trkpt>
      <trkpt lat="40.290200" lon="-4.824000">
        <ele>1307.0</ele>
        <time>2018-09-16T13:02:03Z</time>
      </trkpt>
      <trkpt lat="40.290183" lon="-4.823950">
        <ele>1309.0</ele>
        <time>2018-09-16T13:02:04Z</time>
      </trkpt>
      <trkpt lat="40.290133" lon="-4.823917">
        <ele>1310.0</ele>
        <time>2018-09-16T13:02:05Z</time>
      </trkpt>
      <trkpt lat="40.290083" lon="-4.823883">
        <ele>1310.0</ele>
        <time>2018-09-16T13:02:06Z</time>
      </trkpt>
      <trkpt lat="40.290017" lon="-4.823883">
        <ele>1311.0</ele>
        <time>2018-09-16T13:02:07Z</time>
      </trkpt>
      <trkpt lat="40.289933" lon="-4.823917">
        <ele>1313.0</ele>
        <time>2018-09-16T13:02:08Z</time>
      </trkpt>
      <trkpt lat="40.289883" lon="-4.823983">
        <ele>1315.0</ele>
        <time>2018-09-16T13:02:09Z</time>
      </trkpt>
      <trkpt lat="40.289850" lon="-4.824083">
        <ele>1317.0</ele>
        <time>2018-09-16T13:02:10Z</time>
      </trkpt>
      <trkpt lat="40.289850" lon="-4.824200">
        <ele>1318.0</ele>
        <time>2018-09-16T13:02:11Z</time>
      </trkpt>
      <trkpt lat="40.289850" lon="-4.824317">
        <ele>1320.0</ele>
        <time>2018-09-16T13:02:12Z</time>
      </trkpt>
      <trkpt lat="40.289883" lon="-4.824450">
        <ele>1321.0</ele>
        <time>2018-09-16T13:02:13Z</time>
      </trkpt>
      <trkpt lat="40.289933" lon="-4.824567">
        <ele>1323.0</ele>
        <time>2018-09-16T13:02:14Z</time>
      </trkpt>
      <trkpt lat="40.290017" lon="-4.824667">
        <ele>1324.0</ele>
        <time>2018-09-16T13:02:15Z</time>
      </trkpt>
      <trkpt lat="40.290133" lon="-4.824750">
        <ele>1323.0</ele>
        <time>2018-09-16T13:02:16Z</time>
      </trkpt>
      <trkpt lat="40.290267" lon="-4.824800">
        <ele>1323.0</ele>
        <time>2018-09-16T13:02:17Z</time>
      </trkpt>
      <trkpt lat="40.290400" lon="-4.824800">
        <ele>1326.0</ele>
        <time>2018-09-16T13:02:18Z</time>
      </trkpt>
      <trkpt lat="40.290517" lon="-4.824733">
        <ele>1329.0</ele>
        <time>2018-09-16T13:02:19Z</time>
      </trkpt>
      <trkpt lat="40.290617" lon="-4.824650">
        <ele>1331.0</ele>
        <time>2018-09-16T13:02:20Z</time>
      </trkpt>
      <trkpt lat="40.290683" lon="-4.824533">
        <ele>1333.0</ele>
        <time>2018-09-16T13:02:21Z</time>
      </trkpt>
      <trkpt lat="40.290750" lon="-4.824417">
        <ele>1335.0</ele>
        <time>2018-09-16T13:02:22Z</time>
      </trkpt>
      <trkpt lat="40.290817" lon="-4.824300">
        <ele>1337.0</ele>
        <time>2018-09-16T13:02:23Z</time>
      </trkpt>
      <trkpt lat="40.290850" lon="-4.824200">
        <ele>1339.0</ele>
        <time>2018-09-16T13:02:24Z</time>
      </trkpt>
      <trkpt lat="40.290883" lon="-4.824083">
        <ele>1341.0</ele>
        <time>2018-09-16T13:02:25Z</time>
      </trkpt>
      <trkpt lat="40.290883" lon="-4.823983">
        <ele>1342.0</ele>
        <time>2018-09-16T13:02:26Z</time>
      </trkpt>
      <trkpt lat="40.290850" lon="-4.823867">
        <ele>1343.0</ele>
        <time>2018-09-16T13:02:27Z</time>
      </trkpt>
      <trkpt lat="40.290817" lon="-4.823783">
        <ele>1345.0</ele>
        <time>2018-09-16T13:02:28Z</time>
      </trkpt>
      <trkpt lat="40.290750" lon="-4.823717">
        <ele>1347.0</ele>
        <time>2018-09-16T13:02:29Z</time>
      </trkpt>
      <trkpt lat="40.290683" lon="-4.823700">
        <ele>1349.0</ele>
        <time>2018-09-16T13:02:30Z</time>
      </trkpt>
      <trkpt lat="40.290617" lon="-4.823717">
        <ele>1351.0</ele>
        <time>2018-09-16T13:02:31Z</time>
      </trkpt>
      <trkpt lat="40.290550" lon="-4.823750">
        <ele>1354.0</ele>
        <time>2018-09-16T13:02:32Z</time>
      </trkpt>
      <trkpt lat="40.290500" lon="-4.823800">
        <ele>1357.0</ele>
        <time>2018-09-16T13:02:33Z</time>
      </trkpt>
      <trkpt lat="40.290483" lon="-4.823867">
        <ele>1359.0</ele>
        <time>2018-09-16T13:02:34Z</time>
      </trkpt>
      <trkpt lat="40.290467" lon="-4.823967">
        <ele>1360.0</ele>
        <time>2018-09-16T13:02:35Z</time>
      </trkpt>
      <trkpt lat="40.290500" lon="-4.824083">
        <ele>1359.0</ele>
        <time>2018-09-16T13:02:36Z</time>
      </trkpt>
      <trkpt lat="40.290550" lon="-4.824217">
        <ele>1360.0</ele>
        <time>2018-09-16T13:02:37Z</time>
      </trkpt>
      <trkpt lat="40.290633" lon="-4.824317">
        <ele>1361.0</ele>
        <time>2018-09-16T13:02:38Z</time>
      </trkpt>
      <trkpt lat="40.290750" lon="-4.824383">
        <ele>1363.0</ele>
        <time>2018-09-16T13:02:39Z</time>
      </trkpt>
      <trkpt lat="40.290867" lon="-4.824400">
        <ele>1366.0</ele>
        <time>2018-09-16T13:02:40Z</time>
      </trkpt>
      <trkpt lat="40.290967" lon="-4.824383">
        <ele>1369.0</ele>
        <time>2018-09-16T13:02:41Z</time>
      </trkpt>
      <trkpt lat="40.291067" lon="-4.824317">
        <ele>1372.0</ele>
        <time>2018-09-16T13:02:42Z</time>
      </trkpt>
      <trkpt lat="40.291167" lon="-4.824250">
        <ele>1374.0</ele>
        <time>2018-09-16T13:02:43Z</time>
      </trkpt>
      <trkpt lat="40.291250" lon="-4.824183">
        <ele>1376.0</ele>
        <time>2018-09-16T13:02:44Z</time>
      </trkpt>
      <trkpt lat="40.291333" lon="-4.824100">
        <ele>1378.0</ele>
        <time>2018-09-16T13:02:45Z</time>
      </trkpt>
      <trkpt lat="40.291383" lon="-4.823983">
        <ele>1379.0</ele>
        <time>2018-09-16T13:02:46Z</time>
      </trkpt>
      <trkpt lat="40.291400" lon="-4.823867">
        <ele>1381.0</ele>
        <time>2018-09-16T13:02:47Z</time>
      </trkpt>
      <trkpt lat="40.291400" lon="-4.823750">
        <ele>1382.0</ele>
        <time>2018-09-16T13:02:48Z</time>
      </trkpt>
      <trkpt lat="40.291367" lon="-4.823667">
        <ele>1385.0</ele>
        <time>2018-09-16T13:02:49Z</time>
      </trkpt>
      <trkpt lat="40.291333" lon="-4.823583">
        <ele>1388.0</ele>
        <time>2018-09-16T13:02:50Z</time>
      </trkpt>
      <trkpt lat="40.291300" lon="-4.823533">
        <ele>1391.0</ele>
        <time>2018-09-16T13:02:51Z</time>
      </trkpt>
      <trkpt lat="40.291250" lon="-4.823517">
        <ele>1393.0</ele>
        <time>2018-09-16T13:02:52Z</time>
      </trkpt>
      <trkpt lat="40.291200" lon="-4.823517">
        <ele>1394.0</ele>
        <time>2018-09-16T13:02:53Z</time>
      </trkpt>
      <trkpt lat="40.291150" lon="-4.823550">
        <ele>1394.0</ele>
        <time>2018-09-16T13:02:54Z</time>
      </trkpt>
      <trkpt lat="40.291100" lon="-4.823633">
        <ele>1395.0</ele>
        <time>2018-09-16T13:02:55Z</time>
      </trkpt>
      <trkpt lat="40.291083" lon="-4.823733">
        <ele>1397.0</ele>
        <time>2018-09-16T13:02:56Z</time>
      </trkpt>
      <trkpt lat="40.291100" lon="-4.823850">
        <ele>1399.0</ele>
        <time>2018-09-16T13:02:57Z</time>
      </trkpt>
      <trkpt lat="40.291150" lon="-4.823950">
        <ele>1401.0</ele>
        <time>2018-09-16T13:02:58Z</time>
      </trkpt>
      <trkpt lat="40.291217" lon="-4.824050">
        <ele>1403.0</ele>
        <time>2018-09-16T13:02:59Z</time>
      </trkpt>
      <trkpt lat="40.291317" lon="-4.824117">
        <ele>1404.0</ele>
        <time>2018-09-16T13:03:00Z</time>
      </trkpt>
      <trkpt lat="40.291417" lon="-4.824167">
        <ele>1405.0</ele>
        <time>2018-09-16T13:03:01Z</time>
      </trkpt>
      <trkpt lat="40.291533" lon="-4.824183">
        <ele>1407.0</ele>
        <time>2018-09-16T13:03:02Z</time>
      </trkpt>
      <trkpt lat="40.291633" lon="-4.824167">
        <ele>1408.0</ele>
        <time>2018-09-16T13:03:03Z</time>
      </trkpt>
      <trkpt lat="40.291750" lon="-4.824117">
        <ele>1410.0</ele>
        <time>2018-09-16T13:03:04Z</time>
      </trkpt>
      <trkpt lat="40.291850" lon="-4.824067">
        <ele>1412.0</ele>
        <time>2018-09-16T13:03:05Z</time>
      </trkpt>
      <trkpt lat="40.291933" lon="-4.823983">
        <ele>1414.0</ele>
        <time>2018-09-16T13:03:06Z</time>
      </trkpt>
      <trkpt lat="40.292017" lon="-4.823900">
        <ele>1416.0</ele>
        <time>2018-09-16T13:03:07Z</time>
      </trkpt>
      <trkpt lat="40.292083" lon="-4.823817">
        <ele>1419.0</ele>
        <time>2018-09-16T13:03:08Z</time>
      </trkpt>
      <trkpt lat="40.292150" lon="-4.823717">
        <ele>1421.0</ele>
        <time>2018-09-16T13:03:09Z</time>
      </trkpt>
      <trkpt lat="40.292183" lon="-4.823600">
        <ele>1423.0</ele>
        <time>2018-09-16T13:03:10Z</time>
      </trkpt>
      <trkpt lat="40.292233" lon="-4.823483">
        <ele>1425.0</ele>
        <time>2018-09-16T13:03:11Z</time>
      </trkpt>
      <trkpt lat="40.292283" lon="-4.823367">
        <ele>1426.0</ele>
        <time>2018-09-16T13:03:12Z</time>
      </trkpt>
      <trkpt lat="40.292333" lon="-4.823250">
        <ele>1428.0</ele>
        <time>2018-09-16T13:03:13Z</time>
      </trkpt>
      <trkpt lat="40.292350" lon="-4.823133">
        <ele>1430.0</ele>
        <time>2018-09-16T13:03:14Z</time>
      </trkpt>
      <trkpt lat="40.292333" lon="-4.823017">
        <ele>1430.0</ele>
        <time>2018-09-16T13:03:15Z</time>
      </trkpt>
      <trkpt lat="40.292283" lon="-4.822933">
        <ele>1431.0</ele>
        <time>2018-09-16T13:03:16Z</time>
      </trkpt>
      <trkpt lat="40.292200" lon="-4.822867">
        <ele>1432.0</ele>
        <time>2018-09-16T13:03:17Z</time>
      </trkpt>
      <trkpt lat="40.292133" lon="-4.822850">
        <ele>1435.0</ele>
        <time>2018-09-16T13:03:18Z</time>
      </trkpt>
      <trkpt lat="40.292050" lon="-4.822883">
        <ele>1437.0</ele>
        <time>2018-09-16T13:03:19Z</time>
      </trkpt>
      <trkpt lat="40.292000" lon="-4.822967">
        <ele>1439.0</ele>
        <time>2018-09-16T13:03:20Z</time>
      </trkpt>
      <trkpt lat="40.291983" lon="-4.823100">
        <ele>1439.0</ele>
        <time>2018-09-16T13:03:21Z</time>
      </trkpt>
      <trkpt lat="40.291983" lon="-4.823250">
        <ele>1440.0</ele>
        <time>2018-09-16T13:03:22Z</time>
      </trkpt>
      <trkpt lat="40.292050" lon="-4.823383">
        <ele>1442.0</ele>
        <time>2018-09-16T13:03:23Z</time>
      </trkpt>
      <trkpt lat="40.292117" lon="-4.823500">
        <ele>1444.0</ele>
        <time>2018-09-16T13:03:24Z</time>
      </trkpt>
      <trkpt lat="40.292233" lon="-4.823567">
        <ele>1446.0</ele>
        <time>2018-09-16T13:03:25Z</time>
      </trkpt>
      <trkpt lat="40.292350" lon="-4.823583">
        <ele>1448.0</ele>
        <time>2018-09-16T13:03:26Z</time>
      </trkpt>
      <trkpt lat="40.292483" lon="-4.823567">
        <ele>1450.0</ele>
        <time>2018-09-16T13:03:27Z</time>
      </trkpt>
      <trkpt lat="40.292583" lon="-4.823500">
        <ele>1452.0</ele>
        <time>2018-09-16T13:03:28Z</time>
      </trkpt>
      <trkpt lat="40.292667" lon="-4.823400">
        <ele>1454.0</ele>
        <time>2018-09-16T13:03:29Z</time>
      </trkpt>
      <trkpt lat="40.292733" lon="-4.823267">
        <ele>1455.0</ele>
        <time>2018-09-16T13:03:30Z</time>
      </trkpt>
      <trkpt lat="40.292783" lon="-4.823150">
        <ele>1458.0</ele>
        <time>2018-09-16T13:03:31Z</time>
      </trkpt>
      <trkpt lat="40.292833" lon="-4.823033">
        <ele>1460.0</ele>
        <time>2018-09-16T13:03:32Z</time>
      </trkpt>
      <trkpt lat="40.292867" lon="-4.822900">
        <ele>1463.0</ele>
        <time>2018-09-16T13:03:33Z</time>
      </trkpt>
      <trkpt lat="40.292883" lon="-4.822783">
        <ele>1465.0</ele>
        <time>2018-09-16T13:03:34Z</time>
      </trkpt>
      <trkpt lat="40.292883" lon="-4.822667">
        <ele>1467.0</ele>
        <time>2018-09-16T13:03:35Z</time>
      </trkpt>
      <trkpt lat="40.292833" lon="-4.822567">
        <ele>1467.0</ele>
        <time>2018-09-16T13:03:36Z</time>
      </trkpt>
      <trkpt lat="40.292767" lon="-4.822500">
        <ele>1469.0</ele>
        <time>2018-09-16T13:03:37Z</time>
      </trkpt>
      <trkpt lat="40.292683" lon="-4.822483">
        <ele>1470.0</ele>
        <time>2018-09-16T13:03:38Z</time>
      </trkpt>
      <trkpt lat="40.292617" lon="-4.822550">
        <ele>1471.0</ele>
        <time>2018-09-16T13:03:39Z</time>
      </trkpt>
      <trkpt lat="40.292583" lon="-4.822650">
        <ele>1472.0</ele>
        <time>2018-09-16T13:03:40Z</time>
      </trkpt>
      <trkpt lat="40.292567" lon="-4.822783">
        <ele>1473.0</ele>
        <time>2018-09-16T13:03:41Z</time>
      </trkpt>
      <trkpt lat="40.292583" lon="-4.822900">
        <ele>1476.0</ele>
        <time>2018-09-16T13:03:42Z</time>
      </trkpt>
      <trkpt lat="40.292617" lon="-4.823017">
        <ele>1477.0</ele>
        <time>2018-09-16T13:03:43Z</time>
      </trkpt>
      <trkpt lat="40.292683" lon="-4.823133">
        <ele>1479.0</ele>
        <time>2018-09-16T13:03:44Z</time>
      </trkpt>
      <trkpt lat="40.292767" lon="-4.823217">
        <ele>1480.0</ele>
        <time>2018-09-16T13:03:45Z</time>
      </trkpt>
      <trkpt lat="40.292867" lon="-4.823283">
        <ele>1482.0</ele>
        <time>2018-09-16T13:03:46Z</time>
      </trkpt>
      <trkpt lat="40.292967" lon="-4.823317">
        <ele>1485.0</ele>
        <time>2018-09-16T13:03:47Z</time>
      </trkpt>
      <trkpt lat="40.293083" lon="-4.823300">
        <ele>1487.0</ele>
        <time>2018-09-16T13:03:48Z</time>
      </trkpt>
      <trkpt lat="40.293183" lon="-4.823267">
        <ele>1489.0</ele>
        <time>2018-09-16T13:03:49Z</time>
      </trkpt>
      <trkpt lat="40.293267" lon="-4.823183">
        <ele>1490.0</ele>
        <time>2018-09-16T13:03:50Z</time>
      </trkpt>
      <trkpt lat="40.293333" lon="-4.823067">
        <ele>1493.0</ele>
        <time>2018-09-16T13:03:51Z</time>
      </trkpt>
      <trkpt lat="40.293350" lon="-4.822933">
        <ele>1495.0</ele>
        <time>2018-09-16T13:03:52Z</time>
      </trkpt>
      <trkpt lat="40.293350" lon="-4.822800">
        <ele>1496.0</ele>
        <time>2018-09-16T13:03:53Z</time>
      </trkpt>
      <trkpt lat="40.293300" lon="-4.822683">
        <ele>1498.0</ele>
        <time>2018-09-16T13:03:54Z</time>
      </trkpt>
      <trkpt lat="40.293250" lon="-4.822567">
        <ele>1501.0</ele>
        <time>2018-09-16T13:03:55Z</time>
      </trkpt>
      <trkpt lat="40.293217" lon="-4.822500">
        <ele>1505.0</ele>
        <time>2018-09-16T13:03:56Z</time>
      </trkpt>
      <trkpt lat="40.293167" lon="-4.822433">
        <ele>1507.0</ele>
        <time>2018-09-16T13:03:57Z</time>
      </trkpt>
      <trkpt lat="40.293117" lon="-4.822400">
        <ele>1509.0</ele>
        <time>2018-09-16T13:03:58Z</time>
      </trkpt>
      <trkpt lat="40.293067" lon="-4.822400">
        <ele>1510.0</ele>
        <time>2018-09-16T13:03:59Z</time>
      </trkpt>
      <trkpt lat="40.293000" lon="-4.822433">
        <ele>1510.0</ele>
        <time>2018-09-16T13:04:00Z</time>
      </trkpt>
      <trkpt lat="40.292950" lon="-4.822500">
        <ele>1511.0</ele>
        <time>2018-09-16T13:04:01Z</time>
      </trkpt>
      <trkpt lat="40.292917" lon="-4.822583">
        <ele>1512.0</ele>
        <time>2018-09-16T13:04:02Z</time>
      </trkpt>
      <trkpt lat="40.292883" lon="-4.822700">
        <ele>1513.0</ele>
        <time>2018-09-16T13:04:03Z</time>
      </trkpt>
      <trkpt lat="40.292900" lon="-4.822833">
        <ele>1513.0</ele>
        <time>2018-09-16T13:04:04Z</time>
      </trkpt>
      <trkpt lat="40.292933" lon="-4.822967">
        <ele>1514.0</ele>
        <time>2018-09-16T13:04:05Z</time>
      </trkpt>
      <trkpt lat="40.293000" lon="-4.823083">
        <ele>1514.0</ele>
        <time>2018-09-16T13:04:06Z</time>
      </trkpt>
      <trkpt lat="40.293083" lon="-4.823167">
        <ele>1515.0</ele>
        <time>2018-09-16T13:04:07Z</time>
      </trkpt>
      <trkpt lat="40.293200" lon="-4.823217">
        <ele>1516.0</ele>
        <time>2018-09-16T13:04:08Z</time>
      </trkpt>
      <trkpt lat="40.293317" lon="-4.823233">
        <ele>1517.0</ele>
        <time>2018-09-16T13:04:09Z</time>
      </trkpt>
      <trkpt lat="40.293433" lon="-4.823200">
        <ele>1519.0</ele>
        <time>2018-09-16T13:04:10Z</time>
      </trkpt>
      <trkpt lat="40.293533" lon="-4.823117">
        <ele>1521.0</ele>
        <time>2018-09-16T13:04:11Z</time>
      </trkpt>
      <trkpt lat="40.293600" lon="-4.823033">
        <ele>1523.0</ele>
        <time>2018-09-16T13:04:12Z</time>
      </trkpt>
      <trkpt lat="40.293650" lon="-4.822917">
        <ele>1525.0</ele>
        <time>2018-09-16T13:04:13Z</time>
      </trkpt>
      <trkpt lat="40.293700" lon="-4.822817">
        <ele>1527.0</ele>
        <time>2018-09-16T13:04:14Z</time>
      </trkpt>
      <trkpt lat="40.293750" lon="-4.822733">
        <ele>1529.0</ele>
        <time>2018-09-16T13:04:15Z</time>
      </trkpt>
      <trkpt lat="40.293817" lon="-4.822650">
        <ele>1530.0</ele>
        <time>2018-09-16T13:04:16Z</time>
      </trkpt>
      <trkpt lat="40.293867" lon="-4.822550">
        <ele>1530.0</ele>
        <time>2018-09-16T13:04:17Z</time>
      </trkpt>
      <trkpt lat="40.293900" lon="-4.822450">
        <ele>1530.0</ele>
        <time>2018-09-16T13:04:18Z</time>
      </trkpt>
      <trkpt lat="40.293900" lon="-4.822333">
        <ele>1529.0</ele>
        <time>2018-09-16T13:04:19Z</time>
      </trkpt>
      <trkpt lat="40.293867" lon="-4.822217">
        <ele>1528.0</ele>
        <time>2018-09-16T13:04:20Z</time>
      </trkpt>
      <trkpt lat="40.293800" lon="-4.822167">
        <ele>1528.0</ele>
        <time>2018-09-16T13:04:21Z</time>
      </trkpt>
      <trkpt lat="40.293717" lon="-4.822150">
        <ele>1529.0</ele>
        <time>2018-09-16T13:04:22Z</time>
      </trkpt>
      <trkpt lat="40.293650" lon="-4.822200">
        <ele>1530.0</ele>
        <time>2018-09-16T13:04:23Z</time>
      </trkpt>
      <trkpt lat="40.293600" lon="-4.822283">
        <ele>1531.0</ele>
        <time>2018-09-16T13:04:24Z</time>
      </trkpt>
      <trkpt lat="40.293550" lon="-4.822383">
        <ele>1533.0</ele>
        <time>2018-09-16T13:04:25Z</time>
      </trkpt>
      <trkpt lat="40.293533" lon="-4.822500">
        <ele>1534.0</ele>
        <time>2018-09-16T13:04:26Z</time>
      </trkpt>
      <trkpt lat="40.293517" lon="-4.822600">
        <ele>1536.0</ele>
        <time>2018-09-16T13:04:27Z</time>
      </trkpt>
      <trkpt lat="40.293517" lon="-4.822717">
        <ele>1537.0</ele>
        <time>2018-09-16T13:04:28Z</time>
      </trkpt>
      <trkpt lat="40.293533" lon="-4.822833">
        <ele>1538.0</ele>
        <time>2018-09-16T13:04:29Z</time>
      </trkpt>
      <trkpt lat="40.293567" lon="-4.822950">
        <ele>1539.0</ele>
        <time>2018-09-16T13:04:30Z</time>
      </trkpt>
      <trkpt lat="40.293617" lon="-4.823067">
        <ele>1540.0</ele>
        <time>2018-09-16T13:04:31Z</time>
      </trkpt>
      <trkpt lat="40.293650" lon="-4.823183">
        <ele>1542.0</ele>
        <time>2018-09-16T13:04:32Z</time>
      </trkpt>
      <trkpt lat="40.293717" lon="-4.823283">
        <ele>1543.0</ele>
        <time>2018-09-16T13:04:33Z</time>
      </trkpt>
      <trkpt lat="40.293800" lon="-4.823367">
        <ele>1543.0</ele>
        <time>2018-09-16T13:04:34Z</time>
      </trkpt>
      <trkpt lat="40.293900" lon="-4.823433">
        <ele>1542.0</ele>
        <time>2018-09-16T13:04:35Z</time>
      </trkpt>
      <trkpt lat="40.294017" lon="-4.823450">
        <ele>1542.0</ele>
        <time>2018-09-16T13:04:36Z</time>
      </trkpt>
      <trkpt lat="40.294133" lon="-4.823433">
        <ele>1543.0</ele>
        <time>2018-09-16T13:04:37Z</time>
      </trkpt>
      <trkpt lat="40.294250" lon="-4.823383">
        <ele>1545.0</ele>
        <time>2018-09-16T13:04:38Z</time>
      </trkpt>
      <trkpt lat="40.294333" lon="-4.823300">
        <ele>1547.0</ele>
        <time>2018-09-16T13:04:39Z</time>
      </trkpt>
      <trkpt lat="40.294417" lon="-4.823200">
        <ele>1549.0</ele>
        <time>2018-09-16T13:04:40Z</time>
      </trkpt>
      <trkpt lat="40.294483" lon="-4.823100">
        <ele>1551.0</ele>
        <time>2018-09-16T13:04:41Z</time>
      </trkpt>
      <trkpt lat="40.294550" lon="-4.823000">
        <ele>1552.0</ele>
        <time>2018-09-16T13:04:42Z</time>
      </trkpt>
      <trkpt lat="40.294600" lon="-4.822900">
        <ele>1554.0</ele>
        <time>2018-09-16T13:04:43Z</time>
      </trkpt>
      <trkpt lat="40.294650" lon="-4.822800">
        <ele>1556.0</ele>
        <time>2018-09-16T13:04:44Z</time>
      </trkpt>
      <trkpt lat="40.294683" lon="-4.822700">
        <ele>1557.0</ele>
        <time>2018-09-16T13:04:45Z</time>
      </trkpt>
      <trkpt lat="40.294683" lon="-4.822600">
        <ele>1557.0</ele>
        <time>2018-09-16T13:04:46Z</time>
      </trkpt>
      <trkpt lat="40.294650" lon="-4.822517">
        <ele>1556.0</ele>
        <time>2018-09-16T13:04:47Z</time>
      </trkpt>
      <trkpt lat="40.294617" lon="-4.822450">
        <ele>1556.0</ele>
        <time>2018-09-16T13:04:48Z</time>
      </trkpt>
      <trkpt lat="40.294550" lon="-4.822417">
        <ele>1557.0</ele>
        <time>2018-09-16T13:04:49Z</time>
      </trkpt>
      <trkpt lat="40.294483" lon="-4.822400">
        <ele>1557.0</ele>
        <time>2018-09-16T13:04:50Z</time>
      </trkpt>
      <trkpt lat="40.294417" lon="-4.822433">
        <ele>1557.0</ele>
        <time>2018-09-16T13:04:51Z</time>
      </trkpt>
      <trkpt lat="40.294367" lon="-4.822500">
        <ele>1557.0</ele>
        <time>2018-09-16T13:04:52Z</time>
      </trkpt>
      <trkpt lat="40.294300" lon="-4.822583">
        <ele>1558.0</ele>
        <time>2018-09-16T13:04:53Z</time>
      </trkpt>
      <trkpt lat="40.294267" lon="-4.822667">
        <ele>1559.0</ele>
        <time>2018-09-16T13:04:54Z</time>
      </trkpt>
      <trkpt lat="40.294267" lon="-4.822800">
        <ele>1560.0</ele>
        <time>2018-09-16T13:04:55Z</time>
      </trkpt>
      <trkpt lat="40.294267" lon="-4.822933">
        <ele>1562.0</ele>
        <time>2018-09-16T13:04:56Z</time>
      </trkpt>
      <trkpt lat="40.294300" lon="-4.823067">
        <ele>1566.0</ele>
        <time>2018-09-16T13:04:57Z</time>
      </trkpt>
      <trkpt lat="40.294317" lon="-4.823167">
        <ele>1570.0</ele>
        <time>2018-09-16T13:04:58Z</time>
      </trkpt>
      <trkpt lat="40.294350" lon="-4.823283">
        <ele>1573.0</ele>
        <time>2018-09-16T13:04:59Z</time>
      </trkpt>
      <trkpt lat="40.294400" lon="-4.823383">
        <ele>1576.0</ele>
        <time>2018-09-16T13:05:00Z</time>
      </trkpt>
      <trkpt lat="40.294450" lon="-4.823483">
        <ele>1578.0</ele>
        <time>2018-09-16T13:05:01Z</time>
      </trkpt>
      <trkpt lat="40.294533" lon="-4.823567">
        <ele>1580.0</ele>
        <time>2018-09-16T13:05:02Z</time>
      </trkpt>
      <trkpt lat="40.294633" lon="-4.823633">
        <ele>1582.0</ele>
        <time>2018-09-16T13:05:03Z</time>
      </trkpt>
      <trkpt lat="40.294750" lon="-4.823650">
        <ele>1585.0</ele>
        <time>2018-09-16T13:05:04Z</time>
      </trkpt>
      <trkpt lat="40.294867" lon="-4.823633">
        <ele>1588.0</ele>
        <time>2018-09-16T13:05:05Z</time>
      </trkpt>
      <trkpt lat="40.294983" lon="-4.823600">
        <ele>1591.0</ele>
        <time>2018-09-16T13:05:06Z</time>
      </trkpt>
      <trkpt lat="40.295100" lon="-4.823533">
        <ele>1594.0</ele>
        <time>2018-09-16T13:05:07Z</time>
      </trkpt>
      <trkpt lat="40.295183" lon="-4.823450">
        <ele>1597.0</ele>
        <time>2018-09-16T13:05:08Z</time>
      </trkpt>
      <trkpt lat="40.295250" lon="-4.823350">
        <ele>1598.0</ele>
        <time>2018-09-16T13:05:09Z</time>
      </trkpt>
      <trkpt lat="40.295300" lon="-4.823233">
        <ele>1599.0</ele>
        <time>2018-09-16T13:05:10Z</time>
      </trkpt>
      <trkpt lat="40.295317" lon="-4.823133">
        <ele>1600.0</ele>
        <time>2018-09-16T13:05:11Z</time>
      </trkpt>
      <trkpt lat="40.295300" lon="-4.823033">
        <ele>1601.0</ele>
        <time>2018-09-16T13:05:12Z</time>
      </trkpt>
      <trkpt lat="40.295250" lon="-4.822950">
        <ele>1602.0</ele>
        <time>2018-09-16T13:05:13Z</time>
      </trkpt>
      <trkpt lat="40.295200" lon="-4.822917">
        <ele>1603.0</ele>
        <time>2018-09-16T13:05:14Z</time>
      </trkpt>
      <trkpt lat="40.295117" lon="-4.822900">
        <ele>1604.0</ele>
        <time>2018-09-16T13:05:15Z</time>
      </trkpt>
      <trkpt lat="40.295050" lon="-4.822917">
        <ele>1605.0</ele>
        <time>2018-09-16T13:05:16Z</time>
      </trkpt>
      <trkpt lat="40.295000" lon="-4.822950">
        <ele>1607.0</ele>
        <time>2018-09-16T13:05:17Z</time>
      </trkpt>
      <trkpt lat="40.294950" lon="-4.823017">
        <ele>1608.0</ele>
        <time>2018-09-16T13:05:18Z</time>
      </trkpt>
      <trkpt lat="40.294900" lon="-4.823117">
        <ele>1610.0</ele>
        <time>2018-09-16T13:05:19Z</time>
      </trkpt>
      <trkpt lat="40.294867" lon="-4.823233">
        <ele>1613.0</ele>
        <time>2018-09-16T13:05:20Z</time>
      </trkpt>
      <trkpt lat="40.294867" lon="-4.823350">
        <ele>1616.0</ele>
        <time>2018-09-16T13:05:21Z</time>
      </trkpt>
      <trkpt lat="40.294900" lon="-4.823467">
        <ele>1620.0</ele>
        <time>2018-09-16T13:05:22Z</time>
      </trkpt>
      <trkpt lat="40.294967" lon="-4.823550">
        <ele>1622.0</ele>
        <time>2018-09-16T13:05:23Z</time>
      </trkpt>
      <trkpt lat="40.295050" lon="-4.823633">
        <ele>1625.0</ele>
        <time>2018-09-16T13:05:24Z</time>
      </trkpt>
      <trkpt lat="40.295117" lon="-4.823717">
        <ele>1627.0</ele>
        <time>2018-09-16T13:05:25Z</time>
      </trkpt>
      <trkpt lat="40.295217" lon="-4.823783">
        <ele>1629.0</ele>
        <time>2018-09-16T13:05:26Z</time>
      </trkpt>
      <trkpt lat="40.295317" lon="-4.823817">
        <ele>1630.0</ele>
        <time>2018-09-16T13:05:27Z</time>
      </trkpt>
      <trkpt lat="40.295433" lon="-4.823833">
        <ele>1631.0</ele>
        <time>2018-09-16T13:05:28Z</time>
      </trkpt>
      <trkpt lat="40.295567" lon="-4.823817">
        <ele>1632.0</ele>
        <time>2018-09-16T13:05:29Z</time>
      </trkpt>
      <trkpt lat="40.295683" lon="-4.823767">
        <ele>1635.0</ele>
        <time>2018-09-16T13:05:30Z</time>
      </trkpt>
      <trkpt lat="40.295767" lon="-4.823700">
        <ele>1636.0</ele>
        <time>2018-09-16T13:05:31Z</time>
      </trkpt>
      <trkpt lat="40.295833" lon="-4.823600">
        <ele>1638.0</ele>
        <time>2018-09-16T13:05:32Z</time>
      </trkpt>
      <trkpt lat="40.295867" lon="-4.823483">
        <ele>1639.0</ele>
        <time>2018-09-16T13:05:33Z</time>
      </trkpt>
      <trkpt lat="40.295883" lon="-4.823383">
        <ele>1640.0</ele>
        <time>2018-09-16T13:05:34Z</time>
      </trkpt>
      <trkpt lat="40.295883" lon="-4.823267">
        <ele>1642.0</ele>
        <time>2018-09-16T13:05:35Z</time>
      </trkpt>
      <trkpt lat="40.295850" lon="-4.823183">
        <ele>1643.0</ele>
        <time>2018-09-16T13:05:36Z</time>
      </trkpt>
      <trkpt lat="40.295817" lon="-4.823100">
        <ele>1644.0</ele>
        <time>2018-09-16T13:05:37Z</time>
      </trkpt>
      <trkpt lat="40.295767" lon="-4.823050">
        <ele>1646.0</ele>
        <time>2018-09-16T13:05:38Z</time>
      </trkpt>
      <trkpt lat="40.295700" lon="-4.823017">
        <ele>1647.0</ele>
        <time>2018-09-16T13:05:39Z</time>
      </trkpt>
      <trkpt lat="40.295633" lon="-4.823033">
        <ele>1648.0</ele>
        <time>2018-09-16T13:05:40Z</time>
      </trkpt>
      <trkpt lat="40.295567" lon="-4.823083">
        <ele>1649.0</ele>
        <time>2018-09-16T13:05:41Z</time>
      </trkpt>
      <trkpt lat="40.295517" lon="-4.823167">
        <ele>1651.0</ele>
        <time>2018-09-16T13:05:42Z</time>
      </trkpt>
      <trkpt lat="40.295483" lon="-4.823283">
        <ele>1654.0</ele>
        <time>2018-09-16T13:05:43Z</time>
      </trkpt>
      <trkpt lat="40.295483" lon="-4.823400">
        <ele>1656.0</ele>
        <time>2018-09-16T13:05:44Z</time>
      </trkpt>
      <trkpt lat="40.295517" lon="-4.823500">
        <ele>1658.0</ele>
        <time>2018-09-16T13:05:45Z</time>
      </trkpt>
      <trkpt lat="40.295583" lon="-4.823600">
        <ele>1659.0</ele>
        <time>2018-09-16T13:05:46Z</time>
      </trkpt>
      <trkpt lat="40.295667" lon="-4.823683">
        <ele>1660.0</ele>
        <time>2018-09-16T13:05:47Z</time>
      </trkpt>
      <trkpt lat="40.295767" lon="-4.823750">
        <ele>1660.0</ele>
        <time>2018-09-16T13:05:48Z</time>
      </trkpt>
      <trkpt lat="40.295867" lon="-4.823767">
        <ele>1660.0</ele>
        <time>2018-09-16T13:05:49Z</time>
      </trkpt>
      <trkpt lat="40.296000" lon="-4.823733">
        <ele>1659.0</ele>
        <time>2018-09-16T13:05:50Z</time>
      </trkpt>
      <trkpt lat="40.296100" lon="-4.823617">
        <ele>1658.0</ele>
        <time>2018-09-16T13:05:51Z</time>
      </trkpt>
      <trkpt lat="40.296167" lon="-4.823483">
        <ele>1658.0</ele>
        <time>2018-09-16T13:05:52Z</time>
      </trkpt>
      <trkpt lat="40.296200" lon="-4.823317">
        <ele>1659.0</ele>
        <time>2018-09-16T13:05:53Z</time>
      </trkpt>
      <trkpt lat="40.296217" lon="-4.823183">
        <ele>1662.0</ele>
        <time>2018-09-16T13:05:54Z</time>
      </trkpt>
      <trkpt lat="40.296217" lon="-4.823067">
        <ele>1665.0</ele>
        <time>2018-09-16T13:05:55Z</time>
      </trkpt>
      <trkpt lat="40.296217" lon="-4.822967">
        <ele>1668.0</ele>
        <time>2018-09-16T13:05:56Z</time>
      </trkpt>
      <trkpt lat="40.296217" lon="-4.822883">
        <ele>1671.0</ele>
        <time>2018-09-16T13:05:57Z</time>
      </trkpt>
      <trkpt lat="40.296217" lon="-4.822800">
        <ele>1673.0</ele>
        <time>2018-09-16T13:05:58Z</time>
      </trkpt>
      <trkpt lat="40.296233" lon="-4.822717">
        <ele>1674.0</ele>
        <time>2018-09-16T13:05:59Z</time>
      </trkpt>
      <trkpt lat="40.296233" lon="-4.822633">
        <ele>1675.0</ele>
        <time>2018-09-16T13:06:00Z</time>
      </trkpt>
      <trkpt lat="40.296217" lon="-4.822550">
        <ele>1674.0</ele>
        <time>2018-09-16T13:06:01Z</time>
      </trkpt>
      <trkpt lat="40.296183" lon="-4.822467">
        <ele>1674.0</ele>
        <time>2018-09-16T13:06:02Z</time>
      </trkpt>
      <trkpt lat="40.296150" lon="-4.822400">
        <ele>1673.0</ele>
        <time>2018-09-16T13:06:03Z</time>
      </trkpt>
      <trkpt lat="40.296083" lon="-4.822333">
        <ele>1672.0</ele>
        <time>2018-09-16T13:06:04Z</time>
      </trkpt>
      <trkpt lat="40.296000" lon="-4.822317">
        <ele>1673.0</ele>
        <time>2018-09-16T13:06:05Z</time>
      </trkpt>
      <trkpt lat="40.295933" lon="-4.822333">
        <ele>1674.0</ele>
        <time>2018-09-16T13:06:06Z</time>
      </trkpt>
      <trkpt lat="40.295867" lon="-4.822383">
        <ele>1675.0</ele>
        <time>2018-09-16T13:06:07Z</time>
      </trkpt>
      <trkpt lat="40.295817" lon="-4.822467">
        <ele>1677.0</ele>
        <time>2018-09-16T13:06:08Z</time>
      </trkpt>
      <trkpt lat="40.295767" lon="-4.822567">
        <ele>1678.0</ele>
        <time>2018-09-16T13:06:09Z</time>
      </trkpt>
      <trkpt lat="40.295717" lon="-4.822650">
        <ele>1680.0</ele>
        <time>2018-09-16T13:06:10Z</time>
      </trkpt>
      <trkpt lat="40.295683" lon="-4.822750">
        <ele>1682.0</ele>
        <time>2018-09-16T13:06:11Z</time>
      </trkpt>
      <trkpt lat="40.295667" lon="-4.822833">
        <ele>1683.0</ele>
        <time>2018-09-16T13:06:12Z</time>
      </trkpt>
      <trkpt lat="40.295650" lon="-4.822933">
        <ele>1684.0</ele>
        <time>2018-09-16T13:06:13Z</time>
      </trkpt>
      <trkpt lat="40.295683" lon="-4.823033">
        <ele>1684.0</ele>
        <time>2018-09-16T13:06:14Z</time>
      </trkpt>
      <trkpt lat="40.295733" lon="-4.823150">
        <ele>1684.0</ele>
        <time>2018-09-16T13:06:15Z</time>
      </trkpt>
      <trkpt lat="40.295800" lon="-4.823233">
        <ele>1685.0</ele>
        <time>2018-09-16T13:06:16Z</time>
      </trkpt>
      <trkpt lat="40.295900" lon="-4.823283">
        <ele>1686.0</ele>
        <time>2018-09-16T13:06:17Z</time>
      </trkpt>
      <trkpt lat="40.295983" lon="-4.823300">
        <ele>1687.0</ele>
        <time>2018-09-16T13:06:18Z</time>
      </trkpt>
      <trkpt lat="40.296100" lon="-4.823267">
        <ele>1686.0</ele>
        <time>2018-09-16T13:06:19Z</time>
      </trkpt>
      <trkpt lat="40.296200" lon="-4.823200">
        <ele>1685.0</ele>
        <time>2018-09-16T13:06:20Z</time>
      </trkpt>
      <trkpt lat="40.296283" lon="-4.823117">
        <ele>1685.0</ele>
        <time>2018-09-16T13:06:21Z</time>
      </trkpt>
      <trkpt lat="40.296350" lon="-4.822983">
        <ele>1685.0</ele>
        <time>2018-09-16T13:06:22Z</time>
      </trkpt>
      <trkpt lat="40.296383" lon="-4.822867">
        <ele>1686.0</ele>
        <time>2018-09-16T13:06:23Z</time>
      </trkpt>
      <trkpt lat="40.296417" lon="-4.822733">
        <ele>1687.0</ele>
        <time>2018-09-16T13:06:24Z</time>
      </trkpt>
      <trkpt lat="40.296450" lon="-4.822617">
        <ele>1688.0</ele>
        <time>2018-09-16T13:06:25Z</time>
      </trkpt>
      <trkpt lat="40.296483" lon="-4.822500">
        <ele>1689.0</ele>
        <time>2018-09-16T13:06:26Z</time>
      </trkpt>
      <trkpt lat="40.296533" lon="-4.822400">
        <ele>1690.0</ele>
        <time>2018-09-16T13:06:27Z</time>
      </trkpt>
      <trkpt lat="40.296567" lon="-4.822300">
        <ele>1690.0</ele>
        <time>2018-09-16T13:06:28Z</time>
      </trkpt>
      <trkpt lat="40.296600" lon="-4.822183">
        <ele>1690.0</ele>
        <time>2018-09-16T13:06:29Z</time>
      </trkpt>
      <trkpt lat="40.296617" lon="-4.822083">
        <ele>1690.0</ele>
        <time>2018-09-16T13:06:30Z</time>
      </trkpt>
      <trkpt lat="40.296617" lon="-4.821967">
        <ele>1689.0</ele>
        <time>2018-09-16T13:06:31Z</time>
      </trkpt>
      <trkpt lat="40.296600" lon="-4.821850">
        <ele>1688.0</ele>
        <time>2018-09-16T13:06:32Z</time>
      </trkpt>
      <trkpt lat="40.296583" lon="-4.821717">
        <ele>1688.0</ele>
        <time>2018-09-16T13:06:33Z</time>
      </trkpt>
      <trkpt lat="40.296550" lon="-4.821583">
        <ele>1690.0</ele>
        <time>2018-09-16T13:06:34Z</time>
      </trkpt>
      <trkpt lat="40.296533" lon="-4.821450">
        <ele>1692.0</ele>
        <time>2018-09-16T13:06:35Z</time>
      </trkpt>
      <trkpt lat="40.296533" lon="-4.821350">
        <ele>1695.0</ele>
        <time>2018-09-16T13:06:36Z</time>
      </trkpt>
      <trkpt lat="40.296533" lon="-4.821250">
        <ele>1697.0</ele>
        <time>2018-09-16T13:06:37Z</time>
      </trkpt>
      <trkpt lat="40.296533" lon="-4.821150">
        <ele>1698.0</ele>
        <time>2018-09-16T13:06:38Z</time>
      </trkpt>
      <trkpt lat="40.296533" lon="-4.821033">
        <ele>1698.0</ele>
        <time>2018-09-16T13:06:39Z</time>
      </trkpt>
      <trkpt lat="40.296517" lon="-4.820933">
        <ele>1698.0</ele>
        <time>2018-09-16T13:06:40Z</time>
      </trkpt>
      <trkpt lat="40.296450" lon="-4.820833">
        <ele>1698.0</ele>
        <time>2018-09-16T13:06:41Z</time>
      </trkpt>
      <trkpt lat="40.296367" lon="-4.820800">
        <ele>1699.0</ele>
        <time>2018-09-16T13:06:42Z</time>
      </trkpt>
      <trkpt lat="40.296283" lon="-4.820800">
        <ele>1701.0</ele>
        <time>2018-09-16T13:06:43Z</time>
      </trkpt>
      <trkpt lat="40.296217" lon="-4.820817">
        <ele>1703.0</ele>
        <time>2018-09-16T13:06:44Z</time>
      </trkpt>
      <trkpt lat="40.296150" lon="-4.820817">
        <ele>1705.0</ele>
        <time>2018-09-16T13:06:45Z</time>
      </trkpt>
      <trkpt lat="40.296100" lon="-4.820850">
        <ele>1704.0</ele>
        <time>2018-09-16T13:06:46Z</time>
      </trkpt>
      <trkpt lat="40.296033" lon="-4.820883">
        <ele>1701.0</ele>
        <time>2018-09-16T13:06:47Z</time>
      </trkpt>
      <trkpt lat="40.295967" lon="-4.820950">
        <ele>1698.0</ele>
        <time>2018-09-16T13:06:48Z</time>
      </trkpt>
      <trkpt lat="40.295883" lon="-4.821050">
        <ele>1696.0</ele>
        <time>2018-09-16T13:06:49Z</time>
      </trkpt>
      <trkpt lat="40.295850" lon="-4.821167">
        <ele>1695.0</ele>
        <time>2018-09-16T13:06:50Z</time>
      </trkpt>
      <trkpt lat="40.295867" lon="-4.821300">
        <ele>1694.0</ele>
        <time>2018-09-16T13:06:51Z</time>
      </trkpt>
      <trkpt lat="40.295917" lon="-4.821417">
        <ele>1694.0</ele>
        <time>2018-09-16T13:06:52Z</time>
      </trkpt>
      <trkpt lat="40.295983" lon="-4.821533">
        <ele>1694.0</ele>
        <time>2018-09-16T13:06:53Z</time>
      </trkpt>
      <trkpt lat="40.296083" lon="-4.821617">
        <ele>1695.0</ele>
        <time>2018-09-16T13:06:54Z</time>
      </trkpt>
      <trkpt lat="40.296167" lon="-4.821667">
        <ele>1696.0</ele>
        <time>2018-09-16T13:06:55Z</time>
      </trkpt>
      <trkpt lat="40.296267" lon="-4.821700">
        <ele>1697.0</ele>
        <time>2018-09-16T13:06:56Z</time>
      </trkpt>
      <trkpt lat="40.296367" lon="-4.821700">
        <ele>1697.0</ele>
        <time>2018-09-16T13:06:57Z</time>
      </trkpt>
      <trkpt lat="40.296450" lon="-4.821683">
        <ele>1698.0</ele>
        <time>2018-09-16T13:06:58Z</time>
      </trkpt>
      <trkpt lat="40.296550" lon="-4.821667">
        <ele>1698.0</ele>
        <time>2018-09-16T13:06:59Z</time>
      </trkpt>
      <trkpt lat="40.296633" lon="-4.821633">
        <ele>1699.0</ele>
        <time>2018-09-16T13:07:00Z</time>
      </trkpt>
      <trkpt lat="40.296717" lon="-4.821583">
        <ele>1698.0</ele>
        <time>2018-09-16T13:07:01Z</time>
      </trkpt>
      <trkpt lat="40.296800" lon="-4.821500">
        <ele>1698.0</ele>
        <time>2018-09-16T13:07:02Z</time>
      </trkpt>
      <trkpt lat="40.296867" lon="-4.821400">
        <ele>1697.0</ele>
        <time>2018-09-16T13:07:03Z</time>
      </trkpt>
      <trkpt lat="40.296933" lon="-4.821267">
        <ele>1698.0</ele>
        <time>2018-09-16T13:07:04Z</time>
      </trkpt>
      <trkpt lat="40.296967" lon="-4.821150">
        <ele>1698.0</ele>
        <time>2018-09-16T13:07:05Z</time>
      </trkpt>
      <trkpt lat="40.296983" lon="-4.821033">
        <ele>1698.0</ele>
        <time>2018-09-16T13:07:06Z</time>
      </trkpt>
      <trkpt lat="40.296983" lon="-4.820917">
        <ele>1699.0</ele>
        <time>2018-09-16T13:07:07Z</time>
      </trkpt>
      <trkpt lat="40.296967" lon="-4.820817">
        <ele>1698.0</ele>
        <time>2018-09-16T13:07:08Z</time>
      </trkpt>
      <trkpt lat="40.296950" lon="-4.820717">
        <ele>1697.0</ele>
        <time>2018-09-16T13:07:09Z</time>
      </trkpt>
      <trkpt lat="40.296917" lon="-4.820617">
        <ele>1695.0</ele>
        <time>2018-09-16T13:07:10Z</time>
      </trkpt>
      <trkpt lat="40.296867" lon="-4.820517">
        <ele>1694.0</ele>
        <time>2018-09-16T13:07:11Z</time>
      </trkpt>
      <trkpt lat="40.296817" lon="-4.820417">
        <ele>1695.0</ele>
        <time>2018-09-16T13:07:12Z</time>
      </trkpt>
      <trkpt lat="40.296783" lon="-4.820317">
        <ele>1698.0</ele>
        <time>2018-09-16T13:07:13Z</time>
      </trkpt>
      <trkpt lat="40.296750" lon="-4.820233">
        <ele>1699.0</ele>
        <time>2018-09-16T13:07:14Z</time>
      </trkpt>
      <trkpt lat="40.296700" lon="-4.820150">
        <ele>1700.0</ele>
        <time>2018-09-16T13:07:15Z</time>
      </trkpt>
      <trkpt lat="40.296650" lon="-4.820050">
        <ele>1700.0</ele>
        <time>2018-09-16T13:07:16Z</time>
      </trkpt>
      <trkpt lat="40.296600" lon="-4.819933">
        <ele>1700.0</ele>
        <time>2018-09-16T13:07:17Z</time>
      </trkpt>
      <trkpt lat="40.296517" lon="-4.819833">
        <ele>1700.0</ele>
        <time>2018-09-16T13:07:18Z</time>
      </trkpt>
      <trkpt lat="40.296450" lon="-4.819733">
        <ele>1701.0</ele>
        <time>2018-09-16T13:07:19Z</time>
      </trkpt>
      <trkpt lat="40.296383" lon="-4.819650">
        <ele>1701.0</ele>
        <time>2018-09-16T13:07:20Z</time>
      </trkpt>
      <trkpt lat="40.296317" lon="-4.819583">
        <ele>1700.0</ele>
        <time>2018-09-16T13:07:21Z</time>
      </trkpt>
      <trkpt lat="40.296250" lon="-4.819517">
        <ele>1697.0</ele>
        <time>2018-09-16T13:07:22Z</time>
      </trkpt>
      <trkpt lat="40.296167" lon="-4.819467">
        <ele>1693.0</ele>
        <time>2018-09-16T13:07:23Z</time>
      </trkpt>
      <trkpt lat="40.296083" lon="-4.819450">
        <ele>1689.0</ele>
        <time>2018-09-16T13:07:24Z</time>
      </trkpt>
      <trkpt lat="40.295983" lon="-4.819450">
        <ele>1686.0</ele>
        <time>2018-09-16T13:07:25Z</time>
      </trkpt>
      <trkpt lat="40.295900" lon="-4.819483">
        <ele>1683.0</ele>
        <time>2018-09-16T13:07:26Z</time>
      </trkpt>
      <trkpt lat="40.295833" lon="-4.819533">
        <ele>1680.0</ele>
        <time>2018-09-16T13:07:27Z</time>
      </trkpt>
      <trkpt lat="40.295767" lon="-4.819600">
        <ele>1677.0</ele>
        <time>2018-09-16T13:07:28Z</time>
      </trkpt>
      <trkpt lat="40.295717" lon="-4.819700">
        <ele>1673.0</ele>
        <time>2018-09-16T13:07:29Z</time>
      </trkpt>
      <trkpt lat="40.295683" lon="-4.819800">
        <ele>1669.0</ele>
        <time>2018-09-16T13:07:30Z</time>
      </trkpt>
      <trkpt lat="40.295683" lon="-4.819933">
        <ele>1665.0</ele>
        <time>2018-09-16T13:07:31Z</time>
      </trkpt>
      <trkpt lat="40.295717" lon="-4.820050">
        <ele>1661.0</ele>
        <time>2018-09-16T13:07:32Z</time>
      </trkpt>
      <trkpt lat="40.295767" lon="-4.820183">
        <ele>1657.0</ele>
        <time>2018-09-16T13:07:33Z</time>
      </trkpt>
      <trkpt lat="40.295833" lon="-4.820267">
        <ele>1654.0</ele>
        <time>2018-09-16T13:07:34Z</time>
      </trkpt>
      <trkpt lat="40.295917" lon="-4.820350">
        <ele>1650.0</ele>
        <time>2018-09-16T13:07:35Z</time>
      </trkpt>
      <trkpt lat="40.296000" lon="-4.820400">
        <ele>1647.0</ele>
        <time>2018-09-16T13:07:36Z</time>
      </trkpt>
      <trkpt lat="40.296083" lon="-4.820433">
        <ele>1642.0</ele>
        <time>2018-09-16T13:07:37Z</time>
      </trkpt>
      <trkpt lat="40.296183" lon="-4.820433">
        <ele>1637.0</ele>
        <time>2018-09-16T13:07:38Z</time>
      </trkpt>
      <trkpt lat="40.296283" lon="-4.820400">
        <ele>1632.0</ele>
        <time>2018-09-16T13:07:39Z</time>
      </trkpt>
      <trkpt lat="40.296383" lon="-4.820350">
        <ele>1627.0</ele>
        <time>2018-09-16T13:07:40Z</time>
      </trkpt>
      <trkpt lat="40.296500" lon="-4.820267">
        <ele>1623.0</ele>
        <time>2018-09-16T13:07:41Z</time>
      </trkpt>
      <trkpt lat="40.296600" lon="-4.820167">
        <ele>1621.0</ele>
        <time>2018-09-16T13:07:42Z</time>
      </trkpt>
      <trkpt lat="40.296700" lon="-4.820067">
        <ele>1620.0</ele>
        <time>2018-09-16T13:07:43Z</time>
      </trkpt>
      <trkpt lat="40.296783" lon="-4.819983">
        <ele>1620.0</ele>
        <time>2018-09-16T13:07:44Z</time>
      </trkpt>
      <trkpt lat="40.296867" lon="-4.819900">
        <ele>1620.0</ele>
        <time>2018-09-16T13:07:45Z</time>
      </trkpt>
      <trkpt lat="40.296917" lon="-4.819800">
        <ele>1620.0</ele>
        <time>2018-09-16T13:07:46Z</time>
      </trkpt>
      <trkpt lat="40.296967" lon="-4.819733">
        <ele>1620.0</ele>
        <time>2018-09-16T13:07:47Z</time>
      </trkpt>
      <trkpt lat="40.297017" lon="-4.819650">
        <ele>1619.0</ele>
        <time>2018-09-16T13:07:48Z</time>
      </trkpt>
      <trkpt lat="40.297050" lon="-4.819567">
        <ele>1618.0</ele>
        <time>2018-09-16T13:07:49Z</time>
      </trkpt>
      <trkpt lat="40.297100" lon="-4.819483">
        <ele>1617.0</ele>
        <time>2018-09-16T13:07:50Z</time>
      </trkpt>
      <trkpt lat="40.297117" lon="-4.819400">
        <ele>1616.0</ele>
        <time>2018-09-16T13:07:51Z</time>
      </trkpt>
      <trkpt lat="40.297133" lon="-4.819317">
        <ele>1615.0</ele>
        <time>2018-09-16T13:07:52Z</time>
      </trkpt>
      <trkpt lat="40.297150" lon="-4.819217">
        <ele>1614.0</ele>
        <time>2018-09-16T13:07:53Z</time>
      </trkpt>
      <trkpt lat="40.297167" lon="-4.819117">
        <ele>1613.0</ele>
        <time>2018-09-16T13:07:54Z</time>
      </trkpt>
      <trkpt lat="40.297167" lon="-4.819017">
        <ele>1612.0</ele>
        <time>2018-09-16T13:07:55Z</time>
      </trkpt>
      <trkpt lat="40.297167" lon="-4.818917">
        <ele>1611.0</ele>
        <time>2018-09-16T13:07:56Z</time>
      </trkpt>
      <trkpt lat="40.297167" lon="-4.818800">
        <ele>1609.0</ele>
        <time>2018-09-16T13:07:57Z</time>
      </trkpt>
      <trkpt lat="40.297150" lon="-4.818667">
        <ele>1608.0</ele>
        <time>2018-09-16T13:07:58Z</time>
      </trkpt>
      <trkpt lat="40.297133" lon="-4.818550">
        <ele>1608.0</ele>
        <time>2018-09-16T13:07:59Z</time>
      </trkpt>
      <trkpt lat="40.297100" lon="-4.818433">
        <ele>1608.0</ele>
        <time>2018-09-16T13:08:00Z</time>
      </trkpt>
      <trkpt lat="40.297083" lon="-4.818333">
        <ele>1609.0</ele>
        <time>2018-09-16T13:08:01Z</time>
      </trkpt>
      <trkpt lat="40.297050" lon="-4.818233">
        <ele>1608.0</ele>
        <time>2018-09-16T13:08:02Z</time>
      </trkpt>
      <trkpt lat="40.297033" lon="-4.818133">
        <ele>1606.0</ele>
        <time>2018-09-16T13:08:03Z</time>
      </trkpt>
      <trkpt lat="40.297033" lon="-4.818033">
        <ele>1604.0</ele>
        <time>2018-09-16T13:08:04Z</time>
      </trkpt>
      <trkpt lat="40.297033" lon="-4.817933">
        <ele>1601.0</ele>
        <time>2018-09-16T13:08:05Z</time>
      </trkpt>
      <trkpt lat="40.297017" lon="-4.817833">
        <ele>1598.0</ele>
        <time>2018-09-16T13:08:06Z</time>
      </trkpt>
      <trkpt lat="40.297000" lon="-4.817717">
        <ele>1595.0</ele>
        <time>2018-09-16T13:08:07Z</time>
      </trkpt>
      <trkpt lat="40.296983" lon="-4.817583">
        <ele>1592.0</ele>
        <time>2018-09-16T13:08:08Z</time>
      </trkpt>
      <trkpt lat="40.296967" lon="-4.817450">
        <ele>1591.0</ele>
        <time>2018-09-16T13:08:09Z</time>
      </trkpt>
      <trkpt lat="40.296933" lon="-4.817350">
        <ele>1591.0</ele>
        <time>2018-09-16T13:08:10Z</time>
      </trkpt>
      <trkpt lat="40.296900" lon="-4.817250">
        <ele>1593.0</ele>
        <time>2018-09-16T13:08:11Z</time>
      </trkpt>
      <trkpt lat="40.296867" lon="-4.817167">
        <ele>1595.0</ele>
        <time>2018-09-16T13:08:12Z</time>
      </trkpt>
      <trkpt lat="40.296833" lon="-4.817083">
        <ele>1597.0</ele>
        <time>2018-09-16T13:08:13Z</time>
      </trkpt>
      <trkpt lat="40.296800" lon="-4.817017">
        <ele>1598.0</ele>
        <time>2018-09-16T13:08:14Z</time>
      </trkpt>
      <trkpt lat="40.296767" lon="-4.816933">
        <ele>1598.0</ele>
        <time>2018-09-16T13:08:15Z</time>
      </trkpt>
      <trkpt lat="40.296750" lon="-4.816850">
        <ele>1597.0</ele>
        <time>2018-09-16T13:08:16Z</time>
      </trkpt>
      <trkpt lat="40.296700" lon="-4.816750">
        <ele>1597.0</ele>
        <time>2018-09-16T13:08:17Z</time>
      </trkpt>
      <trkpt lat="40.296667" lon="-4.816650">
        <ele>1598.0</ele>
        <time>2018-09-16T13:08:18Z</time>
      </trkpt>
      <trkpt lat="40.296617" lon="-4.816567">
        <ele>1599.0</ele>
        <time>2018-09-16T13:08:19Z</time>
      </trkpt>
      <trkpt lat="40.296567" lon="-4.816467">
        <ele>1601.0</ele>
        <time>2018-09-16T13:08:20Z</time>
      </trkpt>
      <trkpt lat="40.296533" lon="-4.816383">
        <ele>1604.0</ele>
        <time>2018-09-16T13:08:21Z</time>
      </trkpt>
      <trkpt lat="40.296517" lon="-4.816283">
        <ele>1607.0</ele>
        <time>2018-09-16T13:08:22Z</time>
      </trkpt>
      <trkpt lat="40.296483" lon="-4.816200">
        <ele>1608.0</ele>
        <time>2018-09-16T13:08:23Z</time>
      </trkpt>
      <trkpt lat="40.296450" lon="-4.816133">
        <ele>1609.0</ele>
        <time>2018-09-16T13:08:24Z</time>
      </trkpt>
      <trkpt lat="40.296383" lon="-4.816067">
        <ele>1610.0</ele>
        <time>2018-09-16T13:08:25Z</time>
      </trkpt>
      <trkpt lat="40.296317" lon="-4.816033">
        <ele>1610.0</ele>
        <time>2018-09-16T13:08:26Z</time>
      </trkpt>
      <trkpt lat="40.296250" lon="-4.816017">
        <ele>1609.0</ele>
        <time>2018-09-16T13:08:27Z</time>
      </trkpt>
      <trkpt lat="40.296183" lon="-4.816033">
        <ele>1609.0</ele>
        <time>2018-09-16T13:08:28Z</time>
      </trkpt>
      <trkpt lat="40.296117" lon="-4.816083">
        <ele>1608.0</ele>
        <time>2018-09-16T13:08:29Z</time>
      </trkpt>
      <trkpt lat="40.296067" lon="-4.816167">
        <ele>1608.0</ele>
        <time>2018-09-16T13:08:30Z</time>
      </trkpt>
      <trkpt lat="40.296033" lon="-4.816250">
        <ele>1608.0</ele>
        <time>2018-09-16T13:08:31Z</time>
      </trkpt>
      <trkpt lat="40.296033" lon="-4.816350">
        <ele>1608.0</ele>
        <time>2018-09-16T13:08:32Z</time>
      </trkpt>
      <trkpt lat="40.296050" lon="-4.816450">
        <ele>1607.0</ele>
        <time>2018-09-16T13:08:33Z</time>
      </trkpt>
      <trkpt lat="40.296083" lon="-4.816550">
        <ele>1606.0</ele>
        <time>2018-09-16T13:08:34Z</time>
      </trkpt>
      <trkpt lat="40.296150" lon="-4.816650">
        <ele>1605.0</ele>
        <time>2018-09-16T13:08:35Z</time>
      </trkpt>
      <trkpt lat="40.296233" lon="-4.816733">
        <ele>1605.0</ele>
        <time>2018-09-16T13:08:36Z</time>
      </trkpt>
      <trkpt lat="40.296317" lon="-4.816800">
        <ele>1605.0</ele>
        <time>2018-09-16T13:08:37Z</time>
      </trkpt>
      <trkpt lat="40.296417" lon="-4.816833">
        <ele>1604.0</ele>
        <time>2018-09-16T13:08:38Z</time>
      </trkpt>
      <trkpt lat="40.296533" lon="-4.816850">
        <ele>1604.0</ele>
        <time>2018-09-16T13:08:39Z</time>
      </trkpt>
      <trkpt lat="40.296650" lon="-4.816850">
        <ele>1604.0</ele>
        <time>2018-09-16T13:08:40Z</time>
      </trkpt>
      <trkpt lat="40.296783" lon="-4.816833">
        <ele>1606.0</ele>
        <time>2018-09-16T13:08:41Z</time>
      </trkpt>
      <trkpt lat="40.296900" lon="-4.816783">
        <ele>1608.0</ele>
        <time>2018-09-16T13:08:42Z</time>
      </trkpt>
      <trkpt lat="40.297000" lon="-4.816733">
        <ele>1611.0</ele>
        <time>2018-09-16T13:08:43Z</time>
      </trkpt>
      <trkpt lat="40.297083" lon="-4.816667">
        <ele>1613.0</ele>
        <time>2018-09-16T13:08:44Z</time>
      </trkpt>
      <trkpt lat="40.297167" lon="-4.816600">
        <ele>1615.0</ele>
        <time>2018-09-16T13:08:45Z</time>
      </trkpt>
      <trkpt lat="40.297250" lon="-4.816533">
        <ele>1617.0</ele>
        <time>2018-09-16T13:08:46Z</time>
      </trkpt>
      <trkpt lat="40.297333" lon="-4.816483">
        <ele>1619.0</ele>
        <time>2018-09-16T13:08:47Z</time>
      </trkpt>
      <trkpt lat="40.297433" lon="-4.816417">
        <ele>1619.0</ele>
        <time>2018-09-16T13:08:48Z</time>
      </trkpt>
      <trkpt lat="40.297533" lon="-4.816350">
        <ele>1621.0</ele>
        <time>2018-09-16T13:08:49Z</time>
      </trkpt>
      <trkpt lat="40.297650" lon="-4.816300">
        <ele>1624.0</ele>
        <time>2018-09-16T13:08:50Z</time>
      </trkpt>
      <trkpt lat="40.297733" lon="-4.816267">
        <ele>1626.0</ele>
        <time>2018-09-16T13:08:51Z</time>
      </trkpt>
      <trkpt lat="40.297833" lon="-4.816217">
        <ele>1628.0</ele>
        <time>2018-09-16T13:08:52Z</time>
      </trkpt>
      <trkpt lat="40.297917" lon="-4.816167">
        <ele>1630.0</ele>
        <time>2018-09-16T13:08:53Z</time>
      </trkpt>
      <trkpt lat="40.298000" lon="-4.816100">
        <ele>1630.0</ele>
        <time>2018-09-16T13:08:54Z</time>
      </trkpt>
      <trkpt lat="40.298050" lon="-4.816017">
        <ele>1630.0</ele>
        <time>2018-09-16T13:08:55Z</time>
      </trkpt>
      <trkpt lat="40.298083" lon="-4.815900">
        <ele>1630.0</ele>
        <time>2018-09-16T13:08:56Z</time>
      </trkpt>
      <trkpt lat="40.298100" lon="-4.815783">
        <ele>1631.0</ele>
        <time>2018-09-16T13:08:57Z</time>
      </trkpt>
      <trkpt lat="40.298083" lon="-4.815683">
        <ele>1632.0</ele>
        <time>2018-09-16T13:08:58Z</time>
      </trkpt>
      <trkpt lat="40.298033" lon="-4.815617">
        <ele>1633.0</ele>
        <time>2018-09-16T13:08:59Z</time>
      </trkpt>
      <trkpt lat="40.297983" lon="-4.815583">
        <ele>1632.0</ele>
        <time>2018-09-16T13:09:00Z</time>
      </trkpt>
      <trkpt lat="40.297900" lon="-4.815567">
        <ele>1632.0</ele>
        <time>2018-09-16T13:09:01Z</time>
      </trkpt>
      <trkpt lat="40.297833" lon="-4.815567">
        <ele>1633.0</ele>
        <time>2018-09-16T13:09:02Z</time>
      </trkpt>
      <trkpt lat="40.297767" lon="-4.815583">
        <ele>1635.0</ele>
        <time>2018-09-16T13:09:03Z</time>
      </trkpt>
      <trkpt lat="40.297733" lon="-4.815633">
        <ele>1636.0</ele>
        <time>2018-09-16T13:09:04Z</time>
      </trkpt>
      <trkpt lat="40.297683" lon="-4.815700">
        <ele>1636.0</ele>
        <time>2018-09-16T13:09:05Z</time>
      </trkpt>
      <trkpt lat="40.297650" lon="-4.815783">
        <ele>1637.0</ele>
        <time>2018-09-16T13:09:06Z</time>
      </trkpt>
      <trkpt lat="40.297617" lon="-4.815883">
        <ele>1638.0</ele>
        <time>2018-09-16T13:09:07Z</time>
      </trkpt>
      <trkpt lat="40.297600" lon="-4.816000">
        <ele>1640.0</ele>
        <time>2018-09-16T13:09:08Z</time>
      </trkpt>
      <trkpt lat="40.297583" lon="-4.816117">
        <ele>1642.0</ele>
        <time>2018-09-16T13:09:09Z</time>
      </trkpt>
      <trkpt lat="40.297600" lon="-4.816233">
        <ele>1644.0</ele>
        <time>2018-09-16T13:09:10Z</time>
      </trkpt>
      <trkpt lat="40.297600" lon="-4.816350">
        <ele>1645.0</ele>
        <time>2018-09-16T13:09:11Z</time>
      </trkpt>
      <trkpt lat="40.297600" lon="-4.816467">
        <ele>1647.0</ele>
        <time>2018-09-16T13:09:12Z</time>
      </trkpt>
      <trkpt lat="40.297600" lon="-4.816583">
        <ele>1648.0</ele>
        <time>2018-09-16T13:09:13Z</time>
      </trkpt>
      <trkpt lat="40.297617" lon="-4.816700">
        <ele>1650.0</ele>
        <time>2018-09-16T13:09:14Z</time>
      </trkpt>
      <trkpt lat="40.297667" lon="-4.816817">
        <ele>1650.0</ele>
        <time>2018-09-16T13:09:15Z</time>
      </trkpt>
      <trkpt lat="40.297750" lon="-4.816933">
        <ele>1650.0</ele>
        <time>2018-09-16T13:09:16Z</time>
      </trkpt>
      <trkpt lat="40.297850" lon="-4.817033">
        <ele>1651.0</ele>
        <time>2018-09-16T13:09:17Z</time>
      </trkpt>
      <trkpt lat="40.297967" lon="-4.817083">
        <ele>1653.0</ele>
        <time>2018-09-16T13:09:18Z</time>
      </trkpt>
      <trkpt lat="40.298067" lon="-4.817083">
        <ele>1655.0</ele>
        <time>2018-09-16T13:09:19Z</time>
      </trkpt>
      <trkpt lat="40.298150" lon="-4.817067">
        <ele>1655.0</ele>
        <time>2018-09-16T13:09:20Z</time>
      </trkpt>
      <trkpt lat="40.298233" lon="-4.817000">
        <ele>1654.0</ele>
        <time>2018-09-16T13:09:21Z</time>
      </trkpt>
      <trkpt lat="40.298317" lon="-4.816917">
        <ele>1654.0</ele>
        <time>2018-09-16T13:09:22Z</time>
      </trkpt>
      <trkpt lat="40.298383" lon="-4.816800">
        <ele>1654.0</ele>
        <time>2018-09-16T13:09:23Z</time>
      </trkpt>
      <trkpt lat="40.298433" lon="-4.816700">
        <ele>1656.0</ele>
        <time>2018-09-16T13:09:24Z</time>
      </trkpt>
      <trkpt lat="40.298467" lon="-4.816583">
        <ele>1658.0</ele>
        <time>2018-09-16T13:09:25Z</time>
      </trkpt>
      <trkpt lat="40.298483" lon="-4.816483">
        <ele>1661.0</ele>
        <time>2018-09-16T13:09:26Z</time>
      </trkpt>
      <trkpt lat="40.298517" lon="-4.816383">
        <ele>1663.0</ele>
        <time>2018-09-16T13:09:27Z</time>
      </trkpt>
      <trkpt lat="40.298533" lon="-4.816300">
        <ele>1665.0</ele>
        <time>2018-09-16T13:09:28Z</time>
      </trkpt>
      <trkpt lat="40.298550" lon="-4.816200">
        <ele>1667.0</ele>
        <time>2018-09-16T13:09:29Z</time>
      </trkpt>
      <trkpt lat="40.298583" lon="-4.816117">
        <ele>1668.0</ele>
        <time>2018-09-16T13:09:30Z</time>
      </trkpt>
      <trkpt lat="40.298600" lon="-4.816017">
        <ele>1669.0</ele>
        <time>2018-09-16T13:09:31Z</time>
      </trkpt>
      <trkpt lat="40.298600" lon="-4.815933">
        <ele>1669.0</ele>
        <time>2018-09-16T13:09:32Z</time>
      </trkpt>
      <trkpt lat="40.298600" lon="-4.815833">
        <ele>1670.0</ele>
        <time>2018-09-16T13:09:33Z</time>
      </trkpt>
      <trkpt lat="40.298550" lon="-4.815767">
        <ele>1669.0</ele>
        <time>2018-09-16T13:09:34Z</time>
      </trkpt>
      <trkpt lat="40.298483" lon="-4.815717">
        <ele>1668.0</ele>
        <time>2018-09-16T13:09:35Z</time>
      </trkpt>
      <trkpt lat="40.298417" lon="-4.815700">
        <ele>1667.0</ele>
        <time>2018-09-16T13:09:36Z</time>
      </trkpt>
      <trkpt lat="40.298333" lon="-4.815733">
        <ele>1667.0</ele>
        <time>2018-09-16T13:09:37Z</time>
      </trkpt>
      <trkpt lat="40.298250" lon="-4.815783">
        <ele>1668.0</ele>
        <time>2018-09-16T13:09:38Z</time>
      </trkpt>
      <trkpt lat="40.298200" lon="-4.815867">
        <ele>1669.0</ele>
        <time>2018-09-16T13:09:39Z</time>
      </trkpt>
      <trkpt lat="40.298150" lon="-4.815967">
        <ele>1671.0</ele>
        <time>2018-09-16T13:09:40Z</time>
      </trkpt>
      <trkpt lat="40.298133" lon="-4.816100">
        <ele>1671.0</ele>
        <time>2018-09-16T13:09:41Z</time>
      </trkpt>
      <trkpt lat="40.298133" lon="-4.816233">
        <ele>1671.0</ele>
        <time>2018-09-16T13:09:42Z</time>
      </trkpt>
      <trkpt lat="40.298150" lon="-4.816367">
        <ele>1672.0</ele>
        <time>2018-09-16T13:09:43Z</time>
      </trkpt>
      <trkpt lat="40.298200" lon="-4.816483">
        <ele>1673.0</ele>
        <time>2018-09-16T13:09:44Z</time>
      </trkpt>
      <trkpt lat="40.298267" lon="-4.816600">
        <ele>1673.0</ele>
        <time>2018-09-16T13:09:45Z</time>
      </trkpt>
      <trkpt lat="40.298350" lon="-4.816700">
        <ele>1674.0</ele>
        <time>2018-09-16T13:09:46Z</time>
      </trkpt>
      <trkpt lat="40.298467" lon="-4.816767">
        <ele>1674.0</ele>
        <time>2018-09-16T13:09:47Z</time>
      </trkpt>
      <trkpt lat="40.298567" lon="-4.816817">
        <ele>1676.0</ele>
        <time>2018-09-16T13:09:48Z</time>
      </trkpt>
      <trkpt lat="40.298683" lon="-4.816850">
        <ele>1677.0</ele>
        <time>2018-09-16T13:09:49Z</time>
      </trkpt>
      <trkpt lat="40.298800" lon="-4.816850">
        <ele>1678.0</ele>
        <time>2018-09-16T13:09:50Z</time>
      </trkpt>
      <trkpt lat="40.298917" lon="-4.816833">
        <ele>1679.0</ele>
        <time>2018-09-16T13:09:51Z</time>
      </trkpt>
      <trkpt lat="40.299017" lon="-4.816783">
        <ele>1679.0</ele>
        <time>2018-09-16T13:09:52Z</time>
      </trkpt>
      <trkpt lat="40.299100" lon="-4.816683">
        <ele>1679.0</ele>
        <time>2018-09-16T13:09:53Z</time>
      </trkpt>
      <trkpt lat="40.299167" lon="-4.816567">
        <ele>1681.0</ele>
        <time>2018-09-16T13:09:54Z</time>
      </trkpt>
      <trkpt lat="40.299217" lon="-4.816450">
        <ele>1683.0</ele>
        <time>2018-09-16T13:09:55Z</time>
      </trkpt>
      <trkpt lat="40.299250" lon="-4.816317">
        <ele>1686.0</ele>
        <time>2018-09-16T13:09:56Z</time>
      </trkpt>
      <trkpt lat="40.299267" lon="-4.816217">
        <ele>1689.0</ele>
        <time>2018-09-16T13:09:57Z</time>
      </trkpt>
      <trkpt lat="40.299283" lon="-4.816117">
        <ele>1691.0</ele>
        <time>2018-09-16T13:09:58Z</time>
      </trkpt>
      <trkpt lat="40.299283" lon="-4.816033">
        <ele>1692.0</ele>
        <time>2018-09-16T13:09:59Z</time>
      </trkpt>
      <trkpt lat="40.299283" lon="-4.815917">
        <ele>1693.0</ele>
        <time>2018-09-16T13:10:00Z</time>
      </trkpt>
      <trkpt lat="40.299267" lon="-4.815817">
        <ele>1694.0</ele>
        <time>2018-09-16T13:10:01Z</time>
      </trkpt>
      <trkpt lat="40.299267" lon="-4.815717">
        <ele>1695.0</ele>
        <time>2018-09-16T13:10:02Z</time>
      </trkpt>
      <trkpt lat="40.299250" lon="-4.815617">
        <ele>1696.0</ele>
        <time>2018-09-16T13:10:03Z</time>
      </trkpt>
      <trkpt lat="40.299233" lon="-4.815533">
        <ele>1697.0</ele>
        <time>2018-09-16T13:10:04Z</time>
      </trkpt>
      <trkpt lat="40.299200" lon="-4.815450">
        <ele>1697.0</ele>
        <time>2018-09-16T13:10:05Z</time>
      </trkpt>
      <trkpt lat="40.299167" lon="-4.815367">
        <ele>1696.0</ele>
        <time>2018-09-16T13:10:06Z</time>
      </trkpt>
      <trkpt lat="40.299133" lon="-4.815283">
        <ele>1696.0</ele>
        <time>2018-09-16T13:10:07Z</time>
      </trkpt>
      <trkpt lat="40.299067" lon="-4.815233">
        <ele>1695.0</ele>
        <time>2018-09-16T13:10:08Z</time>
      </trkpt>
      <trkpt lat="40.299000" lon="-4.815200">
        <ele>1695.0</ele>
        <time>2018-09-16T13:10:09Z</time>
      </trkpt>
      <trkpt lat="40.298917" lon="-4.815217">
        <ele>1694.0</ele>
        <time>2018-09-16T13:10:10Z</time>
      </trkpt>
      <trkpt lat="40.298833" lon="-4.815267">
        <ele>1695.0</ele>
        <time>2018-09-16T13:10:11Z</time>
      </trkpt>
      <trkpt lat="40.298750" lon="-4.815350">
        <ele>1696.0</ele>
        <time>2018-09-16T13:10:12Z</time>
      </trkpt>
      <trkpt lat="40.298700" lon="-4.815433">
        <ele>1698.0</ele>
        <time>2018-09-16T13:10:13Z</time>
      </trkpt>
      <trkpt lat="40.298650" lon="-4.815533">
        <ele>1699.0</ele>
        <time>2018-09-16T13:10:14Z</time>
      </trkpt>
      <trkpt lat="40.298617" lon="-4.815633">
        <ele>1701.0</ele>
        <time>2018-09-16T13:10:15Z</time>
      </trkpt>
      <trkpt lat="40.298583" lon="-4.815733">
        <ele>1703.0</ele>
        <time>2018-09-16T13:10:16Z</time>
      </trkpt>
      <trkpt lat="40.298550" lon="-4.815833">
        <ele>1705.0</ele>
        <time>2018-09-16T13:10:17Z</time>
      </trkpt>
      <trkpt lat="40.298517" lon="-4.815933">
        <ele>1706.0</ele>
        <time>2018-09-16T13:10:18Z</time>
      </trkpt>
      <trkpt lat="40.298483" lon="-4.816033">
        <ele>1708.0</ele>
        <time>2018-09-16T13:10:19Z</time>
      </trkpt>
      <trkpt lat="40.298483" lon="-4.816150">
        <ele>1708.0</ele>
        <time>2018-09-16T13:10:20Z</time>
      </trkpt>
      <trkpt lat="40.298517" lon="-4.816250">
        <ele>1709.0</ele>
        <time>2018-09-16T13:10:21Z</time>
      </trkpt>
      <trkpt lat="40.298567" lon="-4.816367">
        <ele>1709.0</ele>
        <time>2018-09-16T13:10:22Z</time>
      </trkpt>
      <trkpt lat="40.298650" lon="-4.816450">
        <ele>1708.0</ele>
        <time>2018-09-16T13:10:23Z</time>
      </trkpt>
      <trkpt lat="40.298750" lon="-4.816500">
        <ele>1707.0</ele>
        <time>2018-09-16T13:10:24Z</time>
      </trkpt>
      <trkpt lat="40.298867" lon="-4.816517">
        <ele>1707.0</ele>
        <time>2018-09-16T13:10:25Z</time>
      </trkpt>
      <trkpt lat="40.298983" lon="-4.816483">
        <ele>1708.0</ele>
        <time>2018-09-16T13:10:26Z</time>
      </trkpt>
      <trkpt lat="40.299083" lon="-4.816433">
        <ele>1710.0</ele>
        <time>2018-09-16T13:10:27Z</time>
      </trkpt>
      <trkpt lat="40.299167" lon="-4.816350">
        <ele>1711.0</ele>
        <time>2018-09-16T13:10:28Z</time>
      </trkpt>
      <trkpt lat="40.299233" lon="-4.816267">
        <ele>1712.0</ele>
        <time>2018-09-16T13:10:29Z</time>
      </trkpt>
      <trkpt lat="40.299317" lon="-4.816200">
        <ele>1713.0</ele>
        <time>2018-09-16T13:10:30Z</time>
      </trkpt>
      <trkpt lat="40.299383" lon="-4.816133">
        <ele>1715.0</ele>
        <time>2018-09-16T13:10:31Z</time>
      </trkpt>
      <trkpt lat="40.299467" lon="-4.816067">
        <ele>1716.0</ele>
        <time>2018-09-16T13:10:32Z</time>
      </trkpt>
      <trkpt lat="40.299550" lon="-4.816000">
        <ele>1718.0</ele>
        <time>2018-09-16T13:10:33Z</time>
      </trkpt>
      <trkpt lat="40.299600" lon="-4.815917">
        <ele>1718.0</ele>
        <time>2018-09-16T13:10:34Z</time>
      </trkpt>
      <trkpt lat="40.299650" lon="-4.815817">
        <ele>1719.0</ele>
        <time>2018-09-16T13:10:35Z</time>
      </trkpt>
      <trkpt lat="40.299683" lon="-4.815733">
        <ele>1720.0</ele>
        <time>2018-09-16T13:10:36Z</time>
      </trkpt>
      <trkpt lat="40.299700" lon="-4.815633">
        <ele>1722.0</ele>
        <time>2018-09-16T13:10:37Z</time>
      </trkpt>
      <trkpt lat="40.299733" lon="-4.815550">
        <ele>1723.0</ele>
        <time>2018-09-16T13:10:38Z</time>
      </trkpt>
      <trkpt lat="40.299767" lon="-4.815450">
        <ele>1724.0</ele>
        <time>2018-09-16T13:10:39Z</time>
      </trkpt>
      <trkpt lat="40.299817" lon="-4.815350">
        <ele>1725.0</ele>
        <time>2018-09-16T13:10:40Z</time>
      </trkpt>
      <trkpt lat="40.299867" lon="-4.815250">
        <ele>1726.0</ele>
        <time>2018-09-16T13:10:41Z</time>
      </trkpt>
      <trkpt lat="40.299917" lon="-4.815150">
        <ele>1728.0</ele>
        <time>2018-09-16T13:10:42Z</time>
      </trkpt>
      <trkpt lat="40.299933" lon="-4.815033">
        <ele>1730.0</ele>
        <time>2018-09-16T13:10:43Z</time>
      </trkpt>
      <trkpt lat="40.299950" lon="-4.814917">
        <ele>1732.0</ele>
        <time>2018-09-16T13:10:44Z</time>
      </trkpt>
      <trkpt lat="40.299967" lon="-4.814817">
        <ele>1734.0</ele>
        <time>2018-09-16T13:10:45Z</time>
      </trkpt>
      <trkpt lat="40.299967" lon="-4.814717">
        <ele>1736.0</ele>
        <time>2018-09-16T13:10:46Z</time>
      </trkpt>
      <trkpt lat="40.299967" lon="-4.814617">
        <ele>1737.0</ele>
        <time>2018-09-16T13:10:47Z</time>
      </trkpt>
      <trkpt lat="40.299950" lon="-4.814517">
        <ele>1739.0</ele>
        <time>2018-09-16T13:10:48Z</time>
      </trkpt>
      <trkpt lat="40.299917" lon="-4.814417">
        <ele>1738.0</ele>
        <time>2018-09-16T13:10:49Z</time>
      </trkpt>
      <trkpt lat="40.299883" lon="-4.814333">
        <ele>1739.0</ele>
        <time>2018-09-16T13:10:50Z</time>
      </trkpt>
      <trkpt lat="40.299833" lon="-4.814250">
        <ele>1739.0</ele>
        <time>2018-09-16T13:10:51Z</time>
      </trkpt>
      <trkpt lat="40.299800" lon="-4.814167">
        <ele>1739.0</ele>
        <time>2018-09-16T13:10:52Z</time>
      </trkpt>
      <trkpt lat="40.299750" lon="-4.814083">
        <ele>1741.0</ele>
        <time>2018-09-16T13:10:53Z</time>
      </trkpt>
      <trkpt lat="40.299700" lon="-4.814000">
        <ele>1743.0</ele>
        <time>2018-09-16T13:10:54Z</time>
      </trkpt>
      <trkpt lat="40.299650" lon="-4.813933">
        <ele>1744.0</ele>
        <time>2018-09-16T13:10:55Z</time>
      </trkpt>
      <trkpt lat="40.299600" lon="-4.813867">
        <ele>1745.0</ele>
        <time>2018-09-16T13:10:56Z</time>
      </trkpt>
      <trkpt lat="40.299533" lon="-4.813800">
        <ele>1746.0</ele>
        <time>2018-09-16T13:10:57Z</time>
      </trkpt>
      <trkpt lat="40.299467" lon="-4.813733">
        <ele>1747.0</ele>
        <time>2018-09-16T13:10:58Z</time>
      </trkpt>
      <trkpt lat="40.299383" lon="-4.813683">
        <ele>1748.0</ele>
        <time>2018-09-16T13:10:59Z</time>
      </trkpt>
      <trkpt lat="40.299283" lon="-4.813667">
        <ele>1750.0</ele>
        <time>2018-09-16T13:11:00Z</time>
      </trkpt>
      <trkpt lat="40.299217" lon="-4.813683">
        <ele>1752.0</ele>
        <time>2018-09-16T13:11:01Z</time>
      </trkpt>
      <trkpt lat="40.299133" lon="-4.813717">
        <ele>1754.0</ele>
        <time>2018-09-16T13:11:02Z</time>
      </trkpt>
      <trkpt lat="40.299050" lon="-4.813783">
        <ele>1757.0</ele>
        <time>2018-09-16T13:11:03Z</time>
      </trkpt>
      <trkpt lat="40.298983" lon="-4.813850">
        <ele>1760.0</ele>
        <time>2018-09-16T13:11:04Z</time>
      </trkpt>
      <trkpt lat="40.298950" lon="-4.813933">
        <ele>1764.0</ele>
        <time>2018-09-16T13:11:05Z</time>
      </trkpt>
      <trkpt lat="40.298917" lon="-4.814017">
        <ele>1767.0</ele>
        <time>2018-09-16T13:11:06Z</time>
      </trkpt>
      <trkpt lat="40.298917" lon="-4.814117">
        <ele>1769.0</ele>
        <time>2018-09-16T13:11:07Z</time>
      </trkpt>
      <trkpt lat="40.298917" lon="-4.814233">
        <ele>1771.0</ele>
        <time>2018-09-16T13:11:08Z</time>
      </trkpt>
      <trkpt lat="40.298950" lon="-4.814333">
        <ele>1773.0</ele>
        <time>2018-09-16T13:11:09Z</time>
      </trkpt>
      <trkpt lat="40.299000" lon="-4.814450">
        <ele>1775.0</ele>
        <time>2018-09-16T13:11:10Z</time>
      </trkpt>
      <trkpt lat="40.299067" lon="-4.814567">
        <ele>1776.0</ele>
        <time>2018-09-16T13:11:11Z</time>
      </trkpt>
      <trkpt lat="40.299167" lon="-4.814667">
        <ele>1779.0</ele>
        <time>2018-09-16T13:11:12Z</time>
      </trkpt>
      <trkpt lat="40.299267" lon="-4.814717">
        <ele>1784.0</ele>
        <time>2018-09-16T13:11:13Z</time>
      </trkpt>
      <trkpt lat="40.299367" lon="-4.814717">
        <ele>1788.0</ele>
        <time>2018-09-16T13:11:14Z</time>
      </trkpt>
      <trkpt lat="40.299450" lon="-4.814683">
        <ele>1792.0</ele>
        <time>2018-09-16T13:11:15Z</time>
      </trkpt>
      <trkpt lat="40.299517" lon="-4.814633">
        <ele>1795.0</ele>
        <time>2018-09-16T13:11:16Z</time>
      </trkpt>
      <trkpt lat="40.299567" lon="-4.814583">
        <ele>1797.0</ele>
        <time>2018-09-16T13:11:17Z</time>
      </trkpt>
      <trkpt lat="40.299600" lon="-4.814517">
        <ele>1799.0</ele>
        <time>2018-09-16T13:11:18Z</time>
      </trkpt>
      <trkpt lat="40.299633" lon="-4.814433">
        <ele>1799.0</ele>
        <time>2018-09-16T13:11:19Z</time>
      </trkpt>
      <trkpt lat="40.299633" lon="-4.814333">
        <ele>1799.0</ele>
        <time>2018-09-16T13:11:20Z</time>
      </trkpt>
      <trkpt lat="40.299600" lon="-4.814233">
        <ele>1798.0</ele>
        <time>2018-09-16T13:11:21Z</time>
      </trkpt>
      <trkpt lat="40.299550" lon="-4.814167">
        <ele>1798.0</ele>
        <time>2018-09-16T13:11:22Z</time>
      </trkpt>
      <trkpt lat="40.299483" lon="-4.814100">
        <ele>1798.0</ele>
        <time>2018-09-16T13:11:23Z</time>
      </trkpt>
      <trkpt lat="40.299400" lon="-4.814083">
        <ele>1798.0</ele>
        <time>2018-09-16T13:11:24Z</time>
      </trkpt>
      <trkpt lat="40.299317" lon="-4.814100">
        <ele>1798.0</ele>
        <time>2018-09-16T13:11:25Z</time>
      </trkpt>
      <trkpt lat="40.299217" lon="-4.814150">
        <ele>1799.0</ele>
        <time>2018-09-16T13:11:26Z</time>
      </trkpt>
      <trkpt lat="40.299133" lon="-4.814250">
        <ele>1800.0</ele>
        <time>2018-09-16T13:11:27Z</time>
      </trkpt>
      <trkpt lat="40.299083" lon="-4.814367">
        <ele>1803.0</ele>
        <time>2018-09-16T13:11:28Z</time>
      </trkpt>
      <trkpt lat="40.299083" lon="-4.814500">
        <ele>1806.0</ele>
        <time>2018-09-16T13:11:29Z</time>
      </trkpt>
      <trkpt lat="40.299100" lon="-4.814617">
        <ele>1809.0</ele>
        <time>2018-09-16T13:11:30Z</time>
      </trkpt>
      <trkpt lat="40.299150" lon="-4.814717">
        <ele>1812.0</ele>
        <time>2018-09-16T13:11:31Z</time>
      </trkpt>
      <trkpt lat="40.299200" lon="-4.814817">
        <ele>1813.0</ele>
        <time>2018-09-16T13:11:32Z</time>
      </trkpt>
      <trkpt lat="40.299283" lon="-4.814900">
        <ele>1814.0</ele>
        <time>2018-09-16T13:11:33Z</time>
      </trkpt>
      <trkpt lat="40.299367" lon="-4.814967">
        <ele>1815.0</ele>
        <time>2018-09-16T13:11:34Z</time>
      </trkpt>
      <trkpt lat="40.299483" lon="-4.815000">
        <ele>1816.0</ele>
        <time>2018-09-16T13:11:35Z</time>
      </trkpt>
      <trkpt lat="40.299600" lon="-4.814967">
        <ele>1818.0</ele>
        <time>2018-09-16T13:11:36Z</time>
      </trkpt>
      <trkpt lat="40.299700" lon="-4.814917">
        <ele>1819.0</ele>
        <time>2018-09-16T13:11:37Z</time>
      </trkpt>
      <trkpt lat="40.299800" lon="-4.814850">
        <ele>1821.0</ele>
        <time>2018-09-16T13:11:38Z</time>
      </trkpt>
      <trkpt lat="40.299883" lon="-4.814750">
        <ele>1824.0</ele>
        <time>2018-09-16T13:11:39Z</time>
      </trkpt>
      <trkpt lat="40.299933" lon="-4.814633">
        <ele>1827.0</ele>
        <time>2018-09-16T13:11:40Z</time>
      </trkpt>
      <trkpt lat="40.299950" lon="-4.814517">
        <ele>1830.0</ele>
        <time>2018-09-16T13:11:41Z</time>
      </trkpt>
      <trkpt lat="40.299967" lon="-4.814433">
        <ele>1831.0</ele>
        <time>2018-09-16T13:11:42Z</time>
      </trkpt>
      <trkpt lat="40.299950" lon="-4.814333">
        <ele>1831.0</ele>
        <time>2018-09-16T13:11:43Z</time>
      </trkpt>
      <trkpt lat="40.299917" lon="-4.814250">
        <ele>1831.0</ele>
        <time>2018-09-16T13:11:44Z</time>
      </trkpt>
      <trkpt lat="40.299867" lon="-4.814150">
        <ele>1831.0</ele>
        <time>2018-09-16T13:11:45Z</time>
      </trkpt>
      <trkpt lat="40.299800" lon="-4.814067">
        <ele>1833.0</ele>
        <time>2018-09-16T13:11:46Z</time>
      </trkpt>
      <trkpt lat="40.299700" lon="-4.814033">
        <ele>1835.0</ele>
        <time>2018-09-16T13:11:47Z</time>
      </trkpt>
      <trkpt lat="40.299617" lon="-4.814050">
        <ele>1836.0</ele>
        <time>2018-09-16T13:11:48Z</time>
      </trkpt>
      <trkpt lat="40.299550" lon="-4.814133">
        <ele>1837.0</ele>
        <time>2018-09-16T13:11:49Z</time>
      </trkpt>
      <trkpt lat="40.299483" lon="-4.814233">
        <ele>1837.0</ele>
        <time>2018-09-16T13:11:50Z</time>
      </trkpt>
      <trkpt lat="40.299450" lon="-4.814350">
        <ele>1840.0</ele>
        <time>2018-09-16T13:11:51Z</time>
      </trkpt>
      <trkpt lat="40.299417" lon="-4.814450">
        <ele>1843.0</ele>
        <time>2018-09-16T13:11:52Z</time>
      </trkpt>
      <trkpt lat="40.299417" lon="-4.814567">
        <ele>1845.0</ele>
        <time>2018-09-16T13:11:53Z</time>
      </trkpt>
      <trkpt lat="40.299433" lon="-4.814667">
        <ele>1846.0</ele>
        <time>2018-09-16T13:11:54Z</time>
      </trkpt>
      <trkpt lat="40.299467" lon="-4.814783">
        <ele>1846.0</ele>
        <time>2018-09-16T13:11:55Z</time>
      </trkpt>
      <trkpt lat="40.299550" lon="-4.814900">
        <ele>1847.0</ele>
        <time>2018-09-16T13:11:56Z</time>
      </trkpt>
      <trkpt lat="40.299633" lon="-4.815000">
        <ele>1849.0</ele>
        <time>2018-09-16T13:11:57Z</time>
      </trkpt>
      <trkpt lat="40.299750" lon="-4.815083">
        <ele>1853.0</ele>
        <time>2018-09-16T13:11:58Z</time>
      </trkpt>
      <trkpt lat="40.299850" lon="-4.815133">
        <ele>1857.0</ele>
        <time>2018-09-16T13:11:59Z</time>
      </trkpt>
      <trkpt lat="40.299950" lon="-4.815167">
        <ele>1861.0</ele>
        <time>2018-09-16T13:12:00Z</time>
      </trkpt>
      <trkpt lat="40.300050" lon="-4.815200">
        <ele>1864.0</ele>
        <time>2018-09-16T13:12:01Z</time>
      </trkpt>
      <trkpt lat="40.300150" lon="-4.815200">
        <ele>1867.0</ele>
        <time>2018-09-16T13:12:02Z</time>
      </trkpt>
      <trkpt lat="40.300250" lon="-4.815200">
        <ele>1871.0</ele>
        <time>2018-09-16T13:12:03Z</time>
      </trkpt>
      <trkpt lat="40.300350" lon="-4.815183">
        <ele>1875.0</ele>
        <time>2018-09-16T13:12:04Z</time>
      </trkpt>
      <trkpt lat="40.300450" lon="-4.815183">
        <ele>1878.0</ele>
        <time>2018-09-16T13:12:05Z</time>
      </trkpt>
      <trkpt lat="40.300550" lon="-4.815167">
        <ele>1880.0</ele>
        <time>2018-09-16T13:12:06Z</time>
      </trkpt>
      <trkpt lat="40.300633" lon="-4.815117">
        <ele>1882.0</ele>
        <time>2018-09-16T13:12:07Z</time>
      </trkpt>
      <trkpt lat="40.300700" lon="-4.815050">
        <ele>1883.0</ele>
        <time>2018-09-16T13:12:08Z</time>
      </trkpt>
      <trkpt lat="40.300733" lon="-4.814950">
        <ele>1885.0</ele>
        <time>2018-09-16T13:12:09Z</time>
      </trkpt>
      <trkpt lat="40.300733" lon="-4.814833">
        <ele>1888.0</ele>
        <time>2018-09-16T13:12:10Z</time>
      </trkpt>
      <trkpt lat="40.300717" lon="-4.814733">
        <ele>1889.0</ele>
        <time>2018-09-16T13:12:11Z</time>
      </trkpt>
      <trkpt lat="40.300650" lon="-4.814667">
        <ele>1890.0</ele>
        <time>2018-09-16T13:12:12Z</time>
      </trkpt>
      <trkpt lat="40.300583" lon="-4.814617">
        <ele>1891.0</ele>
        <time>2018-09-16T13:12:13Z</time>
      </trkpt>
      <trkpt lat="40.300483" lon="-4.814583">
        <ele>1893.0</ele>
        <time>2018-09-16T13:12:14Z</time>
      </trkpt>
      <trkpt lat="40.300383" lon="-4.814600">
        <ele>1894.0</ele>
        <time>2018-09-16T13:12:15Z</time>
      </trkpt>
      <trkpt lat="40.300283" lon="-4.814633">
        <ele>1897.0</ele>
        <time>2018-09-16T13:12:16Z</time>
      </trkpt>
      <trkpt lat="40.300200" lon="-4.814717">
        <ele>1899.0</ele>
        <time>2018-09-16T13:12:17Z</time>
      </trkpt>
      <trkpt lat="40.300150" lon="-4.814833">
        <ele>1900.0</ele>
        <time>2018-09-16T13:12:18Z</time>
      </trkpt>
      <trkpt lat="40.300133" lon="-4.814967">
        <ele>1901.0</ele>
        <time>2018-09-16T13:12:19Z</time>
      </trkpt>
      <trkpt lat="40.300133" lon="-4.815133">
        <ele>1902.0</ele>
        <time>2018-09-16T13:12:20Z</time>
      </trkpt>
      <trkpt lat="40.300183" lon="-4.815283">
        <ele>1904.0</ele>
        <time>2018-09-16T13:12:21Z</time>
      </trkpt>
      <trkpt lat="40.300233" lon="-4.815433">
        <ele>1907.0</ele>
        <time>2018-09-16T13:12:22Z</time>
      </trkpt>
      <trkpt lat="40.300317" lon="-4.815567">
        <ele>1911.0</ele>
        <time>2018-09-16T13:12:23Z</time>
      </trkpt>
      <trkpt lat="40.300400" lon="-4.815667">
        <ele>1915.0</ele>
        <time>2018-09-16T13:12:24Z</time>
      </trkpt>
      <trkpt lat="40.300500" lon="-4.815750">
        <ele>1918.0</ele>
        <time>2018-09-16T13:12:25Z</time>
      </trkpt>
      <trkpt lat="40.300583" lon="-4.815817">
        <ele>1921.0</ele>
        <time>2018-09-16T13:12:26Z</time>
      </trkpt>
      <trkpt lat="40.300683" lon="-4.815883">
        <ele>1922.0</ele>
        <time>2018-09-16T13:12:27Z</time>
      </trkpt>
      <trkpt lat="40.300800" lon="-4.815933">
        <ele>1924.0</ele>
        <time>2018-09-16T13:12:28Z</time>
      </trkpt>
      <trkpt lat="40.300900" lon="-4.815950">
        <ele>1926.0</ele>
        <time>2018-09-16T13:12:29Z</time>
      </trkpt>
      <trkpt lat="40.301000" lon="-4.815917">
        <ele>1928.0</ele>
        <time>2018-09-16T13:12:30Z</time>
      </trkpt>
      <trkpt lat="40.301067" lon="-4.815867">
        <ele>1930.0</ele>
        <time>2018-09-16T13:12:31Z</time>
      </trkpt>
      <trkpt lat="40.301100" lon="-4.815783">
        <ele>1932.0</ele>
        <time>2018-09-16T13:12:32Z</time>
      </trkpt>
      <trkpt lat="40.301133" lon="-4.815717">
        <ele>1934.0</ele>
        <time>2018-09-16T13:12:33Z</time>
      </trkpt>
      <trkpt lat="40.301133" lon="-4.815633">
        <ele>1936.0</ele>
        <time>2018-09-16T13:12:34Z</time>
      </trkpt>
      <trkpt lat="40.301133" lon="-4.815567">
        <ele>1936.0</ele>
        <time>2018-09-16T13:12:35Z</time>
      </trkpt>
      <trkpt lat="40.301083" lon="-4.815483">
        <ele>1936.0</ele>
        <time>2018-09-16T13:12:36Z</time>
      </trkpt>
      <trkpt lat="40.301017" lon="-4.815417">
        <ele>1936.0</ele>
        <time>2018-09-16T13:12:37Z</time>
      </trkpt>
      <trkpt lat="40.300933" lon="-4.815367">
        <ele>1938.0</ele>
        <time>2018-09-16T13:12:38Z</time>
      </trkpt>
      <trkpt lat="40.300850" lon="-4.815367">
        <ele>1941.0</ele>
        <time>2018-09-16T13:12:39Z</time>
      </trkpt>
      <trkpt lat="40.300767" lon="-4.815383">
        <ele>1944.0</ele>
        <time>2018-09-16T13:12:40Z</time>
      </trkpt>
      <trkpt lat="40.300700" lon="-4.815450">
        <ele>1946.0</ele>
        <time>2018-09-16T13:12:41Z</time>
      </trkpt>
      <trkpt lat="40.300650" lon="-4.815550">
        <ele>1948.0</ele>
        <time>2018-09-16T13:12:42Z</time>
      </trkpt>
      <trkpt lat="40.300600" lon="-4.815667">
        <ele>1948.0</ele>
        <time>2018-09-16T13:12:43Z</time>
      </trkpt>
      <trkpt lat="40.300567" lon="-4.815817">
        <ele>1949.0</ele>
        <time>2018-09-16T13:12:44Z</time>
      </trkpt>
      <trkpt lat="40.300550" lon="-4.815983">
        <ele>1951.0</ele>
        <time>2018-09-16T13:12:45Z</time>
      </trkpt>
      <trkpt lat="40.300567" lon="-4.816150">
        <ele>1954.0</ele>
        <time>2018-09-16T13:12:46Z</time>
      </trkpt>
      <trkpt lat="40.300600" lon="-4.816317">
        <ele>1956.0</ele>
        <time>2018-09-16T13:12:47Z</time>
      </trkpt>
      <trkpt lat="40.300667" lon="-4.816450">
        <ele>1958.0</ele>
        <time>2018-09-16T13:12:48Z</time>
      </trkpt>
      <trkpt lat="40.300750" lon="-4.816567">
        <ele>1961.0</ele>
        <time>2018-09-16T13:12:49Z</time>
      </trkpt>
      <trkpt lat="40.300833" lon="-4.816667">
        <ele>1965.0</ele>
        <time>2018-09-16T13:12:50Z</time>
      </trkpt>
      <trkpt lat="40.300900" lon="-4.816767">
        <ele>1968.0</ele>
        <time>2018-09-16T13:12:51Z</time>
      </trkpt>
      <trkpt lat="40.300967" lon="-4.816850">
        <ele>1970.0</ele>
        <time>2018-09-16T13:12:52Z</time>
      </trkpt>
      <trkpt lat="40.301050" lon="-4.816900">
        <ele>1971.0</ele>
        <time>2018-09-16T13:12:53Z</time>
      </trkpt>
      <trkpt lat="40.301133" lon="-4.816933">
        <ele>1972.0</ele>
        <time>2018-09-16T13:12:54Z</time>
      </trkpt>
      <trkpt lat="40.301233" lon="-4.816950">
        <ele>1973.0</ele>
        <time>2018-09-16T13:12:55Z</time>
      </trkpt>
      <trkpt lat="40.301333" lon="-4.816933">
        <ele>1974.0</ele>
        <time>2018-09-16T13:12:56Z</time>
      </trkpt>
      <trkpt lat="40.301417" lon="-4.816900">
        <ele>1975.0</ele>
        <time>2018-09-16T13:12:57Z</time>
      </trkpt>
      <trkpt lat="40.301500" lon="-4.816850">
        <ele>1976.0</ele>
        <time>2018-09-16T13:12:58Z</time>
      </trkpt>
      <trkpt lat="40.301550" lon="-4.816767">
        <ele>1977.0</ele>
        <time>2018-09-16T13:12:59Z</time>
      </trkpt>
      <trkpt lat="40.301600" lon="-4.816683">
        <ele>1980.0</ele>
        <time>2018-09-16T13:13:00Z</time>
      </trkpt>
      <trkpt lat="40.301650" lon="-4.816617">
        <ele>1984.0</ele>
        <time>2018-09-16T13:13:01Z</time>
      </trkpt>
      <trkpt lat="40.301683" lon="-4.816550">
        <ele>1987.0</ele>
        <time>2018-09-16T13:13:02Z</time>
      </trkpt>
      <trkpt lat="40.301700" lon="-4.816500">
        <ele>1989.0</ele>
        <time>2018-09-16T13:13:03Z</time>
      </trkpt>
      <trkpt lat="40.301717" lon="-4.816433">
        <ele>1990.0</ele>
        <time>2018-09-16T13:13:04Z</time>
      </trkpt>
      <trkpt lat="40.301717" lon="-4.816350">
        <ele>1991.0</ele>
        <time>2018-09-16T13:13:05Z</time>
      </trkpt>
      <trkpt lat="40.301700" lon="-4.816283">
        <ele>1991.0</ele>
        <time>2018-09-16T13:13:06Z</time>
      </trkpt>
      <trkpt lat="40.301700" lon="-4.816200">
        <ele>1992.0</ele>
        <time>2018-09-16T13:13:07Z</time>
      </trkpt>
      <trkpt lat="40.301667" lon="-4.816133">
        <ele>1994.0</ele>
        <time>2018-09-16T13:13:08Z</time>
      </trkpt>
      <trkpt lat="40.301633" lon="-4.816067">
        <ele>1995.0</ele>
        <time>2018-09-16T13:13:09Z</time>
      </trkpt>
      <trkpt lat="40.301583" lon="-4.816017">
        <ele>1996.0</ele>
        <time>2018-09-16T13:13:10Z</time>
      </trkpt>
      <trkpt lat="40.301517" lon="-4.815983">
        <ele>1998.0</ele>
        <time>2018-09-16T13:13:11Z</time>
      </trkpt>
      <trkpt lat="40.301450" lon="-4.815950">
        <ele>2000.0</ele>
        <time>2018-09-16T13:13:12Z</time>
      </trkpt>
      <trkpt lat="40.301383" lon="-4.815933">
        <ele>2002.0</ele>
        <time>2018-09-16T13:13:13Z</time>
      </trkpt>
      <trkpt lat="40.301317" lon="-4.815933">
        <ele>2004.0</ele>
        <time>2018-09-16T13:13:14Z</time>
      </trkpt>
      <trkpt lat="40.301250" lon="-4.815967">
        <ele>2005.0</ele>
        <time>2018-09-16T13:13:15Z</time>
      </trkpt>
      <trkpt lat="40.301167" lon="-4.816017">
        <ele>2006.0</ele>
        <time>2018-09-16T13:13:16Z</time>
      </trkpt>
      <trkpt lat="40.301083" lon="-4.816100">
        <ele>2006.0</ele>
        <time>2018-09-16T13:13:17Z</time>
      </trkpt>
      <trkpt lat="40.301017" lon="-4.816217">
        <ele>2007.0</ele>
        <time>2018-09-16T13:13:18Z</time>
      </trkpt>
      <trkpt lat="40.300933" lon="-4.816350">
        <ele>2008.0</ele>
        <time>2018-09-16T13:13:19Z</time>
      </trkpt>
      <trkpt lat="40.300883" lon="-4.816517">
        <ele>2010.0</ele>
        <time>2018-09-16T13:13:20Z</time>
      </trkpt>
      <trkpt lat="40.300850" lon="-4.816683">
        <ele>2011.0</ele>
        <time>2018-09-16T13:13:21Z</time>
      </trkpt>
      <trkpt lat="40.300850" lon="-4.816850">
        <ele>2013.0</ele>
        <time>2018-09-16T13:13:22Z</time>
      </trkpt>
      <trkpt lat="40.300883" lon="-4.817000">
        <ele>2015.0</ele>
        <time>2018-09-16T13:13:23Z</time>
      </trkpt>
      <trkpt lat="40.300933" lon="-4.817150">
        <ele>2018.0</ele>
        <time>2018-09-16T13:13:24Z</time>
      </trkpt>
      <trkpt lat="40.301000" lon="-4.817267">
        <ele>2020.0</ele>
        <time>2018-09-16T13:13:25Z</time>
      </trkpt>
      <trkpt lat="40.301083" lon="-4.817350">
        <ele>2022.0</ele>
        <time>2018-09-16T13:13:26Z</time>
      </trkpt>
      <trkpt lat="40.301167" lon="-4.817417">
        <ele>2023.0</ele>
        <time>2018-09-16T13:13:27Z</time>
      </trkpt>
      <trkpt lat="40.301250" lon="-4.817433">
        <ele>2024.0</ele>
        <time>2018-09-16T13:13:28Z</time>
      </trkpt>
      <trkpt lat="40.301350" lon="-4.817433">
        <ele>2026.0</ele>
        <time>2018-09-16T13:13:29Z</time>
      </trkpt>
      <trkpt lat="40.301433" lon="-4.817433">
        <ele>2027.0</ele>
        <time>2018-09-16T13:13:30Z</time>
      </trkpt>
      <trkpt lat="40.301517" lon="-4.817400">
        <ele>2028.0</ele>
        <time>2018-09-16T13:13:31Z</time>
      </trkpt>
      <trkpt lat="40.301600" lon="-4.817367">
        <ele>2029.0</ele>
        <time>2018-09-16T13:13:32Z</time>
      </trkpt>
      <trkpt lat="40.301667" lon="-4.817317">
        <ele>2030.0</ele>
        <time>2018-09-16T13:13:33Z</time>
      </trkpt>
      <trkpt lat="40.301700" lon="-4.817250">
        <ele>2031.0</ele>
        <time>2018-09-16T13:13:34Z</time>
      </trkpt>
      <trkpt lat="40.301733" lon="-4.817167">
        <ele>2033.0</ele>
        <time>2018-09-16T13:13:35Z</time>
      </trkpt>
      <trkpt lat="40.301750" lon="-4.817083">
        <ele>2034.0</ele>
        <time>2018-09-16T13:13:36Z</time>
      </trkpt>
      <trkpt lat="40.301783" lon="-4.817000">
        <ele>2035.0</ele>
        <time>2018-09-16T13:13:37Z</time>
      </trkpt>
      <trkpt lat="40.301783" lon="-4.816917">
        <ele>2037.0</ele>
        <time>2018-09-16T13:13:38Z</time>
      </trkpt>
      <trkpt lat="40.301767" lon="-4.816833">
        <ele>2039.0</ele>
        <time>2018-09-16T13:13:39Z</time>
      </trkpt>
      <trkpt lat="40.301733" lon="-4.816733">
        <ele>2039.0</ele>
        <time>2018-09-16T13:13:40Z</time>
      </trkpt>
      <trkpt lat="40.301683" lon="-4.816650">
        <ele>2041.0</ele>
        <time>2018-09-16T13:13:41Z</time>
      </trkpt>
      <trkpt lat="40.301617" lon="-4.816583">
        <ele>2044.0</ele>
        <time>2018-09-16T13:13:42Z</time>
      </trkpt>
      <trkpt lat="40.301550" lon="-4.816533">
        <ele>2047.0</ele>
        <time>2018-09-16T13:13:43Z</time>
      </trkpt>
      <trkpt lat="40.301483" lon="-4.816500">
        <ele>2049.0</ele>
        <time>2018-09-16T13:13:44Z</time>
      </trkpt>
      <trkpt lat="40.301417" lon="-4.816467">
        <ele>2052.0</ele>
        <time>2018-09-16T13:13:45Z</time>
      </trkpt>
      <trkpt lat="40.301333" lon="-4.816433">
        <ele>2054.0</ele>
        <time>2018-09-16T13:13:46Z</time>
      </trkpt>
      <trkpt lat="40.301250" lon="-4.816417">
        <ele>2056.0</ele>
        <time>2018-09-16T13:13:47Z</time>
      </trkpt>
      <trkpt lat="40.301150" lon="-4.816433">
        <ele>2058.0</ele>
        <time>2018-09-16T13:13:48Z</time>
      </trkpt>
      <trkpt lat="40.301050" lon="-4.816483">
        <ele>2060.0</ele>
        <time>2018-09-16T13:13:49Z</time>
      </trkpt>
      <trkpt lat="40.300967" lon="-4.816550">
        <ele>2063.0</ele>
        <time>2018-09-16T13:13:50Z</time>
      </trkpt>
      <trkpt lat="40.300883" lon="-4.816650">
        <ele>2065.0</ele>
        <time>2018-09-16T13:13:51Z</time>
      </trkpt>
      <trkpt lat="40.300833" lon="-4.816767">
        <ele>2067.0</ele>
        <time>2018-09-16T13:13:52Z</time>
      </trkpt>
      <trkpt lat="40.300783" lon="-4.816900">
        <ele>2068.0</ele>
        <time>2018-09-16T13:13:53Z</time>
      </trkpt>
      <trkpt lat="40.300750" lon="-4.817033">
        <ele>2068.0</ele>
        <time>2018-09-16T13:13:54Z</time>
      </trkpt>
      <trkpt lat="40.300700" lon="-4.817167">
        <ele>2069.0</ele>
        <time>2018-09-16T13:13:55Z</time>
      </trkpt>
      <trkpt lat="40.300650" lon="-4.817317">
        <ele>2068.0</ele>
        <time>2018-09-16T13:13:56Z</time>
      </trkpt>
      <trkpt lat="40.300633" lon="-4.817483">
        <ele>2067.0</ele>
        <time>2018-09-16T13:13:57Z</time>
      </trkpt>
      <trkpt lat="40.300650" lon="-4.817667">
        <ele>2066.0</ele>
        <time>2018-09-16T13:13:58Z</time>
      </trkpt>
      <trkpt lat="40.300700" lon="-4.817833">
        <ele>2065.0</ele>
        <time>2018-09-16T13:13:59Z</time>
      </trkpt>
      <trkpt lat="40.300750" lon="-4.817983">
        <ele>2065.0</ele>
        <time>2018-09-16T13:14:00Z</time>
      </trkpt>
      <trkpt lat="40.300817" lon="-4.818117">
        <ele>2066.0</ele>
        <time>2018-09-16T13:14:01Z</time>
      </trkpt>
      <trkpt lat="40.300867" lon="-4.818233">
        <ele>2066.0</ele>
        <time>2018-09-16T13:14:02Z</time>
      </trkpt>
      <trkpt lat="40.300933" lon="-4.818350">
        <ele>2066.0</ele>
        <time>2018-09-16T13:14:03Z</time>
      </trkpt>
      <trkpt lat="40.301033" lon="-4.818433">
        <ele>2065.0</ele>
        <time>2018-09-16T13:14:04Z</time>
      </trkpt>
      <trkpt lat="40.301133" lon="-4.818467">
        <ele>2065.0</ele>
        <time>2018-09-16T13:14:05Z</time>
      </trkpt>
      <trkpt lat="40.301233" lon="-4.818467">
        <ele>2065.0</ele>
        <time>2018-09-16T13:14:06Z</time>
      </trkpt>
      <trkpt lat="40.301317" lon="-4.818417">
        <ele>2065.0</ele>
        <time>2018-09-16T13:14:07Z</time>
      </trkpt>
      <trkpt lat="40.301383" lon="-4.818350">
        <ele>2065.0</ele>
        <time>2018-09-16T13:14:08Z</time>
      </trkpt>
      <trkpt lat="40.301417" lon="-4.818283">
        <ele>2066.0</ele>
        <time>2018-09-16T13:14:09Z</time>
      </trkpt>
      <trkpt lat="40.301450" lon="-4.818200">
        <ele>2067.0</ele>
        <time>2018-09-16T13:14:10Z</time>
      </trkpt>
      <trkpt lat="40.301483" lon="-4.818117">
        <ele>2068.0</ele>
        <time>2018-09-16T13:14:11Z</time>
      </trkpt>
      <trkpt lat="40.301533" lon="-4.818050">
        <ele>2069.0</ele>
        <time>2018-09-16T13:14:12Z</time>
      </trkpt>
      <trkpt lat="40.301567" lon="-4.817967">
        <ele>2070.0</ele>
        <time>2018-09-16T13:14:13Z</time>
      </trkpt>
      <trkpt lat="40.301600" lon="-4.817883">
        <ele>2072.0</ele>
        <time>2018-09-16T13:14:14Z</time>
      </trkpt>
      <trkpt lat="40.301633" lon="-4.817817">
        <ele>2073.0</ele>
        <time>2018-09-16T13:14:15Z</time>
      </trkpt>
      <trkpt lat="40.301667" lon="-4.817767">
        <ele>2074.0</ele>
        <time>2018-09-16T13:14:16Z</time>
      </trkpt>
      <trkpt lat="40.301700" lon="-4.817700">
        <ele>2074.0</ele>
        <time>2018-09-16T13:14:17Z</time>
      </trkpt>
      <trkpt lat="40.301717" lon="-4.817617">
        <ele>2075.0</ele>
        <time>2018-09-16T13:14:18Z</time>
      </trkpt>
      <trkpt lat="40.301733" lon="-4.817517">
        <ele>2076.0</ele>
        <time>2018-09-16T13:14:19Z</time>
      </trkpt>
      <trkpt lat="40.301750" lon="-4.817433">
        <ele>2077.0</ele>
        <time>2018-09-16T13:14:20Z</time>
      </trkpt>
      <trkpt lat="40.301767" lon="-4.817333">
        <ele>2080.0</ele>
        <time>2018-09-16T13:14:21Z</time>
      </trkpt>
      <trkpt lat="40.301767" lon="-4.817233">
        <ele>2082.0</ele>
        <time>2018-09-16T13:14:22Z</time>
      </trkpt>
      <trkpt lat="40.301767" lon="-4.817150">
        <ele>2084.0</ele>
        <time>2018-09-16T13:14:23Z</time>
      </trkpt>
      <trkpt lat="40.301733" lon="-4.817067">
        <ele>2085.0</ele>
        <time>2018-09-16T13:14:24Z</time>
      </trkpt>
      <trkpt lat="40.301683" lon="-4.816983">
        <ele>2086.0</ele>
        <time>2018-09-16T13:14:25Z</time>
      </trkpt>
      <trkpt lat="40.301617" lon="-4.816933">
        <ele>2088.0</ele>
        <time>2018-09-16T13:14:26Z</time>
      </trkpt>
      <trkpt lat="40.301550" lon="-4.816883">
        <ele>2090.0</ele>
        <time>2018-09-16T13:14:27Z</time>
      </trkpt>
      <trkpt lat="40.301467" lon="-4.816850">
        <ele>2093.0</ele>
        <time>2018-09-16T13:14:28Z</time>
      </trkpt>
      <trkpt lat="40.301367" lon="-4.816850">
        <ele>2096.0</ele>
        <time>2018-09-16T13:14:29Z</time>
      </trkpt>
      <trkpt lat="40.301283" lon="-4.816850">
        <ele>2099.0</ele>
        <time>2018-09-16T13:14:30Z</time>
      </trkpt>
      <trkpt lat="40.301183" lon="-4.816883">
        <ele>2102.0</ele>
        <time>2018-09-16T13:14:31Z</time>
      </trkpt>
      <trkpt lat="40.301100" lon="-4.816950">
        <ele>2104.0</ele>
        <time>2018-09-16T13:14:32Z</time>
      </trkpt>
      <trkpt lat="40.301033" lon="-4.817033">
        <ele>2106.0</ele>
        <time>2018-09-16T13:14:33Z</time>
      </trkpt>
      <trkpt lat="40.300967" lon="-4.817150">
        <ele>2107.0</ele>
        <time>2018-09-16T13:14:34Z</time>
      </trkpt>
      <trkpt lat="40.300917" lon="-4.817300">
        <ele>2108.0</ele>
        <time>2018-09-16T13:14:35Z</time>
      </trkpt>
      <trkpt lat="40.300900" lon="-4.817467">
        <ele>2109.0</ele>
        <time>2018-09-16T13:14:36Z</time>
      </trkpt>
      <trkpt lat="40.300917" lon="-4.817633">
        <ele>2110.0</ele>
        <time>2018-09-16T13:14:37Z</time>
      </trkpt>
      <trkpt lat="40.300950" lon="-4.817767">
        <ele>2111.0</ele>
        <time>2018-09-16T13:14:38Z</time>
      </trkpt>
      <trkpt lat="40.301033" lon="-4.817900">
        <ele>2111.0</ele>
        <time>2018-09-16T13:14:39Z</time>
      </trkpt>
      <trkpt lat="40.301117" lon="-4.817983">
        <ele>2111.0</ele>
        <time>2018-09-16T13:14:40Z</time>
      </trkpt>
      <trkpt lat="40.301217" lon="-4.818050">
        <ele>2112.0</ele>
        <time>2018-09-16T13:14:41Z</time>
      </trkpt>
      <trkpt lat="40.301333" lon="-4.818083">
        <ele>2112.0</ele>
        <time>2018-09-16T13:14:42Z</time>
      </trkpt>
      <trkpt lat="40.301433" lon="-4.818067">
        <ele>2113.0</ele>
        <time>2018-09-16T13:14:43Z</time>
      </trkpt>
      <trkpt lat="40.301533" lon="-4.818017">
        <ele>2114.0</ele>
        <time>2018-09-16T13:14:44Z</time>
      </trkpt>
      <trkpt lat="40.301600" lon="-4.817950">
        <ele>2116.0</ele>
        <time>2018-09-16T13:14:45Z</time>
      </trkpt>
      <trkpt lat="40.301650" lon="-4.817883">
        <ele>2118.0</ele>
        <time>2018-09-16T13:14:46Z</time>
      </trkpt>
      <trkpt lat="40.301683" lon="-4.817800">
        <ele>2120.0</ele>
        <time>2018-09-16T13:14:47Z</time>
      </trkpt>
      <trkpt lat="40.301717" lon="-4.817733">
        <ele>2121.0</ele>
        <time>2018-09-16T13:14:48Z</time>
      </trkpt>
      <trkpt lat="40.301750" lon="-4.817667">
        <ele>2123.0</ele>
        <time>2018-09-16T13:14:49Z</time>
      </trkpt>
      <trkpt lat="40.301783" lon="-4.817583">
        <ele>2125.0</ele>
        <time>2018-09-16T13:14:50Z</time>
      </trkpt>
      <trkpt lat="40.301833" lon="-4.817517">
        <ele>2128.0</ele>
        <time>2018-09-16T13:14:51Z</time>
      </trkpt>
      <trkpt lat="40.301867" lon="-4.817450">
        <ele>2131.0</ele>
        <time>2018-09-16T13:14:52Z</time>
      </trkpt>
      <trkpt lat="40.301917" lon="-4.817383">
        <ele>2135.0</ele>
        <time>2018-09-16T13:14:53Z</time>
      </trkpt>
      <trkpt lat="40.301950" lon="-4.817333">
        <ele>2138.0</ele>
        <time>2018-09-16T13:14:54Z</time>
      </trkpt>
      <trkpt lat="40.301983" lon="-4.817300">
        <ele>2140.0</ele>
        <time>2018-09-16T13:14:55Z</time>
      </trkpt>
      <trkpt lat="40.302000" lon="-4.817250">
        <ele>2142.0</ele>
        <time>2018-09-16T13:14:56Z</time>
      </trkpt>
      <trkpt lat="40.302000" lon="-4.817183">
        <ele>2142.0</ele>
        <time>2018-09-16T13:14:57Z</time>
      </trkpt>
      <trkpt lat="40.301983" lon="-4.817117">
        <ele>2142.0</ele>
        <time>2018-09-16T13:14:58Z</time>
      </trkpt>
      <trkpt lat="40.301950" lon="-4.817050">
        <ele>2144.0</ele>
        <time>2018-09-16T13:14:59Z</time>
      </trkpt>
      <trkpt lat="40.301883" lon="-4.817000">
        <ele>2145.0</ele>
        <time>2018-09-16T13:15:00Z</time>
      </trkpt>
      <trkpt lat="40.301800" lon="-4.816983">
        <ele>2147.0</ele>
        <time>2018-09-16T13:15:01Z</time>
      </trkpt>
      <trkpt lat="40.301700" lon="-4.816983">
        <ele>2148.0</ele>
        <time>2018-09-16T13:15:02Z</time>
      </trkpt>
      <trkpt lat="40.301600" lon="-4.817017">
        <ele>2150.0</ele>
        <time>2018-09-16T13:15:03Z</time>
      </trkpt>
      <trkpt lat="40.301500" lon="-4.817067">
        <ele>2151.0</ele>
        <time>2018-09-16T13:15:04Z</time>
      </trkpt>
      <trkpt lat="40.301400" lon="-4.817167">
        <ele>2153.0</ele>
        <time>2018-09-16T13:15:05Z</time>
      </trkpt>
      <trkpt lat="40.301333" lon="-4.817283">
        <ele>2155.0</ele>
        <time>2018-09-16T13:15:06Z</time>
      </trkpt>
      <trkpt lat="40.301283" lon="-4.817433">
        <ele>2157.0</ele>
        <time>2018-09-16T13:15:07Z</time>
      </trkpt>
      <trkpt lat="40.301250" lon="-4.817583">
        <ele>2159.0</ele>
        <time>2018-09-16T13:15:08Z</time>
      </trkpt>
      <trkpt lat="40.301233" lon="-4.817733">
        <ele>2161.0</ele>
        <time>2018-09-16T13:15:09Z</time>
      </trkpt>
      <trkpt lat="40.301233" lon="-4.817900">
        <ele>2162.0</ele>
        <time>2018-09-16T13:15:10Z</time>
      </trkpt>
      <trkpt lat="40.301250" lon="-4.818050">
        <ele>2163.0</ele>
        <time>2018-09-16T13:15:11Z</time>
      </trkpt>
      <trkpt lat="40.301283" lon="-4.818217">
        <ele>2163.0</ele>
        <time>2018-09-16T13:15:12Z</time>
      </trkpt>
      <trkpt lat="40.301350" lon="-4.818350">
        <ele>2164.0</ele>
        <time>2018-09-16T13:15:13Z</time>
      </trkpt>
      <trkpt lat="40.301433" lon="-4.818483">
        <ele>2164.0</ele>
        <time>2018-09-16T13:15:14Z</time>
      </trkpt>
      <trkpt lat="40.301533" lon="-4.818567">
        <ele>2164.0</ele>
        <time>2018-09-16T13:15:15Z</time>
      </trkpt>
      <trkpt lat="40.301633" lon="-4.818600">
        <ele>2164.0</ele>
        <time>2018-09-16T13:15:16Z</time>
      </trkpt>
      <trkpt lat="40.301750" lon="-4.818600">
        <ele>2164.0</ele>
        <time>2018-09-16T13:15:17Z</time>
      </trkpt>
      <trkpt lat="40.301850" lon="-4.818567">
        <ele>2165.0</ele>
        <time>2018-09-16T13:15:18Z</time>
      </trkpt>
      <trkpt lat="40.301933" lon="-4.818517">
        <ele>2167.0</ele>
        <time>2018-09-16T13:15:19Z</time>
      </trkpt>
      <trkpt lat="40.302000" lon="-4.818450">
        <ele>2170.0</ele>
        <time>2018-09-16T13:15:20Z</time>
      </trkpt>
      <trkpt lat="40.302033" lon="-4.818383">
        <ele>2173.0</ele>
        <time>2018-09-16T13:15:21Z</time>
      </trkpt>
      <trkpt lat="40.302050" lon="-4.818300">
        <ele>2175.0</ele>
        <time>2018-09-16T13:15:22Z</time>
      </trkpt>
      <trkpt lat="40.302033" lon="-4.818233">
        <ele>2176.0</ele>
        <time>2018-09-16T13:15:23Z</time>
      </trkpt>
      <trkpt lat="40.302000" lon="-4.818183">
        <ele>2177.0</ele>
        <time>2018-09-16T13:15:24Z</time>
      </trkpt>
      <trkpt lat="40.301950" lon="-4.818133">
        <ele>2177.0</ele>
        <time>2018-09-16T13:15:25Z</time>
      </trkpt>
      <trkpt lat="40.301883" lon="-4.818083">
        <ele>2177.0</ele>
        <time>2018-09-16T13:15:26Z</time>
      </trkpt>
      <trkpt lat="40.301800" lon="-4.818050">
        <ele>2178.0</ele>
        <time>2018-09-16T13:15:27Z</time>
      </trkpt>
      <trkpt lat="40.301700" lon="-4.818017">
        <ele>2179.0</ele>
        <time>2018-09-16T13:15:28Z</time>
      </trkpt>
      <trkpt lat="40.301600" lon="-4.818017">
        <ele>2181.0</ele>
        <time>2018-09-16T13:15:29Z</time>
      </trkpt>
      <trkpt lat="40.301500" lon="-4.818050">
        <ele>2184.0</ele>
        <time>2018-09-16T13:15:30Z</time>
      </trkpt>
      <trkpt lat="40.301433" lon="-4.818083">
        <ele>2186.0</ele>
        <time>2018-09-16T13:15:31Z</time>
      </trkpt>
      <trkpt lat="40.301350" lon="-4.818133">
        <ele>2187.0</ele>
        <time>2018-09-16T13:15:32Z</time>
      </trkpt>
      <trkpt lat="40.301267" lon="-4.818200">
        <ele>2187.0</ele>
        <time>2018-09-16T13:15:33Z</time>
      </trkpt>
      <trkpt lat="40.301183" lon="-4.818283">
        <ele>2187.0</ele>
        <time>2018-09-16T13:15:34Z</time>
      </trkpt>
      <trkpt lat="40.301100" lon="-4.818383">
        <ele>2186.0</ele>
        <time>2018-09-16T13:15:35Z</time>
      </trkpt>
      <trkpt lat="40.301050" lon="-4.818500">
        <ele>2186.0</ele>
        <time>2018-09-16T13:15:36Z</time>
      </trkpt>
      <trkpt lat="40.301000" lon="-4.818633">
        <ele>2186.0</ele>
        <time>2018-09-16T13:15:37Z</time>
      </trkpt>
      <trkpt lat="40.300983" lon="-4.818783">
        <ele>2185.0</ele>
        <time>2018-09-16T13:15:38Z</time>
      </trkpt>
      <trkpt lat="40.301000" lon="-4.818933">
        <ele>2185.0</ele>
        <time>2018-09-16T13:15:39Z</time>
      </trkpt>
      <trkpt lat="40.301033" lon="-4.819083">
        <ele>2184.0</ele>
        <time>2018-09-16T13:15:40Z</time>
      </trkpt>
      <trkpt lat="40.301083" lon="-4.819217">
        <ele>2182.0</ele>
        <time>2018-09-16T13:15:41Z</time>
      </trkpt>
      <trkpt lat="40.301150" lon="-4.819350">
        <ele>2181.0</ele>
        <time>2018-09-16T13:15:42Z</time>
      </trkpt>
      <trkpt lat="40.301233" lon="-4.819467">
        <ele>2180.0</ele>
        <time>2018-09-16T13:15:43Z</time>
      </trkpt>
      <trkpt lat="40.301317" lon="-4.819550">
        <ele>2180.0</ele>
        <time>2018-09-16T13:15:44Z</time>
      </trkpt>
      <trkpt lat="40.301433" lon="-4.819617">
        <ele>2179.0</ele>
        <time>2018-09-16T13:15:45Z</time>
      </trkpt>
      <trkpt lat="40.301533" lon="-4.819667">
        <ele>2179.0</ele>
        <time>2018-09-16T13:15:46Z</time>
      </trkpt>
      <trkpt lat="40.301633" lon="-4.819683">
        <ele>2178.0</ele>
        <time>2018-09-16T13:15:47Z</time>
      </trkpt>
      <trkpt lat="40.301733" lon="-4.819683">
        <ele>2178.0</ele>
        <time>2018-09-16T13:15:48Z</time>
      </trkpt>
      <trkpt lat="40.301833" lon="-4.819667">
        <ele>2179.0</ele>
        <time>2018-09-16T13:15:49Z</time>
      </trkpt>
      <trkpt lat="40.301917" lon="-4.819650">
        <ele>2180.0</ele>
        <time>2018-09-16T13:15:50Z</time>
      </trkpt>
      <trkpt lat="40.301983" lon="-4.819650">
        <ele>2182.0</ele>
        <time>2018-09-16T13:15:51Z</time>
      </trkpt>
      <trkpt lat="40.302067" lon="-4.819650">
        <ele>2182.0</ele>
        <time>2018-09-16T13:15:52Z</time>
      </trkpt>
      <trkpt lat="40.302133" lon="-4.819667">
        <ele>2182.0</ele>
        <time>2018-09-16T13:15:53Z</time>
      </trkpt>
      <trkpt lat="40.302217" lon="-4.819667">
        <ele>2182.0</ele>
        <time>2018-09-16T13:15:54Z</time>
      </trkpt>
      <trkpt lat="40.302300" lon="-4.819650">
        <ele>2182.0</ele>
        <time>2018-09-16T13:15:55Z</time>
      </trkpt>
      <trkpt lat="40.302383" lon="-4.819633">
        <ele>2182.0</ele>
        <time>2018-09-16T13:15:56Z</time>
      </trkpt>
      <trkpt lat="40.302433" lon="-4.819617">
        <ele>2183.0</ele>
        <time>2018-09-16T13:15:57Z</time>
      </trkpt>
      <trkpt lat="40.302483" lon="-4.819583">
        <ele>2183.0</ele>
        <time>2018-09-16T13:15:58Z</time>
      </trkpt>
      <trkpt lat="40.302533" lon="-4.819550">
        <ele>2183.0</ele>
        <time>2018-09-16T13:15:59Z</time>
      </trkpt>
      <trkpt lat="40.302583" lon="-4.819517">
        <ele>2182.0</ele>
        <time>2018-09-16T13:16:00Z</time>
      </trkpt>
      <trkpt lat="40.302617" lon="-4.819467">
        <ele>2181.0</ele>
        <time>2018-09-16T13:16:01Z</time>
      </trkpt>
      <trkpt lat="40.302650" lon="-4.819400">
        <ele>2180.0</ele>
        <time>2018-09-16T13:16:02Z</time>
      </trkpt>
      <trkpt lat="40.302683" lon="-4.819317">
        <ele>2181.0</ele>
        <time>2018-09-16T13:16:03Z</time>
      </trkpt>
      <trkpt lat="40.302683" lon="-4.819233">
        <ele>2181.0</ele>
        <time>2018-09-16T13:16:04Z</time>
      </trkpt>
      <trkpt lat="40.302683" lon="-4.819167">
        <ele>2181.0</ele>
        <time>2018-09-16T13:16:05Z</time>
      </trkpt>
      <trkpt lat="40.302667" lon="-4.819083">
        <ele>2181.0</ele>
        <time>2018-09-16T13:16:06Z</time>
      </trkpt>
      <trkpt lat="40.302650" lon="-4.819017">
        <ele>2182.0</ele>
        <time>2018-09-16T13:16:07Z</time>
      </trkpt>
      <trkpt lat="40.302617" lon="-4.818967">
        <ele>2183.0</ele>
        <time>2018-09-16T13:16:08Z</time>
      </trkpt>
      <trkpt lat="40.302567" lon="-4.818917">
        <ele>2183.0</ele>
        <time>2018-09-16T13:16:09Z</time>
      </trkpt>
      <trkpt lat="40.302517" lon="-4.818867">
        <ele>2183.0</ele>
        <time>2018-09-16T13:16:10Z</time>
      </trkpt>
      <trkpt lat="40.302467" lon="-4.818800">
        <ele>2182.0</ele>
        <time>2018-09-16T13:16:11Z</time>
      </trkpt>
      <trkpt lat="40.302433" lon="-4.818733">
        <ele>2182.0</ele>
        <time>2018-09-16T13:16:12Z</time>
      </trkpt>
      <trkpt lat="40.302383" lon="-4.818667">
        <ele>2183.0</ele>
        <time>2018-09-16T13:16:13Z</time>
      </trkpt>
      <trkpt lat="40.302333" lon="-4.818600">
        <ele>2184.0</ele>
        <time>2018-09-16T13:16:14Z</time>
      </trkpt>
      <trkpt lat="40.302283" lon="-4.818567">
        <ele>2184.0</ele>
        <time>2018-09-16T13:16:15Z</time>
      </trkpt>
      <trkpt lat="40.302233" lon="-4.818517">
        <ele>2185.0</ele>
        <time>2018-09-16T13:16:16Z</time>
      </trkpt>
      <trkpt lat="40.302167" lon="-4.818467">
        <ele>2185.0</ele>
        <time>2018-09-16T13:16:17Z</time>
      </trkpt>
      <trkpt lat="40.302100" lon="-4.818400">
        <ele>2186.0</ele>
        <time>2018-09-16T13:16:18Z</time>
      </trkpt>
      <trkpt lat="40.302050" lon="-4.818317">
        <ele>2187.0</ele>
        <time>2018-09-16T13:16:19Z</time>
      </trkpt>
      <trkpt lat="40.302017" lon="-4.818233">
        <ele>2188.0</ele>
        <time>2018-09-16T13:16:20Z</time>
      </trkpt>
      <trkpt lat="40.301967" lon="-4.818183">
        <ele>2189.0</ele>
        <time>2018-09-16T13:16:21Z</time>
      </trkpt>
      <trkpt lat="40.301900" lon="-4.818167">
        <ele>2189.0</ele>
        <time>2018-09-16T13:16:22Z</time>
      </trkpt>
      <trkpt lat="40.301817" lon="-4.818167">
        <ele>2188.0</ele>
        <time>2018-09-16T13:16:23Z</time>
      </trkpt>
      <trkpt lat="40.301733" lon="-4.818217">
        <ele>2187.0</ele>
        <time>2018-09-16T13:16:24Z</time>
      </trkpt>
      <trkpt lat="40.301633" lon="-4.818283">
        <ele>2187.0</ele>
        <time>2018-09-16T13:16:25Z</time>
      </trkpt>
      <trkpt lat="40.301550" lon="-4.818400">
        <ele>2188.0</ele>
        <time>2018-09-16T13:16:26Z</time>
      </trkpt>
      <trkpt lat="40.301483" lon="-4.818533">
        <ele>2190.0</ele>
        <time>2018-09-16T13:16:27Z</time>
      </trkpt>
      <trkpt lat="40.301450" lon="-4.818683">
        <ele>2191.0</ele>
        <time>2018-09-16T13:16:28Z</time>
      </trkpt>
      <trkpt lat="40.301433" lon="-4.818850">
        <ele>2193.0</ele>
        <time>2018-09-16T13:16:29Z</time>
      </trkpt>
      <trkpt lat="40.301450" lon="-4.819033">
        <ele>2195.0</ele>
        <time>2018-09-16T13:16:30Z</time>
      </trkpt>
      <trkpt lat="40.301500" lon="-4.819183">
        <ele>2197.0</ele>
        <time>2018-09-16T13:16:31Z</time>
      </trkpt>
      <trkpt lat="40.301550" lon="-4.819300">
        <ele>2198.0</ele>
        <time>2018-09-16T13:16:32Z</time>
      </trkpt>
      <trkpt lat="40.301633" lon="-4.819383">
        <ele>2199.0</ele>
        <time>2018-09-16T13:16:33Z</time>
      </trkpt>
      <trkpt lat="40.301717" lon="-4.819467">
        <ele>2198.0</ele>
        <time>2018-09-16T13:16:34Z</time>
      </trkpt>
      <trkpt lat="40.301817" lon="-4.819500">
        <ele>2197.0</ele>
        <time>2018-09-16T13:16:35Z</time>
      </trkpt>
      <trkpt lat="40.301933" lon="-4.819517">
        <ele>2196.0</ele>
        <time>2018-09-16T13:16:36Z</time>
      </trkpt>
      <trkpt lat="40.302033" lon="-4.819483">
        <ele>2196.0</ele>
        <time>2018-09-16T13:16:37Z</time>
      </trkpt>
      <trkpt lat="40.302117" lon="-4.819433">
        <ele>2197.0</ele>
        <time>2018-09-16T13:16:38Z</time>
      </trkpt>
      <trkpt lat="40.302183" lon="-4.819350">
        <ele>2197.0</ele>
        <time>2018-09-16T13:16:39Z</time>
      </trkpt>
      <trkpt lat="40.302250" lon="-4.819267">
        <ele>2198.0</ele>
        <time>2018-09-16T13:16:40Z</time>
      </trkpt>
      <trkpt lat="40.302283" lon="-4.819200">
        <ele>2199.0</ele>
        <time>2018-09-16T13:16:41Z</time>
      </trkpt>
      <trkpt lat="40.302317" lon="-4.819117">
        <ele>2201.0</ele>
        <time>2018-09-16T13:16:42Z</time>
      </trkpt>
      <trkpt lat="40.302333" lon="-4.819033">
        <ele>2202.0</ele>
        <time>2018-09-16T13:16:43Z</time>
      </trkpt>
      <trkpt lat="40.302367" lon="-4.818967">
        <ele>2203.0</ele>
        <time>2018-09-16T13:16:44Z</time>
      </trkpt>
      <trkpt lat="40.302400" lon="-4.818917">
        <ele>2203.0</ele>
        <time>2018-09-16T13:16:45Z</time>
      </trkpt>
      <trkpt lat="40.302417" lon="-4.818833">
        <ele>2204.0</ele>
        <time>2018-09-16T13:16:46Z</time>
      </trkpt>
      <trkpt lat="40.302433" lon="-4.818767">
        <ele>2203.0</ele>
        <time>2018-09-16T13:16:47Z</time>
      </trkpt>
      <trkpt lat="40.302433" lon="-4.818683">
        <ele>2201.0</ele>
        <time>2018-09-16T13:16:48Z</time>
      </trkpt>
      <trkpt lat="40.302400" lon="-4.818600">
        <ele>2200.0</ele>
        <time>2018-09-16T13:16:49Z</time>
      </trkpt>
      <trkpt lat="40.302350" lon="-4.818517">
        <ele>2199.0</ele>
        <time>2018-09-16T13:16:50Z</time>
      </trkpt>
      <trkpt lat="40.302300" lon="-4.818467">
        <ele>2197.0</ele>
        <time>2018-09-16T13:16:51Z</time>
      </trkpt>
      <trkpt lat="40.302217" lon="-4.818417">
        <ele>2195.0</ele>
        <time>2018-09-16T13:16:52Z</time>
      </trkpt>
      <trkpt lat="40.302150" lon="-4.818383">
        <ele>2194.0</ele>
        <time>2018-09-16T13:16:53Z</time>
      </trkpt>
      <trkpt lat="40.302050" lon="-4.818367">
        <ele>2192.0</ele>
        <time>2018-09-16T13:16:54Z</time>
      </trkpt>
      <trkpt lat="40.301967" lon="-4.818350">
        <ele>2190.0</ele>
        <time>2018-09-16T13:16:55Z</time>
      </trkpt>
      <trkpt lat="40.301867" lon="-4.818367">
        <ele>2188.0</ele>
        <time>2018-09-16T13:16:56Z</time>
      </trkpt>
      <trkpt lat="40.301783" lon="-4.818367">
        <ele>2187.0</ele>
        <time>2018-09-16T13:16:57Z</time>
      </trkpt>
      <trkpt lat="40.301683" lon="-4.818367">
        <ele>2186.0</ele>
        <time>2018-09-16T13:16:58Z</time>
      </trkpt>
      <trkpt lat="40.301583" lon="-4.818367">
        <ele>2186.0</ele>
        <time>2018-09-16T13:16:59Z</time>
      </trkpt>
      <trkpt lat="40.301500" lon="-4.818317">
        <ele>2186.0</ele>
        <time>2018-09-16T13:17:00Z</time>
      </trkpt>
      <trkpt lat="40.301417" lon="-4.818283">
        <ele>2185.0</ele>
        <time>2018-09-16T13:17:01Z</time>
      </trkpt>
      <trkpt lat="40.301350" lon="-4.818250">
        <ele>2184.0</ele>
        <time>2018-09-16T13:17:02Z</time>
      </trkpt>
      <trkpt lat="40.301283" lon="-4.818217">
        <ele>2184.0</ele>
        <time>2018-09-16T13:17:03Z</time>
      </trkpt>
      <trkpt lat="40.301200" lon="-4.818183">
        <ele>2183.0</ele>
        <time>2018-09-16T13:17:04Z</time>
      </trkpt>
      <trkpt lat="40.301133" lon="-4.818150">
        <ele>2181.0</ele>
        <time>2018-09-16T13:17:05Z</time>
      </trkpt>
      <trkpt lat="40.301067" lon="-4.818100">
        <ele>2179.0</ele>
        <time>2018-09-16T13:17:06Z</time>
      </trkpt>
      <trkpt lat="40.301000" lon="-4.818033">
        <ele>2177.0</ele>
        <time>2018-09-16T13:17:07Z</time>
      </trkpt>
      <trkpt lat="40.300933" lon="-4.817983">
        <ele>2176.0</ele>
        <time>2018-09-16T13:17:08Z</time>
      </trkpt>
      <trkpt lat="40.300867" lon="-4.817933">
        <ele>2174.0</ele>
        <time>2018-09-16T13:17:09Z</time>
      </trkpt>
      <trkpt lat="40.300800" lon="-4.817883">
        <ele>2173.0</ele>
        <time>2018-09-16T13:17:10Z</time>
      </trkpt>
      <trkpt lat="40.300733" lon="-4.817817">
        <ele>2171.0</ele>
        <time>2018-09-16T13:17:11Z</time>
      </trkpt>
      <trkpt lat="40.300667" lon="-4.817750">
        <ele>2170.0</ele>
        <time>2018-09-16T13:17:12Z</time>
      </trkpt>
      <trkpt lat="40.300600" lon="-4.817683">
        <ele>2168.0</ele>
        <time>2018-09-16T13:17:13Z</time>
      </trkpt>
      <trkpt lat="40.300550" lon="-4.817617">
        <ele>2167.0</ele>
        <time>2018-09-16T13:17:14Z</time>
      </trkpt>
      <trkpt lat="40.300483" lon="-4.817550">
        <ele>2166.0</ele>
        <time>2018-09-16T13:17:15Z</time>
      </trkpt>
      <trkpt lat="40.300433" lon="-4.817467">
        <ele>2165.0</ele>
        <time>2018-09-16T13:17:16Z</time>
      </trkpt>
      <trkpt lat="40.300367" lon="-4.817400">
        <ele>2162.0</ele>
        <time>2018-09-16T13:17:17Z</time>
      </trkpt>
      <trkpt lat="40.300300" lon="-4.817317">
        <ele>2160.0</ele>
        <time>2018-09-16T13:17:18Z</time>
      </trkpt>
      <trkpt lat="40.300217" lon="-4.817250">
        <ele>2158.0</ele>
        <time>2018-09-16T13:17:19Z</time>
      </trkpt>
      <trkpt lat="40.300133" lon="-4.817183">
        <ele>2157.0</ele>
        <time>2018-09-16T13:17:20Z</time>
      </trkpt>
      <trkpt lat="40.300067" lon="-4.817117">
        <ele>2157.0</ele>
        <time>2018-09-16T13:17:21Z</time>
      </trkpt>
      <trkpt lat="40.299983" lon="-4.817067">
        <ele>2156.0</ele>
        <time>2018-09-16T13:17:22Z</time>
      </trkpt>
      <trkpt lat="40.299900" lon="-4.817017">
        <ele>2155.0</ele>
        <time>2018-09-16T13:17:23Z</time>
      </trkpt>
      <trkpt lat="40.299817" lon="-4.816967">
        <ele>2153.0</ele>
        <time>2018-09-16T13:17:24Z</time>
      </trkpt>
      <trkpt lat="40.299750" lon="-4.816900">
        <ele>2151.0</ele>
        <time>2018-09-16T13:17:25Z</time>
      </trkpt>
      <trkpt lat="40.299667" lon="-4.816833">
        <ele>2150.0</ele>
        <time>2018-09-16T13:17:26Z</time>
      </trkpt>
      <trkpt lat="40.299583" lon="-4.816767">
        <ele>2149.0</ele>
        <time>2018-09-16T13:17:27Z</time>
      </trkpt>
      <trkpt lat="40.299517" lon="-4.816717">
        <ele>2148.0</ele>
        <time>2018-09-16T13:17:28Z</time>
      </trkpt>
      <trkpt lat="40.299433" lon="-4.816650">
        <ele>2147.0</ele>
        <time>2018-09-16T13:17:29Z</time>
      </trkpt>
      <trkpt lat="40.299367" lon="-4.816600">
        <ele>2146.0</ele>
        <time>2018-09-16T13:17:30Z</time>
      </trkpt>
      <trkpt lat="40.299283" lon="-4.816533">
        <ele>2144.0</ele>
        <time>2018-09-16T13:17:31Z</time>
      </trkpt>
      <trkpt lat="40.299217" lon="-4.816467">
        <ele>2143.0</ele>
        <time>2018-09-16T13:17:32Z</time>
      </trkpt>
      <trkpt lat="40.299133" lon="-4.816400">
        <ele>2141.0</ele>
        <time>2018-09-16T13:17:33Z</time>
      </trkpt>
      <trkpt lat="40.299067" lon="-4.816317">
        <ele>2140.0</ele>
        <time>2018-09-16T13:17:34Z</time>
      </trkpt>
      <trkpt lat="40.299000" lon="-4.816250">
        <ele>2139.0</ele>
        <time>2018-09-16T13:17:35Z</time>
      </trkpt>
      <trkpt lat="40.298933" lon="-4.816183">
        <ele>2137.0</ele>
        <time>2018-09-16T13:17:36Z</time>
      </trkpt>
      <trkpt lat="40.298867" lon="-4.816100">
        <ele>2136.0</ele>
        <time>2018-09-16T13:17:37Z</time>
      </trkpt>
      <trkpt lat="40.298800" lon="-4.816033">
        <ele>2134.0</ele>
        <time>2018-09-16T13:17:38Z</time>
      </trkpt>
      <trkpt lat="40.298733" lon="-4.815950">
        <ele>2132.0</ele>
        <time>2018-09-16T13:17:39Z</time>
      </trkpt>
      <trkpt lat="40.298667" lon="-4.815883">
        <ele>2131.0</ele>
        <time>2018-09-16T13:17:40Z</time>
      </trkpt>
      <trkpt lat="40.298600" lon="-4.815800">
        <ele>2129.0</ele>
        <time>2018-09-16T13:17:41Z</time>
      </trkpt>
      <trkpt lat="40.298533" lon="-4.815717">
        <ele>2128.0</ele>
        <time>2018-09-16T13:17:42Z</time>
      </trkpt>
      <trkpt lat="40.298483" lon="-4.815633">
        <ele>2126.0</ele>
        <time>2018-09-16T13:17:43Z</time>
      </trkpt>
      <trkpt lat="40.298417" lon="-4.815550">
        <ele>2124.0</ele>
        <time>2018-09-16T13:17:44Z</time>
      </trkpt>
      <trkpt lat="40.298367" lon="-4.815467">
        <ele>2123.0</ele>
        <time>2018-09-16T13:17:45Z</time>
      </trkpt>
      <trkpt lat="40.298317" lon="-4.815383">
        <ele>2121.0</ele>
        <time>2018-09-16T13:17:46Z</time>
      </trkpt>
      <trkpt lat="40.298250" lon="-4.815300">
        <ele>2119.0</ele>
        <time>2018-09-16T13:17:47Z</time>
      </trkpt>
      <trkpt lat="40.298183" lon="-4.815233">
        <ele>2118.0</ele>
        <time>2018-09-16T13:17:48Z</time>
      </trkpt>
      <trkpt lat="40.298117" lon="-4.815150">
        <ele>2116.0</ele>
        <time>2018-09-16T13:17:49Z</time>
      </trkpt>
      <trkpt lat="40.298050" lon="-4.815083">
        <ele>2114.0</ele>
        <time>2018-09-16T13:17:50Z</time>
      </trkpt>
      <trkpt lat="40.297967" lon="-4.815017">
        <ele>2112.0</ele>
        <time>2018-09-16T13:17:51Z</time>
      </trkpt>
      <trkpt lat="40.297900" lon="-4.814950">
        <ele>2111.0</ele>
        <time>2018-09-16T13:17:52Z</time>
      </trkpt>
      <trkpt lat="40.297817" lon="-4.814900">
        <ele>2109.0</ele>
        <time>2018-09-16T13:17:53Z</time>
      </trkpt>
      <trkpt lat="40.297733" lon="-4.814833">
        <ele>2108.0</ele>
        <time>2018-09-16T13:17:54Z</time>
      </trkpt>
      <trkpt lat="40.297633" lon="-4.814783">
        <ele>2106.0</ele>
        <time>2018-09-16T13:17:55Z</time>
      </trkpt>
      <trkpt lat="40.297550" lon="-4.814750">
        <ele>2105.0</ele>
        <time>2018-09-16T13:17:56Z</time>
      </trkpt>
      <trkpt lat="40.297450" lon="-4.814700">
        <ele>2103.0</ele>
        <time>2018-09-16T13:17:57Z</time>
      </trkpt>
      <trkpt lat="40.297367" lon="-4.814667">
        <ele>2102.0</ele>
        <time>2018-09-16T13:17:58Z</time>
      </trkpt>
      <trkpt lat="40.297267" lon="-4.814633">
        <ele>2100.0</ele>
        <time>2018-09-16T13:17:59Z</time>
      </trkpt>
      <trkpt lat="40.297183" lon="-4.814600">
        <ele>2099.0</ele>
        <time>2018-09-16T13:18:00Z</time>
      </trkpt>
      <trkpt lat="40.297083" lon="-4.814567">
        <ele>2097.0</ele>
        <time>2018-09-16T13:18:01Z</time>
      </trkpt>
      <trkpt lat="40.296983" lon="-4.814533">
        <ele>2095.0</ele>
        <time>2018-09-16T13:18:02Z</time>
      </trkpt>
      <trkpt lat="40.296900" lon="-4.814483">
        <ele>2094.0</ele>
        <time>2018-09-16T13:18:03Z</time>
      </trkpt>
      <trkpt lat="40.296800" lon="-4.814450">
        <ele>2092.0</ele>
        <time>2018-09-16T13:18:04Z</time>
      </trkpt>
      <trkpt lat="40.296717" lon="-4.814400">
        <ele>2090.0</ele>
        <time>2018-09-16T13:18:05Z</time>
      </trkpt>
      <trkpt lat="40.296617" lon="-4.814350">
        <ele>2089.0</ele>
        <time>2018-09-16T13:18:06Z</time>
      </trkpt>
      <trkpt lat="40.296533" lon="-4.814317">
        <ele>2087.0</ele>
        <time>2018-09-16T13:18:07Z</time>
      </trkpt>
      <trkpt lat="40.296433" lon="-4.814283">
        <ele>2085.0</ele>
        <time>2018-09-16T13:18:08Z</time>
      </trkpt>
      <trkpt lat="40.296350" lon="-4.814250">
        <ele>2084.0</ele>
        <time>2018-09-16T13:18:09Z</time>
      </trkpt>
      <trkpt lat="40.296250" lon="-4.814200">
        <ele>2082.0</ele>
        <time>2018-09-16T13:18:10Z</time>
      </trkpt>
      <trkpt lat="40.296167" lon="-4.814167">
        <ele>2080.0</ele>
        <time>2018-09-16T13:18:11Z</time>
      </trkpt>
      <trkpt lat="40.296067" lon="-4.814117">
        <ele>2079.0</ele>
        <time>2018-09-16T13:18:12Z</time>
      </trkpt>
      <trkpt lat="40.295983" lon="-4.814067">
        <ele>2077.0</ele>
        <time>2018-09-16T13:18:13Z</time>
      </trkpt>
      <trkpt lat="40.295900" lon="-4.814033">
        <ele>2075.0</ele>
        <time>2018-09-16T13:18:14Z</time>
      </trkpt>
      <trkpt lat="40.295800" lon="-4.813983">
        <ele>2073.0</ele>
        <time>2018-09-16T13:18:15Z</time>
      </trkpt>
      <trkpt lat="40.295717" lon="-4.813950">
        <ele>2071.0</ele>
        <time>2018-09-16T13:18:16Z</time>
      </trkpt>
      <trkpt lat="40.295617" lon="-4.813917">
        <ele>2070.0</ele>
        <time>2018-09-16T13:18:17Z</time>
      </trkpt>
      <trkpt lat="40.295533" lon="-4.813850">
        <ele>2068.0</ele>
        <time>2018-09-16T13:18:18Z</time>
      </trkpt>
      <trkpt lat="40.295450" lon="-4.813800">
        <ele>2066.0</ele>
        <time>2018-09-16T13:18:19Z</time>
      </trkpt>
      <trkpt lat="40.295367" lon="-4.813733">
        <ele>2065.0</ele>
        <time>2018-09-16T13:18:20Z</time>
      </trkpt>
      <trkpt lat="40.295283" lon="-4.813683">
        <ele>2063.0</ele>
        <time>2018-09-16T13:18:21Z</time>
      </trkpt>
      <trkpt lat="40.295183" lon="-4.813650">
        <ele>2061.0</ele>
        <time>2018-09-16T13:18:22Z</time>
      </trkpt>
      <trkpt lat="40.295100" lon="-4.813617">
        <ele>2060.0</ele>
        <time>2018-09-16T13:18:23Z</time>
      </trkpt>
      <trkpt lat="40.295000" lon="-4.813583">
        <ele>2058.0</ele>
        <time>2018-09-16T13:18:24Z</time>
      </trkpt>
      <trkpt lat="40.294917" lon="-4.813550">
        <ele>2057.0</ele>
        <time>2018-09-16T13:18:25Z</time>
      </trkpt>
      <trkpt lat="40.294817" lon="-4.813517">
        <ele>2055.0</ele>
        <time>2018-09-16T13:18:26Z</time>
      </trkpt>
      <trkpt lat="40.294717" lon="-4.813483">
        <ele>2054.0</ele>
        <time>2018-09-16T13:18:27Z</time>
      </trkpt>
      <trkpt lat="40.294633" lon="-4.813450">
        <ele>2052.0</ele>
        <time>2018-09-16T13:18:28Z</time>
      </trkpt>
      <trkpt lat="40.294533" lon="-4.813433">
        <ele>2051.0</ele>
        <time>2018-09-16T13:18:29Z</time>
      </trkpt>
      <trkpt lat="40.294417" lon="-4.813417">
        <ele>2049.0</ele>
        <time>2018-09-16T13:18:30Z</time>
      </trkpt>
      <trkpt lat="40.294317" lon="-4.813417">
        <ele>2048.0</ele>
        <time>2018-09-16T13:18:31Z</time>
      </trkpt>
      <trkpt lat="40.294217" lon="-4.813400">
        <ele>2047.0</ele>
        <time>2018-09-16T13:18:32Z</time>
      </trkpt>
      <trkpt lat="40.294117" lon="-4.813400">
        <ele>2046.0</ele>
        <time>2018-09-16T13:18:33Z</time>
      </trkpt>
      <trkpt lat="40.294017" lon="-4.813383">
        <ele>2044.0</ele>
        <time>2018-09-16T13:18:34Z</time>
      </trkpt>
      <trkpt lat="40.293917" lon="-4.813367">
        <ele>2043.0</ele>
        <time>2018-09-16T13:18:35Z</time>
      </trkpt>
      <trkpt lat="40.293817" lon="-4.813350">
        <ele>2041.0</ele>
        <time>2018-09-16T13:18:36Z</time>
      </trkpt>
      <trkpt lat="40.293717" lon="-4.813317">
        <ele>2040.0</ele>
        <time>2018-09-16T13:18:37Z</time>
      </trkpt>
      <trkpt lat="40.293633" lon="-4.813283">
        <ele>2039.0</ele>
        <time>2018-09-16T13:18:38Z</time>
      </trkpt>
      <trkpt lat="40.293533" lon="-4.813250">
        <ele>2038.0</ele>
        <time>2018-09-16T13:18:39Z</time>
      </trkpt>
      <trkpt lat="40.293450" lon="-4.813200">
        <ele>2037.0</ele>
        <time>2018-09-16T13:18:40Z</time>
      </trkpt>
      <trkpt lat="40.293367" lon="-4.813150">
        <ele>2035.0</ele>
        <time>2018-09-16T13:18:41Z</time>
      </trkpt>
      <trkpt lat="40.293283" lon="-4.813117">
        <ele>2034.0</ele>
        <time>2018-09-16T13:18:42Z</time>
      </trkpt>
      <trkpt lat="40.293200" lon="-4.813067">
        <ele>2033.0</ele>
        <time>2018-09-16T13:18:43Z</time>
      </trkpt>
      <trkpt lat="40.293100" lon="-4.813017">
        <ele>2031.0</ele>
        <time>2018-09-16T13:18:44Z</time>
      </trkpt>
      <trkpt lat="40.293017" lon="-4.812983">
        <ele>2029.0</ele>
        <time>2018-09-16T13:18:45Z</time>
      </trkpt>
      <trkpt lat="40.292933" lon="-4.812933">
        <ele>2028.0</ele>
        <time>2018-09-16T13:18:46Z</time>
      </trkpt>
      <trkpt lat="40.292850" lon="-4.812900">
        <ele>2027.0</ele>
        <time>2018-09-16T13:18:47Z</time>
      </trkpt>
      <trkpt lat="40.292767" lon="-4.812850">
        <ele>2025.0</ele>
        <time>2018-09-16T13:18:48Z</time>
      </trkpt>
      <trkpt lat="40.292683" lon="-4.812817">
        <ele>2024.0</ele>
        <time>2018-09-16T13:18:49Z</time>
      </trkpt>
      <trkpt lat="40.292600" lon="-4.812767">
        <ele>2022.0</ele>
        <time>2018-09-16T13:18:50Z</time>
      </trkpt>
      <trkpt lat="40.292517" lon="-4.812733">
        <ele>2021.0</ele>
        <time>2018-09-16T13:18:51Z</time>
      </trkpt>
      <trkpt lat="40.292433" lon="-4.812683">
        <ele>2019.0</ele>
        <time>2018-09-16T13:18:52Z</time>
      </trkpt>
      <trkpt lat="40.292350" lon="-4.812650">
        <ele>2018.0</ele>
        <time>2018-09-16T13:18:53Z</time>
      </trkpt>
      <trkpt lat="40.292267" lon="-4.812600">
        <ele>2016.0</ele>
        <time>2018-09-16T13:18:54Z</time>
      </trkpt>
      <trkpt lat="40.292183" lon="-4.812550">
        <ele>2015.0</ele>
        <time>2018-09-16T13:18:55Z</time>
      </trkpt>
      <trkpt lat="40.292100" lon="-4.812500">
        <ele>2014.0</ele>
        <time>2018-09-16T13:18:56Z</time>
      </trkpt>
      <trkpt lat="40.292017" lon="-4.812450">
        <ele>2012.0</ele>
        <time>2018-09-16T13:18:57Z</time>
      </trkpt>
      <trkpt lat="40.291950" lon="-4.812400">
        <ele>2011.0</ele>
        <time>2018-09-16T13:18:58Z</time>
      </trkpt>
      <trkpt lat="40.291867" lon="-4.812350">
        <ele>2009.0</ele>
        <time>2018-09-16T13:18:59Z</time>
      </trkpt>
      <trkpt lat="40.291783" lon="-4.812300">
        <ele>2008.0</ele>
        <time>2018-09-16T13:19:00Z</time>
      </trkpt>
      <trkpt lat="40.291700" lon="-4.812233">
        <ele>2006.0</ele>
        <time>2018-09-16T13:19:01Z</time>
      </trkpt>
      <trkpt lat="40.291633" lon="-4.812183">
        <ele>2005.0</ele>
        <time>2018-09-16T13:19:02Z</time>
      </trkpt>
      <trkpt lat="40.291550" lon="-4.812117">
        <ele>2003.0</ele>
        <time>2018-09-16T13:19:03Z</time>
      </trkpt>
      <trkpt lat="40.291483" lon="-4.812050">
        <ele>2002.0</ele>
        <time>2018-09-16T13:19:04Z</time>
      </trkpt>
      <trkpt lat="40.291417" lon="-4.812000">
        <ele>2000.0</ele>
        <time>2018-09-16T13:19:05Z</time>
      </trkpt>
      <trkpt lat="40.291333" lon="-4.811933">
        <ele>1998.0</ele>
        <time>2018-09-16T13:19:06Z</time>
      </trkpt>
      <trkpt lat="40.291267" lon="-4.811867">
        <ele>1997.0</ele>
        <time>2018-09-16T13:19:07Z</time>
      </trkpt>
      <trkpt lat="40.291200" lon="-4.811800">
        <ele>1995.0</ele>
        <time>2018-09-16T13:19:08Z</time>
      </trkpt>
      <trkpt lat="40.291117" lon="-4.811733">
        <ele>1993.0</ele>
        <time>2018-09-16T13:19:09Z</time>
      </trkpt>
      <trkpt lat="40.291050" lon="-4.811667">
        <ele>1992.0</ele>
        <time>2018-09-16T13:19:10Z</time>
      </trkpt>
      <trkpt lat="40.290983" lon="-4.811600">
        <ele>1990.0</ele>
        <time>2018-09-16T13:19:11Z</time>
      </trkpt>
      <trkpt lat="40.290917" lon="-4.811533">
        <ele>1989.0</ele>
        <time>2018-09-16T13:19:12Z</time>
      </trkpt>
      <trkpt lat="40.290850" lon="-4.811467">
        <ele>1987.0</ele>
        <time>2018-09-16T13:19:13Z</time>
      </trkpt>
      <trkpt lat="40.290783" lon="-4.811400">
        <ele>1986.0</ele>
        <time>2018-09-16T13:19:14Z</time>
      </trkpt>
      <trkpt lat="40.290700" lon="-4.811333">
        <ele>1984.0</ele>
        <time>2018-09-16T13:19:15Z</time>
      </trkpt>
      <trkpt lat="40.290633" lon="-4.811283">
        <ele>1983.0</ele>
        <time>2018-09-16T13:19:16Z</time>
      </trkpt>
      <trkpt lat="40.290550" lon="-4.811217">
        <ele>1981.0</ele>
        <time>2018-09-16T13:19:17Z</time>
      </trkpt>
      <trkpt lat="40.290483" lon="-4.811150">
        <ele>1980.0</ele>
        <time>2018-09-16T13:19:18Z</time>
      </trkpt>
      <trkpt lat="40.290417" lon="-4.811100">
        <ele>1978.0</ele>
        <time>2018-09-16T13:19:19Z</time>
      </trkpt>
      <trkpt lat="40.290350" lon="-4.811033">
        <ele>1977.0</ele>
        <time>2018-09-16T13:19:20Z</time>
      </trkpt>
      <trkpt lat="40.290283" lon="-4.810967">
        <ele>1975.0</ele>
        <time>2018-09-16T13:19:21Z</time>
      </trkpt>
      <trkpt lat="40.290200" lon="-4.810900">
        <ele>1974.0</ele>
        <time>2018-09-16T13:19:22Z</time>
      </trkpt>
      <trkpt lat="40.290133" lon="-4.810833">
        <ele>1973.0</ele>
        <time>2018-09-16T13:19:23Z</time>
      </trkpt>
      <trkpt lat="40.290067" lon="-4.810783">
        <ele>1971.0</ele>
        <time>2018-09-16T13:19:24Z</time>
      </trkpt>
      <trkpt lat="40.290000" lon="-4.810717">
        <ele>1970.0</ele>
        <time>2018-09-16T13:19:25Z</time>
      </trkpt>
      <trkpt lat="40.289917" lon="-4.810667">
        <ele>1968.0</ele>
        <time>2018-09-16T13:19:26Z</time>
      </trkpt>
      <trkpt lat="40.289850" lon="-4.810600">
        <ele>1967.0</ele>
        <time>2018-09-16T13:19:27Z</time>
      </trkpt>
      <trkpt lat="40.289783" lon="-4.810533">
        <ele>1966.0</ele>
        <time>2018-09-16T13:19:28Z</time>
      </trkpt>
      <trkpt lat="40.289717" lon="-4.810483">
        <ele>1964.0</ele>
        <time>2018-09-16T13:19:29Z</time>
      </trkpt>
      <trkpt lat="40.289650" lon="-4.810417">
        <ele>1963.0</ele>
        <time>2018-09-16T13:19:30Z</time>
      </trkpt>
      <trkpt lat="40.289567" lon="-4.810367">
        <ele>1962.0</ele>
        <time>2018-09-16T13:19:31Z</time>
      </trkpt>
      <trkpt lat="40.289500" lon="-4.810300">
        <ele>1960.0</ele>
        <time>2018-09-16T13:19:32Z</time>
      </trkpt>
      <trkpt lat="40.289433" lon="-4.810250">
        <ele>1959.0</ele>
        <time>2018-09-16T13:19:33Z</time>
      </trkpt>
      <trkpt lat="40.289350" lon="-4.810183">
        <ele>1958.0</ele>
        <time>2018-09-16T13:19:34Z</time>
      </trkpt>
      <trkpt lat="40.289283" lon="-4.810117">
        <ele>1957.0</ele>
        <time>2018-09-16T13:19:35Z</time>
      </trkpt>
      <trkpt lat="40.289217" lon="-4.810050">
        <ele>1956.0</ele>
        <time>2018-09-16T13:19:36Z</time>
      </trkpt>
      <trkpt lat="40.289167" lon="-4.809983">
        <ele>1955.0</ele>
        <time>2018-09-16T13:19:37Z</time>
      </trkpt>
      <trkpt lat="40.289100" lon="-4.809900">
        <ele>1953.0</ele>
        <time>2018-09-16T13:19:38Z</time>
      </trkpt>
      <trkpt lat="40.289050" lon="-4.809833">
        <ele>1952.0</ele>
        <time>2018-09-16T13:19:39Z</time>
      </trkpt>
      <trkpt lat="40.288983" lon="-4.809750">
        <ele>1951.0</ele>
        <time>2018-09-16T13:19:40Z</time>
      </trkpt>
      <trkpt lat="40.288933" lon="-4.809667">
        <ele>1950.0</ele>
        <time>2018-09-16T13:19:41Z</time>
      </trkpt>
      <trkpt lat="40.288867" lon="-4.809600">
        <ele>1949.0</ele>
        <time>2018-09-16T13:19:42Z</time>
      </trkpt>
      <trkpt lat="40.288800" lon="-4.809533">
        <ele>1948.0</ele>
        <time>2018-09-16T13:19:43Z</time>
      </trkpt>
      <trkpt lat="40.288750" lon="-4.809467">
        <ele>1947.0</ele>
        <time>2018-09-16T13:19:44Z</time>
      </trkpt>
      <trkpt lat="40.288683" lon="-4.809400">
        <ele>1946.0</ele>
        <time>2018-09-16T13:19:45Z</time>
      </trkpt>
      <trkpt lat="40.288600" lon="-4.809333">
        <ele>1945.0</ele>
        <time>2018-09-16T13:19:46Z</time>
      </trkpt>
      <trkpt lat="40.288533" lon="-4.809267">
        <ele>1945.0</ele>
        <time>2018-09-16T13:19:47Z</time>
      </trkpt>
      <trkpt lat="40.288450" lon="-4.809217">
        <ele>1944.0</ele>
        <time>2018-09-16T13:19:48Z</time>
      </trkpt>
      <trkpt lat="40.288383" lon="-4.809183">
        <ele>1943.0</ele>
        <time>2018-09-16T13:19:49Z</time>
      </trkpt>
      <trkpt lat="40.288300" lon="-4.809133">
        <ele>1942.0</ele>
        <time>2018-09-16T13:19:50Z</time>
      </trkpt>
      <trkpt lat="40.288217" lon="-4.809083">
        <ele>1942.0</ele>
        <time>2018-09-16T13:19:51Z</time>
      </trkpt>
      <trkpt lat="40.288150" lon="-4.809033">
        <ele>1941.0</ele>
        <time>2018-09-16T13:19:52Z</time>
      </trkpt>
      <trkpt lat="40.288067" lon="-4.808983">
        <ele>1940.0</ele>
        <time>2018-09-16T13:19:53Z</time>
      </trkpt>
      <trkpt lat="40.288000" lon="-4.808917">
        <ele>1940.0</ele>
        <time>2018-09-16T13:19:54Z</time>
      </trkpt>
      <trkpt lat="40.287933" lon="-4.808867">
        <ele>1939.0</ele>
        <time>2018-09-16T13:19:55Z</time>
      </trkpt>
      <trkpt lat="40.287850" lon="-4.808800">
        <ele>1939.0</ele>
        <time>2018-09-16T13:19:56Z</time>
      </trkpt>
      <trkpt lat="40.287783" lon="-4.808733">
        <ele>1938.0</ele>
        <time>2018-09-16T13:19:57Z</time>
      </trkpt>
      <trkpt lat="40.287717" lon="-4.808683">
        <ele>1938.0</ele>
        <time>2018-09-16T13:19:58Z</time>
      </trkpt>
      <trkpt lat="40.287633" lon="-4.808617">
        <ele>1937.0</ele>
        <time>2018-09-16T13:19:59Z</time>
      </trkpt>
      <trkpt lat="40.287567" lon="-4.808550">
        <ele>1937.0</ele>
        <time>2018-09-16T13:20:00Z</time>
      </trkpt>
      <trkpt lat="40.287483" lon="-4.808500">
        <ele>1936.0</ele>
        <time>2018-09-16T13:20:01Z</time>
      </trkpt>
      <trkpt lat="40.287417" lon="-4.808433">
        <ele>1936.0</ele>
        <time>2018-09-16T13:20:02Z</time>
      </trkpt>
      <trkpt lat="40.287350" lon="-4.808367">
        <ele>1935.0</ele>
        <time>2018-09-16T13:20:03Z</time>
      </trkpt>
      <trkpt lat="40.287267" lon="-4.808317">
        <ele>1935.0</ele>
        <time>2018-09-16T13:20:04Z</time>
      </trkpt>
      <trkpt lat="40.287183" lon="-4.808250">
        <ele>1935.0</ele>
        <time>2018-09-16T13:20:05Z</time>
      </trkpt>
      <trkpt lat="40.287117" lon="-4.808200">
        <ele>1934.0</ele>
        <time>2018-09-16T13:20:06Z</time>
      </trkpt>
      <trkpt lat="40.287033" lon="-4.808150">
        <ele>1934.0</ele>
        <time>2018-09-16T13:20:07Z</time>
      </trkpt>
      <trkpt lat="40.286967" lon="-4.808083">
        <ele>1933.0</ele>
        <time>2018-09-16T13:20:08Z</time>
      </trkpt>
      <trkpt lat="40.286883" lon="-4.808033">
        <ele>1933.0</ele>
        <time>2018-09-16T13:20:09Z</time>
      </trkpt>
      <trkpt lat="40.286817" lon="-4.807967">
        <ele>1932.0</ele>
        <time>2018-09-16T13:20:10Z</time>
      </trkpt>
      <trkpt lat="40.286733" lon="-4.807917">
        <ele>1932.0</ele>
        <time>2018-09-16T13:20:11Z</time>
      </trkpt>
      <trkpt lat="40.286650" lon="-4.807850">
        <ele>1931.0</ele>
        <time>2018-09-16T13:20:12Z</time>
      </trkpt>
      <trkpt lat="40.286583" lon="-4.807783">
        <ele>1931.0</ele>
        <time>2018-09-16T13:20:13Z</time>
      </trkpt>
      <trkpt lat="40.286500" lon="-4.807733">
        <ele>1931.0</ele>
        <time>2018-09-16T13:20:14Z</time>
      </trkpt>
      <trkpt lat="40.286433" lon="-4.807667">
        <ele>1930.0</ele>
        <time>2018-09-16T13:20:15Z</time>
      </trkpt>
      <trkpt lat="40.286350" lon="-4.807617">
        <ele>1930.0</ele>
        <time>2018-09-16T13:20:16Z</time>
      </trkpt>
      <trkpt lat="40.286283" lon="-4.807550">
        <ele>1929.0</ele>
        <time>2018-09-16T13:20:17Z</time>
      </trkpt>
      <trkpt lat="40.286200" lon="-4.807500">
        <ele>1929.0</ele>
        <time>2018-09-16T13:20:18Z</time>
      </trkpt>
      <trkpt lat="40.286117" lon="-4.807450">
        <ele>1928.0</ele>
        <time>2018-09-16T13:20:19Z</time>
      </trkpt>
      <trkpt lat="40.286050" lon="-4.807383">
        <ele>1928.0</ele>
        <time>2018-09-16T13:20:20Z</time>
      </trkpt>
      <trkpt lat="40.285967" lon="-4.807333">
        <ele>1927.0</ele>
        <time>2018-09-16T13:20:21Z</time>
      </trkpt>
      <trkpt lat="40.285900" lon="-4.807267">
        <ele>1927.0</ele>
        <time>2018-09-16T13:20:22Z</time>
      </trkpt>
      <trkpt lat="40.285817" lon="-4.807217">
        <ele>1926.0</ele>
        <time>2018-09-16T13:20:23Z</time>
      </trkpt>
      <trkpt lat="40.285733" lon="-4.807167">
        <ele>1926.0</ele>
        <time>2018-09-16T13:20:24Z</time>
      </trkpt>
      <trkpt lat="40.285667" lon="-4.807100">
        <ele>1925.0</ele>
        <time>2018-09-16T13:20:25Z</time>
      </trkpt>
      <trkpt lat="40.285583" lon="-4.807050">
        <ele>1925.0</ele>
        <time>2018-09-16T13:20:26Z</time>
      </trkpt>
      <trkpt lat="40.285517" lon="-4.806983">
        <ele>1925.0</ele>
        <time>2018-09-16T13:20:27Z</time>
      </trkpt>
      <trkpt lat="40.285433" lon="-4.806933">
        <ele>1924.0</ele>
        <time>2018-09-16T13:20:28Z</time>
      </trkpt>
      <trkpt lat="40.285350" lon="-4.806883">
        <ele>1923.0</ele>
        <time>2018-09-16T13:20:29Z</time>
      </trkpt>
      <trkpt lat="40.285283" lon="-4.806817">
        <ele>1923.0</ele>
        <time>2018-09-16T13:20:30Z</time>
      </trkpt>
      <trkpt lat="40.285200" lon="-4.806767">
        <ele>1923.0</ele>
        <time>2018-09-16T13:20:31Z</time>
      </trkpt>
      <trkpt lat="40.285117" lon="-4.806717">
        <ele>1922.0</ele>
        <time>2018-09-16T13:20:32Z</time>
      </trkpt>
      <trkpt lat="40.285050" lon="-4.806650">
        <ele>1922.0</ele>
        <time>2018-09-16T13:20:33Z</time>
      </trkpt>
      <trkpt lat="40.284967" lon="-4.806600">
        <ele>1922.0</ele>
        <time>2018-09-16T13:20:34Z</time>
      </trkpt>
      <trkpt lat="40.284900" lon="-4.806550">
        <ele>1922.0</ele>
        <time>2018-09-16T13:20:35Z</time>
      </trkpt>
      <trkpt lat="40.284817" lon="-4.806483">
        <ele>1921.0</ele>
        <time>2018-09-16T13:20:36Z</time>
      </trkpt>
      <trkpt lat="40.284733" lon="-4.806433">
        <ele>1921.0</ele>
        <time>2018-09-16T13:20:37Z</time>
      </trkpt>
      <trkpt lat="40.284667" lon="-4.806367">
        <ele>1920.0</ele>
        <time>2018-09-16T13:20:38Z</time>
      </trkpt>
      <trkpt lat="40.284583" lon="-4.806317">
        <ele>1920.0</ele>
        <time>2018-09-16T13:20:39Z</time>
      </trkpt>
      <trkpt lat="40.284517" lon="-4.806250">
        <ele>1920.0</ele>
        <time>2018-09-16T13:20:40Z</time>
      </trkpt>
      <trkpt lat="40.284433" lon="-4.806200">
        <ele>1919.0</ele>
        <time>2018-09-16T13:20:41Z</time>
      </trkpt>
      <trkpt lat="40.284350" lon="-4.806150">
        <ele>1919.0</ele>
        <time>2018-09-16T13:20:42Z</time>
      </trkpt>
      <trkpt lat="40.284283" lon="-4.806083">
        <ele>1918.0</ele>
        <time>2018-09-16T13:20:43Z</time>
      </trkpt>
      <trkpt lat="40.284200" lon="-4.806033">
        <ele>1918.0</ele>
        <time>2018-09-16T13:20:44Z</time>
      </trkpt>
      <trkpt lat="40.284117" lon="-4.805983">
        <ele>1917.0</ele>
        <time>2018-09-16T13:20:45Z</time>
      </trkpt>
      <trkpt lat="40.284050" lon="-4.805917">
        <ele>1916.0</ele>
        <time>2018-09-16T13:20:46Z</time>
      </trkpt>
      <trkpt lat="40.283967" lon="-4.805867">
        <ele>1916.0</ele>
        <time>2018-09-16T13:20:47Z</time>
      </trkpt>
      <trkpt lat="40.283883" lon="-4.805817">
        <ele>1915.0</ele>
        <time>2018-09-16T13:20:48Z</time>
      </trkpt>
      <trkpt lat="40.283800" lon="-4.805767">
        <ele>1915.0</ele>
        <time>2018-09-16T13:20:49Z</time>
      </trkpt>
      <trkpt lat="40.283717" lon="-4.805717">
        <ele>1914.0</ele>
        <time>2018-09-16T13:20:50Z</time>
      </trkpt>
      <trkpt lat="40.283633" lon="-4.805667">
        <ele>1914.0</ele>
        <time>2018-09-16T13:20:51Z</time>
      </trkpt>
      <trkpt lat="40.283550" lon="-4.805617">
        <ele>1913.0</ele>
        <time>2018-09-16T13:20:52Z</time>
      </trkpt>
      <trkpt lat="40.283483" lon="-4.805567">
        <ele>1913.0</ele>
        <time>2018-09-16T13:20:53Z</time>
      </trkpt>
      <trkpt lat="40.283400" lon="-4.805517">
        <ele>1912.0</ele>
        <time>2018-09-16T13:20:54Z</time>
      </trkpt>
      <trkpt lat="40.283317" lon="-4.805450">
        <ele>1911.0</ele>
        <time>2018-09-16T13:20:55Z</time>
      </trkpt>
      <trkpt lat="40.283233" lon="-4.805400">
        <ele>1911.0</ele>
        <time>2018-09-16T13:20:56Z</time>
      </trkpt>
      <trkpt lat="40.283150" lon="-4.805333">
        <ele>1910.0</ele>
        <time>2018-09-16T13:20:57Z</time>
      </trkpt>
      <trkpt lat="40.283083" lon="-4.805283">
        <ele>1910.0</ele>
        <time>2018-09-16T13:20:58Z</time>
      </trkpt>
      <trkpt lat="40.283000" lon="-4.805217">
        <ele>1909.0</ele>
        <time>2018-09-16T13:20:59Z</time>
      </trkpt>
      <trkpt lat="40.282933" lon="-4.805150">
        <ele>1908.0</ele>
        <time>2018-09-16T13:21:00Z</time>
      </trkpt>
      <trkpt lat="40.282850" lon="-4.805100">
        <ele>1908.0</ele>
        <time>2018-09-16T13:21:01Z</time>
      </trkpt>
      <trkpt lat="40.282783" lon="-4.805033">
        <ele>1907.0</ele>
        <time>2018-09-16T13:21:02Z</time>
      </trkpt>
      <trkpt lat="40.282700" lon="-4.804983">
        <ele>1907.0</ele>
        <time>2018-09-16T13:21:03Z</time>
      </trkpt>
      <trkpt lat="40.282617" lon="-4.804933">
        <ele>1907.0</ele>
        <time>2018-09-16T13:21:04Z</time>
      </trkpt>
      <trkpt lat="40.282533" lon="-4.804883">
        <ele>1906.0</ele>
        <time>2018-09-16T13:21:05Z</time>
      </trkpt>
      <trkpt lat="40.282450" lon="-4.804833">
        <ele>1905.0</ele>
        <time>2018-09-16T13:21:06Z</time>
      </trkpt>
      <trkpt lat="40.282367" lon="-4.804783">
        <ele>1905.0</ele>
        <time>2018-09-16T13:21:07Z</time>
      </trkpt>
      <trkpt lat="40.282283" lon="-4.804750">
        <ele>1904.0</ele>
        <time>2018-09-16T13:21:08Z</time>
      </trkpt>
      <trkpt lat="40.282217" lon="-4.804700">
        <ele>1905.0</ele>
        <time>2018-09-16T13:21:09Z</time>
      </trkpt>
      <trkpt lat="40.282150" lon="-4.804650">
        <ele>1905.0</ele>
        <time>2018-09-16T13:21:10Z</time>
      </trkpt>
      <trkpt lat="40.282083" lon="-4.804600">
        <ele>1905.0</ele>
        <time>2018-09-16T13:21:11Z</time>
      </trkpt>
      <trkpt lat="40.282017" lon="-4.804550">
        <ele>1904.0</ele>
        <time>2018-09-16T13:21:12Z</time>
      </trkpt>
      <trkpt lat="40.281950" lon="-4.804500">
        <ele>1903.0</ele>
        <time>2018-09-16T13:21:13Z</time>
      </trkpt>
      <trkpt lat="40.281883" lon="-4.804433">
        <ele>1902.0</ele>
        <time>2018-09-16T13:21:14Z</time>
      </trkpt>
      <trkpt lat="40.281817" lon="-4.804383">
        <ele>1902.0</ele>
        <time>2018-09-16T13:21:15Z</time>
      </trkpt>
      <trkpt lat="40.281750" lon="-4.804333">
        <ele>1902.0</ele>
        <time>2018-09-16T13:21:16Z</time>
      </trkpt>
      <trkpt lat="40.281683" lon="-4.804283">
        <ele>1902.0</ele>
        <time>2018-09-16T13:21:17Z</time>
      </trkpt>
      <trkpt lat="40.281600" lon="-4.804233">
        <ele>1902.0</ele>
        <time>2018-09-16T13:21:18Z</time>
      </trkpt>
      <trkpt lat="40.281550" lon="-4.804183">
        <ele>1901.0</ele>
        <time>2018-09-16T13:21:19Z</time>
      </trkpt>
      <trkpt lat="40.281467" lon="-4.804133">
        <ele>1900.0</ele>
        <time>2018-09-16T13:21:20Z</time>
      </trkpt>
      <trkpt lat="40.281400" lon="-4.804067">
        <ele>1900.0</ele>
        <time>2018-09-16T13:21:21Z</time>
      </trkpt>
      <trkpt lat="40.281333" lon="-4.804017">
        <ele>1899.0</ele>
        <time>2018-09-16T13:21:22Z</time>
      </trkpt>
      <trkpt lat="40.281267" lon="-4.803983">
        <ele>1899.0</ele>
        <time>2018-09-16T13:21:23Z</time>
      </trkpt>
      <trkpt lat="40.281200" lon="-4.803933">
        <ele>1899.0</ele>
        <time>2018-09-16T13:21:24Z</time>
      </trkpt>
      <trkpt lat="40.281133" lon="-4.803867">
        <ele>1899.0</ele>
        <time>2018-09-16T13:21:25Z</time>
      </trkpt>
      <trkpt lat="40.281067" lon="-4.803817">
        <ele>1898.0</ele>
        <time>2018-09-16T13:21:26Z</time>
      </trkpt>
      <trkpt lat="40.281017" lon="-4.803750">
        <ele>1897.0</ele>
        <time>2018-09-16T13:21:27Z</time>
      </trkpt>
      <trkpt lat="40.280950" lon="-4.803683">
        <ele>1896.0</ele>
        <time>2018-09-16T13:21:28Z</time>
      </trkpt>
      <trkpt lat="40.280883" lon="-4.803617">
        <ele>1895.0</ele>
        <time>2018-09-16T13:21:29Z</time>
      </trkpt>
      <trkpt lat="40.280817" lon="-4.803533">
        <ele>1894.0</ele>
        <time>2018-09-16T13:21:30Z</time>
      </trkpt>
      <trkpt lat="40.280750" lon="-4.803467">
        <ele>1893.0</ele>
        <time>2018-09-16T13:21:31Z</time>
      </trkpt>
      <trkpt lat="40.280683" lon="-4.803383">
        <ele>1893.0</ele>
        <time>2018-09-16T13:21:32Z</time>
      </trkpt>
      <trkpt lat="40.280633" lon="-4.803317">
        <ele>1893.0</ele>
        <time>2018-09-16T13:21:33Z</time>
      </trkpt>
      <trkpt lat="40.280567" lon="-4.803250">
        <ele>1892.0</ele>
        <time>2018-09-16T13:21:34Z</time>
      </trkpt>
      <trkpt lat="40.280517" lon="-4.803167">
        <ele>1892.0</ele>
        <time>2018-09-16T13:21:35Z</time>
      </trkpt>
      <trkpt lat="40.280450" lon="-4.803100">
        <ele>1891.0</ele>
        <time>2018-09-16T13:21:36Z</time>
      </trkpt>
      <trkpt lat="40.280383" lon="-4.803033">
        <ele>1890.0</ele>
        <time>2018-09-16T13:21:37Z</time>
      </trkpt>
      <trkpt lat="40.280333" lon="-4.802950">
        <ele>1889.0</ele>
        <time>2018-09-16T13:21:38Z</time>
      </trkpt>
      <trkpt lat="40.280267" lon="-4.802883">
        <ele>1888.0</ele>
        <time>2018-09-16T13:21:39Z</time>
      </trkpt>
      <trkpt lat="40.280200" lon="-4.802817">
        <ele>1887.0</ele>
        <time>2018-09-16T13:21:40Z</time>
      </trkpt>
      <trkpt lat="40.280133" lon="-4.802750">
        <ele>1887.0</ele>
        <time>2018-09-16T13:21:41Z</time>
      </trkpt>
      <trkpt lat="40.280067" lon="-4.802683">
        <ele>1886.0</ele>
        <time>2018-09-16T13:21:42Z</time>
      </trkpt>
      <trkpt lat="40.280017" lon="-4.802617">
        <ele>1885.0</ele>
        <time>2018-09-16T13:21:43Z</time>
      </trkpt>
      <trkpt lat="40.279950" lon="-4.802550">
        <ele>1884.0</ele>
        <time>2018-09-16T13:21:44Z</time>
      </trkpt>
      <trkpt lat="40.279883" lon="-4.802483">
        <ele>1883.0</ele>
        <time>2018-09-16T13:21:45Z</time>
      </trkpt>
      <trkpt lat="40.279817" lon="-4.802400">
        <ele>1882.0</ele>
        <time>2018-09-16T13:21:46Z</time>
      </trkpt>
      <trkpt lat="40.279767" lon="-4.802333">
        <ele>1882.0</ele>
        <time>2018-09-16T13:21:47Z</time>
      </trkpt>
      <trkpt lat="40.279700" lon="-4.802250">
        <ele>1881.0</ele>
        <time>2018-09-16T13:21:48Z</time>
      </trkpt>
      <trkpt lat="40.279633" lon="-4.802183">
        <ele>1880.0</ele>
        <time>2018-09-16T13:21:49Z</time>
      </trkpt>
      <trkpt lat="40.279567" lon="-4.802133">
        <ele>1879.0</ele>
        <time>2018-09-16T13:21:50Z</time>
      </trkpt>
      <trkpt lat="40.279500" lon="-4.802067">
        <ele>1878.0</ele>
        <time>2018-09-16T13:21:51Z</time>
      </trkpt>
      <trkpt lat="40.279417" lon="-4.802000">
        <ele>1878.0</ele>
        <time>2018-09-16T13:21:52Z</time>
      </trkpt>
      <trkpt lat="40.279350" lon="-4.801933">
        <ele>1877.0</ele>
        <time>2018-09-16T13:21:53Z</time>
      </trkpt>
      <trkpt lat="40.279283" lon="-4.801867">
        <ele>1877.0</ele>
        <time>2018-09-16T13:21:54Z</time>
      </trkpt>
      <trkpt lat="40.279217" lon="-4.801817">
        <ele>1877.0</ele>
        <time>2018-09-16T13:21:55Z</time>
      </trkpt>
      <trkpt lat="40.279150" lon="-4.801750">
        <ele>1876.0</ele>
        <time>2018-09-16T13:21:56Z</time>
      </trkpt>
      <trkpt lat="40.279083" lon="-4.801683">
        <ele>1875.0</ele>
        <time>2018-09-16T13:21:57Z</time>
      </trkpt>
      <trkpt lat="40.279017" lon="-4.801617">
        <ele>1874.0</ele>
        <time>2018-09-16T13:21:58Z</time>
      </trkpt>
      <trkpt lat="40.278950" lon="-4.801533">
        <ele>1873.0</ele>
        <time>2018-09-16T13:21:59Z</time>
      </trkpt>
      <trkpt lat="40.278867" lon="-4.801467">
        <ele>1873.0</ele>
        <time>2018-09-16T13:22:00Z</time>
      </trkpt>
      <trkpt lat="40.278800" lon="-4.801400">
        <ele>1872.0</ele>
        <time>2018-09-16T13:22:01Z</time>
      </trkpt>
      <trkpt lat="40.278717" lon="-4.801350">
        <ele>1872.0</ele>
        <time>2018-09-16T13:22:02Z</time>
      </trkpt>
      <trkpt lat="40.278633" lon="-4.801300">
        <ele>1871.0</ele>
        <time>2018-09-16T13:22:03Z</time>
      </trkpt>
      <trkpt lat="40.278550" lon="-4.801233">
        <ele>1870.0</ele>
        <time>2018-09-16T13:22:04Z</time>
      </trkpt>
      <trkpt lat="40.278483" lon="-4.801167">
        <ele>1869.0</ele>
        <time>2018-09-16T13:22:05Z</time>
      </trkpt>
      <trkpt lat="40.278400" lon="-4.801100">
        <ele>1868.0</ele>
        <time>2018-09-16T13:22:06Z</time>
      </trkpt>
      <trkpt lat="40.278333" lon="-4.801033">
        <ele>1867.0</ele>
        <time>2018-09-16T13:22:07Z</time>
      </trkpt>
      <trkpt lat="40.278267" lon="-4.800967">
        <ele>1866.0</ele>
        <time>2018-09-16T13:22:08Z</time>
      </trkpt>
      <trkpt lat="40.278200" lon="-4.800900">
        <ele>1865.0</ele>
        <time>2018-09-16T13:22:09Z</time>
      </trkpt>
      <trkpt lat="40.278133" lon="-4.800817">
        <ele>1864.0</ele>
        <time>2018-09-16T13:22:10Z</time>
      </trkpt>
      <trkpt lat="40.278067" lon="-4.800750">
        <ele>1862.0</ele>
        <time>2018-09-16T13:22:11Z</time>
      </trkpt>
      <trkpt lat="40.278000" lon="-4.800683">
        <ele>1861.0</ele>
        <time>2018-09-16T13:22:12Z</time>
      </trkpt>
      <trkpt lat="40.277933" lon="-4.800617">
        <ele>1861.0</ele>
        <time>2018-09-16T13:22:13Z</time>
      </trkpt>
      <trkpt lat="40.277867" lon="-4.800567">
        <ele>1860.0</ele>
        <time>2018-09-16T13:22:14Z</time>
      </trkpt>
      <trkpt lat="40.277800" lon="-4.800500">
        <ele>1860.0</ele>
        <time>2018-09-16T13:22:15Z</time>
      </trkpt>
      <trkpt lat="40.277750" lon="-4.800417">
        <ele>1860.0</ele>
        <time>2018-09-16T13:22:16Z</time>
      </trkpt>
      <trkpt lat="40.277683" lon="-4.800350">
        <ele>1859.0</ele>
        <time>2018-09-16T13:22:17Z</time>
      </trkpt>
      <trkpt lat="40.277633" lon="-4.800283">
        <ele>1859.0</ele>
        <time>2018-09-16T13:22:18Z</time>
      </trkpt>
      <trkpt lat="40.277567" lon="-4.800200">
        <ele>1858.0</ele>
        <time>2018-09-16T13:22:19Z</time>
      </trkpt>
      <trkpt lat="40.277500" lon="-4.800133">
        <ele>1858.0</ele>
        <time>2018-09-16T13:22:20Z</time>
      </trkpt>
      <trkpt lat="40.277450" lon="-4.800050">
        <ele>1856.0</ele>
        <time>2018-09-16T13:22:21Z</time>
      </trkpt>
      <trkpt lat="40.277383" lon="-4.799983">
        <ele>1855.0</ele>
        <time>2018-09-16T13:22:22Z</time>
      </trkpt>
      <trkpt lat="40.277333" lon="-4.799883">
        <ele>1853.0</ele>
        <time>2018-09-16T13:22:23Z</time>
      </trkpt>
      <trkpt lat="40.277267" lon="-4.799800">
        <ele>1851.0</ele>
        <time>2018-09-16T13:22:24Z</time>
      </trkpt>
      <trkpt lat="40.277200" lon="-4.799717">
        <ele>1850.0</ele>
        <time>2018-09-16T13:22:25Z</time>
      </trkpt>
      <trkpt lat="40.277133" lon="-4.799633">
        <ele>1849.0</ele>
        <time>2018-09-16T13:22:26Z</time>
      </trkpt>
      <trkpt lat="40.277050" lon="-4.799567">
        <ele>1849.0</ele>
        <time>2018-09-16T13:22:27Z</time>
      </trkpt>
      <trkpt lat="40.276983" lon="-4.799483">
        <ele>1848.0</ele>
        <time>2018-09-16T13:22:28Z</time>
      </trkpt>
      <trkpt lat="40.276933" lon="-4.799400">
        <ele>1847.0</ele>
        <time>2018-09-16T13:22:29Z</time>
      </trkpt>
      <trkpt lat="40.276867" lon="-4.799317">
        <ele>1846.0</ele>
        <time>2018-09-16T13:22:30Z</time>
      </trkpt>
      <trkpt lat="40.276817" lon="-4.799233">
        <ele>1844.0</ele>
        <time>2018-09-16T13:22:31Z</time>
      </trkpt>
      <trkpt lat="40.276750" lon="-4.799167">
        <ele>1843.0</ele>
        <time>2018-09-16T13:22:32Z</time>
      </trkpt>
      <trkpt lat="40.276667" lon="-4.799083">
        <ele>1841.0</ele>
        <time>2018-09-16T13:22:33Z</time>
      </trkpt>
      <trkpt lat="40.276600" lon="-4.799000">
        <ele>1840.0</ele>
        <time>2018-09-16T13:22:34Z</time>
      </trkpt>
      <trkpt lat="40.276533" lon="-4.798917">
        <ele>1838.0</ele>
        <time>2018-09-16T13:22:35Z</time>
      </trkpt>
      <trkpt lat="40.276467" lon="-4.798833">
        <ele>1835.0</ele>
        <time>2018-09-16T13:22:36Z</time>
      </trkpt>
      <trkpt lat="40.276383" lon="-4.798750">
        <ele>1833.0</ele>
        <time>2018-09-16T13:22:37Z</time>
      </trkpt>
      <trkpt lat="40.276300" lon="-4.798667">
        <ele>1831.0</ele>
        <time>2018-09-16T13:22:38Z</time>
      </trkpt>
      <trkpt lat="40.276200" lon="-4.798583">
        <ele>1830.0</ele>
        <time>2018-09-16T13:22:39Z</time>
      </trkpt>
      <trkpt lat="40.276117" lon="-4.798500">
        <ele>1830.0</ele>
        <time>2018-09-16T13:22:40Z</time>
      </trkpt>
      <trkpt lat="40.276017" lon="-4.798433">
        <ele>1831.0</ele>
        <time>2018-09-16T13:22:41Z</time>
      </trkpt>
      <trkpt lat="40.275933" lon="-4.798383">
        <ele>1831.0</ele>
        <time>2018-09-16T13:22:42Z</time>
      </trkpt>
      <trkpt lat="40.275850" lon="-4.798317">
        <ele>1830.0</ele>
        <time>2018-09-16T13:22:43Z</time>
      </trkpt>
      <trkpt lat="40.275767" lon="-4.798250">
        <ele>1829.0</ele>
        <time>2018-09-16T13:22:44Z</time>
      </trkpt>
      <trkpt lat="40.275667" lon="-4.798183">
        <ele>1828.0</ele>
        <time>2018-09-16T13:22:45Z</time>
      </trkpt>
      <trkpt lat="40.275583" lon="-4.798117">
        <ele>1827.0</ele>
        <time>2018-09-16T13:22:46Z</time>
      </trkpt>
      <trkpt lat="40.275483" lon="-4.798067">
        <ele>1826.0</ele>
        <time>2018-09-16T13:22:47Z</time>
      </trkpt>
      <trkpt lat="40.275383" lon="-4.798017">
        <ele>1825.0</ele>
        <time>2018-09-16T13:22:48Z</time>
      </trkpt>
      <trkpt lat="40.275300" lon="-4.797950">
        <ele>1825.0</ele>
        <time>2018-09-16T13:22:49Z</time>
      </trkpt>
      <trkpt lat="40.275217" lon="-4.797900">
        <ele>1823.0</ele>
        <time>2018-09-16T13:22:50Z</time>
      </trkpt>
      <trkpt lat="40.275133" lon="-4.797833">
        <ele>1822.0</ele>
        <time>2018-09-16T13:22:51Z</time>
      </trkpt>
      <trkpt lat="40.275050" lon="-4.797767">
        <ele>1820.0</ele>
        <time>2018-09-16T13:22:52Z</time>
      </trkpt>
      <trkpt lat="40.274950" lon="-4.797700">
        <ele>1819.0</ele>
        <time>2018-09-16T13:22:53Z</time>
      </trkpt>
      <trkpt lat="40.274867" lon="-4.797633">
        <ele>1818.0</ele>
        <time>2018-09-16T13:22:54Z</time>
      </trkpt>
      <trkpt lat="40.274767" lon="-4.797583">
        <ele>1817.0</ele>
        <time>2018-09-16T13:22:55Z</time>
      </trkpt>
      <trkpt lat="40.274683" lon="-4.797517">
        <ele>1816.0</ele>
        <time>2018-09-16T13:22:56Z</time>
      </trkpt>
      <trkpt lat="40.274600" lon="-4.797467">
        <ele>1815.0</ele>
        <time>2018-09-16T13:22:57Z</time>
      </trkpt>
      <trkpt lat="40.274500" lon="-4.797417">
        <ele>1813.0</ele>
        <time>2018-09-16T13:22:58Z</time>
      </trkpt>
      <trkpt lat="40.274417" lon="-4.797367">
        <ele>1811.0</ele>
        <time>2018-09-16T13:22:59Z</time>
      </trkpt>
      <trkpt lat="40.274317" lon="-4.797317">
        <ele>1810.0</ele>
        <time>2018-09-16T13:23:00Z</time>
      </trkpt>
      <trkpt lat="40.274233" lon="-4.797267">
        <ele>1808.0</ele>
        <time>2018-09-16T13:23:01Z</time>
      </trkpt>
      <trkpt lat="40.274133" lon="-4.797217">
        <ele>1807.0</ele>
        <time>2018-09-16T13:23:02Z</time>
      </trkpt>
      <trkpt lat="40.274033" lon="-4.797167">
        <ele>1805.0</ele>
        <time>2018-09-16T13:23:03Z</time>
      </trkpt>
      <trkpt lat="40.273950" lon="-4.797117">
        <ele>1804.0</ele>
        <time>2018-09-16T13:23:04Z</time>
      </trkpt>
      <trkpt lat="40.273867" lon="-4.797067">
        <ele>1803.0</ele>
        <time>2018-09-16T13:23:05Z</time>
      </trkpt>
      <trkpt lat="40.273767" lon="-4.797017">
        <ele>1801.0</ele>
        <time>2018-09-16T13:23:06Z</time>
      </trkpt>
      <trkpt lat="40.273683" lon="-4.796950">
        <ele>1800.0</ele>
        <time>2018-09-16T13:23:07Z</time>
      </trkpt>
      <trkpt lat="40.273600" lon="-4.796883">
        <ele>1798.0</ele>
        <time>2018-09-16T13:23:08Z</time>
      </trkpt>
      <trkpt lat="40.273517" lon="-4.796817">
        <ele>1797.0</ele>
        <time>2018-09-16T13:23:09Z</time>
      </trkpt>
      <trkpt lat="40.273450" lon="-4.796750">
        <ele>1796.0</ele>
        <time>2018-09-16T13:23:10Z</time>
      </trkpt>
      <trkpt lat="40.273367" lon="-4.796683">
        <ele>1794.0</ele>
        <time>2018-09-16T13:23:11Z</time>
      </trkpt>
      <trkpt lat="40.273283" lon="-4.796617">
        <ele>1793.0</ele>
        <time>2018-09-16T13:23:12Z</time>
      </trkpt>
      <trkpt lat="40.273217" lon="-4.796550">
        <ele>1792.0</ele>
        <time>2018-09-16T13:23:13Z</time>
      </trkpt>
      <trkpt lat="40.273133" lon="-4.796483">
        <ele>1790.0</ele>
        <time>2018-09-16T13:23:14Z</time>
      </trkpt>
      <trkpt lat="40.273050" lon="-4.796417">
        <ele>1789.0</ele>
        <time>2018-09-16T13:23:15Z</time>
      </trkpt>
      <trkpt lat="40.272983" lon="-4.796367">
        <ele>1788.0</ele>
        <time>2018-09-16T13:23:16Z</time>
      </trkpt>
      <trkpt lat="40.272900" lon="-4.796300">
        <ele>1787.0</ele>
        <time>2018-09-16T13:23:17Z</time>
      </trkpt>
      <trkpt lat="40.272833" lon="-4.796233">
        <ele>1785.0</ele>
        <time>2018-09-16T13:23:18Z</time>
      </trkpt>
      <trkpt lat="40.272750" lon="-4.796167">
        <ele>1784.0</ele>
        <time>2018-09-16T13:23:19Z</time>
      </trkpt>
      <trkpt lat="40.272667" lon="-4.796083">
        <ele>1783.0</ele>
        <time>2018-09-16T13:23:20Z</time>
      </trkpt>
      <trkpt lat="40.272600" lon="-4.796017">
        <ele>1782.0</ele>
        <time>2018-09-16T13:23:21Z</time>
      </trkpt>
      <trkpt lat="40.272517" lon="-4.795950">
        <ele>1781.0</ele>
        <time>2018-09-16T13:23:22Z</time>
      </trkpt>
      <trkpt lat="40.272450" lon="-4.795883">
        <ele>1780.0</ele>
        <time>2018-09-16T13:23:23Z</time>
      </trkpt>
      <trkpt lat="40.272367" lon="-4.795817">
        <ele>1779.0</ele>
        <time>2018-09-16T13:23:24Z</time>
      </trkpt>
      <trkpt lat="40.272283" lon="-4.795750">
        <ele>1778.0</ele>
        <time>2018-09-16T13:23:25Z</time>
      </trkpt>
      <trkpt lat="40.272217" lon="-4.795683">
        <ele>1776.0</ele>
        <time>2018-09-16T13:23:26Z</time>
      </trkpt>
      <trkpt lat="40.272133" lon="-4.795617">
        <ele>1775.0</ele>
        <time>2018-09-16T13:23:27Z</time>
      </trkpt>
      <trkpt lat="40.272050" lon="-4.795550">
        <ele>1774.0</ele>
        <time>2018-09-16T13:23:28Z</time>
      </trkpt>
      <trkpt lat="40.271967" lon="-4.795483">
        <ele>1773.0</ele>
        <time>2018-09-16T13:23:29Z</time>
      </trkpt>
      <trkpt lat="40.271883" lon="-4.795417">
        <ele>1772.0</ele>
        <time>2018-09-16T13:23:30Z</time>
      </trkpt>
      <trkpt lat="40.271800" lon="-4.795350">
        <ele>1770.0</ele>
        <time>2018-09-16T13:23:31Z</time>
      </trkpt>
      <trkpt lat="40.271717" lon="-4.795300">
        <ele>1769.0</ele>
        <time>2018-09-16T13:23:32Z</time>
      </trkpt>
      <trkpt lat="40.271633" lon="-4.795233">
        <ele>1768.0</ele>
        <time>2018-09-16T13:23:33Z</time>
      </trkpt>
      <trkpt lat="40.271550" lon="-4.795183">
        <ele>1766.0</ele>
        <time>2018-09-16T13:23:34Z</time>
      </trkpt>
      <trkpt lat="40.271467" lon="-4.795133">
        <ele>1765.0</ele>
        <time>2018-09-16T13:23:35Z</time>
      </trkpt>
      <trkpt lat="40.271367" lon="-4.795083">
        <ele>1763.0</ele>
        <time>2018-09-16T13:23:36Z</time>
      </trkpt>
      <trkpt lat="40.271283" lon="-4.795033">
        <ele>1761.0</ele>
        <time>2018-09-16T13:23:37Z</time>
      </trkpt>
      <trkpt lat="40.271200" lon="-4.794983">
        <ele>1760.0</ele>
        <time>2018-09-16T13:23:38Z</time>
      </trkpt>
      <trkpt lat="40.271133" lon="-4.794933">
        <ele>1759.0</ele>
        <time>2018-09-16T13:23:39Z</time>
      </trkpt>
      <trkpt lat="40.271050" lon="-4.794883">
        <ele>1757.0</ele>
        <time>2018-09-16T13:23:40Z</time>
      </trkpt>
      <trkpt lat="40.270967" lon="-4.794833">
        <ele>1755.0</ele>
        <time>2018-09-16T13:23:41Z</time>
      </trkpt>
      <trkpt lat="40.270883" lon="-4.794783">
        <ele>1754.0</ele>
        <time>2018-09-16T13:23:42Z</time>
      </trkpt>
      <trkpt lat="40.270800" lon="-4.794733">
        <ele>1753.0</ele>
        <time>2018-09-16T13:23:43Z</time>
      </trkpt>
      <trkpt lat="40.270700" lon="-4.794683">
        <ele>1752.0</ele>
        <time>2018-09-16T13:23:44Z</time>
      </trkpt>
      <trkpt lat="40.270633" lon="-4.794633">
        <ele>1751.0</ele>
        <time>2018-09-16T13:23:45Z</time>
      </trkpt>
      <trkpt lat="40.270550" lon="-4.794567">
        <ele>1750.0</ele>
        <time>2018-09-16T13:23:46Z</time>
      </trkpt>
      <trkpt lat="40.270467" lon="-4.794517">
        <ele>1748.0</ele>
        <time>2018-09-16T13:23:47Z</time>
      </trkpt>
      <trkpt lat="40.270383" lon="-4.794467">
        <ele>1747.0</ele>
        <time>2018-09-16T13:23:48Z</time>
      </trkpt>
      <trkpt lat="40.270300" lon="-4.794417">
        <ele>1746.0</ele>
        <time>2018-09-16T13:23:49Z</time>
      </trkpt>
      <trkpt lat="40.270217" lon="-4.794367">
        <ele>1744.0</ele>
        <time>2018-09-16T13:23:50Z</time>
      </trkpt>
      <trkpt lat="40.270133" lon="-4.794300">
        <ele>1744.0</ele>
        <time>2018-09-16T13:23:51Z</time>
      </trkpt>
      <trkpt lat="40.270050" lon="-4.794233">
        <ele>1743.0</ele>
        <time>2018-09-16T13:23:52Z</time>
      </trkpt>
      <trkpt lat="40.269983" lon="-4.794167">
        <ele>1742.0</ele>
        <time>2018-09-16T13:23:53Z</time>
      </trkpt>
      <trkpt lat="40.269917" lon="-4.794117">
        <ele>1741.0</ele>
        <time>2018-09-16T13:23:54Z</time>
      </trkpt>
      <trkpt lat="40.269833" lon="-4.794050">
        <ele>1740.0</ele>
        <time>2018-09-16T13:23:55Z</time>
      </trkpt>
      <trkpt lat="40.269767" lon="-4.793983">
        <ele>1739.0</ele>
        <time>2018-09-16T13:23:56Z</time>
      </trkpt>
      <trkpt lat="40.269700" lon="-4.793917">
        <ele>1738.0</ele>
        <time>2018-09-16T13:23:57Z</time>
      </trkpt>
      <trkpt lat="40.269633" lon="-4.793850">
        <ele>1738.0</ele>
        <time>2018-09-16T13:23:58Z</time>
      </trkpt>
      <trkpt lat="40.269567" lon="-4.793783">
        <ele>1737.0</ele>
        <time>2018-09-16T13:23:59Z</time>
      </trkpt>
      <trkpt lat="40.269483" lon="-4.793717">
        <ele>1735.0</ele>
        <time>2018-09-16T13:24:00Z</time>
      </trkpt>
      <trkpt lat="40.269417" lon="-4.793650">
        <ele>1735.0</ele>
        <time>2018-09-16T13:24:01Z</time>
      </trkpt>
      <trkpt lat="40.269333" lon="-4.793583">
        <ele>1734.0</ele>
        <time>2018-09-16T13:24:02Z</time>
      </trkpt>
      <trkpt lat="40.269267" lon="-4.793500">
        <ele>1733.0</ele>
        <time>2018-09-16T13:24:03Z</time>
      </trkpt>
      <trkpt lat="40.269200" lon="-4.793433">
        <ele>1733.0</ele>
        <time>2018-09-16T13:24:04Z</time>
      </trkpt>
      <trkpt lat="40.269117" lon="-4.793367">
        <ele>1732.0</ele>
        <time>2018-09-16T13:24:05Z</time>
      </trkpt>
      <trkpt lat="40.269050" lon="-4.793300">
        <ele>1731.0</ele>
        <time>2018-09-16T13:24:06Z</time>
      </trkpt>
      <trkpt lat="40.268967" lon="-4.793233">
        <ele>1730.0</ele>
        <time>2018-09-16T13:24:07Z</time>
      </trkpt>
      <trkpt lat="40.268883" lon="-4.793167">
        <ele>1729.0</ele>
        <time>2018-09-16T13:24:08Z</time>
      </trkpt>
      <trkpt lat="40.268817" lon="-4.793100">
        <ele>1728.0</ele>
        <time>2018-09-16T13:24:09Z</time>
      </trkpt>
      <trkpt lat="40.268733" lon="-4.793033">
        <ele>1727.0</ele>
        <time>2018-09-16T13:24:10Z</time>
      </trkpt>
      <trkpt lat="40.268650" lon="-4.792983">
        <ele>1726.0</ele>
        <time>2018-09-16T13:24:11Z</time>
      </trkpt>
      <trkpt lat="40.268567" lon="-4.792917">
        <ele>1725.0</ele>
        <time>2018-09-16T13:24:12Z</time>
      </trkpt>
      <trkpt lat="40.268483" lon="-4.792867">
        <ele>1724.0</ele>
        <time>2018-09-16T13:24:13Z</time>
      </trkpt>
      <trkpt lat="40.268400" lon="-4.792800">
        <ele>1723.0</ele>
        <time>2018-09-16T13:24:14Z</time>
      </trkpt>
      <trkpt lat="40.268317" lon="-4.792750">
        <ele>1722.0</ele>
        <time>2018-09-16T13:24:15Z</time>
      </trkpt>
      <trkpt lat="40.268233" lon="-4.792683">
        <ele>1720.0</ele>
        <time>2018-09-16T13:24:16Z</time>
      </trkpt>
      <trkpt lat="40.268150" lon="-4.792633">
        <ele>1719.0</ele>
        <time>2018-09-16T13:24:17Z</time>
      </trkpt>
      <trkpt lat="40.268067" lon="-4.792567">
        <ele>1718.0</ele>
        <time>2018-09-16T13:24:18Z</time>
      </trkpt>
      <trkpt lat="40.267983" lon="-4.792483">
        <ele>1716.0</ele>
        <time>2018-09-16T13:24:19Z</time>
      </trkpt>
      <trkpt lat="40.267917" lon="-4.792417">
        <ele>1715.0</ele>
        <time>2018-09-16T13:24:20Z</time>
      </trkpt>
      <trkpt lat="40.267850" lon="-4.792333">
        <ele>1713.0</ele>
        <time>2018-09-16T13:24:21Z</time>
      </trkpt>
      <trkpt lat="40.267783" lon="-4.792267">
        <ele>1712.0</ele>
        <time>2018-09-16T13:24:22Z</time>
      </trkpt>
      <trkpt lat="40.267700" lon="-4.792200">
        <ele>1710.0</ele>
        <time>2018-09-16T13:24:23Z</time>
      </trkpt>
      <trkpt lat="40.267633" lon="-4.792117">
        <ele>1708.0</ele>
        <time>2018-09-16T13:24:24Z</time>
      </trkpt>
      <trkpt lat="40.267567" lon="-4.792050">
        <ele>1706.0</ele>
        <time>2018-09-16T13:24:25Z</time>
      </trkpt>
      <trkpt lat="40.267500" lon="-4.791967">
        <ele>1704.0</ele>
        <time>2018-09-16T13:24:26Z</time>
      </trkpt>
      <trkpt lat="40.267433" lon="-4.791900">
        <ele>1703.0</ele>
        <time>2018-09-16T13:24:27Z</time>
      </trkpt>
      <trkpt lat="40.267367" lon="-4.791833">
        <ele>1701.0</ele>
        <time>2018-09-16T13:24:28Z</time>
      </trkpt>
      <trkpt lat="40.267300" lon="-4.791767">
        <ele>1699.0</ele>
        <time>2018-09-16T13:24:29Z</time>
      </trkpt>
      <trkpt lat="40.267233" lon="-4.791717">
        <ele>1697.0</ele>
        <time>2018-09-16T13:24:30Z</time>
      </trkpt>
      <trkpt lat="40.267167" lon="-4.791650">
        <ele>1694.0</ele>
        <time>2018-09-16T13:24:31Z</time>
      </trkpt>
      <trkpt lat="40.267083" lon="-4.791583">
        <ele>1692.0</ele>
        <time>2018-09-16T13:24:32Z</time>
      </trkpt>
      <trkpt lat="40.267033" lon="-4.791500">
        <ele>1691.0</ele>
        <time>2018-09-16T13:24:33Z</time>
      </trkpt>
      <trkpt lat="40.266967" lon="-4.791433">
        <ele>1691.0</ele>
        <time>2018-09-16T13:24:34Z</time>
      </trkpt>
      <trkpt lat="40.266917" lon="-4.791367">
        <ele>1690.0</ele>
        <time>2018-09-16T13:24:35Z</time>
      </trkpt>
      <trkpt lat="40.266850" lon="-4.791300">
        <ele>1690.0</ele>
        <time>2018-09-16T13:24:36Z</time>
      </trkpt>
      <trkpt lat="40.266800" lon="-4.791233">
        <ele>1688.0</ele>
        <time>2018-09-16T13:24:37Z</time>
      </trkpt>
      <trkpt lat="40.266750" lon="-4.791183">
        <ele>1687.0</ele>
        <time>2018-09-16T13:24:38Z</time>
      </trkpt>
      <trkpt lat="40.266700" lon="-4.791100">
        <ele>1686.0</ele>
        <time>2018-09-16T13:24:39Z</time>
      </trkpt>
      <trkpt lat="40.266683" lon="-4.791033">
        <ele>1685.0</ele>
        <time>2018-09-16T13:24:40Z</time>
      </trkpt>
      <trkpt lat="40.266650" lon="-4.790967">
        <ele>1684.0</ele>
        <time>2018-09-16T13:24:41Z</time>
      </trkpt>
      <trkpt lat="40.266617" lon="-4.790900">
        <ele>1683.0</ele>
        <time>2018-09-16T13:24:42Z</time>
      </trkpt>
      <trkpt lat="40.266583" lon="-4.790833">
        <ele>1681.0</ele>
        <time>2018-09-16T13:24:43Z</time>
      </trkpt>
      <trkpt lat="40.266550" lon="-4.790750">
        <ele>1678.0</ele>
        <time>2018-09-16T13:24:44Z</time>
      </trkpt>
      <trkpt lat="40.266500" lon="-4.790683">
        <ele>1677.0</ele>
        <time>2018-09-16T13:24:45Z</time>
      </trkpt>
      <trkpt lat="40.266467" lon="-4.790600">
        <ele>1676.0</ele>
        <time>2018-09-16T13:24:46Z</time>
      </trkpt>
      <trkpt lat="40.266417" lon="-4.790517">
        <ele>1675.0</ele>
        <time>2018-09-16T13:24:47Z</time>
      </trkpt>
      <trkpt lat="40.266383" lon="-4.790433">
        <ele>1674.0</ele>
        <time>2018-09-16T13:24:48Z</time>
      </trkpt>
      <trkpt lat="40.266350" lon="-4.790367">
        <ele>1673.0</ele>
        <time>2018-09-16T13:24:49Z</time>
      </trkpt>
      <trkpt lat="40.266300" lon="-4.790283">
        <ele>1673.0</ele>
        <time>2018-09-16T13:24:50Z</time>
      </trkpt>
      <trkpt lat="40.266267" lon="-4.790200">
        <ele>1672.0</ele>
        <time>2018-09-16T13:24:51Z</time>
      </trkpt>
      <trkpt lat="40.266233" lon="-4.790117">
        <ele>1671.0</ele>
        <time>2018-09-16T13:24:52Z</time>
      </trkpt>
      <trkpt lat="40.266200" lon="-4.790017">
        <ele>1669.0</ele>
        <time>2018-09-16T13:24:53Z</time>
      </trkpt>
      <trkpt lat="40.266167" lon="-4.789933">
        <ele>1668.0</ele>
        <time>2018-09-16T13:24:54Z</time>
      </trkpt>
      <trkpt lat="40.266133" lon="-4.789833">
        <ele>1667.0</ele>
        <time>2018-09-16T13:24:55Z</time>
      </trkpt>
      <trkpt lat="40.266083" lon="-4.789750">
        <ele>1666.0</ele>
        <time>2018-09-16T13:24:56Z</time>
      </trkpt>
      <trkpt lat="40.266050" lon="-4.789650">
        <ele>1666.0</ele>
        <time>2018-09-16T13:24:57Z</time>
      </trkpt>
      <trkpt lat="40.266000" lon="-4.789567">
        <ele>1665.0</ele>
        <time>2018-09-16T13:24:58Z</time>
      </trkpt>
      <trkpt lat="40.265950" lon="-4.789500">
        <ele>1664.0</ele>
        <time>2018-09-16T13:24:59Z</time>
      </trkpt>
      <trkpt lat="40.265900" lon="-4.789417">
        <ele>1663.0</ele>
        <time>2018-09-16T13:25:00Z</time>
      </trkpt>
      <trkpt lat="40.265833" lon="-4.789333">
        <ele>1661.0</ele>
        <time>2018-09-16T13:25:01Z</time>
      </trkpt>
      <trkpt lat="40.265767" lon="-4.789250">
        <ele>1660.0</ele>
        <time>2018-09-16T13:25:02Z</time>
      </trkpt>
      <trkpt lat="40.265700" lon="-4.789167">
        <ele>1660.0</ele>
        <time>2018-09-16T13:25:03Z</time>
      </trkpt>
      <trkpt lat="40.265617" lon="-4.789100">
        <ele>1661.0</ele>
        <time>2018-09-16T13:25:04Z</time>
      </trkpt>
      <trkpt lat="40.265550" lon="-4.789033">
        <ele>1661.0</ele>
        <time>2018-09-16T13:25:05Z</time>
      </trkpt>
      <trkpt lat="40.265500" lon="-4.788967">
        <ele>1661.0</ele>
        <time>2018-09-16T13:25:06Z</time>
      </trkpt>
      <trkpt lat="40.265417" lon="-4.788917">
        <ele>1659.0</ele>
        <time>2018-09-16T13:25:07Z</time>
      </trkpt>
      <trkpt lat="40.265350" lon="-4.788867">
        <ele>1658.0</ele>
        <time>2018-09-16T13:25:08Z</time>
      </trkpt>
      <trkpt lat="40.265283" lon="-4.788817">
        <ele>1656.0</ele>
        <time>2018-09-16T13:25:09Z</time>
      </trkpt>
      <trkpt lat="40.265217" lon="-4.788733">
        <ele>1655.0</ele>
        <time>2018-09-16T13:25:10Z</time>
      </trkpt>
      <trkpt lat="40.265167" lon="-4.788667">
        <ele>1653.0</ele>
        <time>2018-09-16T13:25:11Z</time>
      </trkpt>
      <trkpt lat="40.265100" lon="-4.788567">
        <ele>1652.0</ele>
        <time>2018-09-16T13:25:12Z</time>
      </trkpt>
      <trkpt lat="40.265033" lon="-4.788500">
        <ele>1651.0</ele>
        <time>2018-09-16T13:25:13Z</time>
      </trkpt>
      <trkpt lat="40.264967" lon="-4.788433">
        <ele>1651.0</ele>
        <time>2018-09-16T13:25:14Z</time>
      </trkpt>
      <trkpt lat="40.264900" lon="-4.788383">
        <ele>1650.0</ele>
        <time>2018-09-16T13:25:15Z</time>
      </trkpt>
      <trkpt lat="40.264833" lon="-4.788333">
        <ele>1649.0</ele>
        <time>2018-09-16T13:25:16Z</time>
      </trkpt>
      <trkpt lat="40.264767" lon="-4.788250">
        <ele>1648.0</ele>
        <time>2018-09-16T13:25:17Z</time>
      </trkpt>
      <trkpt lat="40.264700" lon="-4.788183">
        <ele>1646.0</ele>
        <time>2018-09-16T13:25:18Z</time>
      </trkpt>
      <trkpt lat="40.264650" lon="-4.788117">
        <ele>1645.0</ele>
        <time>2018-09-16T13:25:19Z</time>
      </trkpt>
      <trkpt lat="40.264583" lon="-4.788033">
        <ele>1644.0</ele>
        <time>2018-09-16T13:25:20Z</time>
      </trkpt>
      <trkpt lat="40.264517" lon="-4.787967">
        <ele>1643.0</ele>
        <time>2018-09-16T13:25:21Z</time>
      </trkpt>
      <trkpt lat="40.264467" lon="-4.787883">
        <ele>1642.0</ele>
        <time>2018-09-16T13:25:22Z</time>
      </trkpt>
      <trkpt lat="40.264417" lon="-4.787817">
        <ele>1642.0</ele>
        <time>2018-09-16T13:25:23Z</time>
      </trkpt>
      <trkpt lat="40.264367" lon="-4.787733">
        <ele>1641.0</ele>
        <time>2018-09-16T13:25:24Z</time>
      </trkpt>
      <trkpt lat="40.264317" lon="-4.787633">
        <ele>1640.0</ele>
        <time>2018-09-16T13:25:25Z</time>
      </trkpt>
      <trkpt lat="40.264267" lon="-4.787550">
        <ele>1639.0</ele>
        <time>2018-09-16T13:25:26Z</time>
      </trkpt>
      <trkpt lat="40.264217" lon="-4.787467">
        <ele>1637.0</ele>
        <time>2018-09-16T13:25:27Z</time>
      </trkpt>
      <trkpt lat="40.264150" lon="-4.787367">
        <ele>1636.0</ele>
        <time>2018-09-16T13:25:28Z</time>
      </trkpt>
      <trkpt lat="40.264100" lon="-4.787267">
        <ele>1634.0</ele>
        <time>2018-09-16T13:25:29Z</time>
      </trkpt>
      <trkpt lat="40.264050" lon="-4.787150">
        <ele>1633.0</ele>
        <time>2018-09-16T13:25:30Z</time>
      </trkpt>
      <trkpt lat="40.263983" lon="-4.787050">
        <ele>1633.0</ele>
        <time>2018-09-16T13:25:31Z</time>
      </trkpt>
      <trkpt lat="40.263933" lon="-4.786967">
        <ele>1633.0</ele>
        <time>2018-09-16T13:25:32Z</time>
      </trkpt>
      <trkpt lat="40.263883" lon="-4.786883">
        <ele>1632.0</ele>
        <time>2018-09-16T13:25:33Z</time>
      </trkpt>
      <trkpt lat="40.263833" lon="-4.786783">
        <ele>1631.0</ele>
        <time>2018-09-16T13:25:34Z</time>
      </trkpt>
      <trkpt lat="40.263767" lon="-4.786700">
        <ele>1629.0</ele>
        <time>2018-09-16T13:25:35Z</time>
      </trkpt>
      <trkpt lat="40.263717" lon="-4.786583">
        <ele>1628.0</ele>
        <time>2018-09-16T13:25:36Z</time>
      </trkpt>
      <trkpt lat="40.263633" lon="-4.786483">
        <ele>1626.0</ele>
        <time>2018-09-16T13:25:37Z</time>
      </trkpt>
      <trkpt lat="40.263567" lon="-4.786383">
        <ele>1626.0</ele>
        <time>2018-09-16T13:25:38Z</time>
      </trkpt>
      <trkpt lat="40.263517" lon="-4.786283">
        <ele>1626.0</ele>
        <time>2018-09-16T13:25:39Z</time>
      </trkpt>
      <trkpt lat="40.263450" lon="-4.786183">
        <ele>1626.0</ele>
        <time>2018-09-16T13:25:40Z</time>
      </trkpt>
      <trkpt lat="40.263383" lon="-4.786100">
        <ele>1625.0</ele>
        <time>2018-09-16T13:25:41Z</time>
      </trkpt>
      <trkpt lat="40.263317" lon="-4.786033">
        <ele>1624.0</ele>
        <time>2018-09-16T13:25:42Z</time>
      </trkpt>
      <trkpt lat="40.263233" lon="-4.785950">
        <ele>1623.0</ele>
        <time>2018-09-16T13:25:43Z</time>
      </trkpt>
      <trkpt lat="40.263150" lon="-4.785883">
        <ele>1622.0</ele>
        <time>2018-09-16T13:25:44Z</time>
      </trkpt>
      <trkpt lat="40.263067" lon="-4.785817">
        <ele>1621.0</ele>
        <time>2018-09-16T13:25:45Z</time>
      </trkpt>
      <trkpt lat="40.262983" lon="-4.785750">
        <ele>1621.0</ele>
        <time>2018-09-16T13:25:46Z</time>
      </trkpt>
      <trkpt lat="40.262900" lon="-4.785683">
        <ele>1621.0</ele>
        <time>2018-09-16T13:25:47Z</time>
      </trkpt>
      <trkpt lat="40.262817" lon="-4.785633">
        <ele>1619.0</ele>
        <time>2018-09-16T13:25:48Z</time>
      </trkpt>
      <trkpt lat="40.262733" lon="-4.785567">
        <ele>1618.0</ele>
        <time>2018-09-16T13:25:49Z</time>
      </trkpt>
      <trkpt lat="40.262650" lon="-4.785500">
        <ele>1615.0</ele>
        <time>2018-09-16T13:25:50Z</time>
      </trkpt>
      <trkpt lat="40.262550" lon="-4.785433">
        <ele>1613.0</ele>
        <time>2018-09-16T13:25:51Z</time>
      </trkpt>
      <trkpt lat="40.262467" lon="-4.785367">
        <ele>1612.0</ele>
        <time>2018-09-16T13:25:52Z</time>
      </trkpt>
      <trkpt lat="40.262383" lon="-4.785300">
        <ele>1610.0</ele>
        <time>2018-09-16T13:25:53Z</time>
      </trkpt>
      <trkpt lat="40.262300" lon="-4.785233">
        <ele>1609.0</ele>
        <time>2018-09-16T13:25:54Z</time>
      </trkpt>
      <trkpt lat="40.262233" lon="-4.785167">
        <ele>1608.0</ele>
        <time>2018-09-16T13:25:55Z</time>
      </trkpt>
      <trkpt lat="40.262150" lon="-4.785100">
        <ele>1606.0</ele>
        <time>2018-09-16T13:25:56Z</time>
      </trkpt>
      <trkpt lat="40.262083" lon="-4.785050">
        <ele>1604.0</ele>
        <time>2018-09-16T13:25:57Z</time>
      </trkpt>
      <trkpt lat="40.262000" lon="-4.784983">
        <ele>1602.0</ele>
        <time>2018-09-16T13:25:58Z</time>
      </trkpt>
      <trkpt lat="40.261917" lon="-4.784900">
        <ele>1599.0</ele>
        <time>2018-09-16T13:25:59Z</time>
      </trkpt>
      <trkpt lat="40.261833" lon="-4.784817">
        <ele>1598.0</ele>
        <time>2018-09-16T13:26:00Z</time>
      </trkpt>
      <trkpt lat="40.261767" lon="-4.784733">
        <ele>1597.0</ele>
        <time>2018-09-16T13:26:01Z</time>
      </trkpt>
      <trkpt lat="40.261700" lon="-4.784650">
        <ele>1595.0</ele>
        <time>2018-09-16T13:26:02Z</time>
      </trkpt>
      <trkpt lat="40.261633" lon="-4.784583">
        <ele>1592.0</ele>
        <time>2018-09-16T13:26:03Z</time>
      </trkpt>
      <trkpt lat="40.261550" lon="-4.784500">
        <ele>1589.0</ele>
        <time>2018-09-16T13:26:04Z</time>
      </trkpt>
      <trkpt lat="40.261467" lon="-4.784417">
        <ele>1585.0</ele>
        <time>2018-09-16T13:26:05Z</time>
      </trkpt>
      <trkpt lat="40.261383" lon="-4.784317">
        <ele>1582.0</ele>
        <time>2018-09-16T13:26:06Z</time>
      </trkpt>
      <trkpt lat="40.261300" lon="-4.784217">
        <ele>1579.0</ele>
        <time>2018-09-16T13:26:07Z</time>
      </trkpt>
      <trkpt lat="40.261217" lon="-4.784133">
        <ele>1578.0</ele>
        <time>2018-09-16T13:26:08Z</time>
      </trkpt>
      <trkpt lat="40.261133" lon="-4.784050">
        <ele>1576.0</ele>
        <time>2018-09-16T13:26:09Z</time>
      </trkpt>
      <trkpt lat="40.261050" lon="-4.783967">
        <ele>1574.0</ele>
        <time>2018-09-16T13:26:10Z</time>
      </trkpt>
      <trkpt lat="40.260950" lon="-4.783883">
        <ele>1572.0</ele>
        <time>2018-09-16T13:26:11Z</time>
      </trkpt>
      <trkpt lat="40.260867" lon="-4.783800">
        <ele>1570.0</ele>
        <time>2018-09-16T13:26:12Z</time>
      </trkpt>
      <trkpt lat="40.260783" lon="-4.783717">
        <ele>1568.0</ele>
        <time>2018-09-16T13:26:13Z</time>
      </trkpt>
      <trkpt lat="40.260700" lon="-4.783650">
        <ele>1566.0</ele>
        <time>2018-09-16T13:26:14Z</time>
      </trkpt>
      <trkpt lat="40.260617" lon="-4.783567">
        <ele>1564.0</ele>
        <time>2018-09-16T13:26:15Z</time>
      </trkpt>
      <trkpt lat="40.260533" lon="-4.783500">
        <ele>1562.0</ele>
        <time>2018-09-16T13:26:16Z</time>
      </trkpt>
      <trkpt lat="40.260450" lon="-4.783433">
        <ele>1559.0</ele>
        <time>2018-09-16T13:26:17Z</time>
      </trkpt>
      <trkpt lat="40.260367" lon="-4.783350">
        <ele>1557.0</ele>
        <time>2018-09-16T13:26:18Z</time>
      </trkpt>
      <trkpt lat="40.260267" lon="-4.783283">
        <ele>1554.0</ele>
        <time>2018-09-16T13:26:19Z</time>
      </trkpt>
      <trkpt lat="40.260183" lon="-4.783200">
        <ele>1551.0</ele>
        <time>2018-09-16T13:26:20Z</time>
      </trkpt>
      <trkpt lat="40.260100" lon="-4.783117">
        <ele>1549.0</ele>
        <time>2018-09-16T13:26:21Z</time>
      </trkpt>
      <trkpt lat="40.260017" lon="-4.783017">
        <ele>1547.0</ele>
        <time>2018-09-16T13:26:22Z</time>
      </trkpt>
      <trkpt lat="40.259933" lon="-4.782933">
        <ele>1546.0</ele>
        <time>2018-09-16T13:26:23Z</time>
      </trkpt>
      <trkpt lat="40.259867" lon="-4.782833">
        <ele>1543.0</ele>
        <time>2018-09-16T13:26:24Z</time>
      </trkpt>
      <trkpt lat="40.259800" lon="-4.782733">
        <ele>1541.0</ele>
        <time>2018-09-16T13:26:25Z</time>
      </trkpt>
      <trkpt lat="40.259717" lon="-4.782650">
        <ele>1539.0</ele>
        <time>2018-09-16T13:26:26Z</time>
      </trkpt>
      <trkpt lat="40.259650" lon="-4.782567">
        <ele>1536.0</ele>
        <time>2018-09-16T13:26:27Z</time>
      </trkpt>
      <trkpt lat="40.259583" lon="-4.782467">
        <ele>1534.0</ele>
        <time>2018-09-16T13:26:28Z</time>
      </trkpt>
      <trkpt lat="40.259517" lon="-4.782383">
        <ele>1531.0</ele>
        <time>2018-09-16T13:26:29Z</time>
      </trkpt>
      <trkpt lat="40.259450" lon="-4.782283">
        <ele>1529.0</ele>
        <time>2018-09-16T13:26:30Z</time>
      </trkpt>
      <trkpt lat="40.259383" lon="-4.782200">
        <ele>1526.0</ele>
        <time>2018-09-16T13:26:31Z</time>
      </trkpt>
      <trkpt lat="40.259317" lon="-4.782100">
        <ele>1524.0</ele>
        <time>2018-09-16T13:26:32Z</time>
      </trkpt>
      <trkpt lat="40.259250" lon="-4.782000">
        <ele>1521.0</ele>
        <time>2018-09-16T13:26:33Z</time>
      </trkpt>
      <trkpt lat="40.259183" lon="-4.781900">
        <ele>1518.0</ele>
        <time>2018-09-16T13:26:34Z</time>
      </trkpt>
      <trkpt lat="40.259117" lon="-4.781817">
        <ele>1516.0</ele>
        <time>2018-09-16T13:26:35Z</time>
      </trkpt>
      <trkpt lat="40.259050" lon="-4.781733">
        <ele>1515.0</ele>
        <time>2018-09-16T13:26:36Z</time>
      </trkpt>
      <trkpt lat="40.258983" lon="-4.781650">
        <ele>1514.0</ele>
        <time>2018-09-16T13:26:37Z</time>
      </trkpt>
      <trkpt lat="40.258950" lon="-4.781550">
        <ele>1512.0</ele>
        <time>2018-09-16T13:26:38Z</time>
      </trkpt>
      <trkpt lat="40.258900" lon="-4.781450">
        <ele>1510.0</ele>
        <time>2018-09-16T13:26:39Z</time>
      </trkpt>
      <trkpt lat="40.258850" lon="-4.781367">
        <ele>1509.0</ele>
        <time>2018-09-16T13:26:40Z</time>
      </trkpt>
      <trkpt lat="40.258800" lon="-4.781267">
        <ele>1507.0</ele>
        <time>2018-09-16T13:26:41Z</time>
      </trkpt>
      <trkpt lat="40.258750" lon="-4.781200">
        <ele>1506.0</ele>
        <time>2018-09-16T13:26:42Z</time>
      </trkpt>
      <trkpt lat="40.258683" lon="-4.781133">
        <ele>1505.0</ele>
        <time>2018-09-16T13:26:43Z</time>
      </trkpt>
      <trkpt lat="40.258633" lon="-4.781067">
        <ele>1504.0</ele>
        <time>2018-09-16T13:26:44Z</time>
      </trkpt>
      <trkpt lat="40.258567" lon="-4.780983">
        <ele>1502.0</ele>
        <time>2018-09-16T13:26:45Z</time>
      </trkpt>
      <trkpt lat="40.258517" lon="-4.780917">
        <ele>1500.0</ele>
        <time>2018-09-16T13:26:46Z</time>
      </trkpt>
      <trkpt lat="40.258467" lon="-4.780833">
        <ele>1497.0</ele>
        <time>2018-09-16T13:26:47Z</time>
      </trkpt>
      <trkpt lat="40.258400" lon="-4.780750">
        <ele>1495.0</ele>
        <time>2018-09-16T13:26:48Z</time>
      </trkpt>
      <trkpt lat="40.258333" lon="-4.780667">
        <ele>1494.0</ele>
        <time>2018-09-16T13:26:49Z</time>
      </trkpt>
      <trkpt lat="40.258283" lon="-4.780583">
        <ele>1493.0</ele>
        <time>2018-09-16T13:26:50Z</time>
      </trkpt>
      <trkpt lat="40.258217" lon="-4.780500">
        <ele>1492.0</ele>
        <time>2018-09-16T13:26:51Z</time>
      </trkpt>
      <trkpt lat="40.258167" lon="-4.780417">
        <ele>1491.0</ele>
        <time>2018-09-16T13:26:52Z</time>
      </trkpt>
      <trkpt lat="40.258117" lon="-4.780333">
        <ele>1489.0</ele>
        <time>2018-09-16T13:26:53Z</time>
      </trkpt>
      <trkpt lat="40.258050" lon="-4.780250">
        <ele>1488.0</ele>
        <time>2018-09-16T13:26:54Z</time>
      </trkpt>
      <trkpt lat="40.257983" lon="-4.780167">
        <ele>1487.0</ele>
        <time>2018-09-16T13:26:55Z</time>
      </trkpt>
      <trkpt lat="40.257933" lon="-4.780083">
        <ele>1487.0</ele>
        <time>2018-09-16T13:26:56Z</time>
      </trkpt>
      <trkpt lat="40.257867" lon="-4.780000">
        <ele>1487.0</ele>
        <time>2018-09-16T13:26:57Z</time>
      </trkpt>
      <trkpt lat="40.257817" lon="-4.779933">
        <ele>1486.0</ele>
        <time>2018-09-16T13:26:58Z</time>
      </trkpt>
      <trkpt lat="40.257767" lon="-4.779850">
        <ele>1485.0</ele>
        <time>2018-09-16T13:26:59Z</time>
      </trkpt>
      <trkpt lat="40.257700" lon="-4.779783">
        <ele>1482.0</ele>
        <time>2018-09-16T13:27:00Z</time>
      </trkpt>
      <trkpt lat="40.257633" lon="-4.779700">
        <ele>1480.0</ele>
        <time>2018-09-16T13:27:01Z</time>
      </trkpt>
      <trkpt lat="40.257567" lon="-4.779600">
        <ele>1478.0</ele>
        <time>2018-09-16T13:27:02Z</time>
      </trkpt>
      <trkpt lat="40.257500" lon="-4.779517">
        <ele>1476.0</ele>
        <time>2018-09-16T13:27:03Z</time>
      </trkpt>
      <trkpt lat="40.257433" lon="-4.779433">
        <ele>1476.0</ele>
        <time>2018-09-16T13:27:04Z</time>
      </trkpt>
      <trkpt lat="40.257367" lon="-4.779350">
        <ele>1476.0</ele>
        <time>2018-09-16T13:27:05Z</time>
      </trkpt>
      <trkpt lat="40.257300" lon="-4.779283">
        <ele>1476.0</ele>
        <time>2018-09-16T13:27:06Z</time>
      </trkpt>
      <trkpt lat="40.257233" lon="-4.779217">
        <ele>1475.0</ele>
        <time>2018-09-16T13:27:07Z</time>
      </trkpt>
      <trkpt lat="40.257183" lon="-4.779150">
        <ele>1475.0</ele>
        <time>2018-09-16T13:27:08Z</time>
      </trkpt>
      <trkpt lat="40.257133" lon="-4.779067">
        <ele>1473.0</ele>
        <time>2018-09-16T13:27:09Z</time>
      </trkpt>
      <trkpt lat="40.257067" lon="-4.778967">
        <ele>1472.0</ele>
        <time>2018-09-16T13:27:10Z</time>
      </trkpt>
      <trkpt lat="40.257000" lon="-4.778883">
        <ele>1471.0</ele>
        <time>2018-09-16T13:27:11Z</time>
      </trkpt>
      <trkpt lat="40.256950" lon="-4.778800">
        <ele>1470.0</ele>
        <time>2018-09-16T13:27:12Z</time>
      </trkpt>
      <trkpt lat="40.256883" lon="-4.778717">
        <ele>1469.0</ele>
        <time>2018-09-16T13:27:13Z</time>
      </trkpt>
      <trkpt lat="40.256817" lon="-4.778633">
        <ele>1468.0</ele>
        <time>2018-09-16T13:27:14Z</time>
      </trkpt>
      <trkpt lat="40.256767" lon="-4.778550">
        <ele>1466.0</ele>
        <time>2018-09-16T13:27:15Z</time>
      </trkpt>
      <trkpt lat="40.256717" lon="-4.778467">
        <ele>1465.0</ele>
        <time>2018-09-16T13:27:16Z</time>
      </trkpt>
      <trkpt lat="40.256650" lon="-4.778383">
        <ele>1462.0</ele>
        <time>2018-09-16T13:27:17Z</time>
      </trkpt>
      <trkpt lat="40.256600" lon="-4.778300">
        <ele>1460.0</ele>
        <time>2018-09-16T13:27:18Z</time>
      </trkpt>
      <trkpt lat="40.256533" lon="-4.778217">
        <ele>1457.0</ele>
        <time>2018-09-16T13:27:19Z</time>
      </trkpt>
      <trkpt lat="40.256467" lon="-4.778117">
        <ele>1455.0</ele>
        <time>2018-09-16T13:27:20Z</time>
      </trkpt>
      <trkpt lat="40.256400" lon="-4.778033">
        <ele>1453.0</ele>
        <time>2018-09-16T13:27:21Z</time>
      </trkpt>
      <trkpt lat="40.256333" lon="-4.777967">
        <ele>1451.0</ele>
        <time>2018-09-16T13:27:22Z</time>
      </trkpt>
      <trkpt lat="40.256267" lon="-4.777883">
        <ele>1450.0</ele>
        <time>2018-09-16T13:27:23Z</time>
      </trkpt>
      <trkpt lat="40.256200" lon="-4.777817">
        <ele>1448.0</ele>
        <time>2018-09-16T13:27:24Z</time>
      </trkpt>
      <trkpt lat="40.256133" lon="-4.777733">
        <ele>1446.0</ele>
        <time>2018-09-16T13:27:25Z</time>
      </trkpt>
      <trkpt lat="40.256067" lon="-4.777667">
        <ele>1443.0</ele>
        <time>2018-09-16T13:27:26Z</time>
      </trkpt>
      <trkpt lat="40.255983" lon="-4.777583">
        <ele>1441.0</ele>
        <time>2018-09-16T13:27:27Z</time>
      </trkpt>
      <trkpt lat="40.255900" lon="-4.777517">
        <ele>1440.0</ele>
        <time>2018-09-16T13:27:28Z</time>
      </trkpt>
      <trkpt lat="40.255833" lon="-4.777433">
        <ele>1439.0</ele>
        <time>2018-09-16T13:27:29Z</time>
      </trkpt>
      <trkpt lat="40.255767" lon="-4.777350">
        <ele>1439.0</ele>
        <time>2018-09-16T13:27:30Z</time>
      </trkpt>
      <trkpt lat="40.255717" lon="-4.777267">
        <ele>1439.0</ele>
        <time>2018-09-16T13:27:31Z</time>
      </trkpt>
      <trkpt lat="40.255667" lon="-4.777200">
        <ele>1439.0</ele>
        <time>2018-09-16T13:27:32Z</time>
      </trkpt>
      <trkpt lat="40.255617" lon="-4.777133">
        <ele>1438.0</ele>
        <time>2018-09-16T13:27:33Z</time>
      </trkpt>
      <trkpt lat="40.255550" lon="-4.777067">
        <ele>1436.0</ele>
        <time>2018-09-16T13:27:34Z</time>
      </trkpt>
      <trkpt lat="40.255500" lon="-4.777000">
        <ele>1433.0</ele>
        <time>2018-09-16T13:27:35Z</time>
      </trkpt>
      <trkpt lat="40.255450" lon="-4.776933">
        <ele>1431.0</ele>
        <time>2018-09-16T13:27:36Z</time>
      </trkpt>
      <trkpt lat="40.255400" lon="-4.776867">
        <ele>1429.0</ele>
        <time>2018-09-16T13:27:37Z</time>
      </trkpt>
      <trkpt lat="40.255350" lon="-4.776783">
        <ele>1428.0</ele>
        <time>2018-09-16T13:27:38Z</time>
      </trkpt>
      <trkpt lat="40.255300" lon="-4.776717">
        <ele>1426.0</ele>
        <time>2018-09-16T13:27:39Z</time>
      </trkpt>
      <trkpt lat="40.255250" lon="-4.776650">
        <ele>1422.0</ele>
        <time>2018-09-16T13:27:40Z</time>
      </trkpt>
      <trkpt lat="40.255217" lon="-4.776583">
        <ele>1419.0</ele>
        <time>2018-09-16T13:27:41Z</time>
      </trkpt>
      <trkpt lat="40.255167" lon="-4.776483">
        <ele>1415.0</ele>
        <time>2018-09-16T13:27:42Z</time>
      </trkpt>
      <trkpt lat="40.255117" lon="-4.776383">
        <ele>1411.0</ele>
        <time>2018-09-16T13:27:43Z</time>
      </trkpt>
      <trkpt lat="40.255067" lon="-4.776267">
        <ele>1409.0</ele>
        <time>2018-09-16T13:27:44Z</time>
      </trkpt>
      <trkpt lat="40.255033" lon="-4.776167">
        <ele>1408.0</ele>
        <time>2018-09-16T13:27:45Z</time>
      </trkpt>
      <trkpt lat="40.255000" lon="-4.776067">
        <ele>1407.0</ele>
        <time>2018-09-16T13:27:46Z</time>
      </trkpt>
      <trkpt lat="40.254967" lon="-4.775983">
        <ele>1405.0</ele>
        <time>2018-09-16T13:27:47Z</time>
      </trkpt>
      <trkpt lat="40.254950" lon="-4.775883">
        <ele>1401.0</ele>
        <time>2018-09-16T13:27:48Z</time>
      </trkpt>
      <trkpt lat="40.254900" lon="-4.775800">
        <ele>1397.0</ele>
        <time>2018-09-16T13:27:49Z</time>
      </trkpt>
      <trkpt lat="40.254850" lon="-4.775700">
        <ele>1394.0</ele>
        <time>2018-09-16T13:27:50Z</time>
      </trkpt>
      <trkpt lat="40.254800" lon="-4.775600">
        <ele>1391.0</ele>
        <time>2018-09-16T13:27:51Z</time>
      </trkpt>
      <trkpt lat="40.254750" lon="-4.775500">
        <ele>1390.0</ele>
        <time>2018-09-16T13:27:52Z</time>
      </trkpt>
      <trkpt lat="40.254700" lon="-4.775433">
        <ele>1389.0</ele>
        <time>2018-09-16T13:27:53Z</time>
      </trkpt>
      <trkpt lat="40.254667" lon="-4.775350">
        <ele>1388.0</ele>
        <time>2018-09-16T13:27:54Z</time>
      </trkpt>
      <trkpt lat="40.254650" lon="-4.775283">
        <ele>1387.0</ele>
        <time>2018-09-16T13:27:55Z</time>
      </trkpt>
      <trkpt lat="40.254617" lon="-4.775200">
        <ele>1384.0</ele>
        <time>2018-09-16T13:27:56Z</time>
      </trkpt>
      <trkpt lat="40.254583" lon="-4.775117">
        <ele>1382.0</ele>
        <time>2018-09-16T13:27:57Z</time>
      </trkpt>
      <trkpt lat="40.254550" lon="-4.775033">
        <ele>1379.0</ele>
        <time>2018-09-16T13:27:58Z</time>
      </trkpt>
      <trkpt lat="40.254517" lon="-4.774950">
        <ele>1376.0</ele>
        <time>2018-09-16T13:27:59Z</time>
      </trkpt>
      <trkpt lat="40.254467" lon="-4.774867">
        <ele>1375.0</ele>
        <time>2018-09-16T13:28:00Z</time>
      </trkpt>
      <trkpt lat="40.254417" lon="-4.774783">
        <ele>1373.0</ele>
        <time>2018-09-16T13:28:01Z</time>
      </trkpt>
      <trkpt lat="40.254383" lon="-4.774700">
        <ele>1371.0</ele>
        <time>2018-09-16T13:28:02Z</time>
      </trkpt>
      <trkpt lat="40.254350" lon="-4.774617">
        <ele>1369.0</ele>
        <time>2018-09-16T13:28:03Z</time>
      </trkpt>
      <trkpt lat="40.254300" lon="-4.774533">
        <ele>1367.0</ele>
        <time>2018-09-16T13:28:04Z</time>
      </trkpt>
      <trkpt lat="40.254250" lon="-4.774450">
        <ele>1364.0</ele>
        <time>2018-09-16T13:28:05Z</time>
      </trkpt>
      <trkpt lat="40.254183" lon="-4.774383">
        <ele>1363.0</ele>
        <time>2018-09-16T13:28:06Z</time>
      </trkpt>
      <trkpt lat="40.254117" lon="-4.774317">
        <ele>1361.0</ele>
        <time>2018-09-16T13:28:07Z</time>
      </trkpt>
      <trkpt lat="40.254067" lon="-4.774250">
        <ele>1361.0</ele>
        <time>2018-09-16T13:28:08Z</time>
      </trkpt>
      <trkpt lat="40.254000" lon="-4.774200">
        <ele>1360.0</ele>
        <time>2018-09-16T13:28:09Z</time>
      </trkpt>
      <trkpt lat="40.253950" lon="-4.774150">
        <ele>1358.0</ele>
        <time>2018-09-16T13:28:10Z</time>
      </trkpt>
      <trkpt lat="40.253883" lon="-4.774100">
        <ele>1356.0</ele>
        <time>2018-09-16T13:28:11Z</time>
      </trkpt>
      <trkpt lat="40.253833" lon="-4.774033">
        <ele>1354.0</ele>
        <time>2018-09-16T13:28:12Z</time>
      </trkpt>
      <trkpt lat="40.253767" lon="-4.773967">
        <ele>1353.0</ele>
        <time>2018-09-16T13:28:13Z</time>
      </trkpt>
      <trkpt lat="40.253717" lon="-4.773900">
        <ele>1353.0</ele>
        <time>2018-09-16T13:28:14Z</time>
      </trkpt>
      <trkpt lat="40.253667" lon="-4.773833">
        <ele>1354.0</ele>
        <time>2018-09-16T13:28:15Z</time>
      </trkpt>
      <trkpt lat="40.253633" lon="-4.773783">
        <ele>1354.0</ele>
        <time>2018-09-16T13:28:16Z</time>
      </trkpt>
      <trkpt lat="40.253583" lon="-4.773733">
        <ele>1352.0</ele>
        <time>2018-09-16T13:28:17Z</time>
      </trkpt>
      <trkpt lat="40.253550" lon="-4.773650">
        <ele>1351.0</ele>
        <time>2018-09-16T13:28:18Z</time>
      </trkpt>
      <trkpt lat="40.253517" lon="-4.773567">
        <ele>1349.0</ele>
        <time>2018-09-16T13:28:19Z</time>
      </trkpt>
      <trkpt lat="40.253467" lon="-4.773483">
        <ele>1349.0</ele>
        <time>2018-09-16T13:28:20Z</time>
      </trkpt>
      <trkpt lat="40.253433" lon="-4.773417">
        <ele>1350.0</ele>
        <time>2018-09-16T13:28:21Z</time>
      </trkpt>
      <trkpt lat="40.253400" lon="-4.773350">
        <ele>1350.0</ele>
        <time>2018-09-16T13:28:22Z</time>
      </trkpt>
      <trkpt lat="40.253383" lon="-4.773300">
        <ele>1350.0</ele>
        <time>2018-09-16T13:28:23Z</time>
      </trkpt>
      <trkpt lat="40.253350" lon="-4.773217">
        <ele>1348.0</ele>
        <time>2018-09-16T13:28:24Z</time>
      </trkpt>
      <trkpt lat="40.253333" lon="-4.773150">
        <ele>1347.0</ele>
        <time>2018-09-16T13:28:25Z</time>
      </trkpt>
      <trkpt lat="40.253283" lon="-4.773067">
        <ele>1345.0</ele>
        <time>2018-09-16T13:28:26Z</time>
      </trkpt>
      <trkpt lat="40.253250" lon="-4.773000">
        <ele>1344.0</ele>
        <time>2018-09-16T13:28:27Z</time>
      </trkpt>
      <trkpt lat="40.253200" lon="-4.772917">
        <ele>1343.0</ele>
        <time>2018-09-16T13:28:28Z</time>
      </trkpt>
      <trkpt lat="40.253133" lon="-4.772850">
        <ele>1343.0</ele>
        <time>2018-09-16T13:28:29Z</time>
      </trkpt>
      <trkpt lat="40.253083" lon="-4.772783">
        <ele>1344.0</ele>
        <time>2018-09-16T13:28:30Z</time>
      </trkpt>
      <trkpt lat="40.253033" lon="-4.772717">
        <ele>1346.0</ele>
        <time>2018-09-16T13:28:31Z</time>
      </trkpt>
      <trkpt lat="40.253000" lon="-4.772650">
        <ele>1347.0</ele>
        <time>2018-09-16T13:28:32Z</time>
      </trkpt>
      <trkpt lat="40.252967" lon="-4.772583">
        <ele>1348.0</ele>
        <time>2018-09-16T13:28:33Z</time>
      </trkpt>
      <trkpt lat="40.252933" lon="-4.772500">
        <ele>1348.0</ele>
        <time>2018-09-16T13:28:34Z</time>
      </trkpt>
      <trkpt lat="40.252917" lon="-4.772417">
        <ele>1348.0</ele>
        <time>2018-09-16T13:28:35Z</time>
      </trkpt>
      <trkpt lat="40.252883" lon="-4.772317">
        <ele>1347.0</ele>
        <time>2018-09-16T13:28:36Z</time>
      </trkpt>
      <trkpt lat="40.252867" lon="-4.772217">
        <ele>1347.0</ele>
        <time>2018-09-16T13:28:37Z</time>
      </trkpt>
      <trkpt lat="40.252867" lon="-4.772100">
        <ele>1347.0</ele>
        <time>2018-09-16T13:28:38Z</time>
      </trkpt>
      <trkpt lat="40.252883" lon="-4.772000">
        <ele>1347.0</ele>
        <time>2018-09-16T13:28:39Z</time>
      </trkpt>
      <trkpt lat="40.252883" lon="-4.771900">
        <ele>1347.0</ele>
        <time>2018-09-16T13:28:40Z</time>
      </trkpt>
      <trkpt lat="40.252867" lon="-4.771817">
        <ele>1346.0</ele>
        <time>2018-09-16T13:28:41Z</time>
      </trkpt>
      <trkpt lat="40.252850" lon="-4.771733">
        <ele>1345.0</ele>
        <time>2018-09-16T13:28:42Z</time>
      </trkpt>
      <trkpt lat="40.252817" lon="-4.771633">
        <ele>1343.0</ele>
        <time>2018-09-16T13:28:43Z</time>
      </trkpt>
      <trkpt lat="40.252800" lon="-4.771550">
        <ele>1342.0</ele>
        <time>2018-09-16T13:28:44Z</time>
      </trkpt>
      <trkpt lat="40.252767" lon="-4.771450">
        <ele>1340.0</ele>
        <time>2018-09-16T13:28:45Z</time>
      </trkpt>
      <trkpt lat="40.252733" lon="-4.771367">
        <ele>1340.0</ele>
        <time>2018-09-16T13:28:46Z</time>
      </trkpt>
      <trkpt lat="40.252717" lon="-4.771267">
        <ele>1339.0</ele>
        <time>2018-09-16T13:28:47Z</time>
      </trkpt>
      <trkpt lat="40.252700" lon="-4.771183">
        <ele>1339.0</ele>
        <time>2018-09-16T13:28:48Z</time>
      </trkpt>
      <trkpt lat="40.252667" lon="-4.771083">
        <ele>1338.0</ele>
        <time>2018-09-16T13:28:49Z</time>
      </trkpt>
      <trkpt lat="40.252650" lon="-4.770983">
        <ele>1337.0</ele>
        <time>2018-09-16T13:28:50Z</time>
      </trkpt>
      <trkpt lat="40.252617" lon="-4.770883">
        <ele>1336.0</ele>
        <time>2018-09-16T13:28:51Z</time>
      </trkpt>
      <trkpt lat="40.252600" lon="-4.770800">
        <ele>1336.0</ele>
        <time>2018-09-16T13:28:52Z</time>
      </trkpt>
      <trkpt lat="40.252567" lon="-4.770717">
        <ele>1336.0</ele>
        <time>2018-09-16T13:28:53Z</time>
      </trkpt>
      <trkpt lat="40.252517" lon="-4.770617">
        <ele>1336.0</ele>
        <time>2018-09-16T13:28:54Z</time>
      </trkpt>
      <trkpt lat="40.252483" lon="-4.770550">
        <ele>1337.0</ele>
        <time>2018-09-16T13:28:55Z</time>
      </trkpt>
      <trkpt lat="40.252433" lon="-4.770467">
        <ele>1337.0</ele>
        <time>2018-09-16T13:28:56Z</time>
      </trkpt>
      <trkpt lat="40.252400" lon="-4.770400">
        <ele>1336.0</ele>
        <time>2018-09-16T13:28:57Z</time>
      </trkpt>
      <trkpt lat="40.252367" lon="-4.770317">
        <ele>1335.0</ele>
        <time>2018-09-16T13:28:58Z</time>
      </trkpt>
      <trkpt lat="40.252317" lon="-4.770233">
        <ele>1334.0</ele>
        <time>2018-09-16T13:28:59Z</time>
      </trkpt>
      <trkpt lat="40.252283" lon="-4.770167">
        <ele>1333.0</ele>
        <time>2018-09-16T13:29:00Z</time>
      </trkpt>
      <trkpt lat="40.252250" lon="-4.770100">
        <ele>1333.0</ele>
        <time>2018-09-16T13:29:01Z</time>
      </trkpt>
      <trkpt lat="40.252200" lon="-4.770050">
        <ele>1332.0</ele>
        <time>2018-09-16T13:29:02Z</time>
      </trkpt>
      <trkpt lat="40.252150" lon="-4.770000">
        <ele>1331.0</ele>
        <time>2018-09-16T13:29:03Z</time>
      </trkpt>
      <trkpt lat="40.252083" lon="-4.769950">
        <ele>1330.0</ele>
        <time>2018-09-16T13:29:04Z</time>
      </trkpt>
      <trkpt lat="40.252017" lon="-4.769933">
        <ele>1331.0</ele>
        <time>2018-09-16T13:29:05Z</time>
      </trkpt>
      <trkpt lat="40.251967" lon="-4.769917">
        <ele>1332.0</ele>
        <time>2018-09-16T13:29:06Z</time>
      </trkpt>
      <trkpt lat="40.251933" lon="-4.769933">
        <ele>1332.0</ele>
        <time>2018-09-16T13:29:07Z</time>
      </trkpt>
      <trkpt lat="40.251883" lon="-4.769933">
        <ele>1331.0</ele>
        <time>2018-09-16T13:29:08Z</time>
      </trkpt>
      <trkpt lat="40.251833" lon="-4.769950">
        <ele>1329.0</ele>
        <time>2018-09-16T13:29:09Z</time>
      </trkpt>
      <trkpt lat="40.251767" lon="-4.769967">
        <ele>1326.0</ele>
        <time>2018-09-16T13:29:10Z</time>
      </trkpt>
      <trkpt lat="40.251700" lon="-4.770017">
        <ele>1325.0</ele>
        <time>2018-09-16T13:29:11Z</time>
      </trkpt>
      <trkpt lat="40.251633" lon="-4.770067">
        <ele>1324.0</ele>
        <time>2018-09-16T13:29:12Z</time>
      </trkpt>
      <trkpt lat="40.251567" lon="-4.770133">
        <ele>1324.0</ele>
        <time>2018-09-16T13:29:13Z</time>
      </trkpt>
      <trkpt lat="40.251517" lon="-4.770200">
        <ele>1325.0</ele>
        <time>2018-09-16T13:29:14Z</time>
      </trkpt>
      <trkpt lat="40.251467" lon="-4.770267">
        <ele>1326.0</ele>
        <time>2018-09-16T13:29:15Z</time>
      </trkpt>
      <trkpt lat="40.251417" lon="-4.770317">
        <ele>1326.0</ele>
        <time>2018-09-16T13:29:16Z</time>
      </trkpt>
      <trkpt lat="40.251367" lon="-4.770367">
        <ele>1326.0</ele>
        <time>2018-09-16T13:29:17Z</time>
      </trkpt>
      <trkpt lat="40.251317" lon="-4.770417">
        <ele>1325.0</ele>
        <time>2018-09-16T13:29:18Z</time>
      </trkpt>
      <trkpt lat="40.251250" lon="-4.770483">
        <ele>1325.0</ele>
        <time>2018-09-16T13:29:19Z</time>
      </trkpt>
      <trkpt lat="40.251183" lon="-4.770533">
        <ele>1324.0</ele>
        <time>2018-09-16T13:29:20Z</time>
      </trkpt>
      <trkpt lat="40.251117" lon="-4.770617">
        <ele>1324.0</ele>
        <time>2018-09-16T13:29:21Z</time>
      </trkpt>
      <trkpt lat="40.251067" lon="-4.770700">
        <ele>1325.0</ele>
        <time>2018-09-16T13:29:22Z</time>
      </trkpt>
      <trkpt lat="40.251017" lon="-4.770783">
        <ele>1325.0</ele>
        <time>2018-09-16T13:29:23Z</time>
      </trkpt>
      <trkpt lat="40.250983" lon="-4.770883">
        <ele>1325.0</ele>
        <time>2018-09-16T13:29:24Z</time>
      </trkpt>
      <trkpt lat="40.250950" lon="-4.770967">
        <ele>1326.0</ele>
        <time>2018-09-16T13:29:25Z</time>
      </trkpt>
      <trkpt lat="40.250900" lon="-4.771067">
        <ele>1327.0</ele>
        <time>2018-09-16T13:29:26Z</time>
      </trkpt>
      <trkpt lat="40.250883" lon="-4.771167">
        <ele>1328.0</ele>
        <time>2018-09-16T13:29:27Z</time>
      </trkpt>
      <trkpt lat="40.250900" lon="-4.771250">
        <ele>1329.0</ele>
        <time>2018-09-16T13:29:28Z</time>
      </trkpt>
      <trkpt lat="40.250950" lon="-4.771350">
        <ele>1329.0</ele>
        <time>2018-09-16T13:29:29Z</time>
      </trkpt>
      <trkpt lat="40.251017" lon="-4.771400">
        <ele>1330.0</ele>
        <time>2018-09-16T13:29:30Z</time>
      </trkpt>
      <trkpt lat="40.251100" lon="-4.771450">
        <ele>1331.0</ele>
        <time>2018-09-16T13:29:31Z</time>
      </trkpt>
      <trkpt lat="40.251200" lon="-4.771450">
        <ele>1331.0</ele>
        <time>2018-09-16T13:29:32Z</time>
      </trkpt>
      <trkpt lat="40.251300" lon="-4.771417">
        <ele>1331.0</ele>
        <time>2018-09-16T13:29:33Z</time>
      </trkpt>
      <trkpt lat="40.251383" lon="-4.771350">
        <ele>1330.0</ele>
        <time>2018-09-16T13:29:34Z</time>
      </trkpt>
      <trkpt lat="40.251467" lon="-4.771250">
        <ele>1330.0</ele>
        <time>2018-09-16T13:29:35Z</time>
      </trkpt>
      <trkpt lat="40.251500" lon="-4.771100">
        <ele>1329.0</ele>
        <time>2018-09-16T13:29:36Z</time>
      </trkpt>
      <trkpt lat="40.251517" lon="-4.770967">
        <ele>1329.0</ele>
        <time>2018-09-16T13:29:37Z</time>
      </trkpt>
      <trkpt lat="40.251500" lon="-4.770817">
        <ele>1329.0</ele>
        <time>2018-09-16T13:29:38Z</time>
      </trkpt>
      <trkpt lat="40.251450" lon="-4.770700">
        <ele>1330.0</ele>
        <time>2018-09-16T13:29:39Z</time>
      </trkpt>
      <trkpt lat="40.251400" lon="-4.770583">
        <ele>1331.0</ele>
        <time>2018-09-16T13:29:40Z</time>
      </trkpt>
      <trkpt lat="40.251333" lon="-4.770500">
        <ele>1332.0</ele>
        <time>2018-09-16T13:29:41Z</time>
      </trkpt>
      <trkpt lat="40.251283" lon="-4.770417">
        <ele>1332.0</ele>
        <time>2018-09-16T13:29:42Z</time>
      </trkpt>
      <trkpt lat="40.251217" lon="-4.770317">
        <ele>1332.0</ele>
        <time>2018-09-16T13:29:43Z</time>
      </trkpt>
      <trkpt lat="40.251133" lon="-4.770233">
        <ele>1333.0</ele>
        <time>2018-09-16T13:29:44Z</time>
      </trkpt>
      <trkpt lat="40.251050" lon="-4.770167">
        <ele>1334.0</ele>
        <time>2018-09-16T13:29:45Z</time>
      </trkpt>
      <trkpt lat="40.250983" lon="-4.770117">
        <ele>1336.0</ele>
        <time>2018-09-16T13:29:46Z</time>
      </trkpt>
      <trkpt lat="40.250917" lon="-4.770100">
        <ele>1337.0</ele>
        <time>2018-09-16T13:29:47Z</time>
      </trkpt>
      <trkpt lat="40.250833" lon="-4.770117">
        <ele>1337.0</ele>
        <time>2018-09-16T13:29:48Z</time>
      </trkpt>
      <trkpt lat="40.250767" lon="-4.770133">
        <ele>1336.0</ele>
        <time>2018-09-16T13:29:49Z</time>
      </trkpt>
      <trkpt lat="40.250700" lon="-4.770200">
        <ele>1335.0</ele>
        <time>2018-09-16T13:29:50Z</time>
      </trkpt>
      <trkpt lat="40.250650" lon="-4.770267">
        <ele>1335.0</ele>
        <time>2018-09-16T13:29:51Z</time>
      </trkpt>
      <trkpt lat="40.250600" lon="-4.770367">
        <ele>1335.0</ele>
        <time>2018-09-16T13:29:52Z</time>
      </trkpt>
      <trkpt lat="40.250600" lon="-4.770467">
        <ele>1336.0</ele>
        <time>2018-09-16T13:29:53Z</time>
      </trkpt>
      <trkpt lat="40.250633" lon="-4.770567">
        <ele>1337.0</ele>
        <time>2018-09-16T13:29:54Z</time>
      </trkpt>
      <trkpt lat="40.250683" lon="-4.770650">
        <ele>1337.0</ele>
        <time>2018-09-16T13:29:55Z</time>
      </trkpt>
      <trkpt lat="40.250767" lon="-4.770700">
        <ele>1337.0</ele>
        <time>2018-09-16T13:29:56Z</time>
      </trkpt>
      <trkpt lat="40.250867" lon="-4.770717">
        <ele>1337.0</ele>
        <time>2018-09-16T13:29:57Z</time>
      </trkpt>
      <trkpt lat="40.250983" lon="-4.770700">
        <ele>1338.0</ele>
        <time>2018-09-16T13:29:58Z</time>
      </trkpt>
      <trkpt lat="40.251083" lon="-4.770650">
        <ele>1339.0</ele>
        <time>2018-09-16T13:29:59Z</time>
      </trkpt>
      <trkpt lat="40.251183" lon="-4.770567">
        <ele>1341.0</ele>
        <time>2018-09-16T13:30:00Z</time>
      </trkpt>
      <trkpt lat="40.251250" lon="-4.770467">
        <ele>1343.0</ele>
        <time>2018-09-16T13:30:01Z</time>
      </trkpt>
      <trkpt lat="40.251283" lon="-4.770350">
        <ele>1343.0</ele>
        <time>2018-09-16T13:30:02Z</time>
      </trkpt>
      <trkpt lat="40.251317" lon="-4.770217">
        <ele>1343.0</ele>
        <time>2018-09-16T13:30:03Z</time>
      </trkpt>
      <trkpt lat="40.251333" lon="-4.770083">
        <ele>1343.0</ele>
        <time>2018-09-16T13:30:04Z</time>
      </trkpt>
      <trkpt lat="40.251350" lon="-4.769950">
        <ele>1343.0</ele>
        <time>2018-09-16T13:30:05Z</time>
      </trkpt>
      <trkpt lat="40.251350" lon="-4.769817">
        <ele>1344.0</ele>
        <time>2018-09-16T13:30:06Z</time>
      </trkpt>
      <trkpt lat="40.251317" lon="-4.769683">
        <ele>1345.0</ele>
        <time>2018-09-16T13:30:07Z</time>
      </trkpt>
      <trkpt lat="40.251267" lon="-4.769583">
        <ele>1345.0</ele>
        <time>2018-09-16T13:30:08Z</time>
      </trkpt>
      <trkpt lat="40.251183" lon="-4.769483">
        <ele>1345.0</ele>
        <time>2018-09-16T13:30:09Z</time>
      </trkpt>
      <trkpt lat="40.251100" lon="-4.769433">
        <ele>1346.0</ele>
        <time>2018-09-16T13:30:10Z</time>
      </trkpt>
      <trkpt lat="40.251000" lon="-4.769417">
        <ele>1347.0</ele>
        <time>2018-09-16T13:30:11Z</time>
      </trkpt>
      <trkpt lat="40.250933" lon="-4.769450">
        <ele>1348.0</ele>
        <time>2018-09-16T13:30:12Z</time>
      </trkpt>
      <trkpt lat="40.250867" lon="-4.769517">
        <ele>1349.0</ele>
        <time>2018-09-16T13:30:13Z</time>
      </trkpt>
      <trkpt lat="40.250833" lon="-4.769583">
        <ele>1349.0</ele>
        <time>2018-09-16T13:30:14Z</time>
      </trkpt>
      <trkpt lat="40.250817" lon="-4.769683">
        <ele>1349.0</ele>
        <time>2018-09-16T13:30:15Z</time>
      </trkpt>
      <trkpt lat="40.250833" lon="-4.769783">
        <ele>1349.0</ele>
        <time>2018-09-16T13:30:16Z</time>
      </trkpt>
      <trkpt lat="40.250850" lon="-4.769883">
        <ele>1349.0</ele>
        <time>2018-09-16T13:30:17Z</time>
      </trkpt>
      <trkpt lat="40.250917" lon="-4.769967">
        <ele>1348.0</ele>
        <time>2018-09-16T13:30:18Z</time>
      </trkpt>
      <trkpt lat="40.250983" lon="-4.770050">
        <ele>1348.0</ele>
        <time>2018-09-16T13:30:19Z</time>
      </trkpt>
      <trkpt lat="40.251083" lon="-4.770100">
        <ele>1349.0</ele>
        <time>2018-09-16T13:30:20Z</time>
      </trkpt>
      <trkpt lat="40.251183" lon="-4.770117">
        <ele>1350.0</ele>
        <time>2018-09-16T13:30:21Z</time>
      </trkpt>
      <trkpt lat="40.251283" lon="-4.770083">
        <ele>1351.0</ele>
        <time>2018-09-16T13:30:22Z</time>
      </trkpt>
      <trkpt lat="40.251383" lon="-4.770033">
        <ele>1351.0</ele>
        <time>2018-09-16T13:30:23Z</time>
      </trkpt>
      <trkpt lat="40.251483" lon="-4.769950">
        <ele>1352.0</ele>
        <time>2018-09-16T13:30:24Z</time>
      </trkpt>
      <trkpt lat="40.251567" lon="-4.769850">
        <ele>1353.0</ele>
        <time>2018-09-16T13:30:25Z</time>
      </trkpt>
      <trkpt lat="40.251633" lon="-4.769733">
        <ele>1353.0</ele>
        <time>2018-09-16T13:30:26Z</time>
      </trkpt>
      <trkpt lat="40.251683" lon="-4.769600">
        <ele>1354.0</ele>
        <time>2018-09-16T13:30:27Z</time>
      </trkpt>
      <trkpt lat="40.251717" lon="-4.769450">
        <ele>1355.0</ele>
        <time>2018-09-16T13:30:28Z</time>
      </trkpt>
      <trkpt lat="40.251717" lon="-4.769300">
        <ele>1355.0</ele>
        <time>2018-09-16T13:30:29Z</time>
      </trkpt>
      <trkpt lat="40.251683" lon="-4.769167">
        <ele>1356.0</ele>
        <time>2018-09-16T13:30:30Z</time>
      </trkpt>
      <trkpt lat="40.251650" lon="-4.769033">
        <ele>1358.0</ele>
        <time>2018-09-16T13:30:31Z</time>
      </trkpt>
      <trkpt lat="40.251583" lon="-4.768950">
        <ele>1360.0</ele>
        <time>2018-09-16T13:30:32Z</time>
      </trkpt>
      <trkpt lat="40.251517" lon="-4.768900">
        <ele>1361.0</ele>
        <time>2018-09-16T13:30:33Z</time>
      </trkpt>
      <trkpt lat="40.251450" lon="-4.768883">
        <ele>1361.0</ele>
        <time>2018-09-16T13:30:34Z</time>
      </trkpt>
      <trkpt lat="40.251367" lon="-4.768883">
        <ele>1361.0</ele>
        <time>2018-09-16T13:30:35Z</time>
      </trkpt>
      <trkpt lat="40.251300" lon="-4.768883">
        <ele>1362.0</ele>
        <time>2018-09-16T13:30:36Z</time>
      </trkpt>
      <trkpt lat="40.251233" lon="-4.768917">
        <ele>1362.0</ele>
        <time>2018-09-16T13:30:37Z</time>
      </trkpt>
      <trkpt lat="40.251167" lon="-4.768983">
        <ele>1361.0</ele>
        <time>2018-09-16T13:30:38Z</time>
      </trkpt>
      <trkpt lat="40.251133" lon="-4.769083">
        <ele>1361.0</ele>
        <time>2018-09-16T13:30:39Z</time>
      </trkpt>
      <trkpt lat="40.251133" lon="-4.769217">
        <ele>1360.0</ele>
        <time>2018-09-16T13:30:40Z</time>
      </trkpt>
      <trkpt lat="40.251150" lon="-4.769333">
        <ele>1361.0</ele>
        <time>2018-09-16T13:30:41Z</time>
      </trkpt>
      <trkpt lat="40.251200" lon="-4.769433">
        <ele>1363.0</ele>
        <time>2018-09-16T13:30:42Z</time>
      </trkpt>
      <trkpt lat="40.251267" lon="-4.769500">
        <ele>1364.0</ele>
        <time>2018-09-16T13:30:43Z</time>
      </trkpt>
      <trkpt lat="40.251350" lon="-4.769550">
        <ele>1364.0</ele>
        <time>2018-09-16T13:30:44Z</time>
      </trkpt>
      <trkpt lat="40.251450" lon="-4.769567">
        <ele>1364.0</ele>
        <time>2018-09-16T13:30:45Z</time>
      </trkpt>
      <trkpt lat="40.251567" lon="-4.769567">
        <ele>1364.0</ele>
        <time>2018-09-16T13:30:46Z</time>
      </trkpt>
      <trkpt lat="40.251667" lon="-4.769533">
        <ele>1365.0</ele>
        <time>2018-09-16T13:30:47Z</time>
      </trkpt>
      <trkpt lat="40.251767" lon="-4.769467">
        <ele>1366.0</ele>
        <time>2018-09-16T13:30:48Z</time>
      </trkpt>
      <trkpt lat="40.251850" lon="-4.769367">
        <ele>1366.0</ele>
        <time>2018-09-16T13:30:49Z</time>
      </trkpt>
      <trkpt lat="40.251917" lon="-4.769233">
        <ele>1367.0</ele>
        <time>2018-09-16T13:30:50Z</time>
      </trkpt>
      <trkpt lat="40.251950" lon="-4.769100">
        <ele>1369.0</ele>
        <time>2018-09-16T13:30:51Z</time>
      </trkpt>
      <trkpt lat="40.251950" lon="-4.768950">
        <ele>1370.0</ele>
        <time>2018-09-16T13:30:52Z</time>
      </trkpt>
      <trkpt lat="40.251933" lon="-4.768817">
        <ele>1371.0</ele>
        <time>2018-09-16T13:30:53Z</time>
      </trkpt>
      <trkpt lat="40.251883" lon="-4.768700">
        <ele>1372.0</ele>
        <time>2018-09-16T13:30:54Z</time>
      </trkpt>
      <trkpt lat="40.251833" lon="-4.768600">
        <ele>1373.0</ele>
        <time>2018-09-16T13:30:55Z</time>
      </trkpt>
      <trkpt lat="40.251767" lon="-4.768517">
        <ele>1375.0</ele>
        <time>2018-09-16T13:30:56Z</time>
      </trkpt>
      <trkpt lat="40.251700" lon="-4.768467">
        <ele>1375.0</ele>
        <time>2018-09-16T13:30:57Z</time>
      </trkpt>
      <trkpt lat="40.251633" lon="-4.768433">
        <ele>1376.0</ele>
        <time>2018-09-16T13:30:58Z</time>
      </trkpt>
      <trkpt lat="40.251550" lon="-4.768417">
        <ele>1375.0</ele>
        <time>2018-09-16T13:30:59Z</time>
      </trkpt>
      <trkpt lat="40.251467" lon="-4.768433">
        <ele>1374.0</ele>
        <time>2018-09-16T13:31:00Z</time>
      </trkpt>
      <trkpt lat="40.251383" lon="-4.768467">
        <ele>1375.0</ele>
        <time>2018-09-16T13:31:01Z</time>
      </trkpt>
      <trkpt lat="40.251333" lon="-4.768533">
        <ele>1376.0</ele>
        <time>2018-09-16T13:31:02Z</time>
      </trkpt>
      <trkpt lat="40.251283" lon="-4.768617">
        <ele>1376.0</ele>
        <time>2018-09-16T13:31:03Z</time>
      </trkpt>
      <trkpt lat="40.251283" lon="-4.768733">
        <ele>1376.0</ele>
        <time>2018-09-16T13:31:04Z</time>
      </trkpt>
      <trkpt lat="40.251283" lon="-4.768833">
        <ele>1376.0</ele>
        <time>2018-09-16T13:31:05Z</time>
      </trkpt>
      <trkpt lat="40.251300" lon="-4.768933">
        <ele>1377.0</ele>
        <time>2018-09-16T13:31:06Z</time>
      </trkpt>
      <trkpt lat="40.251350" lon="-4.769033">
        <ele>1377.0</ele>
        <time>2018-09-16T13:31:07Z</time>
      </trkpt>
      <trkpt lat="40.251433" lon="-4.769100">
        <ele>1377.0</ele>
        <time>2018-09-16T13:31:08Z</time>
      </trkpt>
      <trkpt lat="40.251533" lon="-4.769150">
        <ele>1376.0</ele>
        <time>2018-09-16T13:31:09Z</time>
      </trkpt>
      <trkpt lat="40.251633" lon="-4.769183">
        <ele>1376.0</ele>
        <time>2018-09-16T13:31:10Z</time>
      </trkpt>
      <trkpt lat="40.251733" lon="-4.769183">
        <ele>1377.0</ele>
        <time>2018-09-16T13:31:11Z</time>
      </trkpt>
      <trkpt lat="40.251833" lon="-4.769133">
        <ele>1377.0</ele>
        <time>2018-09-16T13:31:12Z</time>
      </trkpt>
      <trkpt lat="40.251933" lon="-4.769050">
        <ele>1377.0</ele>
        <time>2018-09-16T13:31:13Z</time>
      </trkpt>
      <trkpt lat="40.252017" lon="-4.768933">
        <ele>1377.0</ele>
        <time>2018-09-16T13:31:14Z</time>
      </trkpt>
      <trkpt lat="40.252067" lon="-4.768800">
        <ele>1377.0</ele>
        <time>2018-09-16T13:31:15Z</time>
      </trkpt>
      <trkpt lat="40.252100" lon="-4.768667">
        <ele>1378.0</ele>
        <time>2018-09-16T13:31:16Z</time>
      </trkpt>
      <trkpt lat="40.252117" lon="-4.768517">
        <ele>1379.0</ele>
        <time>2018-09-16T13:31:17Z</time>
      </trkpt>
      <trkpt lat="40.252083" lon="-4.768383">
        <ele>1380.0</ele>
        <time>2018-09-16T13:31:18Z</time>
      </trkpt>
      <trkpt lat="40.252050" lon="-4.768267">
        <ele>1381.0</ele>
        <time>2018-09-16T13:31:19Z</time>
      </trkpt>
      <trkpt lat="40.251983" lon="-4.768167">
        <ele>1383.0</ele>
        <time>2018-09-16T13:31:20Z</time>
      </trkpt>
      <trkpt lat="40.251917" lon="-4.768117">
        <ele>1383.0</ele>
        <time>2018-09-16T13:31:21Z</time>
      </trkpt>
      <trkpt lat="40.251833" lon="-4.768083">
        <ele>1384.0</ele>
        <time>2018-09-16T13:31:22Z</time>
      </trkpt>
      <trkpt lat="40.251750" lon="-4.768083">
        <ele>1384.0</ele>
        <time>2018-09-16T13:31:23Z</time>
      </trkpt>
      <trkpt lat="40.251683" lon="-4.768117">
        <ele>1384.0</ele>
        <time>2018-09-16T13:31:24Z</time>
      </trkpt>
      <trkpt lat="40.251617" lon="-4.768183">
        <ele>1385.0</ele>
        <time>2018-09-16T13:31:25Z</time>
      </trkpt>
      <trkpt lat="40.251583" lon="-4.768267">
        <ele>1385.0</ele>
        <time>2018-09-16T13:31:26Z</time>
      </trkpt>
      <trkpt lat="40.251567" lon="-4.768367">
        <ele>1386.0</ele>
        <time>2018-09-16T13:31:27Z</time>
      </trkpt>
      <trkpt lat="40.251583" lon="-4.768467">
        <ele>1387.0</ele>
        <time>2018-09-16T13:31:28Z</time>
      </trkpt>
      <trkpt lat="40.251617" lon="-4.768567">
        <ele>1387.0</ele>
        <time>2018-09-16T13:31:29Z</time>
      </trkpt>
      <trkpt lat="40.251683" lon="-4.768650">
        <ele>1386.0</ele>
        <time>2018-09-16T13:31:30Z</time>
      </trkpt>
      <trkpt lat="40.251767" lon="-4.768717">
        <ele>1385.0</ele>
        <time>2018-09-16T13:31:31Z</time>
      </trkpt>
      <trkpt lat="40.251867" lon="-4.768767">
        <ele>1384.0</ele>
        <time>2018-09-16T13:31:32Z</time>
      </trkpt>
      <trkpt lat="40.251967" lon="-4.768767">
        <ele>1384.0</ele>
        <time>2018-09-16T13:31:33Z</time>
      </trkpt>
      <trkpt lat="40.252083" lon="-4.768717">
        <ele>1384.0</ele>
        <time>2018-09-16T13:31:34Z</time>
      </trkpt>
      <trkpt lat="40.252167" lon="-4.768633">
        <ele>1383.0</ele>
        <time>2018-09-16T13:31:35Z</time>
      </trkpt>
      <trkpt lat="40.252233" lon="-4.768500">
        <ele>1382.0</ele>
        <time>2018-09-16T13:31:36Z</time>
      </trkpt>
      <trkpt lat="40.252267" lon="-4.768367">
        <ele>1381.0</ele>
        <time>2018-09-16T13:31:37Z</time>
      </trkpt>
      <trkpt lat="40.252300" lon="-4.768217">
        <ele>1381.0</ele>
        <time>2018-09-16T13:31:38Z</time>
      </trkpt>
      <trkpt lat="40.252300" lon="-4.768067">
        <ele>1381.0</ele>
        <time>2018-09-16T13:31:39Z</time>
      </trkpt>
      <trkpt lat="40.252283" lon="-4.767917">
        <ele>1381.0</ele>
        <time>2018-09-16T13:31:40Z</time>
      </trkpt>
      <trkpt lat="40.252250" lon="-4.767783">
        <ele>1381.0</ele>
        <time>2018-09-16T13:31:41Z</time>
      </trkpt>
      <trkpt lat="40.252183" lon="-4.767667">
        <ele>1382.0</ele>
        <time>2018-09-16T13:31:42Z</time>
      </trkpt>
      <trkpt lat="40.252133" lon="-4.767583">
        <ele>1383.0</ele>
        <time>2018-09-16T13:31:43Z</time>
      </trkpt>
      <trkpt lat="40.252067" lon="-4.767517">
        <ele>1383.0</ele>
        <time>2018-09-16T13:31:44Z</time>
      </trkpt>
      <trkpt lat="40.252000" lon="-4.767450">
        <ele>1382.0</ele>
        <time>2018-09-16T13:31:45Z</time>
      </trkpt>
      <trkpt lat="40.251933" lon="-4.767417">
        <ele>1381.0</ele>
        <time>2018-09-16T13:31:46Z</time>
      </trkpt>
      <trkpt lat="40.251867" lon="-4.767383">
        <ele>1381.0</ele>
        <time>2018-09-16T13:31:47Z</time>
      </trkpt>
      <trkpt lat="40.251783" lon="-4.767350">
        <ele>1380.0</ele>
        <time>2018-09-16T13:31:48Z</time>
      </trkpt>
      <trkpt lat="40.251717" lon="-4.767333">
        <ele>1379.0</ele>
        <time>2018-09-16T13:31:49Z</time>
      </trkpt>
      <trkpt lat="40.251650" lon="-4.767317">
        <ele>1377.0</ele>
        <time>2018-09-16T13:31:50Z</time>
      </trkpt>
      <trkpt lat="40.251583" lon="-4.767283">
        <ele>1376.0</ele>
        <time>2018-09-16T13:31:51Z</time>
      </trkpt>
      <trkpt lat="40.251500" lon="-4.767217">
        <ele>1375.0</ele>
        <time>2018-09-16T13:31:52Z</time>
      </trkpt>
      <trkpt lat="40.251433" lon="-4.767133">
        <ele>1374.0</ele>
        <time>2018-09-16T13:31:53Z</time>
      </trkpt>
      <trkpt lat="40.251367" lon="-4.767033">
        <ele>1374.0</ele>
        <time>2018-09-16T13:31:54Z</time>
      </trkpt>
      <trkpt lat="40.251317" lon="-4.766933">
        <ele>1374.0</ele>
        <time>2018-09-16T13:31:55Z</time>
      </trkpt>
      <trkpt lat="40.251267" lon="-4.766850">
        <ele>1375.0</ele>
        <time>2018-09-16T13:31:56Z</time>
      </trkpt>
      <trkpt lat="40.251217" lon="-4.766767">
        <ele>1375.0</ele>
        <time>2018-09-16T13:31:57Z</time>
      </trkpt>
      <trkpt lat="40.251167" lon="-4.766683">
        <ele>1375.0</ele>
        <time>2018-09-16T13:31:58Z</time>
      </trkpt>
      <trkpt lat="40.251117" lon="-4.766600">
        <ele>1376.0</ele>
        <time>2018-09-16T13:31:59Z</time>
      </trkpt>
      <trkpt lat="40.251050" lon="-4.766517">
        <ele>1378.0</ele>
        <time>2018-09-16T13:32:00Z</time>
      </trkpt>
      <trkpt lat="40.250983" lon="-4.766433">
        <ele>1379.0</ele>
        <time>2018-09-16T13:32:01Z</time>
      </trkpt>
      <trkpt lat="40.250917" lon="-4.766367">
        <ele>1379.0</ele>
        <time>2018-09-16T13:32:02Z</time>
      </trkpt>
      <trkpt lat="40.250850" lon="-4.766333">
        <ele>1379.0</ele>
        <time>2018-09-16T13:32:03Z</time>
      </trkpt>
      <trkpt lat="40.250783" lon="-4.766333">
        <ele>1377.0</ele>
        <time>2018-09-16T13:32:04Z</time>
      </trkpt>
      <trkpt lat="40.250717" lon="-4.766383">
        <ele>1375.0</ele>
        <time>2018-09-16T13:32:05Z</time>
      </trkpt>
      <trkpt lat="40.250667" lon="-4.766450">
        <ele>1373.0</ele>
        <time>2018-09-16T13:32:06Z</time>
      </trkpt>
      <trkpt lat="40.250650" lon="-4.766533">
        <ele>1373.0</ele>
        <time>2018-09-16T13:32:07Z</time>
      </trkpt>
      <trkpt lat="40.250650" lon="-4.766617">
        <ele>1372.0</ele>
        <time>2018-09-16T13:32:08Z</time>
      </trkpt>
      <trkpt lat="40.250667" lon="-4.766717">
        <ele>1372.0</ele>
        <time>2018-09-16T13:32:09Z</time>
      </trkpt>
      <trkpt lat="40.250717" lon="-4.766800">
        <ele>1371.0</ele>
        <time>2018-09-16T13:32:10Z</time>
      </trkpt>
      <trkpt lat="40.250783" lon="-4.766867">
        <ele>1371.0</ele>
        <time>2018-09-16T13:32:11Z</time>
      </trkpt>
      <trkpt lat="40.250883" lon="-4.766917">
        <ele>1371.0</ele>
        <time>2018-09-16T13:32:12Z</time>
      </trkpt>
      <trkpt lat="40.250983" lon="-4.766950">
        <ele>1371.0</ele>
        <time>2018-09-16T13:32:13Z</time>
      </trkpt>
      <trkpt lat="40.251100" lon="-4.766967">
        <ele>1370.0</ele>
        <time>2018-09-16T13:32:14Z</time>
      </trkpt>
      <trkpt lat="40.251217" lon="-4.766967">
        <ele>1370.0</ele>
        <time>2018-09-16T13:32:15Z</time>
      </trkpt>
      <trkpt lat="40.251333" lon="-4.766917">
        <ele>1369.0</ele>
        <time>2018-09-16T13:32:16Z</time>
      </trkpt>
      <trkpt lat="40.251450" lon="-4.766833">
        <ele>1368.0</ele>
        <time>2018-09-16T13:32:17Z</time>
      </trkpt>
      <trkpt lat="40.251550" lon="-4.766733">
        <ele>1368.0</ele>
        <time>2018-09-16T13:32:18Z</time>
      </trkpt>
      <trkpt lat="40.251633" lon="-4.766617">
        <ele>1368.0</ele>
        <time>2018-09-16T13:32:19Z</time>
      </trkpt>
      <trkpt lat="40.251700" lon="-4.766517">
        <ele>1369.0</ele>
        <time>2018-09-16T13:32:20Z</time>
      </trkpt>
      <trkpt lat="40.251733" lon="-4.766383">
        <ele>1369.0</ele>
        <time>2018-09-16T13:32:21Z</time>
      </trkpt>
      <trkpt lat="40.251750" lon="-4.766267">
        <ele>1367.0</ele>
        <time>2018-09-16T13:32:22Z</time>
      </trkpt>
      <trkpt lat="40.251750" lon="-4.766133">
        <ele>1366.0</ele>
        <time>2018-09-16T13:32:23Z</time>
      </trkpt>
      <trkpt lat="40.251733" lon="-4.766000">
        <ele>1365.0</ele>
        <time>2018-09-16T13:32:24Z</time>
      </trkpt>
      <trkpt lat="40.251717" lon="-4.765867">
        <ele>1365.0</ele>
        <time>2018-09-16T13:32:25Z</time>
      </trkpt>
      <trkpt lat="40.251700" lon="-4.765767">
        <ele>1365.0</ele>
        <time>2018-09-16T13:32:26Z</time>
      </trkpt>
      <trkpt lat="40.251667" lon="-4.765667">
        <ele>1365.0</ele>
        <time>2018-09-16T13:32:27Z</time>
      </trkpt>
      <trkpt lat="40.251600" lon="-4.765600">
        <ele>1364.0</ele>
        <time>2018-09-16T13:32:28Z</time>
      </trkpt>
      <trkpt lat="40.251533" lon="-4.765533">
        <ele>1363.0</ele>
        <time>2018-09-16T13:32:29Z</time>
      </trkpt>
      <trkpt lat="40.251450" lon="-4.765483">
        <ele>1365.0</ele>
        <time>2018-09-16T13:32:30Z</time>
      </trkpt>
      <trkpt lat="40.251383" lon="-4.765433">
        <ele>1366.0</ele>
        <time>2018-09-16T13:32:31Z</time>
      </trkpt>
      <trkpt lat="40.251317" lon="-4.765383">
        <ele>1367.0</ele>
        <time>2018-09-16T13:32:32Z</time>
      </trkpt>
      <trkpt lat="40.251250" lon="-4.765333">
        <ele>1368.0</ele>
        <time>2018-09-16T13:32:33Z</time>
      </trkpt>
      <trkpt lat="40.251183" lon="-4.765283">
        <ele>1368.0</ele>
        <time>2018-09-16T13:32:34Z</time>
      </trkpt>
      <trkpt lat="40.251117" lon="-4.765200">
        <ele>1367.0</ele>
        <time>2018-09-16T13:32:35Z</time>
      </trkpt>
      <trkpt lat="40.251050" lon="-4.765117">
        <ele>1367.0</ele>
        <time>2018-09-16T13:32:36Z</time>
      </trkpt>
      <trkpt lat="40.250983" lon="-4.765033">
        <ele>1367.0</ele>
        <time>2018-09-16T13:32:37Z</time>
      </trkpt>
      <trkpt lat="40.250900" lon="-4.764967">
        <ele>1368.0</ele>
        <time>2018-09-16T13:32:38Z</time>
      </trkpt>
      <trkpt lat="40.250850" lon="-4.764883">
        <ele>1368.0</ele>
        <time>2018-09-16T13:32:39Z</time>
      </trkpt>
      <trkpt lat="40.250783" lon="-4.764817">
        <ele>1369.0</ele>
        <time>2018-09-16T13:32:40Z</time>
      </trkpt>
      <trkpt lat="40.250750" lon="-4.764733">
        <ele>1368.0</ele>
        <time>2018-09-16T13:32:41Z</time>
      </trkpt>
      <trkpt lat="40.250717" lon="-4.764650">
        <ele>1366.0</ele>
        <time>2018-09-16T13:32:42Z</time>
      </trkpt>
      <trkpt lat="40.250667" lon="-4.764567">
        <ele>1364.0</ele>
        <time>2018-09-16T13:32:43Z</time>
      </trkpt>
      <trkpt lat="40.250633" lon="-4.764483">
        <ele>1363.0</ele>
        <time>2018-09-16T13:32:44Z</time>
      </trkpt>
      <trkpt lat="40.250583" lon="-4.764400">
        <ele>1361.0</ele>
        <time>2018-09-16T13:32:45Z</time>
      </trkpt>
      <trkpt lat="40.250517" lon="-4.764333">
        <ele>1360.0</ele>
        <time>2018-09-16T13:32:46Z</time>
      </trkpt>
      <trkpt lat="40.250450" lon="-4.764283">
        <ele>1358.0</ele>
        <time>2018-09-16T13:32:47Z</time>
      </trkpt>
      <trkpt lat="40.250383" lon="-4.764217">
        <ele>1357.0</ele>
        <time>2018-09-16T13:32:48Z</time>
      </trkpt>
      <trkpt lat="40.250317" lon="-4.764183">
        <ele>1355.0</ele>
        <time>2018-09-16T13:32:49Z</time>
      </trkpt>
      <trkpt lat="40.250250" lon="-4.764133">
        <ele>1353.0</ele>
        <time>2018-09-16T13:32:50Z</time>
      </trkpt>
      <trkpt lat="40.250183" lon="-4.764083">
        <ele>1351.0</ele>
        <time>2018-09-16T13:32:51Z</time>
      </trkpt>
      <trkpt lat="40.250117" lon="-4.764050">
        <ele>1349.0</ele>
        <time>2018-09-16T13:32:52Z</time>
      </trkpt>
      <trkpt lat="40.250050" lon="-4.764000">
        <ele>1347.0</ele>
        <time>2018-09-16T13:32:53Z</time>
      </trkpt>
      <trkpt lat="40.249967" lon="-4.763950">
        <ele>1346.0</ele>
        <time>2018-09-16T13:32:54Z</time>
      </trkpt>
      <trkpt lat="40.249900" lon="-4.763900">
        <ele>1344.0</ele>
        <time>2018-09-16T13:32:55Z</time>
      </trkpt>
      <trkpt lat="40.249833" lon="-4.763850">
        <ele>1343.0</ele>
        <time>2018-09-16T13:32:56Z</time>
      </trkpt>
      <trkpt lat="40.249767" lon="-4.763800">
        <ele>1341.0</ele>
        <time>2018-09-16T13:32:57Z</time>
      </trkpt>
      <trkpt lat="40.249700" lon="-4.763767">
        <ele>1340.0</ele>
        <time>2018-09-16T13:32:58Z</time>
      </trkpt>
      <trkpt lat="40.249617" lon="-4.763717">
        <ele>1338.0</ele>
        <time>2018-09-16T13:32:59Z</time>
      </trkpt>
      <trkpt lat="40.249550" lon="-4.763683">
        <ele>1337.0</ele>
        <time>2018-09-16T13:33:00Z</time>
      </trkpt>
      <trkpt lat="40.249483" lon="-4.763633">
        <ele>1336.0</ele>
        <time>2018-09-16T13:33:01Z</time>
      </trkpt>
      <trkpt lat="40.249417" lon="-4.763583">
        <ele>1335.0</ele>
        <time>2018-09-16T13:33:02Z</time>
      </trkpt>
      <trkpt lat="40.249350" lon="-4.763533">
        <ele>1333.0</ele>
        <time>2018-09-16T13:33:03Z</time>
      </trkpt>
      <trkpt lat="40.249283" lon="-4.763467">
        <ele>1331.0</ele>
        <time>2018-09-16T13:33:04Z</time>
      </trkpt>
      <trkpt lat="40.249217" lon="-4.763417">
        <ele>1329.0</ele>
        <time>2018-09-16T13:33:05Z</time>
      </trkpt>
      <trkpt lat="40.249150" lon="-4.763350">
        <ele>1327.0</ele>
        <time>2018-09-16T13:33:06Z</time>
      </trkpt>
      <trkpt lat="40.249083" lon="-4.763283">
        <ele>1325.0</ele>
        <time>2018-09-16T13:33:07Z</time>
      </trkpt>
      <trkpt lat="40.249017" lon="-4.763217">
        <ele>1323.0</ele>
        <time>2018-09-16T13:33:08Z</time>
      </trkpt>
      <trkpt lat="40.248950" lon="-4.763150">
        <ele>1322.0</ele>
        <time>2018-09-16T13:33:09Z</time>
      </trkpt>
      <trkpt lat="40.248883" lon="-4.763083">
        <ele>1321.0</ele>
        <time>2018-09-16T13:33:10Z</time>
      </trkpt>
      <trkpt lat="40.248833" lon="-4.763033">
        <ele>1320.0</ele>
        <time>2018-09-16T13:33:11Z</time>
      </trkpt>
      <trkpt lat="40.248767" lon="-4.762983">
        <ele>1319.0</ele>
        <time>2018-09-16T13:33:12Z</time>
      </trkpt>
      <trkpt lat="40.248717" lon="-4.762933">
        <ele>1317.0</ele>
        <time>2018-09-16T13:33:13Z</time>
      </trkpt>
      <trkpt lat="40.248650" lon="-4.762900">
        <ele>1316.0</ele>
        <time>2018-09-16T13:33:14Z</time>
      </trkpt>
      <trkpt lat="40.248600" lon="-4.762850">
        <ele>1313.0</ele>
        <time>2018-09-16T13:33:15Z</time>
      </trkpt>
      <trkpt lat="40.248550" lon="-4.762817">
        <ele>1311.0</ele>
        <time>2018-09-16T13:33:16Z</time>
      </trkpt>
      <trkpt lat="40.248483" lon="-4.762767">
        <ele>1308.0</ele>
        <time>2018-09-16T13:33:17Z</time>
      </trkpt>
      <trkpt lat="40.248417" lon="-4.762717">
        <ele>1306.0</ele>
        <time>2018-09-16T13:33:18Z</time>
      </trkpt>
      <trkpt lat="40.248350" lon="-4.762667">
        <ele>1303.0</ele>
        <time>2018-09-16T13:33:19Z</time>
      </trkpt>
      <trkpt lat="40.248283" lon="-4.762600">
        <ele>1300.0</ele>
        <time>2018-09-16T13:33:20Z</time>
      </trkpt>
      <trkpt lat="40.248217" lon="-4.762533">
        <ele>1297.0</ele>
        <time>2018-09-16T13:33:21Z</time>
      </trkpt>
      <trkpt lat="40.248150" lon="-4.762467">
        <ele>1295.0</ele>
        <time>2018-09-16T13:33:22Z</time>
      </trkpt>
      <trkpt lat="40.248083" lon="-4.762400">
        <ele>1292.0</ele>
        <time>2018-09-16T13:33:23Z</time>
      </trkpt>
      <trkpt lat="40.248017" lon="-4.762333">
        <ele>1290.0</ele>
        <time>2018-09-16T13:33:24Z</time>
      </trkpt>
      <trkpt lat="40.247967" lon="-4.762267">
        <ele>1288.0</ele>
        <time>2018-09-16T13:33:25Z</time>
      </trkpt>
      <trkpt lat="40.247900" lon="-4.762200">
        <ele>1286.0</ele>
        <time>2018-09-16T13:33:26Z</time>
      </trkpt>
      <trkpt lat="40.247833" lon="-4.762133">
        <ele>1283.0</ele>
        <time>2018-09-16T13:33:27Z</time>
      </trkpt>
      <trkpt lat="40.247767" lon="-4.762067">
        <ele>1280.0</ele>
        <time>2018-09-16T13:33:28Z</time>
      </trkpt>
      <trkpt lat="40.247700" lon="-4.762017">
        <ele>1278.0</ele>
        <time>2018-09-16T13:33:29Z</time>
      </trkpt>
      <trkpt lat="40.247633" lon="-4.761967">
        <ele>1276.0</ele>
        <time>2018-09-16T13:33:30Z</time>
      </trkpt>
      <trkpt lat="40.247583" lon="-4.761917">
        <ele>1273.0</ele>
        <time>2018-09-16T13:33:31Z</time>
      </trkpt>
      <trkpt lat="40.247517" lon="-4.761867">
        <ele>1271.0</ele>
        <time>2018-09-16T13:33:32Z</time>
      </trkpt>
      <trkpt lat="40.247450" lon="-4.761833">
        <ele>1269.0</ele>
        <time>2018-09-16T13:33:33Z</time>
      </trkpt>
      <trkpt lat="40.247383" lon="-4.761783">
        <ele>1266.0</ele>
        <time>2018-09-16T13:33:34Z</time>
      </trkpt>
      <trkpt lat="40.247333" lon="-4.761750">
        <ele>1263.0</ele>
        <time>2018-09-16T13:33:35Z</time>
      </trkpt>
      <trkpt lat="40.247267" lon="-4.761700">
        <ele>1260.0</ele>
        <time>2018-09-16T13:33:36Z</time>
      </trkpt>
      <trkpt lat="40.247183" lon="-4.761683">
        <ele>1257.0</ele>
        <time>2018-09-16T13:33:37Z</time>
      </trkpt>
      <trkpt lat="40.247117" lon="-4.761650">
        <ele>1254.0</ele>
        <time>2018-09-16T13:33:38Z</time>
      </trkpt>
      <trkpt lat="40.247033" lon="-4.761617">
        <ele>1251.0</ele>
        <time>2018-09-16T13:33:39Z</time>
      </trkpt>
      <trkpt lat="40.246967" lon="-4.761583">
        <ele>1247.0</ele>
        <time>2018-09-16T13:33:40Z</time>
      </trkpt>
      <trkpt lat="40.246883" lon="-4.761533">
        <ele>1243.0</ele>
        <time>2018-09-16T13:33:41Z</time>
      </trkpt>
      <trkpt lat="40.246800" lon="-4.761483">
        <ele>1240.0</ele>
        <time>2018-09-16T13:33:42Z</time>
      </trkpt>
      <trkpt lat="40.246733" lon="-4.761450">
        <ele>1237.0</ele>
        <time>2018-09-16T13:33:43Z</time>
      </trkpt>
      <trkpt lat="40.246667" lon="-4.761417">
        <ele>1233.0</ele>
        <time>2018-09-16T13:33:44Z</time>
      </trkpt>
      <trkpt lat="40.246600" lon="-4.761367">
        <ele>1229.0</ele>
        <time>2018-09-16T13:33:45Z</time>
      </trkpt>
      <trkpt lat="40.246533" lon="-4.761300">
        <ele>1225.0</ele>
        <time>2018-09-16T13:33:46Z</time>
      </trkpt>
      <trkpt lat="40.246450" lon="-4.761250">
        <ele>1221.0</ele>
        <time>2018-09-16T13:33:47Z</time>
      </trkpt>
      <trkpt lat="40.246383" lon="-4.761183">
        <ele>1217.0</ele>
        <time>2018-09-16T13:33:48Z</time>
      </trkpt>
      <trkpt lat="40.246300" lon="-4.761150">
        <ele>1213.0</ele>
        <time>2018-09-16T13:33:49Z</time>
      </trkpt>
      <trkpt lat="40.246233" lon="-4.761117">
        <ele>1209.0</ele>
        <time>2018-09-16T13:33:50Z</time>
      </trkpt>
      <trkpt lat="40.246150" lon="-4.761100">
        <ele>1205.0</ele>
        <time>2018-09-16T13:33:51Z</time>
      </trkpt>
      <trkpt lat="40.246067" lon="-4.761067">
        <ele>1200.0</ele>
        <time>2018-09-16T13:33:52Z</time>
      </trkpt>
      <trkpt lat="40.245967" lon="-4.761017">
        <ele>1195.0</ele>
        <time>2018-09-16T13:33:53Z</time>
      </trkpt>
      <trkpt lat="40.245867" lon="-4.760983">
        <ele>1190.0</ele>
        <time>2018-09-16T13:33:54Z</time>
      </trkpt>
      <trkpt lat="40.245767" lon="-4.760933">
        <ele>1187.0</ele>
        <time>2018-09-16T13:33:55Z</time>
      </trkpt>
      <trkpt lat="40.245667" lon="-4.760900">
        <ele>1186.0</ele>
        <time>2018-09-16T13:33:56Z</time>
      </trkpt>
      <trkpt lat="40.245583" lon="-4.760867">
        <ele>1184.0</ele>
        <time>2018-09-16T13:33:57Z</time>
      </trkpt>
      <trkpt lat="40.245517" lon="-4.760833">
        <ele>1182.0</ele>
        <time>2018-09-16T13:33:58Z</time>
      </trkpt>
      <trkpt lat="40.245433" lon="-4.760800">
        <ele>1178.0</ele>
        <time>2018-09-16T13:33:59Z</time>
      </trkpt>
      <trkpt lat="40.245333" lon="-4.760750">
        <ele>1174.0</ele>
        <time>2018-09-16T13:34:00Z</time>
      </trkpt>
      <trkpt lat="40.245233" lon="-4.760717">
        <ele>1170.0</ele>
        <time>2018-09-16T13:34:01Z</time>
      </trkpt>
      <trkpt lat="40.245133" lon="-4.760683">
        <ele>1168.0</ele>
        <time>2018-09-16T13:34:02Z</time>
      </trkpt>
      <trkpt lat="40.245033" lon="-4.760633">
        <ele>1167.0</ele>
        <time>2018-09-16T13:34:03Z</time>
      </trkpt>
      <trkpt lat="40.244950" lon="-4.760600">
        <ele>1165.0</ele>
        <time>2018-09-16T13:34:04Z</time>
      </trkpt>
      <trkpt lat="40.244867" lon="-4.760550">
        <ele>1163.0</ele>
        <time>2018-09-16T13:34:05Z</time>
      </trkpt>
      <trkpt lat="40.244767" lon="-4.760517">
        <ele>1161.0</ele>
        <time>2018-09-16T13:34:06Z</time>
      </trkpt>
      <trkpt lat="40.244683" lon="-4.760483">
        <ele>1158.0</ele>
        <time>2018-09-16T13:34:07Z</time>
      </trkpt>
      <trkpt lat="40.244583" lon="-4.760467">
        <ele>1155.0</ele>
        <time>2018-09-16T13:34:08Z</time>
      </trkpt>
      <trkpt lat="40.244467" lon="-4.760450">
        <ele>1152.0</ele>
        <time>2018-09-16T13:34:09Z</time>
      </trkpt>
      <trkpt lat="40.244367" lon="-4.760417">
        <ele>1151.0</ele>
        <time>2018-09-16T13:34:10Z</time>
      </trkpt>
      <trkpt lat="40.244267" lon="-4.760383">
        <ele>1150.0</ele>
        <time>2018-09-16T13:34:11Z</time>
      </trkpt>
      <trkpt lat="40.244167" lon="-4.760350">
        <ele>1150.0</ele>
        <time>2018-09-16T13:34:12Z</time>
      </trkpt>
      <trkpt lat="40.244083" lon="-4.760300">
        <ele>1149.0</ele>
        <time>2018-09-16T13:34:13Z</time>
      </trkpt>
      <trkpt lat="40.244000" lon="-4.760233">
        <ele>1148.0</ele>
        <time>2018-09-16T13:34:14Z</time>
      </trkpt>
      <trkpt lat="40.243917" lon="-4.760167">
        <ele>1147.0</ele>
        <time>2018-09-16T13:34:15Z</time>
      </trkpt>
      <trkpt lat="40.243817" lon="-4.760083">
        <ele>1145.0</ele>
        <time>2018-09-16T13:34:16Z</time>
      </trkpt>
      <trkpt lat="40.243733" lon="-4.760000">
        <ele>1145.0</ele>
        <time>2018-09-16T13:34:17Z</time>
      </trkpt>
      <trkpt lat="40.243650" lon="-4.759917">
        <ele>1144.0</ele>
        <time>2018-09-16T13:34:18Z</time>
      </trkpt>
      <trkpt lat="40.243583" lon="-4.759817">
        <ele>1144.0</ele>
        <time>2018-09-16T13:34:19Z</time>
      </trkpt>
      <trkpt lat="40.243517" lon="-4.759733">
        <ele>1143.0</ele>
        <time>2018-09-16T13:34:20Z</time>
      </trkpt>
      <trkpt lat="40.243450" lon="-4.759633">
        <ele>1142.0</ele>
        <time>2018-09-16T13:34:21Z</time>
      </trkpt>
      <trkpt lat="40.243367" lon="-4.759533">
        <ele>1141.0</ele>
        <time>2018-09-16T13:34:22Z</time>
      </trkpt>
      <trkpt lat="40.243300" lon="-4.759433">
        <ele>1141.0</ele>
        <time>2018-09-16T13:34:23Z</time>
      </trkpt>
      <trkpt lat="40.243233" lon="-4.759333">
        <ele>1142.0</ele>
        <time>2018-09-16T13:34:24Z</time>
      </trkpt>
      <trkpt lat="40.243183" lon="-4.759233">
        <ele>1143.0</ele>
        <time>2018-09-16T13:34:25Z</time>
      </trkpt>
      <trkpt lat="40.243133" lon="-4.759133">
        <ele>1143.0</ele>
        <time>2018-09-16T13:34:26Z</time>
      </trkpt>
      <trkpt lat="40.243083" lon="-4.759033">
        <ele>1142.0</ele>
        <time>2018-09-16T13:34:27Z</time>
      </trkpt>
      <trkpt lat="40.243017" lon="-4.758917">
        <ele>1141.0</ele>
        <time>2018-09-16T13:34:28Z</time>
      </trkpt>
      <trkpt lat="40.242967" lon="-4.758817">
        <ele>1141.0</ele>
        <time>2018-09-16T13:34:29Z</time>
      </trkpt>
      <trkpt lat="40.242900" lon="-4.758700">
        <ele>1142.0</ele>
        <time>2018-09-16T13:34:30Z</time>
      </trkpt>
      <trkpt lat="40.242833" lon="-4.758600">
        <ele>1143.0</ele>
        <time>2018-09-16T13:34:31Z</time>
      </trkpt>
      <trkpt lat="40.242783" lon="-4.758483">
        <ele>1145.0</ele>
        <time>2018-09-16T13:34:32Z</time>
      </trkpt>
      <trkpt lat="40.242717" lon="-4.758383">
        <ele>1147.0</ele>
        <time>2018-09-16T13:34:33Z</time>
      </trkpt>
      <trkpt lat="40.242667" lon="-4.758300">
        <ele>1148.0</ele>
        <time>2018-09-16T13:34:34Z</time>
      </trkpt>
      <trkpt lat="40.242600" lon="-4.758250">
        <ele>1149.0</ele>
        <time>2018-09-16T13:34:35Z</time>
      </trkpt>
      <trkpt lat="40.242517" lon="-4.758200">
        <ele>1149.0</ele>
        <time>2018-09-16T13:34:36Z</time>
      </trkpt>
      <trkpt lat="40.242433" lon="-4.758150">
        <ele>1150.0</ele>
        <time>2018-09-16T13:34:37Z</time>
      </trkpt>
      <trkpt lat="40.242350" lon="-4.758117">
        <ele>1151.0</ele>
        <time>2018-09-16T13:34:38Z</time>
      </trkpt>
      <trkpt lat="40.242267" lon="-4.758050">
        <ele>1153.0</ele>
        <time>2018-09-16T13:34:39Z</time>
      </trkpt>
      <trkpt lat="40.242183" lon="-4.757983">
        <ele>1156.0</ele>
        <time>2018-09-16T13:34:40Z</time>
      </trkpt>
      <trkpt lat="40.242117" lon="-4.757917">
        <ele>1157.0</ele>
        <time>2018-09-16T13:34:41Z</time>
      </trkpt>
      <trkpt lat="40.242067" lon="-4.757850">
        <ele>1157.0</ele>
        <time>2018-09-16T13:34:42Z</time>
      </trkpt>
      <trkpt lat="40.241983" lon="-4.757750">
        <ele>1156.0</ele>
        <time>2018-09-16T13:34:43Z</time>
      </trkpt>
      <trkpt lat="40.241917" lon="-4.757633">
        <ele>1156.0</ele>
        <time>2018-09-16T13:34:44Z</time>
      </trkpt>
      <trkpt lat="40.241883" lon="-4.757500">
        <ele>1156.0</ele>
        <time>2018-09-16T13:34:45Z</time>
      </trkpt>
      <trkpt lat="40.241867" lon="-4.757350">
        <ele>1157.0</ele>
        <time>2018-09-16T13:34:46Z</time>
      </trkpt>
      <trkpt lat="40.241867" lon="-4.757183">
        <ele>1158.0</ele>
        <time>2018-09-16T13:34:47Z</time>
      </trkpt>
      <trkpt lat="40.241883" lon="-4.757033">
        <ele>1159.0</ele>
        <time>2018-09-16T13:34:48Z</time>
      </trkpt>
      <trkpt lat="40.241917" lon="-4.756867">
        <ele>1159.0</ele>
        <time>2018-09-16T13:34:49Z</time>
      </trkpt>
      <trkpt lat="40.241983" lon="-4.756717">
        <ele>1159.0</ele>
        <time>2018-09-16T13:34:50Z</time>
      </trkpt>
      <trkpt lat="40.242083" lon="-4.756600">
        <ele>1159.0</ele>
        <time>2018-09-16T13:34:51Z</time>
      </trkpt>
      <trkpt lat="40.242200" lon="-4.756533">
        <ele>1160.0</ele>
        <time>2018-09-16T13:34:52Z</time>
      </trkpt>
      <trkpt lat="40.242300" lon="-4.756483">
        <ele>1163.0</ele>
        <time>2018-09-16T13:34:53Z</time>
      </trkpt>
      <trkpt lat="40.242400" lon="-4.756467">
        <ele>1166.0</ele>
        <time>2018-09-16T13:34:54Z</time>
      </trkpt>
      <trkpt lat="40.242467" lon="-4.756450">
        <ele>1167.0</ele>
        <time>2018-09-16T13:34:55Z</time>
      </trkpt>
      <trkpt lat="40.242567" lon="-4.756467">
        <ele>1168.0</ele>
        <time>2018-09-16T13:34:56Z</time>
      </trkpt>
      <trkpt lat="40.242633" lon="-4.756517">
        <ele>1167.0</ele>
        <time>2018-09-16T13:34:57Z</time>
      </trkpt>
      <trkpt lat="40.242700" lon="-4.756600">
        <ele>1168.0</ele>
        <time>2018-09-16T13:34:58Z</time>
      </trkpt>
      <trkpt lat="40.242733" lon="-4.756683">
        <ele>1170.0</ele>
        <time>2018-09-16T13:34:59Z</time>
      </trkpt>
      <trkpt lat="40.242750" lon="-4.756767">
        <ele>1172.0</ele>
        <time>2018-09-16T13:35:00Z</time>
      </trkpt>
      <trkpt lat="40.242783" lon="-4.756850">
        <ele>1174.0</ele>
        <time>2018-09-16T13:35:01Z</time>
      </trkpt>
      <trkpt lat="40.242783" lon="-4.756917">
        <ele>1176.0</ele>
        <time>2018-09-16T13:35:02Z</time>
      </trkpt>
      <trkpt lat="40.242783" lon="-4.756983">
        <ele>1176.0</ele>
        <time>2018-09-16T13:35:03Z</time>
      </trkpt>
      <trkpt lat="40.242733" lon="-4.757050">
        <ele>1175.0</ele>
        <time>2018-09-16T13:35:04Z</time>
      </trkpt>
      <trkpt lat="40.242667" lon="-4.757117">
        <ele>1175.0</ele>
        <time>2018-09-16T13:35:05Z</time>
      </trkpt>
      <trkpt lat="40.242567" lon="-4.757150">
        <ele>1176.0</ele>
        <time>2018-09-16T13:35:06Z</time>
      </trkpt>
      <trkpt lat="40.242483" lon="-4.757183">
        <ele>1179.0</ele>
        <time>2018-09-16T13:35:07Z</time>
      </trkpt>
      <trkpt lat="40.242417" lon="-4.757200">
        <ele>1182.0</ele>
        <time>2018-09-16T13:35:08Z</time>
      </trkpt>
      <trkpt lat="40.242367" lon="-4.757200">
        <ele>1185.0</ele>
        <time>2018-09-16T13:35:09Z</time>
      </trkpt>
      <trkpt lat="40.242317" lon="-4.757183">
        <ele>1185.0</ele>
        <time>2018-09-16T13:35:10Z</time>
      </trkpt>
      <trkpt lat="40.242250" lon="-4.757133">
        <ele>1184.0</ele>
        <time>2018-09-16T13:35:11Z</time>
      </trkpt>
      <trkpt lat="40.242200" lon="-4.757067">
        <ele>1183.0</ele>
        <time>2018-09-16T13:35:12Z</time>
      </trkpt>
      <trkpt lat="40.242117" lon="-4.757000">
        <ele>1181.0</ele>
        <time>2018-09-16T13:35:13Z</time>
      </trkpt>
      <trkpt lat="40.242050" lon="-4.756933">
        <ele>1180.0</ele>
        <time>2018-09-16T13:35:14Z</time>
      </trkpt>
      <trkpt lat="40.241983" lon="-4.756850">
        <ele>1179.0</ele>
        <time>2018-09-16T13:35:15Z</time>
      </trkpt>
      <trkpt lat="40.241917" lon="-4.756733">
        <ele>1178.0</ele>
        <time>2018-09-16T13:35:16Z</time>
      </trkpt>
      <trkpt lat="40.241883" lon="-4.756633">
        <ele>1177.0</ele>
        <time>2018-09-16T13:35:17Z</time>
      </trkpt>
      <trkpt lat="40.241850" lon="-4.756500">
        <ele>1176.0</ele>
        <time>2018-09-16T13:35:18Z</time>
      </trkpt>
      <trkpt lat="40.241817" lon="-4.756367">
        <ele>1176.0</ele>
        <time>2018-09-16T13:35:19Z</time>
      </trkpt>
      <trkpt lat="40.241817" lon="-4.756233">
        <ele>1177.0</ele>
        <time>2018-09-16T13:35:20Z</time>
      </trkpt>
      <trkpt lat="40.241817" lon="-4.756100">
        <ele>1177.0</ele>
        <time>2018-09-16T13:35:21Z</time>
      </trkpt>
      <trkpt lat="40.241833" lon="-4.755967">
        <ele>1177.0</ele>
        <time>2018-09-16T13:35:22Z</time>
      </trkpt>
      <trkpt lat="40.241850" lon="-4.755833">
        <ele>1177.0</ele>
        <time>2018-09-16T13:35:23Z</time>
      </trkpt>
      <trkpt lat="40.241867" lon="-4.755700">
        <ele>1176.0</ele>
        <time>2018-09-16T13:35:24Z</time>
      </trkpt>
      <trkpt lat="40.241900" lon="-4.755550">
        <ele>1175.0</ele>
        <time>2018-09-16T13:35:25Z</time>
      </trkpt>
      <trkpt lat="40.241917" lon="-4.755417">
        <ele>1174.0</ele>
        <time>2018-09-16T13:35:26Z</time>
      </trkpt>
      <trkpt lat="40.241933" lon="-4.755267">
        <ele>1172.0</ele>
        <time>2018-09-16T13:35:27Z</time>
      </trkpt>
      <trkpt lat="40.241933" lon="-4.755100">
        <ele>1170.0</ele>
        <time>2018-09-16T13:35:28Z</time>
      </trkpt>
      <trkpt lat="40.241917" lon="-4.754917">
        <ele>1169.0</ele>
        <time>2018-09-16T13:35:29Z</time>
      </trkpt>
      <trkpt lat="40.241900" lon="-4.754717">
        <ele>1168.0</ele>
        <time>2018-09-16T13:35:30Z</time>
      </trkpt>
      <trkpt lat="40.241850" lon="-4.754550">
        <ele>1170.0</ele>
        <time>2018-09-16T13:35:31Z</time>
      </trkpt>
      <trkpt lat="40.241833" lon="-4.754383">
        <ele>1171.0</ele>
        <time>2018-09-16T13:35:32Z</time>
      </trkpt>
      <trkpt lat="40.241800" lon="-4.754233">
        <ele>1172.0</ele>
        <time>2018-09-16T13:35:33Z</time>
      </trkpt>
      <trkpt lat="40.241767" lon="-4.754083">
        <ele>1171.0</ele>
        <time>2018-09-16T13:35:34Z</time>
      </trkpt>
      <trkpt lat="40.241733" lon="-4.753933">
        <ele>1170.0</ele>
        <time>2018-09-16T13:35:35Z</time>
      </trkpt>
      <trkpt lat="40.241700" lon="-4.753800">
        <ele>1169.0</ele>
        <time>2018-09-16T13:35:36Z</time>
      </trkpt>
      <trkpt lat="40.241650" lon="-4.753683">
        <ele>1168.0</ele>
        <time>2018-09-16T13:35:37Z</time>
      </trkpt>
      <trkpt lat="40.241583" lon="-4.753567">
        <ele>1167.0</ele>
        <time>2018-09-16T13:35:38Z</time>
      </trkpt>
      <trkpt lat="40.241500" lon="-4.753483">
        <ele>1166.0</ele>
        <time>2018-09-16T13:35:39Z</time>
      </trkpt>
      <trkpt lat="40.241433" lon="-4.753400">
        <ele>1166.0</ele>
        <time>2018-09-16T13:35:40Z</time>
      </trkpt>
      <trkpt lat="40.241350" lon="-4.753300">
        <ele>1166.0</ele>
        <time>2018-09-16T13:35:41Z</time>
      </trkpt>
      <trkpt lat="40.241283" lon="-4.753183">
        <ele>1165.0</ele>
        <time>2018-09-16T13:35:42Z</time>
      </trkpt>
      <trkpt lat="40.241217" lon="-4.753083">
        <ele>1166.0</ele>
        <time>2018-09-16T13:35:43Z</time>
      </trkpt>
      <trkpt lat="40.241133" lon="-4.753017">
        <ele>1166.0</ele>
        <time>2018-09-16T13:35:44Z</time>
      </trkpt>
      <trkpt lat="40.241067" lon="-4.752967">
        <ele>1166.0</ele>
        <time>2018-09-16T13:35:45Z</time>
      </trkpt>
      <trkpt lat="40.240983" lon="-4.752933">
        <ele>1166.0</ele>
        <time>2018-09-16T13:35:46Z</time>
      </trkpt>
      <trkpt lat="40.240900" lon="-4.752883">
        <ele>1166.0</ele>
        <time>2018-09-16T13:35:47Z</time>
      </trkpt>
      <trkpt lat="40.240800" lon="-4.752833">
        <ele>1165.0</ele>
        <time>2018-09-16T13:35:48Z</time>
      </trkpt>
      <trkpt lat="40.240717" lon="-4.752767">
        <ele>1165.0</ele>
        <time>2018-09-16T13:35:49Z</time>
      </trkpt>
      <trkpt lat="40.240633" lon="-4.752700">
        <ele>1166.0</ele>
        <time>2018-09-16T13:35:50Z</time>
      </trkpt>
      <trkpt lat="40.240550" lon="-4.752650">
        <ele>1168.0</ele>
        <time>2018-09-16T13:35:51Z</time>
      </trkpt>
      <trkpt lat="40.240483" lon="-4.752583">
        <ele>1170.0</ele>
        <time>2018-09-16T13:35:52Z</time>
      </trkpt>
      <trkpt lat="40.240400" lon="-4.752517">
        <ele>1171.0</ele>
        <time>2018-09-16T13:35:53Z</time>
      </trkpt>
      <trkpt lat="40.240333" lon="-4.752483">
        <ele>1172.0</ele>
        <time>2018-09-16T13:35:54Z</time>
      </trkpt>
      <trkpt lat="40.240250" lon="-4.752450">
        <ele>1174.0</ele>
        <time>2018-09-16T13:35:55Z</time>
      </trkpt>
      <trkpt lat="40.240200" lon="-4.752467">
        <ele>1175.0</ele>
        <time>2018-09-16T13:35:56Z</time>
      </trkpt>
      <trkpt lat="40.240150" lon="-4.752500">
        <ele>1175.0</ele>
        <time>2018-09-16T13:35:57Z</time>
      </trkpt>
      <trkpt lat="40.240100" lon="-4.752550">
        <ele>1175.0</ele>
        <time>2018-09-16T13:35:58Z</time>
      </trkpt>
      <trkpt lat="40.240083" lon="-4.752617">
        <ele>1176.0</ele>
        <time>2018-09-16T13:35:59Z</time>
      </trkpt>
      <trkpt lat="40.240083" lon="-4.752683">
        <ele>1176.0</ele>
        <time>2018-09-16T13:36:00Z</time>
      </trkpt>
      <trkpt lat="40.240100" lon="-4.752767">
        <ele>1177.0</ele>
        <time>2018-09-16T13:36:01Z</time>
      </trkpt>
      <trkpt lat="40.240117" lon="-4.752867">
        <ele>1178.0</ele>
        <time>2018-09-16T13:36:02Z</time>
      </trkpt>
      <trkpt lat="40.240167" lon="-4.752933">
        <ele>1179.0</ele>
        <time>2018-09-16T13:36:03Z</time>
      </trkpt>
      <trkpt lat="40.240217" lon="-4.753000">
        <ele>1180.0</ele>
        <time>2018-09-16T13:36:04Z</time>
      </trkpt>
      <trkpt lat="40.240300" lon="-4.753033">
        <ele>1180.0</ele>
        <time>2018-09-16T13:36:05Z</time>
      </trkpt>
      <trkpt lat="40.240383" lon="-4.753050">
        <ele>1180.0</ele>
        <time>2018-09-16T13:36:06Z</time>
      </trkpt>
      <trkpt lat="40.240467" lon="-4.753050">
        <ele>1179.0</ele>
        <time>2018-09-16T13:36:07Z</time>
      </trkpt>
      <trkpt lat="40.240567" lon="-4.753000">
        <ele>1179.0</ele>
        <time>2018-09-16T13:36:08Z</time>
      </trkpt>
      <trkpt lat="40.240650" lon="-4.752933">
        <ele>1179.0</ele>
        <time>2018-09-16T13:36:09Z</time>
      </trkpt>
      <trkpt lat="40.240717" lon="-4.752833">
        <ele>1179.0</ele>
        <time>2018-09-16T13:36:10Z</time>
      </trkpt>
      <trkpt lat="40.240767" lon="-4.752700">
        <ele>1180.0</ele>
        <time>2018-09-16T13:36:11Z</time>
      </trkpt>
      <trkpt lat="40.240800" lon="-4.752567">
        <ele>1181.0</ele>
        <time>2018-09-16T13:36:12Z</time>
      </trkpt>
      <trkpt lat="40.240817" lon="-4.752417">
        <ele>1181.0</ele>
        <time>2018-09-16T13:36:13Z</time>
      </trkpt>
      <trkpt lat="40.240800" lon="-4.752283">
        <ele>1182.0</ele>
        <time>2018-09-16T13:36:14Z</time>
      </trkpt>
      <trkpt lat="40.240783" lon="-4.752133">
        <ele>1183.0</ele>
        <time>2018-09-16T13:36:15Z</time>
      </trkpt>
      <trkpt lat="40.240750" lon="-4.752000">
        <ele>1183.0</ele>
        <time>2018-09-16T13:36:16Z</time>
      </trkpt>
      <trkpt lat="40.240700" lon="-4.751867">
        <ele>1184.0</ele>
        <time>2018-09-16T13:36:17Z</time>
      </trkpt>
      <trkpt lat="40.240667" lon="-4.751733">
        <ele>1185.0</ele>
        <time>2018-09-16T13:36:18Z</time>
      </trkpt>
      <trkpt lat="40.240633" lon="-4.751600">
        <ele>1187.0</ele>
        <time>2018-09-16T13:36:19Z</time>
      </trkpt>
      <trkpt lat="40.240600" lon="-4.751467">
        <ele>1189.0</ele>
        <time>2018-09-16T13:36:20Z</time>
      </trkpt>
      <trkpt lat="40.240567" lon="-4.751350">
        <ele>1190.0</ele>
        <time>2018-09-16T13:36:21Z</time>
      </trkpt>
      <trkpt lat="40.240517" lon="-4.751250">
        <ele>1190.0</ele>
        <time>2018-09-16T13:36:22Z</time>
      </trkpt>
      <trkpt lat="40.240467" lon="-4.751167">
        <ele>1189.0</ele>
        <time>2018-09-16T13:36:23Z</time>
      </trkpt>
      <trkpt lat="40.240400" lon="-4.751100">
        <ele>1188.0</ele>
        <time>2018-09-16T13:36:24Z</time>
      </trkpt>
      <trkpt lat="40.240317" lon="-4.751050">
        <ele>1188.0</ele>
        <time>2018-09-16T13:36:25Z</time>
      </trkpt>
      <trkpt lat="40.240233" lon="-4.751050">
        <ele>1187.0</ele>
        <time>2018-09-16T13:36:26Z</time>
      </trkpt>
      <trkpt lat="40.240167" lon="-4.751050">
        <ele>1188.0</ele>
        <time>2018-09-16T13:36:27Z</time>
      </trkpt>
      <trkpt lat="40.240117" lon="-4.751067">
        <ele>1189.0</ele>
        <time>2018-09-16T13:36:28Z</time>
      </trkpt>
      <trkpt lat="40.240067" lon="-4.751100">
        <ele>1190.0</ele>
        <time>2018-09-16T13:36:29Z</time>
      </trkpt>
      <trkpt lat="40.240017" lon="-4.751133">
        <ele>1190.0</ele>
        <time>2018-09-16T13:36:30Z</time>
      </trkpt>
      <trkpt lat="40.239983" lon="-4.751183">
        <ele>1191.0</ele>
        <time>2018-09-16T13:36:31Z</time>
      </trkpt>
      <trkpt lat="40.239950" lon="-4.751233">
        <ele>1192.0</ele>
        <time>2018-09-16T13:36:32Z</time>
      </trkpt>
      <trkpt lat="40.239933" lon="-4.751317">
        <ele>1193.0</ele>
        <time>2018-09-16T13:36:33Z</time>
      </trkpt>
      <trkpt lat="40.239917" lon="-4.751400">
        <ele>1194.0</ele>
        <time>2018-09-16T13:36:34Z</time>
      </trkpt>
      <trkpt lat="40.239900" lon="-4.751483">
        <ele>1195.0</ele>
        <time>2018-09-16T13:36:35Z</time>
      </trkpt>
      <trkpt lat="40.239867" lon="-4.751550">
        <ele>1196.0</ele>
        <time>2018-09-16T13:36:36Z</time>
      </trkpt>
      <trkpt lat="40.239833" lon="-4.751633">
        <ele>1197.0</ele>
        <time>2018-09-16T13:36:37Z</time>
      </trkpt>
      <trkpt lat="40.239783" lon="-4.751700">
        <ele>1197.0</ele>
        <time>2018-09-16T13:36:38Z</time>
      </trkpt>
      <trkpt lat="40.239750" lon="-4.751767">
        <ele>1199.0</ele>
        <time>2018-09-16T13:36:39Z</time>
      </trkpt>
      <trkpt lat="40.239717" lon="-4.751850">
        <ele>1199.0</ele>
        <time>2018-09-16T13:36:40Z</time>
      </trkpt>
      <trkpt lat="40.239700" lon="-4.751933">
        <ele>1199.0</ele>
        <time>2018-09-16T13:36:41Z</time>
      </trkpt>
      <trkpt lat="40.239700" lon="-4.752050">
        <ele>1199.0</ele>
        <time>2018-09-16T13:36:42Z</time>
      </trkpt>
      <trkpt lat="40.239733" lon="-4.752167">
        <ele>1199.0</ele>
        <time>2018-09-16T13:36:43Z</time>
      </trkpt>
      <trkpt lat="40.239783" lon="-4.752267">
        <ele>1200.0</ele>
        <time>2018-09-16T13:36:44Z</time>
      </trkpt>
      <trkpt lat="40.239850" lon="-4.752350">
        <ele>1203.0</ele>
        <time>2018-09-16T13:36:45Z</time>
      </trkpt>
      <trkpt lat="40.239933" lon="-4.752417">
        <ele>1206.0</ele>
        <time>2018-09-16T13:36:46Z</time>
      </trkpt>
      <trkpt lat="40.240000" lon="-4.752450">
        <ele>1209.0</ele>
        <time>2018-09-16T13:36:47Z</time>
      </trkpt>
      <trkpt lat="40.240067" lon="-4.752467">
        <ele>1210.0</ele>
        <time>2018-09-16T13:36:48Z</time>
      </trkpt>
      <trkpt lat="40.240150" lon="-4.752483">
        <ele>1210.0</ele>
        <time>2018-09-16T13:36:49Z</time>
      </trkpt>
      <trkpt lat="40.240233" lon="-4.752483">
        <ele>1210.0</ele>
        <time>2018-09-16T13:36:50Z</time>
      </trkpt>
      <trkpt lat="40.240333" lon="-4.752450">
        <ele>1209.0</ele>
        <time>2018-09-16T13:36:51Z</time>
      </trkpt>
      <trkpt lat="40.240433" lon="-4.752383">
        <ele>1208.0</ele>
        <time>2018-09-16T13:36:52Z</time>
      </trkpt>
      <trkpt lat="40.240517" lon="-4.752283">
        <ele>1208.0</ele>
        <time>2018-09-16T13:36:53Z</time>
      </trkpt>
      <trkpt lat="40.240567" lon="-4.752167">
        <ele>1209.0</ele>
        <time>2018-09-16T13:36:54Z</time>
      </trkpt>
      <trkpt lat="40.240600" lon="-4.752017">
        <ele>1209.0</ele>
        <time>2018-09-16T13:36:55Z</time>
      </trkpt>
      <trkpt lat="40.240600" lon="-4.751883">
        <ele>1210.0</ele>
        <time>2018-09-16T13:36:56Z</time>
      </trkpt>
      <trkpt lat="40.240583" lon="-4.751750">
        <ele>1210.0</ele>
        <time>2018-09-16T13:36:57Z</time>
      </trkpt>
      <trkpt lat="40.240550" lon="-4.751617">
        <ele>1211.0</ele>
        <time>2018-09-16T13:36:58Z</time>
      </trkpt>
      <trkpt lat="40.240483" lon="-4.751517">
        <ele>1210.0</ele>
        <time>2018-09-16T13:36:59Z</time>
      </trkpt>
      <trkpt lat="40.240417" lon="-4.751417">
        <ele>1210.0</ele>
        <time>2018-09-16T13:37:00Z</time>
      </trkpt>
      <trkpt lat="40.240333" lon="-4.751333">
        <ele>1211.0</ele>
        <time>2018-09-16T13:37:01Z</time>
      </trkpt>
      <trkpt lat="40.240250" lon="-4.751283">
        <ele>1213.0</ele>
        <time>2018-09-16T13:37:02Z</time>
      </trkpt>
      <trkpt lat="40.240183" lon="-4.751250">
        <ele>1215.0</ele>
        <time>2018-09-16T13:37:03Z</time>
      </trkpt>
      <trkpt lat="40.240100" lon="-4.751250">
        <ele>1216.0</ele>
        <time>2018-09-16T13:37:04Z</time>
      </trkpt>
      <trkpt lat="40.240033" lon="-4.751250">
        <ele>1218.0</ele>
        <time>2018-09-16T13:37:05Z</time>
      </trkpt>
      <trkpt lat="40.239967" lon="-4.751267">
        <ele>1219.0</ele>
        <time>2018-09-16T13:37:06Z</time>
      </trkpt>
      <trkpt lat="40.239900" lon="-4.751283">
        <ele>1220.0</ele>
        <time>2018-09-16T13:37:07Z</time>
      </trkpt>
      <trkpt lat="40.239833" lon="-4.751300">
        <ele>1221.0</ele>
        <time>2018-09-16T13:37:08Z</time>
      </trkpt>
      <trkpt lat="40.239783" lon="-4.751350">
        <ele>1223.0</ele>
        <time>2018-09-16T13:37:09Z</time>
      </trkpt>
      <trkpt lat="40.239733" lon="-4.751400">
        <ele>1224.0</ele>
        <time>2018-09-16T13:37:10Z</time>
      </trkpt>
      <trkpt lat="40.239700" lon="-4.751483">
        <ele>1224.0</ele>
        <time>2018-09-16T13:37:11Z</time>
      </trkpt>
      <trkpt lat="40.239667" lon="-4.751583">
        <ele>1225.0</ele>
        <time>2018-09-16T13:37:12Z</time>
      </trkpt>
      <trkpt lat="40.239650" lon="-4.751667">
        <ele>1226.0</ele>
        <time>2018-09-16T13:37:13Z</time>
      </trkpt>
      <trkpt lat="40.239617" lon="-4.751767">
        <ele>1227.0</ele>
        <time>2018-09-16T13:37:14Z</time>
      </trkpt>
      <trkpt lat="40.239600" lon="-4.751850">
        <ele>1228.0</ele>
        <time>2018-09-16T13:37:15Z</time>
      </trkpt>
      <trkpt lat="40.239583" lon="-4.751950">
        <ele>1228.0</ele>
        <time>2018-09-16T13:37:16Z</time>
      </trkpt>
      <trkpt lat="40.239600" lon="-4.752050">
        <ele>1228.0</ele>
        <time>2018-09-16T13:37:17Z</time>
      </trkpt>
      <trkpt lat="40.239633" lon="-4.752167">
        <ele>1228.0</ele>
        <time>2018-09-16T13:37:18Z</time>
      </trkpt>
      <trkpt lat="40.239683" lon="-4.752283">
        <ele>1230.0</ele>
        <time>2018-09-16T13:37:19Z</time>
      </trkpt>
      <trkpt lat="40.239717" lon="-4.752383">
        <ele>1232.0</ele>
        <time>2018-09-16T13:37:20Z</time>
      </trkpt>
      <trkpt lat="40.239733" lon="-4.752467">
        <ele>1234.0</ele>
        <time>2018-09-16T13:37:21Z</time>
      </trkpt>
      <trkpt lat="40.239750" lon="-4.752567">
        <ele>1235.0</ele>
        <time>2018-09-16T13:37:22Z</time>
      </trkpt>
      <trkpt lat="40.239783" lon="-4.752650">
        <ele>1235.0</ele>
        <time>2018-09-16T13:37:23Z</time>
      </trkpt>
      <trkpt lat="40.239817" lon="-4.752733">
        <ele>1235.0</ele>
        <time>2018-09-16T13:37:24Z</time>
      </trkpt>
      <trkpt lat="40.239850" lon="-4.752833">
        <ele>1235.0</ele>
        <time>2018-09-16T13:37:25Z</time>
      </trkpt>
      <trkpt lat="40.239917" lon="-4.752917">
        <ele>1236.0</ele>
        <time>2018-09-16T13:37:26Z</time>
      </trkpt>
      <trkpt lat="40.240000" lon="-4.752983">
        <ele>1236.0</ele>
        <time>2018-09-16T13:37:27Z</time>
      </trkpt>
      <trkpt lat="40.240100" lon="-4.753017">
        <ele>1237.0</ele>
        <time>2018-09-16T13:37:28Z</time>
      </trkpt>
      <trkpt lat="40.240200" lon="-4.753033">
        <ele>1238.0</ele>
        <time>2018-09-16T13:37:29Z</time>
      </trkpt>
      <trkpt lat="40.240300" lon="-4.753017">
        <ele>1240.0</ele>
        <time>2018-09-16T13:37:30Z</time>
      </trkpt>
      <trkpt lat="40.240400" lon="-4.752967">
        <ele>1240.0</ele>
        <time>2018-09-16T13:37:31Z</time>
      </trkpt>
      <trkpt lat="40.240483" lon="-4.752883">
        <ele>1241.0</ele>
        <time>2018-09-16T13:37:32Z</time>
      </trkpt>
      <trkpt lat="40.240550" lon="-4.752767">
        <ele>1241.0</ele>
        <time>2018-09-16T13:37:33Z</time>
      </trkpt>
      <trkpt lat="40.240600" lon="-4.752633">
        <ele>1241.0</ele>
        <time>2018-09-16T13:37:34Z</time>
      </trkpt>
      <trkpt lat="40.240633" lon="-4.752483">
        <ele>1241.0</ele>
        <time>2018-09-16T13:37:35Z</time>
      </trkpt>
      <trkpt lat="40.240633" lon="-4.752317">
        <ele>1241.0</ele>
        <time>2018-09-16T13:37:36Z</time>
      </trkpt>
      <trkpt lat="40.240617" lon="-4.752167">
        <ele>1243.0</ele>
        <time>2018-09-16T13:37:37Z</time>
      </trkpt>
      <trkpt lat="40.240583" lon="-4.752033">
        <ele>1244.0</ele>
        <time>2018-09-16T13:37:38Z</time>
      </trkpt>
      <trkpt lat="40.240533" lon="-4.751917">
        <ele>1245.0</ele>
        <time>2018-09-16T13:37:39Z</time>
      </trkpt>
      <trkpt lat="40.240483" lon="-4.751817">
        <ele>1245.0</ele>
        <time>2018-09-16T13:37:40Z</time>
      </trkpt>
      <trkpt lat="40.240417" lon="-4.751733">
        <ele>1245.0</ele>
        <time>2018-09-16T13:37:41Z</time>
      </trkpt>
      <trkpt lat="40.240333" lon="-4.751667">
        <ele>1244.0</ele>
        <time>2018-09-16T13:37:42Z</time>
      </trkpt>
      <trkpt lat="40.240267" lon="-4.751617">
        <ele>1244.0</ele>
        <time>2018-09-16T13:37:43Z</time>
      </trkpt>
      <trkpt lat="40.240183" lon="-4.751600">
        <ele>1244.0</ele>
        <time>2018-09-16T13:37:44Z</time>
      </trkpt>
      <trkpt lat="40.240100" lon="-4.751617">
        <ele>1243.0</ele>
        <time>2018-09-16T13:37:45Z</time>
      </trkpt>
      <trkpt lat="40.240050" lon="-4.751683">
        <ele>1242.0</ele>
        <time>2018-09-16T13:37:46Z</time>
      </trkpt>
      <trkpt lat="40.240000" lon="-4.751783">
        <ele>1243.0</ele>
        <time>2018-09-16T13:37:47Z</time>
      </trkpt>
      <trkpt lat="40.239983" lon="-4.751883">
        <ele>1244.0</ele>
        <time>2018-09-16T13:37:48Z</time>
      </trkpt>
      <trkpt lat="40.239983" lon="-4.751983">
        <ele>1246.0</ele>
        <time>2018-09-16T13:37:49Z</time>
      </trkpt>
      <trkpt lat="40.240000" lon="-4.752083">
        <ele>1248.0</ele>
        <time>2018-09-16T13:37:50Z</time>
      </trkpt>
      <trkpt lat="40.240017" lon="-4.752183">
        <ele>1248.0</ele>
        <time>2018-09-16T13:37:51Z</time>
      </trkpt>
      <trkpt lat="40.240033" lon="-4.752283">
        <ele>1248.0</ele>
        <time>2018-09-16T13:37:52Z</time>
      </trkpt>
      <trkpt lat="40.240050" lon="-4.752400">
        <ele>1249.0</ele>
        <time>2018-09-16T13:37:53Z</time>
      </trkpt>
      <trkpt lat="40.240067" lon="-4.752517">
        <ele>1249.0</ele>
        <time>2018-09-16T13:37:54Z</time>
      </trkpt>
      <trkpt lat="40.240100" lon="-4.752617">
        <ele>1250.0</ele>
        <time>2018-09-16T13:37:55Z</time>
      </trkpt>
      <trkpt lat="40.240150" lon="-4.752717">
        <ele>1252.0</ele>
        <time>2018-09-16T13:37:56Z</time>
      </trkpt>
      <trkpt lat="40.240200" lon="-4.752817">
        <ele>1253.0</ele>
        <time>2018-09-16T13:37:57Z</time>
      </trkpt>
      <trkpt lat="40.240233" lon="-4.752933">
        <ele>1254.0</ele>
        <time>2018-09-16T13:37:58Z</time>
      </trkpt>
      <trkpt lat="40.240283" lon="-4.753033">
        <ele>1255.0</ele>
        <time>2018-09-16T13:37:59Z</time>
      </trkpt>
      <trkpt lat="40.240333" lon="-4.753133">
        <ele>1256.0</ele>
        <time>2018-09-16T13:38:00Z</time>
      </trkpt>
      <trkpt lat="40.240383" lon="-4.753250">
        <ele>1258.0</ele>
        <time>2018-09-16T13:38:01Z</time>
      </trkpt>
      <trkpt lat="40.240433" lon="-4.753350">
        <ele>1260.0</ele>
        <time>2018-09-16T13:38:02Z</time>
      </trkpt>
      <trkpt lat="40.240500" lon="-4.753417">
        <ele>1262.0</ele>
        <time>2018-09-16T13:38:03Z</time>
      </trkpt>
      <trkpt lat="40.240550" lon="-4.753483">
        <ele>1265.0</ele>
        <time>2018-09-16T13:38:04Z</time>
      </trkpt>
      <trkpt lat="40.240617" lon="-4.753533">
        <ele>1267.0</ele>
        <time>2018-09-16T13:38:05Z</time>
      </trkpt>
      <trkpt lat="40.240683" lon="-4.753550">
        <ele>1267.0</ele>
        <time>2018-09-16T13:38:06Z</time>
      </trkpt>
      <trkpt lat="40.240783" lon="-4.753533">
        <ele>1266.0</ele>
        <time>2018-09-16T13:38:07Z</time>
      </trkpt>
      <trkpt lat="40.240883" lon="-4.753467">
        <ele>1265.0</ele>
        <time>2018-09-16T13:38:08Z</time>
      </trkpt>
      <trkpt lat="40.240967" lon="-4.753367">
        <ele>1266.0</ele>
        <time>2018-09-16T13:38:09Z</time>
      </trkpt>
      <trkpt lat="40.241033" lon="-4.753250">
        <ele>1267.0</ele>
        <time>2018-09-16T13:38:10Z</time>
      </trkpt>
      <trkpt lat="40.241100" lon="-4.753117">
        <ele>1270.0</ele>
        <time>2018-09-16T13:38:11Z</time>
      </trkpt>
      <trkpt lat="40.241150" lon="-4.752983">
        <ele>1271.0</ele>
        <time>2018-09-16T13:38:12Z</time>
      </trkpt>
      <trkpt lat="40.241200" lon="-4.752867">
        <ele>1273.0</ele>
        <time>2018-09-16T13:38:13Z</time>
      </trkpt>
      <trkpt lat="40.241217" lon="-4.752733">
        <ele>1275.0</ele>
        <time>2018-09-16T13:38:14Z</time>
      </trkpt>
      <trkpt lat="40.241217" lon="-4.752583">
        <ele>1275.0</ele>
        <time>2018-09-16T13:38:15Z</time>
      </trkpt>
      <trkpt lat="40.241183" lon="-4.752450">
        <ele>1277.0</ele>
        <time>2018-09-16T13:38:16Z</time>
      </trkpt>
      <trkpt lat="40.241150" lon="-4.752333">
        <ele>1279.0</ele>
        <time>2018-09-16T13:38:17Z</time>
      </trkpt>
      <trkpt lat="40.241083" lon="-4.752250">
        <ele>1281.0</ele>
        <time>2018-09-16T13:38:18Z</time>
      </trkpt>
      <trkpt lat="40.241033" lon="-4.752200">
        <ele>1282.0</ele>
        <time>2018-09-16T13:38:19Z</time>
      </trkpt>
      <trkpt lat="40.240950" lon="-4.752183">
        <ele>1282.0</ele>
        <time>2018-09-16T13:38:20Z</time>
      </trkpt>
      <trkpt lat="40.240867" lon="-4.752183">
        <ele>1281.0</ele>
        <time>2018-09-16T13:38:21Z</time>
      </trkpt>
      <trkpt lat="40.240800" lon="-4.752217">
        <ele>1282.0</ele>
        <time>2018-09-16T13:38:22Z</time>
      </trkpt>
      <trkpt lat="40.240733" lon="-4.752300">
        <ele>1282.0</ele>
        <time>2018-09-16T13:38:23Z</time>
      </trkpt>
      <trkpt lat="40.240683" lon="-4.752383">
        <ele>1283.0</ele>
        <time>2018-09-16T13:38:24Z</time>
      </trkpt>
      <trkpt lat="40.240667" lon="-4.752500">
        <ele>1284.0</ele>
        <time>2018-09-16T13:38:25Z</time>
      </trkpt>
      <trkpt lat="40.240683" lon="-4.752633">
        <ele>1285.0</ele>
        <time>2018-09-16T13:38:26Z</time>
      </trkpt>
      <trkpt lat="40.240717" lon="-4.752733">
        <ele>1287.0</ele>
        <time>2018-09-16T13:38:27Z</time>
      </trkpt>
      <trkpt lat="40.240783" lon="-4.752817">
        <ele>1288.0</ele>
        <time>2018-09-16T13:38:28Z</time>
      </trkpt>
      <trkpt lat="40.240867" lon="-4.752867">
        <ele>1290.0</ele>
        <time>2018-09-16T13:38:29Z</time>
      </trkpt>
      <trkpt lat="40.240950" lon="-4.752900">
        <ele>1291.0</ele>
        <time>2018-09-16T13:38:30Z</time>
      </trkpt>
      <trkpt lat="40.241050" lon="-4.752933">
        <ele>1292.0</ele>
        <time>2018-09-16T13:38:31Z</time>
      </trkpt>
      <trkpt lat="40.241133" lon="-4.752950">
        <ele>1293.0</ele>
        <time>2018-09-16T13:38:32Z</time>
      </trkpt>
      <trkpt lat="40.241233" lon="-4.752967">
        <ele>1294.0</ele>
        <time>2018-09-16T13:38:33Z</time>
      </trkpt>
      <trkpt lat="40.241333" lon="-4.752950">
        <ele>1295.0</ele>
        <time>2018-09-16T13:38:34Z</time>
      </trkpt>
      <trkpt lat="40.241433" lon="-4.752900">
        <ele>1296.0</ele>
        <time>2018-09-16T13:38:35Z</time>
      </trkpt>
      <trkpt lat="40.241533" lon="-4.752833">
        <ele>1297.0</ele>
        <time>2018-09-16T13:38:36Z</time>
      </trkpt>
      <trkpt lat="40.241617" lon="-4.752733">
        <ele>1299.0</ele>
        <time>2018-09-16T13:38:37Z</time>
      </trkpt>
      <trkpt lat="40.241717" lon="-4.752650">
        <ele>1301.0</ele>
        <time>2018-09-16T13:38:38Z</time>
      </trkpt>
      <trkpt lat="40.241783" lon="-4.752567">
        <ele>1303.0</ele>
        <time>2018-09-16T13:38:39Z</time>
      </trkpt>
      <trkpt lat="40.241850" lon="-4.752483">
        <ele>1305.0</ele>
        <time>2018-09-16T13:38:40Z</time>
      </trkpt>
      <trkpt lat="40.241900" lon="-4.752383">
        <ele>1306.0</ele>
        <time>2018-09-16T13:38:41Z</time>
      </trkpt>
      <trkpt lat="40.241933" lon="-4.752250">
        <ele>1306.0</ele>
        <time>2018-09-16T13:38:42Z</time>
      </trkpt>
      <trkpt lat="40.241933" lon="-4.752117">
        <ele>1306.0</ele>
        <time>2018-09-16T13:38:43Z</time>
      </trkpt>
      <trkpt lat="40.241917" lon="-4.751983">
        <ele>1307.0</ele>
        <time>2018-09-16T13:38:44Z</time>
      </trkpt>
      <trkpt lat="40.241883" lon="-4.751867">
        <ele>1309.0</ele>
        <time>2018-09-16T13:38:45Z</time>
      </trkpt>
      <trkpt lat="40.241850" lon="-4.751767">
        <ele>1310.0</ele>
        <time>2018-09-16T13:38:46Z</time>
      </trkpt>
      <trkpt lat="40.241783" lon="-4.751700">
        <ele>1311.0</ele>
        <time>2018-09-16T13:38:47Z</time>
      </trkpt>
      <trkpt lat="40.241717" lon="-4.751633">
        <ele>1311.0</ele>
        <time>2018-09-16T13:38:48Z</time>
      </trkpt>
      <trkpt lat="40.241650" lon="-4.751600">
        <ele>1311.0</ele>
        <time>2018-09-16T13:38:49Z</time>
      </trkpt>
      <trkpt lat="40.241567" lon="-4.751583">
        <ele>1312.0</ele>
        <time>2018-09-16T13:38:50Z</time>
      </trkpt>
      <trkpt lat="40.241483" lon="-4.751600">
        <ele>1312.0</ele>
        <time>2018-09-16T13:38:51Z</time>
      </trkpt>
      <trkpt lat="40.241417" lon="-4.751667">
        <ele>1312.0</ele>
        <time>2018-09-16T13:38:52Z</time>
      </trkpt>
      <trkpt lat="40.241367" lon="-4.751733">
        <ele>1312.0</ele>
        <time>2018-09-16T13:38:53Z</time>
      </trkpt>
      <trkpt lat="40.241333" lon="-4.751817">
        <ele>1312.0</ele>
        <time>2018-09-16T13:38:54Z</time>
      </trkpt>
      <trkpt lat="40.241317" lon="-4.751917">
        <ele>1313.0</ele>
        <time>2018-09-16T13:38:55Z</time>
      </trkpt>
      <trkpt lat="40.241317" lon="-4.752017">
        <ele>1314.0</ele>
        <time>2018-09-16T13:38:56Z</time>
      </trkpt>
      <trkpt lat="40.241333" lon="-4.752133">
        <ele>1315.0</ele>
        <time>2018-09-16T13:38:57Z</time>
      </trkpt>
      <trkpt lat="40.241383" lon="-4.752217">
        <ele>1315.0</ele>
        <time>2018-09-16T13:38:58Z</time>
      </trkpt>
      <trkpt lat="40.241467" lon="-4.752300">
        <ele>1316.0</ele>
        <time>2018-09-16T13:38:59Z</time>
      </trkpt>
      <trkpt lat="40.241550" lon="-4.752350">
        <ele>1317.0</ele>
        <time>2018-09-16T13:39:00Z</time>
      </trkpt>
      <trkpt lat="40.241633" lon="-4.752383">
        <ele>1319.0</ele>
        <time>2018-09-16T13:39:01Z</time>
      </trkpt>
      <trkpt lat="40.241733" lon="-4.752383">
        <ele>1321.0</ele>
        <time>2018-09-16T13:39:02Z</time>
      </trkpt>
      <trkpt lat="40.241833" lon="-4.752350">
        <ele>1321.0</ele>
        <time>2018-09-16T13:39:03Z</time>
      </trkpt>
      <trkpt lat="40.241933" lon="-4.752300">
        <ele>1321.0</ele>
        <time>2018-09-16T13:39:04Z</time>
      </trkpt>
      <trkpt lat="40.242033" lon="-4.752233">
        <ele>1321.0</ele>
        <time>2018-09-16T13:39:05Z</time>
      </trkpt>
      <trkpt lat="40.242117" lon="-4.752133">
        <ele>1322.0</ele>
        <time>2018-09-16T13:39:06Z</time>
      </trkpt>
      <trkpt lat="40.242200" lon="-4.752000">
        <ele>1322.0</ele>
        <time>2018-09-16T13:39:07Z</time>
      </trkpt>
      <trkpt lat="40.242267" lon="-4.751867">
        <ele>1324.0</ele>
        <time>2018-09-16T13:39:08Z</time>
      </trkpt>
      <trkpt lat="40.242300" lon="-4.751733">
        <ele>1325.0</ele>
        <time>2018-09-16T13:39:09Z</time>
      </trkpt>
      <trkpt lat="40.242333" lon="-4.751600">
        <ele>1327.0</ele>
        <time>2018-09-16T13:39:10Z</time>
      </trkpt>
      <trkpt lat="40.242350" lon="-4.751483">
        <ele>1328.0</ele>
        <time>2018-09-16T13:39:11Z</time>
      </trkpt>
      <trkpt lat="40.242367" lon="-4.751350">
        <ele>1328.0</ele>
        <time>2018-09-16T13:39:12Z</time>
      </trkpt>
      <trkpt lat="40.242333" lon="-4.751233">
        <ele>1328.0</ele>
        <time>2018-09-16T13:39:13Z</time>
      </trkpt>
      <trkpt lat="40.242300" lon="-4.751100">
        <ele>1327.0</ele>
        <time>2018-09-16T13:39:14Z</time>
      </trkpt>
      <trkpt lat="40.242250" lon="-4.751000">
        <ele>1328.0</ele>
        <time>2018-09-16T13:39:15Z</time>
      </trkpt>
      <trkpt lat="40.242183" lon="-4.750917">
        <ele>1328.0</ele>
        <time>2018-09-16T13:39:16Z</time>
      </trkpt>
      <trkpt lat="40.242117" lon="-4.750850">
        <ele>1328.0</ele>
        <time>2018-09-16T13:39:17Z</time>
      </trkpt>
      <trkpt lat="40.242050" lon="-4.750800">
        <ele>1329.0</ele>
        <time>2018-09-16T13:39:18Z</time>
      </trkpt>
      <trkpt lat="40.241967" lon="-4.750783">
        <ele>1329.0</ele>
        <time>2018-09-16T13:39:19Z</time>
      </trkpt>
      <trkpt lat="40.241900" lon="-4.750783">
        <ele>1328.0</ele>
        <time>2018-09-16T13:39:20Z</time>
      </trkpt>
      <trkpt lat="40.241817" lon="-4.750800">
        <ele>1327.0</ele>
        <time>2018-09-16T13:39:21Z</time>
      </trkpt>
      <trkpt lat="40.241750" lon="-4.750850">
        <ele>1327.0</ele>
        <time>2018-09-16T13:39:22Z</time>
      </trkpt>
      <trkpt lat="40.241683" lon="-4.750917">
        <ele>1327.0</ele>
        <time>2018-09-16T13:39:23Z</time>
      </trkpt>
      <trkpt lat="40.241633" lon="-4.751017">
        <ele>1327.0</ele>
        <time>2018-09-16T13:39:24Z</time>
      </trkpt>
      <trkpt lat="40.241600" lon="-4.751117">
        <ele>1327.0</ele>
        <time>2018-09-16T13:39:25Z</time>
      </trkpt>
      <trkpt lat="40.241583" lon="-4.751217">
        <ele>1328.0</ele>
        <time>2018-09-16T13:39:26Z</time>
      </trkpt>
      <trkpt lat="40.241567" lon="-4.751317">
        <ele>1329.0</ele>
        <time>2018-09-16T13:39:27Z</time>
      </trkpt>
      <trkpt lat="40.241567" lon="-4.751400">
        <ele>1330.0</ele>
        <time>2018-09-16T13:39:28Z</time>
      </trkpt>
      <trkpt lat="40.241567" lon="-4.751500">
        <ele>1330.0</ele>
        <time>2018-09-16T13:39:29Z</time>
      </trkpt>
      <trkpt lat="40.241583" lon="-4.751600">
        <ele>1330.0</ele>
        <time>2018-09-16T13:39:30Z</time>
      </trkpt>
      <trkpt lat="40.241617" lon="-4.751683">
        <ele>1330.0</ele>
        <time>2018-09-16T13:39:31Z</time>
      </trkpt>
      <trkpt lat="40.241667" lon="-4.751767">
        <ele>1330.0</ele>
        <time>2018-09-16T13:39:32Z</time>
      </trkpt>
      <trkpt lat="40.241717" lon="-4.751850">
        <ele>1329.0</ele>
        <time>2018-09-16T13:39:33Z</time>
      </trkpt>
      <trkpt lat="40.241783" lon="-4.751933">
        <ele>1330.0</ele>
        <time>2018-09-16T13:39:34Z</time>
      </trkpt>
      <trkpt lat="40.241850" lon="-4.752000">
        <ele>1330.0</ele>
        <time>2018-09-16T13:39:35Z</time>
      </trkpt>
      <trkpt lat="40.241950" lon="-4.752033">
        <ele>1331.0</ele>
        <time>2018-09-16T13:39:36Z</time>
      </trkpt>
      <trkpt lat="40.242050" lon="-4.752033">
        <ele>1331.0</ele>
        <time>2018-09-16T13:39:37Z</time>
      </trkpt>
      <trkpt lat="40.242167" lon="-4.752000">
        <ele>1331.0</ele>
        <time>2018-09-16T13:39:38Z</time>
      </trkpt>
      <trkpt lat="40.242283" lon="-4.751933">
        <ele>1333.0</ele>
        <time>2018-09-16T13:39:39Z</time>
      </trkpt>
      <trkpt lat="40.242383" lon="-4.751867">
        <ele>1335.0</ele>
        <time>2018-09-16T13:39:40Z</time>
      </trkpt>
      <trkpt lat="40.242483" lon="-4.751800">
        <ele>1337.0</ele>
        <time>2018-09-16T13:39:41Z</time>
      </trkpt>
      <trkpt lat="40.242583" lon="-4.751717">
        <ele>1339.0</ele>
        <time>2018-09-16T13:39:42Z</time>
      </trkpt>
      <trkpt lat="40.242667" lon="-4.751633">
        <ele>1341.0</ele>
        <time>2018-09-16T13:39:43Z</time>
      </trkpt>
      <trkpt lat="40.242750" lon="-4.751533">
        <ele>1341.0</ele>
        <time>2018-09-16T13:39:44Z</time>
      </trkpt>
      <trkpt lat="40.242800" lon="-4.751400">
        <ele>1340.0</ele>
        <time>2018-09-16T13:39:45Z</time>
      </trkpt>
      <trkpt lat="40.242833" lon="-4.751250">
        <ele>1338.0</ele>
        <time>2018-09-16T13:39:46Z</time>
      </trkpt>
      <trkpt lat="40.242850" lon="-4.751100">
        <ele>1337.0</ele>
        <time>2018-09-16T13:39:47Z</time>
      </trkpt>
      <trkpt lat="40.242817" lon="-4.750967">
        <ele>1337.0</ele>
        <time>2018-09-16T13:39:48Z</time>
      </trkpt>
      <trkpt lat="40.242767" lon="-4.750867">
        <ele>1337.0</ele>
        <time>2018-09-16T13:39:49Z</time>
      </trkpt>
      <trkpt lat="40.242700" lon="-4.750817">
        <ele>1336.0</ele>
        <time>2018-09-16T13:39:50Z</time>
      </trkpt>
      <trkpt lat="40.242633" lon="-4.750817">
        <ele>1335.0</ele>
        <time>2018-09-16T13:39:51Z</time>
      </trkpt>
      <trkpt lat="40.242567" lon="-4.750850">
        <ele>1334.0</ele>
        <time>2018-09-16T13:39:52Z</time>
      </trkpt>
      <trkpt lat="40.242517" lon="-4.750917">
        <ele>1334.0</ele>
        <time>2018-09-16T13:39:53Z</time>
      </trkpt>
      <trkpt lat="40.242483" lon="-4.751000">
        <ele>1335.0</ele>
        <time>2018-09-16T13:39:54Z</time>
      </trkpt>
      <trkpt lat="40.242467" lon="-4.751083">
        <ele>1336.0</ele>
        <time>2018-09-16T13:39:55Z</time>
      </trkpt>
      <trkpt lat="40.242433" lon="-4.751183">
        <ele>1338.0</ele>
        <time>2018-09-16T13:39:56Z</time>
      </trkpt>
      <trkpt lat="40.242417" lon="-4.751283">
        <ele>1340.0</ele>
        <time>2018-09-16T13:39:57Z</time>
      </trkpt>
      <trkpt lat="40.242383" lon="-4.751367">
        <ele>1342.0</ele>
        <time>2018-09-16T13:39:58Z</time>
      </trkpt>
      <trkpt lat="40.242350" lon="-4.751433">
        <ele>1344.0</ele>
        <time>2018-09-16T13:39:59Z</time>
      </trkpt>
      <trkpt lat="40.242300" lon="-4.751500">
        <ele>1345.0</ele>
        <time>2018-09-16T13:40:00Z</time>
      </trkpt>
      <trkpt lat="40.242233" lon="-4.751550">
        <ele>1346.0</ele>
        <time>2018-09-16T13:40:01Z</time>
      </trkpt>
      <trkpt lat="40.242167" lon="-4.751600">
        <ele>1347.0</ele>
        <time>2018-09-16T13:40:02Z</time>
      </trkpt>
      <trkpt lat="40.242100" lon="-4.751650">
        <ele>1348.0</ele>
        <time>2018-09-16T13:40:03Z</time>
      </trkpt>
      <trkpt lat="40.242033" lon="-4.751700">
        <ele>1349.0</ele>
        <time>2018-09-16T13:40:04Z</time>
      </trkpt>
      <trkpt lat="40.241967" lon="-4.751767">
        <ele>1351.0</ele>
        <time>2018-09-16T13:40:05Z</time>
      </trkpt>
      <trkpt lat="40.241917" lon="-4.751850">
        <ele>1352.0</ele>
        <time>2018-09-16T13:40:06Z</time>
      </trkpt>
      <trkpt lat="40.241900" lon="-4.751950">
        <ele>1352.0</ele>
        <time>2018-09-16T13:40:07Z</time>
      </trkpt>
      <trkpt lat="40.241883" lon="-4.752067">
        <ele>1352.0</ele>
        <time>2018-09-16T13:40:08Z</time>
      </trkpt>
      <trkpt lat="40.241900" lon="-4.752183">
        <ele>1351.0</ele>
        <time>2018-09-16T13:40:09Z</time>
      </trkpt>
      <trkpt lat="40.241950" lon="-4.752317">
        <ele>1352.0</ele>
        <time>2018-09-16T13:40:10Z</time>
      </trkpt>
      <trkpt lat="40.242017" lon="-4.752417">
        <ele>1352.0</ele>
        <time>2018-09-16T13:40:11Z</time>
      </trkpt>
      <trkpt lat="40.242117" lon="-4.752483">
        <ele>1353.0</ele>
        <time>2018-09-16T13:40:12Z</time>
      </trkpt>
      <trkpt lat="40.242217" lon="-4.752517">
        <ele>1354.0</ele>
        <time>2018-09-16T13:40:13Z</time>
      </trkpt>
      <trkpt lat="40.242333" lon="-4.752517">
        <ele>1355.0</ele>
        <time>2018-09-16T13:40:14Z</time>
      </trkpt>
      <trkpt lat="40.242450" lon="-4.752467">
        <ele>1357.0</ele>
        <time>2018-09-16T13:40:15Z</time>
      </trkpt>
      <trkpt lat="40.242550" lon="-4.752383">
        <ele>1358.0</ele>
        <time>2018-09-16T13:40:16Z</time>
      </trkpt>
      <trkpt lat="40.242633" lon="-4.752267">
        <ele>1359.0</ele>
        <time>2018-09-16T13:40:17Z</time>
      </trkpt>
      <trkpt lat="40.242683" lon="-4.752117">
        <ele>1360.0</ele>
        <time>2018-09-16T13:40:18Z</time>
      </trkpt>
      <trkpt lat="40.242700" lon="-4.751983">
        <ele>1363.0</ele>
        <time>2018-09-16T13:40:19Z</time>
      </trkpt>
      <trkpt lat="40.242700" lon="-4.751867">
        <ele>1365.0</ele>
        <time>2018-09-16T13:40:20Z</time>
      </trkpt>
      <trkpt lat="40.242683" lon="-4.751750">
        <ele>1366.0</ele>
        <time>2018-09-16T13:40:21Z</time>
      </trkpt>
      <trkpt lat="40.242633" lon="-4.751650">
        <ele>1367.0</ele>
        <time>2018-09-16T13:40:22Z</time>
      </trkpt>
      <trkpt lat="40.242567" lon="-4.751567">
        <ele>1367.0</ele>
        <time>2018-09-16T13:40:23Z</time>
      </trkpt>
      <trkpt lat="40.242483" lon="-4.751517">
        <ele>1368.0</ele>
        <time>2018-09-16T13:40:24Z</time>
      </trkpt>
      <trkpt lat="40.242383" lon="-4.751500">
        <ele>1369.0</ele>
        <time>2018-09-16T13:40:25Z</time>
      </trkpt>
      <trkpt lat="40.242300" lon="-4.751517">
        <ele>1369.0</ele>
        <time>2018-09-16T13:40:26Z</time>
      </trkpt>
      <trkpt lat="40.242217" lon="-4.751550">
        <ele>1371.0</ele>
        <time>2018-09-16T13:40:27Z</time>
      </trkpt>
      <trkpt lat="40.242150" lon="-4.751600">
        <ele>1373.0</ele>
        <time>2018-09-16T13:40:28Z</time>
      </trkpt>
      <trkpt lat="40.242083" lon="-4.751650">
        <ele>1375.0</ele>
        <time>2018-09-16T13:40:29Z</time>
      </trkpt>
      <trkpt lat="40.242033" lon="-4.751717">
        <ele>1375.0</ele>
        <time>2018-09-16T13:40:30Z</time>
      </trkpt>
      <trkpt lat="40.241967" lon="-4.751783">
        <ele>1375.0</ele>
        <time>2018-09-16T13:40:31Z</time>
      </trkpt>
      <trkpt lat="40.241917" lon="-4.751850">
        <ele>1375.0</ele>
        <time>2018-09-16T13:40:32Z</time>
      </trkpt>
      <trkpt lat="40.241850" lon="-4.751917">
        <ele>1374.0</ele>
        <time>2018-09-16T13:40:33Z</time>
      </trkpt>
      <trkpt lat="40.241783" lon="-4.751983">
        <ele>1373.0</ele>
        <time>2018-09-16T13:40:34Z</time>
      </trkpt>
      <trkpt lat="40.241717" lon="-4.752050">
        <ele>1373.0</ele>
        <time>2018-09-16T13:40:35Z</time>
      </trkpt>
      <trkpt lat="40.241650" lon="-4.752117">
        <ele>1373.0</ele>
        <time>2018-09-16T13:40:36Z</time>
      </trkpt>
      <trkpt lat="40.241583" lon="-4.752200">
        <ele>1374.0</ele>
        <time>2018-09-16T13:40:37Z</time>
      </trkpt>
      <trkpt lat="40.241550" lon="-4.752283">
        <ele>1375.0</ele>
        <time>2018-09-16T13:40:38Z</time>
      </trkpt>
      <trkpt lat="40.241500" lon="-4.752350">
        <ele>1377.0</ele>
        <time>2018-09-16T13:40:39Z</time>
      </trkpt>
      <trkpt lat="40.241467" lon="-4.752433">
        <ele>1379.0</ele>
        <time>2018-09-16T13:40:40Z</time>
      </trkpt>
      <trkpt lat="40.241417" lon="-4.752517">
        <ele>1380.0</ele>
        <time>2018-09-16T13:40:41Z</time>
      </trkpt>
      <trkpt lat="40.241367" lon="-4.752600">
        <ele>1380.0</ele>
        <time>2018-09-16T13:40:42Z</time>
      </trkpt>
      <trkpt lat="40.241333" lon="-4.752700">
        <ele>1382.0</ele>
        <time>2018-09-16T13:40:43Z</time>
      </trkpt>
      <trkpt lat="40.241300" lon="-4.752817">
        <ele>1383.0</ele>
        <time>2018-09-16T13:40:44Z</time>
      </trkpt>
      <trkpt lat="40.241283" lon="-4.752917">
        <ele>1385.0</ele>
        <time>2018-09-16T13:40:45Z</time>
      </trkpt>
      <trkpt lat="40.241267" lon="-4.753000">
        <ele>1388.0</ele>
        <time>2018-09-16T13:40:46Z</time>
      </trkpt>
      <trkpt lat="40.241250" lon="-4.753100">
        <ele>1389.0</ele>
        <time>2018-09-16T13:40:47Z</time>
      </trkpt>
      <trkpt lat="40.241267" lon="-4.753183">
        <ele>1391.0</ele>
        <time>2018-09-16T13:40:48Z</time>
      </trkpt>
      <trkpt lat="40.241283" lon="-4.753300">
        <ele>1393.0</ele>
        <time>2018-09-16T13:40:49Z</time>
      </trkpt>
      <trkpt lat="40.241317" lon="-4.753383">
        <ele>1394.0</ele>
        <time>2018-09-16T13:40:50Z</time>
      </trkpt>
      <trkpt lat="40.241383" lon="-4.753483">
        <ele>1395.0</ele>
        <time>2018-09-16T13:40:51Z</time>
      </trkpt>
      <trkpt lat="40.241450" lon="-4.753550">
        <ele>1396.0</ele>
        <time>2018-09-16T13:40:52Z</time>
      </trkpt>
      <trkpt lat="40.241550" lon="-4.753617">
        <ele>1397.0</ele>
        <time>2018-09-16T13:40:53Z</time>
      </trkpt>
      <trkpt lat="40.241667" lon="-4.753650">
        <ele>1397.0</ele>
        <time>2018-09-16T13:40:54Z</time>
      </trkpt>
      <trkpt lat="40.241800" lon="-4.753650">
        <ele>1399.0</ele>
        <time>2018-09-16T13:40:55Z</time>
      </trkpt>
      <trkpt lat="40.241917" lon="-4.753600">
        <ele>1401.0</ele>
        <time>2018-09-16T13:40:56Z</time>
      </trkpt>
      <trkpt lat="40.242017" lon="-4.753533">
        <ele>1404.0</ele>
        <time>2018-09-16T13:40:57Z</time>
      </trkpt>
      <trkpt lat="40.242100" lon="-4.753433">
        <ele>1406.0</ele>
        <time>2018-09-16T13:40:58Z</time>
      </trkpt>
      <trkpt lat="40.242167" lon="-4.753333">
        <ele>1407.0</ele>
        <time>2018-09-16T13:40:59Z</time>
      </trkpt>
      <trkpt lat="40.242217" lon="-4.753217">
        <ele>1408.0</ele>
        <time>2018-09-16T13:41:00Z</time>
      </trkpt>
      <trkpt lat="40.242250" lon="-4.753083">
        <ele>1408.0</ele>
        <time>2018-09-16T13:41:01Z</time>
      </trkpt>
      <trkpt lat="40.242250" lon="-4.752950">
        <ele>1409.0</ele>
        <time>2018-09-16T13:41:02Z</time>
      </trkpt>
      <trkpt lat="40.242217" lon="-4.752833">
        <ele>1410.0</ele>
        <time>2018-09-16T13:41:03Z</time>
      </trkpt>
      <trkpt lat="40.242167" lon="-4.752750">
        <ele>1410.0</ele>
        <time>2018-09-16T13:41:04Z</time>
      </trkpt>
      <trkpt lat="40.242100" lon="-4.752683">
        <ele>1410.0</ele>
        <time>2018-09-16T13:41:05Z</time>
      </trkpt>
      <trkpt lat="40.242033" lon="-4.752650">
        <ele>1411.0</ele>
        <time>2018-09-16T13:41:06Z</time>
      </trkpt>
      <trkpt lat="40.241967" lon="-4.752650">
        <ele>1413.0</ele>
        <time>2018-09-16T13:41:07Z</time>
      </trkpt>
      <trkpt lat="40.241900" lon="-4.752650">
        <ele>1414.0</ele>
        <time>2018-09-16T13:41:08Z</time>
      </trkpt>
      <trkpt lat="40.241833" lon="-4.752683">
        <ele>1415.0</ele>
        <time>2018-09-16T13:41:09Z</time>
      </trkpt>
      <trkpt lat="40.241783" lon="-4.752717">
        <ele>1415.0</ele>
        <time>2018-09-16T13:41:10Z</time>
      </trkpt>
      <trkpt lat="40.241733" lon="-4.752800">
        <ele>1415.0</ele>
        <time>2018-09-16T13:41:11Z</time>
      </trkpt>
      <trkpt lat="40.241700" lon="-4.752883">
        <ele>1416.0</ele>
        <time>2018-09-16T13:41:12Z</time>
      </trkpt>
      <trkpt lat="40.241667" lon="-4.753000">
        <ele>1418.0</ele>
        <time>2018-09-16T13:41:13Z</time>
      </trkpt>
      <trkpt lat="40.241667" lon="-4.753100">
        <ele>1420.0</ele>
        <time>2018-09-16T13:41:14Z</time>
      </trkpt>
      <trkpt lat="40.241667" lon="-4.753200">
        <ele>1424.0</ele>
        <time>2018-09-16T13:41:15Z</time>
      </trkpt>
      <trkpt lat="40.241700" lon="-4.753300">
        <ele>1426.0</ele>
        <time>2018-09-16T13:41:16Z</time>
      </trkpt>
      <trkpt lat="40.241750" lon="-4.753400">
        <ele>1428.0</ele>
        <time>2018-09-16T13:41:17Z</time>
      </trkpt>
      <trkpt lat="40.241817" lon="-4.753483">
        <ele>1429.0</ele>
        <time>2018-09-16T13:41:18Z</time>
      </trkpt>
      <trkpt lat="40.241900" lon="-4.753567">
        <ele>1431.0</ele>
        <time>2018-09-16T13:41:19Z</time>
      </trkpt>
      <trkpt lat="40.242000" lon="-4.753633">
        <ele>1432.0</ele>
        <time>2018-09-16T13:41:20Z</time>
      </trkpt>
      <trkpt lat="40.242117" lon="-4.753667">
        <ele>1434.0</ele>
        <time>2018-09-16T13:41:21Z</time>
      </trkpt>
      <trkpt lat="40.242233" lon="-4.753667">
        <ele>1435.0</ele>
        <time>2018-09-16T13:41:22Z</time>
      </trkpt>
      <trkpt lat="40.242350" lon="-4.753667">
        <ele>1436.0</ele>
        <time>2018-09-16T13:41:23Z</time>
      </trkpt>
      <trkpt lat="40.242467" lon="-4.753633">
        <ele>1438.0</ele>
        <time>2018-09-16T13:41:24Z</time>
      </trkpt>
      <trkpt lat="40.242567" lon="-4.753600">
        <ele>1439.0</ele>
        <time>2018-09-16T13:41:25Z</time>
      </trkpt>
      <trkpt lat="40.242667" lon="-4.753517">
        <ele>1440.0</ele>
        <time>2018-09-16T13:41:26Z</time>
      </trkpt>
      <trkpt lat="40.242750" lon="-4.753417">
        <ele>1441.0</ele>
        <time>2018-09-16T13:41:27Z</time>
      </trkpt>
      <trkpt lat="40.242817" lon="-4.753300">
        <ele>1443.0</ele>
        <time>2018-09-16T13:41:28Z</time>
      </trkpt>
      <trkpt lat="40.242850" lon="-4.753183">
        <ele>1444.0</ele>
        <time>2018-09-16T13:41:29Z</time>
      </trkpt>
      <trkpt lat="40.242883" lon="-4.753050">
        <ele>1446.0</ele>
        <time>2018-09-16T13:41:30Z</time>
      </trkpt>
      <trkpt lat="40.242883" lon="-4.752933">
        <ele>1447.0</ele>
        <time>2018-09-16T13:41:31Z</time>
      </trkpt>
      <trkpt lat="40.242883" lon="-4.752833">
        <ele>1448.0</ele>
        <time>2018-09-16T13:41:32Z</time>
      </trkpt>
      <trkpt lat="40.242850" lon="-4.752733">
        <ele>1448.0</ele>
        <time>2018-09-16T13:41:33Z</time>
      </trkpt>
      <trkpt lat="40.242800" lon="-4.752633">
        <ele>1448.0</ele>
        <time>2018-09-16T13:41:34Z</time>
      </trkpt>
      <trkpt lat="40.242733" lon="-4.752567">
        <ele>1448.0</ele>
        <time>2018-09-16T13:41:35Z</time>
      </trkpt>
      <trkpt lat="40.242667" lon="-4.752500">
        <ele>1448.0</ele>
        <time>2018-09-16T13:41:36Z</time>
      </trkpt>
      <trkpt lat="40.242583" lon="-4.752467">
        <ele>1449.0</ele>
        <time>2018-09-16T13:41:37Z</time>
      </trkpt>
      <trkpt lat="40.242517" lon="-4.752450">
        <ele>1450.0</ele>
        <time>2018-09-16T13:41:38Z</time>
      </trkpt>
      <trkpt lat="40.242450" lon="-4.752467">
        <ele>1451.0</ele>
        <time>2018-09-16T13:41:39Z</time>
      </trkpt>
      <trkpt lat="40.242383" lon="-4.752517">
        <ele>1452.0</ele>
        <time>2018-09-16T13:41:40Z</time>
      </trkpt>
      <trkpt lat="40.242333" lon="-4.752583">
        <ele>1452.0</ele>
        <time>2018-09-16T13:41:41Z</time>
      </trkpt>
      <trkpt lat="40.242283" lon="-4.752683">
        <ele>1453.0</ele>
        <time>2018-09-16T13:41:42Z</time>
      </trkpt>
      <trkpt lat="40.242250" lon="-4.752783">
        <ele>1455.0</ele>
        <time>2018-09-16T13:41:43Z</time>
      </trkpt>
      <trkpt lat="40.242267" lon="-4.752900">
        <ele>1458.0</ele>
        <time>2018-09-16T13:41:44Z</time>
      </trkpt>
      <trkpt lat="40.242300" lon="-4.753000">
        <ele>1460.0</ele>
        <time>2018-09-16T13:41:45Z</time>
      </trkpt>
      <trkpt lat="40.242350" lon="-4.753083">
        <ele>1462.0</ele>
        <time>2018-09-16T13:41:46Z</time>
      </trkpt>
      <trkpt lat="40.242417" lon="-4.753183">
        <ele>1463.0</ele>
        <time>2018-09-16T13:41:47Z</time>
      </trkpt>
      <trkpt lat="40.242500" lon="-4.753267">
        <ele>1465.0</ele>
        <time>2018-09-16T13:41:48Z</time>
      </trkpt>
      <trkpt lat="40.242583" lon="-4.753317">
        <ele>1467.0</ele>
        <time>2018-09-16T13:41:49Z</time>
      </trkpt>
      <trkpt lat="40.242683" lon="-4.753350">
        <ele>1468.0</ele>
        <time>2018-09-16T13:41:50Z</time>
      </trkpt>
      <trkpt lat="40.242783" lon="-4.753367">
        <ele>1467.0</ele>
        <time>2018-09-16T13:41:51Z</time>
      </trkpt>
      <trkpt lat="40.242917" lon="-4.753317">
        <ele>1466.0</ele>
        <time>2018-09-16T13:41:52Z</time>
      </trkpt>
      <trkpt lat="40.243050" lon="-4.753250">
        <ele>1466.0</ele>
        <time>2018-09-16T13:41:53Z</time>
      </trkpt>
      <trkpt lat="40.243167" lon="-4.753167">
        <ele>1469.0</ele>
        <time>2018-09-16T13:41:54Z</time>
      </trkpt>
      <trkpt lat="40.243267" lon="-4.753067">
        <ele>1473.0</ele>
        <time>2018-09-16T13:41:55Z</time>
      </trkpt>
      <trkpt lat="40.243350" lon="-4.752983">
        <ele>1476.0</ele>
        <time>2018-09-16T13:41:56Z</time>
      </trkpt>
      <trkpt lat="40.243433" lon="-4.752900">
        <ele>1478.0</ele>
        <time>2018-09-16T13:41:57Z</time>
      </trkpt>
      <trkpt lat="40.243500" lon="-4.752800">
        <ele>1480.0</ele>
        <time>2018-09-16T13:41:58Z</time>
      </trkpt>
      <trkpt lat="40.243583" lon="-4.752700">
        <ele>1481.0</ele>
        <time>2018-09-16T13:41:59Z</time>
      </trkpt>
      <trkpt lat="40.243633" lon="-4.752583">
        <ele>1482.0</ele>
        <time>2018-09-16T13:42:00Z</time>
      </trkpt>
      <trkpt lat="40.243683" lon="-4.752450">
        <ele>1483.0</ele>
        <time>2018-09-16T13:42:01Z</time>
      </trkpt>
      <trkpt lat="40.243700" lon="-4.752317">
        <ele>1484.0</ele>
        <time>2018-09-16T13:42:02Z</time>
      </trkpt>
      <trkpt lat="40.243683" lon="-4.752200">
        <ele>1484.0</ele>
        <time>2018-09-16T13:42:03Z</time>
      </trkpt>
      <trkpt lat="40.243650" lon="-4.752083">
        <ele>1485.0</ele>
        <time>2018-09-16T13:42:04Z</time>
      </trkpt>
      <trkpt lat="40.243600" lon="-4.752000">
        <ele>1486.0</ele>
        <time>2018-09-16T13:42:05Z</time>
      </trkpt>
      <trkpt lat="40.243550" lon="-4.751917">
        <ele>1486.0</ele>
        <time>2018-09-16T13:42:06Z</time>
      </trkpt>
      <trkpt lat="40.243500" lon="-4.751883">
        <ele>1486.0</ele>
        <time>2018-09-16T13:42:07Z</time>
      </trkpt>
      <trkpt lat="40.243433" lon="-4.751850">
        <ele>1486.0</ele>
        <time>2018-09-16T13:42:08Z</time>
      </trkpt>
      <trkpt lat="40.243350" lon="-4.751867">
        <ele>1484.0</ele>
        <time>2018-09-16T13:42:09Z</time>
      </trkpt>
      <trkpt lat="40.243267" lon="-4.751917">
        <ele>1483.0</ele>
        <time>2018-09-16T13:42:10Z</time>
      </trkpt>
      <trkpt lat="40.243200" lon="-4.751983">
        <ele>1483.0</ele>
        <time>2018-09-16T13:42:11Z</time>
      </trkpt>
      <trkpt lat="40.243150" lon="-4.752083">
        <ele>1483.0</ele>
        <time>2018-09-16T13:42:12Z</time>
      </trkpt>
      <trkpt lat="40.243117" lon="-4.752200">
        <ele>1485.0</ele>
        <time>2018-09-16T13:42:13Z</time>
      </trkpt>
      <trkpt lat="40.243100" lon="-4.752333">
        <ele>1487.0</ele>
        <time>2018-09-16T13:42:14Z</time>
      </trkpt>
      <trkpt lat="40.243117" lon="-4.752450">
        <ele>1491.0</ele>
        <time>2018-09-16T13:42:15Z</time>
      </trkpt>
      <trkpt lat="40.243150" lon="-4.752567">
        <ele>1494.0</ele>
        <time>2018-09-16T13:42:16Z</time>
      </trkpt>
      <trkpt lat="40.243183" lon="-4.752667">
        <ele>1496.0</ele>
        <time>2018-09-16T13:42:17Z</time>
      </trkpt>
      <trkpt lat="40.243217" lon="-4.752750">
        <ele>1498.0</ele>
        <time>2018-09-16T13:42:18Z</time>
      </trkpt>
      <trkpt lat="40.243283" lon="-4.752833">
        <ele>1499.0</ele>
        <time>2018-09-16T13:42:19Z</time>
      </trkpt>
      <trkpt lat="40.243367" lon="-4.752917">
        <ele>1500.0</ele>
        <time>2018-09-16T13:42:20Z</time>
      </trkpt>
      <trkpt lat="40.243467" lon="-4.752983">
        <ele>1501.0</ele>
        <time>2018-09-16T13:42:21Z</time>
      </trkpt>
      <trkpt lat="40.243567" lon="-4.753033">
        <ele>1501.0</ele>
        <time>2018-09-16T13:42:22Z</time>
      </trkpt>
      <trkpt lat="40.243683" lon="-4.753067">
        <ele>1502.0</ele>
        <time>2018-09-16T13:42:23Z</time>
      </trkpt>
      <trkpt lat="40.243817" lon="-4.753083">
        <ele>1502.0</ele>
        <time>2018-09-16T13:42:24Z</time>
      </trkpt>
      <trkpt lat="40.243933" lon="-4.753067">
        <ele>1503.0</ele>
        <time>2018-09-16T13:42:25Z</time>
      </trkpt>
      <trkpt lat="40.244067" lon="-4.753033">
        <ele>1504.0</ele>
        <time>2018-09-16T13:42:26Z</time>
      </trkpt>
      <trkpt lat="40.244167" lon="-4.753000">
        <ele>1506.0</ele>
        <time>2018-09-16T13:42:27Z</time>
      </trkpt>
      <trkpt lat="40.244283" lon="-4.752933">
        <ele>1507.0</ele>
        <time>2018-09-16T13:42:28Z</time>
      </trkpt>
      <trkpt lat="40.244383" lon="-4.752867">
        <ele>1508.0</ele>
        <time>2018-09-16T13:42:29Z</time>
      </trkpt>
      <trkpt lat="40.244483" lon="-4.752783">
        <ele>1510.0</ele>
        <time>2018-09-16T13:42:30Z</time>
      </trkpt>
      <trkpt lat="40.244583" lon="-4.752683">
        <ele>1511.0</ele>
        <time>2018-09-16T13:42:31Z</time>
      </trkpt>
      <trkpt lat="40.244650" lon="-4.752567">
        <ele>1513.0</ele>
        <time>2018-09-16T13:42:32Z</time>
      </trkpt>
      <trkpt lat="40.244717" lon="-4.752450">
        <ele>1515.0</ele>
        <time>2018-09-16T13:42:33Z</time>
      </trkpt>
      <trkpt lat="40.244750" lon="-4.752317">
        <ele>1516.0</ele>
        <time>2018-09-16T13:42:34Z</time>
      </trkpt>
      <trkpt lat="40.244750" lon="-4.752200">
        <ele>1517.0</ele>
        <time>2018-09-16T13:42:35Z</time>
      </trkpt>
      <trkpt lat="40.244733" lon="-4.752067">
        <ele>1517.0</ele>
        <time>2018-09-16T13:42:36Z</time>
      </trkpt>
      <trkpt lat="40.244700" lon="-4.751967">
        <ele>1518.0</ele>
        <time>2018-09-16T13:42:37Z</time>
      </trkpt>
      <trkpt lat="40.244633" lon="-4.751883">
        <ele>1520.0</ele>
        <time>2018-09-16T13:42:38Z</time>
      </trkpt>
      <trkpt lat="40.244567" lon="-4.751850">
        <ele>1522.0</ele>
        <time>2018-09-16T13:42:39Z</time>
      </trkpt>
      <trkpt lat="40.244500" lon="-4.751867">
        <ele>1523.0</ele>
        <time>2018-09-16T13:42:40Z</time>
      </trkpt>
      <trkpt lat="40.244450" lon="-4.751917">
        <ele>1524.0</ele>
        <time>2018-09-16T13:42:41Z</time>
      </trkpt>
      <trkpt lat="40.244400" lon="-4.752000">
        <ele>1526.0</ele>
        <time>2018-09-16T13:42:42Z</time>
      </trkpt>
      <trkpt lat="40.244350" lon="-4.752083">
        <ele>1529.0</ele>
        <time>2018-09-16T13:42:43Z</time>
      </trkpt>
      <trkpt lat="40.244333" lon="-4.752167">
        <ele>1531.0</ele>
        <time>2018-09-16T13:42:44Z</time>
      </trkpt>
      <trkpt lat="40.244317" lon="-4.752283">
        <ele>1533.0</ele>
        <time>2018-09-16T13:42:45Z</time>
      </trkpt>
      <trkpt lat="40.244333" lon="-4.752383">
        <ele>1535.0</ele>
        <time>2018-09-16T13:42:46Z</time>
      </trkpt>
      <trkpt lat="40.244367" lon="-4.752500">
        <ele>1535.0</ele>
        <time>2018-09-16T13:42:47Z</time>
      </trkpt>
      <trkpt lat="40.244450" lon="-4.752600">
        <ele>1536.0</ele>
        <time>2018-09-16T13:42:48Z</time>
      </trkpt>
      <trkpt lat="40.244550" lon="-4.752683">
        <ele>1536.0</ele>
        <time>2018-09-16T13:42:49Z</time>
      </trkpt>
      <trkpt lat="40.244650" lon="-4.752733">
        <ele>1537.0</ele>
        <time>2018-09-16T13:42:50Z</time>
      </trkpt>
      <trkpt lat="40.244767" lon="-4.752767">
        <ele>1539.0</ele>
        <time>2018-09-16T13:42:51Z</time>
      </trkpt>
      <trkpt lat="40.244867" lon="-4.752767">
        <ele>1541.0</ele>
        <time>2018-09-16T13:42:52Z</time>
      </trkpt>
      <trkpt lat="40.244983" lon="-4.752733">
        <ele>1542.0</ele>
        <time>2018-09-16T13:42:53Z</time>
      </trkpt>
      <trkpt lat="40.245083" lon="-4.752667">
        <ele>1542.0</ele>
        <time>2018-09-16T13:42:54Z</time>
      </trkpt>
      <trkpt lat="40.245183" lon="-4.752567">
        <ele>1543.0</ele>
        <time>2018-09-16T13:42:55Z</time>
      </trkpt>
      <trkpt lat="40.245250" lon="-4.752467">
        <ele>1543.0</ele>
        <time>2018-09-16T13:42:56Z</time>
      </trkpt>
      <trkpt lat="40.245317" lon="-4.752333">
        <ele>1545.0</ele>
        <time>2018-09-16T13:42:57Z</time>
      </trkpt>
      <trkpt lat="40.245350" lon="-4.752217">
        <ele>1546.0</ele>
        <time>2018-09-16T13:42:58Z</time>
      </trkpt>
      <trkpt lat="40.245367" lon="-4.752100">
        <ele>1547.0</ele>
        <time>2018-09-16T13:42:59Z</time>
      </trkpt>
      <trkpt lat="40.245383" lon="-4.751983">
        <ele>1547.0</ele>
        <time>2018-09-16T13:43:00Z</time>
      </trkpt>
      <trkpt lat="40.245383" lon="-4.751867">
        <ele>1549.0</ele>
        <time>2018-09-16T13:43:01Z</time>
      </trkpt>
      <trkpt lat="40.245367" lon="-4.751767">
        <ele>1550.0</ele>
        <time>2018-09-16T13:43:02Z</time>
      </trkpt>
      <trkpt lat="40.245350" lon="-4.751683">
        <ele>1551.0</ele>
        <time>2018-09-16T13:43:03Z</time>
      </trkpt>
      <trkpt lat="40.245300" lon="-4.751600">
        <ele>1552.0</ele>
        <time>2018-09-16T13:43:04Z</time>
      </trkpt>
      <trkpt lat="40.245250" lon="-4.751533">
        <ele>1552.0</ele>
        <time>2018-09-16T13:43:05Z</time>
      </trkpt>
      <trkpt lat="40.245200" lon="-4.751483">
        <ele>1553.0</ele>
        <time>2018-09-16T13:43:06Z</time>
      </trkpt>
      <trkpt lat="40.245133" lon="-4.751467">
        <ele>1553.0</ele>
        <time>2018-09-16T13:43:07Z</time>
      </trkpt>
      <trkpt lat="40.245050" lon="-4.751467">
        <ele>1554.0</ele>
        <time>2018-09-16T13:43:08Z</time>
      </trkpt>
      <trkpt lat="40.244983" lon="-4.751483">
        <ele>1556.0</ele>
        <time>2018-09-16T13:43:09Z</time>
      </trkpt>
      <trkpt lat="40.244900" lon="-4.751533">
        <ele>1560.0</ele>
        <time>2018-09-16T13:43:10Z</time>
      </trkpt>
      <trkpt lat="40.244850" lon="-4.751617">
        <ele>1563.0</ele>
        <time>2018-09-16T13:43:11Z</time>
      </trkpt>
      <trkpt lat="40.244817" lon="-4.751700">
        <ele>1567.0</ele>
        <time>2018-09-16T13:43:12Z</time>
      </trkpt>
      <trkpt lat="40.244800" lon="-4.751800">
        <ele>1569.0</ele>
        <time>2018-09-16T13:43:13Z</time>
      </trkpt>
      <trkpt lat="40.244783" lon="-4.751900">
        <ele>1572.0</ele>
        <time>2018-09-16T13:43:14Z</time>
      </trkpt>
      <trkpt lat="40.244783" lon="-4.752000">
        <ele>1575.0</ele>
        <time>2018-09-16T13:43:15Z</time>
      </trkpt>
      <trkpt lat="40.244800" lon="-4.752100">
        <ele>1576.0</ele>
        <time>2018-09-16T13:43:16Z</time>
      </trkpt>
      <trkpt lat="40.244850" lon="-4.752200">
        <ele>1576.0</ele>
        <time>2018-09-16T13:43:17Z</time>
      </trkpt>
      <trkpt lat="40.244917" lon="-4.752283">
        <ele>1576.0</ele>
        <time>2018-09-16T13:43:18Z</time>
      </trkpt>
      <trkpt lat="40.245017" lon="-4.752350">
        <ele>1575.0</ele>
        <time>2018-09-16T13:43:19Z</time>
      </trkpt>
      <trkpt lat="40.245117" lon="-4.752383">
        <ele>1575.0</ele>
        <time>2018-09-16T13:43:20Z</time>
      </trkpt>
      <trkpt lat="40.245233" lon="-4.752383">
        <ele>1574.0</ele>
        <time>2018-09-16T13:43:21Z</time>
      </trkpt>
      <trkpt lat="40.245367" lon="-4.752333">
        <ele>1573.0</ele>
        <time>2018-09-16T13:43:22Z</time>
      </trkpt>
      <trkpt lat="40.245467" lon="-4.752233">
        <ele>1573.0</ele>
        <time>2018-09-16T13:43:23Z</time>
      </trkpt>
      <trkpt lat="40.245550" lon="-4.752100">
        <ele>1573.0</ele>
        <time>2018-09-16T13:43:24Z</time>
      </trkpt>
      <trkpt lat="40.245600" lon="-4.751950">
        <ele>1574.0</ele>
        <time>2018-09-16T13:43:25Z</time>
      </trkpt>
      <trkpt lat="40.245633" lon="-4.751817">
        <ele>1576.0</ele>
        <time>2018-09-16T13:43:26Z</time>
      </trkpt>
      <trkpt lat="40.245633" lon="-4.751667">
        <ele>1578.0</ele>
        <time>2018-09-16T13:43:27Z</time>
      </trkpt>
      <trkpt lat="40.245650" lon="-4.751533">
        <ele>1580.0</ele>
        <time>2018-09-16T13:43:28Z</time>
      </trkpt>
      <trkpt lat="40.245667" lon="-4.751417">
        <ele>1581.0</ele>
        <time>2018-09-16T13:43:29Z</time>
      </trkpt>
      <trkpt lat="40.245667" lon="-4.751283">
        <ele>1582.0</ele>
        <time>2018-09-16T13:43:30Z</time>
      </trkpt>
      <trkpt lat="40.245650" lon="-4.751133">
        <ele>1583.0</ele>
        <time>2018-09-16T13:43:31Z</time>
      </trkpt>
      <trkpt lat="40.245617" lon="-4.751000">
        <ele>1585.0</ele>
        <time>2018-09-16T13:43:32Z</time>
      </trkpt>
      <trkpt lat="40.245567" lon="-4.750900">
        <ele>1588.0</ele>
        <time>2018-09-16T13:43:33Z</time>
      </trkpt>
      <trkpt lat="40.245517" lon="-4.750800">
        <ele>1592.0</ele>
        <time>2018-09-16T13:43:34Z</time>
      </trkpt>
      <trkpt lat="40.245467" lon="-4.750733">
        <ele>1595.0</ele>
        <time>2018-09-16T13:43:35Z</time>
      </trkpt>
      <trkpt lat="40.245433" lon="-4.750667">
        <ele>1597.0</ele>
        <time>2018-09-16T13:43:36Z</time>
      </trkpt>
      <trkpt lat="40.245367" lon="-4.750633">
        <ele>1598.0</ele>
        <time>2018-09-16T13:43:37Z</time>
      </trkpt>
      <trkpt lat="40.245300" lon="-4.750600">
        <ele>1597.0</ele>
        <time>2018-09-16T13:43:38Z</time>
      </trkpt>
      <trkpt lat="40.245233" lon="-4.750600">
        <ele>1597.0</ele>
        <time>2018-09-16T13:43:39Z</time>
      </trkpt>
      <trkpt lat="40.245150" lon="-4.750633">
        <ele>1596.0</ele>
        <time>2018-09-16T13:43:40Z</time>
      </trkpt>
      <trkpt lat="40.245083" lon="-4.750700">
        <ele>1596.0</ele>
        <time>2018-09-16T13:43:41Z</time>
      </trkpt>
      <trkpt lat="40.245033" lon="-4.750800">
        <ele>1597.0</ele>
        <time>2018-09-16T13:43:42Z</time>
      </trkpt>
      <trkpt lat="40.245017" lon="-4.750900">
        <ele>1598.0</ele>
        <time>2018-09-16T13:43:43Z</time>
      </trkpt>
      <trkpt lat="40.245017" lon="-4.751017">
        <ele>1600.0</ele>
        <time>2018-09-16T13:43:44Z</time>
      </trkpt>
      <trkpt lat="40.245033" lon="-4.751133">
        <ele>1602.0</ele>
        <time>2018-09-16T13:43:45Z</time>
      </trkpt>
      <trkpt lat="40.245083" lon="-4.751250">
        <ele>1603.0</ele>
        <time>2018-09-16T13:43:46Z</time>
      </trkpt>
      <trkpt lat="40.245150" lon="-4.751367">
        <ele>1604.0</ele>
        <time>2018-09-16T13:43:47Z</time>
      </trkpt>
      <trkpt lat="40.245233" lon="-4.751467">
        <ele>1606.0</ele>
        <time>2018-09-16T13:43:48Z</time>
      </trkpt>
      <trkpt lat="40.245333" lon="-4.751533">
        <ele>1607.0</ele>
        <time>2018-09-16T13:43:49Z</time>
      </trkpt>
      <trkpt lat="40.245467" lon="-4.751567">
        <ele>1608.0</ele>
        <time>2018-09-16T13:43:50Z</time>
      </trkpt>
      <trkpt lat="40.245583" lon="-4.751567">
        <ele>1609.0</ele>
        <time>2018-09-16T13:43:51Z</time>
      </trkpt>
      <trkpt lat="40.245700" lon="-4.751550">
        <ele>1611.0</ele>
        <time>2018-09-16T13:43:52Z</time>
      </trkpt>
      <trkpt lat="40.245800" lon="-4.751500">
        <ele>1611.0</ele>
        <time>2018-09-16T13:43:53Z</time>
      </trkpt>
      <trkpt lat="40.245917" lon="-4.751433">
        <ele>1611.0</ele>
        <time>2018-09-16T13:43:54Z</time>
      </trkpt>
      <trkpt lat="40.246017" lon="-4.751350">
        <ele>1611.0</ele>
        <time>2018-09-16T13:43:55Z</time>
      </trkpt>
      <trkpt lat="40.246117" lon="-4.751233">
        <ele>1610.0</ele>
        <time>2018-09-16T13:43:56Z</time>
      </trkpt>
      <trkpt lat="40.246183" lon="-4.751083">
        <ele>1610.0</ele>
        <time>2018-09-16T13:43:57Z</time>
      </trkpt>
      <trkpt lat="40.246217" lon="-4.750917">
        <ele>1613.0</ele>
        <time>2018-09-16T13:43:58Z</time>
      </trkpt>
      <trkpt lat="40.246250" lon="-4.750783">
        <ele>1616.0</ele>
        <time>2018-09-16T13:43:59Z</time>
      </trkpt>
      <trkpt lat="40.246267" lon="-4.750667">
        <ele>1620.0</ele>
        <time>2018-09-16T13:44:00Z</time>
      </trkpt>
      <trkpt lat="40.246267" lon="-4.750567">
        <ele>1622.0</ele>
        <time>2018-09-16T13:44:01Z</time>
      </trkpt>
      <trkpt lat="40.246267" lon="-4.750467">
        <ele>1622.0</ele>
        <time>2018-09-16T13:44:02Z</time>
      </trkpt>
      <trkpt lat="40.246233" lon="-4.750367">
        <ele>1623.0</ele>
        <time>2018-09-16T13:44:03Z</time>
      </trkpt>
      <trkpt lat="40.246200" lon="-4.750267">
        <ele>1623.0</ele>
        <time>2018-09-16T13:44:04Z</time>
      </trkpt>
      <trkpt lat="40.246150" lon="-4.750183">
        <ele>1624.0</ele>
        <time>2018-09-16T13:44:05Z</time>
      </trkpt>
      <trkpt lat="40.246067" lon="-4.750133">
        <ele>1624.0</ele>
        <time>2018-09-16T13:44:06Z</time>
      </trkpt>
      <trkpt lat="40.245983" lon="-4.750133">
        <ele>1624.0</ele>
        <time>2018-09-16T13:44:07Z</time>
      </trkpt>
      <trkpt lat="40.245917" lon="-4.750183">
        <ele>1625.0</ele>
        <time>2018-09-16T13:44:08Z</time>
      </trkpt>
      <trkpt lat="40.245850" lon="-4.750233">
        <ele>1626.0</ele>
        <time>2018-09-16T13:44:09Z</time>
      </trkpt>
      <trkpt lat="40.245800" lon="-4.750300">
        <ele>1627.0</ele>
        <time>2018-09-16T13:44:10Z</time>
      </trkpt>
      <trkpt lat="40.245767" lon="-4.750367">
        <ele>1628.0</ele>
        <time>2018-09-16T13:44:11Z</time>
      </trkpt>
      <trkpt lat="40.245733" lon="-4.750433">
        <ele>1629.0</ele>
        <time>2018-09-16T13:44:12Z</time>
      </trkpt>
      <trkpt lat="40.245717" lon="-4.750533">
        <ele>1629.0</ele>
        <time>2018-09-16T13:44:13Z</time>
      </trkpt>
      <trkpt lat="40.245700" lon="-4.750650">
        <ele>1629.0</ele>
        <time>2018-09-16T13:44:14Z</time>
      </trkpt>
      <trkpt lat="40.245717" lon="-4.750767">
        <ele>1629.0</ele>
        <time>2018-09-16T13:44:15Z</time>
      </trkpt>
      <trkpt lat="40.245733" lon="-4.750900">
        <ele>1630.0</ele>
        <time>2018-09-16T13:44:16Z</time>
      </trkpt>
      <trkpt lat="40.245783" lon="-4.751017">
        <ele>1632.0</ele>
        <time>2018-09-16T13:44:17Z</time>
      </trkpt>
      <trkpt lat="40.245867" lon="-4.751117">
        <ele>1634.0</ele>
        <time>2018-09-16T13:44:18Z</time>
      </trkpt>
      <trkpt lat="40.245950" lon="-4.751183">
        <ele>1635.0</ele>
        <time>2018-09-16T13:44:19Z</time>
      </trkpt>
      <trkpt lat="40.246067" lon="-4.751250">
        <ele>1636.0</ele>
        <time>2018-09-16T13:44:20Z</time>
      </trkpt>
      <trkpt lat="40.246183" lon="-4.751283">
        <ele>1637.0</ele>
        <time>2018-09-16T13:44:21Z</time>
      </trkpt>
      <trkpt lat="40.246283" lon="-4.751300">
        <ele>1637.0</ele>
        <time>2018-09-16T13:44:22Z</time>
      </trkpt>
      <trkpt lat="40.246400" lon="-4.751283">
        <ele>1637.0</ele>
        <time>2018-09-16T13:44:23Z</time>
      </trkpt>
      <trkpt lat="40.246517" lon="-4.751250">
        <ele>1637.0</ele>
        <time>2018-09-16T13:44:24Z</time>
      </trkpt>
      <trkpt lat="40.246633" lon="-4.751167">
        <ele>1636.0</ele>
        <time>2018-09-16T13:44:25Z</time>
      </trkpt>
      <trkpt lat="40.246733" lon="-4.751083">
        <ele>1636.0</ele>
        <time>2018-09-16T13:44:26Z</time>
      </trkpt>
      <trkpt lat="40.246817" lon="-4.750967">
        <ele>1636.0</ele>
        <time>2018-09-16T13:44:27Z</time>
      </trkpt>
      <trkpt lat="40.246883" lon="-4.750833">
        <ele>1636.0</ele>
        <time>2018-09-16T13:44:28Z</time>
      </trkpt>
      <trkpt lat="40.246933" lon="-4.750717">
        <ele>1638.0</ele>
        <time>2018-09-16T13:44:29Z</time>
      </trkpt>
      <trkpt lat="40.246983" lon="-4.750583">
        <ele>1639.0</ele>
        <time>2018-09-16T13:44:30Z</time>
      </trkpt>
      <trkpt lat="40.247000" lon="-4.750450">
        <ele>1641.0</ele>
        <time>2018-09-16T13:44:31Z</time>
      </trkpt>
      <trkpt lat="40.247000" lon="-4.750317">
        <ele>1642.0</ele>
        <time>2018-09-16T13:44:32Z</time>
      </trkpt>
      <trkpt lat="40.247000" lon="-4.750200">
        <ele>1644.0</ele>
        <time>2018-09-16T13:44:33Z</time>
      </trkpt>
      <trkpt lat="40.246983" lon="-4.750100">
        <ele>1645.0</ele>
        <time>2018-09-16T13:44:34Z</time>
      </trkpt>
      <trkpt lat="40.246950" lon="-4.750000">
        <ele>1647.0</ele>
        <time>2018-09-16T13:44:35Z</time>
      </trkpt>
      <trkpt lat="40.246917" lon="-4.749933">
        <ele>1647.0</ele>
        <time>2018-09-16T13:44:36Z</time>
      </trkpt>
      <trkpt lat="40.246850" lon="-4.749900">
        <ele>1646.0</ele>
        <time>2018-09-16T13:44:37Z</time>
      </trkpt>
      <trkpt lat="40.246800" lon="-4.749917">
        <ele>1646.0</ele>
        <time>2018-09-16T13:44:38Z</time>
      </trkpt>
      <trkpt lat="40.246733" lon="-4.749967">
        <ele>1645.0</ele>
        <time>2018-09-16T13:44:39Z</time>
      </trkpt>
      <trkpt lat="40.246683" lon="-4.750033">
        <ele>1645.0</ele>
        <time>2018-09-16T13:44:40Z</time>
      </trkpt>
      <trkpt lat="40.246633" lon="-4.750117">
        <ele>1646.0</ele>
        <time>2018-09-16T13:44:41Z</time>
      </trkpt>
      <trkpt lat="40.246617" lon="-4.750217">
        <ele>1648.0</ele>
        <time>2018-09-16T13:44:42Z</time>
      </trkpt>
      <trkpt lat="40.246583" lon="-4.750317">
        <ele>1649.0</ele>
        <time>2018-09-16T13:44:43Z</time>
      </trkpt>
      <trkpt lat="40.246567" lon="-4.750433">
        <ele>1651.0</ele>
        <time>2018-09-16T13:44:44Z</time>
      </trkpt>
      <trkpt lat="40.246583" lon="-4.750533">
        <ele>1653.0</ele>
        <time>2018-09-16T13:44:45Z</time>
      </trkpt>
      <trkpt lat="40.246600" lon="-4.750650">
        <ele>1654.0</ele>
        <time>2018-09-16T13:44:46Z</time>
      </trkpt>
      <trkpt lat="40.246650" lon="-4.750750">
        <ele>1655.0</ele>
        <time>2018-09-16T13:44:47Z</time>
      </trkpt>
      <trkpt lat="40.246717" lon="-4.750833">
        <ele>1656.0</ele>
        <time>2018-09-16T13:44:48Z</time>
      </trkpt>
      <trkpt lat="40.246817" lon="-4.750900">
        <ele>1655.0</ele>
        <time>2018-09-16T13:44:49Z</time>
      </trkpt>
      <trkpt lat="40.246917" lon="-4.750950">
        <ele>1655.0</ele>
        <time>2018-09-16T13:44:50Z</time>
      </trkpt>
      <trkpt lat="40.247033" lon="-4.750983">
        <ele>1654.0</ele>
        <time>2018-09-16T13:44:51Z</time>
      </trkpt>
      <trkpt lat="40.247150" lon="-4.750967">
        <ele>1655.0</ele>
        <time>2018-09-16T13:44:52Z</time>
      </trkpt>
      <trkpt lat="40.247267" lon="-4.750917">
        <ele>1654.0</ele>
        <time>2018-09-16T13:44:53Z</time>
      </trkpt>
      <trkpt lat="40.247350" lon="-4.750850">
        <ele>1654.0</ele>
        <time>2018-09-16T13:44:54Z</time>
      </trkpt>
      <trkpt lat="40.247450" lon="-4.750750">
        <ele>1654.0</ele>
        <time>2018-09-16T13:44:55Z</time>
      </trkpt>
      <trkpt lat="40.247533" lon="-4.750650">
        <ele>1654.0</ele>
        <time>2018-09-16T13:44:56Z</time>
      </trkpt>
      <trkpt lat="40.247600" lon="-4.750533">
        <ele>1655.0</ele>
        <time>2018-09-16T13:44:57Z</time>
      </trkpt>
      <trkpt lat="40.247667" lon="-4.750417">
        <ele>1656.0</ele>
        <time>2018-09-16T13:44:58Z</time>
      </trkpt>
      <trkpt lat="40.247717" lon="-4.750283">
        <ele>1657.0</ele>
        <time>2018-09-16T13:44:59Z</time>
      </trkpt>
      <trkpt lat="40.247750" lon="-4.750150">
        <ele>1658.0</ele>
        <time>2018-09-16T13:45:00Z</time>
      </trkpt>
      <trkpt lat="40.247767" lon="-4.750000">
        <ele>1660.0</ele>
        <time>2018-09-16T13:45:01Z</time>
      </trkpt>
      <trkpt lat="40.247783" lon="-4.749867">
        <ele>1661.0</ele>
        <time>2018-09-16T13:45:02Z</time>
      </trkpt>
      <trkpt lat="40.247783" lon="-4.749750">
        <ele>1662.0</ele>
        <time>2018-09-16T13:45:03Z</time>
      </trkpt>
      <trkpt lat="40.247767" lon="-4.749633">
        <ele>1663.0</ele>
        <time>2018-09-16T13:45:04Z</time>
      </trkpt>
      <trkpt lat="40.247733" lon="-4.749533">
        <ele>1663.0</ele>
        <time>2018-09-16T13:45:05Z</time>
      </trkpt>
      <trkpt lat="40.247700" lon="-4.749450">
        <ele>1664.0</ele>
        <time>2018-09-16T13:45:06Z</time>
      </trkpt>
      <trkpt lat="40.247650" lon="-4.749367">
        <ele>1665.0</ele>
        <time>2018-09-16T13:45:07Z</time>
      </trkpt>
      <trkpt lat="40.247600" lon="-4.749283">
        <ele>1665.0</ele>
        <time>2018-09-16T13:45:08Z</time>
      </trkpt>
      <trkpt lat="40.247567" lon="-4.749217">
        <ele>1666.0</ele>
        <time>2018-09-16T13:45:09Z</time>
      </trkpt>
      <trkpt lat="40.247517" lon="-4.749167">
        <ele>1665.0</ele>
        <time>2018-09-16T13:45:10Z</time>
      </trkpt>
      <trkpt lat="40.247467" lon="-4.749133">
        <ele>1664.0</ele>
        <time>2018-09-16T13:45:11Z</time>
      </trkpt>
      <trkpt lat="40.247400" lon="-4.749100">
        <ele>1663.0</ele>
        <time>2018-09-16T13:45:12Z</time>
      </trkpt>
      <trkpt lat="40.247333" lon="-4.749100">
        <ele>1661.0</ele>
        <time>2018-09-16T13:45:13Z</time>
      </trkpt>
      <trkpt lat="40.247250" lon="-4.749100">
        <ele>1660.0</ele>
        <time>2018-09-16T13:45:14Z</time>
      </trkpt>
      <trkpt lat="40.247183" lon="-4.749100">
        <ele>1658.0</ele>
        <time>2018-09-16T13:45:15Z</time>
      </trkpt>
      <trkpt lat="40.247100" lon="-4.749100">
        <ele>1657.0</ele>
        <time>2018-09-16T13:45:16Z</time>
      </trkpt>
      <trkpt lat="40.247017" lon="-4.749100">
        <ele>1657.0</ele>
        <time>2018-09-16T13:45:17Z</time>
      </trkpt>
      <trkpt lat="40.246933" lon="-4.749083">
        <ele>1657.0</ele>
        <time>2018-09-16T13:45:18Z</time>
      </trkpt>
      <trkpt lat="40.246867" lon="-4.749033">
        <ele>1656.0</ele>
        <time>2018-09-16T13:45:19Z</time>
      </trkpt>
      <trkpt lat="40.246817" lon="-4.748983">
        <ele>1656.0</ele>
        <time>2018-09-16T13:45:20Z</time>
      </trkpt>
      <trkpt lat="40.246750" lon="-4.748950">
        <ele>1655.0</ele>
        <time>2018-09-16T13:45:21Z</time>
      </trkpt>
      <trkpt lat="40.246683" lon="-4.748917">
        <ele>1654.0</ele>
        <time>2018-09-16T13:45:22Z</time>
      </trkpt>
      <trkpt lat="40.246617" lon="-4.748900">
        <ele>1653.0</ele>
        <time>2018-09-16T13:45:23Z</time>
      </trkpt>
      <trkpt lat="40.246533" lon="-4.748883">
        <ele>1651.0</ele>
        <time>2018-09-16T13:45:24Z</time>
      </trkpt>
      <trkpt lat="40.246450" lon="-4.748850">
        <ele>1650.0</ele>
        <time>2018-09-16T13:45:25Z</time>
      </trkpt>
      <trkpt lat="40.246367" lon="-4.748833">
        <ele>1650.0</ele>
        <time>2018-09-16T13:45:26Z</time>
      </trkpt>
      <trkpt lat="40.246267" lon="-4.748817">
        <ele>1651.0</ele>
        <time>2018-09-16T13:45:27Z</time>
      </trkpt>
      <trkpt lat="40.246183" lon="-4.748800">
        <ele>1653.0</ele>
        <time>2018-09-16T13:45:28Z</time>
      </trkpt>
      <trkpt lat="40.246100" lon="-4.748800">
        <ele>1655.0</ele>
        <time>2018-09-16T13:45:29Z</time>
      </trkpt>
      <trkpt lat="40.246017" lon="-4.748783">
        <ele>1657.0</ele>
        <time>2018-09-16T13:45:30Z</time>
      </trkpt>
      <trkpt lat="40.245950" lon="-4.748800">
        <ele>1658.0</ele>
        <time>2018-09-16T13:45:31Z</time>
      </trkpt>
      <trkpt lat="40.245900" lon="-4.748817">
        <ele>1657.0</ele>
        <time>2018-09-16T13:45:32Z</time>
      </trkpt>
      <trkpt lat="40.245833" lon="-4.748867">
        <ele>1655.0</ele>
        <time>2018-09-16T13:45:33Z</time>
      </trkpt>
      <trkpt lat="40.245783" lon="-4.748950">
        <ele>1653.0</ele>
        <time>2018-09-16T13:45:34Z</time>
      </trkpt>
      <trkpt lat="40.245750" lon="-4.749067">
        <ele>1651.0</ele>
        <time>2018-09-16T13:45:35Z</time>
      </trkpt>
      <trkpt lat="40.245750" lon="-4.749200">
        <ele>1651.0</ele>
        <time>2018-09-16T13:45:36Z</time>
      </trkpt>
      <trkpt lat="40.245750" lon="-4.749333">
        <ele>1653.0</ele>
        <time>2018-09-16T13:45:37Z</time>
      </trkpt>
      <trkpt lat="40.245767" lon="-4.749450">
        <ele>1655.0</ele>
        <time>2018-09-16T13:45:38Z</time>
      </trkpt>
      <trkpt lat="40.245800" lon="-4.749550">
        <ele>1658.0</ele>
        <time>2018-09-16T13:45:39Z</time>
      </trkpt>
      <trkpt lat="40.245833" lon="-4.749633">
        <ele>1659.0</ele>
        <time>2018-09-16T13:45:40Z</time>
      </trkpt>
      <trkpt lat="40.245883" lon="-4.749717">
        <ele>1660.0</ele>
        <time>2018-09-16T13:45:41Z</time>
      </trkpt>
      <trkpt lat="40.245950" lon="-4.749800">
        <ele>1660.0</ele>
        <time>2018-09-16T13:45:42Z</time>
      </trkpt>
      <trkpt lat="40.246033" lon="-4.749883">
        <ele>1660.0</ele>
        <time>2018-09-16T13:45:43Z</time>
      </trkpt>
      <trkpt lat="40.246133" lon="-4.749933">
        <ele>1661.0</ele>
        <time>2018-09-16T13:45:44Z</time>
      </trkpt>
      <trkpt lat="40.246233" lon="-4.749950">
        <ele>1662.0</ele>
        <time>2018-09-16T13:45:45Z</time>
      </trkpt>
      <trkpt lat="40.246350" lon="-4.749933">
        <ele>1663.0</ele>
        <time>2018-09-16T13:45:46Z</time>
      </trkpt>
      <trkpt lat="40.246450" lon="-4.749883">
        <ele>1663.0</ele>
        <time>2018-09-16T13:45:47Z</time>
      </trkpt>
      <trkpt lat="40.246550" lon="-4.749817">
        <ele>1663.0</ele>
        <time>2018-09-16T13:45:48Z</time>
      </trkpt>
      <trkpt lat="40.246650" lon="-4.749717">
        <ele>1664.0</ele>
        <time>2018-09-16T13:45:49Z</time>
      </trkpt>
      <trkpt lat="40.246717" lon="-4.749600">
        <ele>1665.0</ele>
        <time>2018-09-16T13:45:50Z</time>
      </trkpt>
      <trkpt lat="40.246783" lon="-4.749467">
        <ele>1665.0</ele>
        <time>2018-09-16T13:45:51Z</time>
      </trkpt>
      <trkpt lat="40.246817" lon="-4.749350">
        <ele>1665.0</ele>
        <time>2018-09-16T13:45:52Z</time>
      </trkpt>
      <trkpt lat="40.246833" lon="-4.749217">
        <ele>1665.0</ele>
        <time>2018-09-16T13:45:53Z</time>
      </trkpt>
      <trkpt lat="40.246850" lon="-4.749100">
        <ele>1666.0</ele>
        <time>2018-09-16T13:45:54Z</time>
      </trkpt>
      <trkpt lat="40.246833" lon="-4.748983">
        <ele>1666.0</ele>
        <time>2018-09-16T13:45:55Z</time>
      </trkpt>
      <trkpt lat="40.246800" lon="-4.748867">
        <ele>1665.0</ele>
        <time>2018-09-16T13:45:56Z</time>
      </trkpt>
      <trkpt lat="40.246750" lon="-4.748783">
        <ele>1664.0</ele>
        <time>2018-09-16T13:45:57Z</time>
      </trkpt>
      <trkpt lat="40.246667" lon="-4.748700">
        <ele>1664.0</ele>
        <time>2018-09-16T13:45:58Z</time>
      </trkpt>
      <trkpt lat="40.246583" lon="-4.748617">
        <ele>1664.0</ele>
        <time>2018-09-16T13:45:59Z</time>
      </trkpt>
      <trkpt lat="40.246517" lon="-4.748567">
        <ele>1664.0</ele>
        <time>2018-09-16T13:46:00Z</time>
      </trkpt>
      <trkpt lat="40.246450" lon="-4.748500">
        <ele>1664.0</ele>
        <time>2018-09-16T13:46:01Z</time>
      </trkpt>
      <trkpt lat="40.246383" lon="-4.748433">
        <ele>1664.0</ele>
        <time>2018-09-16T13:46:02Z</time>
      </trkpt>
      <trkpt lat="40.246317" lon="-4.748367">
        <ele>1663.0</ele>
        <time>2018-09-16T13:46:03Z</time>
      </trkpt>
      <trkpt lat="40.246233" lon="-4.748300">
        <ele>1663.0</ele>
        <time>2018-09-16T13:46:04Z</time>
      </trkpt>
      <trkpt lat="40.246150" lon="-4.748233">
        <ele>1662.0</ele>
        <time>2018-09-16T13:46:05Z</time>
      </trkpt>
      <trkpt lat="40.246083" lon="-4.748167">
        <ele>1663.0</ele>
        <time>2018-09-16T13:46:06Z</time>
      </trkpt>
      <trkpt lat="40.246000" lon="-4.748100">
        <ele>1664.0</ele>
        <time>2018-09-16T13:46:07Z</time>
      </trkpt>
      <trkpt lat="40.245933" lon="-4.748033">
        <ele>1665.0</ele>
        <time>2018-09-16T13:46:08Z</time>
      </trkpt>
      <trkpt lat="40.245867" lon="-4.747983">
        <ele>1666.0</ele>
        <time>2018-09-16T13:46:09Z</time>
      </trkpt>
      <trkpt lat="40.245783" lon="-4.747917">
        <ele>1665.0</ele>
        <time>2018-09-16T13:46:10Z</time>
      </trkpt>
      <trkpt lat="40.245717" lon="-4.747867">
        <ele>1665.0</ele>
        <time>2018-09-16T13:46:11Z</time>
      </trkpt>
      <trkpt lat="40.245633" lon="-4.747800">
        <ele>1665.0</ele>
        <time>2018-09-16T13:46:12Z</time>
      </trkpt>
      <trkpt lat="40.245567" lon="-4.747750">
        <ele>1666.0</ele>
        <time>2018-09-16T13:46:13Z</time>
      </trkpt>
      <trkpt lat="40.245483" lon="-4.747733">
        <ele>1665.0</ele>
        <time>2018-09-16T13:46:14Z</time>
      </trkpt>
      <trkpt lat="40.245417" lon="-4.747733">
        <ele>1665.0</ele>
        <time>2018-09-16T13:46:15Z</time>
      </trkpt>
      <trkpt lat="40.245333" lon="-4.747767">
        <ele>1664.0</ele>
        <time>2018-09-16T13:46:16Z</time>
      </trkpt>
      <trkpt lat="40.245267" lon="-4.747817">
        <ele>1664.0</ele>
        <time>2018-09-16T13:46:17Z</time>
      </trkpt>
      <trkpt lat="40.245200" lon="-4.747900">
        <ele>1664.0</ele>
        <time>2018-09-16T13:46:18Z</time>
      </trkpt>
      <trkpt lat="40.245167" lon="-4.747983">
        <ele>1664.0</ele>
        <time>2018-09-16T13:46:19Z</time>
      </trkpt>
      <trkpt lat="40.245133" lon="-4.748067">
        <ele>1664.0</ele>
        <time>2018-09-16T13:46:20Z</time>
      </trkpt>
      <trkpt lat="40.245133" lon="-4.748167">
        <ele>1664.0</ele>
        <time>2018-09-16T13:46:21Z</time>
      </trkpt>
      <trkpt lat="40.245150" lon="-4.748250">
        <ele>1663.0</ele>
        <time>2018-09-16T13:46:22Z</time>
      </trkpt>
      <trkpt lat="40.245200" lon="-4.748333">
        <ele>1662.0</ele>
        <time>2018-09-16T13:46:23Z</time>
      </trkpt>
      <trkpt lat="40.245267" lon="-4.748417">
        <ele>1663.0</ele>
        <time>2018-09-16T13:46:24Z</time>
      </trkpt>
      <trkpt lat="40.245350" lon="-4.748450">
        <ele>1664.0</ele>
        <time>2018-09-16T13:46:25Z</time>
      </trkpt>
      <trkpt lat="40.245433" lon="-4.748467">
        <ele>1666.0</ele>
        <time>2018-09-16T13:46:26Z</time>
      </trkpt>
      <trkpt lat="40.245500" lon="-4.748450">
        <ele>1666.0</ele>
        <time>2018-09-16T13:46:27Z</time>
      </trkpt>
      <trkpt lat="40.245583" lon="-4.748417">
        <ele>1666.0</ele>
        <time>2018-09-16T13:46:28Z</time>
      </trkpt>
      <trkpt lat="40.245683" lon="-4.748367">
        <ele>1666.0</ele>
        <time>2018-09-16T13:46:29Z</time>
      </trkpt>
      <trkpt lat="40.245767" lon="-4.748317">
        <ele>1666.0</ele>
        <time>2018-09-16T13:46:30Z</time>
      </trkpt>
      <trkpt lat="40.245867" lon="-4.748233">
        <ele>1666.0</ele>
        <time>2018-09-16T13:46:31Z</time>
      </trkpt>
      <trkpt lat="40.245967" lon="-4.748167">
        <ele>1667.0</ele>
        <time>2018-09-16T13:46:32Z</time>
      </trkpt>
      <trkpt lat="40.246050" lon="-4.748117">
        <ele>1669.0</ele>
        <time>2018-09-16T13:46:33Z</time>
      </trkpt>
      <trkpt lat="40.246150" lon="-4.748067">
        <ele>1670.0</ele>
        <time>2018-09-16T13:46:34Z</time>
      </trkpt>
      <trkpt lat="40.246250" lon="-4.748017">
        <ele>1671.0</ele>
        <time>2018-09-16T13:46:35Z</time>
      </trkpt>
      <trkpt lat="40.246333" lon="-4.747950">
        <ele>1672.0</ele>
        <time>2018-09-16T13:46:36Z</time>
      </trkpt>
      <trkpt lat="40.246417" lon="-4.747850">
        <ele>1673.0</ele>
        <time>2018-09-16T13:46:37Z</time>
      </trkpt>
      <trkpt lat="40.246467" lon="-4.747733">
        <ele>1673.0</ele>
        <time>2018-09-16T13:46:38Z</time>
      </trkpt>
      <trkpt lat="40.246500" lon="-4.747583">
        <ele>1673.0</ele>
        <time>2018-09-16T13:46:39Z</time>
      </trkpt>
      <trkpt lat="40.246500" lon="-4.747450">
        <ele>1674.0</ele>
        <time>2018-09-16T13:46:40Z</time>
      </trkpt>
      <trkpt lat="40.246467" lon="-4.747333">
        <ele>1674.0</ele>
        <time>2018-09-16T13:46:41Z</time>
      </trkpt>
      <trkpt lat="40.246417" lon="-4.747217">
        <ele>1674.0</ele>
        <time>2018-09-16T13:46:42Z</time>
      </trkpt>
      <trkpt lat="40.246350" lon="-4.747133">
        <ele>1673.0</ele>
        <time>2018-09-16T13:46:43Z</time>
      </trkpt>
      <trkpt lat="40.246267" lon="-4.747083">
        <ele>1672.0</ele>
        <time>2018-09-16T13:46:44Z</time>
      </trkpt>
      <trkpt lat="40.246183" lon="-4.747050">
        <ele>1672.0</ele>
        <time>2018-09-16T13:46:45Z</time>
      </trkpt>
      <trkpt lat="40.246100" lon="-4.747033">
        <ele>1671.0</ele>
        <time>2018-09-16T13:46:46Z</time>
      </trkpt>
      <trkpt lat="40.246017" lon="-4.747067">
        <ele>1671.0</ele>
        <time>2018-09-16T13:46:47Z</time>
      </trkpt>
      <trkpt lat="40.245933" lon="-4.747117">
        <ele>1669.0</ele>
        <time>2018-09-16T13:46:48Z</time>
      </trkpt>
      <trkpt lat="40.245867" lon="-4.747183">
        <ele>1669.0</ele>
        <time>2018-09-16T13:46:49Z</time>
      </trkpt>
      <trkpt lat="40.245817" lon="-4.747267">
        <ele>1668.0</ele>
        <time>2018-09-16T13:46:50Z</time>
      </trkpt>
      <trkpt lat="40.245767" lon="-4.747350">
        <ele>1668.0</ele>
        <time>2018-09-16T13:46:51Z</time>
      </trkpt>
      <trkpt lat="40.245750" lon="-4.747450">
        <ele>1668.0</ele>
        <time>2018-09-16T13:46:52Z</time>
      </trkpt>
      <trkpt lat="40.245750" lon="-4.747533">
        <ele>1666.0</ele>
        <time>2018-09-16T13:46:53Z</time>
      </trkpt>
      <trkpt lat="40.245800" lon="-4.747633">
        <ele>1664.0</ele>
        <time>2018-09-16T13:46:54Z</time>
      </trkpt>
      <trkpt lat="40.245850" lon="-4.747717">
        <ele>1663.0</ele>
        <time>2018-09-16T13:46:55Z</time>
      </trkpt>
      <trkpt lat="40.245917" lon="-4.747783">
        <ele>1662.0</ele>
        <time>2018-09-16T13:46:56Z</time>
      </trkpt>
      <trkpt lat="40.245983" lon="-4.747833">
        <ele>1662.0</ele>
        <time>2018-09-16T13:46:57Z</time>
      </trkpt>
      <trkpt lat="40.246067" lon="-4.747833">
        <ele>1663.0</ele>
        <time>2018-09-16T13:46:58Z</time>
      </trkpt>
      <trkpt lat="40.246150" lon="-4.747833">
        <ele>1664.0</ele>
        <time>2018-09-16T13:46:59Z</time>
      </trkpt>
      <trkpt lat="40.246217" lon="-4.747800">
        <ele>1664.0</ele>
        <time>2018-09-16T13:47:00Z</time>
      </trkpt>
      <trkpt lat="40.246300" lon="-4.747767">
        <ele>1664.0</ele>
        <time>2018-09-16T13:47:01Z</time>
      </trkpt>
      <trkpt lat="40.246367" lon="-4.747717">
        <ele>1663.0</ele>
        <time>2018-09-16T13:47:02Z</time>
      </trkpt>
      <trkpt lat="40.246467" lon="-4.747667">
        <ele>1661.0</ele>
        <time>2018-09-16T13:47:03Z</time>
      </trkpt>
      <trkpt lat="40.246550" lon="-4.747583">
        <ele>1660.0</ele>
        <time>2018-09-16T13:47:04Z</time>
      </trkpt>
      <trkpt lat="40.246617" lon="-4.747467">
        <ele>1659.0</ele>
        <time>2018-09-16T13:47:05Z</time>
      </trkpt>
      <trkpt lat="40.246683" lon="-4.747333">
        <ele>1659.0</ele>
        <time>2018-09-16T13:47:06Z</time>
      </trkpt>
      <trkpt lat="40.246700" lon="-4.747200">
        <ele>1660.0</ele>
        <time>2018-09-16T13:47:07Z</time>
      </trkpt>
      <trkpt lat="40.246717" lon="-4.747067">
        <ele>1660.0</ele>
        <time>2018-09-16T13:47:08Z</time>
      </trkpt>
      <trkpt lat="40.246700" lon="-4.746933">
        <ele>1660.0</ele>
        <time>2018-09-16T13:47:09Z</time>
      </trkpt>
      <trkpt lat="40.246667" lon="-4.746800">
        <ele>1660.0</ele>
        <time>2018-09-16T13:47:10Z</time>
      </trkpt>
      <trkpt lat="40.246600" lon="-4.746700">
        <ele>1659.0</ele>
        <time>2018-09-16T13:47:11Z</time>
      </trkpt>
      <trkpt lat="40.246533" lon="-4.746617">
        <ele>1659.0</ele>
        <time>2018-09-16T13:47:12Z</time>
      </trkpt>
      <trkpt lat="40.246433" lon="-4.746567">
        <ele>1660.0</ele>
        <time>2018-09-16T13:47:13Z</time>
      </trkpt>
      <trkpt lat="40.246350" lon="-4.746533">
        <ele>1659.0</ele>
        <time>2018-09-16T13:47:14Z</time>
      </trkpt>
      <trkpt lat="40.246283" lon="-4.746533">
        <ele>1658.0</ele>
        <time>2018-09-16T13:47:15Z</time>
      </trkpt>
      <trkpt lat="40.246217" lon="-4.746533">
        <ele>1656.0</ele>
        <time>2018-09-16T13:47:16Z</time>
      </trkpt>
      <trkpt lat="40.246133" lon="-4.746550">
        <ele>1653.0</ele>
        <time>2018-09-16T13:47:17Z</time>
      </trkpt>
      <trkpt lat="40.246050" lon="-4.746567">
        <ele>1651.0</ele>
        <time>2018-09-16T13:47:18Z</time>
      </trkpt>
      <trkpt lat="40.245950" lon="-4.746583">
        <ele>1649.0</ele>
        <time>2018-09-16T13:47:19Z</time>
      </trkpt>
      <trkpt lat="40.245867" lon="-4.746617">
        <ele>1647.0</ele>
        <time>2018-09-16T13:47:20Z</time>
      </trkpt>
      <trkpt lat="40.245800" lon="-4.746650">
        <ele>1645.0</ele>
        <time>2018-09-16T13:47:21Z</time>
      </trkpt>
      <trkpt lat="40.245717" lon="-4.746700">
        <ele>1643.0</ele>
        <time>2018-09-16T13:47:22Z</time>
      </trkpt>
      <trkpt lat="40.245650" lon="-4.746783">
        <ele>1641.0</ele>
        <time>2018-09-16T13:47:23Z</time>
      </trkpt>
      <trkpt lat="40.245583" lon="-4.746867">
        <ele>1639.0</ele>
        <time>2018-09-16T13:47:24Z</time>
      </trkpt>
      <trkpt lat="40.245517" lon="-4.746933">
        <ele>1637.0</ele>
        <time>2018-09-16T13:47:25Z</time>
      </trkpt>
      <trkpt lat="40.245450" lon="-4.747000">
        <ele>1636.0</ele>
        <time>2018-09-16T13:47:26Z</time>
      </trkpt>
      <trkpt lat="40.245383" lon="-4.747067">
        <ele>1634.0</ele>
        <time>2018-09-16T13:47:27Z</time>
      </trkpt>
      <trkpt lat="40.245317" lon="-4.747100">
        <ele>1633.0</ele>
        <time>2018-09-16T13:47:28Z</time>
      </trkpt>
      <trkpt lat="40.245250" lon="-4.747150">
        <ele>1632.0</ele>
        <time>2018-09-16T13:47:29Z</time>
      </trkpt>
      <trkpt lat="40.245167" lon="-4.747200">
        <ele>1630.0</ele>
        <time>2018-09-16T13:47:30Z</time>
      </trkpt>
      <trkpt lat="40.245100" lon="-4.747250">
        <ele>1630.0</ele>
        <time>2018-09-16T13:47:31Z</time>
      </trkpt>
      <trkpt lat="40.245017" lon="-4.747283">
        <ele>1629.0</ele>
        <time>2018-09-16T13:47:32Z</time>
      </trkpt>
      <trkpt lat="40.244950" lon="-4.747333">
        <ele>1629.0</ele>
        <time>2018-09-16T13:47:33Z</time>
      </trkpt>
      <trkpt lat="40.244883" lon="-4.747367">
        <ele>1627.0</ele>
        <time>2018-09-16T13:47:34Z</time>
      </trkpt>
      <trkpt lat="40.244833" lon="-4.747417">
        <ele>1625.0</ele>
        <time>2018-09-16T13:47:35Z</time>
      </trkpt>
      <trkpt lat="40.244767" lon="-4.747450">
        <ele>1623.0</ele>
        <time>2018-09-16T13:47:36Z</time>
      </trkpt>
      <trkpt lat="40.244683" lon="-4.747517">
        <ele>1621.0</ele>
        <time>2018-09-16T13:47:37Z</time>
      </trkpt>
      <trkpt lat="40.244617" lon="-4.747567">
        <ele>1620.0</ele>
        <time>2018-09-16T13:47:38Z</time>
      </trkpt>
      <trkpt lat="40.244550" lon="-4.747617">
        <ele>1620.0</ele>
        <time>2018-09-16T13:47:39Z</time>
      </trkpt>
      <trkpt lat="40.244483" lon="-4.747667">
        <ele>1619.0</ele>
        <time>2018-09-16T13:47:40Z</time>
      </trkpt>
      <trkpt lat="40.244417" lon="-4.747717">
        <ele>1619.0</ele>
        <time>2018-09-16T13:47:41Z</time>
      </trkpt>
      <trkpt lat="40.244367" lon="-4.747767">
        <ele>1617.0</ele>
        <time>2018-09-16T13:47:42Z</time>
      </trkpt>
      <trkpt lat="40.244300" lon="-4.747833">
        <ele>1615.0</ele>
        <time>2018-09-16T13:47:43Z</time>
      </trkpt>
      <trkpt lat="40.244233" lon="-4.747883">
        <ele>1612.0</ele>
        <time>2018-09-16T13:47:44Z</time>
      </trkpt>
      <trkpt lat="40.244150" lon="-4.747933">
        <ele>1609.0</ele>
        <time>2018-09-16T13:47:45Z</time>
      </trkpt>
      <trkpt lat="40.244083" lon="-4.747967">
        <ele>1607.0</ele>
        <time>2018-09-16T13:47:46Z</time>
      </trkpt>
      <trkpt lat="40.244017" lon="-4.748017">
        <ele>1604.0</ele>
        <time>2018-09-16T13:47:47Z</time>
      </trkpt>
      <trkpt lat="40.243933" lon="-4.748050">
        <ele>1602.0</ele>
        <time>2018-09-16T13:47:48Z</time>
      </trkpt>
      <trkpt lat="40.243867" lon="-4.748100">
        <ele>1600.0</ele>
        <time>2018-09-16T13:47:49Z</time>
      </trkpt>
      <trkpt lat="40.243783" lon="-4.748150">
        <ele>1598.0</ele>
        <time>2018-09-16T13:47:50Z</time>
      </trkpt>
      <trkpt lat="40.243717" lon="-4.748200">
        <ele>1597.0</ele>
        <time>2018-09-16T13:47:51Z</time>
      </trkpt>
      <trkpt lat="40.243650" lon="-4.748267">
        <ele>1595.0</ele>
        <time>2018-09-16T13:47:52Z</time>
      </trkpt>
      <trkpt lat="40.243600" lon="-4.748317">
        <ele>1594.0</ele>
        <time>2018-09-16T13:47:53Z</time>
      </trkpt>
      <trkpt lat="40.243533" lon="-4.748367">
        <ele>1592.0</ele>
        <time>2018-09-16T13:47:54Z</time>
      </trkpt>
      <trkpt lat="40.243450" lon="-4.748400">
        <ele>1590.0</ele>
        <time>2018-09-16T13:47:55Z</time>
      </trkpt>
      <trkpt lat="40.243383" lon="-4.748450">
        <ele>1589.0</ele>
        <time>2018-09-16T13:47:56Z</time>
      </trkpt>
      <trkpt lat="40.243300" lon="-4.748483">
        <ele>1589.0</ele>
        <time>2018-09-16T13:47:57Z</time>
      </trkpt>
      <trkpt lat="40.243233" lon="-4.748517">
        <ele>1588.0</ele>
        <time>2018-09-16T13:47:58Z</time>
      </trkpt>
      <trkpt lat="40.243167" lon="-4.748533">
        <ele>1588.0</ele>
        <time>2018-09-16T13:47:59Z</time>
      </trkpt>
      <trkpt lat="40.243100" lon="-4.748550">
        <ele>1586.0</ele>
        <time>2018-09-16T13:48:00Z</time>
      </trkpt>
      <trkpt lat="40.243017" lon="-4.748567">
        <ele>1585.0</ele>
        <time>2018-09-16T13:48:01Z</time>
      </trkpt>
      <trkpt lat="40.242933" lon="-4.748567">
        <ele>1583.0</ele>
        <time>2018-09-16T13:48:02Z</time>
      </trkpt>
      <trkpt lat="40.242850" lon="-4.748583">
        <ele>1582.0</ele>
        <time>2018-09-16T13:48:03Z</time>
      </trkpt>
      <trkpt lat="40.242783" lon="-4.748583">
        <ele>1581.0</ele>
        <time>2018-09-16T13:48:04Z</time>
      </trkpt>
      <trkpt lat="40.242700" lon="-4.748600">
        <ele>1580.0</ele>
        <time>2018-09-16T13:48:05Z</time>
      </trkpt>
      <trkpt lat="40.242617" lon="-4.748600">
        <ele>1579.0</ele>
        <time>2018-09-16T13:48:06Z</time>
      </trkpt>
      <trkpt lat="40.242550" lon="-4.748617">
        <ele>1577.0</ele>
        <time>2018-09-16T13:48:07Z</time>
      </trkpt>
      <trkpt lat="40.242467" lon="-4.748617">
        <ele>1576.0</ele>
        <time>2018-09-16T13:48:08Z</time>
      </trkpt>
      <trkpt lat="40.242383" lon="-4.748617">
        <ele>1574.0</ele>
        <time>2018-09-16T13:48:09Z</time>
      </trkpt>
      <trkpt lat="40.242300" lon="-4.748633">
        <ele>1573.0</ele>
        <time>2018-09-16T13:48:10Z</time>
      </trkpt>
      <trkpt lat="40.242217" lon="-4.748650">
        <ele>1571.0</ele>
        <time>2018-09-16T13:48:11Z</time>
      </trkpt>
      <trkpt lat="40.242150" lon="-4.748667">
        <ele>1571.0</ele>
        <time>2018-09-16T13:48:12Z</time>
      </trkpt>
      <trkpt lat="40.242067" lon="-4.748683">
        <ele>1569.0</ele>
        <time>2018-09-16T13:48:13Z</time>
      </trkpt>
      <trkpt lat="40.241983" lon="-4.748700">
        <ele>1568.0</ele>
        <time>2018-09-16T13:48:14Z</time>
      </trkpt>
      <trkpt lat="40.241917" lon="-4.748717">
        <ele>1566.0</ele>
        <time>2018-09-16T13:48:15Z</time>
      </trkpt>
      <trkpt lat="40.241833" lon="-4.748733">
        <ele>1564.0</ele>
        <time>2018-09-16T13:48:16Z</time>
      </trkpt>
      <trkpt lat="40.241733" lon="-4.748750">
        <ele>1563.0</ele>
        <time>2018-09-16T13:48:17Z</time>
      </trkpt>
      <trkpt lat="40.241650" lon="-4.748767">
        <ele>1562.0</ele>
        <time>2018-09-16T13:48:18Z</time>
      </trkpt>
      <trkpt lat="40.241583" lon="-4.748783">
        <ele>1562.0</ele>
        <time>2018-09-16T13:48:19Z</time>
      </trkpt>
      <trkpt lat="40.241500" lon="-4.748783">
        <ele>1562.0</ele>
        <time>2018-09-16T13:48:20Z</time>
      </trkpt>
      <trkpt lat="40.241433" lon="-4.748783">
        <ele>1561.0</ele>
        <time>2018-09-16T13:48:21Z</time>
      </trkpt>
      <trkpt lat="40.241350" lon="-4.748767">
        <ele>1560.0</ele>
        <time>2018-09-16T13:48:22Z</time>
      </trkpt>
      <trkpt lat="40.241283" lon="-4.748750">
        <ele>1559.0</ele>
        <time>2018-09-16T13:48:23Z</time>
      </trkpt>
      <trkpt lat="40.241200" lon="-4.748733">
        <ele>1558.0</ele>
        <time>2018-09-16T13:48:24Z</time>
      </trkpt>
      <trkpt lat="40.241117" lon="-4.748717">
        <ele>1556.0</ele>
        <time>2018-09-16T13:48:25Z</time>
      </trkpt>
      <trkpt lat="40.241050" lon="-4.748700">
        <ele>1555.0</ele>
        <time>2018-09-16T13:48:26Z</time>
      </trkpt>
      <trkpt lat="40.240967" lon="-4.748683">
        <ele>1553.0</ele>
        <time>2018-09-16T13:48:27Z</time>
      </trkpt>
      <trkpt lat="40.240900" lon="-4.748667">
        <ele>1550.0</ele>
        <time>2018-09-16T13:48:28Z</time>
      </trkpt>
      <trkpt lat="40.240833" lon="-4.748650">
        <ele>1547.0</ele>
        <time>2018-09-16T13:48:29Z</time>
      </trkpt>
      <trkpt lat="40.240750" lon="-4.748650">
        <ele>1544.0</ele>
        <time>2018-09-16T13:48:30Z</time>
      </trkpt>
      <trkpt lat="40.240667" lon="-4.748633">
        <ele>1541.0</ele>
        <time>2018-09-16T13:48:31Z</time>
      </trkpt>
      <trkpt lat="40.240583" lon="-4.748617">
        <ele>1539.0</ele>
        <time>2018-09-16T13:48:32Z</time>
      </trkpt>
      <trkpt lat="40.240500" lon="-4.748600">
        <ele>1537.0</ele>
        <time>2018-09-16T13:48:33Z</time>
      </trkpt>
      <trkpt lat="40.240417" lon="-4.748600">
        <ele>1536.0</ele>
        <time>2018-09-16T13:48:34Z</time>
      </trkpt>
      <trkpt lat="40.240350" lon="-4.748617">
        <ele>1534.0</ele>
        <time>2018-09-16T13:48:35Z</time>
      </trkpt>
      <trkpt lat="40.240267" lon="-4.748650">
        <ele>1533.0</ele>
        <time>2018-09-16T13:48:36Z</time>
      </trkpt>
      <trkpt lat="40.240200" lon="-4.748650">
        <ele>1533.0</ele>
        <time>2018-09-16T13:48:37Z</time>
      </trkpt>
      <trkpt lat="40.240133" lon="-4.748667">
        <ele>1532.0</ele>
        <time>2018-09-16T13:48:38Z</time>
      </trkpt>
      <trkpt lat="40.240050" lon="-4.748667">
        <ele>1530.0</ele>
        <time>2018-09-16T13:48:39Z</time>
      </trkpt>
      <trkpt lat="40.239967" lon="-4.748667">
        <ele>1530.0</ele>
        <time>2018-09-16T13:48:40Z</time>
      </trkpt>
      <trkpt lat="40.239883" lon="-4.748667">
        <ele>1529.0</ele>
        <time>2018-09-16T13:48:41Z</time>
      </trkpt>
      <trkpt lat="40.239817" lon="-4.748667">
        <ele>1529.0</ele>
        <time>2018-09-16T13:48:42Z</time>
      </trkpt>
      <trkpt lat="40.239733" lon="-4.748650">
        <ele>1528.0</ele>
        <time>2018-09-16T13:48:43Z</time>
      </trkpt>
      <trkpt lat="40.239667" lon="-4.748633">
        <ele>1527.0</ele>
        <time>2018-09-16T13:48:44Z</time>
      </trkpt>
      <trkpt lat="40.239583" lon="-4.748633">
        <ele>1526.0</ele>
        <time>2018-09-16T13:48:45Z</time>
      </trkpt>
      <trkpt lat="40.239500" lon="-4.748617">
        <ele>1524.0</ele>
        <time>2018-09-16T13:48:46Z</time>
      </trkpt>
      <trkpt lat="40.239433" lon="-4.748600">
        <ele>1523.0</ele>
        <time>2018-09-16T13:48:47Z</time>
      </trkpt>
      <trkpt lat="40.239350" lon="-4.748600">
        <ele>1522.0</ele>
        <time>2018-09-16T13:48:48Z</time>
      </trkpt>
      <trkpt lat="40.239267" lon="-4.748617">
        <ele>1521.0</ele>
        <time>2018-09-16T13:48:49Z</time>
      </trkpt>
      <trkpt lat="40.239183" lon="-4.748617">
        <ele>1521.0</ele>
        <time>2018-09-16T13:48:50Z</time>
      </trkpt>
      <trkpt lat="40.239100" lon="-4.748617">
        <ele>1520.0</ele>
        <time>2018-09-16T13:48:51Z</time>
      </trkpt>
      <trkpt lat="40.239033" lon="-4.748617">
        <ele>1519.0</ele>
        <time>2018-09-16T13:48:52Z</time>
      </trkpt>
      <trkpt lat="40.238950" lon="-4.748617">
        <ele>1519.0</ele>
        <time>2018-09-16T13:48:53Z</time>
      </trkpt>
      <trkpt lat="40.238883" lon="-4.748617">
        <ele>1519.0</ele>
        <time>2018-09-16T13:48:54Z</time>
      </trkpt>
      <trkpt lat="40.238817" lon="-4.748633">
        <ele>1518.0</ele>
        <time>2018-09-16T13:48:55Z</time>
      </trkpt>
      <trkpt lat="40.238733" lon="-4.748650">
        <ele>1517.0</ele>
        <time>2018-09-16T13:48:56Z</time>
      </trkpt>
      <trkpt lat="40.238650" lon="-4.748650">
        <ele>1515.0</ele>
        <time>2018-09-16T13:48:57Z</time>
      </trkpt>
      <trkpt lat="40.238567" lon="-4.748650">
        <ele>1514.0</ele>
        <time>2018-09-16T13:48:58Z</time>
      </trkpt>
      <trkpt lat="40.238483" lon="-4.748633">
        <ele>1514.0</ele>
        <time>2018-09-16T13:48:59Z</time>
      </trkpt>
      <trkpt lat="40.238400" lon="-4.748633">
        <ele>1513.0</ele>
        <time>2018-09-16T13:49:00Z</time>
      </trkpt>
      <trkpt lat="40.238333" lon="-4.748617">
        <ele>1513.0</ele>
        <time>2018-09-16T13:49:01Z</time>
      </trkpt>
      <trkpt lat="40.238267" lon="-4.748617">
        <ele>1512.0</ele>
        <time>2018-09-16T13:49:02Z</time>
      </trkpt>
      <trkpt lat="40.238183" lon="-4.748600">
        <ele>1510.0</ele>
        <time>2018-09-16T13:49:03Z</time>
      </trkpt>
      <trkpt lat="40.238100" lon="-4.748600">
        <ele>1509.0</ele>
        <time>2018-09-16T13:49:04Z</time>
      </trkpt>
      <trkpt lat="40.238017" lon="-4.748600">
        <ele>1507.0</ele>
        <time>2018-09-16T13:49:05Z</time>
      </trkpt>
      <trkpt lat="40.237950" lon="-4.748600">
        <ele>1507.0</ele>
        <time>2018-09-16T13:49:06Z</time>
      </trkpt>
      <trkpt lat="40.237867" lon="-4.748600">
        <ele>1507.0</ele>
        <time>2018-09-16T13:49:07Z</time>
      </trkpt>
      <trkpt lat="40.237800" lon="-4.748600">
        <ele>1507.0</ele>
        <time>2018-09-16T13:49:08Z</time>
      </trkpt>
      <trkpt lat="40.237717" lon="-4.748617">
        <ele>1507.0</ele>
        <time>2018-09-16T13:49:09Z</time>
      </trkpt>
      <trkpt lat="40.237650" lon="-4.748650">
        <ele>1505.0</ele>
        <time>2018-09-16T13:49:10Z</time>
      </trkpt>
      <trkpt lat="40.237567" lon="-4.748667">
        <ele>1504.0</ele>
        <time>2018-09-16T13:49:11Z</time>
      </trkpt>
      <trkpt lat="40.237500" lon="-4.748683">
        <ele>1503.0</ele>
        <time>2018-09-16T13:49:12Z</time>
      </trkpt>
      <trkpt lat="40.237417" lon="-4.748700">
        <ele>1502.0</ele>
        <time>2018-09-16T13:49:13Z</time>
      </trkpt>
      <trkpt lat="40.237333" lon="-4.748700">
        <ele>1502.0</ele>
        <time>2018-09-16T13:49:14Z</time>
      </trkpt>
      <trkpt lat="40.237267" lon="-4.748717">
        <ele>1501.0</ele>
        <time>2018-09-16T13:49:15Z</time>
      </trkpt>
      <trkpt lat="40.237200" lon="-4.748717">
        <ele>1499.0</ele>
        <time>2018-09-16T13:49:16Z</time>
      </trkpt>
      <trkpt lat="40.237133" lon="-4.748733">
        <ele>1497.0</ele>
        <time>2018-09-16T13:49:17Z</time>
      </trkpt>
      <trkpt lat="40.237067" lon="-4.748733">
        <ele>1494.0</ele>
        <time>2018-09-16T13:49:18Z</time>
      </trkpt>
      <trkpt lat="40.236983" lon="-4.748750">
        <ele>1492.0</ele>
        <time>2018-09-16T13:49:19Z</time>
      </trkpt>
      <trkpt lat="40.236883" lon="-4.748733">
        <ele>1490.0</ele>
        <time>2018-09-16T13:49:20Z</time>
      </trkpt>
      <trkpt lat="40.236800" lon="-4.748733">
        <ele>1489.0</ele>
        <time>2018-09-16T13:49:21Z</time>
      </trkpt>
      <trkpt lat="40.236733" lon="-4.748750">
        <ele>1489.0</ele>
        <time>2018-09-16T13:49:22Z</time>
      </trkpt>
      <trkpt lat="40.236650" lon="-4.748750">
        <ele>1488.0</ele>
        <time>2018-09-16T13:49:23Z</time>
      </trkpt>
      <trkpt lat="40.236583" lon="-4.748767">
        <ele>1487.0</ele>
        <time>2018-09-16T13:49:24Z</time>
      </trkpt>
      <trkpt lat="40.236500" lon="-4.748767">
        <ele>1486.0</ele>
        <time>2018-09-16T13:49:25Z</time>
      </trkpt>
      <trkpt lat="40.236417" lon="-4.748767">
        <ele>1484.0</ele>
        <time>2018-09-16T13:49:26Z</time>
      </trkpt>
      <trkpt lat="40.236317" lon="-4.748783">
        <ele>1483.0</ele>
        <time>2018-09-16T13:49:27Z</time>
      </trkpt>
      <trkpt lat="40.236233" lon="-4.748800">
        <ele>1483.0</ele>
        <time>2018-09-16T13:49:28Z</time>
      </trkpt>
      <trkpt lat="40.236167" lon="-4.748817">
        <ele>1483.0</ele>
        <time>2018-09-16T13:49:29Z</time>
      </trkpt>
      <trkpt lat="40.236083" lon="-4.748833">
        <ele>1483.0</ele>
        <time>2018-09-16T13:49:30Z</time>
      </trkpt>
      <trkpt lat="40.236017" lon="-4.748833">
        <ele>1482.0</ele>
        <time>2018-09-16T13:49:31Z</time>
      </trkpt>
      <trkpt lat="40.235950" lon="-4.748833">
        <ele>1481.0</ele>
        <time>2018-09-16T13:49:32Z</time>
      </trkpt>
      <trkpt lat="40.235883" lon="-4.748833">
        <ele>1479.0</ele>
        <time>2018-09-16T13:49:33Z</time>
      </trkpt>
      <trkpt lat="40.235800" lon="-4.748850">
        <ele>1478.0</ele>
        <time>2018-09-16T13:49:34Z</time>
      </trkpt>
      <trkpt lat="40.235733" lon="-4.748850">
        <ele>1477.0</ele>
        <time>2018-09-16T13:49:35Z</time>
      </trkpt>
      <trkpt lat="40.235650" lon="-4.748867">
        <ele>1476.0</ele>
        <time>2018-09-16T13:49:36Z</time>
      </trkpt>
      <trkpt lat="40.235583" lon="-4.748883">
        <ele>1473.0</ele>
        <time>2018-09-16T13:49:37Z</time>
      </trkpt>
      <trkpt lat="40.235500" lon="-4.748883">
        <ele>1470.0</ele>
        <time>2018-09-16T13:49:38Z</time>
      </trkpt>
      <trkpt lat="40.235400" lon="-4.748900">
        <ele>1467.0</ele>
        <time>2018-09-16T13:49:39Z</time>
      </trkpt>
      <trkpt lat="40.235300" lon="-4.748933">
        <ele>1465.0</ele>
        <time>2018-09-16T13:49:40Z</time>
      </trkpt>
      <trkpt lat="40.235217" lon="-4.748950">
        <ele>1464.0</ele>
        <time>2018-09-16T13:49:41Z</time>
      </trkpt>
      <trkpt lat="40.235133" lon="-4.749000">
        <ele>1464.0</ele>
        <time>2018-09-16T13:49:42Z</time>
      </trkpt>
      <trkpt lat="40.235067" lon="-4.749017">
        <ele>1463.0</ele>
        <time>2018-09-16T13:49:43Z</time>
      </trkpt>
      <trkpt lat="40.234983" lon="-4.749050">
        <ele>1462.0</ele>
        <time>2018-09-16T13:49:44Z</time>
      </trkpt>
      <trkpt lat="40.234900" lon="-4.749083">
        <ele>1460.0</ele>
        <time>2018-09-16T13:49:45Z</time>
      </trkpt>
      <trkpt lat="40.234800" lon="-4.749100">
        <ele>1457.0</ele>
        <time>2018-09-16T13:49:46Z</time>
      </trkpt>
      <trkpt lat="40.234717" lon="-4.749117">
        <ele>1456.0</ele>
        <time>2018-09-16T13:49:47Z</time>
      </trkpt>
      <trkpt lat="40.234617" lon="-4.749133">
        <ele>1455.0</ele>
        <time>2018-09-16T13:49:48Z</time>
      </trkpt>
      <trkpt lat="40.234533" lon="-4.749133">
        <ele>1455.0</ele>
        <time>2018-09-16T13:49:49Z</time>
      </trkpt>
      <trkpt lat="40.234467" lon="-4.749150">
        <ele>1455.0</ele>
        <time>2018-09-16T13:49:50Z</time>
      </trkpt>
      <trkpt lat="40.234400" lon="-4.749150">
        <ele>1454.0</ele>
        <time>2018-09-16T13:49:51Z</time>
      </trkpt>
      <trkpt lat="40.234317" lon="-4.749167">
        <ele>1452.0</ele>
        <time>2018-09-16T13:49:52Z</time>
      </trkpt>
      <trkpt lat="40.234250" lon="-4.749167">
        <ele>1449.0</ele>
        <time>2018-09-16T13:49:53Z</time>
      </trkpt>
      <trkpt lat="40.234150" lon="-4.749167">
        <ele>1447.0</ele>
        <time>2018-09-16T13:49:54Z</time>
      </trkpt>
      <trkpt lat="40.234050" lon="-4.749167">
        <ele>1445.0</ele>
        <time>2018-09-16T13:49:55Z</time>
      </trkpt>
      <trkpt lat="40.233967" lon="-4.749183">
        <ele>1443.0</ele>
        <time>2018-09-16T13:49:56Z</time>
      </trkpt>
      <trkpt lat="40.233867" lon="-4.749183">
        <ele>1442.0</ele>
        <time>2018-09-16T13:49:57Z</time>
      </trkpt>
      <trkpt lat="40.233783" lon="-4.749183">
        <ele>1441.0</ele>
        <time>2018-09-16T13:49:58Z</time>
      </trkpt>
      <trkpt lat="40.233700" lon="-4.749167">
        <ele>1439.0</ele>
        <time>2018-09-16T13:49:59Z</time>
      </trkpt>
      <trkpt lat="40.233617" lon="-4.749150">
        <ele>1437.0</ele>
        <time>2018-09-16T13:50:00Z</time>
      </trkpt>
      <trkpt lat="40.233517" lon="-4.749133">
        <ele>1435.0</ele>
        <time>2018-09-16T13:50:01Z</time>
      </trkpt>
      <trkpt lat="40.233433" lon="-4.749100">
        <ele>1435.0</ele>
        <time>2018-09-16T13:50:02Z</time>
      </trkpt>
      <trkpt lat="40.233333" lon="-4.749083">
        <ele>1434.0</ele>
        <time>2018-09-16T13:50:03Z</time>
      </trkpt>
      <trkpt lat="40.233250" lon="-4.749067">
        <ele>1433.0</ele>
        <time>2018-09-16T13:50:04Z</time>
      </trkpt>
      <trkpt lat="40.233150" lon="-4.749033">
        <ele>1432.0</ele>
        <time>2018-09-16T13:50:05Z</time>
      </trkpt>
      <trkpt lat="40.233067" lon="-4.748983">
        <ele>1430.0</ele>
        <time>2018-09-16T13:50:06Z</time>
      </trkpt>
      <trkpt lat="40.232967" lon="-4.748933">
        <ele>1429.0</ele>
        <time>2018-09-16T13:50:07Z</time>
      </trkpt>
      <trkpt lat="40.232867" lon="-4.748883">
        <ele>1428.0</ele>
        <time>2018-09-16T13:50:08Z</time>
      </trkpt>
      <trkpt lat="40.232767" lon="-4.748833">
        <ele>1428.0</ele>
        <time>2018-09-16T13:50:09Z</time>
      </trkpt>
      <trkpt lat="40.232667" lon="-4.748800">
        <ele>1427.0</ele>
        <time>2018-09-16T13:50:10Z</time>
      </trkpt>
      <trkpt lat="40.232583" lon="-4.748767">
        <ele>1427.0</ele>
        <time>2018-09-16T13:50:11Z</time>
      </trkpt>
      <trkpt lat="40.232483" lon="-4.748733">
        <ele>1426.0</ele>
        <time>2018-09-16T13:50:12Z</time>
      </trkpt>
      <trkpt lat="40.232383" lon="-4.748733">
        <ele>1424.0</ele>
        <time>2018-09-16T13:50:13Z</time>
      </trkpt>
      <trkpt lat="40.232283" lon="-4.748733">
        <ele>1422.0</ele>
        <time>2018-09-16T13:50:14Z</time>
      </trkpt>
      <trkpt lat="40.232183" lon="-4.748717">
        <ele>1421.0</ele>
        <time>2018-09-16T13:50:15Z</time>
      </trkpt>
      <trkpt lat="40.232083" lon="-4.748700">
        <ele>1419.0</ele>
        <time>2018-09-16T13:50:16Z</time>
      </trkpt>
      <trkpt lat="40.232000" lon="-4.748683">
        <ele>1417.0</ele>
        <time>2018-09-16T13:50:17Z</time>
      </trkpt>
      <trkpt lat="40.231883" lon="-4.748667">
        <ele>1414.0</ele>
        <time>2018-09-16T13:50:18Z</time>
      </trkpt>
      <trkpt lat="40.231783" lon="-4.748667">
        <ele>1412.0</ele>
        <time>2018-09-16T13:50:19Z</time>
      </trkpt>
      <trkpt lat="40.231667" lon="-4.748650">
        <ele>1412.0</ele>
        <time>2018-09-16T13:50:20Z</time>
      </trkpt>
      <trkpt lat="40.231550" lon="-4.748617">
        <ele>1413.0</ele>
        <time>2018-09-16T13:50:21Z</time>
      </trkpt>
      <trkpt lat="40.231450" lon="-4.748533">
        <ele>1414.0</ele>
        <time>2018-09-16T13:50:22Z</time>
      </trkpt>
      <trkpt lat="40.231350" lon="-4.748450">
        <ele>1415.0</ele>
        <time>2018-09-16T13:50:23Z</time>
      </trkpt>
      <trkpt lat="40.231267" lon="-4.748367">
        <ele>1416.0</ele>
        <time>2018-09-16T13:50:24Z</time>
      </trkpt>
      <trkpt lat="40.231183" lon="-4.748300">
        <ele>1415.0</ele>
        <time>2018-09-16T13:50:25Z</time>
      </trkpt>
      <trkpt lat="40.231083" lon="-4.748250">
        <ele>1415.0</ele>
        <time>2018-09-16T13:50:26Z</time>
      </trkpt>
      <trkpt lat="40.230983" lon="-4.748200">
        <ele>1414.0</ele>
        <time>2018-09-16T13:50:27Z</time>
      </trkpt>
      <trkpt lat="40.230900" lon="-4.748167">
        <ele>1414.0</ele>
        <time>2018-09-16T13:50:28Z</time>
      </trkpt>
      <trkpt lat="40.230817" lon="-4.748117">
        <ele>1413.0</ele>
        <time>2018-09-16T13:50:29Z</time>
      </trkpt>
      <trkpt lat="40.230733" lon="-4.748067">
        <ele>1411.0</ele>
        <time>2018-09-16T13:50:30Z</time>
      </trkpt>
      <trkpt lat="40.230633" lon="-4.748000">
        <ele>1409.0</ele>
        <time>2018-09-16T13:50:31Z</time>
      </trkpt>
      <trkpt lat="40.230550" lon="-4.747950">
        <ele>1407.0</ele>
        <time>2018-09-16T13:50:32Z</time>
      </trkpt>
      <trkpt lat="40.230467" lon="-4.747883">
        <ele>1405.0</ele>
        <time>2018-09-16T13:50:33Z</time>
      </trkpt>
      <trkpt lat="40.230367" lon="-4.747800">
        <ele>1403.0</ele>
        <time>2018-09-16T13:50:34Z</time>
      </trkpt>
      <trkpt lat="40.230283" lon="-4.747717">
        <ele>1402.0</ele>
        <time>2018-09-16T13:50:35Z</time>
      </trkpt>
      <trkpt lat="40.230183" lon="-4.747633">
        <ele>1401.0</ele>
        <time>2018-09-16T13:50:36Z</time>
      </trkpt>
      <trkpt lat="40.230083" lon="-4.747550">
        <ele>1400.0</ele>
        <time>2018-09-16T13:50:37Z</time>
      </trkpt>
      <trkpt lat="40.230000" lon="-4.747433">
        <ele>1400.0</ele>
        <time>2018-09-16T13:50:38Z</time>
      </trkpt>
      <trkpt lat="40.229933" lon="-4.747333">
        <ele>1400.0</ele>
        <time>2018-09-16T13:50:39Z</time>
      </trkpt>
      <trkpt lat="40.229867" lon="-4.747233">
        <ele>1400.0</ele>
        <time>2018-09-16T13:50:40Z</time>
      </trkpt>
      <trkpt lat="40.229800" lon="-4.747117">
        <ele>1399.0</ele>
        <time>2018-09-16T13:50:41Z</time>
      </trkpt>
      <trkpt lat="40.229733" lon="-4.747000">
        <ele>1397.0</ele>
        <time>2018-09-16T13:50:42Z</time>
      </trkpt>
      <trkpt lat="40.229667" lon="-4.746883">
        <ele>1395.0</ele>
        <time>2018-09-16T13:50:43Z</time>
      </trkpt>
      <trkpt lat="40.229600" lon="-4.746750">
        <ele>1394.0</ele>
        <time>2018-09-16T13:50:44Z</time>
      </trkpt>
      <trkpt lat="40.229550" lon="-4.746617">
        <ele>1394.0</ele>
        <time>2018-09-16T13:50:45Z</time>
      </trkpt>
      <trkpt lat="40.229500" lon="-4.746483">
        <ele>1394.0</ele>
        <time>2018-09-16T13:50:46Z</time>
      </trkpt>
      <trkpt lat="40.229450" lon="-4.746350">
        <ele>1393.0</ele>
        <time>2018-09-16T13:50:47Z</time>
      </trkpt>
      <trkpt lat="40.229417" lon="-4.746217">
        <ele>1392.0</ele>
        <time>2018-09-16T13:50:48Z</time>
      </trkpt>
      <trkpt lat="40.229367" lon="-4.746083">
        <ele>1391.0</ele>
        <time>2018-09-16T13:50:49Z</time>
      </trkpt>
      <trkpt lat="40.229317" lon="-4.745967">
        <ele>1389.0</ele>
        <time>2018-09-16T13:50:50Z</time>
      </trkpt>
      <trkpt lat="40.229267" lon="-4.745850">
        <ele>1387.0</ele>
        <time>2018-09-16T13:50:51Z</time>
      </trkpt>
      <trkpt lat="40.229200" lon="-4.745733">
        <ele>1387.0</ele>
        <time>2018-09-16T13:50:52Z</time>
      </trkpt>
      <trkpt lat="40.229150" lon="-4.745617">
        <ele>1386.0</ele>
        <time>2018-09-16T13:50:53Z</time>
      </trkpt>
      <trkpt lat="40.229100" lon="-4.745500">
        <ele>1385.0</ele>
        <time>2018-09-16T13:50:54Z</time>
      </trkpt>
      <trkpt lat="40.229050" lon="-4.745367">
        <ele>1385.0</ele>
        <time>2018-09-16T13:50:55Z</time>
      </trkpt>
      <trkpt lat="40.229000" lon="-4.745250">
        <ele>1384.0</ele>
        <time>2018-09-16T13:50:56Z</time>
      </trkpt>
      <trkpt lat="40.228967" lon="-4.745117">
        <ele>1383.0</ele>
        <time>2018-09-16T13:50:57Z</time>
      </trkpt>
      <trkpt lat="40.228917" lon="-4.745000">
        <ele>1382.0</ele>
        <time>2018-09-16T13:50:58Z</time>
      </trkpt>
      <trkpt lat="40.228883" lon="-4.744867">
        <ele>1380.0</ele>
        <time>2018-09-16T13:50:59Z</time>
      </trkpt>
      <trkpt lat="40.228833" lon="-4.744717">
        <ele>1378.0</ele>
        <time>2018-09-16T13:51:00Z</time>
      </trkpt>
      <trkpt lat="40.228783" lon="-4.744550">
        <ele>1377.0</ele>
        <time>2018-09-16T13:51:01Z</time>
      </trkpt>
      <trkpt lat="40.228733" lon="-4.744417">
        <ele>1377.0</ele>
        <time>2018-09-16T13:51:02Z</time>
      </trkpt>
      <trkpt lat="40.228683" lon="-4.744267">
        <ele>1377.0</ele>
        <time>2018-09-16T13:51:03Z</time>
      </trkpt>
      <trkpt lat="40.228633" lon="-4.744133">
        <ele>1376.0</ele>
        <time>2018-09-16T13:51:04Z</time>
      </trkpt>
      <trkpt lat="40.228583" lon="-4.744000">
        <ele>1374.0</ele>
        <time>2018-09-16T13:51:05Z</time>
      </trkpt>
      <trkpt lat="40.228517" lon="-4.743850">
        <ele>1371.0</ele>
        <time>2018-09-16T13:51:06Z</time>
      </trkpt>
      <trkpt lat="40.228450" lon="-4.743700">
        <ele>1368.0</ele>
        <time>2018-09-16T13:51:07Z</time>
      </trkpt>
      <trkpt lat="40.228383" lon="-4.743567">
        <ele>1366.0</ele>
        <time>2018-09-16T13:51:08Z</time>
      </trkpt>
      <trkpt lat="40.228300" lon="-4.743417">
        <ele>1365.0</ele>
        <time>2018-09-16T13:51:09Z</time>
      </trkpt>
      <trkpt lat="40.228233" lon="-4.743283">
        <ele>1363.0</ele>
        <time>2018-09-16T13:51:10Z</time>
      </trkpt>
      <trkpt lat="40.228183" lon="-4.743133">
        <ele>1362.0</ele>
        <time>2018-09-16T13:51:11Z</time>
      </trkpt>
      <trkpt lat="40.228133" lon="-4.743000">
        <ele>1361.0</ele>
        <time>2018-09-16T13:51:12Z</time>
      </trkpt>
      <trkpt lat="40.228067" lon="-4.742867">
        <ele>1359.0</ele>
        <time>2018-09-16T13:51:13Z</time>
      </trkpt>
      <trkpt lat="40.228017" lon="-4.742733">
        <ele>1357.0</ele>
        <time>2018-09-16T13:51:14Z</time>
      </trkpt>
      <trkpt lat="40.227967" lon="-4.742583">
        <ele>1355.0</ele>
        <time>2018-09-16T13:51:15Z</time>
      </trkpt>
      <trkpt lat="40.227917" lon="-4.742417">
        <ele>1353.0</ele>
        <time>2018-09-16T13:51:16Z</time>
      </trkpt>
      <trkpt lat="40.227850" lon="-4.742267">
        <ele>1352.0</ele>
        <time>2018-09-16T13:51:17Z</time>
      </trkpt>
      <trkpt lat="40.227800" lon="-4.742133">
        <ele>1350.0</ele>
        <time>2018-09-16T13:51:18Z</time>
      </trkpt>
      <trkpt lat="40.227750" lon="-4.742000">
        <ele>1349.0</ele>
        <time>2018-09-16T13:51:19Z</time>
      </trkpt>
      <trkpt lat="40.227683" lon="-4.741850">
        <ele>1348.0</ele>
        <time>2018-09-16T13:51:20Z</time>
      </trkpt>
      <trkpt lat="40.227633" lon="-4.741683">
        <ele>1347.0</ele>
        <time>2018-09-16T13:51:21Z</time>
      </trkpt>
      <trkpt lat="40.227583" lon="-4.741533">
        <ele>1346.0</ele>
        <time>2018-09-16T13:51:22Z</time>
      </trkpt>
      <trkpt lat="40.227533" lon="-4.741367">
        <ele>1346.0</ele>
        <time>2018-09-16T13:51:23Z</time>
      </trkpt>
      <trkpt lat="40.227483" lon="-4.741200">
        <ele>1345.0</ele>
        <time>2018-09-16T13:51:24Z</time>
      </trkpt>
      <trkpt lat="40.227433" lon="-4.741033">
        <ele>1345.0</ele>
        <time>2018-09-16T13:51:25Z</time>
      </trkpt>
      <trkpt lat="40.227383" lon="-4.740867">
        <ele>1344.0</ele>
        <time>2018-09-16T13:51:26Z</time>
      </trkpt>
      <trkpt lat="40.227333" lon="-4.740700">
        <ele>1343.0</ele>
        <time>2018-09-16T13:51:27Z</time>
      </trkpt>
      <trkpt lat="40.227283" lon="-4.740533">
        <ele>1341.0</ele>
        <time>2018-09-16T13:51:28Z</time>
      </trkpt>
      <trkpt lat="40.227233" lon="-4.740367">
        <ele>1340.0</ele>
        <time>2018-09-16T13:51:29Z</time>
      </trkpt>
      <trkpt lat="40.227183" lon="-4.740200">
        <ele>1340.0</ele>
        <time>2018-09-16T13:51:30Z</time>
      </trkpt>
      <trkpt lat="40.227133" lon="-4.740033">
        <ele>1339.0</ele>
        <time>2018-09-16T13:51:31Z</time>
      </trkpt>
      <trkpt lat="40.227100" lon="-4.739867">
        <ele>1338.0</ele>
        <time>2018-09-16T13:51:32Z</time>
      </trkpt>
      <trkpt lat="40.227067" lon="-4.739700">
        <ele>1337.0</ele>
        <time>2018-09-16T13:51:33Z</time>
      </trkpt>
      <trkpt lat="40.227033" lon="-4.739533">
        <ele>1335.0</ele>
        <time>2018-09-16T13:51:34Z</time>
      </trkpt>
      <trkpt lat="40.226983" lon="-4.739367">
        <ele>1333.0</ele>
        <time>2018-09-16T13:51:35Z</time>
      </trkpt>
      <trkpt lat="40.226950" lon="-4.739200">
        <ele>1332.0</ele>
        <time>2018-09-16T13:51:36Z</time>
      </trkpt>
      <trkpt lat="40.226900" lon="-4.739033">
        <ele>1331.0</ele>
        <time>2018-09-16T13:51:37Z</time>
      </trkpt>
      <trkpt lat="40.226867" lon="-4.738867">
        <ele>1330.0</ele>
        <time>2018-09-16T13:51:38Z</time>
      </trkpt>
      <trkpt lat="40.226833" lon="-4.738717">
        <ele>1330.0</ele>
        <time>2018-09-16T13:51:39Z</time>
      </trkpt>
      <trkpt lat="40.226800" lon="-4.738567">
        <ele>1328.0</ele>
        <time>2018-09-16T13:51:40Z</time>
      </trkpt>
      <trkpt lat="40.226767" lon="-4.738417">
        <ele>1326.0</ele>
        <time>2018-09-16T13:51:41Z</time>
      </trkpt>
      <trkpt lat="40.226733" lon="-4.738267">
        <ele>1323.0</ele>
        <time>2018-09-16T13:51:42Z</time>
      </trkpt>
      <trkpt lat="40.226700" lon="-4.738100">
        <ele>1320.0</ele>
        <time>2018-09-16T13:51:43Z</time>
      </trkpt>
      <trkpt lat="40.226667" lon="-4.737933">
        <ele>1316.0</ele>
        <time>2018-09-16T13:51:44Z</time>
      </trkpt>
      <trkpt lat="40.226617" lon="-4.737783">
        <ele>1314.0</ele>
        <time>2018-09-16T13:51:45Z</time>
      </trkpt>
      <trkpt lat="40.226583" lon="-4.737617">
        <ele>1312.0</ele>
        <time>2018-09-16T13:51:46Z</time>
      </trkpt>
      <trkpt lat="40.226533" lon="-4.737467">
        <ele>1311.0</ele>
        <time>2018-09-16T13:51:47Z</time>
      </trkpt>
      <trkpt lat="40.226483" lon="-4.737317">
        <ele>1309.0</ele>
        <time>2018-09-16T13:51:48Z</time>
      </trkpt>
      <trkpt lat="40.226433" lon="-4.737167">
        <ele>1307.0</ele>
        <time>2018-09-16T13:51:49Z</time>
      </trkpt>
      <trkpt lat="40.226383" lon="-4.737033">
        <ele>1304.0</ele>
        <time>2018-09-16T13:51:50Z</time>
      </trkpt>
      <trkpt lat="40.226317" lon="-4.736883">
        <ele>1302.0</ele>
        <time>2018-09-16T13:51:51Z</time>
      </trkpt>
      <trkpt lat="40.226250" lon="-4.736733">
        <ele>1299.0</ele>
        <time>2018-09-16T13:51:52Z</time>
      </trkpt>
      <trkpt lat="40.226183" lon="-4.736583">
        <ele>1296.0</ele>
        <time>2018-09-16T13:51:53Z</time>
      </trkpt>
      <trkpt lat="40.226117" lon="-4.736450">
        <ele>1294.0</ele>
        <time>2018-09-16T13:51:54Z</time>
      </trkpt>
      <trkpt lat="40.226050" lon="-4.736300">
        <ele>1292.0</ele>
        <time>2018-09-16T13:51:55Z</time>
      </trkpt>
      <trkpt lat="40.225983" lon="-4.736167">
        <ele>1290.0</ele>
        <time>2018-09-16T13:51:56Z</time>
      </trkpt>
      <trkpt lat="40.225917" lon="-4.736033">
        <ele>1287.0</ele>
        <time>2018-09-16T13:51:57Z</time>
      </trkpt>
      <trkpt lat="40.225850" lon="-4.735900">
        <ele>1285.0</ele>
        <time>2018-09-16T13:51:58Z</time>
      </trkpt>
      <trkpt lat="40.225800" lon="-4.735767">
        <ele>1282.0</ele>
        <time>2018-09-16T13:51:59Z</time>
      </trkpt>
      <trkpt lat="40.225733" lon="-4.735633">
        <ele>1279.0</ele>
        <time>2018-09-16T13:52:00Z</time>
      </trkpt>
      <trkpt lat="40.225683" lon="-4.735483">
        <ele>1276.0</ele>
        <time>2018-09-16T13:52:01Z</time>
      </trkpt>
      <trkpt lat="40.225617" lon="-4.735350">
        <ele>1273.0</ele>
        <time>2018-09-16T13:52:02Z</time>
      </trkpt>
      <trkpt lat="40.225567" lon="-4.735200">
        <ele>1269.0</ele>
        <time>2018-09-16T13:52:03Z</time>
      </trkpt>
      <trkpt lat="40.225517" lon="-4.735050">
        <ele>1266.0</ele>
        <time>2018-09-16T13:52:04Z</time>
      </trkpt>
      <trkpt lat="40.225483" lon="-4.734900">
        <ele>1264.0</ele>
        <time>2018-09-16T13:52:05Z</time>
      </trkpt>
      <trkpt lat="40.225450" lon="-4.734733">
        <ele>1261.0</ele>
        <time>2018-09-16T13:52:06Z</time>
      </trkpt>
      <trkpt lat="40.225433" lon="-4.734550">
        <ele>1259.0</ele>
        <time>2018-09-16T13:52:07Z</time>
      </trkpt>
      <trkpt lat="40.225433" lon="-4.734383">
        <ele>1258.0</ele>
        <time>2018-09-16T13:52:08Z</time>
      </trkpt>
      <trkpt lat="40.225417" lon="-4.734233">
        <ele>1257.0</ele>
        <time>2018-09-16T13:52:09Z</time>
      </trkpt>
      <trkpt lat="40.225417" lon="-4.734083">
        <ele>1256.0</ele>
        <time>2018-09-16T13:52:10Z</time>
      </trkpt>
      <trkpt lat="40.225400" lon="-4.733950">
        <ele>1254.0</ele>
        <time>2018-09-16T13:52:11Z</time>
      </trkpt>
      <trkpt lat="40.225400" lon="-4.733800">
        <ele>1251.0</ele>
        <time>2018-09-16T13:52:12Z</time>
      </trkpt>
      <trkpt lat="40.225400" lon="-4.733650">
        <ele>1247.0</ele>
        <time>2018-09-16T13:52:13Z</time>
      </trkpt>
      <trkpt lat="40.225383" lon="-4.733483">
        <ele>1244.0</ele>
        <time>2018-09-16T13:52:14Z</time>
      </trkpt>
      <trkpt lat="40.225350" lon="-4.733317">
        <ele>1242.0</ele>
        <time>2018-09-16T13:52:15Z</time>
      </trkpt>
      <trkpt lat="40.225333" lon="-4.733150">
        <ele>1241.0</ele>
        <time>2018-09-16T13:52:16Z</time>
      </trkpt>
      <trkpt lat="40.225317" lon="-4.733017">
        <ele>1241.0</ele>
        <time>2018-09-16T13:52:17Z</time>
      </trkpt>
      <trkpt lat="40.225300" lon="-4.732883">
        <ele>1240.0</ele>
        <time>2018-09-16T13:52:18Z</time>
      </trkpt>
      <trkpt lat="40.225267" lon="-4.732767">
        <ele>1238.0</ele>
        <time>2018-09-16T13:52:19Z</time>
      </trkpt>
      <trkpt lat="40.225250" lon="-4.732617">
        <ele>1235.0</ele>
        <time>2018-09-16T13:52:20Z</time>
      </trkpt>
      <trkpt lat="40.225233" lon="-4.732450">
        <ele>1232.0</ele>
        <time>2018-09-16T13:52:21Z</time>
      </trkpt>
      <trkpt lat="40.225217" lon="-4.732267">
        <ele>1232.0</ele>
        <time>2018-09-16T13:52:22Z</time>
      </trkpt>
      <trkpt lat="40.225217" lon="-4.732117">
        <ele>1232.0</ele>
        <time>2018-09-16T13:52:23Z</time>
      </trkpt>
      <trkpt lat="40.225233" lon="-4.731950">
        <ele>1233.0</ele>
        <time>2018-09-16T13:52:24Z</time>
      </trkpt>
      <trkpt lat="40.225250" lon="-4.731800">
        <ele>1233.0</ele>
        <time>2018-09-16T13:52:25Z</time>
      </trkpt>
      <trkpt lat="40.225267" lon="-4.731667">
        <ele>1233.0</ele>
        <time>2018-09-16T13:52:26Z</time>
      </trkpt>
      <trkpt lat="40.225283" lon="-4.731517">
        <ele>1231.0</ele>
        <time>2018-09-16T13:52:27Z</time>
      </trkpt>
      <trkpt lat="40.225300" lon="-4.731350">
        <ele>1229.0</ele>
        <time>2018-09-16T13:52:28Z</time>
      </trkpt>
      <trkpt lat="40.225300" lon="-4.731167">
        <ele>1229.0</ele>
        <time>2018-09-16T13:52:29Z</time>
      </trkpt>
      <trkpt lat="40.225317" lon="-4.730983">
        <ele>1230.0</ele>
        <time>2018-09-16T13:52:30Z</time>
      </trkpt>
      <trkpt lat="40.225317" lon="-4.730817">
        <ele>1232.0</ele>
        <time>2018-09-16T13:52:31Z</time>
      </trkpt>
      <trkpt lat="40.225333" lon="-4.730650">
        <ele>1235.0</ele>
        <time>2018-09-16T13:52:32Z</time>
      </trkpt>
      <trkpt lat="40.225333" lon="-4.730500">
        <ele>1237.0</ele>
        <time>2018-09-16T13:52:33Z</time>
      </trkpt>
      <trkpt lat="40.225333" lon="-4.730350">
        <ele>1237.0</ele>
        <time>2018-09-16T13:52:34Z</time>
      </trkpt>
      <trkpt lat="40.225333" lon="-4.730200">
        <ele>1237.0</ele>
        <time>2018-09-16T13:52:35Z</time>
      </trkpt>
      <trkpt lat="40.225333" lon="-4.730050">
        <ele>1235.0</ele>
        <time>2018-09-16T13:52:36Z</time>
      </trkpt>
      <trkpt lat="40.225317" lon="-4.729883">
        <ele>1232.0</ele>
        <time>2018-09-16T13:52:37Z</time>
      </trkpt>
      <trkpt lat="40.225300" lon="-4.729717">
        <ele>1230.0</ele>
        <time>2018-09-16T13:52:38Z</time>
      </trkpt>
      <trkpt lat="40.225300" lon="-4.729550">
        <ele>1229.0</ele>
        <time>2018-09-16T13:52:39Z</time>
      </trkpt>
      <trkpt lat="40.225283" lon="-4.729383">
        <ele>1229.0</ele>
        <time>2018-09-16T13:52:40Z</time>
      </trkpt>
      <trkpt lat="40.225267" lon="-4.729217">
        <ele>1229.0</ele>
        <time>2018-09-16T13:52:41Z</time>
      </trkpt>
      <trkpt lat="40.225250" lon="-4.729050">
        <ele>1229.0</ele>
        <time>2018-09-16T13:52:42Z</time>
      </trkpt>
      <trkpt lat="40.225233" lon="-4.728900">
        <ele>1230.0</ele>
        <time>2018-09-16T13:52:43Z</time>
      </trkpt>
      <trkpt lat="40.225217" lon="-4.728717">
        <ele>1230.0</ele>
        <time>2018-09-16T13:52:44Z</time>
      </trkpt>
      <trkpt lat="40.225183" lon="-4.728550">
        <ele>1233.0</ele>
        <time>2018-09-16T13:52:45Z</time>
      </trkpt>
      <trkpt lat="40.225150" lon="-4.728400">
        <ele>1236.0</ele>
        <time>2018-09-16T13:52:46Z</time>
      </trkpt>
      <trkpt lat="40.225117" lon="-4.728250">
        <ele>1239.0</ele>
        <time>2018-09-16T13:52:47Z</time>
      </trkpt>
      <trkpt lat="40.225100" lon="-4.728100">
        <ele>1241.0</ele>
        <time>2018-09-16T13:52:48Z</time>
      </trkpt>
      <trkpt lat="40.225067" lon="-4.727967">
        <ele>1243.0</ele>
        <time>2018-09-16T13:52:49Z</time>
      </trkpt>
      <trkpt lat="40.225017" lon="-4.727817">
        <ele>1244.0</ele>
        <time>2018-09-16T13:52:50Z</time>
      </trkpt>
      <trkpt lat="40.224983" lon="-4.727667">
        <ele>1246.0</ele>
        <time>2018-09-16T13:52:51Z</time>
      </trkpt>
      <trkpt lat="40.224950" lon="-4.727500">
        <ele>1247.0</ele>
        <time>2018-09-16T13:52:52Z</time>
      </trkpt>
      <trkpt lat="40.224933" lon="-4.727333">
        <ele>1250.0</ele>
        <time>2018-09-16T13:52:53Z</time>
      </trkpt>
      <trkpt lat="40.224950" lon="-4.727167">
        <ele>1252.0</ele>
        <time>2018-09-16T13:52:54Z</time>
      </trkpt>
      <trkpt lat="40.225000" lon="-4.726983">
        <ele>1253.0</ele>
        <time>2018-09-16T13:52:55Z</time>
      </trkpt>
      <trkpt lat="40.225083" lon="-4.726833">
        <ele>1255.0</ele>
        <time>2018-09-16T13:52:56Z</time>
      </trkpt>
      <trkpt lat="40.225200" lon="-4.726717">
        <ele>1256.0</ele>
        <time>2018-09-16T13:52:57Z</time>
      </trkpt>
      <trkpt lat="40.225317" lon="-4.726650">
        <ele>1259.0</ele>
        <time>2018-09-16T13:52:58Z</time>
      </trkpt>
      <trkpt lat="40.225433" lon="-4.726617">
        <ele>1262.0</ele>
        <time>2018-09-16T13:52:59Z</time>
      </trkpt>
      <trkpt lat="40.225533" lon="-4.726617">
        <ele>1266.0</ele>
        <time>2018-09-16T13:53:00Z</time>
      </trkpt>
      <trkpt lat="40.225600" lon="-4.726667">
        <ele>1268.0</ele>
        <time>2018-09-16T13:53:01Z</time>
      </trkpt>
      <trkpt lat="40.225650" lon="-4.726733">
        <ele>1270.0</ele>
        <time>2018-09-16T13:53:02Z</time>
      </trkpt>
      <trkpt lat="40.225667" lon="-4.726833">
        <ele>1271.0</ele>
        <time>2018-09-16T13:53:03Z</time>
      </trkpt>
      <trkpt lat="40.225633" lon="-4.726900">
        <ele>1272.0</ele>
        <time>2018-09-16T13:53:04Z</time>
      </trkpt>
      <trkpt lat="40.225583" lon="-4.726950">
        <ele>1275.0</ele>
        <time>2018-09-16T13:53:05Z</time>
      </trkpt>
      <trkpt lat="40.225500" lon="-4.726967">
        <ele>1278.0</ele>
        <time>2018-09-16T13:53:06Z</time>
      </trkpt>
      <trkpt lat="40.225417" lon="-4.726950">
        <ele>1281.0</ele>
        <time>2018-09-16T13:53:07Z</time>
      </trkpt>
      <trkpt lat="40.225333" lon="-4.726917">
        <ele>1285.0</ele>
        <time>2018-09-16T13:53:08Z</time>
      </trkpt>
      <trkpt lat="40.225250" lon="-4.726833">
        <ele>1289.0</ele>
        <time>2018-09-16T13:53:09Z</time>
      </trkpt>
      <trkpt lat="40.225200" lon="-4.726717">
        <ele>1292.0</ele>
        <time>2018-09-16T13:53:10Z</time>
      </trkpt>
      <trkpt lat="40.225167" lon="-4.726567">
        <ele>1293.0</ele>
        <time>2018-09-16T13:53:11Z</time>
      </trkpt>
      <trkpt lat="40.225167" lon="-4.726383">
        <ele>1294.0</ele>
        <time>2018-09-16T13:53:12Z</time>
      </trkpt>
      <trkpt lat="40.225200" lon="-4.726200">
        <ele>1297.0</ele>
        <time>2018-09-16T13:53:13Z</time>
      </trkpt>
      <trkpt lat="40.225267" lon="-4.726033">
        <ele>1301.0</ele>
        <time>2018-09-16T13:53:14Z</time>
      </trkpt>
      <trkpt lat="40.225367" lon="-4.725933">
        <ele>1304.0</ele>
        <time>2018-09-16T13:53:15Z</time>
      </trkpt>
      <trkpt lat="40.225467" lon="-4.725883">
        <ele>1307.0</ele>
        <time>2018-09-16T13:53:16Z</time>
      </trkpt>
      <trkpt lat="40.225567" lon="-4.725867">
        <ele>1311.0</ele>
        <time>2018-09-16T13:53:17Z</time>
      </trkpt>
      <trkpt lat="40.225650" lon="-4.725917">
        <ele>1314.0</ele>
        <time>2018-09-16T13:53:18Z</time>
      </trkpt>
      <trkpt lat="40.225683" lon="-4.725967">
        <ele>1317.0</ele>
        <time>2018-09-16T13:53:19Z</time>
      </trkpt>
      <trkpt lat="40.225700" lon="-4.726033">
        <ele>1319.0</ele>
        <time>2018-09-16T13:53:20Z</time>
      </trkpt>
      <trkpt lat="40.225683" lon="-4.726100">
        <ele>1321.0</ele>
        <time>2018-09-16T13:53:21Z</time>
      </trkpt>
      <trkpt lat="40.225650" lon="-4.726183">
        <ele>1323.0</ele>
        <time>2018-09-16T13:53:22Z</time>
      </trkpt>
      <trkpt lat="40.225583" lon="-4.726217">
        <ele>1325.0</ele>
        <time>2018-09-16T13:53:23Z</time>
      </trkpt>
      <trkpt lat="40.225500" lon="-4.726183">
        <ele>1328.0</ele>
        <time>2018-09-16T13:53:24Z</time>
      </trkpt>
      <trkpt lat="40.225400" lon="-4.726083">
        <ele>1330.0</ele>
        <time>2018-09-16T13:53:25Z</time>
      </trkpt>
      <trkpt lat="40.225333" lon="-4.725950">
        <ele>1333.0</ele>
        <time>2018-09-16T13:53:26Z</time>
      </trkpt>
      <trkpt lat="40.225317" lon="-4.725800">
        <ele>1337.0</ele>
        <time>2018-09-16T13:53:27Z</time>
      </trkpt>
      <trkpt lat="40.225317" lon="-4.725650">
        <ele>1340.0</ele>
        <time>2018-09-16T13:53:28Z</time>
      </trkpt>
      <trkpt lat="40.225383" lon="-4.725500">
        <ele>1342.0</ele>
        <time>2018-09-16T13:53:29Z</time>
      </trkpt>
      <trkpt lat="40.225467" lon="-4.725383">
        <ele>1343.0</ele>
        <time>2018-09-16T13:53:30Z</time>
      </trkpt>
      <trkpt lat="40.225567" lon="-4.725300">
        <ele>1346.0</ele>
        <time>2018-09-16T13:53:31Z</time>
      </trkpt>
      <trkpt lat="40.225683" lon="-4.725250">
        <ele>1350.0</ele>
        <time>2018-09-16T13:53:32Z</time>
      </trkpt>
      <trkpt lat="40.225767" lon="-4.725250">
        <ele>1353.0</ele>
        <time>2018-09-16T13:53:33Z</time>
      </trkpt>
      <trkpt lat="40.225850" lon="-4.725283">
        <ele>1356.0</ele>
        <time>2018-09-16T13:53:34Z</time>
      </trkpt>
      <trkpt lat="40.225900" lon="-4.725367">
        <ele>1357.0</ele>
        <time>2018-09-16T13:53:35Z</time>
      </trkpt>
      <trkpt lat="40.225917" lon="-4.725450">
        <ele>1359.0</ele>
        <time>2018-09-16T13:53:36Z</time>
      </trkpt>
      <trkpt lat="40.225900" lon="-4.725533">
        <ele>1361.0</ele>
        <time>2018-09-16T13:53:37Z</time>
      </trkpt>
      <trkpt lat="40.225850" lon="-4.725600">
        <ele>1364.0</ele>
        <time>2018-09-16T13:53:38Z</time>
      </trkpt>
      <trkpt lat="40.225767" lon="-4.725633">
        <ele>1367.0</ele>
        <time>2018-09-16T13:53:39Z</time>
      </trkpt>
      <trkpt lat="40.225683" lon="-4.725600">
        <ele>1371.0</ele>
        <time>2018-09-16T13:53:40Z</time>
      </trkpt>
      <trkpt lat="40.225600" lon="-4.725533">
        <ele>1374.0</ele>
        <time>2018-09-16T13:53:41Z</time>
      </trkpt>
      <trkpt lat="40.225517" lon="-4.725433">
        <ele>1377.0</ele>
        <time>2018-09-16T13:53:42Z</time>
      </trkpt>
      <trkpt lat="40.225450" lon="-4.725317">
        <ele>1381.0</ele>
        <time>2018-09-16T13:53:43Z</time>
      </trkpt>
      <trkpt lat="40.225400" lon="-4.725200">
        <ele>1384.0</ele>
        <time>2018-09-16T13:53:44Z</time>
      </trkpt>
      <trkpt lat="40.225383" lon="-4.725067">
        <ele>1386.0</ele>
        <time>2018-09-16T13:53:45Z</time>
      </trkpt>
      <trkpt lat="40.225400" lon="-4.724917">
        <ele>1388.0</ele>
        <time>2018-09-16T13:53:46Z</time>
      </trkpt>
      <trkpt lat="40.225433" lon="-4.724750">
        <ele>1389.0</ele>
        <time>2018-09-16T13:53:47Z</time>
      </trkpt>
      <trkpt lat="40.225500" lon="-4.724583">
        <ele>1392.0</ele>
        <time>2018-09-16T13:53:48Z</time>
      </trkpt>
      <trkpt lat="40.225583" lon="-4.724483">
        <ele>1397.0</ele>
        <time>2018-09-16T13:53:49Z</time>
      </trkpt>
      <trkpt lat="40.225667" lon="-4.724417">
        <ele>1400.0</ele>
        <time>2018-09-16T13:53:50Z</time>
      </trkpt>
      <trkpt lat="40.225750" lon="-4.724417">
        <ele>1401.0</ele>
        <time>2018-09-16T13:53:51Z</time>
      </trkpt>
      <trkpt lat="40.225833" lon="-4.724433">
        <ele>1402.0</ele>
        <time>2018-09-16T13:53:52Z</time>
      </trkpt>
      <trkpt lat="40.225900" lon="-4.724483">
        <ele>1403.0</ele>
        <time>2018-09-16T13:53:53Z</time>
      </trkpt>
      <trkpt lat="40.225950" lon="-4.724550">
        <ele>1404.0</ele>
        <time>2018-09-16T13:53:54Z</time>
      </trkpt>
      <trkpt lat="40.225983" lon="-4.724633">
        <ele>1404.0</ele>
        <time>2018-09-16T13:53:55Z</time>
      </trkpt>
      <trkpt lat="40.225983" lon="-4.724733">
        <ele>1405.0</ele>
        <time>2018-09-16T13:53:56Z</time>
      </trkpt>
      <trkpt lat="40.225950" lon="-4.724850">
        <ele>1406.0</ele>
        <time>2018-09-16T13:53:57Z</time>
      </trkpt>
      <trkpt lat="40.225900" lon="-4.724950">
        <ele>1410.0</ele>
        <time>2018-09-16T13:53:58Z</time>
      </trkpt>
      <trkpt lat="40.225850" lon="-4.725033">
        <ele>1415.0</ele>
        <time>2018-09-16T13:53:59Z</time>
      </trkpt>
      <trkpt lat="40.225783" lon="-4.725067">
        <ele>1421.0</ele>
        <time>2018-09-16T13:54:00Z</time>
      </trkpt>
      <trkpt lat="40.225733" lon="-4.725100">
        <ele>1425.0</ele>
        <time>2018-09-16T13:54:01Z</time>
      </trkpt>
      <trkpt lat="40.225683" lon="-4.725133">
        <ele>1428.0</ele>
        <time>2018-09-16T13:54:02Z</time>
      </trkpt>
      <trkpt lat="40.225600" lon="-4.725150">
        <ele>1430.0</ele>
        <time>2018-09-16T13:54:03Z</time>
      </trkpt>
      <trkpt lat="40.225517" lon="-4.725133">
        <ele>1431.0</ele>
        <time>2018-09-16T13:54:04Z</time>
      </trkpt>
      <trkpt lat="40.225417" lon="-4.725067">
        <ele>1432.0</ele>
        <time>2018-09-16T13:54:05Z</time>
      </trkpt>
      <trkpt lat="40.225317" lon="-4.724950">
        <ele>1434.0</ele>
        <time>2018-09-16T13:54:06Z</time>
      </trkpt>
      <trkpt lat="40.225267" lon="-4.724817">
        <ele>1437.0</ele>
        <time>2018-09-16T13:54:07Z</time>
      </trkpt>
      <trkpt lat="40.225250" lon="-4.724667">
        <ele>1439.0</ele>
        <time>2018-09-16T13:54:08Z</time>
      </trkpt>
      <trkpt lat="40.225283" lon="-4.724517">
        <ele>1440.0</ele>
        <time>2018-09-16T13:54:09Z</time>
      </trkpt>
      <trkpt lat="40.225350" lon="-4.724383">
        <ele>1441.0</ele>
        <time>2018-09-16T13:54:10Z</time>
      </trkpt>
      <trkpt lat="40.225417" lon="-4.724283">
        <ele>1444.0</ele>
        <time>2018-09-16T13:54:11Z</time>
      </trkpt>
      <trkpt lat="40.225500" lon="-4.724200">
        <ele>1447.0</ele>
        <time>2018-09-16T13:54:12Z</time>
      </trkpt>
      <trkpt lat="40.225600" lon="-4.724133">
        <ele>1451.0</ele>
        <time>2018-09-16T13:54:13Z</time>
      </trkpt>
      <trkpt lat="40.225683" lon="-4.724083">
        <ele>1455.0</ele>
        <time>2018-09-16T13:54:14Z</time>
      </trkpt>
      <trkpt lat="40.225767" lon="-4.724050">
        <ele>1458.0</ele>
        <time>2018-09-16T13:54:15Z</time>
      </trkpt>
      <trkpt lat="40.225867" lon="-4.724033">
        <ele>1461.0</ele>
        <time>2018-09-16T13:54:16Z</time>
      </trkpt>
      <trkpt lat="40.225950" lon="-4.724050">
        <ele>1464.0</ele>
        <time>2018-09-16T13:54:17Z</time>
      </trkpt>
      <trkpt lat="40.226017" lon="-4.724100">
        <ele>1466.0</ele>
        <time>2018-09-16T13:54:18Z</time>
      </trkpt>
      <trkpt lat="40.226083" lon="-4.724183">
        <ele>1469.0</ele>
        <time>2018-09-16T13:54:19Z</time>
      </trkpt>
      <trkpt lat="40.226133" lon="-4.724283">
        <ele>1472.0</ele>
        <time>2018-09-16T13:54:20Z</time>
      </trkpt>
      <trkpt lat="40.226150" lon="-4.724383">
        <ele>1476.0</ele>
        <time>2018-09-16T13:54:21Z</time>
      </trkpt>
      <trkpt lat="40.226133" lon="-4.724467">
        <ele>1480.0</ele>
        <time>2018-09-16T13:54:22Z</time>
      </trkpt>
      <trkpt lat="40.226117" lon="-4.724550">
        <ele>1483.0</ele>
        <time>2018-09-16T13:54:23Z</time>
      </trkpt>
      <trkpt lat="40.226050" lon="-4.724600">
        <ele>1486.0</ele>
        <time>2018-09-16T13:54:24Z</time>
      </trkpt>
      <trkpt lat="40.225983" lon="-4.724633">
        <ele>1488.0</ele>
        <time>2018-09-16T13:54:25Z</time>
      </trkpt>
      <trkpt lat="40.225900" lon="-4.724633">
        <ele>1489.0</ele>
        <time>2018-09-16T13:54:26Z</time>
      </trkpt>
      <trkpt lat="40.225817" lon="-4.724600">
        <ele>1490.0</ele>
        <time>2018-09-16T13:54:27Z</time>
      </trkpt>
      <trkpt lat="40.225717" lon="-4.724533">
        <ele>1491.0</ele>
        <time>2018-09-16T13:54:28Z</time>
      </trkpt>
      <trkpt lat="40.225633" lon="-4.724433">
        <ele>1492.0</ele>
        <time>2018-09-16T13:54:29Z</time>
      </trkpt>
      <trkpt lat="40.225567" lon="-4.724283">
        <ele>1494.0</ele>
        <time>2018-09-16T13:54:30Z</time>
      </trkpt>
      <trkpt lat="40.225533" lon="-4.724117">
        <ele>1496.0</ele>
        <time>2018-09-16T13:54:31Z</time>
      </trkpt>
      <trkpt lat="40.225533" lon="-4.723967">
        <ele>1499.0</ele>
        <time>2018-09-16T13:54:32Z</time>
      </trkpt>
      <trkpt lat="40.225567" lon="-4.723833">
        <ele>1501.0</ele>
        <time>2018-09-16T13:54:33Z</time>
      </trkpt>
      <trkpt lat="40.225617" lon="-4.723717">
        <ele>1503.0</ele>
        <time>2018-09-16T13:54:34Z</time>
      </trkpt>
      <trkpt lat="40.225683" lon="-4.723600">
        <ele>1505.0</ele>
        <time>2018-09-16T13:54:35Z</time>
      </trkpt>
      <trkpt lat="40.225767" lon="-4.723500">
        <ele>1506.0</ele>
        <time>2018-09-16T13:54:36Z</time>
      </trkpt>
      <trkpt lat="40.225867" lon="-4.723417">
        <ele>1509.0</ele>
        <time>2018-09-16T13:54:37Z</time>
      </trkpt>
      <trkpt lat="40.225967" lon="-4.723367">
        <ele>1512.0</ele>
        <time>2018-09-16T13:54:38Z</time>
      </trkpt>
      <trkpt lat="40.226050" lon="-4.723350">
        <ele>1516.0</ele>
        <time>2018-09-16T13:54:39Z</time>
      </trkpt>
      <trkpt lat="40.226117" lon="-4.723367">
        <ele>1520.0</ele>
        <time>2018-09-16T13:54:40Z</time>
      </trkpt>
      <trkpt lat="40.226200" lon="-4.723367">
        <ele>1522.0</ele>
        <time>2018-09-16T13:54:41Z</time>
      </trkpt>
      <trkpt lat="40.226283" lon="-4.723383">
        <ele>1525.0</ele>
        <time>2018-09-16T13:54:42Z</time>
      </trkpt>
      <trkpt lat="40.226367" lon="-4.723400">
        <ele>1527.0</ele>
        <time>2018-09-16T13:54:43Z</time>
      </trkpt>
      <trkpt lat="40.226450" lon="-4.723450">
        <ele>1529.0</ele>
        <time>2018-09-16T13:54:44Z</time>
      </trkpt>
      <trkpt lat="40.226533" lon="-4.723517">
        <ele>1531.0</ele>
        <time>2018-09-16T13:54:45Z</time>
      </trkpt>
      <trkpt lat="40.226600" lon="-4.723600">
        <ele>1534.0</ele>
        <time>2018-09-16T13:54:46Z</time>
      </trkpt>
      <trkpt lat="40.226650" lon="-4.723700">
        <ele>1537.0</ele>
        <time>2018-09-16T13:54:47Z</time>
      </trkpt>
      <trkpt lat="40.226683" lon="-4.723783">
        <ele>1541.0</ele>
        <time>2018-09-16T13:54:48Z</time>
      </trkpt>
      <trkpt lat="40.226700" lon="-4.723867">
        <ele>1544.0</ele>
        <time>2018-09-16T13:54:49Z</time>
      </trkpt>
      <trkpt lat="40.226717" lon="-4.723950">
        <ele>1546.0</ele>
        <time>2018-09-16T13:54:50Z</time>
      </trkpt>
      <trkpt lat="40.226717" lon="-4.724050">
        <ele>1547.0</ele>
        <time>2018-09-16T13:54:51Z</time>
      </trkpt>
      <trkpt lat="40.226667" lon="-4.724133">
        <ele>1548.0</ele>
        <time>2018-09-16T13:54:52Z</time>
      </trkpt>
      <trkpt lat="40.226583" lon="-4.724217">
        <ele>1549.0</ele>
        <time>2018-09-16T13:54:53Z</time>
      </trkpt>
      <trkpt lat="40.226483" lon="-4.724250">
        <ele>1550.0</ele>
        <time>2018-09-16T13:54:54Z</time>
      </trkpt>
      <trkpt lat="40.226383" lon="-4.724233">
        <ele>1553.0</ele>
        <time>2018-09-16T13:54:55Z</time>
      </trkpt>
      <trkpt lat="40.226300" lon="-4.724183">
        <ele>1556.0</ele>
        <time>2018-09-16T13:54:56Z</time>
      </trkpt>
      <trkpt lat="40.226233" lon="-4.724100">
        <ele>1560.0</ele>
        <time>2018-09-16T13:54:57Z</time>
      </trkpt>
      <trkpt lat="40.226167" lon="-4.724000">
        <ele>1563.0</ele>
        <time>2018-09-16T13:54:58Z</time>
      </trkpt>
      <trkpt lat="40.226133" lon="-4.723883">
        <ele>1565.0</ele>
        <time>2018-09-16T13:54:59Z</time>
      </trkpt>
      <trkpt lat="40.226117" lon="-4.723767">
        <ele>1567.0</ele>
        <time>2018-09-16T13:55:00Z</time>
      </trkpt>
      <trkpt lat="40.226100" lon="-4.723617">
        <ele>1568.0</ele>
        <time>2018-09-16T13:55:01Z</time>
      </trkpt>
      <trkpt lat="40.226100" lon="-4.723467">
        <ele>1570.0</ele>
        <time>2018-09-16T13:55:02Z</time>
      </trkpt>
      <trkpt lat="40.226117" lon="-4.723317">
        <ele>1573.0</ele>
        <time>2018-09-16T13:55:03Z</time>
      </trkpt>
      <trkpt lat="40.226150" lon="-4.723183">
        <ele>1575.0</ele>
        <time>2018-09-16T13:55:04Z</time>
      </trkpt>
      <trkpt lat="40.226217" lon="-4.723050">
        <ele>1578.0</ele>
        <time>2018-09-16T13:55:05Z</time>
      </trkpt>
      <trkpt lat="40.226300" lon="-4.722950">
        <ele>1581.0</ele>
        <time>2018-09-16T13:55:06Z</time>
      </trkpt>
      <trkpt lat="40.226400" lon="-4.722867">
        <ele>1584.0</ele>
        <time>2018-09-16T13:55:07Z</time>
      </trkpt>
      <trkpt lat="40.226500" lon="-4.722817">
        <ele>1588.0</ele>
        <time>2018-09-16T13:55:08Z</time>
      </trkpt>
      <trkpt lat="40.226600" lon="-4.722800">
        <ele>1592.0</ele>
        <time>2018-09-16T13:55:09Z</time>
      </trkpt>
      <trkpt lat="40.226700" lon="-4.722800">
        <ele>1595.0</ele>
        <time>2018-09-16T13:55:10Z</time>
      </trkpt>
      <trkpt lat="40.226783" lon="-4.722850">
        <ele>1597.0</ele>
        <time>2018-09-16T13:55:11Z</time>
      </trkpt>
      <trkpt lat="40.226850" lon="-4.722900">
        <ele>1599.0</ele>
        <time>2018-09-16T13:55:12Z</time>
      </trkpt>
      <trkpt lat="40.226900" lon="-4.722983">
        <ele>1602.0</ele>
        <time>2018-09-16T13:55:13Z</time>
      </trkpt>
      <trkpt lat="40.226917" lon="-4.723083">
        <ele>1604.0</ele>
        <time>2018-09-16T13:55:14Z</time>
      </trkpt>
      <trkpt lat="40.226917" lon="-4.723183">
        <ele>1605.0</ele>
        <time>2018-09-16T13:55:15Z</time>
      </trkpt>
      <trkpt lat="40.226867" lon="-4.723267">
        <ele>1606.0</ele>
        <time>2018-09-16T13:55:16Z</time>
      </trkpt>
      <trkpt lat="40.226800" lon="-4.723333">
        <ele>1606.0</ele>
        <time>2018-09-16T13:55:17Z</time>
      </trkpt>
      <trkpt lat="40.226700" lon="-4.723367">
        <ele>1607.0</ele>
        <time>2018-09-16T13:55:18Z</time>
      </trkpt>
      <trkpt lat="40.226600" lon="-4.723333">
        <ele>1609.0</ele>
        <time>2018-09-16T13:55:19Z</time>
      </trkpt>
      <trkpt lat="40.226500" lon="-4.723267">
        <ele>1611.0</ele>
        <time>2018-09-16T13:55:20Z</time>
      </trkpt>
      <trkpt lat="40.226433" lon="-4.723167">
        <ele>1615.0</ele>
        <time>2018-09-16T13:55:21Z</time>
      </trkpt>
      <trkpt lat="40.226367" lon="-4.723033">
        <ele>1618.0</ele>
        <time>2018-09-16T13:55:22Z</time>
      </trkpt>
      <trkpt lat="40.226333" lon="-4.722900">
        <ele>1620.0</ele>
        <time>2018-09-16T13:55:23Z</time>
      </trkpt>
      <trkpt lat="40.226300" lon="-4.722750">
        <ele>1623.0</ele>
        <time>2018-09-16T13:55:24Z</time>
      </trkpt>
      <trkpt lat="40.226283" lon="-4.722600">
        <ele>1625.0</ele>
        <time>2018-09-16T13:55:25Z</time>
      </trkpt>
      <trkpt lat="40.226283" lon="-4.722433">
        <ele>1628.0</ele>
        <time>2018-09-16T13:55:26Z</time>
      </trkpt>
      <trkpt lat="40.226300" lon="-4.722267">
        <ele>1631.0</ele>
        <time>2018-09-16T13:55:27Z</time>
      </trkpt>
      <trkpt lat="40.226333" lon="-4.722117">
        <ele>1634.0</ele>
        <time>2018-09-16T13:55:28Z</time>
      </trkpt>
      <trkpt lat="40.226400" lon="-4.721983">
        <ele>1637.0</ele>
        <time>2018-09-16T13:55:29Z</time>
      </trkpt>
      <trkpt lat="40.226467" lon="-4.721850">
        <ele>1641.0</ele>
        <time>2018-09-16T13:55:30Z</time>
      </trkpt>
      <trkpt lat="40.226533" lon="-4.721750">
        <ele>1645.0</ele>
        <time>2018-09-16T13:55:31Z</time>
      </trkpt>
      <trkpt lat="40.226583" lon="-4.721683">
        <ele>1648.0</ele>
        <time>2018-09-16T13:55:32Z</time>
      </trkpt>
      <trkpt lat="40.226650" lon="-4.721617">
        <ele>1649.0</ele>
        <time>2018-09-16T13:55:33Z</time>
      </trkpt>
      <trkpt lat="40.226717" lon="-4.721583">
        <ele>1649.0</ele>
        <time>2018-09-16T13:55:34Z</time>
      </trkpt>
      <trkpt lat="40.226817" lon="-4.721583">
        <ele>1647.0</ele>
        <time>2018-09-16T13:55:35Z</time>
      </trkpt>
      <trkpt lat="40.226900" lon="-4.721600">
        <ele>1647.0</ele>
        <time>2018-09-16T13:55:36Z</time>
      </trkpt>
      <trkpt lat="40.227000" lon="-4.721650">
        <ele>1648.0</ele>
        <time>2018-09-16T13:55:37Z</time>
      </trkpt>
      <trkpt lat="40.227083" lon="-4.721717">
        <ele>1649.0</ele>
        <time>2018-09-16T13:55:38Z</time>
      </trkpt>
      <trkpt lat="40.227117" lon="-4.721817">
        <ele>1651.0</ele>
        <time>2018-09-16T13:55:39Z</time>
      </trkpt>
      <trkpt lat="40.227150" lon="-4.721917">
        <ele>1653.0</ele>
        <time>2018-09-16T13:55:40Z</time>
      </trkpt>
      <trkpt lat="40.227167" lon="-4.722017">
        <ele>1655.0</ele>
        <time>2018-09-16T13:55:41Z</time>
      </trkpt>
      <trkpt lat="40.227167" lon="-4.722117">
        <ele>1657.0</ele>
        <time>2018-09-16T13:55:42Z</time>
      </trkpt>
      <trkpt lat="40.227150" lon="-4.722233">
        <ele>1659.0</ele>
        <time>2018-09-16T13:55:43Z</time>
      </trkpt>
      <trkpt lat="40.227117" lon="-4.722333">
        <ele>1662.0</ele>
        <time>2018-09-16T13:55:44Z</time>
      </trkpt>
      <trkpt lat="40.227083" lon="-4.722417">
        <ele>1665.0</ele>
        <time>2018-09-16T13:55:45Z</time>
      </trkpt>
      <trkpt lat="40.227033" lon="-4.722483">
        <ele>1668.0</ele>
        <time>2018-09-16T13:55:46Z</time>
      </trkpt>
      <trkpt lat="40.226967" lon="-4.722517">
        <ele>1670.0</ele>
        <time>2018-09-16T13:55:47Z</time>
      </trkpt>
      <trkpt lat="40.226900" lon="-4.722550">
        <ele>1672.0</ele>
        <time>2018-09-16T13:55:48Z</time>
      </trkpt>
      <trkpt lat="40.226817" lon="-4.722550">
        <ele>1673.0</ele>
        <time>2018-09-16T13:55:49Z</time>
      </trkpt>
      <trkpt lat="40.226733" lon="-4.722517">
        <ele>1674.0</ele>
        <time>2018-09-16T13:55:50Z</time>
      </trkpt>
      <trkpt lat="40.226633" lon="-4.722450">
        <ele>1675.0</ele>
        <time>2018-09-16T13:55:51Z</time>
      </trkpt>
      <trkpt lat="40.226533" lon="-4.722350">
        <ele>1677.0</ele>
        <time>2018-09-16T13:55:52Z</time>
      </trkpt>
      <trkpt lat="40.226467" lon="-4.722233">
        <ele>1680.0</ele>
        <time>2018-09-16T13:55:53Z</time>
      </trkpt>
      <trkpt lat="40.226417" lon="-4.722100">
        <ele>1684.0</ele>
        <time>2018-09-16T13:55:54Z</time>
      </trkpt>
      <trkpt lat="40.226400" lon="-4.721983">
        <ele>1687.0</ele>
        <time>2018-09-16T13:55:55Z</time>
      </trkpt>
      <trkpt lat="40.226383" lon="-4.721850">
        <ele>1690.0</ele>
        <time>2018-09-16T13:55:56Z</time>
      </trkpt>
      <trkpt lat="40.226383" lon="-4.721717">
        <ele>1692.0</ele>
        <time>2018-09-16T13:55:57Z</time>
      </trkpt>
      <trkpt lat="40.226400" lon="-4.721600">
        <ele>1693.0</ele>
        <time>2018-09-16T13:55:58Z</time>
      </trkpt>
      <trkpt lat="40.226400" lon="-4.721450">
        <ele>1694.0</ele>
        <time>2018-09-16T13:55:59Z</time>
      </trkpt>
      <trkpt lat="40.226433" lon="-4.721283">
        <ele>1696.0</ele>
        <time>2018-09-16T13:56:00Z</time>
      </trkpt>
      <trkpt lat="40.226483" lon="-4.721150">
        <ele>1698.0</ele>
        <time>2018-09-16T13:56:01Z</time>
      </trkpt>
      <trkpt lat="40.226583" lon="-4.721033">
        <ele>1700.0</ele>
        <time>2018-09-16T13:56:02Z</time>
      </trkpt>
      <trkpt lat="40.226683" lon="-4.720967">
        <ele>1701.0</ele>
        <time>2018-09-16T13:56:03Z</time>
      </trkpt>
      <trkpt lat="40.226783" lon="-4.720933">
        <ele>1703.0</ele>
        <time>2018-09-16T13:56:04Z</time>
      </trkpt>
      <trkpt lat="40.226867" lon="-4.720900">
        <ele>1705.0</ele>
        <time>2018-09-16T13:56:05Z</time>
      </trkpt>
      <trkpt lat="40.226967" lon="-4.720883">
        <ele>1708.0</ele>
        <time>2018-09-16T13:56:06Z</time>
      </trkpt>
      <trkpt lat="40.227050" lon="-4.720900">
        <ele>1711.0</ele>
        <time>2018-09-16T13:56:07Z</time>
      </trkpt>
      <trkpt lat="40.227117" lon="-4.720950">
        <ele>1712.0</ele>
        <time>2018-09-16T13:56:08Z</time>
      </trkpt>
      <trkpt lat="40.227183" lon="-4.721050">
        <ele>1712.0</ele>
        <time>2018-09-16T13:56:09Z</time>
      </trkpt>
      <trkpt lat="40.227217" lon="-4.721167">
        <ele>1712.0</ele>
        <time>2018-09-16T13:56:10Z</time>
      </trkpt>
      <trkpt lat="40.227233" lon="-4.721300">
        <ele>1714.0</ele>
        <time>2018-09-16T13:56:11Z</time>
      </trkpt>
      <trkpt lat="40.227217" lon="-4.721417">
        <ele>1718.0</ele>
        <time>2018-09-16T13:56:12Z</time>
      </trkpt>
      <trkpt lat="40.227183" lon="-4.721500">
        <ele>1722.0</ele>
        <time>2018-09-16T13:56:13Z</time>
      </trkpt>
      <trkpt lat="40.227133" lon="-4.721567">
        <ele>1724.0</ele>
        <time>2018-09-16T13:56:14Z</time>
      </trkpt>
      <trkpt lat="40.227067" lon="-4.721633">
        <ele>1727.0</ele>
        <time>2018-09-16T13:56:15Z</time>
      </trkpt>
      <trkpt lat="40.227000" lon="-4.721683">
        <ele>1728.0</ele>
        <time>2018-09-16T13:56:16Z</time>
      </trkpt>
      <trkpt lat="40.226917" lon="-4.721700">
        <ele>1730.0</ele>
        <time>2018-09-16T13:56:17Z</time>
      </trkpt>
      <trkpt lat="40.226817" lon="-4.721700">
        <ele>1731.0</ele>
        <time>2018-09-16T13:56:18Z</time>
      </trkpt>
      <trkpt lat="40.226733" lon="-4.721667">
        <ele>1733.0</ele>
        <time>2018-09-16T13:56:19Z</time>
      </trkpt>
      <trkpt lat="40.226633" lon="-4.721600">
        <ele>1736.0</ele>
        <time>2018-09-16T13:56:20Z</time>
      </trkpt>
      <trkpt lat="40.226567" lon="-4.721517">
        <ele>1739.0</ele>
        <time>2018-09-16T13:56:21Z</time>
      </trkpt>
      <trkpt lat="40.226517" lon="-4.721417">
        <ele>1743.0</ele>
        <time>2018-09-16T13:56:22Z</time>
      </trkpt>
      <trkpt lat="40.226467" lon="-4.721317">
        <ele>1745.0</ele>
        <time>2018-09-16T13:56:23Z</time>
      </trkpt>
      <trkpt lat="40.226433" lon="-4.721200">
        <ele>1747.0</ele>
        <time>2018-09-16T13:56:24Z</time>
      </trkpt>
      <trkpt lat="40.226417" lon="-4.721067">
        <ele>1749.0</ele>
        <time>2018-09-16T13:56:25Z</time>
      </trkpt>
      <trkpt lat="40.226400" lon="-4.720933">
        <ele>1750.0</ele>
        <time>2018-09-16T13:56:26Z</time>
      </trkpt>
      <trkpt lat="40.226417" lon="-4.720800">
        <ele>1752.0</ele>
        <time>2018-09-16T13:56:27Z</time>
      </trkpt>
      <trkpt lat="40.226467" lon="-4.720667">
        <ele>1753.0</ele>
        <time>2018-09-16T13:56:28Z</time>
      </trkpt>
      <trkpt lat="40.226533" lon="-4.720567">
        <ele>1755.0</ele>
        <time>2018-09-16T13:56:29Z</time>
      </trkpt>
      <trkpt lat="40.226600" lon="-4.720483">
        <ele>1757.0</ele>
        <time>2018-09-16T13:56:30Z</time>
      </trkpt>
      <trkpt lat="40.226667" lon="-4.720417">
        <ele>1758.0</ele>
        <time>2018-09-16T13:56:31Z</time>
      </trkpt>
      <trkpt lat="40.226767" lon="-4.720350">
        <ele>1759.0</ele>
        <time>2018-09-16T13:56:32Z</time>
      </trkpt>
      <trkpt lat="40.226867" lon="-4.720283">
        <ele>1759.0</ele>
        <time>2018-09-16T13:56:33Z</time>
      </trkpt>
      <trkpt lat="40.226983" lon="-4.720267">
        <ele>1760.0</ele>
        <time>2018-09-16T13:56:34Z</time>
      </trkpt>
      <trkpt lat="40.227100" lon="-4.720267">
        <ele>1763.0</ele>
        <time>2018-09-16T13:56:35Z</time>
      </trkpt>
      <trkpt lat="40.227217" lon="-4.720300">
        <ele>1767.0</ele>
        <time>2018-09-16T13:56:36Z</time>
      </trkpt>
      <trkpt lat="40.227300" lon="-4.720333">
        <ele>1771.0</ele>
        <time>2018-09-16T13:56:37Z</time>
      </trkpt>
      <trkpt lat="40.227367" lon="-4.720383">
        <ele>1774.0</ele>
        <time>2018-09-16T13:56:38Z</time>
      </trkpt>
      <trkpt lat="40.227433" lon="-4.720450">
        <ele>1777.0</ele>
        <time>2018-09-16T13:56:39Z</time>
      </trkpt>
      <trkpt lat="40.227500" lon="-4.720517">
        <ele>1779.0</ele>
        <time>2018-09-16T13:56:40Z</time>
      </trkpt>
      <trkpt lat="40.227533" lon="-4.720617">
        <ele>1780.0</ele>
        <time>2018-09-16T13:56:41Z</time>
      </trkpt>
      <trkpt lat="40.227533" lon="-4.720733">
        <ele>1781.0</ele>
        <time>2018-09-16T13:56:42Z</time>
      </trkpt>
      <trkpt lat="40.227517" lon="-4.720850">
        <ele>1782.0</ele>
        <time>2018-09-16T13:56:43Z</time>
      </trkpt>
      <trkpt lat="40.227483" lon="-4.720967">
        <ele>1784.0</ele>
        <time>2018-09-16T13:56:44Z</time>
      </trkpt>
      <trkpt lat="40.227417" lon="-4.721050">
        <ele>1788.0</ele>
        <time>2018-09-16T13:56:45Z</time>
      </trkpt>
      <trkpt lat="40.227350" lon="-4.721117">
        <ele>1791.0</ele>
        <time>2018-09-16T13:56:46Z</time>
      </trkpt>
      <trkpt lat="40.227283" lon="-4.721150">
        <ele>1793.0</ele>
        <time>2018-09-16T13:56:47Z</time>
      </trkpt>
      <trkpt lat="40.227200" lon="-4.721167">
        <ele>1796.0</ele>
        <time>2018-09-16T13:56:48Z</time>
      </trkpt>
      <trkpt lat="40.227117" lon="-4.721183">
        <ele>1797.0</ele>
        <time>2018-09-16T13:56:49Z</time>
      </trkpt>
      <trkpt lat="40.227033" lon="-4.721150">
        <ele>1798.0</ele>
        <time>2018-09-16T13:56:50Z</time>
      </trkpt>
      <trkpt lat="40.226933" lon="-4.721100">
        <ele>1800.0</ele>
        <time>2018-09-16T13:56:51Z</time>
      </trkpt>
      <trkpt lat="40.226850" lon="-4.721017">
        <ele>1803.0</ele>
        <time>2018-09-16T13:56:52Z</time>
      </trkpt>
      <trkpt lat="40.226783" lon="-4.720900">
        <ele>1806.0</ele>
        <time>2018-09-16T13:56:53Z</time>
      </trkpt>
      <trkpt lat="40.226733" lon="-4.720800">
        <ele>1810.0</ele>
        <time>2018-09-16T13:56:54Z</time>
      </trkpt>
      <trkpt lat="40.226683" lon="-4.720683">
        <ele>1813.0</ele>
        <time>2018-09-16T13:56:55Z</time>
      </trkpt>
      <trkpt lat="40.226650" lon="-4.720583">
        <ele>1815.0</ele>
        <time>2018-09-16T13:56:56Z</time>
      </trkpt>
      <trkpt lat="40.226650" lon="-4.720483">
        <ele>1816.0</ele>
        <time>2018-09-16T13:56:57Z</time>
      </trkpt>
      <trkpt lat="40.226667" lon="-4.720350">
        <ele>1817.0</ele>
        <time>2018-09-16T13:56:58Z</time>
      </trkpt>
      <trkpt lat="40.226700" lon="-4.720233">
        <ele>1817.0</ele>
        <time>2018-09-16T13:56:59Z</time>
      </trkpt>
      <trkpt lat="40.226767" lon="-4.720100">
        <ele>1818.0</ele>
        <time>2018-09-16T13:57:00Z</time>
      </trkpt>
      <trkpt lat="40.226833" lon="-4.720000">
        <ele>1820.0</ele>
        <time>2018-09-16T13:57:01Z</time>
      </trkpt>
      <trkpt lat="40.226933" lon="-4.719950">
        <ele>1823.0</ele>
        <time>2018-09-16T13:57:02Z</time>
      </trkpt>
      <trkpt lat="40.227033" lon="-4.719917">
        <ele>1825.0</ele>
        <time>2018-09-16T13:57:03Z</time>
      </trkpt>
      <trkpt lat="40.227133" lon="-4.719933">
        <ele>1826.0</ele>
        <time>2018-09-16T13:57:04Z</time>
      </trkpt>
      <trkpt lat="40.227217" lon="-4.720000">
        <ele>1827.0</ele>
        <time>2018-09-16T13:57:05Z</time>
      </trkpt>
      <trkpt lat="40.227300" lon="-4.720083">
        <ele>1829.0</ele>
        <time>2018-09-16T13:57:06Z</time>
      </trkpt>
      <trkpt lat="40.227367" lon="-4.720183">
        <ele>1830.0</ele>
        <time>2018-09-16T13:57:07Z</time>
      </trkpt>
      <trkpt lat="40.227417" lon="-4.720300">
        <ele>1833.0</ele>
        <time>2018-09-16T13:57:08Z</time>
      </trkpt>
      <trkpt lat="40.227433" lon="-4.720417">
        <ele>1835.0</ele>
        <time>2018-09-16T13:57:09Z</time>
      </trkpt>
      <trkpt lat="40.227433" lon="-4.720533">
        <ele>1836.0</ele>
        <time>2018-09-16T13:57:10Z</time>
      </trkpt>
      <trkpt lat="40.227400" lon="-4.720633">
        <ele>1838.0</ele>
        <time>2018-09-16T13:57:11Z</time>
      </trkpt>
      <trkpt lat="40.227350" lon="-4.720733">
        <ele>1840.0</ele>
        <time>2018-09-16T13:57:12Z</time>
      </trkpt>
      <trkpt lat="40.227283" lon="-4.720817">
        <ele>1841.0</ele>
        <time>2018-09-16T13:57:13Z</time>
      </trkpt>
      <trkpt lat="40.227200" lon="-4.720883">
        <ele>1843.0</ele>
        <time>2018-09-16T13:57:14Z</time>
      </trkpt>
      <trkpt lat="40.227117" lon="-4.720933">
        <ele>1846.0</ele>
        <time>2018-09-16T13:57:15Z</time>
      </trkpt>
      <trkpt lat="40.227033" lon="-4.720967">
        <ele>1847.0</ele>
        <time>2018-09-16T13:57:16Z</time>
      </trkpt>
      <trkpt lat="40.226933" lon="-4.720950">
        <ele>1850.0</ele>
        <time>2018-09-16T13:57:17Z</time>
      </trkpt>
      <trkpt lat="40.226850" lon="-4.720900">
        <ele>1853.0</ele>
        <time>2018-09-16T13:57:18Z</time>
      </trkpt>
      <trkpt lat="40.226800" lon="-4.720817">
        <ele>1855.0</ele>
        <time>2018-09-16T13:57:19Z</time>
      </trkpt>
      <trkpt lat="40.226767" lon="-4.720717">
        <ele>1856.0</ele>
        <time>2018-09-16T13:57:20Z</time>
      </trkpt>
      <trkpt lat="40.226750" lon="-4.720600">
        <ele>1858.0</ele>
        <time>2018-09-16T13:57:21Z</time>
      </trkpt>
      <trkpt lat="40.226733" lon="-4.720483">
        <ele>1859.0</ele>
        <time>2018-09-16T13:57:22Z</time>
      </trkpt>
      <trkpt lat="40.226750" lon="-4.720350">
        <ele>1860.0</ele>
        <time>2018-09-16T13:57:23Z</time>
      </trkpt>
      <trkpt lat="40.226783" lon="-4.720233">
        <ele>1860.0</ele>
        <time>2018-09-16T13:57:24Z</time>
      </trkpt>
      <trkpt lat="40.226833" lon="-4.720100">
        <ele>1861.0</ele>
        <time>2018-09-16T13:57:25Z</time>
      </trkpt>
      <trkpt lat="40.226917" lon="-4.720000">
        <ele>1861.0</ele>
        <time>2018-09-16T13:57:26Z</time>
      </trkpt>
      <trkpt lat="40.227017" lon="-4.719933">
        <ele>1863.0</ele>
        <time>2018-09-16T13:57:27Z</time>
      </trkpt>
      <trkpt lat="40.227133" lon="-4.719883">
        <ele>1865.0</ele>
        <time>2018-09-16T13:57:28Z</time>
      </trkpt>
      <trkpt lat="40.227233" lon="-4.719883">
        <ele>1867.0</ele>
        <time>2018-09-16T13:57:29Z</time>
      </trkpt>
      <trkpt lat="40.227350" lon="-4.719917">
        <ele>1869.0</ele>
        <time>2018-09-16T13:57:30Z</time>
      </trkpt>
      <trkpt lat="40.227433" lon="-4.719950">
        <ele>1870.0</ele>
        <time>2018-09-16T13:57:31Z</time>
      </trkpt>
      <trkpt lat="40.227517" lon="-4.720017">
        <ele>1871.0</ele>
        <time>2018-09-16T13:57:32Z</time>
      </trkpt>
      <trkpt lat="40.227600" lon="-4.720100">
        <ele>1872.0</ele>
        <time>2018-09-16T13:57:33Z</time>
      </trkpt>
      <trkpt lat="40.227650" lon="-4.720217">
        <ele>1873.0</ele>
        <time>2018-09-16T13:57:34Z</time>
      </trkpt>
      <trkpt lat="40.227667" lon="-4.720367">
        <ele>1874.0</ele>
        <time>2018-09-16T13:57:35Z</time>
      </trkpt>
      <trkpt lat="40.227650" lon="-4.720483">
        <ele>1877.0</ele>
        <time>2018-09-16T13:57:36Z</time>
      </trkpt>
      <trkpt lat="40.227600" lon="-4.720600">
        <ele>1880.0</ele>
        <time>2018-09-16T13:57:37Z</time>
      </trkpt>
      <trkpt lat="40.227533" lon="-4.720683">
        <ele>1883.0</ele>
        <time>2018-09-16T13:57:38Z</time>
      </trkpt>
      <trkpt lat="40.227467" lon="-4.720717">
        <ele>1886.0</ele>
        <time>2018-09-16T13:57:39Z</time>
      </trkpt>
      <trkpt lat="40.227383" lon="-4.720750">
        <ele>1889.0</ele>
        <time>2018-09-16T13:57:40Z</time>
      </trkpt>
      <trkpt lat="40.227317" lon="-4.720733">
        <ele>1891.0</ele>
        <time>2018-09-16T13:57:41Z</time>
      </trkpt>
      <trkpt lat="40.227250" lon="-4.720683">
        <ele>1892.0</ele>
        <time>2018-09-16T13:57:42Z</time>
      </trkpt>
      <trkpt lat="40.227183" lon="-4.720600">
        <ele>1893.0</ele>
        <time>2018-09-16T13:57:43Z</time>
      </trkpt>
      <trkpt lat="40.227150" lon="-4.720500">
        <ele>1893.0</ele>
        <time>2018-09-16T13:57:44Z</time>
      </trkpt>
      <trkpt lat="40.227117" lon="-4.720367">
        <ele>1894.0</ele>
        <time>2018-09-16T13:57:45Z</time>
      </trkpt>
      <trkpt lat="40.227117" lon="-4.720233">
        <ele>1897.0</ele>
        <time>2018-09-16T13:57:46Z</time>
      </trkpt>
      <trkpt lat="40.227117" lon="-4.720117">
        <ele>1899.0</ele>
        <time>2018-09-16T13:57:47Z</time>
      </trkpt>
      <trkpt lat="40.227133" lon="-4.719983">
        <ele>1901.0</ele>
        <time>2018-09-16T13:57:48Z</time>
      </trkpt>
      <trkpt lat="40.227150" lon="-4.719867">
        <ele>1902.0</ele>
        <time>2018-09-16T13:57:49Z</time>
      </trkpt>
      <trkpt lat="40.227200" lon="-4.719733">
        <ele>1903.0</ele>
        <time>2018-09-16T13:57:50Z</time>
      </trkpt>
      <trkpt lat="40.227267" lon="-4.719617">
        <ele>1904.0</ele>
        <time>2018-09-16T13:57:51Z</time>
      </trkpt>
      <trkpt lat="40.227367" lon="-4.719517">
        <ele>1906.0</ele>
        <time>2018-09-16T13:57:52Z</time>
      </trkpt>
      <trkpt lat="40.227450" lon="-4.719433">
        <ele>1908.0</ele>
        <time>2018-09-16T13:57:53Z</time>
      </trkpt>
      <trkpt lat="40.227550" lon="-4.719367">
        <ele>1911.0</ele>
        <time>2018-09-16T13:57:54Z</time>
      </trkpt>
      <trkpt lat="40.227650" lon="-4.719300">
        <ele>1913.0</ele>
        <time>2018-09-16T13:57:55Z</time>
      </trkpt>
      <trkpt lat="40.227750" lon="-4.719233">
        <ele>1915.0</ele>
        <time>2018-09-16T13:57:56Z</time>
      </trkpt>
      <trkpt lat="40.227833" lon="-4.719167">
        <ele>1916.0</ele>
        <time>2018-09-16T13:57:57Z</time>
      </trkpt>
      <trkpt lat="40.227933" lon="-4.719100">
        <ele>1917.0</ele>
        <time>2018-09-16T13:57:58Z</time>
      </trkpt>
      <trkpt lat="40.228017" lon="-4.719033">
        <ele>1920.0</ele>
        <time>2018-09-16T13:57:59Z</time>
      </trkpt>
      <trkpt lat="40.228100" lon="-4.718983">
        <ele>1923.0</ele>
        <time>2018-09-16T13:58:00Z</time>
      </trkpt>
      <trkpt lat="40.228200" lon="-4.718950">
        <ele>1924.0</ele>
        <time>2018-09-16T13:58:01Z</time>
      </trkpt>
      <trkpt lat="40.228300" lon="-4.718950">
        <ele>1925.0</ele>
        <time>2018-09-16T13:58:02Z</time>
      </trkpt>
      <trkpt lat="40.228400" lon="-4.718967">
        <ele>1926.0</ele>
        <time>2018-09-16T13:58:03Z</time>
      </trkpt>
      <trkpt lat="40.228500" lon="-4.719000">
        <ele>1928.0</ele>
        <time>2018-09-16T13:58:04Z</time>
      </trkpt>
      <trkpt lat="40.228583" lon="-4.719067">
        <ele>1930.0</ele>
        <time>2018-09-16T13:58:05Z</time>
      </trkpt>
      <trkpt lat="40.228650" lon="-4.719150">
        <ele>1933.0</ele>
        <time>2018-09-16T13:58:06Z</time>
      </trkpt>
      <trkpt lat="40.228700" lon="-4.719250">
        <ele>1935.0</ele>
        <time>2018-09-16T13:58:07Z</time>
      </trkpt>
      <trkpt lat="40.228717" lon="-4.719367">
        <ele>1936.0</ele>
        <time>2018-09-16T13:58:08Z</time>
      </trkpt>
      <trkpt lat="40.228733" lon="-4.719483">
        <ele>1938.0</ele>
        <time>2018-09-16T13:58:09Z</time>
      </trkpt>
      <trkpt lat="40.228733" lon="-4.719617">
        <ele>1940.0</ele>
        <time>2018-09-16T13:58:10Z</time>
      </trkpt>
      <trkpt lat="40.228700" lon="-4.719750">
        <ele>1942.0</ele>
        <time>2018-09-16T13:58:11Z</time>
      </trkpt>
      <trkpt lat="40.228650" lon="-4.719850">
        <ele>1944.0</ele>
        <time>2018-09-16T13:58:12Z</time>
      </trkpt>
      <trkpt lat="40.228583" lon="-4.719917">
        <ele>1947.0</ele>
        <time>2018-09-16T13:58:13Z</time>
      </trkpt>
      <trkpt lat="40.228500" lon="-4.719950">
        <ele>1949.0</ele>
        <time>2018-09-16T13:58:14Z</time>
      </trkpt>
      <trkpt lat="40.228433" lon="-4.719983">
        <ele>1951.0</ele>
        <time>2018-09-16T13:58:15Z</time>
      </trkpt>
      <trkpt lat="40.228367" lon="-4.719983">
        <ele>1953.0</ele>
        <time>2018-09-16T13:58:16Z</time>
      </trkpt>
      <trkpt lat="40.228300" lon="-4.719967">
        <ele>1954.0</ele>
        <time>2018-09-16T13:58:17Z</time>
      </trkpt>
      <trkpt lat="40.228233" lon="-4.719933">
        <ele>1954.0</ele>
        <time>2018-09-16T13:58:18Z</time>
      </trkpt>
      <trkpt lat="40.228167" lon="-4.719867">
        <ele>1955.0</ele>
        <time>2018-09-16T13:58:19Z</time>
      </trkpt>
      <trkpt lat="40.228117" lon="-4.719767">
        <ele>1955.0</ele>
        <time>2018-09-16T13:58:20Z</time>
      </trkpt>
      <trkpt lat="40.228100" lon="-4.719650">
        <ele>1957.0</ele>
        <time>2018-09-16T13:58:21Z</time>
      </trkpt>
      <trkpt lat="40.228083" lon="-4.719517">
        <ele>1958.0</ele>
        <time>2018-09-16T13:58:22Z</time>
      </trkpt>
      <trkpt lat="40.228100" lon="-4.719400">
        <ele>1960.0</ele>
        <time>2018-09-16T13:58:23Z</time>
      </trkpt>
      <trkpt lat="40.228133" lon="-4.719300">
        <ele>1962.0</ele>
        <time>2018-09-16T13:58:24Z</time>
      </trkpt>
      <trkpt lat="40.228183" lon="-4.719200">
        <ele>1962.0</ele>
        <time>2018-09-16T13:58:25Z</time>
      </trkpt>
      <trkpt lat="40.228250" lon="-4.719100">
        <ele>1963.0</ele>
        <time>2018-09-16T13:58:26Z</time>
      </trkpt>
      <trkpt lat="40.228333" lon="-4.719017">
        <ele>1964.0</ele>
        <time>2018-09-16T13:58:27Z</time>
      </trkpt>
      <trkpt lat="40.228433" lon="-4.718950">
        <ele>1965.0</ele>
        <time>2018-09-16T13:58:28Z</time>
      </trkpt>
      <trkpt lat="40.228533" lon="-4.718883">
        <ele>1968.0</ele>
        <time>2018-09-16T13:58:29Z</time>
      </trkpt>
      <trkpt lat="40.228633" lon="-4.718817">
        <ele>1970.0</ele>
        <time>2018-09-16T13:58:30Z</time>
      </trkpt>
      <trkpt lat="40.228717" lon="-4.718767">
        <ele>1973.0</ele>
        <time>2018-09-16T13:58:31Z</time>
      </trkpt>
      <trkpt lat="40.228817" lon="-4.718700">
        <ele>1976.0</ele>
        <time>2018-09-16T13:58:32Z</time>
      </trkpt>
      <trkpt lat="40.228900" lon="-4.718633">
        <ele>1978.0</ele>
        <time>2018-09-16T13:58:33Z</time>
      </trkpt>
      <trkpt lat="40.228983" lon="-4.718583">
        <ele>1981.0</ele>
        <time>2018-09-16T13:58:34Z</time>
      </trkpt>
      <trkpt lat="40.229067" lon="-4.718517">
        <ele>1984.0</ele>
        <time>2018-09-16T13:58:35Z</time>
      </trkpt>
      <trkpt lat="40.229167" lon="-4.718467">
        <ele>1988.0</ele>
        <time>2018-09-16T13:58:36Z</time>
      </trkpt>
      <trkpt lat="40.229250" lon="-4.718417">
        <ele>1992.0</ele>
        <time>2018-09-16T13:58:37Z</time>
      </trkpt>
      <trkpt lat="40.229317" lon="-4.718367">
        <ele>1996.0</ele>
        <time>2018-09-16T13:58:38Z</time>
      </trkpt>
      <trkpt lat="40.229400" lon="-4.718317">
        <ele>1999.0</ele>
        <time>2018-09-16T13:58:39Z</time>
      </trkpt>
      <trkpt lat="40.229467" lon="-4.718300">
        <ele>2002.0</ele>
        <time>2018-09-16T13:58:40Z</time>
      </trkpt>
      <trkpt lat="40.229550" lon="-4.718283">
        <ele>2004.0</ele>
        <time>2018-09-16T13:58:41Z</time>
      </trkpt>
      <trkpt lat="40.229633" lon="-4.718300">
        <ele>2006.0</ele>
        <time>2018-09-16T13:58:42Z</time>
      </trkpt>
      <trkpt lat="40.229733" lon="-4.718350">
        <ele>2008.0</ele>
        <time>2018-09-16T13:58:43Z</time>
      </trkpt>
      <trkpt lat="40.229817" lon="-4.718417">
        <ele>2011.0</ele>
        <time>2018-09-16T13:58:44Z</time>
      </trkpt>
      <trkpt lat="40.229883" lon="-4.718500">
        <ele>2015.0</ele>
        <time>2018-09-16T13:58:45Z</time>
      </trkpt>
      <trkpt lat="40.229917" lon="-4.718567">
        <ele>2019.0</ele>
        <time>2018-09-16T13:58:46Z</time>
      </trkpt>
      <trkpt lat="40.229933" lon="-4.718667">
        <ele>2022.0</ele>
        <time>2018-09-16T13:58:47Z</time>
      </trkpt>
      <trkpt lat="40.229917" lon="-4.718750">
        <ele>2023.0</ele>
        <time>2018-09-16T13:58:48Z</time>
      </trkpt>
      <trkpt lat="40.229900" lon="-4.718850">
        <ele>2025.0</ele>
        <time>2018-09-16T13:58:49Z</time>
      </trkpt>
      <trkpt lat="40.229850" lon="-4.718933">
        <ele>2026.0</ele>
        <time>2018-09-16T13:58:50Z</time>
      </trkpt>
      <trkpt lat="40.229783" lon="-4.718983">
        <ele>2028.0</ele>
        <time>2018-09-16T13:58:51Z</time>
      </trkpt>
      <trkpt lat="40.229700" lon="-4.719033">
        <ele>2029.0</ele>
        <time>2018-09-16T13:58:52Z</time>
      </trkpt>
      <trkpt lat="40.229600" lon="-4.719033">
        <ele>2032.0</ele>
        <time>2018-09-16T13:58:53Z</time>
      </trkpt>
      <trkpt lat="40.229533" lon="-4.719000">
        <ele>2035.0</ele>
        <time>2018-09-16T13:58:54Z</time>
      </trkpt>
      <trkpt lat="40.229467" lon="-4.718950">
        <ele>2038.0</ele>
        <time>2018-09-16T13:58:55Z</time>
      </trkpt>
      <trkpt lat="40.229417" lon="-4.718867">
        <ele>2040.0</ele>
        <time>2018-09-16T13:58:56Z</time>
      </trkpt>
      <trkpt lat="40.229367" lon="-4.718750">
        <ele>2041.0</ele>
        <time>2018-09-16T13:58:57Z</time>
      </trkpt>
      <trkpt lat="40.229333" lon="-4.718633">
        <ele>2043.0</ele>
        <time>2018-09-16T13:58:58Z</time>
      </trkpt>
      <trkpt lat="40.229333" lon="-4.718483">
        <ele>2045.0</ele>
        <time>2018-09-16T13:58:59Z</time>
      </trkpt>
      <trkpt lat="40.229333" lon="-4.718350">
        <ele>2048.0</ele>
        <time>2018-09-16T13:59:00Z</time>
      </trkpt>
      <trkpt lat="40.229350" lon="-4.718200">
        <ele>2052.0</ele>
        <time>2018-09-16T13:59:01Z</time>
      </trkpt>
      <trkpt lat="40.229400" lon="-4.718083">
        <ele>2056.0</ele>
        <time>2018-09-16T13:59:02Z</time>
      </trkpt>
      <trkpt lat="40.229450" lon="-4.717983">
        <ele>2059.0</ele>
        <time>2018-09-16T13:59:03Z</time>
      </trkpt>
      <trkpt lat="40.229517" lon="-4.717900">
        <ele>2063.0</ele>
        <time>2018-09-16T13:59:04Z</time>
      </trkpt>
      <trkpt lat="40.229583" lon="-4.717817">
        <ele>2065.0</ele>
        <time>2018-09-16T13:59:05Z</time>
      </trkpt>
      <trkpt lat="40.229667" lon="-4.717750">
        <ele>2068.0</ele>
        <time>2018-09-16T13:59:06Z</time>
      </trkpt>
      <trkpt lat="40.229767" lon="-4.717700">
        <ele>2070.0</ele>
        <time>2018-09-16T13:59:07Z</time>
      </trkpt>
      <trkpt lat="40.229867" lon="-4.717667">
        <ele>2073.0</ele>
        <time>2018-09-16T13:59:08Z</time>
      </trkpt>
      <trkpt lat="40.229967" lon="-4.717667">
        <ele>2076.0</ele>
        <time>2018-09-16T13:59:09Z</time>
      </trkpt>
      <trkpt lat="40.230050" lon="-4.717700">
        <ele>2080.0</ele>
        <time>2018-09-16T13:59:10Z</time>
      </trkpt>
      <trkpt lat="40.230133" lon="-4.717733">
        <ele>2083.0</ele>
        <time>2018-09-16T13:59:11Z</time>
      </trkpt>
      <trkpt lat="40.230200" lon="-4.717800">
        <ele>2085.0</ele>
        <time>2018-09-16T13:59:12Z</time>
      </trkpt>
      <trkpt lat="40.230250" lon="-4.717883">
        <ele>2088.0</ele>
        <time>2018-09-16T13:59:13Z</time>
      </trkpt>
      <trkpt lat="40.230283" lon="-4.717983">
        <ele>2090.0</ele>
        <time>2018-09-16T13:59:14Z</time>
      </trkpt>
      <trkpt lat="40.230283" lon="-4.718083">
        <ele>2092.0</ele>
        <time>2018-09-16T13:59:15Z</time>
      </trkpt>
      <trkpt lat="40.230283" lon="-4.718200">
        <ele>2094.0</ele>
        <time>2018-09-16T13:59:16Z</time>
      </trkpt>
      <trkpt lat="40.230267" lon="-4.718300">
        <ele>2097.0</ele>
        <time>2018-09-16T13:59:17Z</time>
      </trkpt>
      <trkpt lat="40.230233" lon="-4.718400">
        <ele>2100.0</ele>
        <time>2018-09-16T13:59:18Z</time>
      </trkpt>
      <trkpt lat="40.230183" lon="-4.718467">
        <ele>2102.0</ele>
        <time>2018-09-16T13:59:19Z</time>
      </trkpt>
      <trkpt lat="40.230133" lon="-4.718517">
        <ele>2103.0</ele>
        <time>2018-09-16T13:59:20Z</time>
      </trkpt>
      <trkpt lat="40.230050" lon="-4.718550">
        <ele>2105.0</ele>
        <time>2018-09-16T13:59:21Z</time>
      </trkpt>
      <trkpt lat="40.229967" lon="-4.718567">
        <ele>2106.0</ele>
        <time>2018-09-16T13:59:22Z</time>
      </trkpt>
      <trkpt lat="40.229883" lon="-4.718533">
        <ele>2108.0</ele>
        <time>2018-09-16T13:59:23Z</time>
      </trkpt>
      <trkpt lat="40.229800" lon="-4.718483">
        <ele>2110.0</ele>
        <time>2018-09-16T13:59:24Z</time>
      </trkpt>
      <trkpt lat="40.229733" lon="-4.718417">
        <ele>2112.0</ele>
        <time>2018-09-16T13:59:25Z</time>
      </trkpt>
      <trkpt lat="40.229683" lon="-4.718300">
        <ele>2115.0</ele>
        <time>2018-09-16T13:59:26Z</time>
      </trkpt>
      <trkpt lat="40.229633" lon="-4.718183">
        <ele>2117.0</ele>
        <time>2018-09-16T13:59:27Z</time>
      </trkpt>
      <trkpt lat="40.229600" lon="-4.718067">
        <ele>2121.0</ele>
        <time>2018-09-16T13:59:28Z</time>
      </trkpt>
      <trkpt lat="40.229583" lon="-4.717950">
        <ele>2125.0</ele>
        <time>2018-09-16T13:59:29Z</time>
      </trkpt>
      <trkpt lat="40.229583" lon="-4.717833">
        <ele>2127.0</ele>
        <time>2018-09-16T13:59:30Z</time>
      </trkpt>
      <trkpt lat="40.229600" lon="-4.717717">
        <ele>2129.0</ele>
        <time>2018-09-16T13:59:31Z</time>
      </trkpt>
      <trkpt lat="40.229617" lon="-4.717567">
        <ele>2130.0</ele>
        <time>2018-09-16T13:59:32Z</time>
      </trkpt>
      <trkpt lat="40.229667" lon="-4.717400">
        <ele>2132.0</ele>
        <time>2018-09-16T13:59:33Z</time>
      </trkpt>
      <trkpt lat="40.229733" lon="-4.717250">
        <ele>2136.0</ele>
        <time>2018-09-16T13:59:34Z</time>
      </trkpt>
      <trkpt lat="40.229800" lon="-4.717117">
        <ele>2140.0</ele>
        <time>2018-09-16T13:59:35Z</time>
      </trkpt>
      <trkpt lat="40.229867" lon="-4.717017">
        <ele>2145.0</ele>
        <time>2018-09-16T13:59:36Z</time>
      </trkpt>
      <trkpt lat="40.229950" lon="-4.716933">
        <ele>2147.0</ele>
        <time>2018-09-16T13:59:37Z</time>
      </trkpt>
      <trkpt lat="40.230033" lon="-4.716850">
        <ele>2150.0</ele>
        <time>2018-09-16T13:59:38Z</time>
      </trkpt>
      <trkpt lat="40.230133" lon="-4.716783">
        <ele>2152.0</ele>
        <time>2018-09-16T13:59:39Z</time>
      </trkpt>
      <trkpt lat="40.230233" lon="-4.716717">
        <ele>2154.0</ele>
        <time>2018-09-16T13:59:40Z</time>
      </trkpt>
      <trkpt lat="40.230350" lon="-4.716650">
        <ele>2157.0</ele>
        <time>2018-09-16T13:59:41Z</time>
      </trkpt>
      <trkpt lat="40.230450" lon="-4.716617">
        <ele>2161.0</ele>
        <time>2018-09-16T13:59:42Z</time>
      </trkpt>
      <trkpt lat="40.230550" lon="-4.716567">
        <ele>2165.0</ele>
        <time>2018-09-16T13:59:43Z</time>
      </trkpt>
      <trkpt lat="40.230667" lon="-4.716533">
        <ele>2169.0</ele>
        <time>2018-09-16T13:59:44Z</time>
      </trkpt>
      <trkpt lat="40.230767" lon="-4.716500">
        <ele>2173.0</ele>
        <time>2018-09-16T13:59:45Z</time>
      </trkpt>
      <trkpt lat="40.230867" lon="-4.716467">
        <ele>2177.0</ele>
        <time>2018-09-16T13:59:46Z</time>
      </trkpt>
      <trkpt lat="40.230983" lon="-4.716450">
        <ele>2181.0</ele>
        <time>2018-09-16T13:59:47Z</time>
      </trkpt>
      <trkpt lat="40.231100" lon="-4.716433">
        <ele>2186.0</ele>
        <time>2018-09-16T13:59:48Z</time>
      </trkpt>
      <trkpt lat="40.231200" lon="-4.716417">
        <ele>2191.0</ele>
        <time>2018-09-16T13:59:49Z</time>
      </trkpt>
      <trkpt lat="40.231317" lon="-4.716383">
        <ele>2197.0</ele>
        <time>2018-09-16T13:59:50Z</time>
      </trkpt>
      <trkpt lat="40.231417" lon="-4.716350">
        <ele>2203.0</ele>
        <time>2018-09-16T13:59:51Z</time>
      </trkpt>
      <trkpt lat="40.231517" lon="-4.716333">
        <ele>2208.0</ele>
        <time>2018-09-16T13:59:52Z</time>
      </trkpt>
      <trkpt lat="40.231600" lon="-4.716350">
        <ele>2213.0</ele>
        <time>2018-09-16T13:59:53Z</time>
      </trkpt>
      <trkpt lat="40.231700" lon="-4.716400">
        <ele>2218.0</ele>
        <time>2018-09-16T13:59:54Z</time>
      </trkpt>
      <trkpt lat="40.231783" lon="-4.716500">
        <ele>2222.0</ele>
        <time>2018-09-16T13:59:55Z</time>
      </trkpt>
      <trkpt lat="40.231833" lon="-4.716617">
        <ele>2227.0</ele>
        <time>2018-09-16T13:59:56Z</time>
      </trkpt>
      <trkpt lat="40.231867" lon="-4.716733">
        <ele>2232.0</ele>
        <time>2018-09-16T13:59:57Z</time>
      </trkpt>
      <trkpt lat="40.231850" lon="-4.716850">
        <ele>2236.0</ele>
        <time>2018-09-16T13:59:58Z</time>
      </trkpt>
      <trkpt lat="40.231817" lon="-4.716950">
        <ele>2239.0</ele>
        <time>2018-09-16T13:59:59Z</time>
      </trkpt>
      <trkpt lat="40.231733" lon="-4.717017">
        <ele>2242.0</ele>
        <time>2018-09-16T14:00:00Z</time>
      </trkpt>
      <trkpt lat="40.231650" lon="-4.717033">
        <ele>2245.0</ele>
        <time>2018-09-16T14:00:01Z</time>
      </trkpt>
      <trkpt lat="40.231567" lon="-4.717017">
        <ele>2248.0</ele>
        <time>2018-09-16T14:00:02Z</time>
      </trkpt>
      <trkpt lat="40.231483" lon="-4.716950">
        <ele>2251.0</ele>
        <time>2018-09-16T14:00:03Z</time>
      </trkpt>
      <trkpt lat="40.231400" lon="-4.716850">
        <ele>2255.0</ele>
        <time>2018-09-16T14:00:04Z</time>
      </trkpt>
      <trkpt lat="40.231333" lon="-4.716767">
        <ele>2259.0</ele>
        <time>2018-09-16T14:00:05Z</time>
      </trkpt>
      <trkpt lat="40.231283" lon="-4.716683">
        <ele>2264.0</ele>
        <time>2018-09-16T14:00:06Z</time>
      </trkpt>
      <trkpt lat="40.231233" lon="-4.716583">
        <ele>2267.0</ele>
        <time>2018-09-16T14:00:07Z</time>
      </trkpt>
      <trkpt lat="40.231183" lon="-4.716483">
        <ele>2269.0</ele>
        <time>2018-09-16T14:00:08Z</time>
      </trkpt>
      <trkpt lat="40.231133" lon="-4.716367">
        <ele>2271.0</ele>
        <time>2018-09-16T14:00:09Z</time>
      </trkpt>
      <trkpt lat="40.231083" lon="-4.716217">
        <ele>2275.0</ele>
        <time>2018-09-16T14:00:10Z</time>
      </trkpt>
      <trkpt lat="40.231050" lon="-4.716067">
        <ele>2280.0</ele>
        <time>2018-09-16T14:00:11Z</time>
      </trkpt>
      <trkpt lat="40.231033" lon="-4.715933">
        <ele>2285.0</ele>
        <time>2018-09-16T14:00:12Z</time>
      </trkpt>
      <trkpt lat="40.231017" lon="-4.715800">
        <ele>2290.0</ele>
        <time>2018-09-16T14:00:13Z</time>
      </trkpt>
      <trkpt lat="40.231017" lon="-4.715683">
        <ele>2294.0</ele>
        <time>2018-09-16T14:00:14Z</time>
      </trkpt>
      <trkpt lat="40.231000" lon="-4.715533">
        <ele>2299.0</ele>
        <time>2018-09-16T14:00:15Z</time>
      </trkpt>
      <trkpt lat="40.230983" lon="-4.715400">
        <ele>2303.0</ele>
        <time>2018-09-16T14:00:16Z</time>
      </trkpt>
      <trkpt lat="40.230983" lon="-4.715267">
        <ele>2308.0</ele>
        <time>2018-09-16T14:00:17Z</time>
      </trkpt>
      <trkpt lat="40.230950" lon="-4.715133">
        <ele>2313.0</ele>
        <time>2018-09-16T14:00:18Z</time>
      </trkpt>
      <trkpt lat="40.230933" lon="-4.715000">
        <ele>2317.0</ele>
        <time>2018-09-16T14:00:19Z</time>
      </trkpt>
      <trkpt lat="40.230917" lon="-4.714850">
        <ele>2322.0</ele>
        <time>2018-09-16T14:00:20Z</time>
      </trkpt>
      <trkpt lat="40.230900" lon="-4.714700">
        <ele>2326.0</ele>
        <time>2018-09-16T14:00:21Z</time>
      </trkpt>
      <trkpt lat="40.230900" lon="-4.714550">
        <ele>2332.0</ele>
        <time>2018-09-16T14:00:22Z</time>
      </trkpt>
      <trkpt lat="40.230883" lon="-4.714400">
        <ele>2338.0</ele>
        <time>2018-09-16T14:00:23Z</time>
      </trkpt>
      <trkpt lat="40.230883" lon="-4.714250">
        <ele>2344.0</ele>
        <time>2018-09-16T14:00:24Z</time>
      </trkpt>
      <trkpt lat="40.230883" lon="-4.714100">
        <ele>2350.0</ele>
        <time>2018-09-16T14:00:25Z</time>
      </trkpt>
      <trkpt lat="40.230883" lon="-4.713967">
        <ele>2356.0</ele>
        <time>2018-09-16T14:00:26Z</time>
      </trkpt>
      <trkpt lat="40.230900" lon="-4.713850">
        <ele>2362.0</ele>
        <time>2018-09-16T14:00:27Z</time>
      </trkpt>
      <trkpt lat="40.230900" lon="-4.713767">
        <ele>2366.0</ele>
        <time>2018-09-16T14:00:28Z</time>
      </trkpt>
      <trkpt lat="40.230917" lon="-4.713667">
        <ele>2368.0</ele>
        <time>2018-09-16T14:00:29Z</time>
      </trkpt>
      <trkpt lat="40.230917" lon="-4.713567">
        <ele>2368.0</ele>
        <time>2018-09-16T14:00:30Z</time>
      </trkpt>
      <trkpt lat="40.230917" lon="-4.713433">
        <ele>2367.0</ele>
        <time>2018-09-16T14:00:31Z</time>
      </trkpt>
      <trkpt lat="40.230917" lon="-4.713283">
        <ele>2368.0</ele>
        <time>2018-09-16T14:00:32Z</time>
      </trkpt>
      <trkpt lat="40.230917" lon="-4.713133">
        <ele>2371.0</ele>
        <time>2018-09-16T14:00:33Z</time>
      </trkpt>
      <trkpt lat="40.230917" lon="-4.713017">
        <ele>2375.0</ele>
        <time>2018-09-16T14:00:34Z</time>
      </trkpt>
      <trkpt lat="40.230950" lon="-4.712900">
        <ele>2379.0</ele>
        <time>2018-09-16T14:00:35Z</time>
      </trkpt>
      <trkpt lat="40.230967" lon="-4.712817">
        <ele>2380.0</ele>
        <time>2018-09-16T14:00:36Z</time>
      </trkpt>
      <trkpt lat="40.230967" lon="-4.712717">
        <ele>2381.0</ele>
        <time>2018-09-16T14:00:37Z</time>
      </trkpt>
      <trkpt lat="40.230983" lon="-4.712633">
        <ele>2380.0</ele>
        <time>2018-09-16T14:00:38Z</time>
      </trkpt>
      <trkpt lat="40.230967" lon="-4.712517">
        <ele>2379.0</ele>
        <time>2018-09-16T14:00:39Z</time>
      </trkpt>
      <trkpt lat="40.230933" lon="-4.712400">
        <ele>2378.0</ele>
        <time>2018-09-16T14:00:40Z</time>
      </trkpt>
      <trkpt lat="40.230900" lon="-4.712300">
        <ele>2379.0</ele>
        <time>2018-09-16T14:00:41Z</time>
      </trkpt>
      <trkpt lat="40.230867" lon="-4.712217">
        <ele>2379.0</ele>
        <time>2018-09-16T14:00:42Z</time>
      </trkpt>
      <trkpt lat="40.230817" lon="-4.712133">
        <ele>2380.0</ele>
        <time>2018-09-16T14:00:43Z</time>
      </trkpt>
      <trkpt lat="40.230767" lon="-4.712067">
        <ele>2380.0</ele>
        <time>2018-09-16T14:00:44Z</time>
      </trkpt>
      <trkpt lat="40.230733" lon="-4.712000">
        <ele>2381.0</ele>
        <time>2018-09-16T14:00:45Z</time>
      </trkpt>
      <trkpt lat="40.230717" lon="-4.711933">
        <ele>2380.0</ele>
        <time>2018-09-16T14:00:46Z</time>
      </trkpt>
      <trkpt lat="40.230700" lon="-4.711867">
        <ele>2378.0</ele>
        <time>2018-09-16T14:00:47Z</time>
      </trkpt>
      <trkpt lat="40.230683" lon="-4.711783">
        <ele>2375.0</ele>
        <time>2018-09-16T14:00:48Z</time>
      </trkpt>
      <trkpt lat="40.230683" lon="-4.711667">
        <ele>2372.0</ele>
        <time>2018-09-16T14:00:49Z</time>
      </trkpt>
      <trkpt lat="40.230700" lon="-4.711533">
        <ele>2370.0</ele>
        <time>2018-09-16T14:00:50Z</time>
      </trkpt>
      <trkpt lat="40.230717" lon="-4.711383">
        <ele>2369.0</ele>
        <time>2018-09-16T14:00:51Z</time>
      </trkpt>
      <trkpt lat="40.230717" lon="-4.711233">
        <ele>2369.0</ele>
        <time>2018-09-16T14:00:52Z</time>
      </trkpt>
      <trkpt lat="40.230700" lon="-4.711117">
        <ele>2369.0</ele>
        <time>2018-09-16T14:00:53Z</time>
      </trkpt>
      <trkpt lat="40.230667" lon="-4.711017">
        <ele>2369.0</ele>
        <time>2018-09-16T14:00:54Z</time>
      </trkpt>
      <trkpt lat="40.230633" lon="-4.710950">
        <ele>2367.0</ele>
        <time>2018-09-16T14:00:55Z</time>
      </trkpt>
      <trkpt lat="40.230617" lon="-4.710867">
        <ele>2365.0</ele>
        <time>2018-09-16T14:00:56Z</time>
      </trkpt>
      <trkpt lat="40.230583" lon="-4.710750">
        <ele>2362.0</ele>
        <time>2018-09-16T14:00:57Z</time>
      </trkpt>
      <trkpt lat="40.230567" lon="-4.710617">
        <ele>2358.0</ele>
        <time>2018-09-16T14:00:58Z</time>
      </trkpt>
      <trkpt lat="40.230550" lon="-4.710467">
        <ele>2356.0</ele>
        <time>2018-09-16T14:00:59Z</time>
      </trkpt>
      <trkpt lat="40.230517" lon="-4.710350">
        <ele>2354.0</ele>
        <time>2018-09-16T14:01:00Z</time>
      </trkpt>
      <trkpt lat="40.230500" lon="-4.710233">
        <ele>2353.0</ele>
        <time>2018-09-16T14:01:01Z</time>
      </trkpt>
      <trkpt lat="40.230483" lon="-4.710100">
        <ele>2351.0</ele>
        <time>2018-09-16T14:01:02Z</time>
      </trkpt>
      <trkpt lat="40.230483" lon="-4.709967">
        <ele>2349.0</ele>
        <time>2018-09-16T14:01:03Z</time>
      </trkpt>
      <trkpt lat="40.230483" lon="-4.709833">
        <ele>2347.0</ele>
        <time>2018-09-16T14:01:04Z</time>
      </trkpt>
      <trkpt lat="40.230500" lon="-4.709700">
        <ele>2346.0</ele>
        <time>2018-09-16T14:01:05Z</time>
      </trkpt>
      <trkpt lat="40.230500" lon="-4.709550">
        <ele>2344.0</ele>
        <time>2018-09-16T14:01:06Z</time>
      </trkpt>
      <trkpt lat="40.230517" lon="-4.709417">
        <ele>2343.0</ele>
        <time>2018-09-16T14:01:07Z</time>
      </trkpt>
      <trkpt lat="40.230517" lon="-4.709300">
        <ele>2341.0</ele>
        <time>2018-09-16T14:01:08Z</time>
      </trkpt>
      <trkpt lat="40.230517" lon="-4.709167">
        <ele>2339.0</ele>
        <time>2018-09-16T14:01:09Z</time>
      </trkpt>
      <trkpt lat="40.230500" lon="-4.709050">
        <ele>2336.0</ele>
        <time>2018-09-16T14:01:10Z</time>
      </trkpt>
      <trkpt lat="40.230500" lon="-4.708900">
        <ele>2333.0</ele>
        <time>2018-09-16T14:01:11Z</time>
      </trkpt>
      <trkpt lat="40.230500" lon="-4.708750">
        <ele>2332.0</ele>
        <time>2018-09-16T14:01:12Z</time>
      </trkpt>
      <trkpt lat="40.230500" lon="-4.708600">
        <ele>2332.0</ele>
        <time>2018-09-16T14:01:13Z</time>
      </trkpt>
      <trkpt lat="40.230517" lon="-4.708467">
        <ele>2332.0</ele>
        <time>2018-09-16T14:01:14Z</time>
      </trkpt>
      <trkpt lat="40.230533" lon="-4.708317">
        <ele>2332.0</ele>
        <time>2018-09-16T14:01:15Z</time>
      </trkpt>
      <trkpt lat="40.230550" lon="-4.708183">
        <ele>2332.0</ele>
        <time>2018-09-16T14:01:16Z</time>
      </trkpt>
      <trkpt lat="40.230567" lon="-4.708050">
        <ele>2332.0</ele>
        <time>2018-09-16T14:01:17Z</time>
      </trkpt>
      <trkpt lat="40.230567" lon="-4.707900">
        <ele>2331.0</ele>
        <time>2018-09-16T14:01:18Z</time>
      </trkpt>
      <trkpt lat="40.230567" lon="-4.707767">
        <ele>2330.0</ele>
        <time>2018-09-16T14:01:19Z</time>
      </trkpt>
      <trkpt lat="40.230583" lon="-4.707600">
        <ele>2329.0</ele>
        <time>2018-09-16T14:01:20Z</time>
      </trkpt>
      <trkpt lat="40.230600" lon="-4.707450">
        <ele>2329.0</ele>
        <time>2018-09-16T14:01:21Z</time>
      </trkpt>
      <trkpt lat="40.230617" lon="-4.707283">
        <ele>2329.0</ele>
        <time>2018-09-16T14:01:22Z</time>
      </trkpt>
      <trkpt lat="40.230633" lon="-4.707133">
        <ele>2330.0</ele>
        <time>2018-09-16T14:01:23Z</time>
      </trkpt>
      <trkpt lat="40.230650" lon="-4.706983">
        <ele>2331.0</ele>
        <time>2018-09-16T14:01:24Z</time>
      </trkpt>
      <trkpt lat="40.230667" lon="-4.706833">
        <ele>2332.0</ele>
        <time>2018-09-16T14:01:25Z</time>
      </trkpt>
      <trkpt lat="40.230700" lon="-4.706700">
        <ele>2332.0</ele>
        <time>2018-09-16T14:01:26Z</time>
      </trkpt>
      <trkpt lat="40.230717" lon="-4.706550">
        <ele>2331.0</ele>
        <time>2018-09-16T14:01:27Z</time>
      </trkpt>
      <trkpt lat="40.230733" lon="-4.706400">
        <ele>2330.0</ele>
        <time>2018-09-16T14:01:28Z</time>
      </trkpt>
      <trkpt lat="40.230750" lon="-4.706233">
        <ele>2329.0</ele>
        <time>2018-09-16T14:01:29Z</time>
      </trkpt>
      <trkpt lat="40.230783" lon="-4.706050">
        <ele>2329.0</ele>
        <time>2018-09-16T14:01:30Z</time>
      </trkpt>
      <trkpt lat="40.230800" lon="-4.705900">
        <ele>2330.0</ele>
        <time>2018-09-16T14:01:31Z</time>
      </trkpt>
      <trkpt lat="40.230817" lon="-4.705750">
        <ele>2331.0</ele>
        <time>2018-09-16T14:01:32Z</time>
      </trkpt>
      <trkpt lat="40.230817" lon="-4.705617">
        <ele>2331.0</ele>
        <time>2018-09-16T14:01:33Z</time>
      </trkpt>
      <trkpt lat="40.230833" lon="-4.705483">
        <ele>2331.0</ele>
        <time>2018-09-16T14:01:34Z</time>
      </trkpt>
      <trkpt lat="40.230833" lon="-4.705350">
        <ele>2331.0</ele>
        <time>2018-09-16T14:01:35Z</time>
      </trkpt>
      <trkpt lat="40.230850" lon="-4.705217">
        <ele>2331.0</ele>
        <time>2018-09-16T14:01:36Z</time>
      </trkpt>
      <trkpt lat="40.230833" lon="-4.705067">
        <ele>2330.0</ele>
        <time>2018-09-16T14:01:37Z</time>
      </trkpt>
      <trkpt lat="40.230833" lon="-4.704933">
        <ele>2330.0</ele>
        <time>2018-09-16T14:01:38Z</time>
      </trkpt>
      <trkpt lat="40.230817" lon="-4.704817">
        <ele>2330.0</ele>
        <time>2018-09-16T14:01:39Z</time>
      </trkpt>
      <trkpt lat="40.230833" lon="-4.704700">
        <ele>2330.0</ele>
        <time>2018-09-16T14:01:40Z</time>
      </trkpt>
      <trkpt lat="40.230833" lon="-4.704583">
        <ele>2328.0</ele>
        <time>2018-09-16T14:01:41Z</time>
      </trkpt>
      <trkpt lat="40.230850" lon="-4.704467">
        <ele>2326.0</ele>
        <time>2018-09-16T14:01:42Z</time>
      </trkpt>
      <trkpt lat="40.230850" lon="-4.704333">
        <ele>2323.0</ele>
        <time>2018-09-16T14:01:43Z</time>
      </trkpt>
      <trkpt lat="40.230850" lon="-4.704200">
        <ele>2318.0</ele>
        <time>2018-09-16T14:01:44Z</time>
      </trkpt>
      <trkpt lat="40.230833" lon="-4.704067">
        <ele>2315.0</ele>
        <time>2018-09-16T14:01:45Z</time>
      </trkpt>
      <trkpt lat="40.230833" lon="-4.703917">
        <ele>2312.0</ele>
        <time>2018-09-16T14:01:46Z</time>
      </trkpt>
      <trkpt lat="40.230817" lon="-4.703783">
        <ele>2311.0</ele>
        <time>2018-09-16T14:01:47Z</time>
      </trkpt>
      <trkpt lat="40.230817" lon="-4.703667">
        <ele>2309.0</ele>
        <time>2018-09-16T14:01:48Z</time>
      </trkpt>
      <trkpt lat="40.230817" lon="-4.703550">
        <ele>2307.0</ele>
        <time>2018-09-16T14:01:49Z</time>
      </trkpt>
      <trkpt lat="40.230800" lon="-4.703417">
        <ele>2303.0</ele>
        <time>2018-09-16T14:01:50Z</time>
      </trkpt>
      <trkpt lat="40.230800" lon="-4.703283">
        <ele>2299.0</ele>
        <time>2018-09-16T14:01:51Z</time>
      </trkpt>
      <trkpt lat="40.230783" lon="-4.703133">
        <ele>2296.0</ele>
        <time>2018-09-16T14:01:52Z</time>
      </trkpt>
      <trkpt lat="40.230783" lon="-4.703000">
        <ele>2294.0</ele>
        <time>2018-09-16T14:01:53Z</time>
      </trkpt>
      <trkpt lat="40.230767" lon="-4.702850">
        <ele>2292.0</ele>
        <time>2018-09-16T14:01:54Z</time>
      </trkpt>
      <trkpt lat="40.230767" lon="-4.702733">
        <ele>2291.0</ele>
        <time>2018-09-16T14:01:55Z</time>
      </trkpt>
      <trkpt lat="40.230750" lon="-4.702600">
        <ele>2288.0</ele>
        <time>2018-09-16T14:01:56Z</time>
      </trkpt>
      <trkpt lat="40.230750" lon="-4.702467">
        <ele>2285.0</ele>
        <time>2018-09-16T14:01:57Z</time>
      </trkpt>
      <trkpt lat="40.230733" lon="-4.702317">
        <ele>2282.0</ele>
        <time>2018-09-16T14:01:58Z</time>
      </trkpt>
      <trkpt lat="40.230717" lon="-4.702183">
        <ele>2280.0</ele>
        <time>2018-09-16T14:01:59Z</time>
      </trkpt>
      <trkpt lat="40.230700" lon="-4.702033">
        <ele>2278.0</ele>
        <time>2018-09-16T14:02:00Z</time>
      </trkpt>
      <trkpt lat="40.230683" lon="-4.701883">
        <ele>2275.0</ele>
        <time>2018-09-16T14:02:01Z</time>
      </trkpt>
      <trkpt lat="40.230683" lon="-4.701733">
        <ele>2273.0</ele>
        <time>2018-09-16T14:02:02Z</time>
      </trkpt>
      <trkpt lat="40.230667" lon="-4.701600">
        <ele>2271.0</ele>
        <time>2018-09-16T14:02:03Z</time>
      </trkpt>
      <trkpt lat="40.230667" lon="-4.701467">
        <ele>2269.0</ele>
        <time>2018-09-16T14:02:04Z</time>
      </trkpt>
      <trkpt lat="40.230650" lon="-4.701333">
        <ele>2266.0</ele>
        <time>2018-09-16T14:02:05Z</time>
      </trkpt>
      <trkpt lat="40.230650" lon="-4.701200">
        <ele>2262.0</ele>
        <time>2018-09-16T14:02:06Z</time>
      </trkpt>
      <trkpt lat="40.230633" lon="-4.701050">
        <ele>2259.0</ele>
        <time>2018-09-16T14:02:07Z</time>
      </trkpt>
      <trkpt lat="40.230617" lon="-4.700900">
        <ele>2256.0</ele>
        <time>2018-09-16T14:02:08Z</time>
      </trkpt>
      <trkpt lat="40.230617" lon="-4.700750">
        <ele>2253.0</ele>
        <time>2018-09-16T14:02:09Z</time>
      </trkpt>
      <trkpt lat="40.230617" lon="-4.700600">
        <ele>2251.0</ele>
        <time>2018-09-16T14:02:10Z</time>
      </trkpt>
      <trkpt lat="40.230617" lon="-4.700450">
        <ele>2248.0</ele>
        <time>2018-09-16T14:02:11Z</time>
      </trkpt>
      <trkpt lat="40.230617" lon="-4.700300">
        <ele>2245.0</ele>
        <time>2018-09-16T14:02:12Z</time>
      </trkpt>
      <trkpt lat="40.230617" lon="-4.700133">
        <ele>2243.0</ele>
        <time>2018-09-16T14:02:13Z</time>
      </trkpt>
      <trkpt lat="40.230617" lon="-4.699967">
        <ele>2240.0</ele>
        <time>2018-09-16T14:02:14Z</time>
      </trkpt>
      <trkpt lat="40.230633" lon="-4.699817">
        <ele>2239.0</ele>
        <time>2018-09-16T14:02:15Z</time>
      </trkpt>
      <trkpt lat="40.230633" lon="-4.699650">
        <ele>2237.0</ele>
        <time>2018-09-16T14:02:16Z</time>
      </trkpt>
      <trkpt lat="40.230633" lon="-4.699500">
        <ele>2235.0</ele>
        <time>2018-09-16T14:02:17Z</time>
      </trkpt>
      <trkpt lat="40.230633" lon="-4.699350">
        <ele>2233.0</ele>
        <time>2018-09-16T14:02:18Z</time>
      </trkpt>
      <trkpt lat="40.230650" lon="-4.699200">
        <ele>2231.0</ele>
        <time>2018-09-16T14:02:19Z</time>
      </trkpt>
      <trkpt lat="40.230667" lon="-4.699033">
        <ele>2229.0</ele>
        <time>2018-09-16T14:02:20Z</time>
      </trkpt>
      <trkpt lat="40.230700" lon="-4.698883">
        <ele>2226.0</ele>
        <time>2018-09-16T14:02:21Z</time>
      </trkpt>
      <trkpt lat="40.230717" lon="-4.698733">
        <ele>2225.0</ele>
        <time>2018-09-16T14:02:22Z</time>
      </trkpt>
      <trkpt lat="40.230733" lon="-4.698583">
        <ele>2223.0</ele>
        <time>2018-09-16T14:02:23Z</time>
      </trkpt>
      <trkpt lat="40.230733" lon="-4.698450">
        <ele>2222.0</ele>
        <time>2018-09-16T14:02:24Z</time>
      </trkpt>
      <trkpt lat="40.230733" lon="-4.698317">
        <ele>2221.0</ele>
        <time>2018-09-16T14:02:25Z</time>
      </trkpt>
      <trkpt lat="40.230750" lon="-4.698183">
        <ele>2218.0</ele>
        <time>2018-09-16T14:02:26Z</time>
      </trkpt>
      <trkpt lat="40.230767" lon="-4.698033">
        <ele>2216.0</ele>
        <time>2018-09-16T14:02:27Z</time>
      </trkpt>
      <trkpt lat="40.230767" lon="-4.697883">
        <ele>2213.0</ele>
        <time>2018-09-16T14:02:28Z</time>
      </trkpt>
      <trkpt lat="40.230767" lon="-4.697733">
        <ele>2211.0</ele>
        <time>2018-09-16T14:02:29Z</time>
      </trkpt>
      <trkpt lat="40.230767" lon="-4.697583">
        <ele>2210.0</ele>
        <time>2018-09-16T14:02:30Z</time>
      </trkpt>
      <trkpt lat="40.230767" lon="-4.697433">
        <ele>2208.0</ele>
        <time>2018-09-16T14:02:31Z</time>
      </trkpt>
      <trkpt lat="40.230783" lon="-4.697300">
        <ele>2205.0</ele>
        <time>2018-09-16T14:02:32Z</time>
      </trkpt>
      <trkpt lat="40.230783" lon="-4.697150">
        <ele>2202.0</ele>
        <time>2018-09-16T14:02:33Z</time>
      </trkpt>
      <trkpt lat="40.230800" lon="-4.697000">
        <ele>2199.0</ele>
        <time>2018-09-16T14:02:34Z</time>
      </trkpt>
      <trkpt lat="40.230800" lon="-4.696850">
        <ele>2196.0</ele>
        <time>2018-09-16T14:02:35Z</time>
      </trkpt>
      <trkpt lat="40.230800" lon="-4.696683">
        <ele>2194.0</ele>
        <time>2018-09-16T14:02:36Z</time>
      </trkpt>
      <trkpt lat="40.230800" lon="-4.696533">
        <ele>2192.0</ele>
        <time>2018-09-16T14:02:37Z</time>
      </trkpt>
      <trkpt lat="40.230800" lon="-4.696400">
        <ele>2190.0</ele>
        <time>2018-09-16T14:02:38Z</time>
      </trkpt>
      <trkpt lat="40.230817" lon="-4.696267">
        <ele>2188.0</ele>
        <time>2018-09-16T14:02:39Z</time>
      </trkpt>
      <trkpt lat="40.230833" lon="-4.696133">
        <ele>2185.0</ele>
        <time>2018-09-16T14:02:40Z</time>
      </trkpt>
      <trkpt lat="40.230850" lon="-4.695983">
        <ele>2183.0</ele>
        <time>2018-09-16T14:02:41Z</time>
      </trkpt>
      <trkpt lat="40.230867" lon="-4.695850">
        <ele>2180.0</ele>
        <time>2018-09-16T14:02:42Z</time>
      </trkpt>
      <trkpt lat="40.230883" lon="-4.695700">
        <ele>2177.0</ele>
        <time>2018-09-16T14:02:43Z</time>
      </trkpt>
      <trkpt lat="40.230900" lon="-4.695550">
        <ele>2175.0</ele>
        <time>2018-09-16T14:02:44Z</time>
      </trkpt>
      <trkpt lat="40.230917" lon="-4.695400">
        <ele>2172.0</ele>
        <time>2018-09-16T14:02:45Z</time>
      </trkpt>
      <trkpt lat="40.230917" lon="-4.695250">
        <ele>2170.0</ele>
        <time>2018-09-16T14:02:46Z</time>
      </trkpt>
      <trkpt lat="40.230917" lon="-4.695100">
        <ele>2168.0</ele>
        <time>2018-09-16T14:02:47Z</time>
      </trkpt>
      <trkpt lat="40.230917" lon="-4.694950">
        <ele>2166.0</ele>
        <time>2018-09-16T14:02:48Z</time>
      </trkpt>
      <trkpt lat="40.230917" lon="-4.694800">
        <ele>2164.0</ele>
        <time>2018-09-16T14:02:49Z</time>
      </trkpt>
      <trkpt lat="40.230917" lon="-4.694667">
        <ele>2162.0</ele>
        <time>2018-09-16T14:02:50Z</time>
      </trkpt>
      <trkpt lat="40.230900" lon="-4.694517">
        <ele>2160.0</ele>
        <time>2018-09-16T14:02:51Z</time>
      </trkpt>
      <trkpt lat="40.230883" lon="-4.694367">
        <ele>2158.0</ele>
        <time>2018-09-16T14:02:52Z</time>
      </trkpt>
      <trkpt lat="40.230867" lon="-4.694217">
        <ele>2156.0</ele>
        <time>2018-09-16T14:02:53Z</time>
      </trkpt>
      <trkpt lat="40.230850" lon="-4.694067">
        <ele>2154.0</ele>
        <time>2018-09-16T14:02:54Z</time>
      </trkpt>
      <trkpt lat="40.230833" lon="-4.693917">
        <ele>2152.0</ele>
        <time>2018-09-16T14:02:55Z</time>
      </trkpt>
      <trkpt lat="40.230817" lon="-4.693767">
        <ele>2150.0</ele>
        <time>2018-09-16T14:02:56Z</time>
      </trkpt>
      <trkpt lat="40.230817" lon="-4.693617">
        <ele>2148.0</ele>
        <time>2018-09-16T14:02:57Z</time>
      </trkpt>
      <trkpt lat="40.230783" lon="-4.693467">
        <ele>2146.0</ele>
        <time>2018-09-16T14:02:58Z</time>
      </trkpt>
      <trkpt lat="40.230767" lon="-4.693317">
        <ele>2144.0</ele>
        <time>2018-09-16T14:02:59Z</time>
      </trkpt>
      <trkpt lat="40.230750" lon="-4.693167">
        <ele>2143.0</ele>
        <time>2018-09-16T14:03:00Z</time>
      </trkpt>
      <trkpt lat="40.230733" lon="-4.693033">
        <ele>2142.0</ele>
        <time>2018-09-16T14:03:01Z</time>
      </trkpt>
      <trkpt lat="40.230717" lon="-4.692900">
        <ele>2141.0</ele>
        <time>2018-09-16T14:03:02Z</time>
      </trkpt>
      <trkpt lat="40.230700" lon="-4.692767">
        <ele>2140.0</ele>
        <time>2018-09-16T14:03:03Z</time>
      </trkpt>
      <trkpt lat="40.230683" lon="-4.692633">
        <ele>2137.0</ele>
        <time>2018-09-16T14:03:04Z</time>
      </trkpt>
      <trkpt lat="40.230650" lon="-4.692483">
        <ele>2135.0</ele>
        <time>2018-09-16T14:03:05Z</time>
      </trkpt>
      <trkpt lat="40.230650" lon="-4.692317">
        <ele>2133.0</ele>
        <time>2018-09-16T14:03:06Z</time>
      </trkpt>
      <trkpt lat="40.230633" lon="-4.692167">
        <ele>2132.0</ele>
        <time>2018-09-16T14:03:07Z</time>
      </trkpt>
      <trkpt lat="40.230633" lon="-4.692017">
        <ele>2132.0</ele>
        <time>2018-09-16T14:03:08Z</time>
      </trkpt>
      <trkpt lat="40.230633" lon="-4.691867">
        <ele>2131.0</ele>
        <time>2018-09-16T14:03:09Z</time>
      </trkpt>
      <trkpt lat="40.230633" lon="-4.691717">
        <ele>2130.0</ele>
        <time>2018-09-16T14:03:10Z</time>
      </trkpt>
      <trkpt lat="40.230633" lon="-4.691583">
        <ele>2129.0</ele>
        <time>2018-09-16T14:03:11Z</time>
      </trkpt>
      <trkpt lat="40.230650" lon="-4.691433">
        <ele>2127.0</ele>
        <time>2018-09-16T14:03:12Z</time>
      </trkpt>
      <trkpt lat="40.230650" lon="-4.691283">
        <ele>2125.0</ele>
        <time>2018-09-16T14:03:13Z</time>
      </trkpt>
      <trkpt lat="40.230667" lon="-4.691133">
        <ele>2123.0</ele>
        <time>2018-09-16T14:03:14Z</time>
      </trkpt>
      <trkpt lat="40.230683" lon="-4.690967">
        <ele>2121.0</ele>
        <time>2018-09-16T14:03:15Z</time>
      </trkpt>
      <trkpt lat="40.230700" lon="-4.690817">
        <ele>2120.0</ele>
        <time>2018-09-16T14:03:16Z</time>
      </trkpt>
      <trkpt lat="40.230717" lon="-4.690650">
        <ele>2119.0</ele>
        <time>2018-09-16T14:03:17Z</time>
      </trkpt>
      <trkpt lat="40.230733" lon="-4.690500">
        <ele>2118.0</ele>
        <time>2018-09-16T14:03:18Z</time>
      </trkpt>
      <trkpt lat="40.230750" lon="-4.690367">
        <ele>2117.0</ele>
        <time>2018-09-16T14:03:19Z</time>
      </trkpt>
      <trkpt lat="40.230750" lon="-4.690217">
        <ele>2117.0</ele>
        <time>2018-09-16T14:03:20Z</time>
      </trkpt>
      <trkpt lat="40.230767" lon="-4.690083">
        <ele>2116.0</ele>
        <time>2018-09-16T14:03:21Z</time>
      </trkpt>
      <trkpt lat="40.230767" lon="-4.689950">
        <ele>2115.0</ele>
        <time>2018-09-16T14:03:22Z</time>
      </trkpt>
      <trkpt lat="40.230783" lon="-4.689817">
        <ele>2114.0</ele>
        <time>2018-09-16T14:03:23Z</time>
      </trkpt>
      <trkpt lat="40.230783" lon="-4.689700">
        <ele>2112.0</ele>
        <time>2018-09-16T14:03:24Z</time>
      </trkpt>
      <trkpt lat="40.230783" lon="-4.689550">
        <ele>2110.0</ele>
        <time>2018-09-16T14:03:25Z</time>
      </trkpt>
      <trkpt lat="40.230783" lon="-4.689417">
        <ele>2108.0</ele>
        <time>2018-09-16T14:03:26Z</time>
      </trkpt>
      <trkpt lat="40.230783" lon="-4.689267">
        <ele>2107.0</ele>
        <time>2018-09-16T14:03:27Z</time>
      </trkpt>
      <trkpt lat="40.230783" lon="-4.689133">
        <ele>2106.0</ele>
        <time>2018-09-16T14:03:28Z</time>
      </trkpt>
      <trkpt lat="40.230783" lon="-4.689000">
        <ele>2106.0</ele>
        <time>2018-09-16T14:03:29Z</time>
      </trkpt>
      <trkpt lat="40.230783" lon="-4.688883">
        <ele>2105.0</ele>
        <time>2018-09-16T14:03:30Z</time>
      </trkpt>
      <trkpt lat="40.230783" lon="-4.688750">
        <ele>2103.0</ele>
        <time>2018-09-16T14:03:31Z</time>
      </trkpt>
      <trkpt lat="40.230783" lon="-4.688617">
        <ele>2100.0</ele>
        <time>2018-09-16T14:03:32Z</time>
      </trkpt>
      <trkpt lat="40.230783" lon="-4.688483">
        <ele>2098.0</ele>
        <time>2018-09-16T14:03:33Z</time>
      </trkpt>
      <trkpt lat="40.230783" lon="-4.688333">
        <ele>2096.0</ele>
        <time>2018-09-16T14:03:34Z</time>
      </trkpt>
      <trkpt lat="40.230783" lon="-4.688183">
        <ele>2095.0</ele>
        <time>2018-09-16T14:03:35Z</time>
      </trkpt>
      <trkpt lat="40.230800" lon="-4.688050">
        <ele>2094.0</ele>
        <time>2018-09-16T14:03:36Z</time>
      </trkpt>
      <trkpt lat="40.230800" lon="-4.687917">
        <ele>2093.0</ele>
        <time>2018-09-16T14:03:37Z</time>
      </trkpt>
      <trkpt lat="40.230817" lon="-4.687783">
        <ele>2092.0</ele>
        <time>2018-09-16T14:03:38Z</time>
      </trkpt>
      <trkpt lat="40.230833" lon="-4.687633">
        <ele>2091.0</ele>
        <time>2018-09-16T14:03:39Z</time>
      </trkpt>
      <trkpt lat="40.230833" lon="-4.687500">
        <ele>2090.0</ele>
        <time>2018-09-16T14:03:40Z</time>
      </trkpt>
      <trkpt lat="40.230850" lon="-4.687350">
        <ele>2090.0</ele>
        <time>2018-09-16T14:03:41Z</time>
      </trkpt>
      <trkpt lat="40.230850" lon="-4.687200">
        <ele>2092.0</ele>
        <time>2018-09-16T14:03:42Z</time>
      </trkpt>
      <trkpt lat="40.230850" lon="-4.687083">
        <ele>2095.0</ele>
        <time>2018-09-16T14:03:43Z</time>
      </trkpt>
      <trkpt lat="40.230867" lon="-4.686967">
        <ele>2097.0</ele>
        <time>2018-09-16T14:03:44Z</time>
      </trkpt>
      <trkpt lat="40.230867" lon="-4.686883">
        <ele>2098.0</ele>
        <time>2018-09-16T14:03:45Z</time>
      </trkpt>
      <trkpt lat="40.230883" lon="-4.686783">
        <ele>2098.0</ele>
        <time>2018-09-16T14:03:46Z</time>
      </trkpt>
      <trkpt lat="40.230900" lon="-4.686683">
        <ele>2097.0</ele>
        <time>2018-09-16T14:03:47Z</time>
      </trkpt>
      <trkpt lat="40.230917" lon="-4.686567">
        <ele>2096.0</ele>
        <time>2018-09-16T14:03:48Z</time>
      </trkpt>
      <trkpt lat="40.230950" lon="-4.686450">
        <ele>2095.0</ele>
        <time>2018-09-16T14:03:49Z</time>
      </trkpt>
      <trkpt lat="40.230967" lon="-4.686333">
        <ele>2094.0</ele>
        <time>2018-09-16T14:03:50Z</time>
      </trkpt>
      <trkpt lat="40.230983" lon="-4.686217">
        <ele>2094.0</ele>
        <time>2018-09-16T14:03:51Z</time>
      </trkpt>
      <trkpt lat="40.230983" lon="-4.686117">
        <ele>2093.0</ele>
        <time>2018-09-16T14:03:52Z</time>
      </trkpt>
      <trkpt lat="40.231000" lon="-4.686000">
        <ele>2092.0</ele>
        <time>2018-09-16T14:03:53Z</time>
      </trkpt>
      <trkpt lat="40.231017" lon="-4.685867">
        <ele>2092.0</ele>
        <time>2018-09-16T14:03:54Z</time>
      </trkpt>
      <trkpt lat="40.231033" lon="-4.685750">
        <ele>2091.0</ele>
        <time>2018-09-16T14:03:55Z</time>
      </trkpt>
      <trkpt lat="40.231050" lon="-4.685633">
        <ele>2091.0</ele>
        <time>2018-09-16T14:03:56Z</time>
      </trkpt>
      <trkpt lat="40.231067" lon="-4.685517">
        <ele>2090.0</ele>
        <time>2018-09-16T14:03:57Z</time>
      </trkpt>
      <trkpt lat="40.231083" lon="-4.685400">
        <ele>2090.0</ele>
        <time>2018-09-16T14:03:58Z</time>
      </trkpt>
      <trkpt lat="40.231083" lon="-4.685283">
        <ele>2090.0</ele>
        <time>2018-09-16T14:03:59Z</time>
      </trkpt>
      <trkpt lat="40.231100" lon="-4.685167">
        <ele>2090.0</ele>
        <time>2018-09-16T14:04:00Z</time>
      </trkpt>
      <trkpt lat="40.231100" lon="-4.685033">
        <ele>2090.0</ele>
        <time>2018-09-16T14:04:01Z</time>
      </trkpt>
      <trkpt lat="40.231100" lon="-4.684917">
        <ele>2089.0</ele>
        <time>2018-09-16T14:04:02Z</time>
      </trkpt>
      <trkpt lat="40.231100" lon="-4.684800">
        <ele>2088.0</ele>
        <time>2018-09-16T14:04:03Z</time>
      </trkpt>
      <trkpt lat="40.231100" lon="-4.684683">
        <ele>2088.0</ele>
        <time>2018-09-16T14:04:04Z</time>
      </trkpt>
      <trkpt lat="40.231100" lon="-4.684567">
        <ele>2087.0</ele>
        <time>2018-09-16T14:04:05Z</time>
      </trkpt>
      <trkpt lat="40.231100" lon="-4.684433">
        <ele>2086.0</ele>
        <time>2018-09-16T14:04:06Z</time>
      </trkpt>
      <trkpt lat="40.231100" lon="-4.684317">
        <ele>2085.0</ele>
        <time>2018-09-16T14:04:07Z</time>
      </trkpt>
      <trkpt lat="40.231100" lon="-4.684200">
        <ele>2084.0</ele>
        <time>2018-09-16T14:04:08Z</time>
      </trkpt>
      <trkpt lat="40.231100" lon="-4.684083">
        <ele>2083.0</ele>
        <time>2018-09-16T14:04:09Z</time>
      </trkpt>
      <trkpt lat="40.231083" lon="-4.683950">
        <ele>2081.0</ele>
        <time>2018-09-16T14:04:10Z</time>
      </trkpt>
      <trkpt lat="40.231083" lon="-4.683833">
        <ele>2079.0</ele>
        <time>2018-09-16T14:04:11Z</time>
      </trkpt>
      <trkpt lat="40.231067" lon="-4.683700">
        <ele>2077.0</ele>
        <time>2018-09-16T14:04:12Z</time>
      </trkpt>
      <trkpt lat="40.231067" lon="-4.683567">
        <ele>2076.0</ele>
        <time>2018-09-16T14:04:13Z</time>
      </trkpt>
      <trkpt lat="40.231067" lon="-4.683433">
        <ele>2075.0</ele>
        <time>2018-09-16T14:04:14Z</time>
      </trkpt>
      <trkpt lat="40.231067" lon="-4.683300">
        <ele>2074.0</ele>
        <time>2018-09-16T14:04:15Z</time>
      </trkpt>
      <trkpt lat="40.231067" lon="-4.683183">
        <ele>2074.0</ele>
        <time>2018-09-16T14:04:16Z</time>
      </trkpt>
      <trkpt lat="40.231050" lon="-4.683067">
        <ele>2072.0</ele>
        <time>2018-09-16T14:04:17Z</time>
      </trkpt>
      <trkpt lat="40.231067" lon="-4.682933">
        <ele>2070.0</ele>
        <time>2018-09-16T14:04:18Z</time>
      </trkpt>
      <trkpt lat="40.231067" lon="-4.682800">
        <ele>2068.0</ele>
        <time>2018-09-16T14:04:19Z</time>
      </trkpt>
      <trkpt lat="40.231067" lon="-4.682667">
        <ele>2067.0</ele>
        <time>2018-09-16T14:04:20Z</time>
      </trkpt>
      <trkpt lat="40.231067" lon="-4.682517">
        <ele>2066.0</ele>
        <time>2018-09-16T14:04:21Z</time>
      </trkpt>
      <trkpt lat="40.231083" lon="-4.682383">
        <ele>2065.0</ele>
        <time>2018-09-16T14:04:22Z</time>
      </trkpt>
      <trkpt lat="40.231100" lon="-4.682250">
        <ele>2065.0</ele>
        <time>2018-09-16T14:04:23Z</time>
      </trkpt>
      <trkpt lat="40.231100" lon="-4.682133">
        <ele>2064.0</ele>
        <time>2018-09-16T14:04:24Z</time>
      </trkpt>
      <trkpt lat="40.231117" lon="-4.682000">
        <ele>2062.0</ele>
        <time>2018-09-16T14:04:25Z</time>
      </trkpt>
      <trkpt lat="40.231117" lon="-4.681867">
        <ele>2061.0</ele>
        <time>2018-09-16T14:04:26Z</time>
      </trkpt>
      <trkpt lat="40.231133" lon="-4.681733">
        <ele>2059.0</ele>
        <time>2018-09-16T14:04:27Z</time>
      </trkpt>
      <trkpt lat="40.231150" lon="-4.681600">
        <ele>2058.0</ele>
        <time>2018-09-16T14:04:28Z</time>
      </trkpt>
      <trkpt lat="40.231167" lon="-4.681467">
        <ele>2057.0</ele>
        <time>2018-09-16T14:04:29Z</time>
      </trkpt>
      <trkpt lat="40.231183" lon="-4.681350">
        <ele>2057.0</ele>
        <time>2018-09-16T14:04:30Z</time>
      </trkpt>
      <trkpt lat="40.231217" lon="-4.681233">
        <ele>2056.0</ele>
        <time>2018-09-16T14:04:31Z</time>
      </trkpt>
      <trkpt lat="40.231233" lon="-4.681100">
        <ele>2054.0</ele>
        <time>2018-09-16T14:04:32Z</time>
      </trkpt>
      <trkpt lat="40.231250" lon="-4.680983">
        <ele>2053.0</ele>
        <time>2018-09-16T14:04:33Z</time>
      </trkpt>
      <trkpt lat="40.231283" lon="-4.680850">
        <ele>2051.0</ele>
        <time>2018-09-16T14:04:34Z</time>
      </trkpt>
      <trkpt lat="40.231300" lon="-4.680717">
        <ele>2050.0</ele>
        <time>2018-09-16T14:04:35Z</time>
      </trkpt>
      <trkpt lat="40.231317" lon="-4.680583">
        <ele>2049.0</ele>
        <time>2018-09-16T14:04:36Z</time>
      </trkpt>
      <trkpt lat="40.231333" lon="-4.680450">
        <ele>2048.0</ele>
        <time>2018-09-16T14:04:37Z</time>
      </trkpt>
      <trkpt lat="40.231350" lon="-4.680317">
        <ele>2047.0</ele>
        <time>2018-09-16T14:04:38Z</time>
      </trkpt>
      <trkpt lat="40.231367" lon="-4.680200">
        <ele>2046.0</ele>
        <time>2018-09-16T14:04:39Z</time>
      </trkpt>
      <trkpt lat="40.231383" lon="-4.680083">
        <ele>2044.0</ele>
        <time>2018-09-16T14:04:40Z</time>
      </trkpt>
      <trkpt lat="40.231400" lon="-4.679950">
        <ele>2043.0</ele>
        <time>2018-09-16T14:04:41Z</time>
      </trkpt>
      <trkpt lat="40.231433" lon="-4.679833">
        <ele>2041.0</ele>
        <time>2018-09-16T14:04:42Z</time>
      </trkpt>
      <trkpt lat="40.231450" lon="-4.679700">
        <ele>2040.0</ele>
        <time>2018-09-16T14:04:43Z</time>
      </trkpt>
      <trkpt lat="40.231467" lon="-4.679583">
        <ele>2038.0</ele>
        <time>2018-09-16T14:04:44Z</time>
      </trkpt>
      <trkpt lat="40.231483" lon="-4.679450">
        <ele>2036.0</ele>
        <time>2018-09-16T14:04:45Z</time>
      </trkpt>
      <trkpt lat="40.231483" lon="-4.679317">
        <ele>2035.0</ele>
        <time>2018-09-16T14:04:46Z</time>
      </trkpt>
      <trkpt lat="40.231500" lon="-4.679200">
        <ele>2034.0</ele>
        <time>2018-09-16T14:04:47Z</time>
      </trkpt>
      <trkpt lat="40.231517" lon="-4.679067">
        <ele>2032.0</ele>
        <time>2018-09-16T14:04:48Z</time>
      </trkpt>
      <trkpt lat="40.231517" lon="-4.678933">
        <ele>2031.0</ele>
        <time>2018-09-16T14:04:49Z</time>
      </trkpt>
      <trkpt lat="40.231533" lon="-4.678817">
        <ele>2029.0</ele>
        <time>2018-09-16T14:04:50Z</time>
      </trkpt>
      <trkpt lat="40.231533" lon="-4.678683">
        <ele>2028.0</ele>
        <time>2018-09-16T14:04:51Z</time>
      </trkpt>
      <trkpt lat="40.231550" lon="-4.678550">
        <ele>2026.0</ele>
        <time>2018-09-16T14:04:52Z</time>
      </trkpt>
      <trkpt lat="40.231550" lon="-4.678433">
        <ele>2025.0</ele>
        <time>2018-09-16T14:04:53Z</time>
      </trkpt>
      <trkpt lat="40.231567" lon="-4.678300">
        <ele>2024.0</ele>
        <time>2018-09-16T14:04:54Z</time>
      </trkpt>
      <trkpt lat="40.231567" lon="-4.678183">
        <ele>2022.0</ele>
        <time>2018-09-16T14:04:55Z</time>
      </trkpt>
      <trkpt lat="40.231583" lon="-4.678050">
        <ele>2020.0</ele>
        <time>2018-09-16T14:04:56Z</time>
      </trkpt>
      <trkpt lat="40.231600" lon="-4.677933">
        <ele>2019.0</ele>
        <time>2018-09-16T14:04:57Z</time>
      </trkpt>
      <trkpt lat="40.231617" lon="-4.677800">
        <ele>2018.0</ele>
        <time>2018-09-16T14:04:58Z</time>
      </trkpt>
      <trkpt lat="40.231633" lon="-4.677683">
        <ele>2016.0</ele>
        <time>2018-09-16T14:04:59Z</time>
      </trkpt>
      <trkpt lat="40.231650" lon="-4.677567">
        <ele>2014.0</ele>
        <time>2018-09-16T14:05:00Z</time>
      </trkpt>
      <trkpt lat="40.231650" lon="-4.677433">
        <ele>2013.0</ele>
        <time>2018-09-16T14:05:01Z</time>
      </trkpt>
      <trkpt lat="40.231667" lon="-4.677300">
        <ele>2011.0</ele>
        <time>2018-09-16T14:05:02Z</time>
      </trkpt>
      <trkpt lat="40.231683" lon="-4.677183">
        <ele>2010.0</ele>
        <time>2018-09-16T14:05:03Z</time>
      </trkpt>
      <trkpt lat="40.231700" lon="-4.677067">
        <ele>2009.0</ele>
        <time>2018-09-16T14:05:04Z</time>
      </trkpt>
      <trkpt lat="40.231733" lon="-4.676950">
        <ele>2007.0</ele>
        <time>2018-09-16T14:05:05Z</time>
      </trkpt>
      <trkpt lat="40.231750" lon="-4.676833">
        <ele>2005.0</ele>
        <time>2018-09-16T14:05:06Z</time>
      </trkpt>
      <trkpt lat="40.231767" lon="-4.676700">
        <ele>2003.0</ele>
        <time>2018-09-16T14:05:07Z</time>
      </trkpt>
      <trkpt lat="40.231783" lon="-4.676583">
        <ele>2001.0</ele>
        <time>2018-09-16T14:05:08Z</time>
      </trkpt>
      <trkpt lat="40.231800" lon="-4.676450">
        <ele>2000.0</ele>
        <time>2018-09-16T14:05:09Z</time>
      </trkpt>
      <trkpt lat="40.231800" lon="-4.676317">
        <ele>1998.0</ele>
        <time>2018-09-16T14:05:10Z</time>
      </trkpt>
      <trkpt lat="40.231817" lon="-4.676200">
        <ele>1997.0</ele>
        <time>2018-09-16T14:05:11Z</time>
      </trkpt>
      <trkpt lat="40.231817" lon="-4.676067">
        <ele>1996.0</ele>
        <time>2018-09-16T14:05:12Z</time>
      </trkpt>
      <trkpt lat="40.231833" lon="-4.675933">
        <ele>1994.0</ele>
        <time>2018-09-16T14:05:13Z</time>
      </trkpt>
      <trkpt lat="40.231833" lon="-4.675817">
        <ele>1992.0</ele>
        <time>2018-09-16T14:05:14Z</time>
      </trkpt>
      <trkpt lat="40.231833" lon="-4.675683">
        <ele>1991.0</ele>
        <time>2018-09-16T14:05:15Z</time>
      </trkpt>
      <trkpt lat="40.231850" lon="-4.675567">
        <ele>1989.0</ele>
        <time>2018-09-16T14:05:16Z</time>
      </trkpt>
      <trkpt lat="40.231850" lon="-4.675450">
        <ele>1987.0</ele>
        <time>2018-09-16T14:05:17Z</time>
      </trkpt>
      <trkpt lat="40.231850" lon="-4.675317">
        <ele>1984.0</ele>
        <time>2018-09-16T14:05:18Z</time>
      </trkpt>
      <trkpt lat="40.231850" lon="-4.675183">
        <ele>1982.0</ele>
        <time>2018-09-16T14:05:19Z</time>
      </trkpt>
      <trkpt lat="40.231850" lon="-4.675050">
        <ele>1981.0</ele>
        <time>2018-09-16T14:05:20Z</time>
      </trkpt>
      <trkpt lat="40.231867" lon="-4.674917">
        <ele>1979.0</ele>
        <time>2018-09-16T14:05:21Z</time>
      </trkpt>
      <trkpt lat="40.231867" lon="-4.674783">
        <ele>1978.0</ele>
        <time>2018-09-16T14:05:22Z</time>
      </trkpt>
      <trkpt lat="40.231867" lon="-4.674667">
        <ele>1976.0</ele>
        <time>2018-09-16T14:05:23Z</time>
      </trkpt>
      <trkpt lat="40.231883" lon="-4.674533">
        <ele>1974.0</ele>
        <time>2018-09-16T14:05:24Z</time>
      </trkpt>
      <trkpt lat="40.231883" lon="-4.674400">
        <ele>1972.0</ele>
        <time>2018-09-16T14:05:25Z</time>
      </trkpt>
      <trkpt lat="40.231900" lon="-4.674267">
        <ele>1969.0</ele>
        <time>2018-09-16T14:05:26Z</time>
      </trkpt>
      <trkpt lat="40.231900" lon="-4.674133">
        <ele>1967.0</ele>
        <time>2018-09-16T14:05:27Z</time>
      </trkpt>
      <trkpt lat="40.231900" lon="-4.674000">
        <ele>1965.0</ele>
        <time>2018-09-16T14:05:28Z</time>
      </trkpt>
      <trkpt lat="40.231900" lon="-4.673867">
        <ele>1963.0</ele>
        <time>2018-09-16T14:05:29Z</time>
      </trkpt>
      <trkpt lat="40.231900" lon="-4.673733">
        <ele>1962.0</ele>
        <time>2018-09-16T14:05:30Z</time>
      </trkpt>
      <trkpt lat="40.231900" lon="-4.673600">
        <ele>1960.0</ele>
        <time>2018-09-16T14:05:31Z</time>
      </trkpt>
      <trkpt lat="40.231917" lon="-4.673467">
        <ele>1957.0</ele>
        <time>2018-09-16T14:05:32Z</time>
      </trkpt>
      <trkpt lat="40.231917" lon="-4.673350">
        <ele>1955.0</ele>
        <time>2018-09-16T14:05:33Z</time>
      </trkpt>
      <trkpt lat="40.231933" lon="-4.673217">
        <ele>1952.0</ele>
        <time>2018-09-16T14:05:34Z</time>
      </trkpt>
      <trkpt lat="40.231950" lon="-4.673083">
        <ele>1950.0</ele>
        <time>2018-09-16T14:05:35Z</time>
      </trkpt>
      <trkpt lat="40.231967" lon="-4.672950">
        <ele>1947.0</ele>
        <time>2018-09-16T14:05:36Z</time>
      </trkpt>
      <trkpt lat="40.232000" lon="-4.672817">
        <ele>1945.0</ele>
        <time>2018-09-16T14:05:37Z</time>
      </trkpt>
      <trkpt lat="40.232033" lon="-4.672700">
        <ele>1944.0</ele>
        <time>2018-09-16T14:05:38Z</time>
      </trkpt>
      <trkpt lat="40.232050" lon="-4.672567">
        <ele>1942.0</ele>
        <time>2018-09-16T14:05:39Z</time>
      </trkpt>
      <trkpt lat="40.232067" lon="-4.672450">
        <ele>1940.0</ele>
        <time>2018-09-16T14:05:40Z</time>
      </trkpt>
      <trkpt lat="40.232100" lon="-4.672333">
        <ele>1938.0</ele>
        <time>2018-09-16T14:05:41Z</time>
      </trkpt>
      <trkpt lat="40.232117" lon="-4.672200">
        <ele>1936.0</ele>
        <time>2018-09-16T14:05:42Z</time>
      </trkpt>
      <trkpt lat="40.232150" lon="-4.672067">
        <ele>1934.0</ele>
        <time>2018-09-16T14:05:43Z</time>
      </trkpt>
      <trkpt lat="40.232167" lon="-4.671950">
        <ele>1933.0</ele>
        <time>2018-09-16T14:05:44Z</time>
      </trkpt>
      <trkpt lat="40.232183" lon="-4.671833">
        <ele>1933.0</ele>
        <time>2018-09-16T14:05:45Z</time>
      </trkpt>
      <trkpt lat="40.232200" lon="-4.671717">
        <ele>1933.0</ele>
        <time>2018-09-16T14:05:46Z</time>
      </trkpt>
      <trkpt lat="40.232200" lon="-4.671617">
        <ele>1931.0</ele>
        <time>2018-09-16T14:05:47Z</time>
      </trkpt>
      <trkpt lat="40.232217" lon="-4.671517">
        <ele>1929.0</ele>
        <time>2018-09-16T14:05:48Z</time>
      </trkpt>
      <trkpt lat="40.232233" lon="-4.671400">
        <ele>1925.0</ele>
        <time>2018-09-16T14:05:49Z</time>
      </trkpt>
      <trkpt lat="40.232250" lon="-4.671267">
        <ele>1922.0</ele>
        <time>2018-09-16T14:05:50Z</time>
      </trkpt>
      <trkpt lat="40.232250" lon="-4.671133">
        <ele>1919.0</ele>
        <time>2018-09-16T14:05:51Z</time>
      </trkpt>
      <trkpt lat="40.232250" lon="-4.671000">
        <ele>1917.0</ele>
        <time>2018-09-16T14:05:52Z</time>
      </trkpt>
      <trkpt lat="40.232267" lon="-4.670867">
        <ele>1916.0</ele>
        <time>2018-09-16T14:05:53Z</time>
      </trkpt>
      <trkpt lat="40.232267" lon="-4.670733">
        <ele>1915.0</ele>
        <time>2018-09-16T14:05:54Z</time>
      </trkpt>
      <trkpt lat="40.232283" lon="-4.670633">
        <ele>1913.0</ele>
        <time>2018-09-16T14:05:55Z</time>
      </trkpt>
      <trkpt lat="40.232283" lon="-4.670517">
        <ele>1911.0</ele>
        <time>2018-09-16T14:05:56Z</time>
      </trkpt>
      <trkpt lat="40.232300" lon="-4.670400">
        <ele>1908.0</ele>
        <time>2018-09-16T14:05:57Z</time>
      </trkpt>
      <trkpt lat="40.232300" lon="-4.670283">
        <ele>1905.0</ele>
        <time>2018-09-16T14:05:58Z</time>
      </trkpt>
      <trkpt lat="40.232317" lon="-4.670167">
        <ele>1903.0</ele>
        <time>2018-09-16T14:05:59Z</time>
      </trkpt>
      <trkpt lat="40.232317" lon="-4.670050">
        <ele>1900.0</ele>
        <time>2018-09-16T14:06:00Z</time>
      </trkpt>
      <trkpt lat="40.232333" lon="-4.669933">
        <ele>1898.0</ele>
        <time>2018-09-16T14:06:01Z</time>
      </trkpt>
      <trkpt lat="40.232350" lon="-4.669817">
        <ele>1896.0</ele>
        <time>2018-09-16T14:06:02Z</time>
      </trkpt>
      <trkpt lat="40.232350" lon="-4.669700">
        <ele>1893.0</ele>
        <time>2018-09-16T14:06:03Z</time>
      </trkpt>
      <trkpt lat="40.232367" lon="-4.669583">
        <ele>1890.0</ele>
        <time>2018-09-16T14:06:04Z</time>
      </trkpt>
      <trkpt lat="40.232367" lon="-4.669467">
        <ele>1887.0</ele>
        <time>2018-09-16T14:06:05Z</time>
      </trkpt>
      <trkpt lat="40.232367" lon="-4.669350">
        <ele>1884.0</ele>
        <time>2018-09-16T14:06:06Z</time>
      </trkpt>
      <trkpt lat="40.232367" lon="-4.669233">
        <ele>1881.0</ele>
        <time>2018-09-16T14:06:07Z</time>
      </trkpt>
      <trkpt lat="40.232383" lon="-4.669100">
        <ele>1878.0</ele>
        <time>2018-09-16T14:06:08Z</time>
      </trkpt>
      <trkpt lat="40.232400" lon="-4.668983">
        <ele>1875.0</ele>
        <time>2018-09-16T14:06:09Z</time>
      </trkpt>
      <trkpt lat="40.232400" lon="-4.668867">
        <ele>1872.0</ele>
        <time>2018-09-16T14:06:10Z</time>
      </trkpt>
      <trkpt lat="40.232417" lon="-4.668750">
        <ele>1869.0</ele>
        <time>2018-09-16T14:06:11Z</time>
      </trkpt>
      <trkpt lat="40.232417" lon="-4.668633">
        <ele>1866.0</ele>
        <time>2018-09-16T14:06:12Z</time>
      </trkpt>
      <trkpt lat="40.232433" lon="-4.668517">
        <ele>1863.0</ele>
        <time>2018-09-16T14:06:13Z</time>
      </trkpt>
      <trkpt lat="40.232433" lon="-4.668400">
        <ele>1859.0</ele>
        <time>2018-09-16T14:06:14Z</time>
      </trkpt>
      <trkpt lat="40.232450" lon="-4.668283">
        <ele>1855.0</ele>
        <time>2018-09-16T14:06:15Z</time>
      </trkpt>
      <trkpt lat="40.232450" lon="-4.668150">
        <ele>1852.0</ele>
        <time>2018-09-16T14:06:16Z</time>
      </trkpt>
      <trkpt lat="40.232467" lon="-4.668017">
        <ele>1849.0</ele>
        <time>2018-09-16T14:06:17Z</time>
      </trkpt>
      <trkpt lat="40.232483" lon="-4.667883">
        <ele>1847.0</ele>
        <time>2018-09-16T14:06:18Z</time>
      </trkpt>
      <trkpt lat="40.232500" lon="-4.667750">
        <ele>1846.0</ele>
        <time>2018-09-16T14:06:19Z</time>
      </trkpt>
      <trkpt lat="40.232517" lon="-4.667633">
        <ele>1845.0</ele>
        <time>2018-09-16T14:06:20Z</time>
      </trkpt>
      <trkpt lat="40.232533" lon="-4.667517">
        <ele>1843.0</ele>
        <time>2018-09-16T14:06:21Z</time>
      </trkpt>
      <trkpt lat="40.232567" lon="-4.667400">
        <ele>1841.0</ele>
        <time>2018-09-16T14:06:22Z</time>
      </trkpt>
      <trkpt lat="40.232583" lon="-4.667267">
        <ele>1839.0</ele>
        <time>2018-09-16T14:06:23Z</time>
      </trkpt>
      <trkpt lat="40.232617" lon="-4.667150">
        <ele>1838.0</ele>
        <time>2018-09-16T14:06:24Z</time>
      </trkpt>
      <trkpt lat="40.232633" lon="-4.667017">
        <ele>1837.0</ele>
        <time>2018-09-16T14:06:25Z</time>
      </trkpt>
      <trkpt lat="40.232667" lon="-4.666900">
        <ele>1836.0</ele>
        <time>2018-09-16T14:06:26Z</time>
      </trkpt>
      <trkpt lat="40.232683" lon="-4.666800">
        <ele>1835.0</ele>
        <time>2018-09-16T14:06:27Z</time>
      </trkpt>
      <trkpt lat="40.232700" lon="-4.666683">
        <ele>1833.0</ele>
        <time>2018-09-16T14:06:28Z</time>
      </trkpt>
      <trkpt lat="40.232717" lon="-4.666550">
        <ele>1830.0</ele>
        <time>2018-09-16T14:06:29Z</time>
      </trkpt>
      <trkpt lat="40.232733" lon="-4.666433">
        <ele>1828.0</ele>
        <time>2018-09-16T14:06:30Z</time>
      </trkpt>
      <trkpt lat="40.232767" lon="-4.666300">
        <ele>1826.0</ele>
        <time>2018-09-16T14:06:31Z</time>
      </trkpt>
      <trkpt lat="40.232800" lon="-4.666167">
        <ele>1825.0</ele>
        <time>2018-09-16T14:06:32Z</time>
      </trkpt>
      <trkpt lat="40.232833" lon="-4.666033">
        <ele>1823.0</ele>
        <time>2018-09-16T14:06:33Z</time>
      </trkpt>
      <trkpt lat="40.232867" lon="-4.665917">
        <ele>1822.0</ele>
        <time>2018-09-16T14:06:34Z</time>
      </trkpt>
      <trkpt lat="40.232917" lon="-4.665800">
        <ele>1820.0</ele>
        <time>2018-09-16T14:06:35Z</time>
      </trkpt>
      <trkpt lat="40.232950" lon="-4.665667">
        <ele>1817.0</ele>
        <time>2018-09-16T14:06:36Z</time>
      </trkpt>
      <trkpt lat="40.232983" lon="-4.665533">
        <ele>1814.0</ele>
        <time>2018-09-16T14:06:37Z</time>
      </trkpt>
      <trkpt lat="40.233017" lon="-4.665400">
        <ele>1812.0</ele>
        <time>2018-09-16T14:06:38Z</time>
      </trkpt>
      <trkpt lat="40.233033" lon="-4.665250">
        <ele>1810.0</ele>
        <time>2018-09-16T14:06:39Z</time>
      </trkpt>
      <trkpt lat="40.233067" lon="-4.665100">
        <ele>1809.0</ele>
        <time>2018-09-16T14:06:40Z</time>
      </trkpt>
      <trkpt lat="40.233100" lon="-4.664967">
        <ele>1808.0</ele>
        <time>2018-09-16T14:06:41Z</time>
      </trkpt>
      <trkpt lat="40.233133" lon="-4.664833">
        <ele>1807.0</ele>
        <time>2018-09-16T14:06:42Z</time>
      </trkpt>
      <trkpt lat="40.233167" lon="-4.664717">
        <ele>1806.0</ele>
        <time>2018-09-16T14:06:43Z</time>
      </trkpt>
      <trkpt lat="40.233183" lon="-4.664583">
        <ele>1804.0</ele>
        <time>2018-09-16T14:06:44Z</time>
      </trkpt>
      <trkpt lat="40.233217" lon="-4.664467">
        <ele>1803.0</ele>
        <time>2018-09-16T14:06:45Z</time>
      </trkpt>
      <trkpt lat="40.233233" lon="-4.664333">
        <ele>1801.0</ele>
        <time>2018-09-16T14:06:46Z</time>
      </trkpt>
      <trkpt lat="40.233250" lon="-4.664200">
        <ele>1798.0</ele>
        <time>2018-09-16T14:06:47Z</time>
      </trkpt>
      <trkpt lat="40.233283" lon="-4.664067">
        <ele>1796.0</ele>
        <time>2018-09-16T14:06:48Z</time>
      </trkpt>
      <trkpt lat="40.233300" lon="-4.663933">
        <ele>1795.0</ele>
        <time>2018-09-16T14:06:49Z</time>
      </trkpt>
      <trkpt lat="40.233317" lon="-4.663800">
        <ele>1793.0</ele>
        <time>2018-09-16T14:06:50Z</time>
      </trkpt>
      <trkpt lat="40.233333" lon="-4.663667">
        <ele>1791.0</ele>
        <time>2018-09-16T14:06:51Z</time>
      </trkpt>
      <trkpt lat="40.233350" lon="-4.663550">
        <ele>1789.0</ele>
        <time>2018-09-16T14:06:52Z</time>
      </trkpt>
      <trkpt lat="40.233367" lon="-4.663400">
        <ele>1787.0</ele>
        <time>2018-09-16T14:06:53Z</time>
      </trkpt>
      <trkpt lat="40.233400" lon="-4.663267">
        <ele>1785.0</ele>
        <time>2018-09-16T14:06:54Z</time>
      </trkpt>
      <trkpt lat="40.233417" lon="-4.663117">
        <ele>1784.0</ele>
        <time>2018-09-16T14:06:55Z</time>
      </trkpt>
      <trkpt lat="40.233417" lon="-4.662967">
        <ele>1783.0</ele>
        <time>2018-09-16T14:06:56Z</time>
      </trkpt>
      <trkpt lat="40.233433" lon="-4.662833">
        <ele>1783.0</ele>
        <time>2018-09-16T14:06:57Z</time>
      </trkpt>
      <trkpt lat="40.233450" lon="-4.662700">
        <ele>1783.0</ele>
        <time>2018-09-16T14:06:58Z</time>
      </trkpt>
      <trkpt lat="40.233467" lon="-4.662583">
        <ele>1783.0</ele>
        <time>2018-09-16T14:06:59Z</time>
      </trkpt>
      <trkpt lat="40.233500" lon="-4.662467">
        <ele>1782.0</ele>
        <time>2018-09-16T14:07:00Z</time>
      </trkpt>
      <trkpt lat="40.233517" lon="-4.662333">
        <ele>1781.0</ele>
        <time>2018-09-16T14:07:01Z</time>
      </trkpt>
      <trkpt lat="40.233533" lon="-4.662200">
        <ele>1782.0</ele>
        <time>2018-09-16T14:07:02Z</time>
      </trkpt>
      <trkpt lat="40.233550" lon="-4.662083">
        <ele>1781.0</ele>
        <time>2018-09-16T14:07:03Z</time>
      </trkpt>
      <trkpt lat="40.233567" lon="-4.661967">
        <ele>1781.0</ele>
        <time>2018-09-16T14:07:04Z</time>
      </trkpt>
      <trkpt lat="40.233583" lon="-4.661833">
        <ele>1781.0</ele>
        <time>2018-09-16T14:07:05Z</time>
      </trkpt>
      <trkpt lat="40.233600" lon="-4.661717">
        <ele>1781.0</ele>
        <time>2018-09-16T14:07:06Z</time>
      </trkpt>
      <trkpt lat="40.233617" lon="-4.661583">
        <ele>1781.0</ele>
        <time>2018-09-16T14:07:07Z</time>
      </trkpt>
      <trkpt lat="40.233633" lon="-4.661450">
        <ele>1781.0</ele>
        <time>2018-09-16T14:07:08Z</time>
      </trkpt>
      <trkpt lat="40.233667" lon="-4.661317">
        <ele>1782.0</ele>
        <time>2018-09-16T14:07:09Z</time>
      </trkpt>
      <trkpt lat="40.233683" lon="-4.661183">
        <ele>1783.0</ele>
        <time>2018-09-16T14:07:10Z</time>
      </trkpt>
      <trkpt lat="40.233683" lon="-4.661033">
        <ele>1783.0</ele>
        <time>2018-09-16T14:07:11Z</time>
      </trkpt>
      <trkpt lat="40.233700" lon="-4.660900">
        <ele>1783.0</ele>
        <time>2018-09-16T14:07:12Z</time>
      </trkpt>
      <trkpt lat="40.233717" lon="-4.660750">
        <ele>1782.0</ele>
        <time>2018-09-16T14:07:13Z</time>
      </trkpt>
      <trkpt lat="40.233733" lon="-4.660600">
        <ele>1782.0</ele>
        <time>2018-09-16T14:07:14Z</time>
      </trkpt>
      <trkpt lat="40.233750" lon="-4.660450">
        <ele>1783.0</ele>
        <time>2018-09-16T14:07:15Z</time>
      </trkpt>
      <trkpt lat="40.233767" lon="-4.660317">
        <ele>1784.0</ele>
        <time>2018-09-16T14:07:16Z</time>
      </trkpt>
      <trkpt lat="40.233783" lon="-4.660183">
        <ele>1786.0</ele>
        <time>2018-09-16T14:07:17Z</time>
      </trkpt>
      <trkpt lat="40.233817" lon="-4.660067">
        <ele>1787.0</ele>
        <time>2018-09-16T14:07:18Z</time>
      </trkpt>
      <trkpt lat="40.233850" lon="-4.659950">
        <ele>1789.0</ele>
        <time>2018-09-16T14:07:19Z</time>
      </trkpt>
      <trkpt lat="40.233883" lon="-4.659833">
        <ele>1790.0</ele>
        <time>2018-09-16T14:07:20Z</time>
      </trkpt>
      <trkpt lat="40.233900" lon="-4.659717">
        <ele>1792.0</ele>
        <time>2018-09-16T14:07:21Z</time>
      </trkpt>
      <trkpt lat="40.233917" lon="-4.659600">
        <ele>1793.0</ele>
        <time>2018-09-16T14:07:22Z</time>
      </trkpt>
      <trkpt lat="40.233950" lon="-4.659483">
        <ele>1796.0</ele>
        <time>2018-09-16T14:07:23Z</time>
      </trkpt>
      <trkpt lat="40.234000" lon="-4.659367">
        <ele>1798.0</ele>
        <time>2018-09-16T14:07:24Z</time>
      </trkpt>
      <trkpt lat="40.234067" lon="-4.659250">
        <ele>1801.0</ele>
        <time>2018-09-16T14:07:25Z</time>
      </trkpt>
      <trkpt lat="40.234167" lon="-4.659150">
        <ele>1804.0</ele>
        <time>2018-09-16T14:07:26Z</time>
      </trkpt>
      <trkpt lat="40.234283" lon="-4.659100">
        <ele>1809.0</ele>
        <time>2018-09-16T14:07:27Z</time>
      </trkpt>
      <trkpt lat="40.234417" lon="-4.659067">
        <ele>1814.0</ele>
        <time>2018-09-16T14:07:28Z</time>
      </trkpt>
      <trkpt lat="40.234533" lon="-4.659100">
        <ele>1818.0</ele>
        <time>2018-09-16T14:07:29Z</time>
      </trkpt>
      <trkpt lat="40.234650" lon="-4.659150">
        <ele>1820.0</ele>
        <time>2018-09-16T14:07:30Z</time>
      </trkpt>
      <trkpt lat="40.234767" lon="-4.659217">
        <ele>1822.0</ele>
        <time>2018-09-16T14:07:31Z</time>
      </trkpt>
      <trkpt lat="40.234883" lon="-4.659267">
        <ele>1825.0</ele>
        <time>2018-09-16T14:07:32Z</time>
      </trkpt>
      <trkpt lat="40.234967" lon="-4.659350">
        <ele>1829.0</ele>
        <time>2018-09-16T14:07:33Z</time>
      </trkpt>
      <trkpt lat="40.235033" lon="-4.659450">
        <ele>1831.0</ele>
        <time>2018-09-16T14:07:34Z</time>
      </trkpt>
      <trkpt lat="40.235067" lon="-4.659583">
        <ele>1831.0</ele>
        <time>2018-09-16T14:07:35Z</time>
      </trkpt>
      <trkpt lat="40.235067" lon="-4.659717">
        <ele>1831.0</ele>
        <time>2018-09-16T14:07:36Z</time>
      </trkpt>
      <trkpt lat="40.235017" lon="-4.659817">
        <ele>1832.0</ele>
        <time>2018-09-16T14:07:37Z</time>
      </trkpt>
      <trkpt lat="40.234933" lon="-4.659867">
        <ele>1833.0</ele>
        <time>2018-09-16T14:07:38Z</time>
      </trkpt>
      <trkpt lat="40.234850" lon="-4.659850">
        <ele>1834.0</ele>
        <time>2018-09-16T14:07:39Z</time>
      </trkpt>
      <trkpt lat="40.234783" lon="-4.659750">
        <ele>1836.0</ele>
        <time>2018-09-16T14:07:40Z</time>
      </trkpt>
      <trkpt lat="40.234767" lon="-4.659633">
        <ele>1838.0</ele>
        <time>2018-09-16T14:07:41Z</time>
      </trkpt>
      <trkpt lat="40.234783" lon="-4.659500">
        <ele>1842.0</ele>
        <time>2018-09-16T14:07:42Z</time>
      </trkpt>
      <trkpt lat="40.234833" lon="-4.659383">
        <ele>1846.0</ele>
        <time>2018-09-16T14:07:43Z</time>
      </trkpt>
      <trkpt lat="40.234883" lon="-4.659267">
        <ele>1851.0</ele>
        <time>2018-09-16T14:07:44Z</time>
      </trkpt>
      <trkpt lat="40.234917" lon="-4.659183">
        <ele>1856.0</ele>
        <time>2018-09-16T14:07:45Z</time>
      </trkpt>
      <trkpt lat="40.234950" lon="-4.659133">
        <ele>1860.0</ele>
        <time>2018-09-16T14:07:46Z</time>
      </trkpt>
      <trkpt lat="40.235000" lon="-4.659100">
        <ele>1861.0</ele>
        <time>2018-09-16T14:07:47Z</time>
      </trkpt>
      <trkpt lat="40.235083" lon="-4.659067">
        <ele>1861.0</ele>
        <time>2018-09-16T14:07:48Z</time>
      </trkpt>
      <trkpt lat="40.235150" lon="-4.659033">
        <ele>1859.0</ele>
        <time>2018-09-16T14:07:49Z</time>
      </trkpt>
      <trkpt lat="40.235250" lon="-4.658983">
        <ele>1857.0</ele>
        <time>2018-09-16T14:07:50Z</time>
      </trkpt>
      <trkpt lat="40.235350" lon="-4.658917">
        <ele>1857.0</ele>
        <time>2018-09-16T14:07:51Z</time>
      </trkpt>
      <trkpt lat="40.235467" lon="-4.658883">
        <ele>1858.0</ele>
        <time>2018-09-16T14:07:52Z</time>
      </trkpt>
      <trkpt lat="40.235583" lon="-4.658917">
        <ele>1860.0</ele>
        <time>2018-09-16T14:07:53Z</time>
      </trkpt>
      <trkpt lat="40.235683" lon="-4.658983">
        <ele>1863.0</ele>
        <time>2018-09-16T14:07:54Z</time>
      </trkpt>
      <trkpt lat="40.235767" lon="-4.659067">
        <ele>1866.0</ele>
        <time>2018-09-16T14:07:55Z</time>
      </trkpt>
      <trkpt lat="40.235833" lon="-4.659167">
        <ele>1869.0</ele>
        <time>2018-09-16T14:07:56Z</time>
      </trkpt>
      <trkpt lat="40.235900" lon="-4.659250">
        <ele>1872.0</ele>
        <time>2018-09-16T14:07:57Z</time>
      </trkpt>
      <trkpt lat="40.235950" lon="-4.659333">
        <ele>1874.0</ele>
        <time>2018-09-16T14:07:58Z</time>
      </trkpt>
      <trkpt lat="40.235983" lon="-4.659450">
        <ele>1875.0</ele>
        <time>2018-09-16T14:07:59Z</time>
      </trkpt>
      <trkpt lat="40.236000" lon="-4.659567">
        <ele>1875.0</ele>
        <time>2018-09-16T14:08:00Z</time>
      </trkpt>
      <trkpt lat="40.235983" lon="-4.659683">
        <ele>1875.0</ele>
        <time>2018-09-16T14:08:01Z</time>
      </trkpt>
      <trkpt lat="40.235950" lon="-4.659783">
        <ele>1875.0</ele>
        <time>2018-09-16T14:08:02Z</time>
      </trkpt>
      <trkpt lat="40.235900" lon="-4.659883">
        <ele>1876.0</ele>
        <time>2018-09-16T14:08:03Z</time>
      </trkpt>
      <trkpt lat="40.235833" lon="-4.659950">
        <ele>1877.0</ele>
        <time>2018-09-16T14:08:04Z</time>
      </trkpt>
      <trkpt lat="40.235767" lon="-4.660033">
        <ele>1880.0</ele>
        <time>2018-09-16T14:08:05Z</time>
      </trkpt>
      <trkpt lat="40.235717" lon="-4.660083">
        <ele>1883.0</ele>
        <time>2018-09-16T14:08:06Z</time>
      </trkpt>
      <trkpt lat="40.235650" lon="-4.660133">
        <ele>1885.0</ele>
        <time>2018-09-16T14:08:07Z</time>
      </trkpt>
      <trkpt lat="40.235600" lon="-4.660167">
        <ele>1886.0</ele>
        <time>2018-09-16T14:08:08Z</time>
      </trkpt>
      <trkpt lat="40.235550" lon="-4.660183">
        <ele>1886.0</ele>
        <time>2018-09-16T14:08:09Z</time>
      </trkpt>
      <trkpt lat="40.235483" lon="-4.660183">
        <ele>1886.0</ele>
        <time>2018-09-16T14:08:10Z</time>
      </trkpt>
      <trkpt lat="40.235400" lon="-4.660183">
        <ele>1886.0</ele>
        <time>2018-09-16T14:08:11Z</time>
      </trkpt>
      <trkpt lat="40.235317" lon="-4.660167">
        <ele>1888.0</ele>
        <time>2018-09-16T14:08:12Z</time>
      </trkpt>
      <trkpt lat="40.235250" lon="-4.660117">
        <ele>1890.0</ele>
        <time>2018-09-16T14:08:13Z</time>
      </trkpt>
      <trkpt lat="40.235217" lon="-4.660050">
        <ele>1892.0</ele>
        <time>2018-09-16T14:08:14Z</time>
      </trkpt>
      <trkpt lat="40.235200" lon="-4.659967">
        <ele>1892.0</ele>
        <time>2018-09-16T14:08:15Z</time>
      </trkpt>
      <trkpt lat="40.235200" lon="-4.659867">
        <ele>1892.0</ele>
        <time>2018-09-16T14:08:16Z</time>
      </trkpt>
      <trkpt lat="40.235217" lon="-4.659750">
        <ele>1892.0</ele>
        <time>2018-09-16T14:08:17Z</time>
      </trkpt>
      <trkpt lat="40.235233" lon="-4.659633">
        <ele>1893.0</ele>
        <time>2018-09-16T14:08:18Z</time>
      </trkpt>
      <trkpt lat="40.235283" lon="-4.659517">
        <ele>1895.0</ele>
        <time>2018-09-16T14:08:19Z</time>
      </trkpt>
      <trkpt lat="40.235367" lon="-4.659433">
        <ele>1897.0</ele>
        <time>2018-09-16T14:08:20Z</time>
      </trkpt>
      <trkpt lat="40.235467" lon="-4.659400">
        <ele>1899.0</ele>
        <time>2018-09-16T14:08:21Z</time>
      </trkpt>
      <trkpt lat="40.235567" lon="-4.659400">
        <ele>1900.0</ele>
        <time>2018-09-16T14:08:22Z</time>
      </trkpt>
      <trkpt lat="40.235683" lon="-4.659417">
        <ele>1900.0</ele>
        <time>2018-09-16T14:08:23Z</time>
      </trkpt>
      <trkpt lat="40.235783" lon="-4.659467">
        <ele>1900.0</ele>
        <time>2018-09-16T14:08:24Z</time>
      </trkpt>
      <trkpt lat="40.235883" lon="-4.659550">
        <ele>1899.0</ele>
        <time>2018-09-16T14:08:25Z</time>
      </trkpt>
      <trkpt lat="40.235983" lon="-4.659683">
        <ele>1899.0</ele>
        <time>2018-09-16T14:08:26Z</time>
      </trkpt>
      <trkpt lat="40.236050" lon="-4.659833">
        <ele>1899.0</ele>
        <time>2018-09-16T14:08:27Z</time>
      </trkpt>
      <trkpt lat="40.236083" lon="-4.659983">
        <ele>1901.0</ele>
        <time>2018-09-16T14:08:28Z</time>
      </trkpt>
      <trkpt lat="40.236100" lon="-4.660117">
        <ele>1903.0</ele>
        <time>2018-09-16T14:08:29Z</time>
      </trkpt>
      <trkpt lat="40.236083" lon="-4.660217">
        <ele>1905.0</ele>
        <time>2018-09-16T14:08:30Z</time>
      </trkpt>
      <trkpt lat="40.236050" lon="-4.660300">
        <ele>1906.0</ele>
        <time>2018-09-16T14:08:31Z</time>
      </trkpt>
      <trkpt lat="40.236017" lon="-4.660367">
        <ele>1906.0</ele>
        <time>2018-09-16T14:08:32Z</time>
      </trkpt>
      <trkpt lat="40.235967" lon="-4.660400">
        <ele>1906.0</ele>
        <time>2018-09-16T14:08:33Z</time>
      </trkpt>
      <trkpt lat="40.235900" lon="-4.660417">
        <ele>1905.0</ele>
        <time>2018-09-16T14:08:34Z</time>
      </trkpt>
      <trkpt lat="40.235850" lon="-4.660367">
        <ele>1904.0</ele>
        <time>2018-09-16T14:08:35Z</time>
      </trkpt>
      <trkpt lat="40.235800" lon="-4.660283">
        <ele>1904.0</ele>
        <time>2018-09-16T14:08:36Z</time>
      </trkpt>
      <trkpt lat="40.235767" lon="-4.660183">
        <ele>1904.0</ele>
        <time>2018-09-16T14:08:37Z</time>
      </trkpt>
      <trkpt lat="40.235767" lon="-4.660050">
        <ele>1906.0</ele>
        <time>2018-09-16T14:08:38Z</time>
      </trkpt>
      <trkpt lat="40.235800" lon="-4.659950">
        <ele>1907.0</ele>
        <time>2018-09-16T14:08:39Z</time>
      </trkpt>
      <trkpt lat="40.235817" lon="-4.659833">
        <ele>1908.0</ele>
        <time>2018-09-16T14:08:40Z</time>
      </trkpt>
      <trkpt lat="40.235850" lon="-4.659733">
        <ele>1907.0</ele>
        <time>2018-09-16T14:08:41Z</time>
      </trkpt>
      <trkpt lat="40.235867" lon="-4.659617">
        <ele>1907.0</ele>
        <time>2018-09-16T14:08:42Z</time>
      </trkpt>
      <trkpt lat="40.235900" lon="-4.659500">
        <ele>1907.0</ele>
        <time>2018-09-16T14:08:43Z</time>
      </trkpt>
      <trkpt lat="40.235933" lon="-4.659367">
        <ele>1907.0</ele>
        <time>2018-09-16T14:08:44Z</time>
      </trkpt>
      <trkpt lat="40.235967" lon="-4.659217">
        <ele>1908.0</ele>
        <time>2018-09-16T14:08:45Z</time>
      </trkpt>
      <trkpt lat="40.236000" lon="-4.659067">
        <ele>1911.0</ele>
        <time>2018-09-16T14:08:46Z</time>
      </trkpt>
      <trkpt lat="40.236017" lon="-4.658917">
        <ele>1915.0</ele>
        <time>2018-09-16T14:08:47Z</time>
      </trkpt>
      <trkpt lat="40.236050" lon="-4.658800">
        <ele>1919.0</ele>
        <time>2018-09-16T14:08:48Z</time>
      </trkpt>
      <trkpt lat="40.236067" lon="-4.658700">
        <ele>1922.0</ele>
        <time>2018-09-16T14:08:49Z</time>
      </trkpt>
      <trkpt lat="40.236100" lon="-4.658583">
        <ele>1924.0</ele>
        <time>2018-09-16T14:08:50Z</time>
      </trkpt>
      <trkpt lat="40.236133" lon="-4.658483">
        <ele>1925.0</ele>
        <time>2018-09-16T14:08:51Z</time>
      </trkpt>
      <trkpt lat="40.236150" lon="-4.658383">
        <ele>1926.0</ele>
        <time>2018-09-16T14:08:52Z</time>
      </trkpt>
      <trkpt lat="40.236183" lon="-4.658283">
        <ele>1927.0</ele>
        <time>2018-09-16T14:08:53Z</time>
      </trkpt>
      <trkpt lat="40.236217" lon="-4.658183">
        <ele>1928.0</ele>
        <time>2018-09-16T14:08:54Z</time>
      </trkpt>
      <trkpt lat="40.236233" lon="-4.658067">
        <ele>1928.0</ele>
        <time>2018-09-16T14:08:55Z</time>
      </trkpt>
      <trkpt lat="40.236250" lon="-4.657967">
        <ele>1929.0</ele>
        <time>2018-09-16T14:08:56Z</time>
      </trkpt>
      <trkpt lat="40.236250" lon="-4.657850">
        <ele>1930.0</ele>
        <time>2018-09-16T14:08:57Z</time>
      </trkpt>
      <trkpt lat="40.236267" lon="-4.657717">
        <ele>1931.0</ele>
        <time>2018-09-16T14:08:58Z</time>
      </trkpt>
      <trkpt lat="40.236267" lon="-4.657600">
        <ele>1932.0</ele>
        <time>2018-09-16T14:08:59Z</time>
      </trkpt>
      <trkpt lat="40.236267" lon="-4.657483">
        <ele>1934.0</ele>
        <time>2018-09-16T14:09:00Z</time>
      </trkpt>
      <trkpt lat="40.236283" lon="-4.657350">
        <ele>1936.0</ele>
        <time>2018-09-16T14:09:01Z</time>
      </trkpt>
      <trkpt lat="40.236300" lon="-4.657233">
        <ele>1939.0</ele>
        <time>2018-09-16T14:09:02Z</time>
      </trkpt>
      <trkpt lat="40.236317" lon="-4.657133">
        <ele>1943.0</ele>
        <time>2018-09-16T14:09:03Z</time>
      </trkpt>
      <trkpt lat="40.236333" lon="-4.657033">
        <ele>1945.0</ele>
        <time>2018-09-16T14:09:04Z</time>
      </trkpt>
      <trkpt lat="40.236333" lon="-4.656933">
        <ele>1946.0</ele>
        <time>2018-09-16T14:09:05Z</time>
      </trkpt>
      <trkpt lat="40.236350" lon="-4.656817">
        <ele>1947.0</ele>
        <time>2018-09-16T14:09:06Z</time>
      </trkpt>
      <trkpt lat="40.236350" lon="-4.656717">
        <ele>1948.0</ele>
        <time>2018-09-16T14:09:07Z</time>
      </trkpt>
      <trkpt lat="40.236350" lon="-4.656617">
        <ele>1949.0</ele>
        <time>2018-09-16T14:09:08Z</time>
      </trkpt>
      <trkpt lat="40.236367" lon="-4.656517">
        <ele>1949.0</ele>
        <time>2018-09-16T14:09:09Z</time>
      </trkpt>
      <trkpt lat="40.236367" lon="-4.656417">
        <ele>1949.0</ele>
        <time>2018-09-16T14:09:10Z</time>
      </trkpt>
      <trkpt lat="40.236367" lon="-4.656300">
        <ele>1949.0</ele>
        <time>2018-09-16T14:09:11Z</time>
      </trkpt>
      <trkpt lat="40.236367" lon="-4.656183">
        <ele>1950.0</ele>
        <time>2018-09-16T14:09:12Z</time>
      </trkpt>
      <trkpt lat="40.236383" lon="-4.656067">
        <ele>1952.0</ele>
        <time>2018-09-16T14:09:13Z</time>
      </trkpt>
      <trkpt lat="40.236383" lon="-4.655950">
        <ele>1953.0</ele>
        <time>2018-09-16T14:09:14Z</time>
      </trkpt>
      <trkpt lat="40.236383" lon="-4.655850">
        <ele>1955.0</ele>
        <time>2018-09-16T14:09:15Z</time>
      </trkpt>
      <trkpt lat="40.236400" lon="-4.655767">
        <ele>1956.0</ele>
        <time>2018-09-16T14:09:16Z</time>
      </trkpt>
      <trkpt lat="40.236383" lon="-4.655683">
        <ele>1956.0</ele>
        <time>2018-09-16T14:09:17Z</time>
      </trkpt>
      <trkpt lat="40.236383" lon="-4.655617">
        <ele>1955.0</ele>
        <time>2018-09-16T14:09:18Z</time>
      </trkpt>
      <trkpt lat="40.236383" lon="-4.655533">
        <ele>1954.0</ele>
        <time>2018-09-16T14:09:19Z</time>
      </trkpt>
      <trkpt lat="40.236383" lon="-4.655450">
        <ele>1952.0</ele>
        <time>2018-09-16T14:09:20Z</time>
      </trkpt>
      <trkpt lat="40.236383" lon="-4.655350">
        <ele>1952.0</ele>
        <time>2018-09-16T14:09:21Z</time>
      </trkpt>
      <trkpt lat="40.236400" lon="-4.655267">
        <ele>1952.0</ele>
        <time>2018-09-16T14:09:22Z</time>
      </trkpt>
      <trkpt lat="40.236417" lon="-4.655183">
        <ele>1952.0</ele>
        <time>2018-09-16T14:09:23Z</time>
      </trkpt>
      <trkpt lat="40.236433" lon="-4.655117">
        <ele>1951.0</ele>
        <time>2018-09-16T14:09:24Z</time>
      </trkpt>
      <trkpt lat="40.236433" lon="-4.655033">
        <ele>1950.0</ele>
        <time>2018-09-16T14:09:25Z</time>
      </trkpt>
      <trkpt lat="40.236433" lon="-4.654950">
        <ele>1949.0</ele>
        <time>2018-09-16T14:09:26Z</time>
      </trkpt>
      <trkpt lat="40.236450" lon="-4.654850">
        <ele>1948.0</ele>
        <time>2018-09-16T14:09:27Z</time>
      </trkpt>
      <trkpt lat="40.236467" lon="-4.654750">
        <ele>1947.0</ele>
        <time>2018-09-16T14:09:28Z</time>
      </trkpt>
      <trkpt lat="40.236500" lon="-4.654650">
        <ele>1947.0</ele>
        <time>2018-09-16T14:09:29Z</time>
      </trkpt>
      <trkpt lat="40.236550" lon="-4.654550">
        <ele>1947.0</ele>
        <time>2018-09-16T14:09:30Z</time>
      </trkpt>
      <trkpt lat="40.236600" lon="-4.654450">
        <ele>1948.0</ele>
        <time>2018-09-16T14:09:31Z</time>
      </trkpt>
      <trkpt lat="40.236633" lon="-4.654350">
        <ele>1948.0</ele>
        <time>2018-09-16T14:09:32Z</time>
      </trkpt>
      <trkpt lat="40.236667" lon="-4.654267">
        <ele>1947.0</ele>
        <time>2018-09-16T14:09:33Z</time>
      </trkpt>
      <trkpt lat="40.236683" lon="-4.654167">
        <ele>1946.0</ele>
        <time>2018-09-16T14:09:34Z</time>
      </trkpt>
      <trkpt lat="40.236717" lon="-4.654067">
        <ele>1945.0</ele>
        <time>2018-09-16T14:09:35Z</time>
      </trkpt>
      <trkpt lat="40.236750" lon="-4.653967">
        <ele>1943.0</ele>
        <time>2018-09-16T14:09:36Z</time>
      </trkpt>
      <trkpt lat="40.236783" lon="-4.653850">
        <ele>1941.0</ele>
        <time>2018-09-16T14:09:37Z</time>
      </trkpt>
      <trkpt lat="40.236817" lon="-4.653750">
        <ele>1938.0</ele>
        <time>2018-09-16T14:09:38Z</time>
      </trkpt>
      <trkpt lat="40.236850" lon="-4.653633">
        <ele>1937.0</ele>
        <time>2018-09-16T14:09:39Z</time>
      </trkpt>
      <trkpt lat="40.236883" lon="-4.653517">
        <ele>1935.0</ele>
        <time>2018-09-16T14:09:40Z</time>
      </trkpt>
      <trkpt lat="40.236917" lon="-4.653383">
        <ele>1933.0</ele>
        <time>2018-09-16T14:09:41Z</time>
      </trkpt>
      <trkpt lat="40.236967" lon="-4.653250">
        <ele>1931.0</ele>
        <time>2018-09-16T14:09:42Z</time>
      </trkpt>
      <trkpt lat="40.237000" lon="-4.653117">
        <ele>1930.0</ele>
        <time>2018-09-16T14:09:43Z</time>
      </trkpt>
      <trkpt lat="40.237017" lon="-4.653000">
        <ele>1931.0</ele>
        <time>2018-09-16T14:09:44Z</time>
      </trkpt>
      <trkpt lat="40.237033" lon="-4.652883">
        <ele>1930.0</ele>
        <time>2018-09-16T14:09:45Z</time>
      </trkpt>
      <trkpt lat="40.237050" lon="-4.652767">
        <ele>1930.0</ele>
        <time>2018-09-16T14:09:46Z</time>
      </trkpt>
      <trkpt lat="40.237067" lon="-4.652650">
        <ele>1928.0</ele>
        <time>2018-09-16T14:09:47Z</time>
      </trkpt>
      <trkpt lat="40.237067" lon="-4.652533">
        <ele>1926.0</ele>
        <time>2018-09-16T14:09:48Z</time>
      </trkpt>
      <trkpt lat="40.237083" lon="-4.652400">
        <ele>1925.0</ele>
        <time>2018-09-16T14:09:49Z</time>
      </trkpt>
      <trkpt lat="40.237067" lon="-4.652267">
        <ele>1924.0</ele>
        <time>2018-09-16T14:09:50Z</time>
      </trkpt>
      <trkpt lat="40.237050" lon="-4.652150">
        <ele>1924.0</ele>
        <time>2018-09-16T14:09:51Z</time>
      </trkpt>
      <trkpt lat="40.237050" lon="-4.652050">
        <ele>1924.0</ele>
        <time>2018-09-16T14:09:52Z</time>
      </trkpt>
      <trkpt lat="40.237033" lon="-4.651933">
        <ele>1924.0</ele>
        <time>2018-09-16T14:09:53Z</time>
      </trkpt>
      <trkpt lat="40.237033" lon="-4.651833">
        <ele>1922.0</ele>
        <time>2018-09-16T14:09:54Z</time>
      </trkpt>
      <trkpt lat="40.237017" lon="-4.651717">
        <ele>1919.0</ele>
        <time>2018-09-16T14:09:55Z</time>
      </trkpt>
      <trkpt lat="40.237017" lon="-4.651583">
        <ele>1917.0</ele>
        <time>2018-09-16T14:09:56Z</time>
      </trkpt>
      <trkpt lat="40.237000" lon="-4.651433">
        <ele>1915.0</ele>
        <time>2018-09-16T14:09:57Z</time>
      </trkpt>
      <trkpt lat="40.236983" lon="-4.651300">
        <ele>1915.0</ele>
        <time>2018-09-16T14:09:58Z</time>
      </trkpt>
      <trkpt lat="40.236983" lon="-4.651167">
        <ele>1915.0</ele>
        <time>2018-09-16T14:09:59Z</time>
      </trkpt>
      <trkpt lat="40.236967" lon="-4.651050">
        <ele>1915.0</ele>
        <time>2018-09-16T14:10:00Z</time>
      </trkpt>
      <trkpt lat="40.236950" lon="-4.650933">
        <ele>1914.0</ele>
        <time>2018-09-16T14:10:01Z</time>
      </trkpt>
      <trkpt lat="40.236950" lon="-4.650817">
        <ele>1913.0</ele>
        <time>2018-09-16T14:10:02Z</time>
      </trkpt>
      <trkpt lat="40.236933" lon="-4.650683">
        <ele>1912.0</ele>
        <time>2018-09-16T14:10:03Z</time>
      </trkpt>
      <trkpt lat="40.236933" lon="-4.650550">
        <ele>1911.0</ele>
        <time>2018-09-16T14:10:04Z</time>
      </trkpt>
      <trkpt lat="40.236933" lon="-4.650417">
        <ele>1910.0</ele>
        <time>2018-09-16T14:10:05Z</time>
      </trkpt>
      <trkpt lat="40.236933" lon="-4.650300">
        <ele>1910.0</ele>
        <time>2018-09-16T14:10:06Z</time>
      </trkpt>
      <trkpt lat="40.236917" lon="-4.650167">
        <ele>1909.0</ele>
        <time>2018-09-16T14:10:07Z</time>
      </trkpt>
      <trkpt lat="40.236917" lon="-4.650050">
        <ele>1909.0</ele>
        <time>2018-09-16T14:10:08Z</time>
      </trkpt>
      <trkpt lat="40.236917" lon="-4.649917">
        <ele>1908.0</ele>
        <time>2018-09-16T14:10:09Z</time>
      </trkpt>
      <trkpt lat="40.236917" lon="-4.649800">
        <ele>1908.0</ele>
        <time>2018-09-16T14:10:10Z</time>
      </trkpt>
      <trkpt lat="40.236900" lon="-4.649683">
        <ele>1907.0</ele>
        <time>2018-09-16T14:10:11Z</time>
      </trkpt>
      <trkpt lat="40.236900" lon="-4.649550">
        <ele>1906.0</ele>
        <time>2018-09-16T14:10:12Z</time>
      </trkpt>
      <trkpt lat="40.236883" lon="-4.649433">
        <ele>1906.0</ele>
        <time>2018-09-16T14:10:13Z</time>
      </trkpt>
      <trkpt lat="40.236883" lon="-4.649317">
        <ele>1906.0</ele>
        <time>2018-09-16T14:10:14Z</time>
      </trkpt>
      <trkpt lat="40.236867" lon="-4.649200">
        <ele>1906.0</ele>
        <time>2018-09-16T14:10:15Z</time>
      </trkpt>
      <trkpt lat="40.236850" lon="-4.649083">
        <ele>1905.0</ele>
        <time>2018-09-16T14:10:16Z</time>
      </trkpt>
      <trkpt lat="40.236833" lon="-4.648950">
        <ele>1904.0</ele>
        <time>2018-09-16T14:10:17Z</time>
      </trkpt>
      <trkpt lat="40.236817" lon="-4.648833">
        <ele>1903.0</ele>
        <time>2018-09-16T14:10:18Z</time>
      </trkpt>
      <trkpt lat="40.236800" lon="-4.648700">
        <ele>1903.0</ele>
        <time>2018-09-16T14:10:19Z</time>
      </trkpt>
      <trkpt lat="40.236783" lon="-4.648583">
        <ele>1903.0</ele>
        <time>2018-09-16T14:10:20Z</time>
      </trkpt>
      <trkpt lat="40.236767" lon="-4.648467">
        <ele>1903.0</ele>
        <time>2018-09-16T14:10:21Z</time>
      </trkpt>
      <trkpt lat="40.236733" lon="-4.648367">
        <ele>1902.0</ele>
        <time>2018-09-16T14:10:22Z</time>
      </trkpt>
      <trkpt lat="40.236700" lon="-4.648250">
        <ele>1902.0</ele>
        <time>2018-09-16T14:10:23Z</time>
      </trkpt>
      <trkpt lat="40.236683" lon="-4.648150">
        <ele>1901.0</ele>
        <time>2018-09-16T14:10:24Z</time>
      </trkpt>
      <trkpt lat="40.236650" lon="-4.648033">
        <ele>1900.0</ele>
        <time>2018-09-16T14:10:25Z</time>
      </trkpt>
      <trkpt lat="40.236617" lon="-4.647933">
        <ele>1898.0</ele>
        <time>2018-09-16T14:10:26Z</time>
      </trkpt>
      <trkpt lat="40.236583" lon="-4.647817">
        <ele>1896.0</ele>
        <time>2018-09-16T14:10:27Z</time>
      </trkpt>
      <trkpt lat="40.236550" lon="-4.647717">
        <ele>1894.0</ele>
        <time>2018-09-16T14:10:28Z</time>
      </trkpt>
      <trkpt lat="40.236517" lon="-4.647600">
        <ele>1893.0</ele>
        <time>2018-09-16T14:10:29Z</time>
      </trkpt>
      <trkpt lat="40.236517" lon="-4.647483">
        <ele>1892.0</ele>
        <time>2018-09-16T14:10:30Z</time>
      </trkpt>
      <trkpt lat="40.236500" lon="-4.647367">
        <ele>1891.0</ele>
        <time>2018-09-16T14:10:31Z</time>
      </trkpt>
      <trkpt lat="40.236467" lon="-4.647250">
        <ele>1889.0</ele>
        <time>2018-09-16T14:10:32Z</time>
      </trkpt>
      <trkpt lat="40.236433" lon="-4.647133">
        <ele>1887.0</ele>
        <time>2018-09-16T14:10:33Z</time>
      </trkpt>
      <trkpt lat="40.236400" lon="-4.647017">
        <ele>1886.0</ele>
        <time>2018-09-16T14:10:34Z</time>
      </trkpt>
      <trkpt lat="40.236383" lon="-4.646900">
        <ele>1884.0</ele>
        <time>2018-09-16T14:10:35Z</time>
      </trkpt>
      <trkpt lat="40.236367" lon="-4.646767">
        <ele>1882.0</ele>
        <time>2018-09-16T14:10:36Z</time>
      </trkpt>
      <trkpt lat="40.236350" lon="-4.646650">
        <ele>1880.0</ele>
        <time>2018-09-16T14:10:37Z</time>
      </trkpt>
      <trkpt lat="40.236333" lon="-4.646517">
        <ele>1878.0</ele>
        <time>2018-09-16T14:10:38Z</time>
      </trkpt>
      <trkpt lat="40.236333" lon="-4.646383">
        <ele>1876.0</ele>
        <time>2018-09-16T14:10:39Z</time>
      </trkpt>
      <trkpt lat="40.236317" lon="-4.646250">
        <ele>1874.0</ele>
        <time>2018-09-16T14:10:40Z</time>
      </trkpt>
      <trkpt lat="40.236317" lon="-4.646100">
        <ele>1872.0</ele>
        <time>2018-09-16T14:10:41Z</time>
      </trkpt>
      <trkpt lat="40.236317" lon="-4.645967">
        <ele>1870.0</ele>
        <time>2018-09-16T14:10:42Z</time>
      </trkpt>
      <trkpt lat="40.236333" lon="-4.645833">
        <ele>1869.0</ele>
        <time>2018-09-16T14:10:43Z</time>
      </trkpt>
      <trkpt lat="40.236350" lon="-4.645700">
        <ele>1868.0</ele>
        <time>2018-09-16T14:10:44Z</time>
      </trkpt>
      <trkpt lat="40.236350" lon="-4.645567">
        <ele>1866.0</ele>
        <time>2018-09-16T14:10:45Z</time>
      </trkpt>
      <trkpt lat="40.236367" lon="-4.645433">
        <ele>1865.0</ele>
        <time>2018-09-16T14:10:46Z</time>
      </trkpt>
      <trkpt lat="40.236383" lon="-4.645317">
        <ele>1862.0</ele>
        <time>2018-09-16T14:10:47Z</time>
      </trkpt>
      <trkpt lat="40.236383" lon="-4.645183">
        <ele>1860.0</ele>
        <time>2018-09-16T14:10:48Z</time>
      </trkpt>
      <trkpt lat="40.236383" lon="-4.645050">
        <ele>1858.0</ele>
        <time>2018-09-16T14:10:49Z</time>
      </trkpt>
      <trkpt lat="40.236383" lon="-4.644917">
        <ele>1856.0</ele>
        <time>2018-09-16T14:10:50Z</time>
      </trkpt>
      <trkpt lat="40.236383" lon="-4.644767">
        <ele>1854.0</ele>
        <time>2018-09-16T14:10:51Z</time>
      </trkpt>
      <trkpt lat="40.236383" lon="-4.644633">
        <ele>1853.0</ele>
        <time>2018-09-16T14:10:52Z</time>
      </trkpt>
      <trkpt lat="40.236383" lon="-4.644500">
        <ele>1850.0</ele>
        <time>2018-09-16T14:10:53Z</time>
      </trkpt>
      <trkpt lat="40.236400" lon="-4.644367">
        <ele>1849.0</ele>
        <time>2018-09-16T14:10:54Z</time>
      </trkpt>
      <trkpt lat="40.236383" lon="-4.644250">
        <ele>1847.0</ele>
        <time>2018-09-16T14:10:55Z</time>
      </trkpt>
      <trkpt lat="40.236383" lon="-4.644117">
        <ele>1844.0</ele>
        <time>2018-09-16T14:10:56Z</time>
      </trkpt>
      <trkpt lat="40.236367" lon="-4.643983">
        <ele>1842.0</ele>
        <time>2018-09-16T14:10:57Z</time>
      </trkpt>
      <trkpt lat="40.236350" lon="-4.643850">
        <ele>1840.0</ele>
        <time>2018-09-16T14:10:58Z</time>
      </trkpt>
      <trkpt lat="40.236350" lon="-4.643700">
        <ele>1837.0</ele>
        <time>2018-09-16T14:10:59Z</time>
      </trkpt>
      <trkpt lat="40.236367" lon="-4.643567">
        <ele>1835.0</ele>
        <time>2018-09-16T14:11:00Z</time>
      </trkpt>
      <trkpt lat="40.236367" lon="-4.643433">
        <ele>1833.0</ele>
        <time>2018-09-16T14:11:01Z</time>
      </trkpt>
      <trkpt lat="40.236367" lon="-4.643300">
        <ele>1831.0</ele>
        <time>2018-09-16T14:11:02Z</time>
      </trkpt>
      <trkpt lat="40.236367" lon="-4.643167">
        <ele>1829.0</ele>
        <time>2018-09-16T14:11:03Z</time>
      </trkpt>
      <trkpt lat="40.236367" lon="-4.643033">
        <ele>1826.0</ele>
        <time>2018-09-16T14:11:04Z</time>
      </trkpt>
      <trkpt lat="40.236383" lon="-4.642900">
        <ele>1824.0</ele>
        <time>2018-09-16T14:11:05Z</time>
      </trkpt>
      <trkpt lat="40.236400" lon="-4.642767">
        <ele>1821.0</ele>
        <time>2018-09-16T14:11:06Z</time>
      </trkpt>
      <trkpt lat="40.236417" lon="-4.642650">
        <ele>1818.0</ele>
        <time>2018-09-16T14:11:07Z</time>
      </trkpt>
      <trkpt lat="40.236433" lon="-4.642517">
        <ele>1816.0</ele>
        <time>2018-09-16T14:11:08Z</time>
      </trkpt>
      <trkpt lat="40.236433" lon="-4.642383">
        <ele>1813.0</ele>
        <time>2018-09-16T14:11:09Z</time>
      </trkpt>
      <trkpt lat="40.236450" lon="-4.642267">
        <ele>1810.0</ele>
        <time>2018-09-16T14:11:10Z</time>
      </trkpt>
      <trkpt lat="40.236467" lon="-4.642133">
        <ele>1808.0</ele>
        <time>2018-09-16T14:11:11Z</time>
      </trkpt>
      <trkpt lat="40.236483" lon="-4.642017">
        <ele>1805.0</ele>
        <time>2018-09-16T14:11:12Z</time>
      </trkpt>
      <trkpt lat="40.236500" lon="-4.641900">
        <ele>1802.0</ele>
        <time>2018-09-16T14:11:13Z</time>
      </trkpt>
      <trkpt lat="40.236533" lon="-4.641783">
        <ele>1798.0</ele>
        <time>2018-09-16T14:11:14Z</time>
      </trkpt>
      <trkpt lat="40.236550" lon="-4.641667">
        <ele>1795.0</ele>
        <time>2018-09-16T14:11:15Z</time>
      </trkpt>
      <trkpt lat="40.236567" lon="-4.641550">
        <ele>1792.0</ele>
        <time>2018-09-16T14:11:16Z</time>
      </trkpt>
      <trkpt lat="40.236600" lon="-4.641433">
        <ele>1788.0</ele>
        <time>2018-09-16T14:11:17Z</time>
      </trkpt>
      <trkpt lat="40.236633" lon="-4.641317">
        <ele>1785.0</ele>
        <time>2018-09-16T14:11:18Z</time>
      </trkpt>
      <trkpt lat="40.236667" lon="-4.641200">
        <ele>1782.0</ele>
        <time>2018-09-16T14:11:19Z</time>
      </trkpt>
      <trkpt lat="40.236683" lon="-4.641083">
        <ele>1778.0</ele>
        <time>2018-09-16T14:11:20Z</time>
      </trkpt>
      <trkpt lat="40.236717" lon="-4.640967">
        <ele>1774.0</ele>
        <time>2018-09-16T14:11:21Z</time>
      </trkpt>
      <trkpt lat="40.236733" lon="-4.640833">
        <ele>1770.0</ele>
        <time>2018-09-16T14:11:22Z</time>
      </trkpt>
      <trkpt lat="40.236750" lon="-4.640700">
        <ele>1767.0</ele>
        <time>2018-09-16T14:11:23Z</time>
      </trkpt>
      <trkpt lat="40.236767" lon="-4.640567">
        <ele>1765.0</ele>
        <time>2018-09-16T14:11:24Z</time>
      </trkpt>
      <trkpt lat="40.236783" lon="-4.640450">
        <ele>1762.0</ele>
        <time>2018-09-16T14:11:25Z</time>
      </trkpt>
      <trkpt lat="40.236817" lon="-4.640350">
        <ele>1760.0</ele>
        <time>2018-09-16T14:11:26Z</time>
      </trkpt>
      <trkpt lat="40.236833" lon="-4.640233">
        <ele>1756.0</ele>
        <time>2018-09-16T14:11:27Z</time>
      </trkpt>
      <trkpt lat="40.236867" lon="-4.640117">
        <ele>1752.0</ele>
        <time>2018-09-16T14:11:28Z</time>
      </trkpt>
      <trkpt lat="40.236883" lon="-4.639983">
        <ele>1747.0</ele>
        <time>2018-09-16T14:11:29Z</time>
      </trkpt>
      <trkpt lat="40.236917" lon="-4.639850">
        <ele>1743.0</ele>
        <time>2018-09-16T14:11:30Z</time>
      </trkpt>
      <trkpt lat="40.236933" lon="-4.639717">
        <ele>1740.0</ele>
        <time>2018-09-16T14:11:31Z</time>
      </trkpt>
      <trkpt lat="40.236967" lon="-4.639583">
        <ele>1739.0</ele>
        <time>2018-09-16T14:11:32Z</time>
      </trkpt>
      <trkpt lat="40.237000" lon="-4.639483">
        <ele>1737.0</ele>
        <time>2018-09-16T14:11:33Z</time>
      </trkpt>
      <trkpt lat="40.237033" lon="-4.639383">
        <ele>1736.0</ele>
        <time>2018-09-16T14:11:34Z</time>
      </trkpt>
      <trkpt lat="40.237050" lon="-4.639283">
        <ele>1733.0</ele>
        <time>2018-09-16T14:11:35Z</time>
      </trkpt>
      <trkpt lat="40.237067" lon="-4.639183">
        <ele>1729.0</ele>
        <time>2018-09-16T14:11:36Z</time>
      </trkpt>
      <trkpt lat="40.237083" lon="-4.639067">
        <ele>1725.0</ele>
        <time>2018-09-16T14:11:37Z</time>
      </trkpt>
      <trkpt lat="40.237100" lon="-4.638933">
        <ele>1721.0</ele>
        <time>2018-09-16T14:11:38Z</time>
      </trkpt>
      <trkpt lat="40.237117" lon="-4.638800">
        <ele>1718.0</ele>
        <time>2018-09-16T14:11:39Z</time>
      </trkpt>
      <trkpt lat="40.237133" lon="-4.638683">
        <ele>1716.0</ele>
        <time>2018-09-16T14:11:40Z</time>
      </trkpt>
      <trkpt lat="40.237167" lon="-4.638567">
        <ele>1715.0</ele>
        <time>2018-09-16T14:11:41Z</time>
      </trkpt>
      <trkpt lat="40.237183" lon="-4.638450">
        <ele>1712.0</ele>
        <time>2018-09-16T14:11:42Z</time>
      </trkpt>
      <trkpt lat="40.237200" lon="-4.638333">
        <ele>1710.0</ele>
        <time>2018-09-16T14:11:43Z</time>
      </trkpt>
      <trkpt lat="40.237217" lon="-4.638217">
        <ele>1706.0</ele>
        <time>2018-09-16T14:11:44Z</time>
      </trkpt>
      <trkpt lat="40.237233" lon="-4.638100">
        <ele>1702.0</ele>
        <time>2018-09-16T14:11:45Z</time>
      </trkpt>
      <trkpt lat="40.237233" lon="-4.637967">
        <ele>1698.0</ele>
        <time>2018-09-16T14:11:46Z</time>
      </trkpt>
      <trkpt lat="40.237233" lon="-4.637833">
        <ele>1695.0</ele>
        <time>2018-09-16T14:11:47Z</time>
      </trkpt>
      <trkpt lat="40.237233" lon="-4.637717">
        <ele>1692.0</ele>
        <time>2018-09-16T14:11:48Z</time>
      </trkpt>
      <trkpt lat="40.237233" lon="-4.637583">
        <ele>1690.0</ele>
        <time>2018-09-16T14:11:49Z</time>
      </trkpt>
      <trkpt lat="40.237233" lon="-4.637483">
        <ele>1689.0</ele>
        <time>2018-09-16T14:11:50Z</time>
      </trkpt>
      <trkpt lat="40.237233" lon="-4.637367">
        <ele>1686.0</ele>
        <time>2018-09-16T14:11:51Z</time>
      </trkpt>
      <trkpt lat="40.237233" lon="-4.637267">
        <ele>1683.0</ele>
        <time>2018-09-16T14:11:52Z</time>
      </trkpt>
      <trkpt lat="40.237233" lon="-4.637150">
        <ele>1679.0</ele>
        <time>2018-09-16T14:11:53Z</time>
      </trkpt>
      <trkpt lat="40.237250" lon="-4.637033">
        <ele>1675.0</ele>
        <time>2018-09-16T14:11:54Z</time>
      </trkpt>
      <trkpt lat="40.237267" lon="-4.636900">
        <ele>1671.0</ele>
        <time>2018-09-16T14:11:55Z</time>
      </trkpt>
      <trkpt lat="40.237283" lon="-4.636750">
        <ele>1668.0</ele>
        <time>2018-09-16T14:11:56Z</time>
      </trkpt>
      <trkpt lat="40.237300" lon="-4.636617">
        <ele>1666.0</ele>
        <time>2018-09-16T14:11:57Z</time>
      </trkpt>
      <trkpt lat="40.237317" lon="-4.636483">
        <ele>1664.0</ele>
        <time>2018-09-16T14:11:58Z</time>
      </trkpt>
      <trkpt lat="40.237333" lon="-4.636367">
        <ele>1662.0</ele>
        <time>2018-09-16T14:11:59Z</time>
      </trkpt>
      <trkpt lat="40.237350" lon="-4.636250">
        <ele>1658.0</ele>
        <time>2018-09-16T14:12:00Z</time>
      </trkpt>
      <trkpt lat="40.237383" lon="-4.636117">
        <ele>1655.0</ele>
        <time>2018-09-16T14:12:01Z</time>
      </trkpt>
      <trkpt lat="40.237400" lon="-4.635983">
        <ele>1651.0</ele>
        <time>2018-09-16T14:12:02Z</time>
      </trkpt>
      <trkpt lat="40.237433" lon="-4.635833">
        <ele>1648.0</ele>
        <time>2018-09-16T14:12:03Z</time>
      </trkpt>
      <trkpt lat="40.237467" lon="-4.635700">
        <ele>1646.0</ele>
        <time>2018-09-16T14:12:04Z</time>
      </trkpt>
      <trkpt lat="40.237500" lon="-4.635567">
        <ele>1644.0</ele>
        <time>2018-09-16T14:12:05Z</time>
      </trkpt>
      <trkpt lat="40.237533" lon="-4.635450">
        <ele>1643.0</ele>
        <time>2018-09-16T14:12:06Z</time>
      </trkpt>
      <trkpt lat="40.237567" lon="-4.635317">
        <ele>1640.0</ele>
        <time>2018-09-16T14:12:07Z</time>
      </trkpt>
      <trkpt lat="40.237583" lon="-4.635200">
        <ele>1637.0</ele>
        <time>2018-09-16T14:12:08Z</time>
      </trkpt>
      <trkpt lat="40.237600" lon="-4.635067">
        <ele>1634.0</ele>
        <time>2018-09-16T14:12:09Z</time>
      </trkpt>
      <trkpt lat="40.237617" lon="-4.634933">
        <ele>1631.0</ele>
        <time>2018-09-16T14:12:10Z</time>
      </trkpt>
      <trkpt lat="40.237650" lon="-4.634783">
        <ele>1628.0</ele>
        <time>2018-09-16T14:12:11Z</time>
      </trkpt>
      <trkpt lat="40.237667" lon="-4.634650">
        <ele>1625.0</ele>
        <time>2018-09-16T14:12:12Z</time>
      </trkpt>
      <trkpt lat="40.237683" lon="-4.634517">
        <ele>1622.0</ele>
        <time>2018-09-16T14:12:13Z</time>
      </trkpt>
      <trkpt lat="40.237717" lon="-4.634367">
        <ele>1620.0</ele>
        <time>2018-09-16T14:12:14Z</time>
      </trkpt>
      <trkpt lat="40.237733" lon="-4.634233">
        <ele>1617.0</ele>
        <time>2018-09-16T14:12:15Z</time>
      </trkpt>
      <trkpt lat="40.237750" lon="-4.634100">
        <ele>1615.0</ele>
        <time>2018-09-16T14:12:16Z</time>
      </trkpt>
      <trkpt lat="40.237767" lon="-4.633967">
        <ele>1612.0</ele>
        <time>2018-09-16T14:12:17Z</time>
      </trkpt>
      <trkpt lat="40.237783" lon="-4.633833">
        <ele>1610.0</ele>
        <time>2018-09-16T14:12:18Z</time>
      </trkpt>
      <trkpt lat="40.237800" lon="-4.633683">
        <ele>1607.0</ele>
        <time>2018-09-16T14:12:19Z</time>
      </trkpt>
      <trkpt lat="40.237800" lon="-4.633550">
        <ele>1604.0</ele>
        <time>2018-09-16T14:12:20Z</time>
      </trkpt>
      <trkpt lat="40.237817" lon="-4.633400">
        <ele>1603.0</ele>
        <time>2018-09-16T14:12:21Z</time>
      </trkpt>
      <trkpt lat="40.237833" lon="-4.633267">
        <ele>1601.0</ele>
        <time>2018-09-16T14:12:22Z</time>
      </trkpt>
      <trkpt lat="40.237850" lon="-4.633133">
        <ele>1599.0</ele>
        <time>2018-09-16T14:12:23Z</time>
      </trkpt>
      <trkpt lat="40.237850" lon="-4.633000">
        <ele>1597.0</ele>
        <time>2018-09-16T14:12:24Z</time>
      </trkpt>
      <trkpt lat="40.237850" lon="-4.632867">
        <ele>1594.0</ele>
        <time>2018-09-16T14:12:25Z</time>
      </trkpt>
      <trkpt lat="40.237850" lon="-4.632717">
        <ele>1591.0</ele>
        <time>2018-09-16T14:12:26Z</time>
      </trkpt>
      <trkpt lat="40.237850" lon="-4.632567">
        <ele>1588.0</ele>
        <time>2018-09-16T14:12:27Z</time>
      </trkpt>
      <trkpt lat="40.237867" lon="-4.632433">
        <ele>1586.0</ele>
        <time>2018-09-16T14:12:28Z</time>
      </trkpt>
      <trkpt lat="40.237867" lon="-4.632283">
        <ele>1584.0</ele>
        <time>2018-09-16T14:12:29Z</time>
      </trkpt>
      <trkpt lat="40.237867" lon="-4.632167">
        <ele>1582.0</ele>
        <time>2018-09-16T14:12:30Z</time>
      </trkpt>
      <trkpt lat="40.237883" lon="-4.632033">
        <ele>1580.0</ele>
        <time>2018-09-16T14:12:31Z</time>
      </trkpt>
      <trkpt lat="40.237883" lon="-4.631900">
        <ele>1578.0</ele>
        <time>2018-09-16T14:12:32Z</time>
      </trkpt>
      <trkpt lat="40.237900" lon="-4.631783">
        <ele>1576.0</ele>
        <time>2018-09-16T14:12:33Z</time>
      </trkpt>
      <trkpt lat="40.237917" lon="-4.631650">
        <ele>1573.0</ele>
        <time>2018-09-16T14:12:34Z</time>
      </trkpt>
      <trkpt lat="40.237933" lon="-4.631517">
        <ele>1569.0</ele>
        <time>2018-09-16T14:12:35Z</time>
      </trkpt>
      <trkpt lat="40.237933" lon="-4.631383">
        <ele>1566.0</ele>
        <time>2018-09-16T14:12:36Z</time>
      </trkpt>
      <trkpt lat="40.237933" lon="-4.631233">
        <ele>1563.0</ele>
        <time>2018-09-16T14:12:37Z</time>
      </trkpt>
      <trkpt lat="40.237933" lon="-4.631083">
        <ele>1560.0</ele>
        <time>2018-09-16T14:12:38Z</time>
      </trkpt>
      <trkpt lat="40.237950" lon="-4.630950">
        <ele>1558.0</ele>
        <time>2018-09-16T14:12:39Z</time>
      </trkpt>
      <trkpt lat="40.237967" lon="-4.630800">
        <ele>1557.0</ele>
        <time>2018-09-16T14:12:40Z</time>
      </trkpt>
      <trkpt lat="40.237983" lon="-4.630667">
        <ele>1555.0</ele>
        <time>2018-09-16T14:12:41Z</time>
      </trkpt>
      <trkpt lat="40.237983" lon="-4.630533">
        <ele>1553.0</ele>
        <time>2018-09-16T14:12:42Z</time>
      </trkpt>
      <trkpt lat="40.237983" lon="-4.630383">
        <ele>1550.0</ele>
        <time>2018-09-16T14:12:43Z</time>
      </trkpt>
      <trkpt lat="40.238000" lon="-4.630233">
        <ele>1547.0</ele>
        <time>2018-09-16T14:12:44Z</time>
      </trkpt>
      <trkpt lat="40.238000" lon="-4.630067">
        <ele>1545.0</ele>
        <time>2018-09-16T14:12:45Z</time>
      </trkpt>
      <trkpt lat="40.238000" lon="-4.629917">
        <ele>1544.0</ele>
        <time>2018-09-16T14:12:46Z</time>
      </trkpt>
      <trkpt lat="40.238000" lon="-4.629767">
        <ele>1543.0</ele>
        <time>2018-09-16T14:12:47Z</time>
      </trkpt>
      <trkpt lat="40.238000" lon="-4.629617">
        <ele>1542.0</ele>
        <time>2018-09-16T14:12:48Z</time>
      </trkpt>
      <trkpt lat="40.238000" lon="-4.629467">
        <ele>1540.0</ele>
        <time>2018-09-16T14:12:49Z</time>
      </trkpt>
      <trkpt lat="40.238017" lon="-4.629317">
        <ele>1538.0</ele>
        <time>2018-09-16T14:12:50Z</time>
      </trkpt>
      <trkpt lat="40.238017" lon="-4.629150">
        <ele>1537.0</ele>
        <time>2018-09-16T14:12:51Z</time>
      </trkpt>
      <trkpt lat="40.238033" lon="-4.629000">
        <ele>1537.0</ele>
        <time>2018-09-16T14:12:52Z</time>
      </trkpt>
      <trkpt lat="40.238033" lon="-4.628850">
        <ele>1537.0</ele>
        <time>2018-09-16T14:12:53Z</time>
      </trkpt>
      <trkpt lat="40.238033" lon="-4.628700">
        <ele>1537.0</ele>
        <time>2018-09-16T14:12:54Z</time>
      </trkpt>
      <trkpt lat="40.238033" lon="-4.628567">
        <ele>1536.0</ele>
        <time>2018-09-16T14:12:55Z</time>
      </trkpt>
      <trkpt lat="40.238033" lon="-4.628417">
        <ele>1535.0</ele>
        <time>2018-09-16T14:12:56Z</time>
      </trkpt>
      <trkpt lat="40.238033" lon="-4.628267">
        <ele>1534.0</ele>
        <time>2018-09-16T14:12:57Z</time>
      </trkpt>
      <trkpt lat="40.238067" lon="-4.628117">
        <ele>1535.0</ele>
        <time>2018-09-16T14:12:58Z</time>
      </trkpt>
      <trkpt lat="40.238083" lon="-4.627983">
        <ele>1536.0</ele>
        <time>2018-09-16T14:12:59Z</time>
      </trkpt>
      <trkpt lat="40.238100" lon="-4.627867">
        <ele>1537.0</ele>
        <time>2018-09-16T14:13:00Z</time>
      </trkpt>
      <trkpt lat="40.238117" lon="-4.627733">
        <ele>1537.0</ele>
        <time>2018-09-16T14:13:01Z</time>
      </trkpt>
      <trkpt lat="40.238133" lon="-4.627583">
        <ele>1536.0</ele>
        <time>2018-09-16T14:13:02Z</time>
      </trkpt>
      <trkpt lat="40.238167" lon="-4.627433">
        <ele>1537.0</ele>
        <time>2018-09-16T14:13:03Z</time>
      </trkpt>
      <trkpt lat="40.238217" lon="-4.627300">
        <ele>1539.0</ele>
        <time>2018-09-16T14:13:04Z</time>
      </trkpt>
      <trkpt lat="40.238267" lon="-4.627167">
        <ele>1542.0</ele>
        <time>2018-09-16T14:13:05Z</time>
      </trkpt>
      <trkpt lat="40.238317" lon="-4.627033">
        <ele>1545.0</ele>
        <time>2018-09-16T14:13:06Z</time>
      </trkpt>
      <trkpt lat="40.238367" lon="-4.626917">
        <ele>1547.0</ele>
        <time>2018-09-16T14:13:07Z</time>
      </trkpt>
      <trkpt lat="40.238417" lon="-4.626783">
        <ele>1550.0</ele>
        <time>2018-09-16T14:13:08Z</time>
      </trkpt>
      <trkpt lat="40.238467" lon="-4.626650">
        <ele>1551.0</ele>
        <time>2018-09-16T14:13:09Z</time>
      </trkpt>
      <trkpt lat="40.238517" lon="-4.626533">
        <ele>1553.0</ele>
        <time>2018-09-16T14:13:10Z</time>
      </trkpt>
      <trkpt lat="40.238567" lon="-4.626400">
        <ele>1554.0</ele>
        <time>2018-09-16T14:13:11Z</time>
      </trkpt>
      <trkpt lat="40.238617" lon="-4.626267">
        <ele>1555.0</ele>
        <time>2018-09-16T14:13:12Z</time>
      </trkpt>
      <trkpt lat="40.238650" lon="-4.626150">
        <ele>1555.0</ele>
        <time>2018-09-16T14:13:13Z</time>
      </trkpt>
      <trkpt lat="40.238667" lon="-4.626017">
        <ele>1556.0</ele>
        <time>2018-09-16T14:13:14Z</time>
      </trkpt>
      <trkpt lat="40.238683" lon="-4.625900">
        <ele>1556.0</ele>
        <time>2018-09-16T14:13:15Z</time>
      </trkpt>
      <trkpt lat="40.238717" lon="-4.625767">
        <ele>1557.0</ele>
        <time>2018-09-16T14:13:16Z</time>
      </trkpt>
      <trkpt lat="40.238750" lon="-4.625633">
        <ele>1560.0</ele>
        <time>2018-09-16T14:13:17Z</time>
      </trkpt>
      <trkpt lat="40.238767" lon="-4.625500">
        <ele>1563.0</ele>
        <time>2018-09-16T14:13:18Z</time>
      </trkpt>
      <trkpt lat="40.238783" lon="-4.625400">
        <ele>1567.0</ele>
        <time>2018-09-16T14:13:19Z</time>
      </trkpt>
      <trkpt lat="40.238800" lon="-4.625300">
        <ele>1571.0</ele>
        <time>2018-09-16T14:13:20Z</time>
      </trkpt>
      <trkpt lat="40.238833" lon="-4.625200">
        <ele>1574.0</ele>
        <time>2018-09-16T14:13:21Z</time>
      </trkpt>
      <trkpt lat="40.238850" lon="-4.625100">
        <ele>1576.0</ele>
        <time>2018-09-16T14:13:22Z</time>
      </trkpt>
      <trkpt lat="40.238883" lon="-4.625000">
        <ele>1578.0</ele>
        <time>2018-09-16T14:13:23Z</time>
      </trkpt>
      <trkpt lat="40.238900" lon="-4.624883">
        <ele>1580.0</ele>
        <time>2018-09-16T14:13:24Z</time>
      </trkpt>
      <trkpt lat="40.238917" lon="-4.624750">
        <ele>1583.0</ele>
        <time>2018-09-16T14:13:25Z</time>
      </trkpt>
      <trkpt lat="40.238933" lon="-4.624633">
        <ele>1587.0</ele>
        <time>2018-09-16T14:13:26Z</time>
      </trkpt>
      <trkpt lat="40.238933" lon="-4.624517">
        <ele>1591.0</ele>
        <time>2018-09-16T14:13:27Z</time>
      </trkpt>
      <trkpt lat="40.238950" lon="-4.624433">
        <ele>1595.0</ele>
        <time>2018-09-16T14:13:28Z</time>
      </trkpt>
      <trkpt lat="40.238967" lon="-4.624333">
        <ele>1597.0</ele>
        <time>2018-09-16T14:13:29Z</time>
      </trkpt>
      <trkpt lat="40.238983" lon="-4.624233">
        <ele>1597.0</ele>
        <time>2018-09-16T14:13:30Z</time>
      </trkpt>
      <trkpt lat="40.239000" lon="-4.624117">
        <ele>1598.0</ele>
        <time>2018-09-16T14:13:31Z</time>
      </trkpt>
      <trkpt lat="40.239017" lon="-4.623983">
        <ele>1599.0</ele>
        <time>2018-09-16T14:13:32Z</time>
      </trkpt>
      <trkpt lat="40.239033" lon="-4.623850">
        <ele>1602.0</ele>
        <time>2018-09-16T14:13:33Z</time>
      </trkpt>
      <trkpt lat="40.239050" lon="-4.623733">
        <ele>1605.0</ele>
        <time>2018-09-16T14:13:34Z</time>
      </trkpt>
      <trkpt lat="40.239067" lon="-4.623617">
        <ele>1608.0</ele>
        <time>2018-09-16T14:13:35Z</time>
      </trkpt>
      <trkpt lat="40.239083" lon="-4.623500">
        <ele>1611.0</ele>
        <time>2018-09-16T14:13:36Z</time>
      </trkpt>
      <trkpt lat="40.239100" lon="-4.623367">
        <ele>1612.0</ele>
        <time>2018-09-16T14:13:37Z</time>
      </trkpt>
      <trkpt lat="40.239117" lon="-4.623250">
        <ele>1613.0</ele>
        <time>2018-09-16T14:13:38Z</time>
      </trkpt>
      <trkpt lat="40.239133" lon="-4.623117">
        <ele>1614.0</ele>
        <time>2018-09-16T14:13:39Z</time>
      </trkpt>
      <trkpt lat="40.239167" lon="-4.622983">
        <ele>1615.0</ele>
        <time>2018-09-16T14:13:40Z</time>
      </trkpt>
      <trkpt lat="40.239183" lon="-4.622850">
        <ele>1617.0</ele>
        <time>2018-09-16T14:13:41Z</time>
      </trkpt>
      <trkpt lat="40.239183" lon="-4.622717">
        <ele>1618.0</ele>
        <time>2018-09-16T14:13:42Z</time>
      </trkpt>
      <trkpt lat="40.239183" lon="-4.622583">
        <ele>1619.0</ele>
        <time>2018-09-16T14:13:43Z</time>
      </trkpt>
      <trkpt lat="40.239183" lon="-4.622450">
        <ele>1623.0</ele>
        <time>2018-09-16T14:13:44Z</time>
      </trkpt>
      <trkpt lat="40.239200" lon="-4.622333">
        <ele>1628.0</ele>
        <time>2018-09-16T14:13:45Z</time>
      </trkpt>
      <trkpt lat="40.239200" lon="-4.622267">
        <ele>1632.0</ele>
        <time>2018-09-16T14:13:46Z</time>
      </trkpt>
      <trkpt lat="40.239217" lon="-4.622183">
        <ele>1635.0</ele>
        <time>2018-09-16T14:13:47Z</time>
      </trkpt>
      <trkpt lat="40.239233" lon="-4.622117">
        <ele>1636.0</ele>
        <time>2018-09-16T14:13:48Z</time>
      </trkpt>
      <trkpt lat="40.239250" lon="-4.622033">
        <ele>1637.0</ele>
        <time>2018-09-16T14:13:49Z</time>
      </trkpt>
      <trkpt lat="40.239250" lon="-4.621950">
        <ele>1637.0</ele>
        <time>2018-09-16T14:13:50Z</time>
      </trkpt>
      <trkpt lat="40.239250" lon="-4.621833">
        <ele>1636.0</ele>
        <time>2018-09-16T14:13:51Z</time>
      </trkpt>
      <trkpt lat="40.239250" lon="-4.621717">
        <ele>1637.0</ele>
        <time>2018-09-16T14:13:52Z</time>
      </trkpt>
      <trkpt lat="40.239233" lon="-4.621617">
        <ele>1639.0</ele>
        <time>2018-09-16T14:13:53Z</time>
      </trkpt>
      <trkpt lat="40.239217" lon="-4.621517">
        <ele>1641.0</ele>
        <time>2018-09-16T14:13:54Z</time>
      </trkpt>
      <trkpt lat="40.239217" lon="-4.621433">
        <ele>1643.0</ele>
        <time>2018-09-16T14:13:55Z</time>
      </trkpt>
      <trkpt lat="40.239200" lon="-4.621350">
        <ele>1644.0</ele>
        <time>2018-09-16T14:13:56Z</time>
      </trkpt>
      <trkpt lat="40.239183" lon="-4.621267">
        <ele>1645.0</ele>
        <time>2018-09-16T14:13:57Z</time>
      </trkpt>
      <trkpt lat="40.239167" lon="-4.621183">
        <ele>1646.0</ele>
        <time>2018-09-16T14:13:58Z</time>
      </trkpt>
      <trkpt lat="40.239150" lon="-4.621083">
        <ele>1647.0</ele>
        <time>2018-09-16T14:13:59Z</time>
      </trkpt>
      <trkpt lat="40.239133" lon="-4.620983">
        <ele>1648.0</ele>
        <time>2018-09-16T14:14:00Z</time>
      </trkpt>
      <trkpt lat="40.239117" lon="-4.620900">
        <ele>1650.0</ele>
        <time>2018-09-16T14:14:01Z</time>
      </trkpt>
      <trkpt lat="40.239117" lon="-4.620817">
        <ele>1651.0</ele>
        <time>2018-09-16T14:14:02Z</time>
      </trkpt>
      <trkpt lat="40.239100" lon="-4.620733">
        <ele>1652.0</ele>
        <time>2018-09-16T14:14:03Z</time>
      </trkpt>
      <trkpt lat="40.239067" lon="-4.620650">
        <ele>1651.0</ele>
        <time>2018-09-16T14:14:04Z</time>
      </trkpt>
      <trkpt lat="40.239050" lon="-4.620567">
        <ele>1651.0</ele>
        <time>2018-09-16T14:14:05Z</time>
      </trkpt>
      <trkpt lat="40.239033" lon="-4.620467">
        <ele>1650.0</ele>
        <time>2018-09-16T14:14:06Z</time>
      </trkpt>
      <trkpt lat="40.239017" lon="-4.620367">
        <ele>1651.0</ele>
        <time>2018-09-16T14:14:07Z</time>
      </trkpt>
      <trkpt lat="40.239000" lon="-4.620267">
        <ele>1652.0</ele>
        <time>2018-09-16T14:14:08Z</time>
      </trkpt>
      <trkpt lat="40.238983" lon="-4.620183">
        <ele>1653.0</ele>
        <time>2018-09-16T14:14:09Z</time>
      </trkpt>
      <trkpt lat="40.238983" lon="-4.620083">
        <ele>1654.0</ele>
        <time>2018-09-16T14:14:10Z</time>
      </trkpt>
      <trkpt lat="40.238967" lon="-4.620000">
        <ele>1653.0</ele>
        <time>2018-09-16T14:14:11Z</time>
      </trkpt>
      <trkpt lat="40.238950" lon="-4.619900">
        <ele>1651.0</ele>
        <time>2018-09-16T14:14:12Z</time>
      </trkpt>
      <trkpt lat="40.238950" lon="-4.619767">
        <ele>1650.0</ele>
        <time>2018-09-16T14:14:13Z</time>
      </trkpt>
      <trkpt lat="40.238950" lon="-4.619650">
        <ele>1650.0</ele>
        <time>2018-09-16T14:14:14Z</time>
      </trkpt>
      <trkpt lat="40.238950" lon="-4.619533">
        <ele>1650.0</ele>
        <time>2018-09-16T14:14:15Z</time>
      </trkpt>
      <trkpt lat="40.238933" lon="-4.619417">
        <ele>1650.0</ele>
        <time>2018-09-16T14:14:16Z</time>
      </trkpt>
      <trkpt lat="40.238933" lon="-4.619300">
        <ele>1650.0</ele>
        <time>2018-09-16T14:14:17Z</time>
      </trkpt>
      <trkpt lat="40.238917" lon="-4.619183">
        <ele>1649.0</ele>
        <time>2018-09-16T14:14:18Z</time>
      </trkpt>
      <trkpt lat="40.238917" lon="-4.619083">
        <ele>1647.0</ele>
        <time>2018-09-16T14:14:19Z</time>
      </trkpt>
      <trkpt lat="40.238917" lon="-4.618950">
        <ele>1643.0</ele>
        <time>2018-09-16T14:14:20Z</time>
      </trkpt>
      <trkpt lat="40.238917" lon="-4.618817">
        <ele>1638.0</ele>
        <time>2018-09-16T14:14:21Z</time>
      </trkpt>
      <trkpt lat="40.238933" lon="-4.618667">
        <ele>1633.0</ele>
        <time>2018-09-16T14:14:22Z</time>
      </trkpt>
      <trkpt lat="40.238933" lon="-4.618500">
        <ele>1629.0</ele>
        <time>2018-09-16T14:14:23Z</time>
      </trkpt>
      <trkpt lat="40.238933" lon="-4.618350">
        <ele>1626.0</ele>
        <time>2018-09-16T14:14:24Z</time>
      </trkpt>
      <trkpt lat="40.238933" lon="-4.618233">
        <ele>1625.0</ele>
        <time>2018-09-16T14:14:25Z</time>
      </trkpt>
      <trkpt lat="40.238933" lon="-4.618117">
        <ele>1624.0</ele>
        <time>2018-09-16T14:14:26Z</time>
      </trkpt>
      <trkpt lat="40.238933" lon="-4.618017">
        <ele>1622.0</ele>
        <time>2018-09-16T14:14:27Z</time>
      </trkpt>
      <trkpt lat="40.238917" lon="-4.617917">
        <ele>1618.0</ele>
        <time>2018-09-16T14:14:28Z</time>
      </trkpt>
      <trkpt lat="40.238917" lon="-4.617783">
        <ele>1613.0</ele>
        <time>2018-09-16T14:14:29Z</time>
      </trkpt>
      <trkpt lat="40.238900" lon="-4.617650">
        <ele>1609.0</ele>
        <time>2018-09-16T14:14:30Z</time>
      </trkpt>
      <trkpt lat="40.238883" lon="-4.617533">
        <ele>1606.0</ele>
        <time>2018-09-16T14:14:31Z</time>
      </trkpt>
      <trkpt lat="40.238850" lon="-4.617400">
        <ele>1603.0</ele>
        <time>2018-09-16T14:14:32Z</time>
      </trkpt>
      <trkpt lat="40.238833" lon="-4.617300">
        <ele>1602.0</ele>
        <time>2018-09-16T14:14:33Z</time>
      </trkpt>
      <trkpt lat="40.238817" lon="-4.617183">
        <ele>1600.0</ele>
        <time>2018-09-16T14:14:34Z</time>
      </trkpt>
      <trkpt lat="40.238800" lon="-4.617067">
        <ele>1598.0</ele>
        <time>2018-09-16T14:14:35Z</time>
      </trkpt>
      <trkpt lat="40.238800" lon="-4.616950">
        <ele>1595.0</ele>
        <time>2018-09-16T14:14:36Z</time>
      </trkpt>
      <trkpt lat="40.238783" lon="-4.616833">
        <ele>1593.0</ele>
        <time>2018-09-16T14:14:37Z</time>
      </trkpt>
      <trkpt lat="40.238767" lon="-4.616700">
        <ele>1590.0</ele>
        <time>2018-09-16T14:14:38Z</time>
      </trkpt>
      <trkpt lat="40.238767" lon="-4.616583">
        <ele>1587.0</ele>
        <time>2018-09-16T14:14:39Z</time>
      </trkpt>
      <trkpt lat="40.238767" lon="-4.616433">
        <ele>1584.0</ele>
        <time>2018-09-16T14:14:40Z</time>
      </trkpt>
      <trkpt lat="40.238767" lon="-4.616300">
        <ele>1582.0</ele>
        <time>2018-09-16T14:14:41Z</time>
      </trkpt>
      <trkpt lat="40.238783" lon="-4.616150">
        <ele>1580.0</ele>
        <time>2018-09-16T14:14:42Z</time>
      </trkpt>
      <trkpt lat="40.238783" lon="-4.616017">
        <ele>1579.0</ele>
        <time>2018-09-16T14:14:43Z</time>
      </trkpt>
      <trkpt lat="40.238767" lon="-4.615883">
        <ele>1578.0</ele>
        <time>2018-09-16T14:14:44Z</time>
      </trkpt>
      <trkpt lat="40.238767" lon="-4.615733">
        <ele>1577.0</ele>
        <time>2018-09-16T14:14:45Z</time>
      </trkpt>
      <trkpt lat="40.238783" lon="-4.615600">
        <ele>1576.0</ele>
        <time>2018-09-16T14:14:46Z</time>
      </trkpt>
      <trkpt lat="40.238783" lon="-4.615467">
        <ele>1575.0</ele>
        <time>2018-09-16T14:14:47Z</time>
      </trkpt>
      <trkpt lat="40.238783" lon="-4.615333">
        <ele>1573.0</ele>
        <time>2018-09-16T14:14:48Z</time>
      </trkpt>
      <trkpt lat="40.238800" lon="-4.615183">
        <ele>1572.0</ele>
        <time>2018-09-16T14:14:49Z</time>
      </trkpt>
      <trkpt lat="40.238817" lon="-4.615033">
        <ele>1570.0</ele>
        <time>2018-09-16T14:14:50Z</time>
      </trkpt>
      <trkpt lat="40.238833" lon="-4.614900">
        <ele>1570.0</ele>
        <time>2018-09-16T14:14:51Z</time>
      </trkpt>
      <trkpt lat="40.238833" lon="-4.614767">
        <ele>1570.0</ele>
        <time>2018-09-16T14:14:52Z</time>
      </trkpt>
      <trkpt lat="40.238850" lon="-4.614650">
        <ele>1569.0</ele>
        <time>2018-09-16T14:14:53Z</time>
      </trkpt>
      <trkpt lat="40.238867" lon="-4.614517">
        <ele>1569.0</ele>
        <time>2018-09-16T14:14:54Z</time>
      </trkpt>
      <trkpt lat="40.238883" lon="-4.614400">
        <ele>1568.0</ele>
        <time>2018-09-16T14:14:55Z</time>
      </trkpt>
      <trkpt lat="40.238917" lon="-4.614283">
        <ele>1566.0</ele>
        <time>2018-09-16T14:14:56Z</time>
      </trkpt>
      <trkpt lat="40.238933" lon="-4.614150">
        <ele>1564.0</ele>
        <time>2018-09-16T14:14:57Z</time>
      </trkpt>
      <trkpt lat="40.238967" lon="-4.614000">
        <ele>1562.0</ele>
        <time>2018-09-16T14:14:58Z</time>
      </trkpt>
      <trkpt lat="40.238983" lon="-4.613867">
        <ele>1561.0</ele>
        <time>2018-09-16T14:14:59Z</time>
      </trkpt>
      <trkpt lat="40.239000" lon="-4.613733">
        <ele>1560.0</ele>
        <time>2018-09-16T14:15:00Z</time>
      </trkpt>
      <trkpt lat="40.239033" lon="-4.613600">
        <ele>1559.0</ele>
        <time>2018-09-16T14:15:01Z</time>
      </trkpt>
      <trkpt lat="40.239050" lon="-4.613467">
        <ele>1558.0</ele>
        <time>2018-09-16T14:15:02Z</time>
      </trkpt>
      <trkpt lat="40.239067" lon="-4.613350">
        <ele>1556.0</ele>
        <time>2018-09-16T14:15:03Z</time>
      </trkpt>
      <trkpt lat="40.239083" lon="-4.613200">
        <ele>1554.0</ele>
        <time>2018-09-16T14:15:04Z</time>
      </trkpt>
      <trkpt lat="40.239100" lon="-4.613067">
        <ele>1553.0</ele>
        <time>2018-09-16T14:15:05Z</time>
      </trkpt>
      <trkpt lat="40.239117" lon="-4.612933">
        <ele>1551.0</ele>
        <time>2018-09-16T14:15:06Z</time>
      </trkpt>
      <trkpt lat="40.239133" lon="-4.612800">
        <ele>1550.0</ele>
        <time>2018-09-16T14:15:07Z</time>
      </trkpt>
      <trkpt lat="40.239133" lon="-4.612683">
        <ele>1548.0</ele>
        <time>2018-09-16T14:15:08Z</time>
      </trkpt>
      <trkpt lat="40.239133" lon="-4.612567">
        <ele>1546.0</ele>
        <time>2018-09-16T14:15:09Z</time>
      </trkpt>
      <trkpt lat="40.239133" lon="-4.612450">
        <ele>1544.0</ele>
        <time>2018-09-16T14:15:10Z</time>
      </trkpt>
      <trkpt lat="40.239100" lon="-4.612333">
        <ele>1541.0</ele>
        <time>2018-09-16T14:15:11Z</time>
      </trkpt>
      <trkpt lat="40.239083" lon="-4.612233">
        <ele>1538.0</ele>
        <time>2018-09-16T14:15:12Z</time>
      </trkpt>
      <trkpt lat="40.239050" lon="-4.612133">
        <ele>1534.0</ele>
        <time>2018-09-16T14:15:13Z</time>
      </trkpt>
      <trkpt lat="40.239033" lon="-4.612017">
        <ele>1532.0</ele>
        <time>2018-09-16T14:15:14Z</time>
      </trkpt>
      <trkpt lat="40.239000" lon="-4.611900">
        <ele>1529.0</ele>
        <time>2018-09-16T14:15:15Z</time>
      </trkpt>
      <trkpt lat="40.238983" lon="-4.611800">
        <ele>1527.0</ele>
        <time>2018-09-16T14:15:16Z</time>
      </trkpt>
      <trkpt lat="40.238967" lon="-4.611683">
        <ele>1525.0</ele>
        <time>2018-09-16T14:15:17Z</time>
      </trkpt>
      <trkpt lat="40.238967" lon="-4.611583">
        <ele>1523.0</ele>
        <time>2018-09-16T14:15:18Z</time>
      </trkpt>
      <trkpt lat="40.238983" lon="-4.611467">
        <ele>1520.0</ele>
        <time>2018-09-16T14:15:19Z</time>
      </trkpt>
      <trkpt lat="40.239000" lon="-4.611350">
        <ele>1517.0</ele>
        <time>2018-09-16T14:15:20Z</time>
      </trkpt>
      <trkpt lat="40.239017" lon="-4.611233">
        <ele>1514.0</ele>
        <time>2018-09-16T14:15:21Z</time>
      </trkpt>
      <trkpt lat="40.239017" lon="-4.611117">
        <ele>1511.0</ele>
        <time>2018-09-16T14:15:22Z</time>
      </trkpt>
      <trkpt lat="40.239017" lon="-4.611000">
        <ele>1508.0</ele>
        <time>2018-09-16T14:15:23Z</time>
      </trkpt>
      <trkpt lat="40.239017" lon="-4.610883">
        <ele>1505.0</ele>
        <time>2018-09-16T14:15:24Z</time>
      </trkpt>
      <trkpt lat="40.239017" lon="-4.610783">
        <ele>1503.0</ele>
        <time>2018-09-16T14:15:25Z</time>
      </trkpt>
      <trkpt lat="40.239017" lon="-4.610683">
        <ele>1500.0</ele>
        <time>2018-09-16T14:15:26Z</time>
      </trkpt>
      <trkpt lat="40.239000" lon="-4.610567">
        <ele>1497.0</ele>
        <time>2018-09-16T14:15:27Z</time>
      </trkpt>
      <trkpt lat="40.238983" lon="-4.610467">
        <ele>1493.0</ele>
        <time>2018-09-16T14:15:28Z</time>
      </trkpt>
      <trkpt lat="40.238967" lon="-4.610367">
        <ele>1489.0</ele>
        <time>2018-09-16T14:15:29Z</time>
      </trkpt>
      <trkpt lat="40.238950" lon="-4.610250">
        <ele>1485.0</ele>
        <time>2018-09-16T14:15:30Z</time>
      </trkpt>
      <trkpt lat="40.238933" lon="-4.610133">
        <ele>1481.0</ele>
        <time>2018-09-16T14:15:31Z</time>
      </trkpt>
      <trkpt lat="40.238917" lon="-4.610033">
        <ele>1479.0</ele>
        <time>2018-09-16T14:15:32Z</time>
      </trkpt>
      <trkpt lat="40.238883" lon="-4.609933">
        <ele>1476.0</ele>
        <time>2018-09-16T14:15:33Z</time>
      </trkpt>
      <trkpt lat="40.238867" lon="-4.609833">
        <ele>1473.0</ele>
        <time>2018-09-16T14:15:34Z</time>
      </trkpt>
      <trkpt lat="40.238833" lon="-4.609717">
        <ele>1470.0</ele>
        <time>2018-09-16T14:15:35Z</time>
      </trkpt>
      <trkpt lat="40.238800" lon="-4.609617">
        <ele>1467.0</ele>
        <time>2018-09-16T14:15:36Z</time>
      </trkpt>
      <trkpt lat="40.238767" lon="-4.609500">
        <ele>1465.0</ele>
        <time>2018-09-16T14:15:37Z</time>
      </trkpt>
      <trkpt lat="40.238733" lon="-4.609400">
        <ele>1464.0</ele>
        <time>2018-09-16T14:15:38Z</time>
      </trkpt>
      <trkpt lat="40.238717" lon="-4.609283">
        <ele>1464.0</ele>
        <time>2018-09-16T14:15:39Z</time>
      </trkpt>
      <trkpt lat="40.238717" lon="-4.609167">
        <ele>1464.0</ele>
        <time>2018-09-16T14:15:40Z</time>
      </trkpt>
      <trkpt lat="40.238717" lon="-4.609050">
        <ele>1462.0</ele>
        <time>2018-09-16T14:15:41Z</time>
      </trkpt>
      <trkpt lat="40.238700" lon="-4.608933">
        <ele>1461.0</ele>
        <time>2018-09-16T14:15:42Z</time>
      </trkpt>
      <trkpt lat="40.238700" lon="-4.608800">
        <ele>1459.0</ele>
        <time>2018-09-16T14:15:43Z</time>
      </trkpt>
      <trkpt lat="40.238700" lon="-4.608667">
        <ele>1457.0</ele>
        <time>2018-09-16T14:15:44Z</time>
      </trkpt>
      <trkpt lat="40.238717" lon="-4.608533">
        <ele>1455.0</ele>
        <time>2018-09-16T14:15:45Z</time>
      </trkpt>
      <trkpt lat="40.238733" lon="-4.608400">
        <ele>1454.0</ele>
        <time>2018-09-16T14:15:46Z</time>
      </trkpt>
      <trkpt lat="40.238750" lon="-4.608267">
        <ele>1452.0</ele>
        <time>2018-09-16T14:15:47Z</time>
      </trkpt>
      <trkpt lat="40.238750" lon="-4.608133">
        <ele>1450.0</ele>
        <time>2018-09-16T14:15:48Z</time>
      </trkpt>
      <trkpt lat="40.238750" lon="-4.608000">
        <ele>1447.0</ele>
        <time>2018-09-16T14:15:49Z</time>
      </trkpt>
      <trkpt lat="40.238733" lon="-4.607867">
        <ele>1445.0</ele>
        <time>2018-09-16T14:15:50Z</time>
      </trkpt>
      <trkpt lat="40.238733" lon="-4.607733">
        <ele>1444.0</ele>
        <time>2018-09-16T14:15:51Z</time>
      </trkpt>
      <trkpt lat="40.238733" lon="-4.607600">
        <ele>1442.0</ele>
        <time>2018-09-16T14:15:52Z</time>
      </trkpt>
      <trkpt lat="40.238750" lon="-4.607483">
        <ele>1440.0</ele>
        <time>2018-09-16T14:15:53Z</time>
      </trkpt>
      <trkpt lat="40.238767" lon="-4.607350">
        <ele>1437.0</ele>
        <time>2018-09-16T14:15:54Z</time>
      </trkpt>
      <trkpt lat="40.238767" lon="-4.607217">
        <ele>1434.0</ele>
        <time>2018-09-16T14:15:55Z</time>
      </trkpt>
      <trkpt lat="40.238767" lon="-4.607083">
        <ele>1431.0</ele>
        <time>2018-09-16T14:15:56Z</time>
      </trkpt>
      <trkpt lat="40.238767" lon="-4.606933">
        <ele>1431.0</ele>
        <time>2018-09-16T14:15:57Z</time>
      </trkpt>
      <trkpt lat="40.238783" lon="-4.606817">
        <ele>1432.0</ele>
        <time>2018-09-16T14:15:58Z</time>
      </trkpt>
      <trkpt lat="40.238800" lon="-4.606733">
        <ele>1432.0</ele>
        <time>2018-09-16T14:15:59Z</time>
      </trkpt>
      <trkpt lat="40.238833" lon="-4.606633">
        <ele>1432.0</ele>
        <time>2018-09-16T14:16:00Z</time>
      </trkpt>
      <trkpt lat="40.238850" lon="-4.606550">
        <ele>1430.0</ele>
        <time>2018-09-16T14:16:01Z</time>
      </trkpt>
      <trkpt lat="40.238867" lon="-4.606450">
        <ele>1426.0</ele>
        <time>2018-09-16T14:16:02Z</time>
      </trkpt>
      <trkpt lat="40.238883" lon="-4.606350">
        <ele>1423.0</ele>
        <time>2018-09-16T14:16:03Z</time>
      </trkpt>
      <trkpt lat="40.238900" lon="-4.606233">
        <ele>1420.0</ele>
        <time>2018-09-16T14:16:04Z</time>
      </trkpt>
      <trkpt lat="40.238917" lon="-4.606117">
        <ele>1417.0</ele>
        <time>2018-09-16T14:16:05Z</time>
      </trkpt>
      <trkpt lat="40.238933" lon="-4.606000">
        <ele>1414.0</ele>
        <time>2018-09-16T14:16:06Z</time>
      </trkpt>
      <trkpt lat="40.238917" lon="-4.605867">
        <ele>1411.0</ele>
        <time>2018-09-16T14:16:07Z</time>
      </trkpt>
      <trkpt lat="40.238883" lon="-4.605750">
        <ele>1408.0</ele>
        <time>2018-09-16T14:16:08Z</time>
      </trkpt>
      <trkpt lat="40.238833" lon="-4.605617">
        <ele>1405.0</ele>
        <time>2018-09-16T14:16:09Z</time>
      </trkpt>
      <trkpt lat="40.238800" lon="-4.605483">
        <ele>1402.0</ele>
        <time>2018-09-16T14:16:10Z</time>
      </trkpt>
      <trkpt lat="40.238750" lon="-4.605350">
        <ele>1399.0</ele>
        <time>2018-09-16T14:16:11Z</time>
      </trkpt>
      <trkpt lat="40.238717" lon="-4.605217">
        <ele>1397.0</ele>
        <time>2018-09-16T14:16:12Z</time>
      </trkpt>
      <trkpt lat="40.238683" lon="-4.605100">
        <ele>1394.0</ele>
        <time>2018-09-16T14:16:13Z</time>
      </trkpt>
      <trkpt lat="40.238617" lon="-4.604983">
        <ele>1391.0</ele>
        <time>2018-09-16T14:16:14Z</time>
      </trkpt>
      <trkpt lat="40.238550" lon="-4.604900">
        <ele>1387.0</ele>
        <time>2018-09-16T14:16:15Z</time>
      </trkpt>
      <trkpt lat="40.238483" lon="-4.604817">
        <ele>1383.0</ele>
        <time>2018-09-16T14:16:16Z</time>
      </trkpt>
      <trkpt lat="40.238383" lon="-4.604767">
        <ele>1379.0</ele>
        <time>2018-09-16T14:16:17Z</time>
      </trkpt>
      <trkpt lat="40.238283" lon="-4.604733">
        <ele>1375.0</ele>
        <time>2018-09-16T14:16:18Z</time>
      </trkpt>
      <trkpt lat="40.238183" lon="-4.604750">
        <ele>1372.0</ele>
        <time>2018-09-16T14:16:19Z</time>
      </trkpt>
      <trkpt lat="40.238100" lon="-4.604817">
        <ele>1368.0</ele>
        <time>2018-09-16T14:16:20Z</time>
      </trkpt>
      <trkpt lat="40.238017" lon="-4.604883">
        <ele>1365.0</ele>
        <time>2018-09-16T14:16:21Z</time>
      </trkpt>
      <trkpt lat="40.237950" lon="-4.604983">
        <ele>1362.0</ele>
        <time>2018-09-16T14:16:22Z</time>
      </trkpt>
      <trkpt lat="40.237900" lon="-4.605067">
        <ele>1360.0</ele>
        <time>2018-09-16T14:16:23Z</time>
      </trkpt>
      <trkpt lat="40.237867" lon="-4.605167">
        <ele>1357.0</ele>
        <time>2018-09-16T14:16:24Z</time>
      </trkpt>
      <trkpt lat="40.237850" lon="-4.605283">
        <ele>1352.0</ele>
        <time>2018-09-16T14:16:25Z</time>
      </trkpt>
      <trkpt lat="40.237850" lon="-4.605400">
        <ele>1347.0</ele>
        <time>2018-09-16T14:16:26Z</time>
      </trkpt>
      <trkpt lat="40.237883" lon="-4.605533">
        <ele>1343.0</ele>
        <time>2018-09-16T14:16:27Z</time>
      </trkpt>
      <trkpt lat="40.237917" lon="-4.605667">
        <ele>1341.0</ele>
        <time>2018-09-16T14:16:28Z</time>
      </trkpt>
      <trkpt lat="40.237950" lon="-4.605783">
        <ele>1339.0</ele>
        <time>2018-09-16T14:16:29Z</time>
      </trkpt>
      <trkpt lat="40.238000" lon="-4.605883">
        <ele>1338.0</ele>
        <time>2018-09-16T14:16:30Z</time>
      </trkpt>
      <trkpt lat="40.238050" lon="-4.605967">
        <ele>1334.0</ele>
        <time>2018-09-16T14:16:31Z</time>
      </trkpt>
      <trkpt lat="40.238117" lon="-4.606050">
        <ele>1330.0</ele>
        <time>2018-09-16T14:16:32Z</time>
      </trkpt>
      <trkpt lat="40.238200" lon="-4.606133">
        <ele>1325.0</ele>
        <time>2018-09-16T14:16:33Z</time>
      </trkpt>
      <trkpt lat="40.238317" lon="-4.606217">
        <ele>1321.0</ele>
        <time>2018-09-16T14:16:34Z</time>
      </trkpt>
      <trkpt lat="40.238433" lon="-4.606267">
        <ele>1320.0</ele>
        <time>2018-09-16T14:16:35Z</time>
      </trkpt>
      <trkpt lat="40.238550" lon="-4.606283">
        <ele>1321.0</ele>
        <time>2018-09-16T14:16:36Z</time>
      </trkpt>
      <trkpt lat="40.238650" lon="-4.606250">
        <ele>1320.0</ele>
        <time>2018-09-16T14:16:37Z</time>
      </trkpt>
      <trkpt lat="40.238733" lon="-4.606200">
        <ele>1318.0</ele>
        <time>2018-09-16T14:16:38Z</time>
      </trkpt>
      <trkpt lat="40.238817" lon="-4.606117">
        <ele>1315.0</ele>
        <time>2018-09-16T14:16:39Z</time>
      </trkpt>
      <trkpt lat="40.238917" lon="-4.606050">
        <ele>1312.0</ele>
        <time>2018-09-16T14:16:40Z</time>
      </trkpt>
      <trkpt lat="40.239017" lon="-4.605967">
        <ele>1309.0</ele>
        <time>2018-09-16T14:16:41Z</time>
      </trkpt>
      <trkpt lat="40.239133" lon="-4.605900">
        <ele>1309.0</ele>
        <time>2018-09-16T14:16:42Z</time>
      </trkpt>
      <trkpt lat="40.239217" lon="-4.605817">
        <ele>1308.0</ele>
        <time>2018-09-16T14:16:43Z</time>
      </trkpt>
      <trkpt lat="40.239283" lon="-4.605733">
        <ele>1307.0</ele>
        <time>2018-09-16T14:16:44Z</time>
      </trkpt>
      <trkpt lat="40.239350" lon="-4.605633">
        <ele>1305.0</ele>
        <time>2018-09-16T14:16:45Z</time>
      </trkpt>
      <trkpt lat="40.239417" lon="-4.605517">
        <ele>1302.0</ele>
        <time>2018-09-16T14:16:46Z</time>
      </trkpt>
      <trkpt lat="40.239467" lon="-4.605400">
        <ele>1299.0</ele>
        <time>2018-09-16T14:16:47Z</time>
      </trkpt>
      <trkpt lat="40.239533" lon="-4.605267">
        <ele>1296.0</ele>
        <time>2018-09-16T14:16:48Z</time>
      </trkpt>
      <trkpt lat="40.239600" lon="-4.605117">
        <ele>1294.0</ele>
        <time>2018-09-16T14:16:49Z</time>
      </trkpt>
      <trkpt lat="40.239667" lon="-4.604983">
        <ele>1294.0</ele>
        <time>2018-09-16T14:16:50Z</time>
      </trkpt>
      <trkpt lat="40.239700" lon="-4.604867">
        <ele>1294.0</ele>
        <time>2018-09-16T14:16:51Z</time>
      </trkpt>
      <trkpt lat="40.239717" lon="-4.604750">
        <ele>1294.0</ele>
        <time>2018-09-16T14:16:52Z</time>
      </trkpt>
      <trkpt lat="40.239733" lon="-4.604633">
        <ele>1291.0</ele>
        <time>2018-09-16T14:16:53Z</time>
      </trkpt>
      <trkpt lat="40.239750" lon="-4.604500">
        <ele>1287.0</ele>
        <time>2018-09-16T14:16:54Z</time>
      </trkpt>
      <trkpt lat="40.239750" lon="-4.604350">
        <ele>1283.0</ele>
        <time>2018-09-16T14:16:55Z</time>
      </trkpt>
      <trkpt lat="40.239750" lon="-4.604200">
        <ele>1278.0</ele>
        <time>2018-09-16T14:16:56Z</time>
      </trkpt>
      <trkpt lat="40.239733" lon="-4.604067">
        <ele>1276.0</ele>
        <time>2018-09-16T14:16:57Z</time>
      </trkpt>
      <trkpt lat="40.239733" lon="-4.603917">
        <ele>1274.0</ele>
        <time>2018-09-16T14:16:58Z</time>
      </trkpt>
      <trkpt lat="40.239717" lon="-4.603800">
        <ele>1272.0</ele>
        <time>2018-09-16T14:16:59Z</time>
      </trkpt>
      <trkpt lat="40.239700" lon="-4.603683">
        <ele>1269.0</ele>
        <time>2018-09-16T14:17:00Z</time>
      </trkpt>
      <trkpt lat="40.239667" lon="-4.603550">
        <ele>1266.0</ele>
        <time>2018-09-16T14:17:01Z</time>
      </trkpt>
      <trkpt lat="40.239650" lon="-4.603417">
        <ele>1263.0</ele>
        <time>2018-09-16T14:17:02Z</time>
      </trkpt>
      <trkpt lat="40.239617" lon="-4.603283">
        <ele>1261.0</ele>
        <time>2018-09-16T14:17:03Z</time>
      </trkpt>
      <trkpt lat="40.239583" lon="-4.603150">
        <ele>1261.0</ele>
        <time>2018-09-16T14:17:04Z</time>
      </trkpt>
      <trkpt lat="40.239550" lon="-4.603050">
        <ele>1260.0</ele>
        <time>2018-09-16T14:17:05Z</time>
      </trkpt>
      <trkpt lat="40.239517" lon="-4.602950">
        <ele>1259.0</ele>
        <time>2018-09-16T14:17:06Z</time>
      </trkpt>
      <trkpt lat="40.239483" lon="-4.602833">
        <ele>1256.0</ele>
        <time>2018-09-16T14:17:07Z</time>
      </trkpt>
      <trkpt lat="40.239450" lon="-4.602733">
        <ele>1253.0</ele>
        <time>2018-09-16T14:17:08Z</time>
      </trkpt>
      <trkpt lat="40.239400" lon="-4.602617">
        <ele>1251.0</ele>
        <time>2018-09-16T14:17:09Z</time>
      </trkpt>
      <trkpt lat="40.239350" lon="-4.602500">
        <ele>1249.0</ele>
        <time>2018-09-16T14:17:10Z</time>
      </trkpt>
      <trkpt lat="40.239300" lon="-4.602400">
        <ele>1248.0</ele>
        <time>2018-09-16T14:17:11Z</time>
      </trkpt>
      <trkpt lat="40.239233" lon="-4.602317">
        <ele>1248.0</ele>
        <time>2018-09-16T14:17:12Z</time>
      </trkpt>
      <trkpt lat="40.239183" lon="-4.602250">
        <ele>1247.0</ele>
        <time>2018-09-16T14:17:13Z</time>
      </trkpt>
      <trkpt lat="40.239133" lon="-4.602200">
        <ele>1246.0</ele>
        <time>2018-09-16T14:17:14Z</time>
      </trkpt>
      <trkpt lat="40.239100" lon="-4.602133">
        <ele>1243.0</ele>
        <time>2018-09-16T14:17:15Z</time>
      </trkpt>
      <trkpt lat="40.239050" lon="-4.602067">
        <ele>1240.0</ele>
        <time>2018-09-16T14:17:16Z</time>
      </trkpt>
      <trkpt lat="40.238983" lon="-4.602000">
        <ele>1236.0</ele>
        <time>2018-09-16T14:17:17Z</time>
      </trkpt>
      <trkpt lat="40.238900" lon="-4.601950">
        <ele>1234.0</ele>
        <time>2018-09-16T14:17:18Z</time>
      </trkpt>
      <trkpt lat="40.238817" lon="-4.601900">
        <ele>1232.0</ele>
        <time>2018-09-16T14:17:19Z</time>
      </trkpt>
      <trkpt lat="40.238733" lon="-4.601867">
        <ele>1230.0</ele>
        <time>2018-09-16T14:17:20Z</time>
      </trkpt>
      <trkpt lat="40.238667" lon="-4.601850">
        <ele>1229.0</ele>
        <time>2018-09-16T14:17:21Z</time>
      </trkpt>
      <trkpt lat="40.238583" lon="-4.601833">
        <ele>1226.0</ele>
        <time>2018-09-16T14:17:22Z</time>
      </trkpt>
      <trkpt lat="40.238517" lon="-4.601817">
        <ele>1224.0</ele>
        <time>2018-09-16T14:17:23Z</time>
      </trkpt>
      <trkpt lat="40.238450" lon="-4.601817">
        <ele>1221.0</ele>
        <time>2018-09-16T14:17:24Z</time>
      </trkpt>
      <trkpt lat="40.238367" lon="-4.601817">
        <ele>1218.0</ele>
        <time>2018-09-16T14:17:25Z</time>
      </trkpt>
      <trkpt lat="40.238300" lon="-4.601817">
        <ele>1215.0</ele>
        <time>2018-09-16T14:17:26Z</time>
      </trkpt>
      <trkpt lat="40.238233" lon="-4.601850">
        <ele>1213.0</ele>
        <time>2018-09-16T14:17:27Z</time>
      </trkpt>
      <trkpt lat="40.238167" lon="-4.601867">
        <ele>1211.0</ele>
        <time>2018-09-16T14:17:28Z</time>
      </trkpt>
      <trkpt lat="40.238083" lon="-4.601917">
        <ele>1210.0</ele>
        <time>2018-09-16T14:17:29Z</time>
      </trkpt>
      <trkpt lat="40.238017" lon="-4.601950">
        <ele>1209.0</ele>
        <time>2018-09-16T14:17:30Z</time>
      </trkpt>
      <trkpt lat="40.237967" lon="-4.601967">
        <ele>1210.0</ele>
        <time>2018-09-16T14:17:31Z</time>
      </trkpt>
      <trkpt lat="40.237900" lon="-4.601967">
        <ele>1209.0</ele>
        <time>2018-09-16T14:17:32Z</time>
      </trkpt>
      <trkpt lat="40.237850" lon="-4.601967">
        <ele>1208.0</ele>
        <time>2018-09-16T14:17:33Z</time>
      </trkpt>
      <trkpt lat="40.237800" lon="-4.601967">
        <ele>1206.0</ele>
        <time>2018-09-16T14:17:34Z</time>
      </trkpt>
      <trkpt lat="40.237750" lon="-4.601950">
        <ele>1204.0</ele>
        <time>2018-09-16T14:17:35Z</time>
      </trkpt>
      <trkpt lat="40.237700" lon="-4.601917">
        <ele>1202.0</ele>
        <time>2018-09-16T14:17:36Z</time>
      </trkpt>
      <trkpt lat="40.237650" lon="-4.601850">
        <ele>1199.0</ele>
        <time>2018-09-16T14:17:37Z</time>
      </trkpt>
      <trkpt lat="40.237617" lon="-4.601783">
        <ele>1198.0</ele>
        <time>2018-09-16T14:17:38Z</time>
      </trkpt>
      <trkpt lat="40.237583" lon="-4.601717">
        <ele>1196.0</ele>
        <time>2018-09-16T14:17:39Z</time>
      </trkpt>
      <trkpt lat="40.237533" lon="-4.601633">
        <ele>1194.0</ele>
        <time>2018-09-16T14:17:40Z</time>
      </trkpt>
      <trkpt lat="40.237500" lon="-4.601550">
        <ele>1192.0</ele>
        <time>2018-09-16T14:17:41Z</time>
      </trkpt>
      <trkpt lat="40.237483" lon="-4.601467">
        <ele>1190.0</ele>
        <time>2018-09-16T14:17:42Z</time>
      </trkpt>
      <trkpt lat="40.237467" lon="-4.601367">
        <ele>1188.0</ele>
        <time>2018-09-16T14:17:43Z</time>
      </trkpt>
      <trkpt lat="40.237450" lon="-4.601250">
        <ele>1186.0</ele>
        <time>2018-09-16T14:17:44Z</time>
      </trkpt>
      <trkpt lat="40.237467" lon="-4.601150">
        <ele>1185.0</ele>
        <time>2018-09-16T14:17:45Z</time>
      </trkpt>
      <trkpt lat="40.237483" lon="-4.601050">
        <ele>1183.0</ele>
        <time>2018-09-16T14:17:46Z</time>
      </trkpt>
      <trkpt lat="40.237500" lon="-4.600950">
        <ele>1182.0</ele>
        <time>2018-09-16T14:17:47Z</time>
      </trkpt>
      <trkpt lat="40.237533" lon="-4.600850">
        <ele>1179.0</ele>
        <time>2018-09-16T14:17:48Z</time>
      </trkpt>
      <trkpt lat="40.237600" lon="-4.600750">
        <ele>1177.0</ele>
        <time>2018-09-16T14:17:49Z</time>
      </trkpt>
      <trkpt lat="40.237667" lon="-4.600650">
        <ele>1175.0</ele>
        <time>2018-09-16T14:17:50Z</time>
      </trkpt>
      <trkpt lat="40.237750" lon="-4.600567">
        <ele>1173.0</ele>
        <time>2018-09-16T14:17:51Z</time>
      </trkpt>
      <trkpt lat="40.237850" lon="-4.600500">
        <ele>1172.0</ele>
        <time>2018-09-16T14:17:52Z</time>
      </trkpt>
      <trkpt lat="40.237967" lon="-4.600433">
        <ele>1171.0</ele>
        <time>2018-09-16T14:17:53Z</time>
      </trkpt>
      <trkpt lat="40.238067" lon="-4.600383">
        <ele>1171.0</ele>
        <time>2018-09-16T14:17:54Z</time>
      </trkpt>
      <trkpt lat="40.238167" lon="-4.600333">
        <ele>1171.0</ele>
        <time>2018-09-16T14:17:55Z</time>
      </trkpt>
      <trkpt lat="40.238267" lon="-4.600283">
        <ele>1170.0</ele>
        <time>2018-09-16T14:17:56Z</time>
      </trkpt>
      <trkpt lat="40.238367" lon="-4.600233">
        <ele>1168.0</ele>
        <time>2018-09-16T14:17:57Z</time>
      </trkpt>
      <trkpt lat="40.238483" lon="-4.600167">
        <ele>1166.0</ele>
        <time>2018-09-16T14:17:58Z</time>
      </trkpt>
      <trkpt lat="40.238600" lon="-4.600117">
        <ele>1165.0</ele>
        <time>2018-09-16T14:17:59Z</time>
      </trkpt>
      <trkpt lat="40.238717" lon="-4.600083">
        <ele>1164.0</ele>
        <time>2018-09-16T14:18:00Z</time>
      </trkpt>
      <trkpt lat="40.238833" lon="-4.600033">
        <ele>1164.0</ele>
        <time>2018-09-16T14:18:01Z</time>
      </trkpt>
      <trkpt lat="40.238933" lon="-4.600000">
        <ele>1163.0</ele>
        <time>2018-09-16T14:18:02Z</time>
      </trkpt>
      <trkpt lat="40.239050" lon="-4.599967">
        <ele>1161.0</ele>
        <time>2018-09-16T14:18:03Z</time>
      </trkpt>
      <trkpt lat="40.239167" lon="-4.599917">
        <ele>1159.0</ele>
        <time>2018-09-16T14:18:04Z</time>
      </trkpt>
      <trkpt lat="40.239300" lon="-4.599867">
        <ele>1157.0</ele>
        <time>2018-09-16T14:18:05Z</time>
      </trkpt>
      <trkpt lat="40.239417" lon="-4.599817">
        <ele>1157.0</ele>
        <time>2018-09-16T14:18:06Z</time>
      </trkpt>
      <trkpt lat="40.239533" lon="-4.599750">
        <ele>1158.0</ele>
        <time>2018-09-16T14:18:07Z</time>
      </trkpt>
      <trkpt lat="40.239617" lon="-4.599700">
        <ele>1159.0</ele>
        <time>2018-09-16T14:18:08Z</time>
      </trkpt>
      <trkpt lat="40.239717" lon="-4.599667">
        <ele>1159.0</ele>
        <time>2018-09-16T14:18:09Z</time>
      </trkpt>
      <trkpt lat="40.239800" lon="-4.599650">
        <ele>1158.0</ele>
        <time>2018-09-16T14:18:10Z</time>
      </trkpt>
      <trkpt lat="40.239917" lon="-4.599650">
        <ele>1156.0</ele>
        <time>2018-09-16T14:18:11Z</time>
      </trkpt>
      <trkpt lat="40.240050" lon="-4.599667">
        <ele>1154.0</ele>
        <time>2018-09-16T14:18:12Z</time>
      </trkpt>
      <trkpt lat="40.240167" lon="-4.599667">
        <ele>1153.0</ele>
        <time>2018-09-16T14:18:13Z</time>
      </trkpt>
      <trkpt lat="40.240283" lon="-4.599650">
        <ele>1154.0</ele>
        <time>2018-09-16T14:18:14Z</time>
      </trkpt>
      <trkpt lat="40.240400" lon="-4.599633">
        <ele>1155.0</ele>
        <time>2018-09-16T14:18:15Z</time>
      </trkpt>
      <trkpt lat="40.240500" lon="-4.599617">
        <ele>1155.0</ele>
        <time>2018-09-16T14:18:16Z</time>
      </trkpt>
      <trkpt lat="40.240583" lon="-4.599633">
        <ele>1155.0</ele>
        <time>2018-09-16T14:18:17Z</time>
      </trkpt>
      <trkpt lat="40.240683" lon="-4.599667">
        <ele>1153.0</ele>
        <time>2018-09-16T14:18:18Z</time>
      </trkpt>
      <trkpt lat="40.240800" lon="-4.599733">
        <ele>1151.0</ele>
        <time>2018-09-16T14:18:19Z</time>
      </trkpt>
      <trkpt lat="40.240900" lon="-4.599800">
        <ele>1149.0</ele>
        <time>2018-09-16T14:18:20Z</time>
      </trkpt>
      <trkpt lat="40.241000" lon="-4.599867">
        <ele>1148.0</ele>
        <time>2018-09-16T14:18:21Z</time>
      </trkpt>
      <trkpt lat="40.241100" lon="-4.599967">
        <ele>1148.0</ele>
        <time>2018-09-16T14:18:22Z</time>
      </trkpt>
      <trkpt lat="40.241183" lon="-4.600067">
        <ele>1147.0</ele>
        <time>2018-09-16T14:18:23Z</time>
      </trkpt>
      <trkpt lat="40.241250" lon="-4.600167">
        <ele>1146.0</ele>
        <time>2018-09-16T14:18:24Z</time>
      </trkpt>
      <trkpt lat="40.241317" lon="-4.600283">
        <ele>1144.0</ele>
        <time>2018-09-16T14:18:25Z</time>
      </trkpt>
      <trkpt lat="40.241383" lon="-4.600400">
        <ele>1143.0</ele>
        <time>2018-09-16T14:18:26Z</time>
      </trkpt>
      <trkpt lat="40.241433" lon="-4.600533">
        <ele>1142.0</ele>
        <time>2018-09-16T14:18:27Z</time>
      </trkpt>
      <trkpt lat="40.241483" lon="-4.600650">
        <ele>1142.0</ele>
        <time>2018-09-16T14:18:28Z</time>
      </trkpt>
      <trkpt lat="40.241517" lon="-4.600750">
        <ele>1142.0</ele>
        <time>2018-09-16T14:18:29Z</time>
      </trkpt>
      <trkpt lat="40.241550" lon="-4.600850">
        <ele>1140.0</ele>
        <time>2018-09-16T14:18:30Z</time>
      </trkpt>
      <trkpt lat="40.241550" lon="-4.600950">
        <ele>1137.0</ele>
        <time>2018-09-16T14:18:31Z</time>
      </trkpt>
      <trkpt lat="40.241583" lon="-4.601067">
        <ele>1134.0</ele>
        <time>2018-09-16T14:18:32Z</time>
      </trkpt>
      <trkpt lat="40.241600" lon="-4.601183">
        <ele>1131.0</ele>
        <time>2018-09-16T14:18:33Z</time>
      </trkpt>
      <trkpt lat="40.241633" lon="-4.601300">
        <ele>1128.0</ele>
        <time>2018-09-16T14:18:34Z</time>
      </trkpt>
      <trkpt lat="40.241667" lon="-4.601400">
        <ele>1125.0</ele>
        <time>2018-09-16T14:18:35Z</time>
      </trkpt>
      <trkpt lat="40.241683" lon="-4.601517">
        <ele>1122.0</ele>
        <time>2018-09-16T14:18:36Z</time>
      </trkpt>
      <trkpt lat="40.241700" lon="-4.601633">
        <ele>1118.0</ele>
        <time>2018-09-16T14:18:37Z</time>
      </trkpt>
      <trkpt lat="40.241717" lon="-4.601767">
        <ele>1115.0</ele>
        <time>2018-09-16T14:18:38Z</time>
      </trkpt>
      <trkpt lat="40.241733" lon="-4.601900">
        <ele>1112.0</ele>
        <time>2018-09-16T14:18:39Z</time>
      </trkpt>
      <trkpt lat="40.241750" lon="-4.602033">
        <ele>1110.0</ele>
        <time>2018-09-16T14:18:40Z</time>
      </trkpt>
      <trkpt lat="40.241750" lon="-4.602150">
        <ele>1108.0</ele>
        <time>2018-09-16T14:18:41Z</time>
      </trkpt>
      <trkpt lat="40.241733" lon="-4.602250">
        <ele>1105.0</ele>
        <time>2018-09-16T14:18:42Z</time>
      </trkpt>
      <trkpt lat="40.241733" lon="-4.602367">
        <ele>1103.0</ele>
        <time>2018-09-16T14:18:43Z</time>
      </trkpt>
      <trkpt lat="40.241717" lon="-4.602483">
        <ele>1100.0</ele>
        <time>2018-09-16T14:18:44Z</time>
      </trkpt>
      <trkpt lat="40.241700" lon="-4.602600">
        <ele>1097.0</ele>
        <time>2018-09-16T14:18:45Z</time>
      </trkpt>
      <trkpt lat="40.241683" lon="-4.602717">
        <ele>1094.0</ele>
        <time>2018-09-16T14:18:46Z</time>
      </trkpt>
      <trkpt lat="40.241667" lon="-4.602833">
        <ele>1091.0</ele>
        <time>2018-09-16T14:18:47Z</time>
      </trkpt>
      <trkpt lat="40.241633" lon="-4.602950">
        <ele>1088.0</ele>
        <time>2018-09-16T14:18:48Z</time>
      </trkpt>
      <trkpt lat="40.241600" lon="-4.603050">
        <ele>1085.0</ele>
        <time>2018-09-16T14:18:49Z</time>
      </trkpt>
      <trkpt lat="40.241567" lon="-4.603167">
        <ele>1082.0</ele>
        <time>2018-09-16T14:18:50Z</time>
      </trkpt>
      <trkpt lat="40.241517" lon="-4.603267">
        <ele>1080.0</ele>
        <time>2018-09-16T14:18:51Z</time>
      </trkpt>
      <trkpt lat="40.241467" lon="-4.603367">
        <ele>1077.0</ele>
        <time>2018-09-16T14:18:52Z</time>
      </trkpt>
      <trkpt lat="40.241417" lon="-4.603467">
        <ele>1074.0</ele>
        <time>2018-09-16T14:18:53Z</time>
      </trkpt>
      <trkpt lat="40.241367" lon="-4.603567">
        <ele>1071.0</ele>
        <time>2018-09-16T14:18:54Z</time>
      </trkpt>
      <trkpt lat="40.241317" lon="-4.603650">
        <ele>1068.0</ele>
        <time>2018-09-16T14:18:55Z</time>
      </trkpt>
      <trkpt lat="40.241267" lon="-4.603733">
        <ele>1064.0</ele>
        <time>2018-09-16T14:18:56Z</time>
      </trkpt>
      <trkpt lat="40.241217" lon="-4.603833">
        <ele>1060.0</ele>
        <time>2018-09-16T14:18:57Z</time>
      </trkpt>
      <trkpt lat="40.241167" lon="-4.603933">
        <ele>1056.0</ele>
        <time>2018-09-16T14:18:58Z</time>
      </trkpt>
      <trkpt lat="40.241150" lon="-4.604050">
        <ele>1053.0</ele>
        <time>2018-09-16T14:18:59Z</time>
      </trkpt>
      <trkpt lat="40.241133" lon="-4.604150">
        <ele>1050.0</ele>
        <time>2018-09-16T14:19:00Z</time>
      </trkpt>
      <trkpt lat="40.241150" lon="-4.604250">
        <ele>1046.0</ele>
        <time>2018-09-16T14:19:01Z</time>
      </trkpt>
      <trkpt lat="40.241183" lon="-4.604367">
        <ele>1043.0</ele>
        <time>2018-09-16T14:19:02Z</time>
      </trkpt>
      <trkpt lat="40.241217" lon="-4.604483">
        <ele>1040.0</ele>
        <time>2018-09-16T14:19:03Z</time>
      </trkpt>
      <trkpt lat="40.241267" lon="-4.604583">
        <ele>1038.0</ele>
        <time>2018-09-16T14:19:04Z</time>
      </trkpt>
      <trkpt lat="40.241317" lon="-4.604683">
        <ele>1036.0</ele>
        <time>2018-09-16T14:19:05Z</time>
      </trkpt>
      <trkpt lat="40.241383" lon="-4.604783">
        <ele>1034.0</ele>
        <time>2018-09-16T14:19:06Z</time>
      </trkpt>
      <trkpt lat="40.241450" lon="-4.604867">
        <ele>1033.0</ele>
        <time>2018-09-16T14:19:07Z</time>
      </trkpt>
      <trkpt lat="40.241500" lon="-4.604950">
        <ele>1032.0</ele>
        <time>2018-09-16T14:19:08Z</time>
      </trkpt>
      <trkpt lat="40.241550" lon="-4.605033">
        <ele>1029.0</ele>
        <time>2018-09-16T14:19:09Z</time>
      </trkpt>
      <trkpt lat="40.241600" lon="-4.605117">
        <ele>1026.0</ele>
        <time>2018-09-16T14:19:10Z</time>
      </trkpt>
      <trkpt lat="40.241667" lon="-4.605200">
        <ele>1023.0</ele>
        <time>2018-09-16T14:19:11Z</time>
      </trkpt>
      <trkpt lat="40.241733" lon="-4.605283">
        <ele>1019.0</ele>
        <time>2018-09-16T14:19:12Z</time>
      </trkpt>
      <trkpt lat="40.241783" lon="-4.605383">
        <ele>1015.0</ele>
        <time>2018-09-16T14:19:13Z</time>
      </trkpt>
      <trkpt lat="40.241850" lon="-4.605500">
        <ele>1012.0</ele>
        <time>2018-09-16T14:19:14Z</time>
      </trkpt>
      <trkpt lat="40.241900" lon="-4.605600">
        <ele>1009.0</ele>
        <time>2018-09-16T14:19:15Z</time>
      </trkpt>
      <trkpt lat="40.241950" lon="-4.605700">
        <ele>1006.0</ele>
        <time>2018-09-16T14:19:16Z</time>
      </trkpt>
      <trkpt lat="40.242017" lon="-4.605800">
        <ele>1003.0</ele>
        <time>2018-09-16T14:19:17Z</time>
      </trkpt>
      <trkpt lat="40.242067" lon="-4.605900">
        <ele>999.0</ele>
        <time>2018-09-16T14:19:18Z</time>
      </trkpt>
      <trkpt lat="40.242133" lon="-4.606000">
        <ele>996.0</ele>
        <time>2018-09-16T14:19:19Z</time>
      </trkpt>
      <trkpt lat="40.242167" lon="-4.606117">
        <ele>992.0</ele>
        <time>2018-09-16T14:19:20Z</time>
      </trkpt>
      <trkpt lat="40.242200" lon="-4.606233">
        <ele>989.0</ele>
        <time>2018-09-16T14:19:21Z</time>
      </trkpt>
      <trkpt lat="40.242217" lon="-4.606350">
        <ele>985.0</ele>
        <time>2018-09-16T14:19:22Z</time>
      </trkpt>
      <trkpt lat="40.242233" lon="-4.606467">
        <ele>982.0</ele>
        <time>2018-09-16T14:19:23Z</time>
      </trkpt>
      <trkpt lat="40.242217" lon="-4.606567">
        <ele>979.0</ele>
        <time>2018-09-16T14:19:24Z</time>
      </trkpt>
      <trkpt lat="40.242217" lon="-4.606667">
        <ele>976.0</ele>
        <time>2018-09-16T14:19:25Z</time>
      </trkpt>
      <trkpt lat="40.242200" lon="-4.606783">
        <ele>972.0</ele>
        <time>2018-09-16T14:19:26Z</time>
      </trkpt>
      <trkpt lat="40.242183" lon="-4.606900">
        <ele>967.0</ele>
        <time>2018-09-16T14:19:27Z</time>
      </trkpt>
      <trkpt lat="40.242167" lon="-4.607017">
        <ele>964.0</ele>
        <time>2018-09-16T14:19:28Z</time>
      </trkpt>
      <trkpt lat="40.242167" lon="-4.607150">
        <ele>960.0</ele>
        <time>2018-09-16T14:19:29Z</time>
      </trkpt>
      <trkpt lat="40.242150" lon="-4.607283">
        <ele>958.0</ele>
        <time>2018-09-16T14:19:30Z</time>
      </trkpt>
      <trkpt lat="40.242150" lon="-4.607417">
        <ele>956.0</ele>
        <time>2018-09-16T14:19:31Z</time>
      </trkpt>
      <trkpt lat="40.242117" lon="-4.607517">
        <ele>954.0</ele>
        <time>2018-09-16T14:19:32Z</time>
      </trkpt>
      <trkpt lat="40.242100" lon="-4.607633">
        <ele>951.0</ele>
        <time>2018-09-16T14:19:33Z</time>
      </trkpt>
      <trkpt lat="40.242083" lon="-4.607750">
        <ele>948.0</ele>
        <time>2018-09-16T14:19:34Z</time>
      </trkpt>
      <trkpt lat="40.242067" lon="-4.607883">
        <ele>945.0</ele>
        <time>2018-09-16T14:19:35Z</time>
      </trkpt>
      <trkpt lat="40.242033" lon="-4.608017">
        <ele>941.0</ele>
        <time>2018-09-16T14:19:36Z</time>
      </trkpt>
      <trkpt lat="40.242000" lon="-4.608150">
        <ele>939.0</ele>
        <time>2018-09-16T14:19:37Z</time>
      </trkpt>
      <trkpt lat="40.241967" lon="-4.608267">
        <ele>937.0</ele>
        <time>2018-09-16T14:19:38Z</time>
      </trkpt>
      <trkpt lat="40.241933" lon="-4.608367">
        <ele>936.0</ele>
        <time>2018-09-16T14:19:39Z</time>
      </trkpt>
      <trkpt lat="40.241900" lon="-4.608467">
        <ele>934.0</ele>
        <time>2018-09-16T14:19:40Z</time>
      </trkpt>
      <trkpt lat="40.241850" lon="-4.608567">
        <ele>932.0</ele>
        <time>2018-09-16T14:19:41Z</time>
      </trkpt>
      <trkpt lat="40.241817" lon="-4.608650">
        <ele>929.0</ele>
        <time>2018-09-16T14:19:42Z</time>
      </trkpt>
      <trkpt lat="40.241767" lon="-4.608750">
        <ele>926.0</ele>
        <time>2018-09-16T14:19:43Z</time>
      </trkpt>
      <trkpt lat="40.241717" lon="-4.608850">
        <ele>924.0</ele>
        <time>2018-09-16T14:19:44Z</time>
      </trkpt>
      <trkpt lat="40.241667" lon="-4.608950">
        <ele>923.0</ele>
        <time>2018-09-16T14:19:45Z</time>
      </trkpt>
      <trkpt lat="40.241633" lon="-4.609067">
        <ele>922.0</ele>
        <time>2018-09-16T14:19:46Z</time>
      </trkpt>
      <trkpt lat="40.241583" lon="-4.609167">
        <ele>920.0</ele>
        <time>2018-09-16T14:19:47Z</time>
      </trkpt>
      <trkpt lat="40.241550" lon="-4.609267">
        <ele>918.0</ele>
        <time>2018-09-16T14:19:48Z</time>
      </trkpt>
      <trkpt lat="40.241500" lon="-4.609350">
        <ele>917.0</ele>
        <time>2018-09-16T14:19:49Z</time>
      </trkpt>
      <trkpt lat="40.241450" lon="-4.609433">
        <ele>916.0</ele>
        <time>2018-09-16T14:19:50Z</time>
      </trkpt>
      <trkpt lat="40.241383" lon="-4.609517">
        <ele>915.0</ele>
        <time>2018-09-16T14:19:51Z</time>
      </trkpt>
      <trkpt lat="40.241317" lon="-4.609617">
        <ele>914.0</ele>
        <time>2018-09-16T14:19:52Z</time>
      </trkpt>
      <trkpt lat="40.241267" lon="-4.609683">
        <ele>915.0</ele>
        <time>2018-09-16T14:19:53Z</time>
      </trkpt>
      <trkpt lat="40.241217" lon="-4.609750">
        <ele>914.0</ele>
        <time>2018-09-16T14:19:54Z</time>
      </trkpt>
      <trkpt lat="40.241167" lon="-4.609817">
        <ele>913.0</ele>
        <time>2018-09-16T14:19:55Z</time>
      </trkpt>
      <trkpt lat="40.241117" lon="-4.609867">
        <ele>912.0</ele>
        <time>2018-09-16T14:19:56Z</time>
      </trkpt>
      <trkpt lat="40.241067" lon="-4.609900">
        <ele>910.0</ele>
        <time>2018-09-16T14:19:57Z</time>
      </trkpt>
      <trkpt lat="40.240983" lon="-4.609933">
        <ele>908.0</ele>
        <time>2018-09-16T14:19:58Z</time>
      </trkpt>
      <trkpt lat="40.240917" lon="-4.609950">
        <ele>908.0</ele>
        <time>2018-09-16T14:19:59Z</time>
      </trkpt>
      <trkpt lat="40.240850" lon="-4.609983">
        <ele>907.0</ele>
        <time>2018-09-16T14:20:00Z</time>
      </trkpt>
      <trkpt lat="40.240800" lon="-4.610017">
        <ele>906.0</ele>
        <time>2018-09-16T14:20:01Z</time>
      </trkpt>
      <trkpt lat="40.240750" lon="-4.610033">
        <ele>903.0</ele>
        <time>2018-09-16T14:20:02Z</time>
      </trkpt>
      <trkpt lat="40.240683" lon="-4.610050">
        <ele>900.0</ele>
        <time>2018-09-16T14:20:03Z</time>
      </trkpt>
      <trkpt lat="40.240617" lon="-4.610033">
        <ele>897.0</ele>
        <time>2018-09-16T14:20:04Z</time>
      </trkpt>
      <trkpt lat="40.240550" lon="-4.610033">
        <ele>894.0</ele>
        <time>2018-09-16T14:20:05Z</time>
      </trkpt>
      <trkpt lat="40.240500" lon="-4.610017">
        <ele>892.0</ele>
        <time>2018-09-16T14:20:06Z</time>
      </trkpt>
      <trkpt lat="40.240433" lon="-4.610000">
        <ele>890.0</ele>
        <time>2018-09-16T14:20:07Z</time>
      </trkpt>
      <trkpt lat="40.240400" lon="-4.609967">
        <ele>888.0</ele>
        <time>2018-09-16T14:20:08Z</time>
      </trkpt>
      <trkpt lat="40.240350" lon="-4.609917">
        <ele>885.0</ele>
        <time>2018-09-16T14:20:09Z</time>
      </trkpt>
      <trkpt lat="40.240317" lon="-4.609867">
        <ele>882.0</ele>
        <time>2018-09-16T14:20:10Z</time>
      </trkpt>
      <trkpt lat="40.240267" lon="-4.609800">
        <ele>879.0</ele>
        <time>2018-09-16T14:20:11Z</time>
      </trkpt>
      <trkpt lat="40.240233" lon="-4.609733">
        <ele>877.0</ele>
        <time>2018-09-16T14:20:12Z</time>
      </trkpt>
      <trkpt lat="40.240200" lon="-4.609650">
        <ele>876.0</ele>
        <time>2018-09-16T14:20:13Z</time>
      </trkpt>
      <trkpt lat="40.240167" lon="-4.609583">
        <ele>874.0</ele>
        <time>2018-09-16T14:20:14Z</time>
      </trkpt>
      <trkpt lat="40.240167" lon="-4.609500">
        <ele>873.0</ele>
        <time>2018-09-16T14:20:15Z</time>
      </trkpt>
      <trkpt lat="40.240150" lon="-4.609417">
        <ele>871.0</ele>
        <time>2018-09-16T14:20:16Z</time>
      </trkpt>
      <trkpt lat="40.240150" lon="-4.609350">
        <ele>870.0</ele>
        <time>2018-09-16T14:20:17Z</time>
      </trkpt>
      <trkpt lat="40.240133" lon="-4.609267">
        <ele>869.0</ele>
        <time>2018-09-16T14:20:18Z</time>
      </trkpt>
      <trkpt lat="40.240117" lon="-4.609183">
        <ele>867.0</ele>
        <time>2018-09-16T14:20:19Z</time>
      </trkpt>
      <trkpt lat="40.240100" lon="-4.609100">
        <ele>866.0</ele>
        <time>2018-09-16T14:20:20Z</time>
      </trkpt>
      <trkpt lat="40.240100" lon="-4.609000">
        <ele>864.0</ele>
        <time>2018-09-16T14:20:21Z</time>
      </trkpt>
      <trkpt lat="40.240100" lon="-4.608917">
        <ele>861.0</ele>
        <time>2018-09-16T14:20:22Z</time>
      </trkpt>
      <trkpt lat="40.240100" lon="-4.608833">
        <ele>859.0</ele>
        <time>2018-09-16T14:20:23Z</time>
      </trkpt>
      <trkpt lat="40.240100" lon="-4.608733">
        <ele>856.0</ele>
        <time>2018-09-16T14:20:24Z</time>
      </trkpt>
      <trkpt lat="40.240100" lon="-4.608633">
        <ele>852.0</ele>
        <time>2018-09-16T14:20:25Z</time>
      </trkpt>
      <trkpt lat="40.240100" lon="-4.608533">
        <ele>848.0</ele>
        <time>2018-09-16T14:20:26Z</time>
      </trkpt>
      <trkpt lat="40.240117" lon="-4.608433">
        <ele>845.0</ele>
        <time>2018-09-16T14:20:27Z</time>
      </trkpt>
      <trkpt lat="40.240133" lon="-4.608317">
        <ele>843.0</ele>
        <time>2018-09-16T14:20:28Z</time>
      </trkpt>
      <trkpt lat="40.240150" lon="-4.608217">
        <ele>841.0</ele>
        <time>2018-09-16T14:20:29Z</time>
      </trkpt>
      <trkpt lat="40.240183" lon="-4.608117">
        <ele>839.0</ele>
        <time>2018-09-16T14:20:30Z</time>
      </trkpt>
      <trkpt lat="40.240183" lon="-4.608017">
        <ele>836.0</ele>
        <time>2018-09-16T14:20:31Z</time>
      </trkpt>
      <trkpt lat="40.240183" lon="-4.607917">
        <ele>834.0</ele>
        <time>2018-09-16T14:20:32Z</time>
      </trkpt>
      <trkpt lat="40.240167" lon="-4.607833">
        <ele>833.0</ele>
        <time>2018-09-16T14:20:33Z</time>
      </trkpt>
      <trkpt lat="40.240150" lon="-4.607767">
        <ele>830.0</ele>
        <time>2018-09-16T14:20:34Z</time>
      </trkpt>
      <trkpt lat="40.240100" lon="-4.607700">
        <ele>827.0</ele>
        <time>2018-09-16T14:20:35Z</time>
      </trkpt>
      <trkpt lat="40.240033" lon="-4.607650">
        <ele>823.0</ele>
        <time>2018-09-16T14:20:36Z</time>
      </trkpt>
      <trkpt lat="40.239950" lon="-4.607600">
        <ele>821.0</ele>
        <time>2018-09-16T14:20:37Z</time>
      </trkpt>
      <trkpt lat="40.239883" lon="-4.607583">
        <ele>820.0</ele>
        <time>2018-09-16T14:20:38Z</time>
      </trkpt>
      <trkpt lat="40.239817" lon="-4.607550">
        <ele>821.0</ele>
        <time>2018-09-16T14:20:39Z</time>
      </trkpt>
      <trkpt lat="40.239767" lon="-4.607533">
        <ele>821.0</ele>
        <time>2018-09-16T14:20:40Z</time>
      </trkpt>
      <trkpt lat="40.239717" lon="-4.607517">
        <ele>821.0</ele>
        <time>2018-09-16T14:20:41Z</time>
      </trkpt>
      <trkpt lat="40.239667" lon="-4.607483">
        <ele>820.0</ele>
        <time>2018-09-16T14:20:42Z</time>
      </trkpt>
      <trkpt lat="40.239617" lon="-4.607467">
        <ele>818.0</ele>
        <time>2018-09-16T14:20:43Z</time>
      </trkpt>
      <trkpt lat="40.239550" lon="-4.607433">
        <ele>816.0</ele>
        <time>2018-09-16T14:20:44Z</time>
      </trkpt>
      <trkpt lat="40.239483" lon="-4.607417">
        <ele>814.0</ele>
        <time>2018-09-16T14:20:45Z</time>
      </trkpt>
      <trkpt lat="40.239417" lon="-4.607383">
        <ele>813.0</ele>
        <time>2018-09-16T14:20:46Z</time>
      </trkpt>
      <trkpt lat="40.239350" lon="-4.607350">
        <ele>812.0</ele>
        <time>2018-09-16T14:20:47Z</time>
      </trkpt>
      <trkpt lat="40.239283" lon="-4.607317">
        <ele>811.0</ele>
        <time>2018-09-16T14:20:48Z</time>
      </trkpt>
      <trkpt lat="40.239233" lon="-4.607300">
        <ele>810.0</ele>
        <time>2018-09-16T14:20:49Z</time>
      </trkpt>
      <trkpt lat="40.239167" lon="-4.607250">
        <ele>809.0</ele>
        <time>2018-09-16T14:20:50Z</time>
      </trkpt>
      <trkpt lat="40.239117" lon="-4.607217">
        <ele>808.0</ele>
        <time>2018-09-16T14:20:51Z</time>
      </trkpt>
      <trkpt lat="40.239067" lon="-4.607183">
        <ele>807.0</ele>
        <time>2018-09-16T14:20:52Z</time>
      </trkpt>
      <trkpt lat="40.239017" lon="-4.607150">
        <ele>805.0</ele>
        <time>2018-09-16T14:20:53Z</time>
      </trkpt>
      <trkpt lat="40.238950" lon="-4.607150">
        <ele>802.0</ele>
        <time>2018-09-16T14:20:54Z</time>
      </trkpt>
      <trkpt lat="40.238867" lon="-4.607167">
        <ele>800.0</ele>
        <time>2018-09-16T14:20:55Z</time>
      </trkpt>
      <trkpt lat="40.238783" lon="-4.607217">
        <ele>800.0</ele>
        <time>2018-09-16T14:20:56Z</time>
      </trkpt>
      <trkpt lat="40.238717" lon="-4.607283">
        <ele>801.0</ele>
        <time>2018-09-16T14:20:57Z</time>
      </trkpt>
      <trkpt lat="40.238683" lon="-4.607367">
        <ele>801.0</ele>
        <time>2018-09-16T14:20:58Z</time>
      </trkpt>
      <trkpt lat="40.238683" lon="-4.607467">
        <ele>800.0</ele>
        <time>2018-09-16T14:20:59Z</time>
      </trkpt>
      <trkpt lat="40.238700" lon="-4.607600">
        <ele>798.0</ele>
        <time>2018-09-16T14:21:00Z</time>
      </trkpt>
      <trkpt lat="40.238733" lon="-4.607717">
        <ele>796.0</ele>
        <time>2018-09-16T14:21:01Z</time>
      </trkpt>
      <trkpt lat="40.238800" lon="-4.607850">
        <ele>795.0</ele>
        <time>2018-09-16T14:21:02Z</time>
      </trkpt>
      <trkpt lat="40.238883" lon="-4.607933">
        <ele>794.0</ele>
        <time>2018-09-16T14:21:03Z</time>
      </trkpt>
      <trkpt lat="40.238983" lon="-4.608000">
        <ele>792.0</ele>
        <time>2018-09-16T14:21:04Z</time>
      </trkpt>
      <trkpt lat="40.239100" lon="-4.608017">
        <ele>790.0</ele>
        <time>2018-09-16T14:21:05Z</time>
      </trkpt>
      <trkpt lat="40.239200" lon="-4.607983">
        <ele>787.0</ele>
        <time>2018-09-16T14:21:06Z</time>
      </trkpt>
      <trkpt lat="40.239300" lon="-4.607933">
        <ele>785.0</ele>
        <time>2018-09-16T14:21:07Z</time>
      </trkpt>
      <trkpt lat="40.239383" lon="-4.607867">
        <ele>783.0</ele>
        <time>2018-09-16T14:21:08Z</time>
      </trkpt>
      <trkpt lat="40.239450" lon="-4.607783">
        <ele>782.0</ele>
        <time>2018-09-16T14:21:09Z</time>
      </trkpt>
      <trkpt lat="40.239517" lon="-4.607700">
        <ele>780.0</ele>
        <time>2018-09-16T14:21:10Z</time>
      </trkpt>
      <trkpt lat="40.239567" lon="-4.607617">
        <ele>778.0</ele>
        <time>2018-09-16T14:21:11Z</time>
      </trkpt>
      <trkpt lat="40.239617" lon="-4.607517">
        <ele>776.0</ele>
        <time>2018-09-16T14:21:12Z</time>
      </trkpt>
      <trkpt lat="40.239683" lon="-4.607433">
        <ele>776.0</ele>
        <time>2018-09-16T14:21:13Z</time>
      </trkpt>
      <trkpt lat="40.239733" lon="-4.607350">
        <ele>775.0</ele>
        <time>2018-09-16T14:21:14Z</time>
      </trkpt>
      <trkpt lat="40.239783" lon="-4.607267">
        <ele>774.0</ele>
        <time>2018-09-16T14:21:15Z</time>
      </trkpt>
      <trkpt lat="40.239833" lon="-4.607183">
        <ele>773.0</ele>
        <time>2018-09-16T14:21:16Z</time>
      </trkpt>
      <trkpt lat="40.239850" lon="-4.607100">
        <ele>770.0</ele>
        <time>2018-09-16T14:21:17Z</time>
      </trkpt>
      <trkpt lat="40.239867" lon="-4.606983">
        <ele>769.0</ele>
        <time>2018-09-16T14:21:18Z</time>
      </trkpt>
      <trkpt lat="40.239850" lon="-4.606850">
        <ele>768.0</ele>
        <time>2018-09-16T14:21:19Z</time>
      </trkpt>
      <trkpt lat="40.239850" lon="-4.606700">
        <ele>768.0</ele>
        <time>2018-09-16T14:21:20Z</time>
      </trkpt>
      <trkpt lat="40.239850" lon="-4.606583">
        <ele>770.0</ele>
        <time>2018-09-16T14:21:21Z</time>
      </trkpt>
      <trkpt lat="40.239850" lon="-4.606467">
        <ele>771.0</ele>
        <time>2018-09-16T14:21:22Z</time>
      </trkpt>
      <trkpt lat="40.239817" lon="-4.606350">
        <ele>772.0</ele>
        <time>2018-09-16T14:21:23Z</time>
      </trkpt>
      <trkpt lat="40.239800" lon="-4.606233">
        <ele>773.0</ele>
        <time>2018-09-16T14:21:24Z</time>
      </trkpt>
      <trkpt lat="40.239767" lon="-4.606133">
        <ele>774.0</ele>
        <time>2018-09-16T14:21:25Z</time>
      </trkpt>
      <trkpt lat="40.239750" lon="-4.606033">
        <ele>776.0</ele>
        <time>2018-09-16T14:21:26Z</time>
      </trkpt>
      <trkpt lat="40.239750" lon="-4.605917">
        <ele>777.0</ele>
        <time>2018-09-16T14:21:27Z</time>
      </trkpt>
      <trkpt lat="40.239767" lon="-4.605783">
        <ele>778.0</ele>
        <time>2018-09-16T14:21:28Z</time>
      </trkpt>
      <trkpt lat="40.239783" lon="-4.605667">
        <ele>777.0</ele>
        <time>2018-09-16T14:21:29Z</time>
      </trkpt>
      <trkpt lat="40.239800" lon="-4.605550">
        <ele>778.0</ele>
        <time>2018-09-16T14:21:30Z</time>
      </trkpt>
      <trkpt lat="40.239800" lon="-4.605450">
        <ele>779.0</ele>
        <time>2018-09-16T14:21:31Z</time>
      </trkpt>
      <trkpt lat="40.239783" lon="-4.605350">
        <ele>778.0</ele>
        <time>2018-09-16T14:21:32Z</time>
      </trkpt>
      <trkpt lat="40.239783" lon="-4.605267">
        <ele>778.0</ele>
        <time>2018-09-16T14:21:33Z</time>
      </trkpt>
      <trkpt lat="40.239750" lon="-4.605183">
        <ele>778.0</ele>
        <time>2018-09-16T14:21:34Z</time>
      </trkpt>
      <trkpt lat="40.239717" lon="-4.605117">
        <ele>777.0</ele>
        <time>2018-09-16T14:21:35Z</time>
      </trkpt>
      <trkpt lat="40.239667" lon="-4.605067">
        <ele>775.0</ele>
        <time>2018-09-16T14:21:36Z</time>
      </trkpt>
      <trkpt lat="40.239617" lon="-4.605017">
        <ele>775.0</ele>
        <time>2018-09-16T14:21:37Z</time>
      </trkpt>
      <trkpt lat="40.239567" lon="-4.604983">
        <ele>775.0</ele>
        <time>2018-09-16T14:21:38Z</time>
      </trkpt>
      <trkpt lat="40.239500" lon="-4.604933">
        <ele>775.0</ele>
        <time>2018-09-16T14:21:39Z</time>
      </trkpt>
      <trkpt lat="40.239450" lon="-4.604900">
        <ele>777.0</ele>
        <time>2018-09-16T14:21:40Z</time>
      </trkpt>
      <trkpt lat="40.239400" lon="-4.604867">
        <ele>779.0</ele>
        <time>2018-09-16T14:21:41Z</time>
      </trkpt>
      <trkpt lat="40.239367" lon="-4.604833">
        <ele>780.0</ele>
        <time>2018-09-16T14:21:42Z</time>
      </trkpt>
      <trkpt lat="40.239317" lon="-4.604800">
        <ele>780.0</ele>
        <time>2018-09-16T14:21:43Z</time>
      </trkpt>
      <trkpt lat="40.239283" lon="-4.604750">
        <ele>780.0</ele>
        <time>2018-09-16T14:21:44Z</time>
      </trkpt>
      <trkpt lat="40.239250" lon="-4.604717">
        <ele>780.0</ele>
        <time>2018-09-16T14:21:45Z</time>
      </trkpt>
      <trkpt lat="40.239217" lon="-4.604683">
        <ele>779.0</ele>
        <time>2018-09-16T14:21:46Z</time>
      </trkpt>
      <trkpt lat="40.239183" lon="-4.604650">
        <ele>779.0</ele>
        <time>2018-09-16T14:21:47Z</time>
      </trkpt>
      <trkpt lat="40.239133" lon="-4.604633">
        <ele>778.0</ele>
        <time>2018-09-16T14:21:48Z</time>
      </trkpt>
      <trkpt lat="40.239083" lon="-4.604617">
        <ele>778.0</ele>
        <time>2018-09-16T14:21:49Z</time>
      </trkpt>
      <trkpt lat="40.239017" lon="-4.604583">
        <ele>778.0</ele>
        <time>2018-09-16T14:21:50Z</time>
      </trkpt>
      <trkpt lat="40.238967" lon="-4.604567">
        <ele>778.0</ele>
        <time>2018-09-16T14:21:51Z</time>
      </trkpt>
      <trkpt lat="40.238917" lon="-4.604533">
        <ele>777.0</ele>
        <time>2018-09-16T14:21:52Z</time>
      </trkpt>
      <trkpt lat="40.238867" lon="-4.604517">
        <ele>776.0</ele>
        <time>2018-09-16T14:21:53Z</time>
      </trkpt>
      <trkpt lat="40.238800" lon="-4.604517">
        <ele>775.0</ele>
        <time>2018-09-16T14:21:54Z</time>
      </trkpt>
      <trkpt lat="40.238733" lon="-4.604550">
        <ele>774.0</ele>
        <time>2018-09-16T14:21:55Z</time>
      </trkpt>
      <trkpt lat="40.238683" lon="-4.604617">
        <ele>774.0</ele>
        <time>2018-09-16T14:21:56Z</time>
      </trkpt>
      <trkpt lat="40.238633" lon="-4.604717">
        <ele>774.0</ele>
        <time>2018-09-16T14:21:57Z</time>
      </trkpt>
      <trkpt lat="40.238633" lon="-4.604833">
        <ele>775.0</ele>
        <time>2018-09-16T14:21:58Z</time>
      </trkpt>
      <trkpt lat="40.238633" lon="-4.604950">
        <ele>775.0</ele>
        <time>2018-09-16T14:21:59Z</time>
      </trkpt>
      <trkpt lat="40.238683" lon="-4.605067">
        <ele>775.0</ele>
        <time>2018-09-16T14:22:00Z</time>
      </trkpt>
      <trkpt lat="40.238733" lon="-4.605183">
        <ele>775.0</ele>
        <time>2018-09-16T14:22:01Z</time>
      </trkpt>
      <trkpt lat="40.238817" lon="-4.605283">
        <ele>776.0</ele>
        <time>2018-09-16T14:22:02Z</time>
      </trkpt>
      <trkpt lat="40.238917" lon="-4.605367">
        <ele>776.0</ele>
        <time>2018-09-16T14:22:03Z</time>
      </trkpt>
      <trkpt lat="40.239017" lon="-4.605433">
        <ele>776.0</ele>
        <time>2018-09-16T14:22:04Z</time>
      </trkpt>
      <trkpt lat="40.239133" lon="-4.605500">
        <ele>775.0</ele>
        <time>2018-09-16T14:22:05Z</time>
      </trkpt>
      <trkpt lat="40.239250" lon="-4.605533">
        <ele>775.0</ele>
        <time>2018-09-16T14:22:06Z</time>
      </trkpt>
      <trkpt lat="40.239383" lon="-4.605583">
        <ele>774.0</ele>
        <time>2018-09-16T14:22:07Z</time>
      </trkpt>
      <trkpt lat="40.239500" lon="-4.605600">
        <ele>775.0</ele>
        <time>2018-09-16T14:22:08Z</time>
      </trkpt>
      <trkpt lat="40.239617" lon="-4.605600">
        <ele>777.0</ele>
        <time>2018-09-16T14:22:09Z</time>
      </trkpt>
      <trkpt lat="40.239733" lon="-4.605600">
        <ele>778.0</ele>
        <time>2018-09-16T14:22:10Z</time>
      </trkpt>
      <trkpt lat="40.239833" lon="-4.605583">
        <ele>779.0</ele>
        <time>2018-09-16T14:22:11Z</time>
      </trkpt>
      <trkpt lat="40.239950" lon="-4.605550">
        <ele>778.0</ele>
        <time>2018-09-16T14:22:12Z</time>
      </trkpt>
      <trkpt lat="40.240067" lon="-4.605483">
        <ele>776.0</ele>
        <time>2018-09-16T14:22:13Z</time>
      </trkpt>
      <trkpt lat="40.240167" lon="-4.605367">
        <ele>776.0</ele>
        <time>2018-09-16T14:22:14Z</time>
      </trkpt>
      <trkpt lat="40.240250" lon="-4.605233">
        <ele>776.0</ele>
        <time>2018-09-16T14:22:15Z</time>
      </trkpt>
      <trkpt lat="40.240317" lon="-4.605117">
        <ele>778.0</ele>
        <time>2018-09-16T14:22:16Z</time>
      </trkpt>
      <trkpt lat="40.240333" lon="-4.605000">
        <ele>779.0</ele>
        <time>2018-09-16T14:22:17Z</time>
      </trkpt>
      <trkpt lat="40.240350" lon="-4.604883">
        <ele>779.0</ele>
        <time>2018-09-16T14:22:18Z</time>
      </trkpt>
      <trkpt lat="40.240350" lon="-4.604783">
        <ele>778.0</ele>
        <time>2018-09-16T14:22:19Z</time>
      </trkpt>
      <trkpt lat="40.240333" lon="-4.604683">
        <ele>777.0</ele>
        <time>2018-09-16T14:22:20Z</time>
      </trkpt>
      <trkpt lat="40.240300" lon="-4.604550">
        <ele>775.0</ele>
        <time>2018-09-16T14:22:21Z</time>
      </trkpt>
      <trkpt lat="40.240250" lon="-4.604417">
        <ele>774.0</ele>
        <time>2018-09-16T14:22:22Z</time>
      </trkpt>
      <trkpt lat="40.240200" lon="-4.604283">
        <ele>775.0</ele>
        <time>2018-09-16T14:22:23Z</time>
      </trkpt>
      <trkpt lat="40.240167" lon="-4.604150">
        <ele>777.0</ele>
        <time>2018-09-16T14:22:24Z</time>
      </trkpt>
      <trkpt lat="40.240133" lon="-4.604050">
        <ele>779.0</ele>
        <time>2018-09-16T14:22:25Z</time>
      </trkpt>
      <trkpt lat="40.240100" lon="-4.603933">
        <ele>781.0</ele>
        <time>2018-09-16T14:22:26Z</time>
      </trkpt>
      <trkpt lat="40.240067" lon="-4.603833">
        <ele>781.0</ele>
        <time>2018-09-16T14:22:27Z</time>
      </trkpt>
      <trkpt lat="40.240017" lon="-4.603733">
        <ele>781.0</ele>
        <time>2018-09-16T14:22:28Z</time>
      </trkpt>
      <trkpt lat="40.239933" lon="-4.603683">
        <ele>781.0</ele>
        <time>2018-09-16T14:22:29Z</time>
      </trkpt>
      <trkpt lat="40.239850" lon="-4.603633">
        <ele>781.0</ele>
        <time>2018-09-16T14:22:30Z</time>
      </trkpt>
      <trkpt lat="40.239767" lon="-4.603600">
        <ele>781.0</ele>
        <time>2018-09-16T14:22:31Z</time>
      </trkpt>
      <trkpt lat="40.239683" lon="-4.603567">
        <ele>783.0</ele>
        <time>2018-09-16T14:22:32Z</time>
      </trkpt>
      <trkpt lat="40.239617" lon="-4.603583">
        <ele>783.0</ele>
        <time>2018-09-16T14:22:33Z</time>
      </trkpt>
      <trkpt lat="40.239550" lon="-4.603617">
        <ele>785.0</ele>
        <time>2018-09-16T14:22:34Z</time>
      </trkpt>
      <trkpt lat="40.239483" lon="-4.603700">
        <ele>786.0</ele>
        <time>2018-09-16T14:22:35Z</time>
      </trkpt>
      <trkpt lat="40.239450" lon="-4.603767">
        <ele>787.0</ele>
        <time>2018-09-16T14:22:36Z</time>
      </trkpt>
      <trkpt lat="40.239417" lon="-4.603850">
        <ele>787.0</ele>
        <time>2018-09-16T14:22:37Z</time>
      </trkpt>
      <trkpt lat="40.239383" lon="-4.603950">
        <ele>786.0</ele>
        <time>2018-09-16T14:22:38Z</time>
      </trkpt>
      <trkpt lat="40.239317" lon="-4.604067">
        <ele>785.0</ele>
        <time>2018-09-16T14:22:39Z</time>
      </trkpt>
      <trkpt lat="40.239250" lon="-4.604200">
        <ele>784.0</ele>
        <time>2018-09-16T14:22:40Z</time>
      </trkpt>
      <trkpt lat="40.239183" lon="-4.604333">
        <ele>785.0</ele>
        <time>2018-09-16T14:22:41Z</time>
      </trkpt>
      <trkpt lat="40.239133" lon="-4.604467">
        <ele>787.0</ele>
        <time>2018-09-16T14:22:42Z</time>
      </trkpt>
      <trkpt lat="40.239083" lon="-4.604583">
        <ele>788.0</ele>
        <time>2018-09-16T14:22:43Z</time>
      </trkpt>
      <trkpt lat="40.239067" lon="-4.604717">
        <ele>788.0</ele>
        <time>2018-09-16T14:22:44Z</time>
      </trkpt>
      <trkpt lat="40.239050" lon="-4.604867">
        <ele>787.0</ele>
        <time>2018-09-16T14:22:45Z</time>
      </trkpt>
      <trkpt lat="40.239067" lon="-4.605017">
        <ele>785.0</ele>
        <time>2018-09-16T14:22:46Z</time>
      </trkpt>
      <trkpt lat="40.239100" lon="-4.605183">
        <ele>785.0</ele>
        <time>2018-09-16T14:22:47Z</time>
      </trkpt>
      <trkpt lat="40.239150" lon="-4.605350">
        <ele>784.0</ele>
        <time>2018-09-16T14:22:48Z</time>
      </trkpt>
      <trkpt lat="40.239200" lon="-4.605517">
        <ele>784.0</ele>
        <time>2018-09-16T14:22:49Z</time>
      </trkpt>
      <trkpt lat="40.239250" lon="-4.605667">
        <ele>784.0</ele>
        <time>2018-09-16T14:22:50Z</time>
      </trkpt>
      <trkpt lat="40.239283" lon="-4.605817">
        <ele>785.0</ele>
        <time>2018-09-16T14:22:51Z</time>
      </trkpt>
      <trkpt lat="40.239300" lon="-4.605933">
        <ele>785.0</ele>
        <time>2018-09-16T14:22:52Z</time>
      </trkpt>
      <trkpt lat="40.239283" lon="-4.606050">
        <ele>783.0</ele>
        <time>2018-09-16T14:22:53Z</time>
      </trkpt>
      <trkpt lat="40.239283" lon="-4.606167">
        <ele>782.0</ele>
        <time>2018-09-16T14:22:54Z</time>
      </trkpt>
      <trkpt lat="40.239267" lon="-4.606267">
        <ele>780.0</ele>
        <time>2018-09-16T14:22:55Z</time>
      </trkpt>
      <trkpt lat="40.239233" lon="-4.606350">
        <ele>778.0</ele>
        <time>2018-09-16T14:22:56Z</time>
      </trkpt>
      <trkpt lat="40.239200" lon="-4.606433">
        <ele>777.0</ele>
        <time>2018-09-16T14:22:57Z</time>
      </trkpt>
      <trkpt lat="40.239167" lon="-4.606500">
        <ele>776.0</ele>
        <time>2018-09-16T14:22:58Z</time>
      </trkpt>
      <trkpt lat="40.239133" lon="-4.606567">
        <ele>775.0</ele>
        <time>2018-09-16T14:22:59Z</time>
      </trkpt>
      <trkpt lat="40.239100" lon="-4.606617">
        <ele>774.0</ele>
        <time>2018-09-16T14:23:00Z</time>
      </trkpt>
      <trkpt lat="40.239050" lon="-4.606633">
        <ele>773.0</ele>
        <time>2018-09-16T14:23:01Z</time>
      </trkpt>
      <trkpt lat="40.239017" lon="-4.606583">
        <ele>769.0</ele>
        <time>2018-09-16T14:23:02Z</time>
      </trkpt>
      <trkpt lat="40.238983" lon="-4.606517">
        <ele>767.0</ele>
        <time>2018-09-16T14:23:03Z</time>
      </trkpt>
      <trkpt lat="40.238967" lon="-4.606400">
        <ele>768.0</ele>
        <time>2018-09-16T14:23:04Z</time>
      </trkpt>
      <trkpt lat="40.238983" lon="-4.606317">
        <ele>769.0</ele>
        <time>2018-09-16T14:23:05Z</time>
      </trkpt>
      <trkpt lat="40.239033" lon="-4.606233">
        <ele>770.0</ele>
        <time>2018-09-16T14:23:06Z</time>
      </trkpt>
      <trkpt lat="40.239100" lon="-4.606167">
        <ele>769.0</ele>
        <time>2018-09-16T14:23:07Z</time>
      </trkpt>
      <trkpt lat="40.239200" lon="-4.606117">
        <ele>767.0</ele>
        <time>2018-09-16T14:23:08Z</time>
      </trkpt>
      <trkpt lat="40.239317" lon="-4.606083">
        <ele>764.0</ele>
        <time>2018-09-16T14:23:09Z</time>
      </trkpt>
      <trkpt lat="40.239450" lon="-4.606067">
        <ele>761.0</ele>
        <time>2018-09-16T14:23:10Z</time>
      </trkpt>
      <trkpt lat="40.239600" lon="-4.606133">
        <ele>757.0</ele>
        <time>2018-09-16T14:23:11Z</time>
      </trkpt>
      <trkpt lat="40.239733" lon="-4.606267">
        <ele>754.0</ele>
        <time>2018-09-16T14:23:12Z</time>
      </trkpt>
      <trkpt lat="40.239783" lon="-4.606433">
        <ele>752.0</ele>
        <time>2018-09-16T14:23:13Z</time>
      </trkpt>
      <trkpt lat="40.239783" lon="-4.606583">
        <ele>751.0</ele>
        <time>2018-09-16T14:23:14Z</time>
      </trkpt>
      <trkpt lat="40.239733" lon="-4.606700">
        <ele>752.0</ele>
        <time>2018-09-16T14:23:15Z</time>
      </trkpt>
      <trkpt lat="40.239700" lon="-4.606783">
        <ele>754.0</ele>
        <time>2018-09-16T14:23:16Z</time>
      </trkpt>
      <trkpt lat="40.239683" lon="-4.606867">
        <ele>754.0</ele>
        <time>2018-09-16T14:23:17Z</time>
      </trkpt>
      <trkpt lat="40.239650" lon="-4.606950">
        <ele>754.0</ele>
        <time>2018-09-16T14:23:18Z</time>
      </trkpt>
      <trkpt lat="40.239617" lon="-4.607033">
        <ele>752.0</ele>
        <time>2018-09-16T14:23:19Z</time>
      </trkpt>
      <trkpt lat="40.239567" lon="-4.607117">
        <ele>750.0</ele>
        <time>2018-09-16T14:23:20Z</time>
      </trkpt>
      <trkpt lat="40.239500" lon="-4.607217">
        <ele>749.0</ele>
        <time>2018-09-16T14:23:21Z</time>
      </trkpt>
      <trkpt lat="40.239450" lon="-4.607300">
        <ele>749.0</ele>
        <time>2018-09-16T14:23:22Z</time>
      </trkpt>
      <trkpt lat="40.239400" lon="-4.607400">
        <ele>749.0</ele>
        <time>2018-09-16T14:23:23Z</time>
      </trkpt>
      <trkpt lat="40.239383" lon="-4.607500">
        <ele>750.0</ele>
        <time>2018-09-16T14:23:24Z</time>
      </trkpt>
      <trkpt lat="40.239350" lon="-4.607583">
        <ele>750.0</ele>
        <time>2018-09-16T14:23:25Z</time>
      </trkpt>
      <trkpt lat="40.239317" lon="-4.607683">
        <ele>749.0</ele>
        <time>2018-09-16T14:23:26Z</time>
      </trkpt>
      <trkpt lat="40.239283" lon="-4.607783">
        <ele>748.0</ele>
        <time>2018-09-16T14:23:27Z</time>
      </trkpt>
      <trkpt lat="40.239250" lon="-4.607883">
        <ele>747.0</ele>
        <time>2018-09-16T14:23:28Z</time>
      </trkpt>
      <trkpt lat="40.239200" lon="-4.607983">
        <ele>746.0</ele>
        <time>2018-09-16T14:23:29Z</time>
      </trkpt>
      <trkpt lat="40.239167" lon="-4.608083">
        <ele>746.0</ele>
        <time>2018-09-16T14:23:30Z</time>
      </trkpt>
      <trkpt lat="40.239133" lon="-4.608183">
        <ele>745.0</ele>
        <time>2018-09-16T14:23:31Z</time>
      </trkpt>
      <trkpt lat="40.239100" lon="-4.608267">
        <ele>744.0</ele>
        <time>2018-09-16T14:23:32Z</time>
      </trkpt>
      <trkpt lat="40.239050" lon="-4.608350">
        <ele>743.0</ele>
        <time>2018-09-16T14:23:33Z</time>
      </trkpt>
      <trkpt lat="40.239000" lon="-4.608433">
        <ele>742.0</ele>
        <time>2018-09-16T14:23:34Z</time>
      </trkpt>
      <trkpt lat="40.238950" lon="-4.608517">
        <ele>742.0</ele>
        <time>2018-09-16T14:23:35Z</time>
      </trkpt>
      <trkpt lat="40.238900" lon="-4.608600">
        <ele>742.0</ele>
        <time>2018-09-16T14:23:36Z</time>
      </trkpt>
      <trkpt lat="40.238850" lon="-4.608700">
        <ele>741.0</ele>
        <time>2018-09-16T14:23:37Z</time>
      </trkpt>
      <trkpt lat="40.238800" lon="-4.608800">
        <ele>740.0</ele>
        <time>2018-09-16T14:23:38Z</time>
      </trkpt>
      <trkpt lat="40.238750" lon="-4.608883">
        <ele>739.0</ele>
        <time>2018-09-16T14:23:39Z</time>
      </trkpt>
      <trkpt lat="40.238683" lon="-4.608967">
        <ele>739.0</ele>
        <time>2018-09-16T14:23:40Z</time>
      </trkpt>
      <trkpt lat="40.238633" lon="-4.609033">
        <ele>740.0</ele>
        <time>2018-09-16T14:23:41Z</time>
      </trkpt>
      <trkpt lat="40.238567" lon="-4.609117">
        <ele>740.0</ele>
        <time>2018-09-16T14:23:42Z</time>
      </trkpt>
      <trkpt lat="40.238517" lon="-4.609183">
        <ele>740.0</ele>
        <time>2018-09-16T14:23:43Z</time>
      </trkpt>
      <trkpt lat="40.238467" lon="-4.609250">
        <ele>740.0</ele>
        <time>2018-09-16T14:23:44Z</time>
      </trkpt>
      <trkpt lat="40.238383" lon="-4.609283">
        <ele>740.0</ele>
        <time>2018-09-16T14:23:45Z</time>
      </trkpt>
      <trkpt lat="40.238300" lon="-4.609283">
        <ele>740.0</ele>
        <time>2018-09-16T14:23:46Z</time>
      </trkpt>
      <trkpt lat="40.238200" lon="-4.609267">
        <ele>741.0</ele>
        <time>2018-09-16T14:23:47Z</time>
      </trkpt>
      <trkpt lat="40.238117" lon="-4.609233">
        <ele>742.0</ele>
        <time>2018-09-16T14:23:48Z</time>
      </trkpt>
      <trkpt lat="40.238067" lon="-4.609167">
        <ele>744.0</ele>
        <time>2018-09-16T14:23:49Z</time>
      </trkpt>
      <trkpt lat="40.238000" lon="-4.609117">
        <ele>746.0</ele>
        <time>2018-09-16T14:23:50Z</time>
      </trkpt>
      <trkpt lat="40.237967" lon="-4.609067">
        <ele>746.0</ele>
        <time>2018-09-16T14:23:51Z</time>
      </trkpt>
      <trkpt lat="40.237950" lon="-4.609033">
        <ele>747.0</ele>
        <time>2018-09-16T14:23:52Z</time>
      </trkpt>
      <trkpt lat="40.237933" lon="-4.609000">
        <ele>746.0</ele>
        <time>2018-09-16T14:23:53Z</time>
      </trkpt>
      <trkpt lat="40.237900" lon="-4.608950">
        <ele>746.0</ele>
        <time>2018-09-16T14:23:54Z</time>
      </trkpt>
      <trkpt lat="40.237883" lon="-4.608867">
        <ele>744.0</ele>
        <time>2018-09-16T14:23:55Z</time>
      </trkpt>
      <trkpt lat="40.237867" lon="-4.608767">
        <ele>743.0</ele>
        <time>2018-09-16T14:23:56Z</time>
      </trkpt>
      <trkpt lat="40.237850" lon="-4.608667">
        <ele>742.0</ele>
        <time>2018-09-16T14:23:57Z</time>
      </trkpt>
      <trkpt lat="40.237833" lon="-4.608583">
        <ele>744.0</ele>
        <time>2018-09-16T14:23:58Z</time>
      </trkpt>
      <trkpt lat="40.237833" lon="-4.608500">
        <ele>746.0</ele>
        <time>2018-09-16T14:23:59Z</time>
      </trkpt>
      <trkpt lat="40.237817" lon="-4.608433">
        <ele>748.0</ele>
        <time>2018-09-16T14:24:00Z</time>
      </trkpt>
      <trkpt lat="40.237800" lon="-4.608350">
        <ele>750.0</ele>
        <time>2018-09-16T14:24:01Z</time>
      </trkpt>
      <trkpt lat="40.237767" lon="-4.608283">
        <ele>750.0</ele>
        <time>2018-09-16T14:24:02Z</time>
      </trkpt>
      <trkpt lat="40.237733" lon="-4.608217">
        <ele>749.0</ele>
        <time>2018-09-16T14:24:03Z</time>
      </trkpt>
      <trkpt lat="40.237717" lon="-4.608150">
        <ele>748.0</ele>
        <time>2018-09-16T14:24:04Z</time>
      </trkpt>
      <trkpt lat="40.237700" lon="-4.608083">
        <ele>748.0</ele>
        <time>2018-09-16T14:24:05Z</time>
      </trkpt>
      <trkpt lat="40.237700" lon="-4.608017">
        <ele>748.0</ele>
        <time>2018-09-16T14:24:06Z</time>
      </trkpt>
      <trkpt lat="40.237700" lon="-4.607950">
        <ele>746.0</ele>
        <time>2018-09-16T14:24:07Z</time>
      </trkpt>
      <trkpt lat="40.237683" lon="-4.607883">
        <ele>744.0</ele>
        <time>2018-09-16T14:24:08Z</time>
      </trkpt>
      <trkpt lat="40.237650" lon="-4.607850">
        <ele>743.0</ele>
        <time>2018-09-16T14:24:09Z</time>
      </trkpt>
      <trkpt lat="40.237633" lon="-4.607800">
        <ele>742.0</ele>
        <time>2018-09-16T14:24:10Z</time>
      </trkpt>
      <trkpt lat="40.237633" lon="-4.607733">
        <ele>741.0</ele>
        <time>2018-09-16T14:24:11Z</time>
      </trkpt>
      <trkpt lat="40.237650" lon="-4.607667">
        <ele>739.0</ele>
        <time>2018-09-16T14:24:12Z</time>
      </trkpt>
      <trkpt lat="40.237700" lon="-4.607583">
        <ele>737.0</ele>
        <time>2018-09-16T14:24:13Z</time>
      </trkpt>
      <trkpt lat="40.237767" lon="-4.607500">
        <ele>734.0</ele>
        <time>2018-09-16T14:24:14Z</time>
      </trkpt>
      <trkpt lat="40.237883" lon="-4.607433">
        <ele>732.0</ele>
        <time>2018-09-16T14:24:15Z</time>
      </trkpt>
      <trkpt lat="40.238017" lon="-4.607417">
        <ele>729.0</ele>
        <time>2018-09-16T14:24:16Z</time>
      </trkpt>
      <trkpt lat="40.238167" lon="-4.607467">
        <ele>726.0</ele>
        <time>2018-09-16T14:24:17Z</time>
      </trkpt>
      <trkpt lat="40.238300" lon="-4.607567">
        <ele>723.0</ele>
        <time>2018-09-16T14:24:18Z</time>
      </trkpt>
      <trkpt lat="40.238400" lon="-4.607733">
        <ele>721.0</ele>
        <time>2018-09-16T14:24:19Z</time>
      </trkpt>
      <trkpt lat="40.238417" lon="-4.607883">
        <ele>719.0</ele>
        <time>2018-09-16T14:24:20Z</time>
      </trkpt>
      <trkpt lat="40.238400" lon="-4.608017">
        <ele>717.0</ele>
        <time>2018-09-16T14:24:21Z</time>
      </trkpt>
      <trkpt lat="40.238350" lon="-4.608083">
        <ele>717.0</ele>
        <time>2018-09-16T14:24:22Z</time>
      </trkpt>
      <trkpt lat="40.238317" lon="-4.608117">
        <ele>717.0</ele>
        <time>2018-09-16T14:24:23Z</time>
      </trkpt>
      <trkpt lat="40.238300" lon="-4.608117">
        <ele>716.0</ele>
        <time>2018-09-16T14:24:24Z</time>
      </trkpt>
      <trkpt lat="40.238283" lon="-4.608083">
        <ele>715.0</ele>
        <time>2018-09-16T14:24:25Z</time>
      </trkpt>
      <trkpt lat="40.238283" lon="-4.608033">
        <ele>712.0</ele>
        <time>2018-09-16T14:24:26Z</time>
      </trkpt>
      <trkpt lat="40.238300" lon="-4.607950">
        <ele>709.0</ele>
        <time>2018-09-16T14:24:27Z</time>
      </trkpt>
      <trkpt lat="40.238333" lon="-4.607867">
        <ele>707.0</ele>
        <time>2018-09-16T14:24:28Z</time>
      </trkpt>
      <trkpt lat="40.238367" lon="-4.607767">
        <ele>706.0</ele>
        <time>2018-09-16T14:24:29Z</time>
      </trkpt>
      <trkpt lat="40.238400" lon="-4.607683">
        <ele>704.0</ele>
        <time>2018-09-16T14:24:30Z</time>
      </trkpt>
      <trkpt lat="40.238450" lon="-4.607617">
        <ele>703.0</ele>
        <time>2018-09-16T14:24:31Z</time>
      </trkpt>
      <trkpt lat="40.238467" lon="-4.607550">
        <ele>700.0</ele>
        <time>2018-09-16T14:24:32Z</time>
      </trkpt>
      <trkpt lat="40.238483" lon="-4.607483">
        <ele>697.0</ele>
        <time>2018-09-16T14:24:33Z</time>
      </trkpt>
      <trkpt lat="40.238467" lon="-4.607417">
        <ele>694.0</ele>
        <time>2018-09-16T14:24:34Z</time>
      </trkpt>
      <trkpt lat="40.238467" lon="-4.607367">
        <ele>691.0</ele>
        <time>2018-09-16T14:24:35Z</time>
      </trkpt>
      <trkpt lat="40.238450" lon="-4.607317">
        <ele>689.0</ele>
        <time>2018-09-16T14:24:36Z</time>
      </trkpt>
      <trkpt lat="40.238433" lon="-4.607250">
        <ele>686.0</ele>
        <time>2018-09-16T14:24:37Z</time>
      </trkpt>
      <trkpt lat="40.238400" lon="-4.607183">
        <ele>683.0</ele>
        <time>2018-09-16T14:24:38Z</time>
      </trkpt>
      <trkpt lat="40.238383" lon="-4.607100">
        <ele>681.0</ele>
        <time>2018-09-16T14:24:39Z</time>
      </trkpt>
      <trkpt lat="40.238350" lon="-4.607050">
        <ele>680.0</ele>
        <time>2018-09-16T14:24:40Z</time>
      </trkpt>
      <trkpt lat="40.238317" lon="-4.607000">
        <ele>679.0</ele>
        <time>2018-09-16T14:24:41Z</time>
      </trkpt>
      <trkpt lat="40.238300" lon="-4.606967">
        <ele>677.0</ele>
        <time>2018-09-16T14:24:42Z</time>
      </trkpt>
      <trkpt lat="40.238283" lon="-4.606917">
        <ele>675.0</ele>
        <time>2018-09-16T14:24:43Z</time>
      </trkpt>
      <trkpt lat="40.238300" lon="-4.606850">
        <ele>672.0</ele>
        <time>2018-09-16T14:24:44Z</time>
      </trkpt>
      <trkpt lat="40.238300" lon="-4.606767">
        <ele>669.0</ele>
        <time>2018-09-16T14:24:45Z</time>
      </trkpt>
      <trkpt lat="40.238317" lon="-4.606683">
        <ele>667.0</ele>
        <time>2018-09-16T14:24:46Z</time>
      </trkpt>
      <trkpt lat="40.238333" lon="-4.606617">
        <ele>666.0</ele>
        <time>2018-09-16T14:24:47Z</time>
      </trkpt>
      <trkpt lat="40.238350" lon="-4.606550">
        <ele>664.0</ele>
        <time>2018-09-16T14:24:48Z</time>
      </trkpt>
      <trkpt lat="40.238350" lon="-4.606483">
        <ele>661.0</ele>
        <time>2018-09-16T14:24:49Z</time>
      </trkpt>
      <trkpt lat="40.238350" lon="-4.606433">
        <ele>658.0</ele>
        <time>2018-09-16T14:24:50Z</time>
      </trkpt>
      <trkpt lat="40.238333" lon="-4.606367">
        <ele>656.0</ele>
        <time>2018-09-16T14:24:51Z</time>
      </trkpt>
      <trkpt lat="40.238300" lon="-4.606300">
        <ele>653.0</ele>
        <time>2018-09-16T14:24:52Z</time>
      </trkpt>
      <trkpt lat="40.238283" lon="-4.606233">
        <ele>652.0</ele>
        <time>2018-09-16T14:24:53Z</time>
      </trkpt>
      <trkpt lat="40.238267" lon="-4.606167">
        <ele>651.0</ele>
        <time>2018-09-16T14:24:54Z</time>
      </trkpt>
      <trkpt lat="40.238250" lon="-4.606100">
        <ele>650.0</ele>
        <time>2018-09-16T14:24:55Z</time>
      </trkpt>
      <trkpt lat="40.238250" lon="-4.606033">
        <ele>649.0</ele>
        <time>2018-09-16T14:24:56Z</time>
      </trkpt>
      <trkpt lat="40.238233" lon="-4.605983">
        <ele>648.0</ele>
        <time>2018-09-16T14:24:57Z</time>
      </trkpt>
      <trkpt lat="40.238217" lon="-4.605933">
        <ele>646.0</ele>
        <time>2018-09-16T14:24:58Z</time>
      </trkpt>
      <trkpt lat="40.238200" lon="-4.605900">
        <ele>644.0</ele>
        <time>2018-09-16T14:24:59Z</time>
      </trkpt>
      <trkpt lat="40.238183" lon="-4.605867">
        <ele>641.0</ele>
        <time>2018-09-16T14:25:00Z</time>
      </trkpt>
      <trkpt lat="40.238133" lon="-4.605833">
        <ele>638.0</ele>
        <time>2018-09-16T14:25:01Z</time>
      </trkpt>
      <trkpt lat="40.238100" lon="-4.605783">
        <ele>636.0</ele>
        <time>2018-09-16T14:25:02Z</time>
      </trkpt>
      <trkpt lat="40.238050" lon="-4.605733">
        <ele>635.0</ele>
        <time>2018-09-16T14:25:03Z</time>
      </trkpt>
      <trkpt lat="40.238017" lon="-4.605683">
        <ele>635.0</ele>
        <time>2018-09-16T14:25:04Z</time>
      </trkpt>
      <trkpt lat="40.238000" lon="-4.605650">
        <ele>635.0</ele>
        <time>2018-09-16T14:25:05Z</time>
      </trkpt>
      <trkpt lat="40.237967" lon="-4.605617">
        <ele>633.0</ele>
        <time>2018-09-16T14:25:06Z</time>
      </trkpt>
      <trkpt lat="40.237933" lon="-4.605567">
        <ele>630.0</ele>
        <time>2018-09-16T14:25:07Z</time>
      </trkpt>
      <trkpt lat="40.237867" lon="-4.605517">
        <ele>627.0</ele>
        <time>2018-09-16T14:25:08Z</time>
      </trkpt>
      <trkpt lat="40.237817" lon="-4.605467">
        <ele>625.0</ele>
        <time>2018-09-16T14:25:09Z</time>
      </trkpt>
      <trkpt lat="40.237800" lon="-4.605450">
        <ele>623.0</ele>
        <time>2018-09-16T14:25:10Z</time>
      </trkpt>
      <trkpt lat="40.237800" lon="-4.605450">
        <ele>623.0</ele>
        <time>2018-09-16T14:25:11Z</time>
      </trkpt>
      <trkpt lat="40.237800" lon="-4.605450">
        <ele>622.0</ele>
        <time>2018-09-16T14:25:12Z</time>
      </trkpt>
      <trkpt lat="40.237800" lon="-4.605450">
        <ele>623.0</ele>
        <time>2018-09-16T14:25:13Z</time>
      </trkpt>
      <trkpt lat="40.237800" lon="-4.605450">
        <ele>623.0</ele>
        <time>2018-09-16T14:25:14Z</time>
      </trkpt>
      <trkpt lat="40.237800" lon="-4.605433">
        <ele>623.0</ele>
        <time>2018-09-16T14:25:15Z</time>
      </trkpt>
      <trkpt lat="40.237800" lon="-4.605433">
        <ele>623.0</ele>
        <time>2018-09-16T14:25:16Z</time>
      </trkpt>
      <trkpt lat="40.237800" lon="-4.605433">
        <ele>623.0</ele>
        <time>2018-09-16T14:25:17Z</time>
      </trkpt>
      <trkpt lat="40.237800" lon="-4.605433">
        <ele>623.0</ele>
        <time>2018-09-16T14:25:18Z</time>
      </trkpt>
      <trkpt lat="40.237800" lon="-4.605433">
        <ele>623.0</ele>
        <time>2018-09-16T14:25:19Z</time>
      </trkpt>
      <trkpt lat="40.237800" lon="-4.605433">
        <ele>623.0</ele>
        <time>2018-09-16T14:25:20Z</time>
      </trkpt>
      <trkpt lat="40.237800" lon="-4.605433">
        <ele>623.0</ele>
        <time>2018-09-16T14:25:21Z</time>
      </trkpt>
      <trkpt lat="40.237800" lon="-4.605433">
        <ele>623.0</ele>
        <time>2018-09-16T14:25:22Z</time>
      </trkpt>
      <trkpt lat="40.237800" lon="-4.605433">
        <ele>623.0</ele>
        <time>2018-09-16T14:25:23Z</time>
      </trkpt>
      <trkpt lat="40.237800" lon="-4.605433">
        <ele>623.0</ele>
        <time>2018-09-16T14:25:24Z</time>
      </trkpt>
      <trkpt lat="40.237800" lon="-4.605433">
        <ele>623.0</ele>
        <time>2018-09-16T14:25:25Z</time>
      </trkpt>
      <trkpt lat="40.237817" lon="-4.605433">
        <ele>623.0</ele>
        <time>2018-09-16T14:25:26Z</time>
      </trkpt>
      <trkpt lat="40.237817" lon="-4.605433">
        <ele>623.0</ele>
        <time>2018-09-16T14:25:27Z</time>
      </trkpt>
      <trkpt lat="40.237817" lon="-4.605433">
        <ele>623.0</ele>
        <time>2018-09-16T14:25:28Z</time>
      </trkpt>
      <trkpt lat="40.237817" lon="-4.605433">
        <ele>623.0</ele>
        <time>2018-09-16T14:25:29Z</time>
      </trkpt>
      <trkpt lat="40.237817" lon="-4.605433">
        <ele>623.0</ele>
        <time>2018-09-16T14:25:30Z</time>
      </trkpt>
      <trkpt lat="40.237817" lon="-4.605433">
        <ele>623.0</ele>
        <time>2018-09-16T14:25:31Z</time>
      </trkpt>
      <trkpt lat="40.237817" lon="-4.605433">
        <ele>623.0</ele>
        <time>2018-09-16T14:25:32Z</time>
      </trkpt>
      <trkpt lat="40.237817" lon="-4.605433">
        <ele>623.0</ele>
        <time>2018-09-16T14:25:33Z</time>
      </trkpt>
      <trkpt lat="40.237817" lon="-4.605433">
        <ele>623.0</ele>
        <time>2018-09-16T14:25:34Z</time>
      </trkpt>
      <trkpt lat="40.237817" lon="-4.605433">
        <ele>623.0</ele>
        <time>2018-09-16T14:25:35Z</time>
      </trkpt>
      <trkpt lat="40.237817" lon="-4.605433">
        <ele>623.0</ele>
        <time>2018-09-16T14:25:36Z</time>
      </trkpt>
      <trkpt lat="40.237817" lon="-4.605433">
        <ele>623.0</ele>
        <time>2018-09-16T14:25:37Z</time>
      </trkpt>
      <trkpt lat="40.237817" lon="-4.605433">
        <ele>623.0</ele>
        <time>2018-09-16T14:25:38Z</time>
      </trkpt>
      <trkpt lat="40.237817" lon="-4.605433">
        <ele>623.0</ele>
        <time>2018-09-16T14:25:39Z</time>
      </trkpt>
      <trkpt lat="40.237817" lon="-4.605433">
        <ele>623.0</ele>
        <time>2018-09-16T14:25:40Z</time>
      </trkpt>
      <trkpt lat="40.237817" lon="-4.605433">
        <ele>623.0</ele>
        <time>2018-09-16T14:25:41Z</time>
      </trkpt>
      <trkpt lat="40.237817" lon="-4.605433">
        <ele>623.0</ele>
        <time>2018-09-16T14:25:42Z</time>
      </trkpt>
      <trkpt lat="40.237817" lon="-4.605433">
        <ele>623.0</ele>
        <time>2018-09-16T14:25:43Z</time>
      </trkpt>
      <trkpt lat="40.237817" lon="-4.605433">
        <ele>623.0</ele>
        <time>2018-09-16T14:25:44Z</time>
      </trkpt>
      <trkpt lat="40.237817" lon="-4.605433">
        <ele>623.0</ele>
        <time>2018-09-16T14:25:45Z</time>
      </trkpt>
      <trkpt lat="40.237817" lon="-4.605433">
        <ele>623.0</ele>
        <time>2018-09-16T14:25:46Z</time>
      </trkpt>
      <trkpt lat="40.237817" lon="-4.605433">
        <ele>623.0</ele>
        <time>2018-09-16T14:25:47Z</time>
      </trkpt>
      <trkpt lat="40.237817" lon="-4.605433">
        <ele>623.0</ele>
        <time>2018-09-16T14:25:48Z</time>
      </trkpt>
      <trkpt lat="40.237817" lon="-4.605433">
        <ele>623.0</ele>
        <time>2018-09-16T14:25:49Z</time>
      </trkpt>
      <trkpt lat="40.237817" lon="-4.605433">
        <ele>623.0</ele>
        <time>2018-09-16T14:25:50Z</time>
      </trkpt>
      <trkpt lat="40.237817" lon="-4.605433">
        <ele>623.0</ele>
        <time>2018-09-16T14:25:51Z</time>
      </trkpt>
      <trkpt lat="40.237817" lon="-4.605433">
        <ele>623.0</ele>
        <time>2018-09-16T14:25:52Z</time>
      </trkpt>
      <trkpt lat="40.237817" lon="-4.605433">
        <ele>623.0</ele>
        <time>2018-09-16T14:25:53Z</time>
      </trkpt>
      <trkpt lat="40.237817" lon="-4.605433">
        <ele>623.0</ele>
        <time>2018-09-16T14:25:54Z</time>
      </trkpt>
      <trkpt lat="40.237817" lon="-4.605433">
        <ele>622.0</ele>
        <time>2018-09-16T14:25:55Z</time>
      </trkpt>
      <trkpt lat="40.237817" lon="-4.605433">
        <ele>623.0</ele>
        <time>2018-09-16T14:25:56Z</time>
      </trkpt>
      <trkpt lat="40.237817" lon="-4.605433">
        <ele>622.0</ele>
        <time>2018-09-16T14:25:57Z</time>
      </trkpt>
      <trkpt lat="40.237817" lon="-4.605433">
        <ele>622.0</ele>
        <time>2018-09-16T14:25:58Z</time>
      </trkpt>
      <trkpt lat="40.237817" lon="-4.605433">
        <ele>622.0</ele>
        <time>2018-09-16T14:25:59Z</time>
      </trkpt>
      <trkpt lat="40.237817" lon="-4.605433">
        <ele>622.0</ele>
        <time>2018-09-16T14:26:00Z</time>
      </trkpt>
      <trkpt lat="40.237817" lon="-4.605433">
        <ele>622.0</ele>
        <time>2018-09-16T14:26:01Z</time>
      </trkpt>
      <trkpt lat="40.237817" lon="-4.605433">
        <ele>622.0</ele>
        <time>2018-09-16T14:26:02Z</time>
      </trkpt>
      <trkpt lat="40.237817" lon="-4.605433">
        <ele>622.0</ele>
        <time>2018-09-16T14:26:03Z</time>
      </trkpt>
      <trkpt lat="40.237817" lon="-4.605433">
        <ele>622.0</ele>
        <time>2018-09-16T14:26:04Z</time>
      </trkpt>
      <trkpt lat="40.237817" lon="-4.605433">
        <ele>622.0</ele>
        <time>2018-09-16T14:26:05Z</time>
      </trkpt>
      <trkpt lat="40.237817" lon="-4.605433">
        <ele>622.0</ele>
        <time>2018-09-16T14:26:06Z</time>
      </trkpt>
      <trkpt lat="40.237817" lon="-4.605433">
        <ele>622.0</ele>
        <time>2018-09-16T14:26:07Z</time>
      </trkpt>
      <trkpt lat="40.237817" lon="-4.605433">
        <ele>622.0</ele>
        <time>2018-09-16T14:26:08Z</time>
      </trkpt>
      <trkpt lat="40.237817" lon="-4.605433">
        <ele>622.0</ele>
        <time>2018-09-16T14:26:09Z</time>
      </trkpt>
      <trkpt lat="40.237817" lon="-4.605433">
        <ele>621.0</ele>
        <time>2018-09-16T14:26:10Z</time>
      </trkpt>
      <trkpt lat="40.237817" lon="-4.605433">
        <ele>621.0</ele>
        <time>2018-09-16T14:26:11Z</time>
      </trkpt>
      <trkpt lat="40.237817" lon="-4.605433">
        <ele>621.0</ele>
        <time>2018-09-16T14:26:12Z</time>
      </trkpt>
      <trkpt lat="40.237817" lon="-4.605433">
        <ele>621.0</ele>
        <time>2018-09-16T14:26:13Z</time>
      </trkpt>
      <trkpt lat="40.237833" lon="-4.605433">
        <ele>622.0</ele>
        <time>2018-09-16T14:26:14Z</time>
      </trkpt>
      <trkpt lat="40.237833" lon="-4.605433">
        <ele>622.0</ele>
        <time>2018-09-16T14:26:15Z</time>
      </trkpt>
      <trkpt lat="40.237833" lon="-4.605433">
        <ele>622.0</ele>
        <time>2018-09-16T14:26:16Z</time>
      </trkpt>
      <trkpt lat="40.237833" lon="-4.605433">
        <ele>622.0</ele>
        <time>2018-09-16T14:26:17Z</time>
      </trkpt>
      <trkpt lat="40.237833" lon="-4.605433">
        <ele>622.0</ele>
        <time>2018-09-16T14:26:18Z</time>
      </trkpt>
      <trkpt lat="40.237833" lon="-4.605433">
        <ele>622.0</ele>
        <time>2018-09-16T14:26:19Z</time>
      </trkpt>
      <trkpt lat="40.237833" lon="-4.605433">
        <ele>623.0</ele>
        <time>2018-09-16T14:26:20Z</time>
      </trkpt>
      <trkpt lat="40.237833" lon="-4.605433">
        <ele>623.0</ele>
        <time>2018-09-16T14:26:21Z</time>
      </trkpt>
      <trkpt lat="40.237833" lon="-4.605433">
        <ele>622.0</ele>
        <time>2018-09-16T14:26:22Z</time>
      </trkpt>
      <trkpt lat="40.237833" lon="-4.605433">
        <ele>623.0</ele>
        <time>2018-09-16T14:26:23Z</time>
      </trkpt>
      <trkpt lat="40.237833" lon="-4.605433">
        <ele>623.0</ele>
        <time>2018-09-16T14:26:24Z</time>
      </trkpt>
      <trkpt lat="40.237833" lon="-4.605433">
        <ele>623.0</ele>
        <time>2018-09-16T14:26:25Z</time>
      </trkpt>
      <trkpt lat="40.237833" lon="-4.605433">
        <ele>623.0</ele>
        <time>2018-09-16T14:26:26Z</time>
      </trkpt>
      <trkpt lat="40.237833" lon="-4.605433">
        <ele>623.0</ele>
        <time>2018-09-16T14:26:27Z</time>
      </trkpt>
      <trkpt lat="40.237833" lon="-4.605433">
        <ele>622.0</ele>
        <time>2018-09-16T14:26:28Z</time>
      </trkpt>
      <trkpt lat="40.237833" lon="-4.605433">
        <ele>622.0</ele>
        <time>2018-09-16T14:26:29Z</time>
      </trkpt>
      <trkpt lat="40.237833" lon="-4.605433">
        <ele>622.0</ele>
        <time>2018-09-16T14:26:30Z</time>
      </trkpt>
      <trkpt lat="40.237833" lon="-4.605433">
        <ele>622.0</ele>
        <time>2018-09-16T14:26:31Z</time>
      </trkpt>
      <trkpt lat="40.237817" lon="-4.605433">
        <ele>622.0</ele>
        <time>2018-09-16T14:26:32Z</time>
      </trkpt>
      <trkpt lat="40.237817" lon="-4.605433">
        <ele>622.0</ele>
        <time>2018-09-16T14:26:33Z</time>
      </trkpt>
      <trkpt lat="40.237817" lon="-4.605433">
        <ele>621.0</ele>
        <time>2018-09-16T14:26:34Z</time>
      </trkpt>
      <trkpt lat="40.237817" lon="-4.605433">
        <ele>621.0</ele>
        <time>2018-09-16T14:26:35Z</time>
      </trkpt>
      <trkpt lat="40.237817" lon="-4.605433">
        <ele>621.0</ele>
        <time>2018-09-16T14:26:36Z</time>
      </trkpt>
      <trkpt lat="40.237817" lon="-4.605433">
        <ele>622.0</ele>
        <time>2018-09-16T14:26:37Z</time>
      </trkpt>
      <trkpt lat="40.237817" lon="-4.605433">
        <ele>622.0</ele>
        <time>2018-09-16T14:26:38Z</time>
      </trkpt>
      <trkpt lat="40.237817" lon="-4.605433">
        <ele>622.0</ele>
        <time>2018-09-16T14:26:39Z</time>
      </trkpt>
      <trkpt lat="40.237833" lon="-4.605433">
        <ele>622.0</ele>
        <time>2018-09-16T14:26:40Z</time>
      </trkpt>
      <trkpt lat="40.237833" lon="-4.605433">
        <ele>622.0</ele>
        <time>2018-09-16T14:26:41Z</time>
      </trkpt>
      <trkpt lat="40.237833" lon="-4.605433">
        <ele>622.0</ele>
        <time>2018-09-16T14:26:42Z</time>
      </trkpt>
      <trkpt lat="40.237833" lon="-4.605433">
        <ele>622.0</ele>
        <time>2018-09-16T14:26:43Z</time>
      </trkpt>
      <trkpt lat="40.237833" lon="-4.605433">
        <ele>622.0</ele>
        <time>2018-09-16T14:26:44Z</time>
      </trkpt>
      <trkpt lat="40.237833" lon="-4.605417">
        <ele>622.0</ele>
        <time>2018-09-16T14:26:45Z</time>
      </trkpt>
      <trkpt lat="40.237833" lon="-4.605417">
        <ele>622.0</ele>
        <time>2018-09-16T14:26:46Z</time>
      </trkpt>
      <trkpt lat="40.237833" lon="-4.605433">
        <ele>622.0</ele>
        <time>2018-09-16T14:26:47Z</time>
      </trkpt>
      <trkpt lat="40.237833" lon="-4.605433">
        <ele>622.0</ele>
        <time>2018-09-16T14:26:48Z</time>
      </trkpt>
      <trkpt lat="40.237850" lon="-4.605433">
        <ele>622.0</ele>
        <time>2018-09-16T14:26:49Z</time>
      </trkpt>
      <trkpt lat="40.237833" lon="-4.605433">
        <ele>622.0</ele>
        <time>2018-09-16T14:26:50Z</time>
      </trkpt>
      <trkpt lat="40.237833" lon="-4.605433">
        <ele>622.0</ele>
        <time>2018-09-16T14:26:51Z</time>
      </trkpt>
      <trkpt lat="40.237850" lon="-4.605433">
        <ele>622.0</ele>
        <time>2018-09-16T14:26:52Z</time>
      </trkpt>
      <trkpt lat="40.237833" lon="-4.605433">
        <ele>622.0</ele>
        <time>2018-09-16T14:26:53Z</time>
      </trkpt>
      <trkpt lat="40.237833" lon="-4.605450">
        <ele>622.0</ele>
        <time>2018-09-16T14:26:54Z</time>
      </trkpt>
      <trkpt lat="40.237833" lon="-4.605450">
        <ele>622.0</ele>
        <time>2018-09-16T14:26:55Z</time>
      </trkpt>
      <trkpt lat="40.237833" lon="-4.605433">
        <ele>622.0</ele>
        <time>2018-09-16T14:26:56Z</time>
      </trkpt>
      <trkpt lat="40.237833" lon="-4.605433">
        <ele>622.0</ele>
        <time>2018-09-16T14:26:57Z</time>
      </trkpt>
      <trkpt lat="40.237833" lon="-4.605417">
        <ele>622.0</ele>
        <time>2018-09-16T14:26:58Z</time>
      </trkpt>
      <trkpt lat="40.237833" lon="-4.605417">
        <ele>621.0</ele>
        <time>2018-09-16T14:26:59Z</time>
      </trkpt>
      <trkpt lat="40.237833" lon="-4.605417">
        <ele>621.0</ele>
        <time>2018-09-16T14:27:00Z</time>
      </trkpt>
      <trkpt lat="40.237833" lon="-4.605417">
        <ele>621.0</ele>
        <time>2018-09-16T14:27:01Z</time>
      </trkpt>
      <trkpt lat="40.237833" lon="-4.605400">
        <ele>622.0</ele>
        <time>2018-09-16T14:27:02Z</time>
      </trkpt>
      <trkpt lat="40.237833" lon="-4.605400">
        <ele>622.0</ele>
        <time>2018-09-16T14:27:03Z</time>
      </trkpt>
      <trkpt lat="40.237833" lon="-4.605400">
        <ele>622.0</ele>
        <time>2018-09-16T14:27:04Z</time>
      </trkpt>
      <trkpt lat="40.237833" lon="-4.605400">
        <ele>622.0</ele>
        <time>2018-09-16T14:27:05Z</time>
      </trkpt>
      <trkpt lat="40.237833" lon="-4.605400">
        <ele>622.0</ele>
        <time>2018-09-16T14:27:06Z</time>
      </trkpt>
      <trkpt lat="40.237817" lon="-4.605400">
        <ele>621.0</ele>
        <time>2018-09-16T14:27:07Z</time>
      </trkpt>
      <trkpt lat="40.237817" lon="-4.605400">
        <ele>621.0</ele>
        <time>2018-09-16T14:27:08Z</time>
      </trkpt>
      <trkpt lat="40.237833" lon="-4.605400">
        <ele>621.0</ele>
        <time>2018-09-16T14:27:09Z</time>
      </trkpt>
      <trkpt lat="40.237833" lon="-4.605400">
        <ele>621.0</ele>
        <time>2018-09-16T14:27:10Z</time>
      </trkpt>
      <trkpt lat="40.237833" lon="-4.605400">
        <ele>621.0</ele>
        <time>2018-09-16T14:27:11Z</time>
      </trkpt>
      <trkpt lat="40.237833" lon="-4.605400">
        <ele>621.0</ele>
        <time>2018-09-16T14:27:12Z</time>
      </trkpt>
      <trkpt lat="40.237833" lon="-4.605400">
        <ele>621.0</ele>
        <time>2018-09-16T14:27:13Z</time>
      </trkpt>
      <trkpt lat="40.237833" lon="-4.605400">
        <ele>621.0</ele>
        <time>2018-09-16T14:27:14Z</time>
      </trkpt>
      <trkpt lat="40.237833" lon="-4.605400">
        <ele>621.0</ele>
        <time>2018-09-16T14:27:15Z</time>
      </trkpt>
      <trkpt lat="40.237833" lon="-4.605400">
        <ele>621.0</ele>
        <time>2018-09-16T14:27:16Z</time>
      </trkpt>
      <trkpt lat="40.237833" lon="-4.605400">
        <ele>621.0</ele>
        <time>2018-09-16T14:27:17Z</time>
      </trkpt>
      <trkpt lat="40.237833" lon="-4.605400">
        <ele>620.0</ele>
        <time>2018-09-16T14:27:18Z</time>
      </trkpt>
      <trkpt lat="40.237833" lon="-4.605400">
        <ele>620.0</ele>
        <time>2018-09-16T14:27:19Z</time>
      </trkpt>
      <trkpt lat="40.237833" lon="-4.605400">
        <ele>620.0</ele>
        <time>2018-09-16T14:27:20Z</time>
      </trkpt>
      <trkpt lat="40.237833" lon="-4.605400">
        <ele>620.0</ele>
        <time>2018-09-16T14:27:21Z</time>
      </trkpt>
      <trkpt lat="40.237833" lon="-4.605400">
        <ele>620.0</ele>
        <time>2018-09-16T14:27:22Z</time>
      </trkpt>
      <trkpt lat="40.237833" lon="-4.605400">
        <ele>621.0</ele>
        <time>2018-09-16T14:27:23Z</time>
      </trkpt>
      <trkpt lat="40.237833" lon="-4.605400">
        <ele>621.0</ele>
        <time>2018-09-16T14:27:24Z</time>
      </trkpt>
      <trkpt lat="40.237833" lon="-4.605400">
        <ele>621.0</ele>
        <time>2018-09-16T14:27:25Z</time>
      </trkpt>
      <trkpt lat="40.237833" lon="-4.605400">
        <ele>621.0</ele>
        <time>2018-09-16T14:27:26Z</time>
      </trkpt>
      <trkpt lat="40.237833" lon="-4.605400">
        <ele>621.0</ele>
        <time>2018-09-16T14:27:27Z</time>
      </trkpt>
      <trkpt lat="40.237833" lon="-4.605400">
        <ele>621.0</ele>
        <time>2018-09-16T14:27:28Z</time>
      </trkpt>
      <trkpt lat="40.237833" lon="-4.605400">
        <ele>621.0</ele>
        <time>2018-09-16T14:27:29Z</time>
      </trkpt>
      <trkpt lat="40.237833" lon="-4.605400">
        <ele>621.0</ele>
        <time>2018-09-16T14:27:30Z</time>
      </trkpt>
      <trkpt lat="40.237833" lon="-4.605400">
        <ele>621.0</ele>
        <time>2018-09-16T14:27:31Z</time>
      </trkpt>
      <trkpt lat="40.237833" lon="-4.605400">
        <ele>622.0</ele>
        <time>2018-09-16T14:27:32Z</time>
      </trkpt>
      <trkpt lat="40.237833" lon="-4.605400">
        <ele>622.0</ele>
        <time>2018-09-16T14:27:33Z</time>
      </trkpt>
      <trkpt lat="40.237833" lon="-4.605400">
        <ele>621.0</ele>
        <time>2018-09-16T14:27:34Z</time>
      </trkpt>
      <trkpt lat="40.237833" lon="-4.605400">
        <ele>622.0</ele>
        <time>2018-09-16T14:27:35Z</time>
      </trkpt>
      <trkpt lat="40.237833" lon="-4.605400">
        <ele>622.0</ele>
        <time>2018-09-16T14:27:36Z</time>
      </trkpt>
      <trkpt lat="40.237833" lon="-4.605400">
        <ele>622.0</ele>
        <time>2018-09-16T14:27:37Z</time>
      </trkpt>
      <trkpt lat="40.237833" lon="-4.605400">
        <ele>622.0</ele>
        <time>2018-09-16T14:27:38Z</time>
      </trkpt>
      <trkpt lat="40.237833" lon="-4.605400">
        <ele>622.0</ele>
        <time>2018-09-16T14:27:39Z</time>
      </trkpt>
      <trkpt lat="40.237833" lon="-4.605400">
        <ele>622.0</ele>
        <time>2018-09-16T14:27:40Z</time>
      </trkpt>
      <trkpt lat="40.237833" lon="-4.605400">
        <ele>622.0</ele>
        <time>2018-09-16T14:27:41Z</time>
      </trkpt>
      <trkpt lat="40.237833" lon="-4.605400">
        <ele>622.0</ele>
        <time>2018-09-16T14:27:42Z</time>
      </trkpt>
      <trkpt lat="40.237833" lon="-4.605400">
        <ele>621.0</ele>
        <time>2018-09-16T14:27:43Z</time>
      </trkpt>
    </trkseg>
  </trk>
</gpx>
